<?xml version="1.0" encoding="UTF-8" standalone="no" ?>
<gpx xmlns="http://www.topografix.com/GPX/1/1" xmlns:xsi="http://www.w3.org/2001/XMLSchema-instance" xsi:schemaLocation="http://www.topografix.com/GPX/1/1 http://www.topografix.com/GPX/1/1/gpx.xsd" version="1.1" creator="VisuGPX - https://www.visugpx.com">
  <metadata>
    <name>Dolomites Jour 10</name>
    <desc><![CDATA[De Domodossola à Megève, cap sur le mont blanc !]]></desc>
  </metadata>
  <trk>
    <name><![CDATA[Jour 10 - 05/08/2012]]></name>
    <trkseg>
      <trkpt lat="46.1291" lon="8.19798">
        <ele>1038.84</ele>
        <time>2012-08-05T07:32:43Z</time>
      </trkpt>
      <trkpt lat="46.12923" lon="8.19811">
        <ele>1037.4</ele>
        <time>2012-08-05T07:33:08Z</time>
      </trkpt>
      <trkpt lat="46.12924" lon="8.19811">
        <ele>1037.88</ele>
        <time>2012-08-05T07:33:17Z</time>
      </trkpt>
      <trkpt lat="46.12925" lon="8.19808">
        <ele>1041.25</ele>
        <time>2012-08-05T07:33:39Z</time>
      </trkpt>
      <trkpt lat="46.12924" lon="8.19808">
        <ele>1045.57</ele>
        <time>2012-08-05T07:33:42Z</time>
      </trkpt>
      <trkpt lat="46.12924" lon="8.19808">
        <ele>1049.9</ele>
        <time>2012-08-05T07:33:45Z</time>
      </trkpt>
      <trkpt lat="46.12925" lon="8.19808">
        <ele>1053.26</ele>
        <time>2012-08-05T07:33:50Z</time>
      </trkpt>
      <trkpt lat="46.12925" lon="8.19809">
        <ele>1056.63</ele>
        <time>2012-08-05T07:33:53Z</time>
      </trkpt>
      <trkpt lat="46.12925" lon="8.19809">
        <ele>1060.47</ele>
        <time>2012-08-05T07:33:57Z</time>
      </trkpt>
      <trkpt lat="46.12925" lon="8.19809">
        <ele>1060.47</ele>
        <time>2012-08-05T07:33:58Z</time>
      </trkpt>
      <trkpt lat="46.12925" lon="8.1981">
        <ele>1064.32</ele>
        <time>2012-08-05T07:34:03Z</time>
      </trkpt>
      <trkpt lat="46.12924" lon="8.19811">
        <ele>1068.16</ele>
        <time>2012-08-05T07:34:08Z</time>
      </trkpt>
      <trkpt lat="46.12924" lon="8.19812">
        <ele>1068.64</ele>
        <time>2012-08-05T07:34:10Z</time>
      </trkpt>
      <trkpt lat="46.12925" lon="8.19812">
        <ele>1072.01</ele>
        <time>2012-08-05T07:34:14Z</time>
      </trkpt>
      <trkpt lat="46.12926" lon="8.19812">
        <ele>1072.97</ele>
        <time>2012-08-05T07:34:16Z</time>
      </trkpt>
      <trkpt lat="46.12925" lon="8.19812">
        <ele>1075.37</ele>
        <time>2012-08-05T07:34:21Z</time>
      </trkpt>
      <trkpt lat="46.12924" lon="8.19812">
        <ele>1078.26</ele>
        <time>2012-08-05T07:34:27Z</time>
      </trkpt>
      <trkpt lat="46.12923" lon="8.19811">
        <ele>1079.7</ele>
        <time>2012-08-05T07:34:32Z</time>
      </trkpt>
      <trkpt lat="46.12923" lon="8.19795">
        <ele>1039.32</ele>
        <time>2012-08-05T07:36:04Z</time>
      </trkpt>
      <trkpt lat="46.12925" lon="8.19805">
        <ele>1039.32</ele>
        <time>2012-08-05T07:36:06Z</time>
      </trkpt>
      <trkpt lat="46.1293" lon="8.1981">
        <ele>1043.17</ele>
        <time>2012-08-05T07:36:12Z</time>
      </trkpt>
      <trkpt lat="46.12929" lon="8.1981">
        <ele>1047.49</ele>
        <time>2012-08-05T07:36:14Z</time>
      </trkpt>
      <trkpt lat="46.12929" lon="8.1981">
        <ele>1051.82</ele>
        <time>2012-08-05T07:36:17Z</time>
      </trkpt>
      <trkpt lat="46.12928" lon="8.1981">
        <ele>1055.67</ele>
        <time>2012-08-05T07:36:20Z</time>
      </trkpt>
      <trkpt lat="46.12927" lon="8.1981">
        <ele>1059.99</ele>
        <time>2012-08-05T07:36:23Z</time>
      </trkpt>
      <trkpt lat="46.12926" lon="8.1981">
        <ele>1063.84</ele>
        <time>2012-08-05T07:36:26Z</time>
      </trkpt>
      <trkpt lat="46.12925" lon="8.1981">
        <ele>1067.2</ele>
        <time>2012-08-05T07:36:29Z</time>
      </trkpt>
      <trkpt lat="46.12925" lon="8.19811">
        <ele>1068.16</ele>
        <time>2012-08-05T07:36:31Z</time>
      </trkpt>
      <trkpt lat="46.12926" lon="8.19811">
        <ele>1070.08</ele>
        <time>2012-08-05T07:36:33Z</time>
      </trkpt>
      <trkpt lat="46.12926" lon="8.19811">
        <ele>1074.41</ele>
        <time>2012-08-05T07:36:37Z</time>
      </trkpt>
      <trkpt lat="46.12926" lon="8.19812">
        <ele>1077.29</ele>
        <time>2012-08-05T07:36:41Z</time>
      </trkpt>
      <trkpt lat="46.12922" lon="8.19825">
        <ele>1039.8</ele>
        <time>2012-08-05T07:37:35Z</time>
      </trkpt>
      <trkpt lat="46.12921" lon="8.19826">
        <ele>1039.8</ele>
        <time>2012-08-05T07:37:36Z</time>
      </trkpt>
      <trkpt lat="46.12922" lon="8.19808">
        <ele>1044.13</ele>
        <time>2012-08-05T07:38:07Z</time>
      </trkpt>
      <trkpt lat="46.12922" lon="8.19808">
        <ele>1043.17</ele>
        <time>2012-08-05T07:38:08Z</time>
      </trkpt>
      <trkpt lat="46.12922" lon="8.19808">
        <ele>1038.84</ele>
        <time>2012-08-05T07:38:09Z</time>
      </trkpt>
      <trkpt lat="46.12922" lon="8.19808">
        <ele>1041.25</ele>
        <time>2012-08-05T07:38:10Z</time>
      </trkpt>
      <trkpt lat="46.12922" lon="8.19808">
        <ele>1038.36</ele>
        <time>2012-08-05T07:38:11Z</time>
      </trkpt>
      <trkpt lat="46.12922" lon="8.1981">
        <ele>1041.25</ele>
        <time>2012-08-05T07:38:17Z</time>
      </trkpt>
      <trkpt lat="46.12924" lon="8.19802">
        <ele>1038.84</ele>
        <time>2012-08-05T07:38:42Z</time>
      </trkpt>
      <trkpt lat="46.12924" lon="8.19812">
        <ele>1040.76</ele>
        <time>2012-08-05T07:39:11Z</time>
      </trkpt>
      <trkpt lat="46.12607" lon="8.19741">
        <ele>929.73</ele>
        <time>2012-08-05T07:43:57Z</time>
      </trkpt>
      <trkpt lat="46.12607" lon="8.19682">
        <ele>925.89</ele>
        <time>2012-08-05T07:44:02Z</time>
      </trkpt>
      <trkpt lat="46.12613" lon="8.19652">
        <ele>923.96</ele>
        <time>2012-08-05T07:44:04Z</time>
      </trkpt>
      <trkpt lat="46.12619" lon="8.19606">
        <ele>920.6</ele>
        <time>2012-08-05T07:44:08Z</time>
      </trkpt>
      <trkpt lat="46.12624" lon="8.19599">
        <ele>914.83</ele>
        <time>2012-08-05T07:44:13Z</time>
      </trkpt>
      <trkpt lat="46.12623" lon="8.19607">
        <ele>918.68</ele>
        <time>2012-08-05T07:44:14Z</time>
      </trkpt>
      <trkpt lat="46.12621" lon="8.19618">
        <ele>914.83</ele>
        <time>2012-08-05T07:44:15Z</time>
      </trkpt>
      <trkpt lat="46.12619" lon="8.19632">
        <ele>918.2</ele>
        <time>2012-08-05T07:44:16Z</time>
      </trkpt>
      <trkpt lat="46.12613" lon="8.19674">
        <ele>916.27</ele>
        <time>2012-08-05T07:44:19Z</time>
      </trkpt>
      <trkpt lat="46.12596" lon="8.19731">
        <ele>912.91</ele>
        <time>2012-08-05T07:44:23Z</time>
      </trkpt>
      <trkpt lat="46.12587" lon="8.19762">
        <ele>911.47</ele>
        <time>2012-08-05T07:44:25Z</time>
      </trkpt>
      <trkpt lat="46.12579" lon="8.19802">
        <ele>910.03</ele>
        <time>2012-08-05T07:44:28Z</time>
      </trkpt>
      <trkpt lat="46.12575" lon="8.19812">
        <ele>907.62</ele>
        <time>2012-08-05T07:44:29Z</time>
      </trkpt>
      <trkpt lat="46.12569" lon="8.19818">
        <ele>907.14</ele>
        <time>2012-08-05T07:44:30Z</time>
      </trkpt>
      <trkpt lat="46.12562" lon="8.19824">
        <ele>906.18</ele>
        <time>2012-08-05T07:44:31Z</time>
      </trkpt>
      <trkpt lat="46.12559" lon="8.19833">
        <ele>905.7</ele>
        <time>2012-08-05T07:44:32Z</time>
      </trkpt>
      <trkpt lat="46.12556" lon="8.19841">
        <ele>907.14</ele>
        <time>2012-08-05T07:44:33Z</time>
      </trkpt>
      <trkpt lat="46.12556" lon="8.19849">
        <ele>908.1</ele>
        <time>2012-08-05T07:44:34Z</time>
      </trkpt>
      <trkpt lat="46.12556" lon="8.19858">
        <ele>909.06</ele>
        <time>2012-08-05T07:44:35Z</time>
      </trkpt>
      <trkpt lat="46.12559" lon="8.19869">
        <ele>906.66</ele>
        <time>2012-08-05T07:44:36Z</time>
      </trkpt>
      <trkpt lat="46.12561" lon="8.19881">
        <ele>912.43</ele>
        <time>2012-08-05T07:44:37Z</time>
      </trkpt>
      <trkpt lat="46.12563" lon="8.19896">
        <ele>909.06</ele>
        <time>2012-08-05T07:44:38Z</time>
      </trkpt>
      <trkpt lat="46.12564" lon="8.19911">
        <ele>908.58</ele>
        <time>2012-08-05T07:44:39Z</time>
      </trkpt>
      <trkpt lat="46.12564" lon="8.19926">
        <ele>908.58</ele>
        <time>2012-08-05T07:44:40Z</time>
      </trkpt>
      <trkpt lat="46.12561" lon="8.19942">
        <ele>909.54</ele>
        <time>2012-08-05T07:44:41Z</time>
      </trkpt>
      <trkpt lat="46.12561" lon="8.19959">
        <ele>910.51</ele>
        <time>2012-08-05T07:44:42Z</time>
      </trkpt>
      <trkpt lat="46.12564" lon="8.19975">
        <ele>910.51</ele>
        <time>2012-08-05T07:44:43Z</time>
      </trkpt>
      <trkpt lat="46.12567" lon="8.19989">
        <ele>910.51</ele>
        <time>2012-08-05T07:44:44Z</time>
      </trkpt>
      <trkpt lat="46.12569" lon="8.20004">
        <ele>910.99</ele>
        <time>2012-08-05T07:44:45Z</time>
      </trkpt>
      <trkpt lat="46.1257" lon="8.20018">
        <ele>910.03</ele>
        <time>2012-08-05T07:44:46Z</time>
      </trkpt>
      <trkpt lat="46.12569" lon="8.20032">
        <ele>910.99</ele>
        <time>2012-08-05T07:44:47Z</time>
      </trkpt>
      <trkpt lat="46.12566" lon="8.20047">
        <ele>911.95</ele>
        <time>2012-08-05T07:44:48Z</time>
      </trkpt>
      <trkpt lat="46.1256" lon="8.20062">
        <ele>911.95</ele>
        <time>2012-08-05T07:44:49Z</time>
      </trkpt>
      <trkpt lat="46.12554" lon="8.20077">
        <ele>911.47</ele>
        <time>2012-08-05T07:44:50Z</time>
      </trkpt>
      <trkpt lat="46.12546" lon="8.20088">
        <ele>909.54</ele>
        <time>2012-08-05T07:44:51Z</time>
      </trkpt>
      <trkpt lat="46.12537" lon="8.20096">
        <ele>908.58</ele>
        <time>2012-08-05T07:44:52Z</time>
      </trkpt>
      <trkpt lat="46.1253" lon="8.20103">
        <ele>908.1</ele>
        <time>2012-08-05T07:44:53Z</time>
      </trkpt>
      <trkpt lat="46.12526" lon="8.20112">
        <ele>908.58</ele>
        <time>2012-08-05T07:44:54Z</time>
      </trkpt>
      <trkpt lat="46.12523" lon="8.20123">
        <ele>909.06</ele>
        <time>2012-08-05T07:44:55Z</time>
      </trkpt>
      <trkpt lat="46.12522" lon="8.20135">
        <ele>910.03</ele>
        <time>2012-08-05T07:44:56Z</time>
      </trkpt>
      <trkpt lat="46.12523" lon="8.20146">
        <ele>909.54</ele>
        <time>2012-08-05T07:44:57Z</time>
      </trkpt>
      <trkpt lat="46.12526" lon="8.20156">
        <ele>909.06</ele>
        <time>2012-08-05T07:44:58Z</time>
      </trkpt>
      <trkpt lat="46.12531" lon="8.20164">
        <ele>908.58</ele>
        <time>2012-08-05T07:44:59Z</time>
      </trkpt>
      <trkpt lat="46.12537" lon="8.2017">
        <ele>909.06</ele>
        <time>2012-08-05T07:45:00Z</time>
      </trkpt>
      <trkpt lat="46.12541" lon="8.20173">
        <ele>909.54</ele>
        <time>2012-08-05T07:45:01Z</time>
      </trkpt>
      <trkpt lat="46.12544" lon="8.20175">
        <ele>910.03</ele>
        <time>2012-08-05T07:45:02Z</time>
      </trkpt>
      <trkpt lat="46.12549" lon="8.20178">
        <ele>913.39</ele>
        <time>2012-08-05T07:45:06Z</time>
      </trkpt>
      <trkpt lat="46.12553" lon="8.20181">
        <ele>913.39</ele>
        <time>2012-08-05T07:45:07Z</time>
      </trkpt>
      <trkpt lat="46.12557" lon="8.20185">
        <ele>913.39</ele>
        <time>2012-08-05T07:45:08Z</time>
      </trkpt>
      <trkpt lat="46.12561" lon="8.20191">
        <ele>914.35</ele>
        <time>2012-08-05T07:45:09Z</time>
      </trkpt>
      <trkpt lat="46.12562" lon="8.20197">
        <ele>913.87</ele>
        <time>2012-08-05T07:45:10Z</time>
      </trkpt>
      <trkpt lat="46.12562" lon="8.20201">
        <ele>913.87</ele>
        <time>2012-08-05T07:45:11Z</time>
      </trkpt>
      <trkpt lat="46.12561" lon="8.20203">
        <ele>914.35</ele>
        <time>2012-08-05T07:45:12Z</time>
      </trkpt>
      <trkpt lat="46.12558" lon="8.20201">
        <ele>913.87</ele>
        <time>2012-08-05T07:45:13Z</time>
      </trkpt>
      <trkpt lat="46.12553" lon="8.20196">
        <ele>915.31</ele>
        <time>2012-08-05T07:45:14Z</time>
      </trkpt>
      <trkpt lat="46.12544" lon="8.20186">
        <ele>914.83</ele>
        <time>2012-08-05T07:45:15Z</time>
      </trkpt>
      <trkpt lat="46.12535" lon="8.20175">
        <ele>914.35</ele>
        <time>2012-08-05T07:45:16Z</time>
      </trkpt>
      <trkpt lat="46.12517" lon="8.20154">
        <ele>916.27</ele>
        <time>2012-08-05T07:45:18Z</time>
      </trkpt>
      <trkpt lat="46.12494" lon="8.20123">
        <ele>912.43</ele>
        <time>2012-08-05T07:45:21Z</time>
      </trkpt>
      <trkpt lat="46.12488" lon="8.20114">
        <ele>912.91</ele>
        <time>2012-08-05T07:45:22Z</time>
      </trkpt>
      <trkpt lat="46.12479" lon="8.20066">
        <ele>910.03</ele>
        <time>2012-08-05T07:45:26Z</time>
      </trkpt>
      <trkpt lat="46.12484" lon="8.20038">
        <ele>910.03</ele>
        <time>2012-08-05T07:45:28Z</time>
      </trkpt>
      <trkpt lat="46.12491" lon="8.2001">
        <ele>909.06</ele>
        <time>2012-08-05T07:45:30Z</time>
      </trkpt>
      <trkpt lat="46.12499" lon="8.1999">
        <ele>908.1</ele>
        <time>2012-08-05T07:45:32Z</time>
      </trkpt>
      <trkpt lat="46.12501" lon="8.1998">
        <ele>907.62</ele>
        <time>2012-08-05T07:45:33Z</time>
      </trkpt>
      <trkpt lat="46.12504" lon="8.19948">
        <ele>907.14</ele>
        <time>2012-08-05T07:45:37Z</time>
      </trkpt>
      <trkpt lat="46.12504" lon="8.19936">
        <ele>903.78</ele>
        <time>2012-08-05T07:45:38Z</time>
      </trkpt>
      <trkpt lat="46.12498" lon="8.19922">
        <ele>906.18</ele>
        <time>2012-08-05T07:45:40Z</time>
      </trkpt>
      <trkpt lat="46.12469" lon="8.19899">
        <ele>903.78</ele>
        <time>2012-08-05T07:45:41Z</time>
      </trkpt>
      <trkpt lat="46.12455" lon="8.19887">
        <ele>899.45</ele>
        <time>2012-08-05T07:45:42Z</time>
      </trkpt>
      <trkpt lat="46.12444" lon="8.19876">
        <ele>902.82</ele>
        <time>2012-08-05T07:45:43Z</time>
      </trkpt>
      <trkpt lat="46.12426" lon="8.19856">
        <ele>900.89</ele>
        <time>2012-08-05T07:45:45Z</time>
      </trkpt>
      <trkpt lat="46.12417" lon="8.19798">
        <ele>898.49</ele>
        <time>2012-08-05T07:45:50Z</time>
      </trkpt>
      <trkpt lat="46.12434" lon="8.19762">
        <ele>895.61</ele>
        <time>2012-08-05T07:45:55Z</time>
      </trkpt>
      <trkpt lat="46.12407" lon="8.19774">
        <ele>894.64</ele>
        <time>2012-08-05T07:45:59Z</time>
      </trkpt>
      <trkpt lat="46.12396" lon="8.19797">
        <ele>892.72</ele>
        <time>2012-08-05T07:46:01Z</time>
      </trkpt>
      <trkpt lat="46.12402" lon="8.19877">
        <ele>887.91</ele>
        <time>2012-08-05T07:46:07Z</time>
      </trkpt>
      <trkpt lat="46.12418" lon="8.1992">
        <ele>884.07</ele>
        <time>2012-08-05T07:46:10Z</time>
      </trkpt>
      <trkpt lat="46.12444" lon="8.1995">
        <ele>879.26</ele>
        <time>2012-08-05T07:46:14Z</time>
      </trkpt>
      <trkpt lat="46.12447" lon="8.1996">
        <ele>878.3</ele>
        <time>2012-08-05T07:46:16Z</time>
      </trkpt>
      <trkpt lat="46.12447" lon="8.19969">
        <ele>877.82</ele>
        <time>2012-08-05T07:46:20Z</time>
      </trkpt>
      <trkpt lat="46.12447" lon="8.19965">
        <ele>876.38</ele>
        <time>2012-08-05T07:46:21Z</time>
      </trkpt>
      <trkpt lat="46.12445" lon="8.19957">
        <ele>873.5</ele>
        <time>2012-08-05T07:46:23Z</time>
      </trkpt>
      <trkpt lat="46.12443" lon="8.19953">
        <ele>871.57</ele>
        <time>2012-08-05T07:46:24Z</time>
      </trkpt>
      <trkpt lat="46.12438" lon="8.19945">
        <ele>870.13</ele>
        <time>2012-08-05T07:46:25Z</time>
      </trkpt>
      <trkpt lat="46.12427" lon="8.19933">
        <ele>868.69</ele>
        <time>2012-08-05T07:46:26Z</time>
      </trkpt>
      <trkpt lat="46.12399" lon="8.19863">
        <ele>864.84</ele>
        <time>2012-08-05T07:46:30Z</time>
      </trkpt>
      <trkpt lat="46.12398" lon="8.19799">
        <ele>861.48</ele>
        <time>2012-08-05T07:46:34Z</time>
      </trkpt>
      <trkpt lat="46.12406" lon="8.19785">
        <ele>861</ele>
        <time>2012-08-05T07:46:35Z</time>
      </trkpt>
      <trkpt lat="46.12438" lon="8.19734">
        <ele>856.67</ele>
        <time>2012-08-05T07:46:39Z</time>
      </trkpt>
      <trkpt lat="46.12449" lon="8.19717">
        <ele>855.23</ele>
        <time>2012-08-05T07:46:41Z</time>
      </trkpt>
      <trkpt lat="46.12452" lon="8.19709">
        <ele>854.75</ele>
        <time>2012-08-05T07:46:43Z</time>
      </trkpt>
      <trkpt lat="46.12416" lon="8.19707">
        <ele>853.79</ele>
        <time>2012-08-05T07:46:46Z</time>
      </trkpt>
      <trkpt lat="46.12388" lon="8.19755">
        <ele>849.94</ele>
        <time>2012-08-05T07:46:49Z</time>
      </trkpt>
      <trkpt lat="46.12382" lon="8.19769">
        <ele>847.54</ele>
        <time>2012-08-05T07:46:50Z</time>
      </trkpt>
      <trkpt lat="46.12364" lon="8.19796">
        <ele>845.14</ele>
        <time>2012-08-05T07:46:52Z</time>
      </trkpt>
      <trkpt lat="46.12339" lon="8.19862">
        <ele>840.33</ele>
        <time>2012-08-05T07:46:57Z</time>
      </trkpt>
      <trkpt lat="46.12338" lon="8.19909">
        <ele>836.48</ele>
        <time>2012-08-05T07:46:59Z</time>
      </trkpt>
      <trkpt lat="46.12347" lon="8.19941">
        <ele>833.12</ele>
        <time>2012-08-05T07:47:01Z</time>
      </trkpt>
      <trkpt lat="46.12367" lon="8.19997">
        <ele>827.83</ele>
        <time>2012-08-05T07:47:05Z</time>
      </trkpt>
      <trkpt lat="46.12387" lon="8.2003">
        <ele>824.47</ele>
        <time>2012-08-05T07:47:09Z</time>
      </trkpt>
      <trkpt lat="46.12389" lon="8.20055">
        <ele>823.51</ele>
        <time>2012-08-05T07:47:11Z</time>
      </trkpt>
      <trkpt lat="46.12387" lon="8.20083">
        <ele>822.55</ele>
        <time>2012-08-05T07:47:13Z</time>
      </trkpt>
      <trkpt lat="46.12377" lon="8.20128">
        <ele>820.14</ele>
        <time>2012-08-05T07:47:16Z</time>
      </trkpt>
      <trkpt lat="46.12367" lon="8.20176">
        <ele>815.82</ele>
        <time>2012-08-05T07:47:19Z</time>
      </trkpt>
      <trkpt lat="46.12361" lon="8.20227">
        <ele>811.49</ele>
        <time>2012-08-05T07:47:23Z</time>
      </trkpt>
      <trkpt lat="46.12351" lon="8.20208">
        <ele>809.57</ele>
        <time>2012-08-05T07:47:27Z</time>
      </trkpt>
      <trkpt lat="46.12355" lon="8.20178">
        <ele>808.61</ele>
        <time>2012-08-05T07:47:29Z</time>
      </trkpt>
      <trkpt lat="46.12351" lon="8.20103">
        <ele>804.28</ele>
        <time>2012-08-05T07:47:33Z</time>
      </trkpt>
      <trkpt lat="46.12355" lon="8.20058">
        <ele>799.47</ele>
        <time>2012-08-05T07:47:36Z</time>
      </trkpt>
      <trkpt lat="46.12329" lon="8.20014">
        <ele>798.51</ele>
        <time>2012-08-05T07:47:41Z</time>
      </trkpt>
      <trkpt lat="46.12299" lon="8.19974">
        <ele>795.15</ele>
        <time>2012-08-05T07:47:46Z</time>
      </trkpt>
      <trkpt lat="46.12273" lon="8.19926">
        <ele>795.63</ele>
        <time>2012-08-05T07:47:51Z</time>
      </trkpt>
      <trkpt lat="46.12232" lon="8.20108">
        <ele>738.91</ele>
        <time>2012-08-05T07:48:43Z</time>
      </trkpt>
      <trkpt lat="46.1223" lon="8.20135">
        <ele>736.51</ele>
        <time>2012-08-05T07:48:45Z</time>
      </trkpt>
      <trkpt lat="46.12226" lon="8.20184">
        <ele>733.14</ele>
        <time>2012-08-05T07:48:50Z</time>
      </trkpt>
      <trkpt lat="46.12228" lon="8.20227">
        <ele>730.74</ele>
        <time>2012-08-05T07:48:54Z</time>
      </trkpt>
      <trkpt lat="46.12231" lon="8.20247">
        <ele>729.78</ele>
        <time>2012-08-05T07:48:56Z</time>
      </trkpt>
      <trkpt lat="46.12233" lon="8.20256">
        <ele>729.3</ele>
        <time>2012-08-05T07:48:57Z</time>
      </trkpt>
      <trkpt lat="46.12239" lon="8.20273">
        <ele>728.34</ele>
        <time>2012-08-05T07:48:59Z</time>
      </trkpt>
      <trkpt lat="46.12249" lon="8.20288">
        <ele>728.34</ele>
        <time>2012-08-05T07:49:01Z</time>
      </trkpt>
      <trkpt lat="46.1226" lon="8.20303">
        <ele>727.37</ele>
        <time>2012-08-05T07:49:03Z</time>
      </trkpt>
      <trkpt lat="46.12275" lon="8.20331">
        <ele>722.57</ele>
        <time>2012-08-05T07:49:06Z</time>
      </trkpt>
      <trkpt lat="46.1228" lon="8.20341">
        <ele>724.01</ele>
        <time>2012-08-05T07:49:07Z</time>
      </trkpt>
      <trkpt lat="46.12295" lon="8.20371">
        <ele>721.13</ele>
        <time>2012-08-05T07:49:10Z</time>
      </trkpt>
      <trkpt lat="46.12307" lon="8.204">
        <ele>717.76</ele>
        <time>2012-08-05T07:49:13Z</time>
      </trkpt>
      <trkpt lat="46.12309" lon="8.2041">
        <ele>717.28</ele>
        <time>2012-08-05T07:49:14Z</time>
      </trkpt>
      <trkpt lat="46.12309" lon="8.20421">
        <ele>716.8</ele>
        <time>2012-08-05T07:49:15Z</time>
      </trkpt>
      <trkpt lat="46.12309" lon="8.20432">
        <ele>715.36</ele>
        <time>2012-08-05T07:49:16Z</time>
      </trkpt>
      <trkpt lat="46.12308" lon="8.20443">
        <ele>714.4</ele>
        <time>2012-08-05T07:49:17Z</time>
      </trkpt>
      <trkpt lat="46.12308" lon="8.20467">
        <ele>712.95</ele>
        <time>2012-08-05T07:49:19Z</time>
      </trkpt>
      <trkpt lat="46.12319" lon="8.20519">
        <ele>709.59</ele>
        <time>2012-08-05T07:49:23Z</time>
      </trkpt>
      <trkpt lat="46.12325" lon="8.20545">
        <ele>706.71</ele>
        <time>2012-08-05T07:49:25Z</time>
      </trkpt>
      <trkpt lat="46.12328" lon="8.20572">
        <ele>705.26</ele>
        <time>2012-08-05T07:49:27Z</time>
      </trkpt>
      <trkpt lat="46.12329" lon="8.20587">
        <ele>704.3</ele>
        <time>2012-08-05T07:49:28Z</time>
      </trkpt>
      <trkpt lat="46.12327" lon="8.20637">
        <ele>701.42</ele>
        <time>2012-08-05T07:49:32Z</time>
      </trkpt>
      <trkpt lat="46.12325" lon="8.20673">
        <ele>699.02</ele>
        <time>2012-08-05T07:49:36Z</time>
      </trkpt>
      <trkpt lat="46.12326" lon="8.20683">
        <ele>699.02</ele>
        <time>2012-08-05T07:49:37Z</time>
      </trkpt>
      <trkpt lat="46.12329" lon="8.20693">
        <ele>698.53</ele>
        <time>2012-08-05T07:49:38Z</time>
      </trkpt>
      <trkpt lat="46.12331" lon="8.20702">
        <ele>697.09</ele>
        <time>2012-08-05T07:49:39Z</time>
      </trkpt>
      <trkpt lat="46.12334" lon="8.2071">
        <ele>696.61</ele>
        <time>2012-08-05T07:49:40Z</time>
      </trkpt>
      <trkpt lat="46.12344" lon="8.20742">
        <ele>695.17</ele>
        <time>2012-08-05T07:49:45Z</time>
      </trkpt>
      <trkpt lat="46.12343" lon="8.20755">
        <ele>693.25</ele>
        <time>2012-08-05T07:49:49Z</time>
      </trkpt>
      <trkpt lat="46.12345" lon="8.20749">
        <ele>693.25</ele>
        <time>2012-08-05T07:49:50Z</time>
      </trkpt>
      <trkpt lat="46.12348" lon="8.20738">
        <ele>692.29</ele>
        <time>2012-08-05T07:49:52Z</time>
      </trkpt>
      <trkpt lat="46.12345" lon="8.20728">
        <ele>691.81</ele>
        <time>2012-08-05T07:49:53Z</time>
      </trkpt>
      <trkpt lat="46.12342" lon="8.20718">
        <ele>691.81</ele>
        <time>2012-08-05T07:49:54Z</time>
      </trkpt>
      <trkpt lat="46.12338" lon="8.20709">
        <ele>689.4</ele>
        <time>2012-08-05T07:49:55Z</time>
      </trkpt>
      <trkpt lat="46.12335" lon="8.20701">
        <ele>690.84</ele>
        <time>2012-08-05T07:49:56Z</time>
      </trkpt>
      <trkpt lat="46.12318" lon="8.20641">
        <ele>686.52</ele>
        <time>2012-08-05T07:50:03Z</time>
      </trkpt>
      <trkpt lat="46.12316" lon="8.20632">
        <ele>688.44</ele>
        <time>2012-08-05T07:50:04Z</time>
      </trkpt>
      <trkpt lat="46.12308" lon="8.2061">
        <ele>687.48</ele>
        <time>2012-08-05T07:50:07Z</time>
      </trkpt>
      <trkpt lat="46.12304" lon="8.20605">
        <ele>687.48</ele>
        <time>2012-08-05T07:50:08Z</time>
      </trkpt>
      <trkpt lat="46.12297" lon="8.20602">
        <ele>686.52</ele>
        <time>2012-08-05T07:50:09Z</time>
      </trkpt>
      <trkpt lat="46.12291" lon="8.20605">
        <ele>686.52</ele>
        <time>2012-08-05T07:50:10Z</time>
      </trkpt>
      <trkpt lat="46.12285" lon="8.20609">
        <ele>686.52</ele>
        <time>2012-08-05T07:50:11Z</time>
      </trkpt>
      <trkpt lat="46.12281" lon="8.20613">
        <ele>686.04</ele>
        <time>2012-08-05T07:50:12Z</time>
      </trkpt>
      <trkpt lat="46.12279" lon="8.20617">
        <ele>685.08</ele>
        <time>2012-08-05T07:50:13Z</time>
      </trkpt>
      <trkpt lat="46.12277" lon="8.20621">
        <ele>684.12</ele>
        <time>2012-08-05T07:50:14Z</time>
      </trkpt>
      <trkpt lat="46.12276" lon="8.20627">
        <ele>684.12</ele>
        <time>2012-08-05T07:50:15Z</time>
      </trkpt>
      <trkpt lat="46.12276" lon="8.20634">
        <ele>683.63</ele>
        <time>2012-08-05T07:50:16Z</time>
      </trkpt>
      <trkpt lat="46.12276" lon="8.20641">
        <ele>682.19</ele>
        <time>2012-08-05T07:50:17Z</time>
      </trkpt>
      <trkpt lat="46.12276" lon="8.20648">
        <ele>680.75</ele>
        <time>2012-08-05T07:50:18Z</time>
      </trkpt>
      <trkpt lat="46.12276" lon="8.20655">
        <ele>680.75</ele>
        <time>2012-08-05T07:50:19Z</time>
      </trkpt>
      <trkpt lat="46.12282" lon="8.20677">
        <ele>679.31</ele>
        <time>2012-08-05T07:50:21Z</time>
      </trkpt>
      <trkpt lat="46.12288" lon="8.20711">
        <ele>677.39</ele>
        <time>2012-08-05T07:50:24Z</time>
      </trkpt>
      <trkpt lat="46.12287" lon="8.20732">
        <ele>675.46</ele>
        <time>2012-08-05T07:50:26Z</time>
      </trkpt>
      <trkpt lat="46.12286" lon="8.20743">
        <ele>674.5</ele>
        <time>2012-08-05T07:50:27Z</time>
      </trkpt>
      <trkpt lat="46.1228" lon="8.20784">
        <ele>671.62</ele>
        <time>2012-08-05T07:50:31Z</time>
      </trkpt>
      <trkpt lat="46.12275" lon="8.20825">
        <ele>667.77</ele>
        <time>2012-08-05T07:50:35Z</time>
      </trkpt>
      <trkpt lat="46.12273" lon="8.20835">
        <ele>667.29</ele>
        <time>2012-08-05T07:50:36Z</time>
      </trkpt>
      <trkpt lat="46.12268" lon="8.20879">
        <ele>664.89</ele>
        <time>2012-08-05T07:50:40Z</time>
      </trkpt>
      <trkpt lat="46.12264" lon="8.20921">
        <ele>662.97</ele>
        <time>2012-08-05T07:50:44Z</time>
      </trkpt>
      <trkpt lat="46.12255" lon="8.20967">
        <ele>659.6</ele>
        <time>2012-08-05T07:50:48Z</time>
      </trkpt>
      <trkpt lat="46.12243" lon="8.21013">
        <ele>655.76</ele>
        <time>2012-08-05T07:50:52Z</time>
      </trkpt>
      <trkpt lat="46.12232" lon="8.21058">
        <ele>651.91</ele>
        <time>2012-08-05T07:50:56Z</time>
      </trkpt>
      <trkpt lat="46.12227" lon="8.2108">
        <ele>650.95</ele>
        <time>2012-08-05T07:50:58Z</time>
      </trkpt>
      <trkpt lat="46.12226" lon="8.21092">
        <ele>649.51</ele>
        <time>2012-08-05T07:50:59Z</time>
      </trkpt>
      <trkpt lat="46.12226" lon="8.21104">
        <ele>648.55</ele>
        <time>2012-08-05T07:51:00Z</time>
      </trkpt>
      <trkpt lat="46.12229" lon="8.21118">
        <ele>647.1</ele>
        <time>2012-08-05T07:51:01Z</time>
      </trkpt>
      <trkpt lat="46.12231" lon="8.21132">
        <ele>646.14</ele>
        <time>2012-08-05T07:51:02Z</time>
      </trkpt>
      <trkpt lat="46.12232" lon="8.21158">
        <ele>644.22</ele>
        <time>2012-08-05T07:51:04Z</time>
      </trkpt>
      <trkpt lat="46.12231" lon="8.21172">
        <ele>642.78</ele>
        <time>2012-08-05T07:51:05Z</time>
      </trkpt>
      <trkpt lat="46.12228" lon="8.21185">
        <ele>642.3</ele>
        <time>2012-08-05T07:51:06Z</time>
      </trkpt>
      <trkpt lat="46.12224" lon="8.21197">
        <ele>641.34</ele>
        <time>2012-08-05T07:51:07Z</time>
      </trkpt>
      <trkpt lat="46.1222" lon="8.2121">
        <ele>639.89</ele>
        <time>2012-08-05T07:51:08Z</time>
      </trkpt>
      <trkpt lat="46.12196" lon="8.21274">
        <ele>636.05</ele>
        <time>2012-08-05T07:51:13Z</time>
      </trkpt>
      <trkpt lat="46.12182" lon="8.2132">
        <ele>634.13</ele>
        <time>2012-08-05T07:51:17Z</time>
      </trkpt>
      <trkpt lat="46.12179" lon="8.21345">
        <ele>633.17</ele>
        <time>2012-08-05T07:51:19Z</time>
      </trkpt>
      <trkpt lat="46.12177" lon="8.21373">
        <ele>632.68</ele>
        <time>2012-08-05T07:51:21Z</time>
      </trkpt>
      <trkpt lat="46.12174" lon="8.21406">
        <ele>631.72</ele>
        <time>2012-08-05T07:51:23Z</time>
      </trkpt>
      <trkpt lat="46.12175" lon="8.21422">
        <ele>631.24</ele>
        <time>2012-08-05T07:51:24Z</time>
      </trkpt>
      <trkpt lat="46.12177" lon="8.21437">
        <ele>630.28</ele>
        <time>2012-08-05T07:51:25Z</time>
      </trkpt>
      <trkpt lat="46.12179" lon="8.21452">
        <ele>629.32</ele>
        <time>2012-08-05T07:51:26Z</time>
      </trkpt>
      <trkpt lat="46.12177" lon="8.21467">
        <ele>628.84</ele>
        <time>2012-08-05T07:51:27Z</time>
      </trkpt>
      <trkpt lat="46.12173" lon="8.21484">
        <ele>628.36</ele>
        <time>2012-08-05T07:51:28Z</time>
      </trkpt>
      <trkpt lat="46.12168" lon="8.21503">
        <ele>628.84</ele>
        <time>2012-08-05T07:51:29Z</time>
      </trkpt>
      <trkpt lat="46.12149" lon="8.21589">
        <ele>624.99</ele>
        <time>2012-08-05T07:51:33Z</time>
      </trkpt>
      <trkpt lat="46.12143" lon="8.21644">
        <ele>622.11</ele>
        <time>2012-08-05T07:51:36Z</time>
      </trkpt>
      <trkpt lat="46.12143" lon="8.21661">
        <ele>620.67</ele>
        <time>2012-08-05T07:51:37Z</time>
      </trkpt>
      <trkpt lat="46.12146" lon="8.21677">
        <ele>621.15</ele>
        <time>2012-08-05T07:51:38Z</time>
      </trkpt>
      <trkpt lat="46.1215" lon="8.21693">
        <ele>620.67</ele>
        <time>2012-08-05T07:51:39Z</time>
      </trkpt>
      <trkpt lat="46.12157" lon="8.21709">
        <ele>619.71</ele>
        <time>2012-08-05T07:51:40Z</time>
      </trkpt>
      <trkpt lat="46.12163" lon="8.21723">
        <ele>619.23</ele>
        <time>2012-08-05T07:51:41Z</time>
      </trkpt>
      <trkpt lat="46.12173" lon="8.21752">
        <ele>617.78</ele>
        <time>2012-08-05T07:51:43Z</time>
      </trkpt>
      <trkpt lat="46.12176" lon="8.21768">
        <ele>616.82</ele>
        <time>2012-08-05T07:51:44Z</time>
      </trkpt>
      <trkpt lat="46.12178" lon="8.21785">
        <ele>616.82</ele>
        <time>2012-08-05T07:51:45Z</time>
      </trkpt>
      <trkpt lat="46.12185" lon="8.21854">
        <ele>616.82</ele>
        <time>2012-08-05T07:51:49Z</time>
      </trkpt>
      <trkpt lat="46.12189" lon="8.21868">
        <ele>615.86</ele>
        <time>2012-08-05T07:51:50Z</time>
      </trkpt>
      <trkpt lat="46.12199" lon="8.21911">
        <ele>614.9</ele>
        <time>2012-08-05T07:51:53Z</time>
      </trkpt>
      <trkpt lat="46.12202" lon="8.21927">
        <ele>613.46</ele>
        <time>2012-08-05T07:51:54Z</time>
      </trkpt>
      <trkpt lat="46.1221" lon="8.21989">
        <ele>610.09</ele>
        <time>2012-08-05T07:51:58Z</time>
      </trkpt>
      <trkpt lat="46.12215" lon="8.2202">
        <ele>608.17</ele>
        <time>2012-08-05T07:52:00Z</time>
      </trkpt>
      <trkpt lat="46.12218" lon="8.22051">
        <ele>606.25</ele>
        <time>2012-08-05T07:52:02Z</time>
      </trkpt>
      <trkpt lat="46.12217" lon="8.22067">
        <ele>605.29</ele>
        <time>2012-08-05T07:52:03Z</time>
      </trkpt>
      <trkpt lat="46.12212" lon="8.22108">
        <ele>602.4</ele>
        <time>2012-08-05T07:52:06Z</time>
      </trkpt>
      <trkpt lat="46.12206" lon="8.22138">
        <ele>600</ele>
        <time>2012-08-05T07:52:09Z</time>
      </trkpt>
      <trkpt lat="46.12202" lon="8.22145">
        <ele>599.04</ele>
        <time>2012-08-05T07:52:10Z</time>
      </trkpt>
      <trkpt lat="46.12197" lon="8.22151">
        <ele>598.56</ele>
        <time>2012-08-05T07:52:11Z</time>
      </trkpt>
      <trkpt lat="46.1219" lon="8.22156">
        <ele>598.08</ele>
        <time>2012-08-05T07:52:12Z</time>
      </trkpt>
      <trkpt lat="46.12182" lon="8.22158">
        <ele>597.12</ele>
        <time>2012-08-05T07:52:13Z</time>
      </trkpt>
      <trkpt lat="46.12173" lon="8.22158">
        <ele>595.67</ele>
        <time>2012-08-05T07:52:14Z</time>
      </trkpt>
      <trkpt lat="46.12164" lon="8.22156">
        <ele>595.19</ele>
        <time>2012-08-05T07:52:15Z</time>
      </trkpt>
      <trkpt lat="46.12155" lon="8.22153">
        <ele>593.75</ele>
        <time>2012-08-05T07:52:16Z</time>
      </trkpt>
      <trkpt lat="46.12147" lon="8.22148">
        <ele>593.75</ele>
        <time>2012-08-05T07:52:17Z</time>
      </trkpt>
      <trkpt lat="46.1214" lon="8.22145">
        <ele>593.27</ele>
        <time>2012-08-05T07:52:18Z</time>
      </trkpt>
      <trkpt lat="46.12133" lon="8.22145">
        <ele>592.79</ele>
        <time>2012-08-05T07:52:19Z</time>
      </trkpt>
      <trkpt lat="46.12128" lon="8.22149">
        <ele>592.31</ele>
        <time>2012-08-05T07:52:20Z</time>
      </trkpt>
      <trkpt lat="46.12125" lon="8.22154">
        <ele>592.31</ele>
        <time>2012-08-05T07:52:21Z</time>
      </trkpt>
      <trkpt lat="46.12127" lon="8.22158">
        <ele>591.35</ele>
        <time>2012-08-05T07:52:22Z</time>
      </trkpt>
      <trkpt lat="46.12131" lon="8.22161">
        <ele>591.83</ele>
        <time>2012-08-05T07:52:23Z</time>
      </trkpt>
      <trkpt lat="46.12139" lon="8.22164">
        <ele>591.83</ele>
        <time>2012-08-05T07:52:24Z</time>
      </trkpt>
      <trkpt lat="46.12149" lon="8.22165">
        <ele>589.43</ele>
        <time>2012-08-05T07:52:25Z</time>
      </trkpt>
      <trkpt lat="46.12161" lon="8.22165">
        <ele>590.39</ele>
        <time>2012-08-05T07:52:26Z</time>
      </trkpt>
      <trkpt lat="46.12171" lon="8.22164">
        <ele>588.46</ele>
        <time>2012-08-05T07:52:27Z</time>
      </trkpt>
      <trkpt lat="46.1218" lon="8.22164">
        <ele>587.5</ele>
        <time>2012-08-05T07:52:28Z</time>
      </trkpt>
      <trkpt lat="46.12188" lon="8.22167">
        <ele>586.06</ele>
        <time>2012-08-05T07:52:29Z</time>
      </trkpt>
      <trkpt lat="46.12197" lon="8.22173">
        <ele>585.58</ele>
        <time>2012-08-05T07:52:30Z</time>
      </trkpt>
      <trkpt lat="46.12204" lon="8.2218">
        <ele>585.58</ele>
        <time>2012-08-05T07:52:31Z</time>
      </trkpt>
      <trkpt lat="46.12209" lon="8.22191">
        <ele>584.62</ele>
        <time>2012-08-05T07:52:32Z</time>
      </trkpt>
      <trkpt lat="46.12212" lon="8.22204">
        <ele>583.66</ele>
        <time>2012-08-05T07:52:33Z</time>
      </trkpt>
      <trkpt lat="46.12212" lon="8.22216">
        <ele>583.18</ele>
        <time>2012-08-05T07:52:34Z</time>
      </trkpt>
      <trkpt lat="46.1221" lon="8.22227">
        <ele>582.22</ele>
        <time>2012-08-05T07:52:35Z</time>
      </trkpt>
      <trkpt lat="46.12207" lon="8.22237">
        <ele>582.22</ele>
        <time>2012-08-05T07:52:36Z</time>
      </trkpt>
      <trkpt lat="46.12202" lon="8.22248">
        <ele>581.25</ele>
        <time>2012-08-05T07:52:37Z</time>
      </trkpt>
      <trkpt lat="46.12195" lon="8.22258">
        <ele>581.73</ele>
        <time>2012-08-05T07:52:38Z</time>
      </trkpt>
      <trkpt lat="46.12188" lon="8.22265">
        <ele>579.81</ele>
        <time>2012-08-05T07:52:39Z</time>
      </trkpt>
      <trkpt lat="46.12182" lon="8.22269">
        <ele>579.33</ele>
        <time>2012-08-05T07:52:40Z</time>
      </trkpt>
      <trkpt lat="46.12174" lon="8.22271">
        <ele>577.89</ele>
        <time>2012-08-05T07:52:41Z</time>
      </trkpt>
      <trkpt lat="46.12151" lon="8.22277">
        <ele>575.49</ele>
        <time>2012-08-05T07:52:44Z</time>
      </trkpt>
      <trkpt lat="46.12136" lon="8.22287">
        <ele>573.56</ele>
        <time>2012-08-05T07:52:46Z</time>
      </trkpt>
      <trkpt lat="46.1213" lon="8.2229">
        <ele>574.04</ele>
        <time>2012-08-05T07:52:47Z</time>
      </trkpt>
      <trkpt lat="46.12126" lon="8.22296">
        <ele>572.12</ele>
        <time>2012-08-05T07:52:48Z</time>
      </trkpt>
      <trkpt lat="46.12121" lon="8.22304">
        <ele>572.12</ele>
        <time>2012-08-05T07:52:49Z</time>
      </trkpt>
      <trkpt lat="46.1212" lon="8.22317">
        <ele>571.16</ele>
        <time>2012-08-05T07:52:50Z</time>
      </trkpt>
      <trkpt lat="46.12119" lon="8.22331">
        <ele>570.2</ele>
        <time>2012-08-05T07:52:51Z</time>
      </trkpt>
      <trkpt lat="46.12119" lon="8.22345">
        <ele>569.24</ele>
        <time>2012-08-05T07:52:52Z</time>
      </trkpt>
      <trkpt lat="46.12119" lon="8.22361">
        <ele>568.28</ele>
        <time>2012-08-05T07:52:53Z</time>
      </trkpt>
      <trkpt lat="46.12118" lon="8.22378">
        <ele>566.83</ele>
        <time>2012-08-05T07:52:54Z</time>
      </trkpt>
      <trkpt lat="46.12115" lon="8.22393">
        <ele>566.35</ele>
        <time>2012-08-05T07:52:55Z</time>
      </trkpt>
      <trkpt lat="46.12111" lon="8.22406">
        <ele>565.39</ele>
        <time>2012-08-05T07:52:56Z</time>
      </trkpt>
      <trkpt lat="46.12107" lon="8.2242">
        <ele>563.47</ele>
        <time>2012-08-05T07:52:57Z</time>
      </trkpt>
      <trkpt lat="46.12103" lon="8.22433">
        <ele>564.43</ele>
        <time>2012-08-05T07:52:58Z</time>
      </trkpt>
      <trkpt lat="46.12101" lon="8.22448">
        <ele>562.51</ele>
        <time>2012-08-05T07:52:59Z</time>
      </trkpt>
      <trkpt lat="46.121" lon="8.22463">
        <ele>562.03</ele>
        <time>2012-08-05T07:53:00Z</time>
      </trkpt>
      <trkpt lat="46.121" lon="8.22478">
        <ele>561.55</ele>
        <time>2012-08-05T07:53:01Z</time>
      </trkpt>
      <trkpt lat="46.121" lon="8.2251">
        <ele>560.11</ele>
        <time>2012-08-05T07:53:03Z</time>
      </trkpt>
      <trkpt lat="46.12101" lon="8.22556">
        <ele>556.74</ele>
        <time>2012-08-05T07:53:06Z</time>
      </trkpt>
      <trkpt lat="46.12103" lon="8.2257">
        <ele>556.26</ele>
        <time>2012-08-05T07:53:07Z</time>
      </trkpt>
      <trkpt lat="46.12114" lon="8.22631">
        <ele>552.9</ele>
        <time>2012-08-05T07:53:11Z</time>
      </trkpt>
      <trkpt lat="46.12117" lon="8.22648">
        <ele>552.41</ele>
        <time>2012-08-05T07:53:12Z</time>
      </trkpt>
      <trkpt lat="46.12128" lon="8.22704">
        <ele>549.05</ele>
        <time>2012-08-05T07:53:15Z</time>
      </trkpt>
      <trkpt lat="46.12139" lon="8.22758">
        <ele>544.72</ele>
        <time>2012-08-05T07:53:18Z</time>
      </trkpt>
      <trkpt lat="46.12153" lon="8.22828">
        <ele>540.88</ele>
        <time>2012-08-05T07:53:22Z</time>
      </trkpt>
      <trkpt lat="46.1216" lon="8.22862">
        <ele>537.51</ele>
        <time>2012-08-05T07:53:24Z</time>
      </trkpt>
      <trkpt lat="46.12171" lon="8.22914">
        <ele>535.11</ele>
        <time>2012-08-05T07:53:27Z</time>
      </trkpt>
      <trkpt lat="46.12173" lon="8.22932">
        <ele>533.19</ele>
        <time>2012-08-05T07:53:28Z</time>
      </trkpt>
      <trkpt lat="46.12174" lon="8.2295">
        <ele>532.23</ele>
        <time>2012-08-05T07:53:29Z</time>
      </trkpt>
      <trkpt lat="46.12174" lon="8.22969">
        <ele>530.79</ele>
        <time>2012-08-05T07:53:30Z</time>
      </trkpt>
      <trkpt lat="46.12173" lon="8.22987">
        <ele>529.34</ele>
        <time>2012-08-05T07:53:31Z</time>
      </trkpt>
      <trkpt lat="46.12172" lon="8.23039">
        <ele>525.5</ele>
        <time>2012-08-05T07:53:34Z</time>
      </trkpt>
      <trkpt lat="46.12171" lon="8.23086">
        <ele>521.65</ele>
        <time>2012-08-05T07:53:37Z</time>
      </trkpt>
      <trkpt lat="46.12171" lon="8.23111">
        <ele>519.73</ele>
        <time>2012-08-05T07:53:39Z</time>
      </trkpt>
      <trkpt lat="46.1217" lon="8.23124">
        <ele>518.77</ele>
        <time>2012-08-05T07:53:40Z</time>
      </trkpt>
      <trkpt lat="46.12168" lon="8.23136">
        <ele>517.81</ele>
        <time>2012-08-05T07:53:41Z</time>
      </trkpt>
      <trkpt lat="46.12164" lon="8.23147">
        <ele>517.81</ele>
        <time>2012-08-05T07:53:42Z</time>
      </trkpt>
      <trkpt lat="46.12159" lon="8.23158">
        <ele>516.85</ele>
        <time>2012-08-05T07:53:43Z</time>
      </trkpt>
      <trkpt lat="46.12142" lon="8.23197">
        <ele>513.96</ele>
        <time>2012-08-05T07:53:47Z</time>
      </trkpt>
      <trkpt lat="46.12136" lon="8.23202">
        <ele>513</ele>
        <time>2012-08-05T07:53:48Z</time>
      </trkpt>
      <trkpt lat="46.12132" lon="8.23208">
        <ele>512.52</ele>
        <time>2012-08-05T07:53:49Z</time>
      </trkpt>
      <trkpt lat="46.1212" lon="8.23231">
        <ele>512.04</ele>
        <time>2012-08-05T07:53:52Z</time>
      </trkpt>
      <trkpt lat="46.12118" lon="8.23243">
        <ele>511.56</ele>
        <time>2012-08-05T07:53:53Z</time>
      </trkpt>
      <trkpt lat="46.12118" lon="8.23257">
        <ele>511.56</ele>
        <time>2012-08-05T07:53:54Z</time>
      </trkpt>
      <trkpt lat="46.1212" lon="8.23273">
        <ele>511.56</ele>
        <time>2012-08-05T07:53:55Z</time>
      </trkpt>
      <trkpt lat="46.12122" lon="8.23288">
        <ele>510.6</ele>
        <time>2012-08-05T07:53:56Z</time>
      </trkpt>
      <trkpt lat="46.12143" lon="8.23384">
        <ele>507.23</ele>
        <time>2012-08-05T07:54:02Z</time>
      </trkpt>
      <trkpt lat="46.1216" lon="8.23479">
        <ele>504.83</ele>
        <time>2012-08-05T07:54:08Z</time>
      </trkpt>
      <trkpt lat="46.1217" lon="8.23545">
        <ele>501.46</ele>
        <time>2012-08-05T07:54:12Z</time>
      </trkpt>
      <trkpt lat="46.12174" lon="8.2356">
        <ele>501.46</ele>
        <time>2012-08-05T07:54:13Z</time>
      </trkpt>
      <trkpt lat="46.12178" lon="8.23574">
        <ele>500.5</ele>
        <time>2012-08-05T07:54:14Z</time>
      </trkpt>
      <trkpt lat="46.1218" lon="8.23589">
        <ele>500.5</ele>
        <time>2012-08-05T07:54:15Z</time>
      </trkpt>
      <trkpt lat="46.12181" lon="8.23605">
        <ele>500.02</ele>
        <time>2012-08-05T07:54:16Z</time>
      </trkpt>
      <trkpt lat="46.12181" lon="8.23621">
        <ele>500.02</ele>
        <time>2012-08-05T07:54:17Z</time>
      </trkpt>
      <trkpt lat="46.1218" lon="8.23637">
        <ele>499.54</ele>
        <time>2012-08-05T07:54:18Z</time>
      </trkpt>
      <trkpt lat="46.12178" lon="8.23653">
        <ele>498.58</ele>
        <time>2012-08-05T07:54:19Z</time>
      </trkpt>
      <trkpt lat="46.12176" lon="8.23668">
        <ele>498.1</ele>
        <time>2012-08-05T07:54:20Z</time>
      </trkpt>
      <trkpt lat="46.12173" lon="8.2371">
        <ele>496.18</ele>
        <time>2012-08-05T07:54:23Z</time>
      </trkpt>
      <trkpt lat="46.1217" lon="8.23723">
        <ele>495.22</ele>
        <time>2012-08-05T07:54:24Z</time>
      </trkpt>
      <trkpt lat="46.12166" lon="8.23734">
        <ele>493.77</ele>
        <time>2012-08-05T07:54:25Z</time>
      </trkpt>
      <trkpt lat="46.12162" lon="8.23742">
        <ele>493.77</ele>
        <time>2012-08-05T07:54:26Z</time>
      </trkpt>
      <trkpt lat="46.1214" lon="8.23785">
        <ele>491.85</ele>
        <time>2012-08-05T07:54:32Z</time>
      </trkpt>
      <trkpt lat="46.12137" lon="8.23795">
        <ele>491.37</ele>
        <time>2012-08-05T07:54:33Z</time>
      </trkpt>
      <trkpt lat="46.12129" lon="8.23827">
        <ele>489.45</ele>
        <time>2012-08-05T07:54:36Z</time>
      </trkpt>
      <trkpt lat="46.12125" lon="8.23837">
        <ele>487.53</ele>
        <time>2012-08-05T07:54:37Z</time>
      </trkpt>
      <trkpt lat="46.12121" lon="8.23847">
        <ele>488.01</ele>
        <time>2012-08-05T07:54:38Z</time>
      </trkpt>
      <trkpt lat="46.12107" lon="8.23876">
        <ele>486.56</ele>
        <time>2012-08-05T07:54:41Z</time>
      </trkpt>
      <trkpt lat="46.12103" lon="8.23888">
        <ele>486.08</ele>
        <time>2012-08-05T07:54:42Z</time>
      </trkpt>
      <trkpt lat="46.12099" lon="8.239">
        <ele>485.6</ele>
        <time>2012-08-05T07:54:43Z</time>
      </trkpt>
      <trkpt lat="46.12097" lon="8.23913">
        <ele>485.12</ele>
        <time>2012-08-05T07:54:44Z</time>
      </trkpt>
      <trkpt lat="46.12097" lon="8.23928">
        <ele>484.16</ele>
        <time>2012-08-05T07:54:45Z</time>
      </trkpt>
      <trkpt lat="46.12097" lon="8.23942">
        <ele>483.2</ele>
        <time>2012-08-05T07:54:46Z</time>
      </trkpt>
      <trkpt lat="46.12099" lon="8.23958">
        <ele>482.72</ele>
        <time>2012-08-05T07:54:47Z</time>
      </trkpt>
      <trkpt lat="46.12101" lon="8.23973">
        <ele>481.76</ele>
        <time>2012-08-05T07:54:48Z</time>
      </trkpt>
      <trkpt lat="46.12103" lon="8.23987">
        <ele>481.76</ele>
        <time>2012-08-05T07:54:49Z</time>
      </trkpt>
      <trkpt lat="46.12109" lon="8.24015">
        <ele>480.32</ele>
        <time>2012-08-05T07:54:51Z</time>
      </trkpt>
      <trkpt lat="46.12114" lon="8.24028">
        <ele>479.35</ele>
        <time>2012-08-05T07:54:52Z</time>
      </trkpt>
      <trkpt lat="46.12125" lon="8.24052">
        <ele>477.91</ele>
        <time>2012-08-05T07:54:54Z</time>
      </trkpt>
      <trkpt lat="46.12129" lon="8.24065">
        <ele>476.95</ele>
        <time>2012-08-05T07:54:55Z</time>
      </trkpt>
      <trkpt lat="46.12132" lon="8.24078">
        <ele>476.47</ele>
        <time>2012-08-05T07:54:56Z</time>
      </trkpt>
      <trkpt lat="46.12133" lon="8.2409">
        <ele>475.51</ele>
        <time>2012-08-05T07:54:57Z</time>
      </trkpt>
      <trkpt lat="46.12133" lon="8.24102">
        <ele>474.55</ele>
        <time>2012-08-05T07:54:58Z</time>
      </trkpt>
      <trkpt lat="46.12132" lon="8.24114">
        <ele>474.55</ele>
        <time>2012-08-05T07:54:59Z</time>
      </trkpt>
      <trkpt lat="46.1213" lon="8.24125">
        <ele>474.07</ele>
        <time>2012-08-05T07:55:00Z</time>
      </trkpt>
      <trkpt lat="46.12127" lon="8.24133">
        <ele>473.59</ele>
        <time>2012-08-05T07:55:01Z</time>
      </trkpt>
      <trkpt lat="46.12123" lon="8.24137">
        <ele>472.63</ele>
        <time>2012-08-05T07:55:02Z</time>
      </trkpt>
      <trkpt lat="46.12119" lon="8.2414">
        <ele>472.63</ele>
        <time>2012-08-05T07:55:03Z</time>
      </trkpt>
      <trkpt lat="46.12114" lon="8.24142">
        <ele>472.63</ele>
        <time>2012-08-05T07:55:04Z</time>
      </trkpt>
      <trkpt lat="46.12105" lon="8.24148">
        <ele>472.63</ele>
        <time>2012-08-05T07:55:06Z</time>
      </trkpt>
      <trkpt lat="46.12101" lon="8.24153">
        <ele>473.11</ele>
        <time>2012-08-05T07:55:07Z</time>
      </trkpt>
      <trkpt lat="46.12098" lon="8.24161">
        <ele>473.11</ele>
        <time>2012-08-05T07:55:08Z</time>
      </trkpt>
      <trkpt lat="46.12071" lon="8.24257">
        <ele>470.22</ele>
        <time>2012-08-05T07:55:17Z</time>
      </trkpt>
      <trkpt lat="46.12048" lon="8.24335">
        <ele>466.86</ele>
        <time>2012-08-05T07:55:23Z</time>
      </trkpt>
      <trkpt lat="46.12043" lon="8.24364">
        <ele>465.9</ele>
        <time>2012-08-05T07:55:25Z</time>
      </trkpt>
      <trkpt lat="46.12043" lon="8.2438">
        <ele>465.42</ele>
        <time>2012-08-05T07:55:26Z</time>
      </trkpt>
      <trkpt lat="46.12038" lon="8.24473">
        <ele>463.01</ele>
        <time>2012-08-05T07:55:31Z</time>
      </trkpt>
      <trkpt lat="46.12018" lon="8.24589">
        <ele>459.65</ele>
        <time>2012-08-05T07:55:37Z</time>
      </trkpt>
      <trkpt lat="46.11998" lon="8.2468">
        <ele>456.76</ele>
        <time>2012-08-05T07:55:43Z</time>
      </trkpt>
      <trkpt lat="46.11991" lon="8.24692">
        <ele>456.28</ele>
        <time>2012-08-05T07:55:44Z</time>
      </trkpt>
      <trkpt lat="46.11949" lon="8.24759">
        <ele>454.36</ele>
        <time>2012-08-05T07:55:50Z</time>
      </trkpt>
      <trkpt lat="46.11943" lon="8.24772">
        <ele>453.88</ele>
        <time>2012-08-05T07:55:51Z</time>
      </trkpt>
      <trkpt lat="46.11939" lon="8.24786">
        <ele>454.36</ele>
        <time>2012-08-05T07:55:52Z</time>
      </trkpt>
      <trkpt lat="46.11935" lon="8.248">
        <ele>454.84</ele>
        <time>2012-08-05T07:55:53Z</time>
      </trkpt>
      <trkpt lat="46.11933" lon="8.24815">
        <ele>453.88</ele>
        <time>2012-08-05T07:55:54Z</time>
      </trkpt>
      <trkpt lat="46.11933" lon="8.2483">
        <ele>454.84</ele>
        <time>2012-08-05T07:55:55Z</time>
      </trkpt>
      <trkpt lat="46.11936" lon="8.24844">
        <ele>452.92</ele>
        <time>2012-08-05T07:55:56Z</time>
      </trkpt>
      <trkpt lat="46.11939" lon="8.24856">
        <ele>452.44</ele>
        <time>2012-08-05T07:55:57Z</time>
      </trkpt>
      <trkpt lat="46.11943" lon="8.24868">
        <ele>452.44</ele>
        <time>2012-08-05T07:55:58Z</time>
      </trkpt>
      <trkpt lat="46.11944" lon="8.24881">
        <ele>451.48</ele>
        <time>2012-08-05T07:55:59Z</time>
      </trkpt>
      <trkpt lat="46.11945" lon="8.24895">
        <ele>451.48</ele>
        <time>2012-08-05T07:56:00Z</time>
      </trkpt>
      <trkpt lat="46.11944" lon="8.24907">
        <ele>451</ele>
        <time>2012-08-05T07:56:01Z</time>
      </trkpt>
      <trkpt lat="46.11942" lon="8.24919">
        <ele>452.44</ele>
        <time>2012-08-05T07:56:02Z</time>
      </trkpt>
      <trkpt lat="46.11939" lon="8.24932">
        <ele>449.55</ele>
        <time>2012-08-05T07:56:03Z</time>
      </trkpt>
      <trkpt lat="46.11938" lon="8.24945">
        <ele>450.03</ele>
        <time>2012-08-05T07:56:04Z</time>
      </trkpt>
      <trkpt lat="46.11937" lon="8.24958">
        <ele>450.03</ele>
        <time>2012-08-05T07:56:05Z</time>
      </trkpt>
      <trkpt lat="46.11938" lon="8.24971">
        <ele>450.03</ele>
        <time>2012-08-05T07:56:06Z</time>
      </trkpt>
      <trkpt lat="46.1194" lon="8.24983">
        <ele>450.52</ele>
        <time>2012-08-05T07:56:07Z</time>
      </trkpt>
      <trkpt lat="46.11943" lon="8.24996">
        <ele>448.59</ele>
        <time>2012-08-05T07:56:08Z</time>
      </trkpt>
      <trkpt lat="46.11953" lon="8.25021">
        <ele>450.52</ele>
        <time>2012-08-05T07:56:10Z</time>
      </trkpt>
      <trkpt lat="46.11959" lon="8.25031">
        <ele>448.11</ele>
        <time>2012-08-05T07:56:11Z</time>
      </trkpt>
      <trkpt lat="46.11966" lon="8.25039">
        <ele>450.52</ele>
        <time>2012-08-05T07:56:12Z</time>
      </trkpt>
      <trkpt lat="46.11988" lon="8.25062">
        <ele>450.52</ele>
        <time>2012-08-05T07:56:15Z</time>
      </trkpt>
      <trkpt lat="46.11995" lon="8.25073">
        <ele>450.52</ele>
        <time>2012-08-05T07:56:16Z</time>
      </trkpt>
      <trkpt lat="46.12021" lon="8.25108">
        <ele>448.59</ele>
        <time>2012-08-05T07:56:19Z</time>
      </trkpt>
      <trkpt lat="46.1203" lon="8.25119">
        <ele>444.27</ele>
        <time>2012-08-05T07:56:20Z</time>
      </trkpt>
      <trkpt lat="46.12057" lon="8.25148">
        <ele>444.75</ele>
        <time>2012-08-05T07:56:23Z</time>
      </trkpt>
      <trkpt lat="46.12063" lon="8.25159">
        <ele>444.27</ele>
        <time>2012-08-05T07:56:24Z</time>
      </trkpt>
      <trkpt lat="46.12069" lon="8.25171">
        <ele>444.75</ele>
        <time>2012-08-05T07:56:25Z</time>
      </trkpt>
      <trkpt lat="46.12073" lon="8.25185">
        <ele>443.31</ele>
        <time>2012-08-05T07:56:26Z</time>
      </trkpt>
      <trkpt lat="46.12078" lon="8.252">
        <ele>444.27</ele>
        <time>2012-08-05T07:56:27Z</time>
      </trkpt>
      <trkpt lat="46.12085" lon="8.25214">
        <ele>442.82</ele>
        <time>2012-08-05T07:56:28Z</time>
      </trkpt>
      <trkpt lat="46.12092" lon="8.25228">
        <ele>441.38</ele>
        <time>2012-08-05T07:56:29Z</time>
      </trkpt>
      <trkpt lat="46.12098" lon="8.25241">
        <ele>440.9</ele>
        <time>2012-08-05T07:56:30Z</time>
      </trkpt>
      <trkpt lat="46.12102" lon="8.25257">
        <ele>441.38</ele>
        <time>2012-08-05T07:56:31Z</time>
      </trkpt>
      <trkpt lat="46.12106" lon="8.25275">
        <ele>440.42</ele>
        <time>2012-08-05T07:56:32Z</time>
      </trkpt>
      <trkpt lat="46.1211" lon="8.25294">
        <ele>440.42</ele>
        <time>2012-08-05T07:56:33Z</time>
      </trkpt>
      <trkpt lat="46.12113" lon="8.25314">
        <ele>439.94</ele>
        <time>2012-08-05T07:56:34Z</time>
      </trkpt>
      <trkpt lat="46.12117" lon="8.25332">
        <ele>438.98</ele>
        <time>2012-08-05T07:56:35Z</time>
      </trkpt>
      <trkpt lat="46.12123" lon="8.2535">
        <ele>439.46</ele>
        <time>2012-08-05T07:56:36Z</time>
      </trkpt>
      <trkpt lat="46.12129" lon="8.25367">
        <ele>439.46</ele>
        <time>2012-08-05T07:56:37Z</time>
      </trkpt>
      <trkpt lat="46.1214" lon="8.25402">
        <ele>439.94</ele>
        <time>2012-08-05T07:56:39Z</time>
      </trkpt>
      <trkpt lat="46.12151" lon="8.25452">
        <ele>437.54</ele>
        <time>2012-08-05T07:56:42Z</time>
      </trkpt>
      <trkpt lat="46.12152" lon="8.25469">
        <ele>437.54</ele>
        <time>2012-08-05T07:56:43Z</time>
      </trkpt>
      <trkpt lat="46.12152" lon="8.25503">
        <ele>437.54</ele>
        <time>2012-08-05T07:56:45Z</time>
      </trkpt>
      <trkpt lat="46.12155" lon="8.25519">
        <ele>436.58</ele>
        <time>2012-08-05T07:56:46Z</time>
      </trkpt>
      <trkpt lat="46.12159" lon="8.25535">
        <ele>437.06</ele>
        <time>2012-08-05T07:56:47Z</time>
      </trkpt>
      <trkpt lat="46.12163" lon="8.25551">
        <ele>436.1</ele>
        <time>2012-08-05T07:56:48Z</time>
      </trkpt>
      <trkpt lat="46.12166" lon="8.25567">
        <ele>435.61</ele>
        <time>2012-08-05T07:56:49Z</time>
      </trkpt>
      <trkpt lat="46.12166" lon="8.25585">
        <ele>438.5</ele>
        <time>2012-08-05T07:56:50Z</time>
      </trkpt>
      <trkpt lat="46.12166" lon="8.25605">
        <ele>436.1</ele>
        <time>2012-08-05T07:56:51Z</time>
      </trkpt>
      <trkpt lat="46.12168" lon="8.25626">
        <ele>435.13</ele>
        <time>2012-08-05T07:56:52Z</time>
      </trkpt>
      <trkpt lat="46.1217" lon="8.25643">
        <ele>434.65</ele>
        <time>2012-08-05T07:56:53Z</time>
      </trkpt>
      <trkpt lat="46.12172" lon="8.25673">
        <ele>432.25</ele>
        <time>2012-08-05T07:56:55Z</time>
      </trkpt>
      <trkpt lat="46.1217" lon="8.25689">
        <ele>431.29</ele>
        <time>2012-08-05T07:56:56Z</time>
      </trkpt>
      <trkpt lat="46.12167" lon="8.25707">
        <ele>431.29</ele>
        <time>2012-08-05T07:56:57Z</time>
      </trkpt>
      <trkpt lat="46.12165" lon="8.25726">
        <ele>431.29</ele>
        <time>2012-08-05T07:56:58Z</time>
      </trkpt>
      <trkpt lat="46.12167" lon="8.25747">
        <ele>430.81</ele>
        <time>2012-08-05T07:56:59Z</time>
      </trkpt>
      <trkpt lat="46.1217" lon="8.25767">
        <ele>429.37</ele>
        <time>2012-08-05T07:57:00Z</time>
      </trkpt>
      <trkpt lat="46.12175" lon="8.25784">
        <ele>428.4</ele>
        <time>2012-08-05T07:57:01Z</time>
      </trkpt>
      <trkpt lat="46.12181" lon="8.258">
        <ele>427.44</ele>
        <time>2012-08-05T07:57:02Z</time>
      </trkpt>
      <trkpt lat="46.12188" lon="8.25815">
        <ele>427.44</ele>
        <time>2012-08-05T07:57:03Z</time>
      </trkpt>
      <trkpt lat="46.12193" lon="8.25831">
        <ele>426.48</ele>
        <time>2012-08-05T07:57:04Z</time>
      </trkpt>
      <trkpt lat="46.12197" lon="8.25847">
        <ele>425.52</ele>
        <time>2012-08-05T07:57:05Z</time>
      </trkpt>
      <trkpt lat="46.12199" lon="8.25863">
        <ele>425.04</ele>
        <time>2012-08-05T07:57:06Z</time>
      </trkpt>
      <trkpt lat="46.12201" lon="8.25881">
        <ele>425.52</ele>
        <time>2012-08-05T07:57:07Z</time>
      </trkpt>
      <trkpt lat="46.12202" lon="8.259">
        <ele>425.52</ele>
        <time>2012-08-05T07:57:08Z</time>
      </trkpt>
      <trkpt lat="46.12182" lon="8.26037">
        <ele>421.68</ele>
        <time>2012-08-05T07:57:14Z</time>
      </trkpt>
      <trkpt lat="46.12173" lon="8.26071">
        <ele>419.27</ele>
        <time>2012-08-05T07:57:16Z</time>
      </trkpt>
      <trkpt lat="46.12168" lon="8.26084">
        <ele>419.27</ele>
        <time>2012-08-05T07:57:17Z</time>
      </trkpt>
      <trkpt lat="46.12161" lon="8.26097">
        <ele>418.79</ele>
        <time>2012-08-05T07:57:18Z</time>
      </trkpt>
      <trkpt lat="46.12154" lon="8.26108">
        <ele>418.79</ele>
        <time>2012-08-05T07:57:19Z</time>
      </trkpt>
      <trkpt lat="46.12145" lon="8.26119">
        <ele>418.79</ele>
        <time>2012-08-05T07:57:20Z</time>
      </trkpt>
      <trkpt lat="46.12134" lon="8.26127">
        <ele>418.79</ele>
        <time>2012-08-05T07:57:21Z</time>
      </trkpt>
      <trkpt lat="46.12124" lon="8.26133">
        <ele>418.31</ele>
        <time>2012-08-05T07:57:22Z</time>
      </trkpt>
      <trkpt lat="46.12115" lon="8.26138">
        <ele>417.83</ele>
        <time>2012-08-05T07:57:23Z</time>
      </trkpt>
      <trkpt lat="46.12105" lon="8.26145">
        <ele>417.83</ele>
        <time>2012-08-05T07:57:24Z</time>
      </trkpt>
      <trkpt lat="46.12098" lon="8.26156">
        <ele>417.83</ele>
        <time>2012-08-05T07:57:25Z</time>
      </trkpt>
      <trkpt lat="46.12093" lon="8.26171">
        <ele>417.83</ele>
        <time>2012-08-05T07:57:26Z</time>
      </trkpt>
      <trkpt lat="46.12091" lon="8.26187">
        <ele>417.35</ele>
        <time>2012-08-05T07:57:27Z</time>
      </trkpt>
      <trkpt lat="46.12089" lon="8.26203">
        <ele>416.87</ele>
        <time>2012-08-05T07:57:28Z</time>
      </trkpt>
      <trkpt lat="46.12088" lon="8.26218">
        <ele>416.39</ele>
        <time>2012-08-05T07:57:29Z</time>
      </trkpt>
      <trkpt lat="46.1209" lon="8.26232">
        <ele>416.39</ele>
        <time>2012-08-05T07:57:30Z</time>
      </trkpt>
      <trkpt lat="46.12094" lon="8.26246">
        <ele>416.39</ele>
        <time>2012-08-05T07:57:31Z</time>
      </trkpt>
      <trkpt lat="46.121" lon="8.2626">
        <ele>415.43</ele>
        <time>2012-08-05T07:57:32Z</time>
      </trkpt>
      <trkpt lat="46.12107" lon="8.2627">
        <ele>414.95</ele>
        <time>2012-08-05T07:57:33Z</time>
      </trkpt>
      <trkpt lat="46.12115" lon="8.26278">
        <ele>414.47</ele>
        <time>2012-08-05T07:57:34Z</time>
      </trkpt>
      <trkpt lat="46.12123" lon="8.26284">
        <ele>413.5</ele>
        <time>2012-08-05T07:57:35Z</time>
      </trkpt>
      <trkpt lat="46.12129" lon="8.26291">
        <ele>413.02</ele>
        <time>2012-08-05T07:57:36Z</time>
      </trkpt>
      <trkpt lat="46.12134" lon="8.26298">
        <ele>412.54</ele>
        <time>2012-08-05T07:57:37Z</time>
      </trkpt>
      <trkpt lat="46.12138" lon="8.26307">
        <ele>412.54</ele>
        <time>2012-08-05T07:57:38Z</time>
      </trkpt>
      <trkpt lat="46.12138" lon="8.2632">
        <ele>412.54</ele>
        <time>2012-08-05T07:57:39Z</time>
      </trkpt>
      <trkpt lat="46.12135" lon="8.26333">
        <ele>411.1</ele>
        <time>2012-08-05T07:57:40Z</time>
      </trkpt>
      <trkpt lat="46.12131" lon="8.26346">
        <ele>410.14</ele>
        <time>2012-08-05T07:57:41Z</time>
      </trkpt>
      <trkpt lat="46.12129" lon="8.2636">
        <ele>409.18</ele>
        <time>2012-08-05T07:57:42Z</time>
      </trkpt>
      <trkpt lat="46.12127" lon="8.26377">
        <ele>408.7</ele>
        <time>2012-08-05T07:57:43Z</time>
      </trkpt>
      <trkpt lat="46.12128" lon="8.26394">
        <ele>408.22</ele>
        <time>2012-08-05T07:57:44Z</time>
      </trkpt>
      <trkpt lat="46.12127" lon="8.26432">
        <ele>406.29</ele>
        <time>2012-08-05T07:57:46Z</time>
      </trkpt>
      <trkpt lat="46.12126" lon="8.26449">
        <ele>405.81</ele>
        <time>2012-08-05T07:57:47Z</time>
      </trkpt>
      <trkpt lat="46.12119" lon="8.26523">
        <ele>403.89</ele>
        <time>2012-08-05T07:57:51Z</time>
      </trkpt>
      <trkpt lat="46.1212" lon="8.26541">
        <ele>403.41</ele>
        <time>2012-08-05T07:57:52Z</time>
      </trkpt>
      <trkpt lat="46.12123" lon="8.26559">
        <ele>402.93</ele>
        <time>2012-08-05T07:57:53Z</time>
      </trkpt>
      <trkpt lat="46.12127" lon="8.26574">
        <ele>401.49</ele>
        <time>2012-08-05T07:57:54Z</time>
      </trkpt>
      <trkpt lat="46.12131" lon="8.26589">
        <ele>400.53</ele>
        <time>2012-08-05T07:57:55Z</time>
      </trkpt>
      <trkpt lat="46.12133" lon="8.26602">
        <ele>399.57</ele>
        <time>2012-08-05T07:57:56Z</time>
      </trkpt>
      <trkpt lat="46.12132" lon="8.26616">
        <ele>399.08</ele>
        <time>2012-08-05T07:57:57Z</time>
      </trkpt>
      <trkpt lat="46.1213" lon="8.26629">
        <ele>398.6</ele>
        <time>2012-08-05T07:57:58Z</time>
      </trkpt>
      <trkpt lat="46.12124" lon="8.26641">
        <ele>398.12</ele>
        <time>2012-08-05T07:57:59Z</time>
      </trkpt>
      <trkpt lat="46.12115" lon="8.26654">
        <ele>398.6</ele>
        <time>2012-08-05T07:58:00Z</time>
      </trkpt>
      <trkpt lat="46.12104" lon="8.26665">
        <ele>398.12</ele>
        <time>2012-08-05T07:58:01Z</time>
      </trkpt>
      <trkpt lat="46.12093" lon="8.26678">
        <ele>397.64</ele>
        <time>2012-08-05T07:58:02Z</time>
      </trkpt>
      <trkpt lat="46.12083" lon="8.26693">
        <ele>397.64</ele>
        <time>2012-08-05T07:58:03Z</time>
      </trkpt>
      <trkpt lat="46.12074" lon="8.26709">
        <ele>396.68</ele>
        <time>2012-08-05T07:58:04Z</time>
      </trkpt>
      <trkpt lat="46.12065" lon="8.26727">
        <ele>396.2</ele>
        <time>2012-08-05T07:58:05Z</time>
      </trkpt>
      <trkpt lat="46.12035" lon="8.26796">
        <ele>392.36</ele>
        <time>2012-08-05T07:58:09Z</time>
      </trkpt>
      <trkpt lat="46.12031" lon="8.26815">
        <ele>391.87</ele>
        <time>2012-08-05T07:58:10Z</time>
      </trkpt>
      <trkpt lat="46.12028" lon="8.26835">
        <ele>391.39</ele>
        <time>2012-08-05T07:58:11Z</time>
      </trkpt>
      <trkpt lat="46.12027" lon="8.26857">
        <ele>390.91</ele>
        <time>2012-08-05T07:58:12Z</time>
      </trkpt>
      <trkpt lat="46.12026" lon="8.2688">
        <ele>390.43</ele>
        <time>2012-08-05T07:58:13Z</time>
      </trkpt>
      <trkpt lat="46.12026" lon="8.26902">
        <ele>388.51</ele>
        <time>2012-08-05T07:58:14Z</time>
      </trkpt>
      <trkpt lat="46.12029" lon="8.26955">
        <ele>385.63</ele>
        <time>2012-08-05T07:58:17Z</time>
      </trkpt>
      <trkpt lat="46.12034" lon="8.26971">
        <ele>385.15</ele>
        <time>2012-08-05T07:58:18Z</time>
      </trkpt>
      <trkpt lat="46.12041" lon="8.26986">
        <ele>384.66</ele>
        <time>2012-08-05T07:58:19Z</time>
      </trkpt>
      <trkpt lat="46.1205" lon="8.26998">
        <ele>384.18</ele>
        <time>2012-08-05T07:58:20Z</time>
      </trkpt>
      <trkpt lat="46.12062" lon="8.27006">
        <ele>383.22</ele>
        <time>2012-08-05T07:58:21Z</time>
      </trkpt>
      <trkpt lat="46.12073" lon="8.27014">
        <ele>381.78</ele>
        <time>2012-08-05T07:58:22Z</time>
      </trkpt>
      <trkpt lat="46.12083" lon="8.27023">
        <ele>381.3</ele>
        <time>2012-08-05T07:58:23Z</time>
      </trkpt>
      <trkpt lat="46.12091" lon="8.27034">
        <ele>380.82</ele>
        <time>2012-08-05T07:58:24Z</time>
      </trkpt>
      <trkpt lat="46.12098" lon="8.27047">
        <ele>380.34</ele>
        <time>2012-08-05T07:58:25Z</time>
      </trkpt>
      <trkpt lat="46.12104" lon="8.27063">
        <ele>380.34</ele>
        <time>2012-08-05T07:58:26Z</time>
      </trkpt>
      <trkpt lat="46.12109" lon="8.2708">
        <ele>379.86</ele>
        <time>2012-08-05T07:58:27Z</time>
      </trkpt>
      <trkpt lat="46.12113" lon="8.27096">
        <ele>378.9</ele>
        <time>2012-08-05T07:58:28Z</time>
      </trkpt>
      <trkpt lat="46.12113" lon="8.27112">
        <ele>377.94</ele>
        <time>2012-08-05T07:58:29Z</time>
      </trkpt>
      <trkpt lat="46.12111" lon="8.2713">
        <ele>378.42</ele>
        <time>2012-08-05T07:58:30Z</time>
      </trkpt>
      <trkpt lat="46.12108" lon="8.27152">
        <ele>378.42</ele>
        <time>2012-08-05T07:58:31Z</time>
      </trkpt>
      <trkpt lat="46.12095" lon="8.2724">
        <ele>376.49</ele>
        <time>2012-08-05T07:58:35Z</time>
      </trkpt>
      <trkpt lat="46.12092" lon="8.27257">
        <ele>373.13</ele>
        <time>2012-08-05T07:58:36Z</time>
      </trkpt>
      <trkpt lat="46.12091" lon="8.27274">
        <ele>372.65</ele>
        <time>2012-08-05T07:58:37Z</time>
      </trkpt>
      <trkpt lat="46.12092" lon="8.27291">
        <ele>371.69</ele>
        <time>2012-08-05T07:58:38Z</time>
      </trkpt>
      <trkpt lat="46.12096" lon="8.27308">
        <ele>371.69</ele>
        <time>2012-08-05T07:58:39Z</time>
      </trkpt>
      <trkpt lat="46.12103" lon="8.27322">
        <ele>370.24</ele>
        <time>2012-08-05T07:58:40Z</time>
      </trkpt>
      <trkpt lat="46.12111" lon="8.27334">
        <ele>370.24</ele>
        <time>2012-08-05T07:58:41Z</time>
      </trkpt>
      <trkpt lat="46.1212" lon="8.27345">
        <ele>368.8</ele>
        <time>2012-08-05T07:58:42Z</time>
      </trkpt>
      <trkpt lat="46.12129" lon="8.27353">
        <ele>367.36</ele>
        <time>2012-08-05T07:58:43Z</time>
      </trkpt>
      <trkpt lat="46.1214" lon="8.27368">
        <ele>365.92</ele>
        <time>2012-08-05T07:58:45Z</time>
      </trkpt>
      <trkpt lat="46.12143" lon="8.27378">
        <ele>364.96</ele>
        <time>2012-08-05T07:58:46Z</time>
      </trkpt>
      <trkpt lat="46.12144" lon="8.27385">
        <ele>364.96</ele>
        <time>2012-08-05T07:58:47Z</time>
      </trkpt>
      <trkpt lat="46.12144" lon="8.2739">
        <ele>364.48</ele>
        <time>2012-08-05T07:58:48Z</time>
      </trkpt>
      <trkpt lat="46.12144" lon="8.27396">
        <ele>364</ele>
        <time>2012-08-05T07:58:53Z</time>
      </trkpt>
      <trkpt lat="46.12146" lon="8.27397">
        <ele>364</ele>
        <time>2012-08-05T07:58:54Z</time>
      </trkpt>
      <trkpt lat="46.1215" lon="8.27396">
        <ele>364.48</ele>
        <time>2012-08-05T07:58:55Z</time>
      </trkpt>
      <trkpt lat="46.12156" lon="8.27395">
        <ele>364.96</ele>
        <time>2012-08-05T07:58:56Z</time>
      </trkpt>
      <trkpt lat="46.12163" lon="8.27395">
        <ele>365.44</ele>
        <time>2012-08-05T07:58:57Z</time>
      </trkpt>
      <trkpt lat="46.12217" lon="8.27392">
        <ele>364.48</ele>
        <time>2012-08-05T07:59:05Z</time>
      </trkpt>
      <trkpt lat="46.12225" lon="8.27394">
        <ele>364</ele>
        <time>2012-08-05T07:59:06Z</time>
      </trkpt>
      <trkpt lat="46.12232" lon="8.27398">
        <ele>363.52</ele>
        <time>2012-08-05T07:59:07Z</time>
      </trkpt>
      <trkpt lat="46.12238" lon="8.27407">
        <ele>363.52</ele>
        <time>2012-08-05T07:59:08Z</time>
      </trkpt>
      <trkpt lat="46.12243" lon="8.2742">
        <ele>364</ele>
        <time>2012-08-05T07:59:09Z</time>
      </trkpt>
      <trkpt lat="46.12245" lon="8.27433">
        <ele>363.52</ele>
        <time>2012-08-05T07:59:10Z</time>
      </trkpt>
      <trkpt lat="46.12248" lon="8.27445">
        <ele>363.52</ele>
        <time>2012-08-05T07:59:11Z</time>
      </trkpt>
      <trkpt lat="46.12253" lon="8.27454">
        <ele>362.55</ele>
        <time>2012-08-05T07:59:12Z</time>
      </trkpt>
      <trkpt lat="46.1226" lon="8.27461">
        <ele>363.04</ele>
        <time>2012-08-05T07:59:13Z</time>
      </trkpt>
      <trkpt lat="46.12268" lon="8.27465">
        <ele>363.04</ele>
        <time>2012-08-05T07:59:14Z</time>
      </trkpt>
      <trkpt lat="46.12277" lon="8.27468">
        <ele>362.55</ele>
        <time>2012-08-05T07:59:15Z</time>
      </trkpt>
      <trkpt lat="46.12376" lon="8.27512">
        <ele>362.55</ele>
        <time>2012-08-05T07:59:27Z</time>
      </trkpt>
      <trkpt lat="46.1246" lon="8.27555">
        <ele>362.07</ele>
        <time>2012-08-05T07:59:37Z</time>
      </trkpt>
      <trkpt lat="46.12502" lon="8.27579">
        <ele>362.07</ele>
        <time>2012-08-05T07:59:42Z</time>
      </trkpt>
      <trkpt lat="46.12512" lon="8.27581">
        <ele>362.07</ele>
        <time>2012-08-05T07:59:43Z</time>
      </trkpt>
      <trkpt lat="46.12595" lon="8.27592">
        <ele>360.63</ele>
        <time>2012-08-05T07:59:51Z</time>
      </trkpt>
      <trkpt lat="46.12622" lon="8.27599">
        <ele>359.67</ele>
        <time>2012-08-05T07:59:54Z</time>
      </trkpt>
      <trkpt lat="46.12629" lon="8.27604">
        <ele>359.19</ele>
        <time>2012-08-05T07:59:55Z</time>
      </trkpt>
      <trkpt lat="46.12636" lon="8.27612">
        <ele>358.71</ele>
        <time>2012-08-05T07:59:56Z</time>
      </trkpt>
      <trkpt lat="46.12642" lon="8.27623">
        <ele>358.71</ele>
        <time>2012-08-05T07:59:57Z</time>
      </trkpt>
      <trkpt lat="46.12648" lon="8.27636">
        <ele>358.71</ele>
        <time>2012-08-05T07:59:58Z</time>
      </trkpt>
      <trkpt lat="46.12665" lon="8.27683">
        <ele>355.83</ele>
        <time>2012-08-05T08:00:01Z</time>
      </trkpt>
      <trkpt lat="46.12669" lon="8.27701">
        <ele>354.38</ele>
        <time>2012-08-05T08:00:02Z</time>
      </trkpt>
      <trkpt lat="46.12677" lon="8.27753">
        <ele>350.54</ele>
        <time>2012-08-05T08:00:05Z</time>
      </trkpt>
      <trkpt lat="46.12683" lon="8.27797">
        <ele>347.17</ele>
        <time>2012-08-05T08:00:08Z</time>
      </trkpt>
      <trkpt lat="46.12693" lon="8.27878">
        <ele>344.29</ele>
        <time>2012-08-05T08:00:14Z</time>
      </trkpt>
      <trkpt lat="46.12697" lon="8.27893">
        <ele>343.33</ele>
        <time>2012-08-05T08:00:15Z</time>
      </trkpt>
      <trkpt lat="46.12703" lon="8.27907">
        <ele>342.85</ele>
        <time>2012-08-05T08:00:16Z</time>
      </trkpt>
      <trkpt lat="46.12709" lon="8.27922">
        <ele>342.37</ele>
        <time>2012-08-05T08:00:17Z</time>
      </trkpt>
      <trkpt lat="46.12716" lon="8.27936">
        <ele>340.44</ele>
        <time>2012-08-05T08:00:18Z</time>
      </trkpt>
      <trkpt lat="46.12722" lon="8.27948">
        <ele>341.41</ele>
        <time>2012-08-05T08:00:19Z</time>
      </trkpt>
      <trkpt lat="46.12743" lon="8.27989">
        <ele>339.96</ele>
        <time>2012-08-05T08:00:22Z</time>
      </trkpt>
      <trkpt lat="46.1275" lon="8.28001">
        <ele>338.52</ele>
        <time>2012-08-05T08:00:23Z</time>
      </trkpt>
      <trkpt lat="46.12758" lon="8.28012">
        <ele>338.04</ele>
        <time>2012-08-05T08:00:24Z</time>
      </trkpt>
      <trkpt lat="46.12768" lon="8.28022">
        <ele>338.04</ele>
        <time>2012-08-05T08:00:25Z</time>
      </trkpt>
      <trkpt lat="46.12779" lon="8.2803">
        <ele>337.56</ele>
        <time>2012-08-05T08:00:26Z</time>
      </trkpt>
      <trkpt lat="46.12791" lon="8.28037">
        <ele>336.6</ele>
        <time>2012-08-05T08:00:27Z</time>
      </trkpt>
      <trkpt lat="46.12867" lon="8.28084">
        <ele>332.27</ele>
        <time>2012-08-05T08:00:34Z</time>
      </trkpt>
      <trkpt lat="46.13403" lon="8.28625">
        <ele>325.06</ele>
        <time>2012-08-05T08:01:37Z</time>
      </trkpt>
      <trkpt lat="46.13413" lon="8.28635">
        <ele>324.58</ele>
        <time>2012-08-05T08:01:38Z</time>
      </trkpt>
      <trkpt lat="46.13422" lon="8.28646">
        <ele>324.58</ele>
        <time>2012-08-05T08:01:39Z</time>
      </trkpt>
      <trkpt lat="46.13431" lon="8.28657">
        <ele>324.58</ele>
        <time>2012-08-05T08:01:40Z</time>
      </trkpt>
      <trkpt lat="46.1349" lon="8.28726">
        <ele>320.26</ele>
        <time>2012-08-05T08:01:46Z</time>
      </trkpt>
      <trkpt lat="46.13521" lon="8.2875">
        <ele>316.89</ele>
        <time>2012-08-05T08:01:49Z</time>
      </trkpt>
      <trkpt lat="46.13566" lon="8.28783">
        <ele>313.05</ele>
        <time>2012-08-05T08:01:53Z</time>
      </trkpt>
      <trkpt lat="46.13601" lon="8.28807">
        <ele>309.68</ele>
        <time>2012-08-05T08:01:56Z</time>
      </trkpt>
      <trkpt lat="46.13645" lon="8.28838">
        <ele>301.99</ele>
        <time>2012-08-05T08:02:00Z</time>
      </trkpt>
      <trkpt lat="46.13655" lon="8.28846">
        <ele>306.32</ele>
        <time>2012-08-05T08:02:01Z</time>
      </trkpt>
      <trkpt lat="46.13665" lon="8.28853">
        <ele>302.95</ele>
        <time>2012-08-05T08:02:02Z</time>
      </trkpt>
      <trkpt lat="46.13775" lon="8.2893">
        <ele>299.59</ele>
        <time>2012-08-05T08:02:12Z</time>
      </trkpt>
      <trkpt lat="46.1382" lon="8.28962">
        <ele>297.67</ele>
        <time>2012-08-05T08:02:16Z</time>
      </trkpt>
      <trkpt lat="46.13924" lon="8.29035">
        <ele>295.26</ele>
        <time>2012-08-05T08:02:26Z</time>
      </trkpt>
      <trkpt lat="46.13976" lon="8.29071">
        <ele>294.3</ele>
        <time>2012-08-05T08:02:31Z</time>
      </trkpt>
      <trkpt lat="46.14093" lon="8.29153">
        <ele>293.34</ele>
        <time>2012-08-05T08:02:42Z</time>
      </trkpt>
      <trkpt lat="46.1421" lon="8.29236">
        <ele>294.78</ele>
        <time>2012-08-05T08:02:53Z</time>
      </trkpt>
      <trkpt lat="46.14314" lon="8.2931">
        <ele>295.74</ele>
        <time>2012-08-05T08:03:03Z</time>
      </trkpt>
      <trkpt lat="46.14397" lon="8.29405">
        <ele>297.18</ele>
        <time>2012-08-05T08:03:13Z</time>
      </trkpt>
      <trkpt lat="46.14468" lon="8.29523">
        <ele>299.59</ele>
        <time>2012-08-05T08:03:23Z</time>
      </trkpt>
      <trkpt lat="46.14485" lon="8.29554">
        <ele>300.07</ele>
        <time>2012-08-05T08:03:26Z</time>
      </trkpt>
      <trkpt lat="46.14489" lon="8.29565">
        <ele>300.07</ele>
        <time>2012-08-05T08:03:27Z</time>
      </trkpt>
      <trkpt lat="46.1449" lon="8.29575">
        <ele>300.55</ele>
        <time>2012-08-05T08:03:28Z</time>
      </trkpt>
      <trkpt lat="46.1449" lon="8.29583">
        <ele>300.55</ele>
        <time>2012-08-05T08:03:29Z</time>
      </trkpt>
      <trkpt lat="46.14489" lon="8.29589">
        <ele>300.07</ele>
        <time>2012-08-05T08:03:30Z</time>
      </trkpt>
      <trkpt lat="46.14487" lon="8.29597">
        <ele>299.59</ele>
        <time>2012-08-05T08:03:40Z</time>
      </trkpt>
      <trkpt lat="46.14493" lon="8.29612">
        <ele>300.07</ele>
        <time>2012-08-05T08:03:49Z</time>
      </trkpt>
      <trkpt lat="46.14498" lon="8.29613">
        <ele>301.03</ele>
        <time>2012-08-05T08:03:50Z</time>
      </trkpt>
      <trkpt lat="46.14572" lon="8.29623">
        <ele>302.47</ele>
        <time>2012-08-05T08:03:59Z</time>
      </trkpt>
      <trkpt lat="46.14675" lon="8.29637">
        <ele>305.84</ele>
        <time>2012-08-05T08:04:08Z</time>
      </trkpt>
      <trkpt lat="46.147" lon="8.2964">
        <ele>306.8</ele>
        <time>2012-08-05T08:04:10Z</time>
      </trkpt>
      <trkpt lat="46.14791" lon="8.29654">
        <ele>306.8</ele>
        <time>2012-08-05T08:04:18Z</time>
      </trkpt>
      <trkpt lat="46.14799" lon="8.29658">
        <ele>306.8</ele>
        <time>2012-08-05T08:04:19Z</time>
      </trkpt>
      <trkpt lat="46.14806" lon="8.29664">
        <ele>306.32</ele>
        <time>2012-08-05T08:04:20Z</time>
      </trkpt>
      <trkpt lat="46.14811" lon="8.2967">
        <ele>305.84</ele>
        <time>2012-08-05T08:04:21Z</time>
      </trkpt>
      <trkpt lat="46.14815" lon="8.29675">
        <ele>305.84</ele>
        <time>2012-08-05T08:04:22Z</time>
      </trkpt>
      <trkpt lat="46.14818" lon="8.29679">
        <ele>305.84</ele>
        <time>2012-08-05T08:04:23Z</time>
      </trkpt>
      <trkpt lat="46.14829" lon="8.29687">
        <ele>305.84</ele>
        <time>2012-08-05T08:04:27Z</time>
      </trkpt>
      <trkpt lat="46.14831" lon="8.29685">
        <ele>306.32</ele>
        <time>2012-08-05T08:04:28Z</time>
      </trkpt>
      <trkpt lat="46.14833" lon="8.29682">
        <ele>305.84</ele>
        <time>2012-08-05T08:04:29Z</time>
      </trkpt>
      <trkpt lat="46.14835" lon="8.29677">
        <ele>306.32</ele>
        <time>2012-08-05T08:04:30Z</time>
      </trkpt>
      <trkpt lat="46.14835" lon="8.29671">
        <ele>306.32</ele>
        <time>2012-08-05T08:04:31Z</time>
      </trkpt>
      <trkpt lat="46.14833" lon="8.29667">
        <ele>306.32</ele>
        <time>2012-08-05T08:04:32Z</time>
      </trkpt>
      <trkpt lat="46.14828" lon="8.29665">
        <ele>306.32</ele>
        <time>2012-08-05T08:04:33Z</time>
      </trkpt>
      <trkpt lat="46.14823" lon="8.29667">
        <ele>306.32</ele>
        <time>2012-08-05T08:04:34Z</time>
      </trkpt>
      <trkpt lat="46.1482" lon="8.29673">
        <ele>306.32</ele>
        <time>2012-08-05T08:04:35Z</time>
      </trkpt>
      <trkpt lat="46.14819" lon="8.2968">
        <ele>306.8</ele>
        <time>2012-08-05T08:04:36Z</time>
      </trkpt>
      <trkpt lat="46.14821" lon="8.29689">
        <ele>307.76</ele>
        <time>2012-08-05T08:04:37Z</time>
      </trkpt>
      <trkpt lat="46.14826" lon="8.297">
        <ele>307.76</ele>
        <time>2012-08-05T08:04:38Z</time>
      </trkpt>
      <trkpt lat="46.14832" lon="8.29712">
        <ele>307.76</ele>
        <time>2012-08-05T08:04:39Z</time>
      </trkpt>
      <trkpt lat="46.14895" lon="8.29836">
        <ele>309.2</ele>
        <time>2012-08-05T08:04:48Z</time>
      </trkpt>
      <trkpt lat="46.14944" lon="8.29933">
        <ele>312.09</ele>
        <time>2012-08-05T08:04:55Z</time>
      </trkpt>
      <trkpt lat="46.14968" lon="8.2998">
        <ele>313.53</ele>
        <time>2012-08-05T08:04:58Z</time>
      </trkpt>
      <trkpt lat="46.14994" lon="8.30025">
        <ele>315.45</ele>
        <time>2012-08-05T08:05:01Z</time>
      </trkpt>
      <trkpt lat="46.15036" lon="8.30076">
        <ele>319.3</ele>
        <time>2012-08-05T08:05:05Z</time>
      </trkpt>
      <trkpt lat="46.15047" lon="8.30087">
        <ele>318.81</ele>
        <time>2012-08-05T08:05:06Z</time>
      </trkpt>
      <trkpt lat="46.1508" lon="8.30124">
        <ele>320.74</ele>
        <time>2012-08-05T08:05:09Z</time>
      </trkpt>
      <trkpt lat="46.15122" lon="8.30171">
        <ele>324.1</ele>
        <time>2012-08-05T08:05:13Z</time>
      </trkpt>
      <trkpt lat="46.15132" lon="8.30182">
        <ele>324.1</ele>
        <time>2012-08-05T08:05:14Z</time>
      </trkpt>
      <trkpt lat="46.15176" lon="8.30231">
        <ele>323.14</ele>
        <time>2012-08-05T08:05:18Z</time>
      </trkpt>
      <trkpt lat="46.1521" lon="8.30269">
        <ele>320.26</ele>
        <time>2012-08-05T08:05:21Z</time>
      </trkpt>
      <trkpt lat="46.15428" lon="8.30514">
        <ele>311.12</ele>
        <time>2012-08-05T08:08:29Z</time>
      </trkpt>
      <trkpt lat="46.1543" lon="8.3051">
        <ele>311.12</ele>
        <time>2012-08-05T08:08:32Z</time>
      </trkpt>
      <trkpt lat="46.15426" lon="8.30506">
        <ele>311.12</ele>
        <time>2012-08-05T08:08:34Z</time>
      </trkpt>
      <trkpt lat="46.15377" lon="8.30452">
        <ele>313.05</ele>
        <time>2012-08-05T08:08:41Z</time>
      </trkpt>
      <trkpt lat="46.15319" lon="8.3039">
        <ele>313.05</ele>
        <time>2012-08-05T08:08:49Z</time>
      </trkpt>
      <trkpt lat="46.15314" lon="8.30389">
        <ele>313.05</ele>
        <time>2012-08-05T08:08:50Z</time>
      </trkpt>
      <trkpt lat="46.15308" lon="8.3039">
        <ele>313.05</ele>
        <time>2012-08-05T08:08:51Z</time>
      </trkpt>
      <trkpt lat="46.15302" lon="8.30393">
        <ele>314.01</ele>
        <time>2012-08-05T08:08:52Z</time>
      </trkpt>
      <trkpt lat="46.15297" lon="8.30399">
        <ele>314.97</ele>
        <time>2012-08-05T08:08:53Z</time>
      </trkpt>
      <trkpt lat="46.15291" lon="8.3041">
        <ele>314.97</ele>
        <time>2012-08-05T08:08:54Z</time>
      </trkpt>
      <trkpt lat="46.15284" lon="8.30424">
        <ele>314.97</ele>
        <time>2012-08-05T08:08:55Z</time>
      </trkpt>
      <trkpt lat="46.15184" lon="8.30616">
        <ele>314.01</ele>
        <time>2012-08-05T08:09:07Z</time>
      </trkpt>
      <trkpt lat="46.15094" lon="8.30789">
        <ele>312.09</ele>
        <time>2012-08-05T08:09:19Z</time>
      </trkpt>
      <trkpt lat="46.1509" lon="8.30803">
        <ele>312.57</ele>
        <time>2012-08-05T08:09:20Z</time>
      </trkpt>
      <trkpt lat="46.15088" lon="8.30817">
        <ele>312.57</ele>
        <time>2012-08-05T08:09:21Z</time>
      </trkpt>
      <trkpt lat="46.15087" lon="8.30834">
        <ele>312.57</ele>
        <time>2012-08-05T08:09:22Z</time>
      </trkpt>
      <trkpt lat="46.15088" lon="8.30851">
        <ele>313.53</ele>
        <time>2012-08-05T08:09:23Z</time>
      </trkpt>
      <trkpt lat="46.15091" lon="8.30868">
        <ele>313.53</ele>
        <time>2012-08-05T08:09:24Z</time>
      </trkpt>
      <trkpt lat="46.15102" lon="8.31004">
        <ele>312.09</ele>
        <time>2012-08-05T08:09:32Z</time>
      </trkpt>
      <trkpt lat="46.15096" lon="8.31064">
        <ele>311.6</ele>
        <time>2012-08-05T08:09:37Z</time>
      </trkpt>
      <trkpt lat="46.15098" lon="8.31072">
        <ele>311.6</ele>
        <time>2012-08-05T08:09:38Z</time>
      </trkpt>
      <trkpt lat="46.15102" lon="8.31078">
        <ele>312.09</ele>
        <time>2012-08-05T08:09:39Z</time>
      </trkpt>
      <trkpt lat="46.15109" lon="8.31081">
        <ele>312.57</ele>
        <time>2012-08-05T08:09:40Z</time>
      </trkpt>
      <trkpt lat="46.15118" lon="8.31083">
        <ele>313.05</ele>
        <time>2012-08-05T08:09:41Z</time>
      </trkpt>
      <trkpt lat="46.15151" lon="8.3109">
        <ele>314.49</ele>
        <time>2012-08-05T08:09:44Z</time>
      </trkpt>
      <trkpt lat="46.15162" lon="8.31093">
        <ele>314.49</ele>
        <time>2012-08-05T08:09:45Z</time>
      </trkpt>
      <trkpt lat="46.15171" lon="8.31097">
        <ele>314.49</ele>
        <time>2012-08-05T08:09:46Z</time>
      </trkpt>
      <trkpt lat="46.15179" lon="8.31104">
        <ele>314.97</ele>
        <time>2012-08-05T08:09:47Z</time>
      </trkpt>
      <trkpt lat="46.15187" lon="8.31114">
        <ele>314.97</ele>
        <time>2012-08-05T08:09:48Z</time>
      </trkpt>
      <trkpt lat="46.15192" lon="8.31129">
        <ele>314.97</ele>
        <time>2012-08-05T08:09:49Z</time>
      </trkpt>
      <trkpt lat="46.15195" lon="8.31146">
        <ele>315.93</ele>
        <time>2012-08-05T08:09:50Z</time>
      </trkpt>
      <trkpt lat="46.15195" lon="8.31165">
        <ele>316.41</ele>
        <time>2012-08-05T08:09:51Z</time>
      </trkpt>
      <trkpt lat="46.15193" lon="8.31185">
        <ele>316.41</ele>
        <time>2012-08-05T08:09:52Z</time>
      </trkpt>
      <trkpt lat="46.15191" lon="8.31204">
        <ele>315.93</ele>
        <time>2012-08-05T08:09:53Z</time>
      </trkpt>
      <trkpt lat="46.15177" lon="8.31299">
        <ele>315.93</ele>
        <time>2012-08-05T08:09:58Z</time>
      </trkpt>
      <trkpt lat="46.15172" lon="8.31312">
        <ele>315.45</ele>
        <time>2012-08-05T08:09:59Z</time>
      </trkpt>
      <trkpt lat="46.15165" lon="8.31321">
        <ele>315.45</ele>
        <time>2012-08-05T08:10:00Z</time>
      </trkpt>
      <trkpt lat="46.15156" lon="8.31327">
        <ele>316.89</ele>
        <time>2012-08-05T08:10:01Z</time>
      </trkpt>
      <trkpt lat="46.15147" lon="8.31328">
        <ele>317.37</ele>
        <time>2012-08-05T08:10:02Z</time>
      </trkpt>
      <trkpt lat="46.15138" lon="8.31324">
        <ele>317.85</ele>
        <time>2012-08-05T08:10:03Z</time>
      </trkpt>
      <trkpt lat="46.1513" lon="8.31315">
        <ele>317.85</ele>
        <time>2012-08-05T08:10:04Z</time>
      </trkpt>
      <trkpt lat="46.15124" lon="8.31302">
        <ele>318.33</ele>
        <time>2012-08-05T08:10:05Z</time>
      </trkpt>
      <trkpt lat="46.15122" lon="8.31286">
        <ele>318.81</ele>
        <time>2012-08-05T08:10:06Z</time>
      </trkpt>
      <trkpt lat="46.15123" lon="8.3127">
        <ele>319.3</ele>
        <time>2012-08-05T08:10:07Z</time>
      </trkpt>
      <trkpt lat="46.15127" lon="8.31256">
        <ele>320.26</ele>
        <time>2012-08-05T08:10:08Z</time>
      </trkpt>
      <trkpt lat="46.15134" lon="8.31245">
        <ele>320.26</ele>
        <time>2012-08-05T08:10:09Z</time>
      </trkpt>
      <trkpt lat="46.15142" lon="8.31238">
        <ele>320.74</ele>
        <time>2012-08-05T08:10:10Z</time>
      </trkpt>
      <trkpt lat="46.1515" lon="8.31235">
        <ele>321.22</ele>
        <time>2012-08-05T08:10:11Z</time>
      </trkpt>
      <trkpt lat="46.1516" lon="8.31235">
        <ele>321.22</ele>
        <time>2012-08-05T08:10:12Z</time>
      </trkpt>
      <trkpt lat="46.15172" lon="8.31238">
        <ele>322.18</ele>
        <time>2012-08-05T08:10:13Z</time>
      </trkpt>
      <trkpt lat="46.15186" lon="8.31242">
        <ele>322.66</ele>
        <time>2012-08-05T08:10:14Z</time>
      </trkpt>
      <trkpt lat="46.15314" lon="8.31277">
        <ele>323.14</ele>
        <time>2012-08-05T08:10:22Z</time>
      </trkpt>
      <trkpt lat="46.15516" lon="8.31334">
        <ele>321.7</ele>
        <time>2012-08-05T08:10:33Z</time>
      </trkpt>
      <trkpt lat="46.15706" lon="8.31328">
        <ele>317.85</ele>
        <time>2012-08-05T08:10:43Z</time>
      </trkpt>
      <trkpt lat="46.15853" lon="8.31299">
        <ele>323.14</ele>
        <time>2012-08-05T08:10:51Z</time>
      </trkpt>
      <trkpt lat="46.15872" lon="8.31296">
        <ele>323.14</ele>
        <time>2012-08-05T08:10:52Z</time>
      </trkpt>
      <trkpt lat="46.15999" lon="8.31272">
        <ele>327.47</ele>
        <time>2012-08-05T08:10:59Z</time>
      </trkpt>
      <trkpt lat="46.16017" lon="8.31268">
        <ele>326.99</ele>
        <time>2012-08-05T08:11:00Z</time>
      </trkpt>
      <trkpt lat="46.16074" lon="8.31256">
        <ele>329.39</ele>
        <time>2012-08-05T08:11:03Z</time>
      </trkpt>
      <trkpt lat="46.1615" lon="8.31242">
        <ele>332.75</ele>
        <time>2012-08-05T08:11:07Z</time>
      </trkpt>
      <trkpt lat="46.16188" lon="8.31234">
        <ele>334.2</ele>
        <time>2012-08-05T08:11:09Z</time>
      </trkpt>
      <trkpt lat="46.16283" lon="8.31216">
        <ele>339</ele>
        <time>2012-08-05T08:11:14Z</time>
      </trkpt>
      <trkpt lat="46.16303" lon="8.31212">
        <ele>338.52</ele>
        <time>2012-08-05T08:11:15Z</time>
      </trkpt>
      <trkpt lat="46.16363" lon="8.31201">
        <ele>341.89</ele>
        <time>2012-08-05T08:11:18Z</time>
      </trkpt>
      <trkpt lat="46.16478" lon="8.31177">
        <ele>347.17</ele>
        <time>2012-08-05T08:11:24Z</time>
      </trkpt>
      <trkpt lat="46.16497" lon="8.31173">
        <ele>345.73</ele>
        <time>2012-08-05T08:11:25Z</time>
      </trkpt>
      <trkpt lat="46.16552" lon="8.31158">
        <ele>348.62</ele>
        <time>2012-08-05T08:11:28Z</time>
      </trkpt>
      <trkpt lat="46.16589" lon="8.31142">
        <ele>351.5</ele>
        <time>2012-08-05T08:11:30Z</time>
      </trkpt>
      <trkpt lat="46.16607" lon="8.31132">
        <ele>350.54</ele>
        <time>2012-08-05T08:11:31Z</time>
      </trkpt>
      <trkpt lat="46.16659" lon="8.31097">
        <ele>353.9</ele>
        <time>2012-08-05T08:11:34Z</time>
      </trkpt>
      <trkpt lat="46.16693" lon="8.31069">
        <ele>355.34</ele>
        <time>2012-08-05T08:11:36Z</time>
      </trkpt>
      <trkpt lat="46.16739" lon="8.31021">
        <ele>358.71</ele>
        <time>2012-08-05T08:11:39Z</time>
      </trkpt>
      <trkpt lat="46.16753" lon="8.31004">
        <ele>357.75</ele>
        <time>2012-08-05T08:11:40Z</time>
      </trkpt>
      <trkpt lat="46.16807" lon="8.30928">
        <ele>361.59</ele>
        <time>2012-08-05T08:11:44Z</time>
      </trkpt>
      <trkpt lat="46.16833" lon="8.30885">
        <ele>362.55</ele>
        <time>2012-08-05T08:11:46Z</time>
      </trkpt>
      <trkpt lat="46.16862" lon="8.30838">
        <ele>365.92</ele>
        <time>2012-08-05T08:11:48Z</time>
      </trkpt>
      <trkpt lat="46.16853" lon="8.30835">
        <ele>366.4</ele>
        <time>2012-08-05T08:11:50Z</time>
      </trkpt>
      <trkpt lat="46.16852" lon="8.30836">
        <ele>366.4</ele>
        <time>2012-08-05T08:11:53Z</time>
      </trkpt>
      <trkpt lat="46.16864" lon="8.30815">
        <ele>369.76</ele>
        <time>2012-08-05T08:11:56Z</time>
      </trkpt>
      <trkpt lat="46.16859" lon="8.30822">
        <ele>367.84</ele>
        <time>2012-08-05T08:12:00Z</time>
      </trkpt>
      <trkpt lat="46.16856" lon="8.30826">
        <ele>369.28</ele>
        <time>2012-08-05T08:12:01Z</time>
      </trkpt>
      <trkpt lat="46.16859" lon="8.30816">
        <ele>370.73</ele>
        <time>2012-08-05T08:12:02Z</time>
      </trkpt>
      <trkpt lat="46.16863" lon="8.30803">
        <ele>374.09</ele>
        <time>2012-08-05T08:12:04Z</time>
      </trkpt>
      <trkpt lat="46.16862" lon="8.30806">
        <ele>375.53</ele>
        <time>2012-08-05T08:12:09Z</time>
      </trkpt>
      <trkpt lat="46.16863" lon="8.30803">
        <ele>376.49</ele>
        <time>2012-08-05T08:12:16Z</time>
      </trkpt>
      <trkpt lat="46.16863" lon="8.30804">
        <ele>379.86</ele>
        <time>2012-08-05T08:12:17Z</time>
      </trkpt>
      <trkpt lat="46.16867" lon="8.30792">
        <ele>379.86</ele>
        <time>2012-08-05T08:12:15Z</time>
      </trkpt>
      <trkpt lat="46.16868" lon="8.30786">
        <ele>377.94</ele>
        <time>2012-08-05T08:12:18Z</time>
      </trkpt>
      <trkpt lat="46.16869" lon="8.30784">
        <ele>382.26</ele>
        <time>2012-08-05T08:12:19Z</time>
      </trkpt>
      <trkpt lat="46.16872" lon="8.30775">
        <ele>384.66</ele>
        <time>2012-08-05T08:12:22Z</time>
      </trkpt>
      <trkpt lat="46.1687" lon="8.30781">
        <ele>388.51</ele>
        <time>2012-08-05T08:12:23Z</time>
      </trkpt>
      <trkpt lat="46.16876" lon="8.30763">
        <ele>382.26</ele>
        <time>2012-08-05T08:12:27Z</time>
      </trkpt>
      <trkpt lat="46.16876" lon="8.30762">
        <ele>385.63</ele>
        <time>2012-08-05T08:12:28Z</time>
      </trkpt>
      <trkpt lat="46.16885" lon="8.30734">
        <ele>388.03</ele>
        <time>2012-08-05T08:12:30Z</time>
      </trkpt>
      <trkpt lat="46.1689" lon="8.30716">
        <ele>390.91</ele>
        <time>2012-08-05T08:12:34Z</time>
      </trkpt>
      <trkpt lat="46.16889" lon="8.3072">
        <ele>391.87</ele>
        <time>2012-08-05T08:12:36Z</time>
      </trkpt>
      <trkpt lat="46.16905" lon="8.30647">
        <ele>395.72</ele>
        <time>2012-08-05T08:12:45Z</time>
      </trkpt>
      <trkpt lat="46.16904" lon="8.30653">
        <ele>396.68</ele>
        <time>2012-08-05T08:12:46Z</time>
      </trkpt>
      <trkpt lat="46.16921" lon="8.3058">
        <ele>400.53</ele>
        <time>2012-08-05T08:12:53Z</time>
      </trkpt>
      <trkpt lat="46.16918" lon="8.30589">
        <ele>400.53</ele>
        <time>2012-08-05T08:12:54Z</time>
      </trkpt>
      <trkpt lat="46.1692" lon="8.30581">
        <ele>404.37</ele>
        <time>2012-08-05T08:13:00Z</time>
      </trkpt>
      <trkpt lat="46.16921" lon="8.30576">
        <ele>402.45</ele>
        <time>2012-08-05T08:13:01Z</time>
      </trkpt>
      <trkpt lat="46.16922" lon="8.30575">
        <ele>401.01</ele>
        <time>2012-08-05T08:13:03Z</time>
      </trkpt>
      <trkpt lat="46.16921" lon="8.30576">
        <ele>404.37</ele>
        <time>2012-08-05T08:13:06Z</time>
      </trkpt>
      <trkpt lat="46.16926" lon="8.30556">
        <ele>402.93</ele>
        <time>2012-08-05T08:13:11Z</time>
      </trkpt>
      <trkpt lat="46.16929" lon="8.30541">
        <ele>407.26</ele>
        <time>2012-08-05T08:13:12Z</time>
      </trkpt>
      <trkpt lat="46.16925" lon="8.3056">
        <ele>409.66</ele>
        <time>2012-08-05T08:13:14Z</time>
      </trkpt>
      <trkpt lat="46.16926" lon="8.30555">
        <ele>405.81</ele>
        <time>2012-08-05T08:13:17Z</time>
      </trkpt>
      <trkpt lat="46.1693" lon="8.3054">
        <ele>410.14</ele>
        <time>2012-08-05T08:13:19Z</time>
      </trkpt>
      <trkpt lat="46.16931" lon="8.30536">
        <ele>408.22</ele>
        <time>2012-08-05T08:13:20Z</time>
      </trkpt>
      <trkpt lat="46.16935" lon="8.30518">
        <ele>411.1</ele>
        <time>2012-08-05T08:13:26Z</time>
      </trkpt>
      <trkpt lat="46.16935" lon="8.30515">
        <ele>413.5</ele>
        <time>2012-08-05T08:13:30Z</time>
      </trkpt>
      <trkpt lat="46.17607" lon="8.28163">
        <ele>414.47</ele>
        <time>2012-08-05T08:13:34Z</time>
      </trkpt>
      <trkpt lat="46.17624" lon="8.28151">
        <ele>411.1</ele>
        <time>2012-08-05T08:13:35Z</time>
      </trkpt>
      <trkpt lat="46.17641" lon="8.28138">
        <ele>415.43</ele>
        <time>2012-08-05T08:13:36Z</time>
      </trkpt>
      <trkpt lat="46.17709" lon="8.28099">
        <ele>416.87</ele>
        <time>2012-08-05T08:13:40Z</time>
      </trkpt>
      <trkpt lat="46.17877" lon="8.28059">
        <ele>419.27</ele>
        <time>2012-08-05T08:13:49Z</time>
      </trkpt>
      <trkpt lat="46.17955" lon="8.28048">
        <ele>421.68</ele>
        <time>2012-08-05T08:13:53Z</time>
      </trkpt>
      <trkpt lat="46.18086" lon="8.28027">
        <ele>423.6</ele>
        <time>2012-08-05T08:14:00Z</time>
      </trkpt>
      <trkpt lat="46.18224" lon="8.28004">
        <ele>424.56</ele>
        <time>2012-08-05T08:14:09Z</time>
      </trkpt>
      <trkpt lat="46.18374" lon="8.27979">
        <ele>427.92</ele>
        <time>2012-08-05T08:14:19Z</time>
      </trkpt>
      <trkpt lat="46.18457" lon="8.27966">
        <ele>430.33</ele>
        <time>2012-08-05T08:14:24Z</time>
      </trkpt>
      <trkpt lat="46.18525" lon="8.27954">
        <ele>434.17</ele>
        <time>2012-08-05T08:14:28Z</time>
      </trkpt>
      <trkpt lat="46.18577" lon="8.2794">
        <ele>436.58</ele>
        <time>2012-08-05T08:14:31Z</time>
      </trkpt>
      <trkpt lat="46.18646" lon="8.27903">
        <ele>439.46</ele>
        <time>2012-08-05T08:14:35Z</time>
      </trkpt>
      <trkpt lat="46.18662" lon="8.27889">
        <ele>440.9</ele>
        <time>2012-08-05T08:14:36Z</time>
      </trkpt>
      <trkpt lat="46.18678" lon="8.27873">
        <ele>441.86</ele>
        <time>2012-08-05T08:14:37Z</time>
      </trkpt>
      <trkpt lat="46.18694" lon="8.27855">
        <ele>443.31</ele>
        <time>2012-08-05T08:14:38Z</time>
      </trkpt>
      <trkpt lat="46.18709" lon="8.27835">
        <ele>444.75</ele>
        <time>2012-08-05T08:14:39Z</time>
      </trkpt>
      <trkpt lat="46.18726" lon="8.27817">
        <ele>444.75</ele>
        <time>2012-08-05T08:14:40Z</time>
      </trkpt>
      <trkpt lat="46.18796" lon="8.27757">
        <ele>447.63</ele>
        <time>2012-08-05T08:14:44Z</time>
      </trkpt>
      <trkpt lat="46.18815" lon="8.27745">
        <ele>448.11</ele>
        <time>2012-08-05T08:14:45Z</time>
      </trkpt>
      <trkpt lat="46.18853" lon="8.27728">
        <ele>450.03</ele>
        <time>2012-08-05T08:14:47Z</time>
      </trkpt>
      <trkpt lat="46.18931" lon="8.27689">
        <ele>453.4</ele>
        <time>2012-08-05T08:14:51Z</time>
      </trkpt>
      <trkpt lat="46.18997" lon="8.27622">
        <ele>456.76</ele>
        <time>2012-08-05T08:14:55Z</time>
      </trkpt>
      <trkpt lat="46.1901" lon="8.27603">
        <ele>457.24</ele>
        <time>2012-08-05T08:14:56Z</time>
      </trkpt>
      <trkpt lat="46.19088" lon="8.27479">
        <ele>462.05</ele>
        <time>2012-08-05T08:15:02Z</time>
      </trkpt>
      <trkpt lat="46.1915" lon="8.27406">
        <ele>464.93</ele>
        <time>2012-08-05T08:15:06Z</time>
      </trkpt>
      <trkpt lat="46.1922" lon="8.2735">
        <ele>467.34</ele>
        <time>2012-08-05T08:15:10Z</time>
      </trkpt>
      <trkpt lat="46.19337" lon="8.27305">
        <ele>471.18</ele>
        <time>2012-08-05T08:15:16Z</time>
      </trkpt>
      <trkpt lat="46.19417" lon="8.27284">
        <ele>473.59</ele>
        <time>2012-08-05T08:15:20Z</time>
      </trkpt>
      <trkpt lat="46.19592" lon="8.27221">
        <ele>476.95</ele>
        <time>2012-08-05T08:15:29Z</time>
      </trkpt>
      <trkpt lat="46.19611" lon="8.27209">
        <ele>473.59</ele>
        <time>2012-08-05T08:15:30Z</time>
      </trkpt>
      <trkpt lat="46.19621" lon="8.27202">
        <ele>480.32</ele>
        <time>2012-08-05T08:15:31Z</time>
      </trkpt>
      <trkpt lat="46.19662" lon="8.27171">
        <ele>476.95</ele>
        <time>2012-08-05T08:15:33Z</time>
      </trkpt>
      <trkpt lat="46.1974" lon="8.27088">
        <ele>480.32</ele>
        <time>2012-08-05T08:15:38Z</time>
      </trkpt>
      <trkpt lat="46.19768" lon="8.27049">
        <ele>480.8</ele>
        <time>2012-08-05T08:15:40Z</time>
      </trkpt>
      <trkpt lat="46.19906" lon="8.26804">
        <ele>485.6</ele>
        <time>2012-08-05T08:15:51Z</time>
      </trkpt>
      <trkpt lat="46.19917" lon="8.26781">
        <ele>484.64</ele>
        <time>2012-08-05T08:15:52Z</time>
      </trkpt>
      <trkpt lat="46.19974" lon="8.26602">
        <ele>488.01</ele>
        <time>2012-08-05T08:15:59Z</time>
      </trkpt>
      <trkpt lat="46.19986" lon="8.26547">
        <ele>488.97</ele>
        <time>2012-08-05T08:16:01Z</time>
      </trkpt>
      <trkpt lat="46.20018" lon="8.26318">
        <ele>492.33</ele>
        <time>2012-08-05T08:16:09Z</time>
      </trkpt>
      <trkpt lat="46.20025" lon="8.2626">
        <ele>493.29</ele>
        <time>2012-08-05T08:16:11Z</time>
      </trkpt>
      <trkpt lat="46.20051" lon="8.26054">
        <ele>496.66</ele>
        <time>2012-08-05T08:16:18Z</time>
      </trkpt>
      <trkpt lat="46.20061" lon="8.25966">
        <ele>498.1</ele>
        <time>2012-08-05T08:16:21Z</time>
      </trkpt>
      <trkpt lat="46.20076" lon="8.25848">
        <ele>500.02</ele>
        <time>2012-08-05T08:16:25Z</time>
      </trkpt>
      <trkpt lat="46.20084" lon="8.25789">
        <ele>501.46</ele>
        <time>2012-08-05T08:16:27Z</time>
      </trkpt>
      <trkpt lat="46.20124" lon="8.2558">
        <ele>505.79</ele>
        <time>2012-08-05T08:16:34Z</time>
      </trkpt>
      <trkpt lat="46.20189" lon="8.25395">
        <ele>507.23</ele>
        <time>2012-08-05T08:16:41Z</time>
      </trkpt>
      <trkpt lat="46.20262" lon="8.25215">
        <ele>510.6</ele>
        <time>2012-08-05T08:16:48Z</time>
      </trkpt>
      <trkpt lat="46.20392" lon="8.24919">
        <ele>513.96</ele>
        <time>2012-08-05T08:17:00Z</time>
      </trkpt>
      <trkpt lat="46.20442" lon="8.24812">
        <ele>515.88</ele>
        <time>2012-08-05T08:17:04Z</time>
      </trkpt>
      <trkpt lat="46.20478" lon="8.24733">
        <ele>517.81</ele>
        <time>2012-08-05T08:17:07Z</time>
      </trkpt>
      <trkpt lat="46.20565" lon="8.24548">
        <ele>520.69</ele>
        <time>2012-08-05T08:17:14Z</time>
      </trkpt>
      <trkpt lat="46.20596" lon="8.24462">
        <ele>523.58</ele>
        <time>2012-08-05T08:17:17Z</time>
      </trkpt>
      <trkpt lat="46.20628" lon="8.2434">
        <ele>527.9</ele>
        <time>2012-08-05T08:17:21Z</time>
      </trkpt>
      <trkpt lat="46.20656" lon="8.2422">
        <ele>531.75</ele>
        <time>2012-08-05T08:17:25Z</time>
      </trkpt>
      <trkpt lat="46.20661" lon="8.2419">
        <ele>531.27</ele>
        <time>2012-08-05T08:17:26Z</time>
      </trkpt>
      <trkpt lat="46.20669" lon="8.2413">
        <ele>533.19</ele>
        <time>2012-08-05T08:17:28Z</time>
      </trkpt>
      <trkpt lat="46.20673" lon="8.24041">
        <ele>536.07</ele>
        <time>2012-08-05T08:17:31Z</time>
      </trkpt>
      <trkpt lat="46.20664" lon="8.23921">
        <ele>539.92</ele>
        <time>2012-08-05T08:17:35Z</time>
      </trkpt>
      <trkpt lat="46.20641" lon="8.23747">
        <ele>543.28</ele>
        <time>2012-08-05T08:17:41Z</time>
      </trkpt>
      <trkpt lat="46.20629" lon="8.23659">
        <ele>546.17</ele>
        <time>2012-08-05T08:17:44Z</time>
      </trkpt>
      <trkpt lat="46.20618" lon="8.23574">
        <ele>552.41</ele>
        <time>2012-08-05T08:17:47Z</time>
      </trkpt>
      <trkpt lat="46.20615" lon="8.23546">
        <ele>550.01</ele>
        <time>2012-08-05T08:17:48Z</time>
      </trkpt>
      <trkpt lat="46.20614" lon="8.23519">
        <ele>546.17</ele>
        <time>2012-08-05T08:17:49Z</time>
      </trkpt>
      <trkpt lat="46.20613" lon="8.2349">
        <ele>551.93</ele>
        <time>2012-08-05T08:17:50Z</time>
      </trkpt>
      <trkpt lat="46.20616" lon="8.23405">
        <ele>554.82</ele>
        <time>2012-08-05T08:17:53Z</time>
      </trkpt>
      <trkpt lat="46.20622" lon="8.23347">
        <ele>557.22</ele>
        <time>2012-08-05T08:17:55Z</time>
      </trkpt>
      <trkpt lat="46.20641" lon="8.23232">
        <ele>561.07</ele>
        <time>2012-08-05T08:17:59Z</time>
      </trkpt>
      <trkpt lat="46.20648" lon="8.23143">
        <ele>564.91</ele>
        <time>2012-08-05T08:18:02Z</time>
      </trkpt>
      <trkpt lat="46.20648" lon="8.23113">
        <ele>566.35</ele>
        <time>2012-08-05T08:18:03Z</time>
      </trkpt>
      <trkpt lat="46.20646" lon="8.23083">
        <ele>566.83</ele>
        <time>2012-08-05T08:18:04Z</time>
      </trkpt>
      <trkpt lat="46.20642" lon="8.23053">
        <ele>567.32</ele>
        <time>2012-08-05T08:18:05Z</time>
      </trkpt>
      <trkpt lat="46.20636" lon="8.23023">
        <ele>568.76</ele>
        <time>2012-08-05T08:18:06Z</time>
      </trkpt>
      <trkpt lat="46.20629" lon="8.22994">
        <ele>570.2</ele>
        <time>2012-08-05T08:18:07Z</time>
      </trkpt>
      <trkpt lat="46.2062" lon="8.22965">
        <ele>571.64</ele>
        <time>2012-08-05T08:18:08Z</time>
      </trkpt>
      <trkpt lat="46.20602" lon="8.2291">
        <ele>573.56</ele>
        <time>2012-08-05T08:18:10Z</time>
      </trkpt>
      <trkpt lat="46.20594" lon="8.22882">
        <ele>573.08</ele>
        <time>2012-08-05T08:18:11Z</time>
      </trkpt>
      <trkpt lat="46.20588" lon="8.22854">
        <ele>572.12</ele>
        <time>2012-08-05T08:18:12Z</time>
      </trkpt>
      <trkpt lat="46.20583" lon="8.22825">
        <ele>575.97</ele>
        <time>2012-08-05T08:18:13Z</time>
      </trkpt>
      <trkpt lat="46.20579" lon="8.22795">
        <ele>575.97</ele>
        <time>2012-08-05T08:18:14Z</time>
      </trkpt>
      <trkpt lat="46.20574" lon="8.22736">
        <ele>577.41</ele>
        <time>2012-08-05T08:18:16Z</time>
      </trkpt>
      <trkpt lat="46.20577" lon="8.2262">
        <ele>581.25</ele>
        <time>2012-08-05T08:18:20Z</time>
      </trkpt>
      <trkpt lat="46.20582" lon="8.2253">
        <ele>585.1</ele>
        <time>2012-08-05T08:18:23Z</time>
      </trkpt>
      <trkpt lat="46.20584" lon="8.22499">
        <ele>585.1</ele>
        <time>2012-08-05T08:18:24Z</time>
      </trkpt>
      <trkpt lat="46.20592" lon="8.22378">
        <ele>588.46</ele>
        <time>2012-08-05T08:18:28Z</time>
      </trkpt>
      <trkpt lat="46.20622" lon="8.22156">
        <ele>586.06</ele>
        <time>2012-08-05T08:18:36Z</time>
      </trkpt>
      <trkpt lat="46.20627" lon="8.22129">
        <ele>585.58</ele>
        <time>2012-08-05T08:18:37Z</time>
      </trkpt>
      <trkpt lat="46.20629" lon="8.22103">
        <ele>585.58</ele>
        <time>2012-08-05T08:18:38Z</time>
      </trkpt>
      <trkpt lat="46.2063" lon="8.22077">
        <ele>586.06</ele>
        <time>2012-08-05T08:18:39Z</time>
      </trkpt>
      <trkpt lat="46.20628" lon="8.22049">
        <ele>586.54</ele>
        <time>2012-08-05T08:18:40Z</time>
      </trkpt>
      <trkpt lat="46.20625" lon="8.22022">
        <ele>585.58</ele>
        <time>2012-08-05T08:18:41Z</time>
      </trkpt>
      <trkpt lat="46.20622" lon="8.21994">
        <ele>585.1</ele>
        <time>2012-08-05T08:18:42Z</time>
      </trkpt>
      <trkpt lat="46.20612" lon="8.2194">
        <ele>582.22</ele>
        <time>2012-08-05T08:18:44Z</time>
      </trkpt>
      <trkpt lat="46.20607" lon="8.21913">
        <ele>586.54</ele>
        <time>2012-08-05T08:18:45Z</time>
      </trkpt>
      <trkpt lat="46.20593" lon="8.2183">
        <ele>587.5</ele>
        <time>2012-08-05T08:18:48Z</time>
      </trkpt>
      <trkpt lat="46.2057" lon="8.21691">
        <ele>590.39</ele>
        <time>2012-08-05T08:18:53Z</time>
      </trkpt>
      <trkpt lat="46.20538" lon="8.21473">
        <ele>590.87</ele>
        <time>2012-08-05T08:19:02Z</time>
      </trkpt>
      <trkpt lat="46.20536" lon="8.21431">
        <ele>592.79</ele>
        <time>2012-08-05T08:19:04Z</time>
      </trkpt>
      <trkpt lat="46.20536" lon="8.21394">
        <ele>594.23</ele>
        <time>2012-08-05T08:19:05Z</time>
      </trkpt>
      <trkpt lat="46.20539" lon="8.2122">
        <ele>597.12</ele>
        <time>2012-08-05T08:19:12Z</time>
      </trkpt>
      <trkpt lat="46.20541" lon="8.21196">
        <ele>598.08</ele>
        <time>2012-08-05T08:19:13Z</time>
      </trkpt>
      <trkpt lat="46.20546" lon="8.21173">
        <ele>597.6</ele>
        <time>2012-08-05T08:19:14Z</time>
      </trkpt>
      <trkpt lat="46.20568" lon="8.21056">
        <ele>600.48</ele>
        <time>2012-08-05T08:19:19Z</time>
      </trkpt>
      <trkpt lat="46.20585" lon="8.20936">
        <ele>604.33</ele>
        <time>2012-08-05T08:19:24Z</time>
      </trkpt>
      <trkpt lat="46.20592" lon="8.20912">
        <ele>604.33</ele>
        <time>2012-08-05T08:19:25Z</time>
      </trkpt>
      <trkpt lat="46.20626" lon="8.2079">
        <ele>609.61</ele>
        <time>2012-08-05T08:19:30Z</time>
      </trkpt>
      <trkpt lat="46.20632" lon="8.20766">
        <ele>608.65</ele>
        <time>2012-08-05T08:19:31Z</time>
      </trkpt>
      <trkpt lat="46.20651" lon="8.2067">
        <ele>610.57</ele>
        <time>2012-08-05T08:19:35Z</time>
      </trkpt>
      <trkpt lat="46.20666" lon="8.20555">
        <ele>612.98</ele>
        <time>2012-08-05T08:19:40Z</time>
      </trkpt>
      <trkpt lat="46.2068" lon="8.20443">
        <ele>615.86</ele>
        <time>2012-08-05T08:19:46Z</time>
      </trkpt>
      <trkpt lat="46.20706" lon="8.20306">
        <ele>620.19</ele>
        <time>2012-08-05T08:19:53Z</time>
      </trkpt>
      <trkpt lat="46.20711" lon="8.20285">
        <ele>620.19</ele>
        <time>2012-08-05T08:19:54Z</time>
      </trkpt>
      <trkpt lat="46.20737" lon="8.20183">
        <ele>624.51</ele>
        <time>2012-08-05T08:19:59Z</time>
      </trkpt>
      <trkpt lat="46.20755" lon="8.20108">
        <ele>626.92</ele>
        <time>2012-08-05T08:20:03Z</time>
      </trkpt>
      <trkpt lat="46.20757" lon="8.20091">
        <ele>627.88</ele>
        <time>2012-08-05T08:20:04Z</time>
      </trkpt>
      <trkpt lat="46.20756" lon="8.20074">
        <ele>628.84</ele>
        <time>2012-08-05T08:20:05Z</time>
      </trkpt>
      <trkpt lat="46.20754" lon="8.20057">
        <ele>629.8</ele>
        <time>2012-08-05T08:20:06Z</time>
      </trkpt>
      <trkpt lat="46.20752" lon="8.2004">
        <ele>631.24</ele>
        <time>2012-08-05T08:20:07Z</time>
      </trkpt>
      <trkpt lat="46.20751" lon="8.20022">
        <ele>632.2</ele>
        <time>2012-08-05T08:20:08Z</time>
      </trkpt>
      <trkpt lat="46.2075" lon="8.20004">
        <ele>634.13</ele>
        <time>2012-08-05T08:20:09Z</time>
      </trkpt>
      <trkpt lat="46.20748" lon="8.19986">
        <ele>635.09</ele>
        <time>2012-08-05T08:20:10Z</time>
      </trkpt>
      <trkpt lat="46.20744" lon="8.19968">
        <ele>636.05</ele>
        <time>2012-08-05T08:20:11Z</time>
      </trkpt>
      <trkpt lat="46.20738" lon="8.19952">
        <ele>637.01</ele>
        <time>2012-08-05T08:20:12Z</time>
      </trkpt>
      <trkpt lat="46.20718" lon="8.19899">
        <ele>641.34</ele>
        <time>2012-08-05T08:20:15Z</time>
      </trkpt>
      <trkpt lat="46.20708" lon="8.19855">
        <ele>643.26</ele>
        <time>2012-08-05T08:20:17Z</time>
      </trkpt>
      <trkpt lat="46.20701" lon="8.19831">
        <ele>638.93</ele>
        <time>2012-08-05T08:20:18Z</time>
      </trkpt>
      <trkpt lat="46.20697" lon="8.1985">
        <ele>644.7</ele>
        <time>2012-08-05T08:20:19Z</time>
      </trkpt>
      <trkpt lat="46.20695" lon="8.19844">
        <ele>651.43</ele>
        <time>2012-08-05T08:20:24Z</time>
      </trkpt>
      <trkpt lat="46.20604" lon="8.19623">
        <ele>651.91</ele>
        <time>2012-08-05T08:20:30Z</time>
      </trkpt>
      <trkpt lat="46.20596" lon="8.19608">
        <ele>651.91</ele>
        <time>2012-08-05T08:20:31Z</time>
      </trkpt>
      <trkpt lat="46.20589" lon="8.19592">
        <ele>652.39</ele>
        <time>2012-08-05T08:20:32Z</time>
      </trkpt>
      <trkpt lat="46.20584" lon="8.19575">
        <ele>652.39</ele>
        <time>2012-08-05T08:20:33Z</time>
      </trkpt>
      <trkpt lat="46.20571" lon="8.19522">
        <ele>655.28</ele>
        <time>2012-08-05T08:20:36Z</time>
      </trkpt>
      <trkpt lat="46.20566" lon="8.19472">
        <ele>654.8</ele>
        <time>2012-08-05T08:20:38Z</time>
      </trkpt>
      <trkpt lat="46.2056" lon="8.19321">
        <ele>654.8</ele>
        <time>2012-08-05T08:20:46Z</time>
      </trkpt>
      <trkpt lat="46.20535" lon="8.19204">
        <ele>655.28</ele>
        <time>2012-08-05T08:20:56Z</time>
      </trkpt>
      <trkpt lat="46.20533" lon="8.19196">
        <ele>655.76</ele>
        <time>2012-08-05T08:20:57Z</time>
      </trkpt>
      <trkpt lat="46.2052" lon="8.19151">
        <ele>655.76</ele>
        <time>2012-08-05T08:21:06Z</time>
      </trkpt>
      <trkpt lat="46.20518" lon="8.19148">
        <ele>655.76</ele>
        <time>2012-08-05T08:21:07Z</time>
      </trkpt>
      <trkpt lat="46.20508" lon="8.19113">
        <ele>657.2</ele>
        <time>2012-08-05T08:21:17Z</time>
      </trkpt>
      <trkpt lat="46.20508" lon="8.19104">
        <ele>657.2</ele>
        <time>2012-08-05T08:21:18Z</time>
      </trkpt>
      <trkpt lat="46.20504" lon="8.19014">
        <ele>660.56</ele>
        <time>2012-08-05T08:21:25Z</time>
      </trkpt>
      <trkpt lat="46.20489" lon="8.18894">
        <ele>663.93</ele>
        <time>2012-08-05T08:21:33Z</time>
      </trkpt>
      <trkpt lat="46.20485" lon="8.18878">
        <ele>664.41</ele>
        <time>2012-08-05T08:21:34Z</time>
      </trkpt>
      <trkpt lat="46.20456" lon="8.18773">
        <ele>667.77</ele>
        <time>2012-08-05T08:21:40Z</time>
      </trkpt>
      <trkpt lat="46.20447" lon="8.18735">
        <ele>668.25</ele>
        <time>2012-08-05T08:21:42Z</time>
      </trkpt>
      <trkpt lat="46.20434" lon="8.18656">
        <ele>671.14</ele>
        <time>2012-08-05T08:21:46Z</time>
      </trkpt>
      <trkpt lat="46.20428" lon="8.18637">
        <ele>671.14</ele>
        <time>2012-08-05T08:21:47Z</time>
      </trkpt>
      <trkpt lat="46.20422" lon="8.18619">
        <ele>671.14</ele>
        <time>2012-08-05T08:21:48Z</time>
      </trkpt>
      <trkpt lat="46.20415" lon="8.18603">
        <ele>671.14</ele>
        <time>2012-08-05T08:21:49Z</time>
      </trkpt>
      <trkpt lat="46.20407" lon="8.18588">
        <ele>670.66</ele>
        <time>2012-08-05T08:21:50Z</time>
      </trkpt>
      <trkpt lat="46.20399" lon="8.18575">
        <ele>670.66</ele>
        <time>2012-08-05T08:21:51Z</time>
      </trkpt>
      <trkpt lat="46.20389" lon="8.18563">
        <ele>671.14</ele>
        <time>2012-08-05T08:21:52Z</time>
      </trkpt>
      <trkpt lat="46.20378" lon="8.18551">
        <ele>671.14</ele>
        <time>2012-08-05T08:21:53Z</time>
      </trkpt>
      <trkpt lat="46.20277" lon="8.18427">
        <ele>672.58</ele>
        <time>2012-08-05T08:22:02Z</time>
      </trkpt>
      <trkpt lat="46.20237" lon="8.18341">
        <ele>675.94</ele>
        <time>2012-08-05T08:22:07Z</time>
      </trkpt>
      <trkpt lat="46.20232" lon="8.18321">
        <ele>676.42</ele>
        <time>2012-08-05T08:22:08Z</time>
      </trkpt>
      <trkpt lat="46.20212" lon="8.18235">
        <ele>679.31</ele>
        <time>2012-08-05T08:22:12Z</time>
      </trkpt>
      <trkpt lat="46.20198" lon="8.18053">
        <ele>683.15</ele>
        <time>2012-08-05T08:22:20Z</time>
      </trkpt>
      <trkpt lat="46.20197" lon="8.17963">
        <ele>684.12</ele>
        <time>2012-08-05T08:22:24Z</time>
      </trkpt>
      <trkpt lat="46.20194" lon="8.1794">
        <ele>684.12</ele>
        <time>2012-08-05T08:22:25Z</time>
      </trkpt>
      <trkpt lat="46.2019" lon="8.17918">
        <ele>685.08</ele>
        <time>2012-08-05T08:22:26Z</time>
      </trkpt>
      <trkpt lat="46.20185" lon="8.17895">
        <ele>685.56</ele>
        <time>2012-08-05T08:22:27Z</time>
      </trkpt>
      <trkpt lat="46.20179" lon="8.17873">
        <ele>687.48</ele>
        <time>2012-08-05T08:22:28Z</time>
      </trkpt>
      <trkpt lat="46.20128" lon="8.17696">
        <ele>688.92</ele>
        <time>2012-08-05T08:22:36Z</time>
      </trkpt>
      <trkpt lat="46.2012" lon="8.17676">
        <ele>688.92</ele>
        <time>2012-08-05T08:22:37Z</time>
      </trkpt>
      <trkpt lat="46.20091" lon="8.17597">
        <ele>690.84</ele>
        <time>2012-08-05T08:22:41Z</time>
      </trkpt>
      <trkpt lat="46.20087" lon="8.17584">
        <ele>691.33</ele>
        <time>2012-08-05T08:22:42Z</time>
      </trkpt>
      <trkpt lat="46.20081" lon="8.17556">
        <ele>692.29</ele>
        <time>2012-08-05T08:22:43Z</time>
      </trkpt>
      <trkpt lat="46.20078" lon="8.17535">
        <ele>692.77</ele>
        <time>2012-08-05T08:22:44Z</time>
      </trkpt>
      <trkpt lat="46.20076" lon="8.17513">
        <ele>693.73</ele>
        <time>2012-08-05T08:22:45Z</time>
      </trkpt>
      <trkpt lat="46.20075" lon="8.17492">
        <ele>694.69</ele>
        <time>2012-08-05T08:22:46Z</time>
      </trkpt>
      <trkpt lat="46.20071" lon="8.17471">
        <ele>694.21</ele>
        <time>2012-08-05T08:22:47Z</time>
      </trkpt>
      <trkpt lat="46.20067" lon="8.1745">
        <ele>697.09</ele>
        <time>2012-08-05T08:22:48Z</time>
      </trkpt>
      <trkpt lat="46.20061" lon="8.1743">
        <ele>696.13</ele>
        <time>2012-08-05T08:22:49Z</time>
      </trkpt>
      <trkpt lat="46.20051" lon="8.17389">
        <ele>699.5</ele>
        <time>2012-08-05T08:22:51Z</time>
      </trkpt>
      <trkpt lat="46.20035" lon="8.17301">
        <ele>702.86</ele>
        <time>2012-08-05T08:22:55Z</time>
      </trkpt>
      <trkpt lat="46.20033" lon="8.17292">
        <ele>703.34</ele>
        <time>2012-08-05T08:22:56Z</time>
      </trkpt>
      <trkpt lat="46.20016" lon="8.17178">
        <ele>707.67</ele>
        <time>2012-08-05T08:23:01Z</time>
      </trkpt>
      <trkpt lat="46.20017" lon="8.17159">
        <ele>708.15</ele>
        <time>2012-08-05T08:23:02Z</time>
      </trkpt>
      <trkpt lat="46.20018" lon="8.1714">
        <ele>710.07</ele>
        <time>2012-08-05T08:23:03Z</time>
      </trkpt>
      <trkpt lat="46.20021" lon="8.17121">
        <ele>710.55</ele>
        <time>2012-08-05T08:23:04Z</time>
      </trkpt>
      <trkpt lat="46.20025" lon="8.17102">
        <ele>711.51</ele>
        <time>2012-08-05T08:23:05Z</time>
      </trkpt>
      <trkpt lat="46.2003" lon="8.17084">
        <ele>712.47</ele>
        <time>2012-08-05T08:23:06Z</time>
      </trkpt>
      <trkpt lat="46.20036" lon="8.17067">
        <ele>712.95</ele>
        <time>2012-08-05T08:23:07Z</time>
      </trkpt>
      <trkpt lat="46.20051" lon="8.17039">
        <ele>715.84</ele>
        <time>2012-08-05T08:23:17Z</time>
      </trkpt>
      <trkpt lat="46.20053" lon="8.17036">
        <ele>718.24</ele>
        <time>2012-08-05T08:23:21Z</time>
      </trkpt>
      <trkpt lat="46.20051" lon="8.17034">
        <ele>718.72</ele>
        <time>2012-08-05T08:23:22Z</time>
      </trkpt>
      <trkpt lat="46.19952" lon="8.1685">
        <ele>718.72</ele>
        <time>2012-08-05T08:23:23Z</time>
      </trkpt>
      <trkpt lat="46.19939" lon="8.1684">
        <ele>719.2</ele>
        <time>2012-08-05T08:23:24Z</time>
      </trkpt>
      <trkpt lat="46.19928" lon="8.16831">
        <ele>719.68</ele>
        <time>2012-08-05T08:23:25Z</time>
      </trkpt>
      <trkpt lat="46.19921" lon="8.16822">
        <ele>720.65</ele>
        <time>2012-08-05T08:23:26Z</time>
      </trkpt>
      <trkpt lat="46.19912" lon="8.16805">
        <ele>721.13</ele>
        <time>2012-08-05T08:23:27Z</time>
      </trkpt>
      <trkpt lat="46.19909" lon="8.1679">
        <ele>722.09</ele>
        <time>2012-08-05T08:23:28Z</time>
      </trkpt>
      <trkpt lat="46.19908" lon="8.16773">
        <ele>723.05</ele>
        <time>2012-08-05T08:23:29Z</time>
      </trkpt>
      <trkpt lat="46.19907" lon="8.16756">
        <ele>724.01</ele>
        <time>2012-08-05T08:23:30Z</time>
      </trkpt>
      <trkpt lat="46.19905" lon="8.16738">
        <ele>724.49</ele>
        <time>2012-08-05T08:23:31Z</time>
      </trkpt>
      <trkpt lat="46.19902" lon="8.1672">
        <ele>725.93</ele>
        <time>2012-08-05T08:23:32Z</time>
      </trkpt>
      <trkpt lat="46.1989" lon="8.16668">
        <ele>736.51</ele>
        <time>2012-08-05T08:23:35Z</time>
      </trkpt>
      <trkpt lat="46.19886" lon="8.16651">
        <ele>729.78</ele>
        <time>2012-08-05T08:23:36Z</time>
      </trkpt>
      <trkpt lat="46.19868" lon="8.16574">
        <ele>729.78</ele>
        <time>2012-08-05T08:23:41Z</time>
      </trkpt>
      <trkpt lat="46.19865" lon="8.16557">
        <ele>734.58</ele>
        <time>2012-08-05T08:23:42Z</time>
      </trkpt>
      <trkpt lat="46.19863" lon="8.1654">
        <ele>735.07</ele>
        <time>2012-08-05T08:23:43Z</time>
      </trkpt>
      <trkpt lat="46.19862" lon="8.16521">
        <ele>736.03</ele>
        <time>2012-08-05T08:23:44Z</time>
      </trkpt>
      <trkpt lat="46.19863" lon="8.16454">
        <ele>739.87</ele>
        <time>2012-08-05T08:23:47Z</time>
      </trkpt>
      <trkpt lat="46.19864" lon="8.16403">
        <ele>742.76</ele>
        <time>2012-08-05T08:23:49Z</time>
      </trkpt>
      <trkpt lat="46.19865" lon="8.16379">
        <ele>743.24</ele>
        <time>2012-08-05T08:23:50Z</time>
      </trkpt>
      <trkpt lat="46.19862" lon="8.16314">
        <ele>745.64</ele>
        <time>2012-08-05T08:23:53Z</time>
      </trkpt>
      <trkpt lat="46.19858" lon="8.16294">
        <ele>746.6</ele>
        <time>2012-08-05T08:23:54Z</time>
      </trkpt>
      <trkpt lat="46.19852" lon="8.16274">
        <ele>747.56</ele>
        <time>2012-08-05T08:23:55Z</time>
      </trkpt>
      <trkpt lat="46.19816" lon="8.16186">
        <ele>751.89</ele>
        <time>2012-08-05T08:24:00Z</time>
      </trkpt>
      <trkpt lat="46.19796" lon="8.16135">
        <ele>754.77</ele>
        <time>2012-08-05T08:24:03Z</time>
      </trkpt>
      <trkpt lat="46.19773" lon="8.16086">
        <ele>757.18</ele>
        <time>2012-08-05T08:24:06Z</time>
      </trkpt>
      <trkpt lat="46.19768" lon="8.16069">
        <ele>757.18</ele>
        <time>2012-08-05T08:24:07Z</time>
      </trkpt>
      <trkpt lat="46.19763" lon="8.16051">
        <ele>758.62</ele>
        <time>2012-08-05T08:24:08Z</time>
      </trkpt>
      <trkpt lat="46.19759" lon="8.16034">
        <ele>760.06</ele>
        <time>2012-08-05T08:24:09Z</time>
      </trkpt>
      <trkpt lat="46.19757" lon="8.16016">
        <ele>760.54</ele>
        <time>2012-08-05T08:24:10Z</time>
      </trkpt>
      <trkpt lat="46.19756" lon="8.15871">
        <ele>762.46</ele>
        <time>2012-08-05T08:24:18Z</time>
      </trkpt>
      <trkpt lat="46.19746" lon="8.15775">
        <ele>765.83</ele>
        <time>2012-08-05T08:24:23Z</time>
      </trkpt>
      <trkpt lat="46.19741" lon="8.15749">
        <ele>770.63</ele>
        <time>2012-08-05T08:24:24Z</time>
      </trkpt>
      <trkpt lat="46.19725" lon="8.15691">
        <ele>773.04</ele>
        <time>2012-08-05T08:24:26Z</time>
      </trkpt>
      <trkpt lat="46.19707" lon="8.1564">
        <ele>776.88</ele>
        <time>2012-08-05T08:24:28Z</time>
      </trkpt>
      <trkpt lat="46.19683" lon="8.15571">
        <ele>778.32</ele>
        <time>2012-08-05T08:24:30Z</time>
      </trkpt>
      <trkpt lat="46.19651" lon="8.15485">
        <ele>779.77</ele>
        <time>2012-08-05T08:24:34Z</time>
      </trkpt>
      <trkpt lat="46.19642" lon="8.15468">
        <ele>780.25</ele>
        <time>2012-08-05T08:24:35Z</time>
      </trkpt>
      <trkpt lat="46.19631" lon="8.15453">
        <ele>780.25</ele>
        <time>2012-08-05T08:24:36Z</time>
      </trkpt>
      <trkpt lat="46.196" lon="8.1542">
        <ele>780.73</ele>
        <time>2012-08-05T08:24:39Z</time>
      </trkpt>
      <trkpt lat="46.19592" lon="8.15408">
        <ele>781.21</ele>
        <time>2012-08-05T08:24:40Z</time>
      </trkpt>
      <trkpt lat="46.19586" lon="8.15394">
        <ele>782.17</ele>
        <time>2012-08-05T08:24:41Z</time>
      </trkpt>
      <trkpt lat="46.19582" lon="8.15378">
        <ele>782.65</ele>
        <time>2012-08-05T08:24:42Z</time>
      </trkpt>
      <trkpt lat="46.1958" lon="8.15363">
        <ele>783.13</ele>
        <time>2012-08-05T08:24:43Z</time>
      </trkpt>
      <trkpt lat="46.19581" lon="8.15349">
        <ele>783.13</ele>
        <time>2012-08-05T08:24:44Z</time>
      </trkpt>
      <trkpt lat="46.19584" lon="8.15336">
        <ele>784.09</ele>
        <time>2012-08-05T08:24:45Z</time>
      </trkpt>
      <trkpt lat="46.19587" lon="8.15324">
        <ele>783.61</ele>
        <time>2012-08-05T08:24:46Z</time>
      </trkpt>
      <trkpt lat="46.19613" lon="8.1525">
        <ele>786.5</ele>
        <time>2012-08-05T08:24:52Z</time>
      </trkpt>
      <trkpt lat="46.19617" lon="8.15238">
        <ele>783.61</ele>
        <time>2012-08-05T08:24:53Z</time>
      </trkpt>
      <trkpt lat="46.19622" lon="8.15225">
        <ele>787.94</ele>
        <time>2012-08-05T08:24:54Z</time>
      </trkpt>
      <trkpt lat="46.19637" lon="8.15183">
        <ele>789.38</ele>
        <time>2012-08-05T08:24:57Z</time>
      </trkpt>
      <trkpt lat="46.19641" lon="8.15168">
        <ele>789.86</ele>
        <time>2012-08-05T08:24:58Z</time>
      </trkpt>
      <trkpt lat="46.19645" lon="8.15153">
        <ele>793.71</ele>
        <time>2012-08-05T08:24:59Z</time>
      </trkpt>
      <trkpt lat="46.19649" lon="8.15137">
        <ele>791.78</ele>
        <time>2012-08-05T08:25:00Z</time>
      </trkpt>
      <trkpt lat="46.19668" lon="8.15057">
        <ele>795.15</ele>
        <time>2012-08-05T08:25:05Z</time>
      </trkpt>
      <trkpt lat="46.19675" lon="8.15002">
        <ele>797.07</ele>
        <time>2012-08-05T08:25:08Z</time>
      </trkpt>
      <trkpt lat="46.19675" lon="8.14983">
        <ele>798.51</ele>
        <time>2012-08-05T08:25:09Z</time>
      </trkpt>
      <trkpt lat="46.19674" lon="8.14962">
        <ele>798.99</ele>
        <time>2012-08-05T08:25:10Z</time>
      </trkpt>
      <trkpt lat="46.1966" lon="8.1487">
        <ele>804.28</ele>
        <time>2012-08-05T08:25:14Z</time>
      </trkpt>
      <trkpt lat="46.19644" lon="8.148">
        <ele>806.2</ele>
        <time>2012-08-05T08:25:17Z</time>
      </trkpt>
      <trkpt lat="46.19628" lon="8.14732">
        <ele>808.61</ele>
        <time>2012-08-05T08:25:20Z</time>
      </trkpt>
      <trkpt lat="46.19614" lon="8.14666">
        <ele>811.01</ele>
        <time>2012-08-05T08:25:23Z</time>
      </trkpt>
      <trkpt lat="46.19604" lon="8.14602">
        <ele>814.85</ele>
        <time>2012-08-05T08:25:26Z</time>
      </trkpt>
      <trkpt lat="46.196" lon="8.1454">
        <ele>817.74</ele>
        <time>2012-08-05T08:25:29Z</time>
      </trkpt>
      <trkpt lat="46.19601" lon="8.14474">
        <ele>822.06</ele>
        <time>2012-08-05T08:25:32Z</time>
      </trkpt>
      <trkpt lat="46.19606" lon="8.1443">
        <ele>824.95</ele>
        <time>2012-08-05T08:25:34Z</time>
      </trkpt>
      <trkpt lat="46.19613" lon="8.14365">
        <ele>828.31</ele>
        <time>2012-08-05T08:25:37Z</time>
      </trkpt>
      <trkpt lat="46.19618" lon="8.14321">
        <ele>832.64</ele>
        <time>2012-08-05T08:25:39Z</time>
      </trkpt>
      <trkpt lat="46.1962" lon="8.14277">
        <ele>833.12</ele>
        <time>2012-08-05T08:25:41Z</time>
      </trkpt>
      <trkpt lat="46.19618" lon="8.14228">
        <ele>835.52</ele>
        <time>2012-08-05T08:25:44Z</time>
      </trkpt>
      <trkpt lat="46.19613" lon="8.14165">
        <ele>838.41</ele>
        <time>2012-08-05T08:25:50Z</time>
      </trkpt>
      <trkpt lat="46.19608" lon="8.14128">
        <ele>839.85</ele>
        <time>2012-08-05T08:25:59Z</time>
      </trkpt>
      <trkpt lat="46.19604" lon="8.14118">
        <ele>839.85</ele>
        <time>2012-08-05T08:26:03Z</time>
      </trkpt>
      <trkpt lat="46.19604" lon="8.14116">
        <ele>839.85</ele>
        <time>2012-08-05T08:26:07Z</time>
      </trkpt>
      <trkpt lat="46.19604" lon="8.14112">
        <ele>840.33</ele>
        <time>2012-08-05T08:26:08Z</time>
      </trkpt>
      <trkpt lat="46.19603" lon="8.14107">
        <ele>841.29</ele>
        <time>2012-08-05T08:26:09Z</time>
      </trkpt>
      <trkpt lat="46.19588" lon="8.14063">
        <ele>841.77</ele>
        <time>2012-08-05T08:26:15Z</time>
      </trkpt>
      <trkpt lat="46.19586" lon="8.14057">
        <ele>842.73</ele>
        <time>2012-08-05T08:26:16Z</time>
      </trkpt>
      <trkpt lat="46.19583" lon="8.14047">
        <ele>842.25</ele>
        <time>2012-08-05T08:26:18Z</time>
      </trkpt>
      <trkpt lat="46.19582" lon="8.14039">
        <ele>842.73</ele>
        <time>2012-08-05T08:26:19Z</time>
      </trkpt>
      <trkpt lat="46.19582" lon="8.1403">
        <ele>842.25</ele>
        <time>2012-08-05T08:26:20Z</time>
      </trkpt>
      <trkpt lat="46.19582" lon="8.14007">
        <ele>843.69</ele>
        <time>2012-08-05T08:26:22Z</time>
      </trkpt>
      <trkpt lat="46.19809" lon="8.12678">
        <ele>936.94</ele>
        <time>2012-08-05T08:27:56Z</time>
      </trkpt>
      <trkpt lat="46.19802" lon="8.12667">
        <ele>936.94</ele>
        <time>2012-08-05T08:27:57Z</time>
      </trkpt>
      <trkpt lat="46.19798" lon="8.12656">
        <ele>937.42</ele>
        <time>2012-08-05T08:27:58Z</time>
      </trkpt>
      <trkpt lat="46.19793" lon="8.12648">
        <ele>937.9</ele>
        <time>2012-08-05T08:27:59Z</time>
      </trkpt>
      <trkpt lat="46.19793" lon="8.12639">
        <ele>937.9</ele>
        <time>2012-08-05T08:28:00Z</time>
      </trkpt>
      <trkpt lat="46.19797" lon="8.1263">
        <ele>938.38</ele>
        <time>2012-08-05T08:28:01Z</time>
      </trkpt>
      <trkpt lat="46.19804" lon="8.12628">
        <ele>938.86</ele>
        <time>2012-08-05T08:28:02Z</time>
      </trkpt>
      <trkpt lat="46.19811" lon="8.12633">
        <ele>939.83</ele>
        <time>2012-08-05T08:28:03Z</time>
      </trkpt>
      <trkpt lat="46.19815" lon="8.12642">
        <ele>940.79</ele>
        <time>2012-08-05T08:28:04Z</time>
      </trkpt>
      <trkpt lat="46.19818" lon="8.12653">
        <ele>941.27</ele>
        <time>2012-08-05T08:28:05Z</time>
      </trkpt>
      <trkpt lat="46.19821" lon="8.12666">
        <ele>942.23</ele>
        <time>2012-08-05T08:28:06Z</time>
      </trkpt>
      <trkpt lat="46.19824" lon="8.12679">
        <ele>942.71</ele>
        <time>2012-08-05T08:28:07Z</time>
      </trkpt>
      <trkpt lat="46.19837" lon="8.12721">
        <ele>945.11</ele>
        <time>2012-08-05T08:28:10Z</time>
      </trkpt>
      <trkpt lat="46.19844" lon="8.12735">
        <ele>945.59</ele>
        <time>2012-08-05T08:28:11Z</time>
      </trkpt>
      <trkpt lat="46.19852" lon="8.12747">
        <ele>946.07</ele>
        <time>2012-08-05T08:28:12Z</time>
      </trkpt>
      <trkpt lat="46.19873" lon="8.12778">
        <ele>947.04</ele>
        <time>2012-08-05T08:28:15Z</time>
      </trkpt>
      <trkpt lat="46.1988" lon="8.12783">
        <ele>947.04</ele>
        <time>2012-08-05T08:28:16Z</time>
      </trkpt>
      <trkpt lat="46.19888" lon="8.12783">
        <ele>948</ele>
        <time>2012-08-05T08:28:17Z</time>
      </trkpt>
      <trkpt lat="46.19896" lon="8.1278">
        <ele>948.48</ele>
        <time>2012-08-05T08:28:18Z</time>
      </trkpt>
      <trkpt lat="46.19902" lon="8.12774">
        <ele>948.96</ele>
        <time>2012-08-05T08:28:19Z</time>
      </trkpt>
      <trkpt lat="46.19904" lon="8.12766">
        <ele>948.96</ele>
        <time>2012-08-05T08:28:20Z</time>
      </trkpt>
      <trkpt lat="46.19902" lon="8.12755">
        <ele>949.92</ele>
        <time>2012-08-05T08:28:21Z</time>
      </trkpt>
      <trkpt lat="46.19896" lon="8.12741">
        <ele>950.88</ele>
        <time>2012-08-05T08:28:22Z</time>
      </trkpt>
      <trkpt lat="46.19859" lon="8.12675">
        <ele>955.69</ele>
        <time>2012-08-05T08:28:27Z</time>
      </trkpt>
      <trkpt lat="46.19845" lon="8.12645">
        <ele>956.65</ele>
        <time>2012-08-05T08:28:29Z</time>
      </trkpt>
      <trkpt lat="46.19827" lon="8.12599">
        <ele>960.98</ele>
        <time>2012-08-05T08:28:32Z</time>
      </trkpt>
      <trkpt lat="46.19822" lon="8.12583">
        <ele>960.49</ele>
        <time>2012-08-05T08:28:33Z</time>
      </trkpt>
      <trkpt lat="46.19818" lon="8.12567">
        <ele>963.86</ele>
        <time>2012-08-05T08:28:34Z</time>
      </trkpt>
      <trkpt lat="46.19812" lon="8.12533">
        <ele>965.78</ele>
        <time>2012-08-05T08:28:36Z</time>
      </trkpt>
      <trkpt lat="46.19806" lon="8.12497">
        <ele>970.11</ele>
        <time>2012-08-05T08:28:38Z</time>
      </trkpt>
      <trkpt lat="46.19805" lon="8.12478">
        <ele>969.63</ele>
        <time>2012-08-05T08:28:39Z</time>
      </trkpt>
      <trkpt lat="46.19804" lon="8.12459">
        <ele>972.51</ele>
        <time>2012-08-05T08:28:40Z</time>
      </trkpt>
      <trkpt lat="46.19803" lon="8.1244">
        <ele>972.51</ele>
        <time>2012-08-05T08:28:41Z</time>
      </trkpt>
      <trkpt lat="46.19804" lon="8.12406">
        <ele>975.88</ele>
        <time>2012-08-05T08:28:43Z</time>
      </trkpt>
      <trkpt lat="46.19809" lon="8.12358">
        <ele>979.24</ele>
        <time>2012-08-05T08:28:46Z</time>
      </trkpt>
      <trkpt lat="46.19818" lon="8.12308">
        <ele>983.57</ele>
        <time>2012-08-05T08:28:49Z</time>
      </trkpt>
      <trkpt lat="46.19823" lon="8.12273">
        <ele>986.93</ele>
        <time>2012-08-05T08:28:51Z</time>
      </trkpt>
      <trkpt lat="46.19825" lon="8.12256">
        <ele>986.45</ele>
        <time>2012-08-05T08:28:52Z</time>
      </trkpt>
      <trkpt lat="46.19827" lon="8.12201">
        <ele>990.3</ele>
        <time>2012-08-05T08:28:55Z</time>
      </trkpt>
      <trkpt lat="46.19826" lon="8.1216">
        <ele>994.14</ele>
        <time>2012-08-05T08:28:57Z</time>
      </trkpt>
      <trkpt lat="46.19825" lon="8.1214">
        <ele>994.14</ele>
        <time>2012-08-05T08:28:58Z</time>
      </trkpt>
      <trkpt lat="46.19824" lon="8.12106">
        <ele>997.02</ele>
        <time>2012-08-05T08:29:00Z</time>
      </trkpt>
      <trkpt lat="46.19823" lon="8.12036">
        <ele>1000.39</ele>
        <time>2012-08-05T08:29:03Z</time>
      </trkpt>
      <trkpt lat="46.19824" lon="8.11975">
        <ele>1004.23</ele>
        <time>2012-08-05T08:29:06Z</time>
      </trkpt>
      <trkpt lat="46.19825" lon="8.11916">
        <ele>1008.56</ele>
        <time>2012-08-05T08:29:09Z</time>
      </trkpt>
      <trkpt lat="46.19821" lon="8.11873">
        <ele>1010.96</ele>
        <time>2012-08-05T08:29:11Z</time>
      </trkpt>
      <trkpt lat="46.19817" lon="8.11853">
        <ele>1011.44</ele>
        <time>2012-08-05T08:29:12Z</time>
      </trkpt>
      <trkpt lat="46.19811" lon="8.11835">
        <ele>1013.85</ele>
        <time>2012-08-05T08:29:13Z</time>
      </trkpt>
      <trkpt lat="46.19805" lon="8.11817">
        <ele>1014.81</ele>
        <time>2012-08-05T08:29:14Z</time>
      </trkpt>
      <trkpt lat="46.19797" lon="8.11801">
        <ele>1015.29</ele>
        <time>2012-08-05T08:29:15Z</time>
      </trkpt>
      <trkpt lat="46.1979" lon="8.11785">
        <ele>1015.77</ele>
        <time>2012-08-05T08:29:16Z</time>
      </trkpt>
      <trkpt lat="46.19775" lon="8.11754">
        <ele>1017.69</ele>
        <time>2012-08-05T08:29:18Z</time>
      </trkpt>
      <trkpt lat="46.1977" lon="8.11741">
        <ele>1019.62</ele>
        <time>2012-08-05T08:29:19Z</time>
      </trkpt>
      <trkpt lat="46.1976" lon="8.11719">
        <ele>1021.54</ele>
        <time>2012-08-05T08:29:21Z</time>
      </trkpt>
      <trkpt lat="46.19772" lon="8.1172">
        <ele>1022.98</ele>
        <time>2012-08-05T08:29:22Z</time>
      </trkpt>
      <trkpt lat="46.19771" lon="8.11719">
        <ele>1025.38</ele>
        <time>2012-08-05T08:29:24Z</time>
      </trkpt>
      <trkpt lat="46.19733" lon="8.11651">
        <ele>1027.31</ele>
        <time>2012-08-05T08:29:25Z</time>
      </trkpt>
      <trkpt lat="46.19744" lon="8.11611">
        <ele>1031.15</ele>
        <time>2012-08-05T08:29:29Z</time>
      </trkpt>
      <trkpt lat="46.19743" lon="8.11608">
        <ele>1035</ele>
        <time>2012-08-05T08:29:33Z</time>
      </trkpt>
      <trkpt lat="46.19743" lon="8.11605">
        <ele>1038.36</ele>
        <time>2012-08-05T08:29:36Z</time>
      </trkpt>
      <trkpt lat="46.19743" lon="8.11603">
        <ele>1041.73</ele>
        <time>2012-08-05T08:29:39Z</time>
      </trkpt>
      <trkpt lat="46.19742" lon="8.11601">
        <ele>1043.17</ele>
        <time>2012-08-05T08:29:41Z</time>
      </trkpt>
      <trkpt lat="46.19742" lon="8.11596">
        <ele>1048.94</ele>
        <time>2012-08-05T08:29:47Z</time>
      </trkpt>
      <trkpt lat="46.19742" lon="8.11597">
        <ele>1049.42</ele>
        <time>2012-08-05T08:29:48Z</time>
      </trkpt>
      <trkpt lat="46.1974" lon="8.11587">
        <ele>1052.78</ele>
        <time>2012-08-05T08:29:52Z</time>
      </trkpt>
      <trkpt lat="46.19739" lon="8.11583">
        <ele>1057.11</ele>
        <time>2012-08-05T08:29:57Z</time>
      </trkpt>
      <trkpt lat="46.19738" lon="8.11576">
        <ele>1056.63</ele>
        <time>2012-08-05T08:29:58Z</time>
      </trkpt>
      <trkpt lat="46.19738" lon="8.11575">
        <ele>1059.99</ele>
        <time>2012-08-05T08:30:01Z</time>
      </trkpt>
      <trkpt lat="46.19444" lon="8.11133">
        <ele>1059.51</ele>
        <time>2012-08-05T08:30:02Z</time>
      </trkpt>
      <trkpt lat="46.19413" lon="8.11078">
        <ele>1062.39</ele>
        <time>2012-08-05T08:30:06Z</time>
      </trkpt>
      <trkpt lat="46.19416" lon="8.11054">
        <ele>1065.28</ele>
        <time>2012-08-05T08:30:09Z</time>
      </trkpt>
      <trkpt lat="46.19415" lon="8.11049">
        <ele>1069.12</ele>
        <time>2012-08-05T08:30:13Z</time>
      </trkpt>
      <trkpt lat="46.19414" lon="8.11046">
        <ele>1069.12</ele>
        <time>2012-08-05T08:30:14Z</time>
      </trkpt>
      <trkpt lat="46.19407" lon="8.11022">
        <ele>1072.49</ele>
        <time>2012-08-05T08:30:18Z</time>
      </trkpt>
      <trkpt lat="46.19406" lon="8.11015">
        <ele>1077.78</ele>
        <time>2012-08-05T08:30:22Z</time>
      </trkpt>
      <trkpt lat="46.19298" lon="8.10724">
        <ele>1082.1</ele>
        <time>2012-08-05T08:30:27Z</time>
      </trkpt>
      <trkpt lat="46.19329" lon="8.10692">
        <ele>1084.99</ele>
        <time>2012-08-05T08:30:30Z</time>
      </trkpt>
      <trkpt lat="46.19328" lon="8.10686">
        <ele>1087.87</ele>
        <time>2012-08-05T08:30:34Z</time>
      </trkpt>
      <trkpt lat="46.19327" lon="8.10681">
        <ele>1092.68</ele>
        <time>2012-08-05T08:30:37Z</time>
      </trkpt>
      <trkpt lat="46.19327" lon="8.10679">
        <ele>1092.2</ele>
        <time>2012-08-05T08:30:38Z</time>
      </trkpt>
      <trkpt lat="46.19326" lon="8.10672">
        <ele>1095.56</ele>
        <time>2012-08-05T08:30:42Z</time>
      </trkpt>
      <trkpt lat="46.19325" lon="8.1067">
        <ele>1098.92</ele>
        <time>2012-08-05T08:30:45Z</time>
      </trkpt>
      <trkpt lat="46.19325" lon="8.10669">
        <ele>1102.29</ele>
        <time>2012-08-05T08:30:48Z</time>
      </trkpt>
      <trkpt lat="46.19325" lon="8.10668">
        <ele>1105.65</ele>
        <time>2012-08-05T08:30:51Z</time>
      </trkpt>
      <trkpt lat="46.19324" lon="8.10665">
        <ele>1108.54</ele>
        <time>2012-08-05T08:30:55Z</time>
      </trkpt>
      <trkpt lat="46.19324" lon="8.10661">
        <ele>1110.94</ele>
        <time>2012-08-05T08:30:56Z</time>
      </trkpt>
      <trkpt lat="46.19322" lon="8.10652">
        <ele>1111.42</ele>
        <time>2012-08-05T08:30:57Z</time>
      </trkpt>
      <trkpt lat="46.19322" lon="8.10652">
        <ele>1112.38</ele>
        <time>2012-08-05T08:30:58Z</time>
      </trkpt>
      <trkpt lat="46.1932" lon="8.1064">
        <ele>1107.58</ele>
        <time>2012-08-05T08:30:59Z</time>
      </trkpt>
      <trkpt lat="46.19321" lon="8.10648">
        <ele>1117.19</ele>
        <time>2012-08-05T08:31:00Z</time>
      </trkpt>
      <trkpt lat="46.1932" lon="8.10643">
        <ele>1118.15</ele>
        <time>2012-08-05T08:31:05Z</time>
      </trkpt>
      <trkpt lat="46.1932" lon="8.10642">
        <ele>1121.03</ele>
        <time>2012-08-05T08:31:07Z</time>
      </trkpt>
      <trkpt lat="46.19318" lon="8.10628">
        <ele>1124.4</ele>
        <time>2012-08-05T08:31:11Z</time>
      </trkpt>
      <trkpt lat="46.19316" lon="8.10617">
        <ele>1125.84</ele>
        <time>2012-08-05T08:31:12Z</time>
      </trkpt>
      <trkpt lat="46.19316" lon="8.10618">
        <ele>1128.73</ele>
        <time>2012-08-05T08:31:15Z</time>
      </trkpt>
      <trkpt lat="46.19318" lon="8.10631">
        <ele>1132.09</ele>
        <time>2012-08-05T08:31:19Z</time>
      </trkpt>
      <trkpt lat="46.1887" lon="8.09757">
        <ele>1132.09</ele>
        <time>2012-08-05T08:31:20Z</time>
      </trkpt>
      <trkpt lat="46.18842" lon="8.09749">
        <ele>1135.45</ele>
        <time>2012-08-05T08:31:25Z</time>
      </trkpt>
      <trkpt lat="46.18842" lon="8.0975">
        <ele>1135.94</ele>
        <time>2012-08-05T08:31:26Z</time>
      </trkpt>
      <trkpt lat="46.18838" lon="8.09737">
        <ele>1139.3</ele>
        <time>2012-08-05T08:31:32Z</time>
      </trkpt>
      <trkpt lat="46.18837" lon="8.09734">
        <ele>1140.26</ele>
        <time>2012-08-05T08:31:34Z</time>
      </trkpt>
      <trkpt lat="46.18717" lon="8.09426">
        <ele>1142.66</ele>
        <time>2012-08-05T08:31:41Z</time>
      </trkpt>
      <trkpt lat="46.18705" lon="8.09417">
        <ele>1143.63</ele>
        <time>2012-08-05T08:31:42Z</time>
      </trkpt>
      <trkpt lat="46.18697" lon="8.09405">
        <ele>1143.63</ele>
        <time>2012-08-05T08:31:43Z</time>
      </trkpt>
      <trkpt lat="46.18691" lon="8.0939">
        <ele>1143.14</ele>
        <time>2012-08-05T08:31:44Z</time>
      </trkpt>
      <trkpt lat="46.18686" lon="8.09373">
        <ele>1145.07</ele>
        <time>2012-08-05T08:31:45Z</time>
      </trkpt>
      <trkpt lat="46.18663" lon="8.0929">
        <ele>1147.95</ele>
        <time>2012-08-05T08:31:49Z</time>
      </trkpt>
      <trkpt lat="46.18622" lon="8.09181">
        <ele>1151.8</ele>
        <time>2012-08-05T08:31:54Z</time>
      </trkpt>
      <trkpt lat="46.18606" lon="8.09134">
        <ele>1153.72</ele>
        <time>2012-08-05T08:31:56Z</time>
      </trkpt>
      <trkpt lat="46.186" lon="8.09109">
        <ele>1154.2</ele>
        <time>2012-08-05T08:31:57Z</time>
      </trkpt>
      <trkpt lat="46.18596" lon="8.09083">
        <ele>1154.68</ele>
        <time>2012-08-05T08:31:58Z</time>
      </trkpt>
      <trkpt lat="46.1858" lon="8.08976">
        <ele>1156.6</ele>
        <time>2012-08-05T08:32:02Z</time>
      </trkpt>
      <trkpt lat="46.18575" lon="8.08917">
        <ele>1157.56</ele>
        <time>2012-08-05T08:32:06Z</time>
      </trkpt>
      <trkpt lat="46.18573" lon="8.08904">
        <ele>1161.41</ele>
        <time>2012-08-05T08:32:10Z</time>
      </trkpt>
      <trkpt lat="46.18571" lon="8.08893">
        <ele>1164.77</ele>
        <time>2012-08-05T08:32:14Z</time>
      </trkpt>
      <trkpt lat="46.1857" lon="8.08889">
        <ele>1168.14</ele>
        <time>2012-08-05T08:32:17Z</time>
      </trkpt>
      <trkpt lat="46.18568" lon="8.08875">
        <ele>1171.5</ele>
        <time>2012-08-05T08:32:20Z</time>
      </trkpt>
      <trkpt lat="46.18571" lon="8.08487">
        <ele>1173.43</ele>
        <time>2012-08-05T08:32:22Z</time>
      </trkpt>
      <trkpt lat="46.18578" lon="8.08463">
        <ele>1173.43</ele>
        <time>2012-08-05T08:32:23Z</time>
      </trkpt>
      <trkpt lat="46.18589" lon="8.08404">
        <ele>1176.79</ele>
        <time>2012-08-05T08:32:25Z</time>
      </trkpt>
      <trkpt lat="46.1859" lon="8.0839">
        <ele>1177.27</ele>
        <time>2012-08-05T08:32:26Z</time>
      </trkpt>
      <trkpt lat="46.18591" lon="8.08356">
        <ele>1179.19</ele>
        <time>2012-08-05T08:32:27Z</time>
      </trkpt>
      <trkpt lat="46.18591" lon="8.08329">
        <ele>1179.19</ele>
        <time>2012-08-05T08:32:28Z</time>
      </trkpt>
      <trkpt lat="46.18583" lon="8.08249">
        <ele>1182.56</ele>
        <time>2012-08-05T08:32:31Z</time>
      </trkpt>
      <trkpt lat="46.1857" lon="8.08153">
        <ele>1184</ele>
        <time>2012-08-05T08:32:35Z</time>
      </trkpt>
      <trkpt lat="46.1857" lon="8.0813">
        <ele>1184</ele>
        <time>2012-08-05T08:32:36Z</time>
      </trkpt>
      <trkpt lat="46.18572" lon="8.08108">
        <ele>1184.96</ele>
        <time>2012-08-05T08:32:37Z</time>
      </trkpt>
      <trkpt lat="46.18576" lon="8.08085">
        <ele>1185.44</ele>
        <time>2012-08-05T08:32:38Z</time>
      </trkpt>
      <trkpt lat="46.18581" lon="8.08063">
        <ele>1186.4</ele>
        <time>2012-08-05T08:32:39Z</time>
      </trkpt>
      <trkpt lat="46.18587" lon="8.08041">
        <ele>1186.88</ele>
        <time>2012-08-05T08:32:40Z</time>
      </trkpt>
      <trkpt lat="46.18596" lon="8.07997">
        <ele>1189.29</ele>
        <time>2012-08-05T08:32:42Z</time>
      </trkpt>
      <trkpt lat="46.18598" lon="8.07974">
        <ele>1190.73</ele>
        <time>2012-08-05T08:32:43Z</time>
      </trkpt>
      <trkpt lat="46.18598" lon="8.07952">
        <ele>1192.17</ele>
        <time>2012-08-05T08:32:44Z</time>
      </trkpt>
      <trkpt lat="46.18596" lon="8.0793">
        <ele>1192.17</ele>
        <time>2012-08-05T08:32:45Z</time>
      </trkpt>
      <trkpt lat="46.18592" lon="8.07909">
        <ele>1192.17</ele>
        <time>2012-08-05T08:32:46Z</time>
      </trkpt>
      <trkpt lat="46.18585" lon="8.07889">
        <ele>1192.65</ele>
        <time>2012-08-05T08:32:47Z</time>
      </trkpt>
      <trkpt lat="46.18578" lon="8.07868">
        <ele>1193.61</ele>
        <time>2012-08-05T08:32:48Z</time>
      </trkpt>
      <trkpt lat="46.18538" lon="8.07741">
        <ele>1196.98</ele>
        <time>2012-08-05T08:32:54Z</time>
      </trkpt>
      <trkpt lat="46.18532" lon="8.0772">
        <ele>1200.34</ele>
        <time>2012-08-05T08:32:55Z</time>
      </trkpt>
      <trkpt lat="46.18526" lon="8.077">
        <ele>1200.34</ele>
        <time>2012-08-05T08:32:56Z</time>
      </trkpt>
      <trkpt lat="46.18525" lon="8.077">
        <ele>1202.27</ele>
        <time>2012-08-05T08:32:58Z</time>
      </trkpt>
      <trkpt lat="46.18509" lon="8.07632">
        <ele>1205.63</ele>
        <time>2012-08-05T08:32:59Z</time>
      </trkpt>
      <trkpt lat="46.18507" lon="8.07611">
        <ele>1206.11</ele>
        <time>2012-08-05T08:33:00Z</time>
      </trkpt>
      <trkpt lat="46.18474" lon="8.07462">
        <ele>1209.48</ele>
        <time>2012-08-05T08:33:07Z</time>
      </trkpt>
      <trkpt lat="46.1847" lon="8.07445">
        <ele>1209.96</ele>
        <time>2012-08-05T08:33:08Z</time>
      </trkpt>
      <trkpt lat="46.18463" lon="8.07399">
        <ele>1210.92</ele>
        <time>2012-08-05T08:33:11Z</time>
      </trkpt>
      <trkpt lat="46.18463" lon="8.07384">
        <ele>1210.92</ele>
        <time>2012-08-05T08:33:12Z</time>
      </trkpt>
      <trkpt lat="46.18466" lon="8.0737">
        <ele>1211.88</ele>
        <time>2012-08-05T08:33:13Z</time>
      </trkpt>
      <trkpt lat="46.1847" lon="8.07356">
        <ele>1212.84</ele>
        <time>2012-08-05T08:33:14Z</time>
      </trkpt>
      <trkpt lat="46.18476" lon="8.07344">
        <ele>1213.8</ele>
        <time>2012-08-05T08:33:15Z</time>
      </trkpt>
      <trkpt lat="46.18482" lon="8.07332">
        <ele>1214.28</ele>
        <time>2012-08-05T08:33:16Z</time>
      </trkpt>
      <trkpt lat="46.18487" lon="8.07321">
        <ele>1215.24</ele>
        <time>2012-08-05T08:33:17Z</time>
      </trkpt>
      <trkpt lat="46.1849" lon="8.07309">
        <ele>1215.72</ele>
        <time>2012-08-05T08:33:18Z</time>
      </trkpt>
      <trkpt lat="46.18492" lon="8.07296">
        <ele>1216.21</ele>
        <time>2012-08-05T08:33:19Z</time>
      </trkpt>
      <trkpt lat="46.1849" lon="8.07284">
        <ele>1216.69</ele>
        <time>2012-08-05T08:33:20Z</time>
      </trkpt>
      <trkpt lat="46.18486" lon="8.07272">
        <ele>1216.21</ele>
        <time>2012-08-05T08:33:21Z</time>
      </trkpt>
      <trkpt lat="46.1848" lon="8.07262">
        <ele>1217.65</ele>
        <time>2012-08-05T08:33:22Z</time>
      </trkpt>
      <trkpt lat="46.18471" lon="8.07255">
        <ele>1217.65</ele>
        <time>2012-08-05T08:33:23Z</time>
      </trkpt>
      <trkpt lat="46.18461" lon="8.07252">
        <ele>1217.17</ele>
        <time>2012-08-05T08:33:24Z</time>
      </trkpt>
      <trkpt lat="46.1845" lon="8.07251">
        <ele>1217.65</ele>
        <time>2012-08-05T08:33:25Z</time>
      </trkpt>
      <trkpt lat="46.18438" lon="8.07254">
        <ele>1217.65</ele>
        <time>2012-08-05T08:33:26Z</time>
      </trkpt>
      <trkpt lat="46.18426" lon="8.07257">
        <ele>1219.09</ele>
        <time>2012-08-05T08:33:27Z</time>
      </trkpt>
      <trkpt lat="46.18389" lon="8.07268">
        <ele>1221.49</ele>
        <time>2012-08-05T08:33:30Z</time>
      </trkpt>
      <trkpt lat="46.18377" lon="8.07273">
        <ele>1222.93</ele>
        <time>2012-08-05T08:33:31Z</time>
      </trkpt>
      <trkpt lat="46.18335" lon="8.07296">
        <ele>1225.82</ele>
        <time>2012-08-05T08:33:35Z</time>
      </trkpt>
      <trkpt lat="46.18324" lon="8.07299">
        <ele>1225.82</ele>
        <time>2012-08-05T08:33:36Z</time>
      </trkpt>
      <trkpt lat="46.18313" lon="8.073">
        <ele>1227.26</ele>
        <time>2012-08-05T08:33:37Z</time>
      </trkpt>
      <trkpt lat="46.18302" lon="8.07298">
        <ele>1227.74</ele>
        <time>2012-08-05T08:33:38Z</time>
      </trkpt>
      <trkpt lat="46.18292" lon="8.07294">
        <ele>1230.14</ele>
        <time>2012-08-05T08:33:39Z</time>
      </trkpt>
      <trkpt lat="46.18281" lon="8.07287">
        <ele>1229.66</ele>
        <time>2012-08-05T08:33:40Z</time>
      </trkpt>
      <trkpt lat="46.18271" lon="8.07279">
        <ele>1230.62</ele>
        <time>2012-08-05T08:33:41Z</time>
      </trkpt>
      <trkpt lat="46.18236" lon="8.07252">
        <ele>1233.51</ele>
        <time>2012-08-05T08:33:45Z</time>
      </trkpt>
      <trkpt lat="46.18227" lon="8.07248">
        <ele>1233.99</ele>
        <time>2012-08-05T08:33:46Z</time>
      </trkpt>
      <trkpt lat="46.18217" lon="8.07246">
        <ele>1234.47</ele>
        <time>2012-08-05T08:33:47Z</time>
      </trkpt>
      <trkpt lat="46.18208" lon="8.07245">
        <ele>1235.43</ele>
        <time>2012-08-05T08:33:48Z</time>
      </trkpt>
      <trkpt lat="46.18199" lon="8.07247">
        <ele>1236.39</ele>
        <time>2012-08-05T08:33:49Z</time>
      </trkpt>
      <trkpt lat="46.18189" lon="8.07249">
        <ele>1237.35</ele>
        <time>2012-08-05T08:33:50Z</time>
      </trkpt>
      <trkpt lat="46.18178" lon="8.07253">
        <ele>1237.35</ele>
        <time>2012-08-05T08:33:51Z</time>
      </trkpt>
      <trkpt lat="46.18134" lon="8.07271">
        <ele>1241.2</ele>
        <time>2012-08-05T08:33:55Z</time>
      </trkpt>
      <trkpt lat="46.18111" lon="8.07276">
        <ele>1242.64</ele>
        <time>2012-08-05T08:33:57Z</time>
      </trkpt>
      <trkpt lat="46.18099" lon="8.07276">
        <ele>1243.6</ele>
        <time>2012-08-05T08:33:58Z</time>
      </trkpt>
      <trkpt lat="46.18074" lon="8.07273">
        <ele>1246.49</ele>
        <time>2012-08-05T08:34:00Z</time>
      </trkpt>
      <trkpt lat="46.18062" lon="8.0727">
        <ele>1243.12</ele>
        <time>2012-08-05T08:34:01Z</time>
      </trkpt>
      <trkpt lat="46.18049" lon="8.07267">
        <ele>1247.93</ele>
        <time>2012-08-05T08:34:02Z</time>
      </trkpt>
      <trkpt lat="46.18022" lon="8.07261">
        <ele>1249.85</ele>
        <time>2012-08-05T08:34:04Z</time>
      </trkpt>
      <trkpt lat="46.18008" lon="8.07258">
        <ele>1252.74</ele>
        <time>2012-08-05T08:34:05Z</time>
      </trkpt>
      <trkpt lat="46.17994" lon="8.07255">
        <ele>1255.62</ele>
        <time>2012-08-05T08:34:06Z</time>
      </trkpt>
      <trkpt lat="46.17979" lon="8.07251">
        <ele>1254.66</ele>
        <time>2012-08-05T08:34:07Z</time>
      </trkpt>
      <trkpt lat="46.17939" lon="8.0724">
        <ele>1258.5</ele>
        <time>2012-08-05T08:34:10Z</time>
      </trkpt>
      <trkpt lat="46.1792" lon="8.07236">
        <ele>1252.74</ele>
        <time>2012-08-05T08:34:11Z</time>
      </trkpt>
      <trkpt lat="46.17906" lon="8.07232">
        <ele>1259.94</ele>
        <time>2012-08-05T08:34:12Z</time>
      </trkpt>
      <trkpt lat="46.17905" lon="8.07246">
        <ele>1259.46</ele>
        <time>2012-08-05T08:34:13Z</time>
      </trkpt>
      <trkpt lat="46.17846" lon="8.07242">
        <ele>1263.79</ele>
        <time>2012-08-05T08:34:16Z</time>
      </trkpt>
      <trkpt lat="46.178" lon="8.07244">
        <ele>1266.67</ele>
        <time>2012-08-05T08:34:19Z</time>
      </trkpt>
      <trkpt lat="46.17755" lon="8.07239">
        <ele>1270.52</ele>
        <time>2012-08-05T08:34:22Z</time>
      </trkpt>
      <trkpt lat="46.17739" lon="8.07237">
        <ele>1270.04</ele>
        <time>2012-08-05T08:34:23Z</time>
      </trkpt>
      <trkpt lat="46.17707" lon="8.07235">
        <ele>1272.92</ele>
        <time>2012-08-05T08:34:25Z</time>
      </trkpt>
      <trkpt lat="46.17668" lon="8.07229">
        <ele>1272.44</ele>
        <time>2012-08-05T08:34:28Z</time>
      </trkpt>
      <trkpt lat="46.17659" lon="8.07225">
        <ele>1272.44</ele>
        <time>2012-08-05T08:34:29Z</time>
      </trkpt>
      <trkpt lat="46.1765" lon="8.07219">
        <ele>1272.92</ele>
        <time>2012-08-05T08:34:30Z</time>
      </trkpt>
      <trkpt lat="46.17642" lon="8.07211">
        <ele>1272.92</ele>
        <time>2012-08-05T08:34:31Z</time>
      </trkpt>
      <trkpt lat="46.17635" lon="8.072">
        <ele>1272.92</ele>
        <time>2012-08-05T08:34:32Z</time>
      </trkpt>
      <trkpt lat="46.1763" lon="8.07187">
        <ele>1273.88</ele>
        <time>2012-08-05T08:34:33Z</time>
      </trkpt>
      <trkpt lat="46.17628" lon="8.07172">
        <ele>1274.36</ele>
        <time>2012-08-05T08:34:34Z</time>
      </trkpt>
      <trkpt lat="46.17628" lon="8.07157">
        <ele>1274.36</ele>
        <time>2012-08-05T08:34:35Z</time>
      </trkpt>
      <trkpt lat="46.1763" lon="8.07142">
        <ele>1274.85</ele>
        <time>2012-08-05T08:34:36Z</time>
      </trkpt>
      <trkpt lat="46.17633" lon="8.07131">
        <ele>1275.33</ele>
        <time>2012-08-05T08:34:39Z</time>
      </trkpt>
      <trkpt lat="46.17634" lon="8.07129">
        <ele>1278.21</ele>
        <time>2012-08-05T08:34:44Z</time>
      </trkpt>
      <trkpt lat="46.17642" lon="8.07118">
        <ele>1275.33</ele>
        <time>2012-08-05T08:34:48Z</time>
      </trkpt>
      <trkpt lat="46.17643" lon="8.07118">
        <ele>1282.54</ele>
        <time>2012-08-05T08:34:49Z</time>
      </trkpt>
      <trkpt lat="46.17643" lon="8.07117">
        <ele>1286.86</ele>
        <time>2012-08-05T08:34:53Z</time>
      </trkpt>
      <trkpt lat="46.17865" lon="8.07189">
        <ele>1292.15</ele>
        <time>2012-08-05T08:34:56Z</time>
      </trkpt>
      <trkpt lat="46.17881" lon="8.0719">
        <ele>1295.99</ele>
        <time>2012-08-05T08:34:57Z</time>
      </trkpt>
      <trkpt lat="46.17895" lon="8.0719">
        <ele>1294.55</ele>
        <time>2012-08-05T08:34:58Z</time>
      </trkpt>
      <trkpt lat="46.1791" lon="8.07188">
        <ele>1296.48</ele>
        <time>2012-08-05T08:34:59Z</time>
      </trkpt>
      <trkpt lat="46.17924" lon="8.07184">
        <ele>1296.96</ele>
        <time>2012-08-05T08:35:00Z</time>
      </trkpt>
      <trkpt lat="46.17938" lon="8.07178">
        <ele>1296.96</ele>
        <time>2012-08-05T08:35:01Z</time>
      </trkpt>
      <trkpt lat="46.17981" lon="8.07155">
        <ele>1301.28</ele>
        <time>2012-08-05T08:35:04Z</time>
      </trkpt>
      <trkpt lat="46.17994" lon="8.07146">
        <ele>1301.28</ele>
        <time>2012-08-05T08:35:05Z</time>
      </trkpt>
      <trkpt lat="46.18008" lon="8.07137">
        <ele>1304.17</ele>
        <time>2012-08-05T08:35:06Z</time>
      </trkpt>
      <trkpt lat="46.18036" lon="8.07119">
        <ele>1308.01</ele>
        <time>2012-08-05T08:35:08Z</time>
      </trkpt>
      <trkpt lat="46.1805" lon="8.07109">
        <ele>1308.01</ele>
        <time>2012-08-05T08:35:09Z</time>
      </trkpt>
      <trkpt lat="46.18089" lon="8.07084">
        <ele>1311.38</ele>
        <time>2012-08-05T08:35:12Z</time>
      </trkpt>
      <trkpt lat="46.18103" lon="8.07078">
        <ele>1311.38</ele>
        <time>2012-08-05T08:35:13Z</time>
      </trkpt>
      <trkpt lat="46.18131" lon="8.07066">
        <ele>1312.82</ele>
        <time>2012-08-05T08:35:15Z</time>
      </trkpt>
      <trkpt lat="46.18138" lon="8.07064">
        <ele>1317.62</ele>
        <time>2012-08-05T08:35:16Z</time>
      </trkpt>
      <trkpt lat="46.18179" lon="8.07054">
        <ele>1320.99</ele>
        <time>2012-08-05T08:35:19Z</time>
      </trkpt>
      <trkpt lat="46.18203" lon="8.07045">
        <ele>1323.39</ele>
        <time>2012-08-05T08:35:21Z</time>
      </trkpt>
      <trkpt lat="46.18216" lon="8.0704">
        <ele>1325.31</ele>
        <time>2012-08-05T08:35:22Z</time>
      </trkpt>
      <trkpt lat="46.18287" lon="8.07015">
        <ele>1329.64</ele>
        <time>2012-08-05T08:35:26Z</time>
      </trkpt>
      <trkpt lat="46.18319" lon="8.06999">
        <ele>1326.28</ele>
        <time>2012-08-05T08:35:28Z</time>
      </trkpt>
      <trkpt lat="46.18335" lon="8.06991">
        <ele>1334.45</ele>
        <time>2012-08-05T08:35:29Z</time>
      </trkpt>
      <trkpt lat="46.18383" lon="8.06967">
        <ele>1338.77</ele>
        <time>2012-08-05T08:35:32Z</time>
      </trkpt>
      <trkpt lat="46.18429" lon="8.06946">
        <ele>1342.62</ele>
        <time>2012-08-05T08:35:35Z</time>
      </trkpt>
      <trkpt lat="46.18443" lon="8.06937">
        <ele>1343.58</ele>
        <time>2012-08-05T08:35:36Z</time>
      </trkpt>
      <trkpt lat="46.18456" lon="8.06924">
        <ele>1344.54</ele>
        <time>2012-08-05T08:35:37Z</time>
      </trkpt>
      <trkpt lat="46.18468" lon="8.06908">
        <ele>1346.46</ele>
        <time>2012-08-05T08:35:38Z</time>
      </trkpt>
      <trkpt lat="46.18503" lon="8.0686">
        <ele>1349.83</ele>
        <time>2012-08-05T08:35:41Z</time>
      </trkpt>
      <trkpt lat="46.18532" lon="8.06821">
        <ele>1353.67</ele>
        <time>2012-08-05T08:35:43Z</time>
      </trkpt>
      <trkpt lat="46.18549" lon="8.06799">
        <ele>1355.12</ele>
        <time>2012-08-05T08:35:45Z</time>
      </trkpt>
      <trkpt lat="46.18548" lon="8.06818">
        <ele>1358.48</ele>
        <time>2012-08-05T08:35:47Z</time>
      </trkpt>
      <trkpt lat="46.18554" lon="8.06812">
        <ele>1358</ele>
        <time>2012-08-05T08:35:48Z</time>
      </trkpt>
      <trkpt lat="46.18554" lon="8.06812">
        <ele>1360.4</ele>
        <time>2012-08-05T08:35:50Z</time>
      </trkpt>
      <trkpt lat="46.18548" lon="8.06819">
        <ele>1364.25</ele>
        <time>2012-08-05T08:35:52Z</time>
      </trkpt>
      <trkpt lat="46.18554" lon="8.06812">
        <ele>1364.25</ele>
        <time>2012-08-05T08:35:53Z</time>
      </trkpt>
      <trkpt lat="46.18559" lon="8.06806">
        <ele>1366.17</ele>
        <time>2012-08-05T08:35:55Z</time>
      </trkpt>
      <trkpt lat="46.18559" lon="8.06806">
        <ele>1368.57</ele>
        <time>2012-08-05T08:35:57Z</time>
      </trkpt>
      <trkpt lat="46.1855" lon="8.06817">
        <ele>1372.42</ele>
        <time>2012-08-05T08:35:59Z</time>
      </trkpt>
      <trkpt lat="46.18564" lon="8.06805">
        <ele>1374.82</ele>
        <time>2012-08-05T08:36:01Z</time>
      </trkpt>
      <trkpt lat="46.18563" lon="8.06805">
        <ele>1376.75</ele>
        <time>2012-08-05T08:36:04Z</time>
      </trkpt>
      <trkpt lat="46.18565" lon="8.06804">
        <ele>1380.11</ele>
        <time>2012-08-05T08:36:07Z</time>
      </trkpt>
      <trkpt lat="46.18571" lon="8.06799">
        <ele>1382.51</ele>
        <time>2012-08-05T08:36:09Z</time>
      </trkpt>
      <trkpt lat="46.1893" lon="8.06539">
        <ele>1383.96</ele>
        <time>2012-08-05T08:36:10Z</time>
      </trkpt>
      <trkpt lat="46.18993" lon="8.06522">
        <ele>1387.32</ele>
        <time>2012-08-05T08:36:14Z</time>
      </trkpt>
      <trkpt lat="46.19038" lon="8.06514">
        <ele>1391.17</ele>
        <time>2012-08-05T08:36:17Z</time>
      </trkpt>
      <trkpt lat="46.19087" lon="8.06504">
        <ele>1394.53</ele>
        <time>2012-08-05T08:36:20Z</time>
      </trkpt>
      <trkpt lat="46.19156" lon="8.0649">
        <ele>1398.86</ele>
        <time>2012-08-05T08:36:24Z</time>
      </trkpt>
      <trkpt lat="46.19193" lon="8.06481">
        <ele>1402.22</ele>
        <time>2012-08-05T08:36:26Z</time>
      </trkpt>
      <trkpt lat="46.19252" lon="8.06462">
        <ele>1406.07</ele>
        <time>2012-08-05T08:36:29Z</time>
      </trkpt>
      <trkpt lat="46.19313" lon="8.06429">
        <ele>1410.39</ele>
        <time>2012-08-05T08:36:32Z</time>
      </trkpt>
      <trkpt lat="46.19375" lon="8.06383">
        <ele>1414.72</ele>
        <time>2012-08-05T08:36:35Z</time>
      </trkpt>
      <trkpt lat="46.19416" lon="8.06347">
        <ele>1418.08</ele>
        <time>2012-08-05T08:36:37Z</time>
      </trkpt>
      <trkpt lat="46.19454" lon="8.06307">
        <ele>1420</ele>
        <time>2012-08-05T08:36:39Z</time>
      </trkpt>
      <trkpt lat="46.19491" lon="8.06264">
        <ele>1424.81</ele>
        <time>2012-08-05T08:36:41Z</time>
      </trkpt>
      <trkpt lat="46.19544" lon="8.062">
        <ele>1429.62</ele>
        <time>2012-08-05T08:36:44Z</time>
      </trkpt>
      <trkpt lat="46.19596" lon="8.06139">
        <ele>1434.91</ele>
        <time>2012-08-05T08:36:47Z</time>
      </trkpt>
      <trkpt lat="46.19632" lon="8.06101">
        <ele>1439.71</ele>
        <time>2012-08-05T08:36:49Z</time>
      </trkpt>
      <trkpt lat="46.19669" lon="8.06064">
        <ele>1444.52</ele>
        <time>2012-08-05T08:36:51Z</time>
      </trkpt>
      <trkpt lat="46.19687" lon="8.06047">
        <ele>1445</ele>
        <time>2012-08-05T08:36:52Z</time>
      </trkpt>
      <trkpt lat="46.19724" lon="8.06014">
        <ele>1449.32</ele>
        <time>2012-08-05T08:36:54Z</time>
      </trkpt>
      <trkpt lat="46.1978" lon="8.05968">
        <ele>1453.17</ele>
        <time>2012-08-05T08:36:57Z</time>
      </trkpt>
      <trkpt lat="46.19834" lon="8.05924">
        <ele>1456.05</ele>
        <time>2012-08-05T08:37:00Z</time>
      </trkpt>
      <trkpt lat="46.19869" lon="8.05894">
        <ele>1461.34</ele>
        <time>2012-08-05T08:37:02Z</time>
      </trkpt>
      <trkpt lat="46.19919" lon="8.05843">
        <ele>1464.71</ele>
        <time>2012-08-05T08:37:05Z</time>
      </trkpt>
      <trkpt lat="46.19964" lon="8.05781">
        <ele>1468.07</ele>
        <time>2012-08-05T08:37:08Z</time>
      </trkpt>
      <trkpt lat="46.20001" lon="8.05708">
        <ele>1472.4</ele>
        <time>2012-08-05T08:37:11Z</time>
      </trkpt>
      <trkpt lat="46.20021" lon="8.05655">
        <ele>1476.24</ele>
        <time>2012-08-05T08:37:13Z</time>
      </trkpt>
      <trkpt lat="46.20036" lon="8.05599">
        <ele>1479.61</ele>
        <time>2012-08-05T08:37:15Z</time>
      </trkpt>
      <trkpt lat="46.20051" lon="8.05542">
        <ele>1483.45</ele>
        <time>2012-08-05T08:37:17Z</time>
      </trkpt>
      <trkpt lat="46.20065" lon="8.05485">
        <ele>1486.34</ele>
        <time>2012-08-05T08:37:19Z</time>
      </trkpt>
      <trkpt lat="46.20079" lon="8.05429">
        <ele>1490.66</ele>
        <time>2012-08-05T08:37:21Z</time>
      </trkpt>
      <trkpt lat="46.201" lon="8.05347">
        <ele>1494.51</ele>
        <time>2012-08-05T08:37:24Z</time>
      </trkpt>
      <trkpt lat="46.20122" lon="8.05274">
        <ele>1499.31</ele>
        <time>2012-08-05T08:37:27Z</time>
      </trkpt>
      <trkpt lat="46.20138" lon="8.05224">
        <ele>1502.68</ele>
        <time>2012-08-05T08:37:29Z</time>
      </trkpt>
      <trkpt lat="46.20163" lon="8.05152">
        <ele>1506.52</ele>
        <time>2012-08-05T08:37:32Z</time>
      </trkpt>
      <trkpt lat="46.20183" lon="8.05106">
        <ele>1509.89</ele>
        <time>2012-08-05T08:37:34Z</time>
      </trkpt>
      <trkpt lat="46.20205" lon="8.05061">
        <ele>1513.73</ele>
        <time>2012-08-05T08:37:36Z</time>
      </trkpt>
      <trkpt lat="46.20226" lon="8.05017">
        <ele>1517.1</ele>
        <time>2012-08-05T08:37:38Z</time>
      </trkpt>
      <trkpt lat="46.20257" lon="8.04953">
        <ele>1520.94</ele>
        <time>2012-08-05T08:37:41Z</time>
      </trkpt>
      <trkpt lat="46.20275" lon="8.04909">
        <ele>1524.31</ele>
        <time>2012-08-05T08:37:43Z</time>
      </trkpt>
      <trkpt lat="46.2029" lon="8.04862">
        <ele>1527.19</ele>
        <time>2012-08-05T08:37:45Z</time>
      </trkpt>
      <trkpt lat="46.20302" lon="8.04814">
        <ele>1530.56</ele>
        <time>2012-08-05T08:37:47Z</time>
      </trkpt>
      <trkpt lat="46.20313" lon="8.04737">
        <ele>1534.88</ele>
        <time>2012-08-05T08:37:50Z</time>
      </trkpt>
      <trkpt lat="46.20317" lon="8.04685">
        <ele>1535.84</ele>
        <time>2012-08-05T08:37:52Z</time>
      </trkpt>
      <trkpt lat="46.20319" lon="8.04659">
        <ele>1539.21</ele>
        <time>2012-08-05T08:37:53Z</time>
      </trkpt>
      <trkpt lat="46.20333" lon="8.04558">
        <ele>1546.42</ele>
        <time>2012-08-05T08:37:57Z</time>
      </trkpt>
      <trkpt lat="46.20346" lon="8.04511">
        <ele>1540.17</ele>
        <time>2012-08-05T08:37:59Z</time>
      </trkpt>
      <trkpt lat="46.20355" lon="8.04489">
        <ele>1544.98</ele>
        <time>2012-08-05T08:38:00Z</time>
      </trkpt>
      <trkpt lat="46.20365" lon="8.04468">
        <ele>1552.67</ele>
        <time>2012-08-05T08:38:01Z</time>
      </trkpt>
      <trkpt lat="46.20376" lon="8.04448">
        <ele>1554.59</ele>
        <time>2012-08-05T08:38:02Z</time>
      </trkpt>
      <trkpt lat="46.20388" lon="8.04429">
        <ele>1550.26</ele>
        <time>2012-08-05T08:38:03Z</time>
      </trkpt>
      <trkpt lat="46.20402" lon="8.04411">
        <ele>1557.47</ele>
        <time>2012-08-05T08:38:04Z</time>
      </trkpt>
      <trkpt lat="46.20416" lon="8.04395">
        <ele>1558.43</ele>
        <time>2012-08-05T08:38:05Z</time>
      </trkpt>
      <trkpt lat="46.20432" lon="8.04381">
        <ele>1565.16</ele>
        <time>2012-08-05T08:38:06Z</time>
      </trkpt>
      <trkpt lat="46.20449" lon="8.04368">
        <ele>1562.76</ele>
        <time>2012-08-05T08:38:07Z</time>
      </trkpt>
      <trkpt lat="46.20466" lon="8.04357">
        <ele>1563.24</ele>
        <time>2012-08-05T08:38:08Z</time>
      </trkpt>
      <trkpt lat="46.20503" lon="8.04337">
        <ele>1567.09</ele>
        <time>2012-08-05T08:38:10Z</time>
      </trkpt>
      <trkpt lat="46.20539" lon="8.04316">
        <ele>1570.93</ele>
        <time>2012-08-05T08:38:12Z</time>
      </trkpt>
      <trkpt lat="46.20573" lon="8.04289">
        <ele>1572.85</ele>
        <time>2012-08-05T08:38:14Z</time>
      </trkpt>
      <trkpt lat="46.20643" lon="8.04234">
        <ele>1576.7</ele>
        <time>2012-08-05T08:38:18Z</time>
      </trkpt>
      <trkpt lat="46.20777" lon="8.04185">
        <ele>1579.58</ele>
        <time>2012-08-05T08:38:25Z</time>
      </trkpt>
      <trkpt lat="46.2094" lon="8.04139">
        <ele>1584.39</ele>
        <time>2012-08-05T08:38:33Z</time>
      </trkpt>
      <trkpt lat="46.20961" lon="8.04129">
        <ele>1582.95</ele>
        <time>2012-08-05T08:38:34Z</time>
      </trkpt>
      <trkpt lat="46.21" lon="8.04107">
        <ele>1579.58</ele>
        <time>2012-08-05T08:38:36Z</time>
      </trkpt>
      <trkpt lat="46.2102" lon="8.04096">
        <ele>1587.27</ele>
        <time>2012-08-05T08:38:37Z</time>
      </trkpt>
      <trkpt lat="46.21109" lon="8.04035">
        <ele>1581.03</ele>
        <time>2012-08-05T08:38:42Z</time>
      </trkpt>
      <trkpt lat="46.21127" lon="8.04025">
        <ele>1589.68</ele>
        <time>2012-08-05T08:38:43Z</time>
      </trkpt>
      <trkpt lat="46.21144" lon="8.04017">
        <ele>1589.68</ele>
        <time>2012-08-05T08:38:44Z</time>
      </trkpt>
      <trkpt lat="46.2118" lon="8.04007">
        <ele>1585.83</ele>
        <time>2012-08-05T08:38:46Z</time>
      </trkpt>
      <trkpt lat="46.21198" lon="8.04005">
        <ele>1591.12</ele>
        <time>2012-08-05T08:38:47Z</time>
      </trkpt>
      <trkpt lat="46.21252" lon="8.04004">
        <ele>1595.45</ele>
        <time>2012-08-05T08:38:50Z</time>
      </trkpt>
      <trkpt lat="46.21307" lon="8.04006">
        <ele>1599.77</ele>
        <time>2012-08-05T08:38:53Z</time>
      </trkpt>
      <trkpt lat="46.21381" lon="8.04008">
        <ele>1602.66</ele>
        <time>2012-08-05T08:38:57Z</time>
      </trkpt>
      <trkpt lat="46.214" lon="8.04006">
        <ele>1604.58</ele>
        <time>2012-08-05T08:38:58Z</time>
      </trkpt>
      <trkpt lat="46.21418" lon="8.04001">
        <ele>1606.02</ele>
        <time>2012-08-05T08:38:59Z</time>
      </trkpt>
      <trkpt lat="46.21453" lon="8.03985">
        <ele>1609.38</ele>
        <time>2012-08-05T08:39:01Z</time>
      </trkpt>
      <trkpt lat="46.2147" lon="8.03974">
        <ele>1608.9</ele>
        <time>2012-08-05T08:39:02Z</time>
      </trkpt>
      <trkpt lat="46.21487" lon="8.03961">
        <ele>1612.75</ele>
        <time>2012-08-05T08:39:03Z</time>
      </trkpt>
      <trkpt lat="46.21502" lon="8.03946">
        <ele>1612.27</ele>
        <time>2012-08-05T08:39:04Z</time>
      </trkpt>
      <trkpt lat="46.21517" lon="8.0393">
        <ele>1615.63</ele>
        <time>2012-08-05T08:39:05Z</time>
      </trkpt>
      <trkpt lat="46.21531" lon="8.03911">
        <ele>1616.59</ele>
        <time>2012-08-05T08:39:06Z</time>
      </trkpt>
      <trkpt lat="46.21545" lon="8.03892">
        <ele>1619</ele>
        <time>2012-08-05T08:39:07Z</time>
      </trkpt>
      <trkpt lat="46.21572" lon="8.03851">
        <ele>1622.84</ele>
        <time>2012-08-05T08:39:09Z</time>
      </trkpt>
      <trkpt lat="46.21601" lon="8.03813">
        <ele>1627.17</ele>
        <time>2012-08-05T08:39:11Z</time>
      </trkpt>
      <trkpt lat="46.21616" lon="8.03796">
        <ele>1627.17</ele>
        <time>2012-08-05T08:39:12Z</time>
      </trkpt>
      <trkpt lat="46.21646" lon="8.03764">
        <ele>1631.01</ele>
        <time>2012-08-05T08:39:14Z</time>
      </trkpt>
      <trkpt lat="46.21683" lon="8.03728">
        <ele>1636.78</ele>
        <time>2012-08-05T08:39:16Z</time>
      </trkpt>
      <trkpt lat="46.21693" lon="8.03718">
        <ele>1637.74</ele>
        <time>2012-08-05T08:39:17Z</time>
      </trkpt>
      <trkpt lat="46.21706" lon="8.03706">
        <ele>1641.11</ele>
        <time>2012-08-05T08:39:18Z</time>
      </trkpt>
      <trkpt lat="46.21716" lon="8.03685">
        <ele>1641.59</ele>
        <time>2012-08-05T08:39:20Z</time>
      </trkpt>
      <trkpt lat="46.21721" lon="8.03679">
        <ele>1643.03</ele>
        <time>2012-08-05T08:39:21Z</time>
      </trkpt>
      <trkpt lat="46.21709" lon="8.03692">
        <ele>1646.4</ele>
        <time>2012-08-05T08:39:22Z</time>
      </trkpt>
      <trkpt lat="46.21716" lon="8.03685">
        <ele>1646.88</ele>
        <time>2012-08-05T08:39:23Z</time>
      </trkpt>
      <trkpt lat="46.21722" lon="8.03678">
        <ele>1648.32</ele>
        <time>2012-08-05T08:39:24Z</time>
      </trkpt>
      <trkpt lat="46.21716" lon="8.03685">
        <ele>1653.12</ele>
        <time>2012-08-05T08:39:25Z</time>
      </trkpt>
      <trkpt lat="46.21724" lon="8.03677">
        <ele>1654.09</ele>
        <time>2012-08-05T08:39:26Z</time>
      </trkpt>
      <trkpt lat="46.21723" lon="8.03678">
        <ele>1657.93</ele>
        <time>2012-08-05T08:39:29Z</time>
      </trkpt>
      <trkpt lat="46.21727" lon="8.03674">
        <ele>1658.89</ele>
        <time>2012-08-05T08:39:30Z</time>
      </trkpt>
      <trkpt lat="46.21727" lon="8.03674">
        <ele>1660.33</ele>
        <time>2012-08-05T08:39:31Z</time>
      </trkpt>
      <trkpt lat="46.21724" lon="8.03677">
        <ele>1663.7</ele>
        <time>2012-08-05T08:39:33Z</time>
      </trkpt>
      <trkpt lat="46.21729" lon="8.03671">
        <ele>1665.14</ele>
        <time>2012-08-05T08:39:34Z</time>
      </trkpt>
      <trkpt lat="46.2173" lon="8.03671">
        <ele>1666.58</ele>
        <time>2012-08-05T08:39:35Z</time>
      </trkpt>
      <trkpt lat="46.21731" lon="8.0367">
        <ele>1668.99</ele>
        <time>2012-08-05T08:39:36Z</time>
      </trkpt>
      <trkpt lat="46.21731" lon="8.03669">
        <ele>1670.43</ele>
        <time>2012-08-05T08:39:37Z</time>
      </trkpt>
      <trkpt lat="46.21732" lon="8.03669">
        <ele>1672.83</ele>
        <time>2012-08-05T08:39:38Z</time>
      </trkpt>
      <trkpt lat="46.21733" lon="8.03668">
        <ele>1675.23</ele>
        <time>2012-08-05T08:39:39Z</time>
      </trkpt>
      <trkpt lat="46.21734" lon="8.03667">
        <ele>1676.68</ele>
        <time>2012-08-05T08:39:40Z</time>
      </trkpt>
      <trkpt lat="46.21724" lon="8.03677">
        <ele>1680.04</ele>
        <time>2012-08-05T08:39:42Z</time>
      </trkpt>
      <trkpt lat="46.21735" lon="8.03665">
        <ele>1681.96</ele>
        <time>2012-08-05T08:39:44Z</time>
      </trkpt>
      <trkpt lat="46.21736" lon="8.03664">
        <ele>1684.85</ele>
        <time>2012-08-05T08:39:45Z</time>
      </trkpt>
      <trkpt lat="46.21737" lon="8.03663">
        <ele>1686.77</ele>
        <time>2012-08-05T08:39:46Z</time>
      </trkpt>
      <trkpt lat="46.22464" lon="8.02122">
        <ele>1760.31</ele>
        <time>2012-08-05T08:40:30Z</time>
      </trkpt>
      <trkpt lat="46.22466" lon="8.02094">
        <ele>1763.68</ele>
        <time>2012-08-05T08:40:31Z</time>
      </trkpt>
      <trkpt lat="46.22465" lon="8.02065">
        <ele>1765.12</ele>
        <time>2012-08-05T08:40:32Z</time>
      </trkpt>
      <trkpt lat="46.22462" lon="8.02037">
        <ele>1766.56</ele>
        <time>2012-08-05T08:40:33Z</time>
      </trkpt>
      <trkpt lat="46.22458" lon="8.02009">
        <ele>1768</ele>
        <time>2012-08-05T08:40:34Z</time>
      </trkpt>
      <trkpt lat="46.22451" lon="8.01981">
        <ele>1768.96</ele>
        <time>2012-08-05T08:40:35Z</time>
      </trkpt>
      <trkpt lat="46.22445" lon="8.01955">
        <ele>1770.41</ele>
        <time>2012-08-05T08:40:36Z</time>
      </trkpt>
      <trkpt lat="46.2243" lon="8.01882">
        <ele>1774.25</ele>
        <time>2012-08-05T08:40:39Z</time>
      </trkpt>
      <trkpt lat="46.22429" lon="8.01857">
        <ele>1775.69</ele>
        <time>2012-08-05T08:40:40Z</time>
      </trkpt>
      <trkpt lat="46.22431" lon="8.01832">
        <ele>1777.61</ele>
        <time>2012-08-05T08:40:41Z</time>
      </trkpt>
      <trkpt lat="46.22435" lon="8.01806">
        <ele>1778.58</ele>
        <time>2012-08-05T08:40:42Z</time>
      </trkpt>
      <trkpt lat="46.22441" lon="8.01781">
        <ele>1781.46</ele>
        <time>2012-08-05T08:40:43Z</time>
      </trkpt>
      <trkpt lat="46.2245" lon="8.01757">
        <ele>1783.38</ele>
        <time>2012-08-05T08:40:44Z</time>
      </trkpt>
      <trkpt lat="46.22461" lon="8.01735">
        <ele>1784.34</ele>
        <time>2012-08-05T08:40:45Z</time>
      </trkpt>
      <trkpt lat="46.22474" lon="8.01715">
        <ele>1786.27</ele>
        <time>2012-08-05T08:40:46Z</time>
      </trkpt>
      <trkpt lat="46.22488" lon="8.01694">
        <ele>1789.15</ele>
        <time>2012-08-05T08:40:47Z</time>
      </trkpt>
      <trkpt lat="46.22503" lon="8.01675">
        <ele>1788.67</ele>
        <time>2012-08-05T08:40:48Z</time>
      </trkpt>
      <trkpt lat="46.22531" lon="8.01637">
        <ele>1796.36</ele>
        <time>2012-08-05T08:40:50Z</time>
      </trkpt>
      <trkpt lat="46.22546" lon="8.01618">
        <ele>1796.84</ele>
        <time>2012-08-05T08:40:51Z</time>
      </trkpt>
      <trkpt lat="46.22589" lon="8.01562">
        <ele>1800.21</ele>
        <time>2012-08-05T08:40:54Z</time>
      </trkpt>
      <trkpt lat="46.22603" lon="8.01542">
        <ele>1804.05</ele>
        <time>2012-08-05T08:40:55Z</time>
      </trkpt>
      <trkpt lat="46.22617" lon="8.01524">
        <ele>1808.38</ele>
        <time>2012-08-05T08:40:56Z</time>
      </trkpt>
      <trkpt lat="46.22631" lon="8.01505">
        <ele>1806.94</ele>
        <time>2012-08-05T08:40:57Z</time>
      </trkpt>
      <trkpt lat="46.22672" lon="8.0145">
        <ele>1811.26</ele>
        <time>2012-08-05T08:41:00Z</time>
      </trkpt>
      <trkpt lat="46.22713" lon="8.01394">
        <ele>1815.59</ele>
        <time>2012-08-05T08:41:03Z</time>
      </trkpt>
      <trkpt lat="46.22756" lon="8.0134">
        <ele>1819.43</ele>
        <time>2012-08-05T08:41:06Z</time>
      </trkpt>
      <trkpt lat="46.22787" lon="8.01312">
        <ele>1821.84</ele>
        <time>2012-08-05T08:41:08Z</time>
      </trkpt>
      <trkpt lat="46.22805" lon="8.01302">
        <ele>1823.76</ele>
        <time>2012-08-05T08:41:09Z</time>
      </trkpt>
      <trkpt lat="46.22822" lon="8.01296">
        <ele>1824.72</ele>
        <time>2012-08-05T08:41:10Z</time>
      </trkpt>
      <trkpt lat="46.22841" lon="8.01294">
        <ele>1825.2</ele>
        <time>2012-08-05T08:41:11Z</time>
      </trkpt>
      <trkpt lat="46.22859" lon="8.01296">
        <ele>1827.6</ele>
        <time>2012-08-05T08:41:12Z</time>
      </trkpt>
      <trkpt lat="46.22878" lon="8.01303">
        <ele>1830.01</ele>
        <time>2012-08-05T08:41:13Z</time>
      </trkpt>
      <trkpt lat="46.22896" lon="8.01311">
        <ele>1831.45</ele>
        <time>2012-08-05T08:41:14Z</time>
      </trkpt>
      <trkpt lat="46.22914" lon="8.01321">
        <ele>1833.37</ele>
        <time>2012-08-05T08:41:15Z</time>
      </trkpt>
      <trkpt lat="46.22932" lon="8.01332">
        <ele>1835.77</ele>
        <time>2012-08-05T08:41:16Z</time>
      </trkpt>
      <trkpt lat="46.22987" lon="8.01366">
        <ele>1841.06</ele>
        <time>2012-08-05T08:41:19Z</time>
      </trkpt>
      <trkpt lat="46.23042" lon="8.01397">
        <ele>1845.39</ele>
        <time>2012-08-05T08:41:22Z</time>
      </trkpt>
      <trkpt lat="46.23081" lon="8.01411">
        <ele>1849.71</ele>
        <time>2012-08-05T08:41:24Z</time>
      </trkpt>
      <trkpt lat="46.23121" lon="8.01421">
        <ele>1853.08</ele>
        <time>2012-08-05T08:41:26Z</time>
      </trkpt>
      <trkpt lat="46.2318" lon="8.01431">
        <ele>1856.92</ele>
        <time>2012-08-05T08:41:29Z</time>
      </trkpt>
      <trkpt lat="46.23218" lon="8.01443">
        <ele>1859.81</ele>
        <time>2012-08-05T08:41:31Z</time>
      </trkpt>
      <trkpt lat="46.23254" lon="8.01461">
        <ele>1864.13</ele>
        <time>2012-08-05T08:41:33Z</time>
      </trkpt>
      <trkpt lat="46.2327" lon="8.01472">
        <ele>1867.5</ele>
        <time>2012-08-05T08:41:34Z</time>
      </trkpt>
      <trkpt lat="46.23287" lon="8.01486">
        <ele>1867.5</ele>
        <time>2012-08-05T08:41:35Z</time>
      </trkpt>
      <trkpt lat="46.23345" lon="8.01553">
        <ele>1870.86</ele>
        <time>2012-08-05T08:41:39Z</time>
      </trkpt>
      <trkpt lat="46.23378" lon="8.01608">
        <ele>1874.23</ele>
        <time>2012-08-05T08:41:42Z</time>
      </trkpt>
      <trkpt lat="46.234" lon="8.01653">
        <ele>1875.67</ele>
        <time>2012-08-05T08:41:45Z</time>
      </trkpt>
      <trkpt lat="46.23413" lon="8.01681">
        <ele>1877.11</ele>
        <time>2012-08-05T08:41:48Z</time>
      </trkpt>
      <trkpt lat="46.23416" lon="8.01697">
        <ele>1878.07</ele>
        <time>2012-08-05T08:41:50Z</time>
      </trkpt>
      <trkpt lat="46.23418" lon="8.01703">
        <ele>1878.07</ele>
        <time>2012-08-05T08:41:51Z</time>
      </trkpt>
      <trkpt lat="46.23461" lon="8.01725">
        <ele>1877.11</ele>
        <time>2012-08-05T08:42:51Z</time>
      </trkpt>
      <trkpt lat="46.23459" lon="8.01724">
        <ele>1877.11</ele>
        <time>2012-08-05T08:42:52Z</time>
      </trkpt>
      <trkpt lat="46.23459" lon="8.01731">
        <ele>1880.96</ele>
        <time>2012-08-05T08:42:59Z</time>
      </trkpt>
      <trkpt lat="46.23459" lon="8.0173">
        <ele>1884.8</ele>
        <time>2012-08-05T08:43:02Z</time>
      </trkpt>
      <trkpt lat="46.23458" lon="8.0173">
        <ele>1887.69</ele>
        <time>2012-08-05T08:43:07Z</time>
      </trkpt>
      <trkpt lat="46.23458" lon="8.0173">
        <ele>1888.17</ele>
        <time>2012-08-05T08:43:08Z</time>
      </trkpt>
      <trkpt lat="46.23458" lon="8.0173">
        <ele>1891.53</ele>
        <time>2012-08-05T08:43:11Z</time>
      </trkpt>
      <trkpt lat="46.23459" lon="8.01731">
        <ele>1894.42</ele>
        <time>2012-08-05T08:43:16Z</time>
      </trkpt>
      <trkpt lat="46.23459" lon="8.0173">
        <ele>1897.3</ele>
        <time>2012-08-05T08:43:20Z</time>
      </trkpt>
      <trkpt lat="46.23459" lon="8.01729">
        <ele>1900.18</ele>
        <time>2012-08-05T08:43:26Z</time>
      </trkpt>
      <trkpt lat="46.23459" lon="8.0173">
        <ele>1903.55</ele>
        <time>2012-08-05T08:43:33Z</time>
      </trkpt>
      <trkpt lat="46.23459" lon="8.0173">
        <ele>1904.03</ele>
        <time>2012-08-05T08:43:34Z</time>
      </trkpt>
      <trkpt lat="46.23459" lon="8.01731">
        <ele>1906.91</ele>
        <time>2012-08-05T08:43:43Z</time>
      </trkpt>
      <trkpt lat="46.23458" lon="8.01731">
        <ele>1909.8</ele>
        <time>2012-08-05T08:43:58Z</time>
      </trkpt>
      <trkpt lat="46.23459" lon="8.0173">
        <ele>1913.16</ele>
        <time>2012-08-05T08:44:11Z</time>
      </trkpt>
      <trkpt lat="46.23458" lon="8.01732">
        <ele>1915.56</ele>
        <time>2012-08-05T08:44:40Z</time>
      </trkpt>
      <trkpt lat="46.23458" lon="8.0173">
        <ele>1916.53</ele>
        <time>2012-08-05T08:45:17Z</time>
      </trkpt>
      <trkpt lat="46.23458" lon="8.0173">
        <ele>1916.53</ele>
        <time>2012-08-05T08:45:51Z</time>
      </trkpt>
      <trkpt lat="46.23458" lon="8.01729">
        <ele>1913.64</ele>
        <time>2012-08-05T08:46:14Z</time>
      </trkpt>
      <trkpt lat="46.23458" lon="8.01729">
        <ele>1917.01</ele>
        <time>2012-08-05T08:46:15Z</time>
      </trkpt>
      <trkpt lat="46.23458" lon="8.0173">
        <ele>1916.53</ele>
        <time>2012-08-05T08:46:48Z</time>
      </trkpt>
      <trkpt lat="46.23458" lon="8.01729">
        <ele>1917.01</ele>
        <time>2012-08-05T08:47:28Z</time>
      </trkpt>
      <trkpt lat="46.23458" lon="8.01729">
        <ele>1915.08</ele>
        <time>2012-08-05T08:48:05Z</time>
      </trkpt>
      <trkpt lat="46.23458" lon="8.01729">
        <ele>1918.45</ele>
        <time>2012-08-05T08:48:40Z</time>
      </trkpt>
      <trkpt lat="46.23458" lon="8.01729">
        <ele>1913.64</ele>
        <time>2012-08-05T08:49:05Z</time>
      </trkpt>
      <trkpt lat="46.23458" lon="8.01729">
        <ele>1917.01</ele>
        <time>2012-08-05T08:49:07Z</time>
      </trkpt>
      <trkpt lat="46.23458" lon="8.01729">
        <ele>1912.68</ele>
        <time>2012-08-05T08:49:34Z</time>
      </trkpt>
      <trkpt lat="46.23458" lon="8.01729">
        <ele>1915.08</ele>
        <time>2012-08-05T08:49:35Z</time>
      </trkpt>
      <trkpt lat="46.23458" lon="8.01729">
        <ele>1918.45</ele>
        <time>2012-08-05T08:49:37Z</time>
      </trkpt>
      <trkpt lat="46.23458" lon="8.01729">
        <ele>1918.45</ele>
        <time>2012-08-05T08:50:06Z</time>
      </trkpt>
      <trkpt lat="46.23459" lon="8.01729">
        <ele>1917.49</ele>
        <time>2012-08-05T08:50:36Z</time>
      </trkpt>
      <trkpt lat="46.23459" lon="8.01729">
        <ele>1917.97</ele>
        <time>2012-08-05T08:51:05Z</time>
      </trkpt>
      <trkpt lat="46.23424" lon="8.0167">
        <ele>1913.16</ele>
        <time>2012-08-05T08:52:01Z</time>
      </trkpt>
      <trkpt lat="46.23419" lon="8.01667">
        <ele>1913.16</ele>
        <time>2012-08-05T08:52:02Z</time>
      </trkpt>
      <trkpt lat="46.23417" lon="8.01661">
        <ele>1912.2</ele>
        <time>2012-08-05T08:52:13Z</time>
      </trkpt>
      <trkpt lat="46.23416" lon="8.01662">
        <ele>1912.2</ele>
        <time>2012-08-05T08:52:16Z</time>
      </trkpt>
      <trkpt lat="46.23413" lon="8.0167">
        <ele>1913.16</ele>
        <time>2012-08-05T08:52:19Z</time>
      </trkpt>
      <trkpt lat="46.23414" lon="8.01677">
        <ele>1912.68</ele>
        <time>2012-08-05T08:52:20Z</time>
      </trkpt>
      <trkpt lat="46.23417" lon="8.01684">
        <ele>1913.16</ele>
        <time>2012-08-05T08:52:21Z</time>
      </trkpt>
      <trkpt lat="46.2342" lon="8.01691">
        <ele>1913.64</ele>
        <time>2012-08-05T08:52:22Z</time>
      </trkpt>
      <trkpt lat="46.23438" lon="8.0173">
        <ele>1917.97</ele>
        <time>2012-08-05T08:52:26Z</time>
      </trkpt>
      <trkpt lat="46.23444" lon="8.01741">
        <ele>1917.97</ele>
        <time>2012-08-05T08:52:27Z</time>
      </trkpt>
      <trkpt lat="46.23462" lon="8.01776">
        <ele>1920.85</ele>
        <time>2012-08-05T08:52:30Z</time>
      </trkpt>
      <trkpt lat="46.23484" lon="8.01817">
        <ele>1924.7</ele>
        <time>2012-08-05T08:52:33Z</time>
      </trkpt>
      <trkpt lat="46.23512" lon="8.01861">
        <ele>1928.06</ele>
        <time>2012-08-05T08:52:36Z</time>
      </trkpt>
      <trkpt lat="46.23534" lon="8.01888">
        <ele>1932.87</ele>
        <time>2012-08-05T08:52:38Z</time>
      </trkpt>
      <trkpt lat="46.23546" lon="8.01901">
        <ele>1931.43</ele>
        <time>2012-08-05T08:52:39Z</time>
      </trkpt>
      <trkpt lat="46.23573" lon="8.01924">
        <ele>1934.79</ele>
        <time>2012-08-05T08:52:41Z</time>
      </trkpt>
      <trkpt lat="46.23602" lon="8.01944">
        <ele>1937.67</ele>
        <time>2012-08-05T08:52:43Z</time>
      </trkpt>
      <trkpt lat="46.23631" lon="8.01964">
        <ele>1939.12</ele>
        <time>2012-08-05T08:52:45Z</time>
      </trkpt>
      <trkpt lat="46.23661" lon="8.01985">
        <ele>1942.48</ele>
        <time>2012-08-05T08:52:47Z</time>
      </trkpt>
      <trkpt lat="46.2372" lon="8.02028">
        <ele>1947.29</ele>
        <time>2012-08-05T08:52:51Z</time>
      </trkpt>
      <trkpt lat="46.23749" lon="8.02051">
        <ele>1950.17</ele>
        <time>2012-08-05T08:52:53Z</time>
      </trkpt>
      <trkpt lat="46.23791" lon="8.02088">
        <ele>1953.54</ele>
        <time>2012-08-05T08:52:56Z</time>
      </trkpt>
      <trkpt lat="46.2382" lon="8.02112">
        <ele>1956.9</ele>
        <time>2012-08-05T08:52:58Z</time>
      </trkpt>
      <trkpt lat="46.2385" lon="8.02133">
        <ele>1959.78</ele>
        <time>2012-08-05T08:53:00Z</time>
      </trkpt>
      <trkpt lat="46.23898" lon="8.02156">
        <ele>1963.15</ele>
        <time>2012-08-05T08:53:03Z</time>
      </trkpt>
      <trkpt lat="46.23931" lon="8.02164">
        <ele>1966.99</ele>
        <time>2012-08-05T08:53:05Z</time>
      </trkpt>
      <trkpt lat="46.23999" lon="8.02162">
        <ele>1972.28</ele>
        <time>2012-08-05T08:53:09Z</time>
      </trkpt>
      <trkpt lat="46.24016" lon="8.02158">
        <ele>1973.72</ele>
        <time>2012-08-05T08:53:10Z</time>
      </trkpt>
      <trkpt lat="46.24032" lon="8.02152">
        <ele>1974.69</ele>
        <time>2012-08-05T08:53:11Z</time>
      </trkpt>
      <trkpt lat="46.24082" lon="8.02126">
        <ele>1979.49</ele>
        <time>2012-08-05T08:53:14Z</time>
      </trkpt>
      <trkpt lat="46.24131" lon="8.02097">
        <ele>1982.86</ele>
        <time>2012-08-05T08:53:17Z</time>
      </trkpt>
      <trkpt lat="46.24147" lon="8.02088">
        <ele>1982.86</ele>
        <time>2012-08-05T08:53:18Z</time>
      </trkpt>
      <trkpt lat="46.24211" lon="8.02061">
        <ele>1985.74</ele>
        <time>2012-08-05T08:53:22Z</time>
      </trkpt>
      <trkpt lat="46.24229" lon="8.0206">
        <ele>1986.22</ele>
        <time>2012-08-05T08:53:23Z</time>
      </trkpt>
      <trkpt lat="46.24246" lon="8.02064">
        <ele>1987.66</ele>
        <time>2012-08-05T08:53:24Z</time>
      </trkpt>
      <trkpt lat="46.24264" lon="8.02071">
        <ele>1989.1</ele>
        <time>2012-08-05T08:53:25Z</time>
      </trkpt>
      <trkpt lat="46.24281" lon="8.02081">
        <ele>1990.07</ele>
        <time>2012-08-05T08:53:26Z</time>
      </trkpt>
      <trkpt lat="46.24298" lon="8.02094">
        <ele>1991.03</ele>
        <time>2012-08-05T08:53:27Z</time>
      </trkpt>
      <trkpt lat="46.24314" lon="8.02109">
        <ele>1991.51</ele>
        <time>2012-08-05T08:53:28Z</time>
      </trkpt>
      <trkpt lat="46.24328" lon="8.02127">
        <ele>1992.47</ele>
        <time>2012-08-05T08:53:29Z</time>
      </trkpt>
      <trkpt lat="46.24341" lon="8.02148">
        <ele>1992.95</ele>
        <time>2012-08-05T08:53:30Z</time>
      </trkpt>
      <trkpt lat="46.24352" lon="8.02171">
        <ele>1993.43</ele>
        <time>2012-08-05T08:53:31Z</time>
      </trkpt>
      <trkpt lat="46.24362" lon="8.02196">
        <ele>1993.91</ele>
        <time>2012-08-05T08:53:32Z</time>
      </trkpt>
      <trkpt lat="46.24409" lon="8.0229">
        <ele>1996.8</ele>
        <time>2012-08-05T08:53:36Z</time>
      </trkpt>
      <trkpt lat="46.24425" lon="8.02308">
        <ele>1997.28</ele>
        <time>2012-08-05T08:53:37Z</time>
      </trkpt>
      <trkpt lat="46.24443" lon="8.02324">
        <ele>1997.76</ele>
        <time>2012-08-05T08:53:38Z</time>
      </trkpt>
      <trkpt lat="46.24462" lon="8.02336">
        <ele>1997.76</ele>
        <time>2012-08-05T08:53:39Z</time>
      </trkpt>
      <trkpt lat="46.2448" lon="8.02346">
        <ele>1997.76</ele>
        <time>2012-08-05T08:53:40Z</time>
      </trkpt>
      <trkpt lat="46.24541" lon="8.02393">
        <ele>1996.32</ele>
        <time>2012-08-05T08:53:44Z</time>
      </trkpt>
      <trkpt lat="46.24554" lon="8.02409">
        <ele>1996.32</ele>
        <time>2012-08-05T08:53:45Z</time>
      </trkpt>
      <trkpt lat="46.24566" lon="8.02426">
        <ele>1996.8</ele>
        <time>2012-08-05T08:53:46Z</time>
      </trkpt>
      <trkpt lat="46.24576" lon="8.02445">
        <ele>1996.32</ele>
        <time>2012-08-05T08:53:47Z</time>
      </trkpt>
      <trkpt lat="46.24585" lon="8.02465">
        <ele>1996.32</ele>
        <time>2012-08-05T08:53:48Z</time>
      </trkpt>
      <trkpt lat="46.24592" lon="8.02484">
        <ele>1996.32</ele>
        <time>2012-08-05T08:53:49Z</time>
      </trkpt>
      <trkpt lat="46.24599" lon="8.02503">
        <ele>1995.35</ele>
        <time>2012-08-05T08:53:50Z</time>
      </trkpt>
      <trkpt lat="46.2464" lon="8.02612">
        <ele>1998.72</ele>
        <time>2012-08-05T08:53:56Z</time>
      </trkpt>
      <trkpt lat="46.24686" lon="8.02694">
        <ele>1994.39</ele>
        <time>2012-08-05T08:54:01Z</time>
      </trkpt>
      <trkpt lat="46.24707" lon="8.02723">
        <ele>1997.28</ele>
        <time>2012-08-05T08:54:03Z</time>
      </trkpt>
      <trkpt lat="46.24751" lon="8.02775">
        <ele>2001.12</ele>
        <time>2012-08-05T08:54:07Z</time>
      </trkpt>
      <trkpt lat="46.24762" lon="8.02788">
        <ele>1999.68</ele>
        <time>2012-08-05T08:54:08Z</time>
      </trkpt>
      <trkpt lat="46.248" lon="8.02849">
        <ele>2001.6</ele>
        <time>2012-08-05T08:54:12Z</time>
      </trkpt>
      <trkpt lat="46.24825" lon="8.02903">
        <ele>2004.01</ele>
        <time>2012-08-05T08:54:15Z</time>
      </trkpt>
      <trkpt lat="46.24842" lon="8.02942">
        <ele>2005.93</ele>
        <time>2012-08-05T08:54:17Z</time>
      </trkpt>
      <trkpt lat="46.24894" lon="8.03038">
        <ele>2009.29</ele>
        <time>2012-08-05T08:54:22Z</time>
      </trkpt>
      <trkpt lat="46.25004" lon="8.03155">
        <ele>2010.73</ele>
        <time>2012-08-05T08:54:30Z</time>
      </trkpt>
      <trkpt lat="46.25064" lon="8.03233">
        <ele>2010.25</ele>
        <time>2012-08-05T08:54:35Z</time>
      </trkpt>
      <trkpt lat="46.25072" lon="8.03251">
        <ele>2009.77</ele>
        <time>2012-08-05T08:54:36Z</time>
      </trkpt>
      <trkpt lat="46.2508" lon="8.0327">
        <ele>2009.29</ele>
        <time>2012-08-05T08:54:37Z</time>
      </trkpt>
      <trkpt lat="46.25086" lon="8.03289">
        <ele>2008.81</ele>
        <time>2012-08-05T08:54:38Z</time>
      </trkpt>
      <trkpt lat="46.25111" lon="8.03446">
        <ele>2006.89</ele>
        <time>2012-08-05T08:54:45Z</time>
      </trkpt>
      <trkpt lat="46.2511" lon="8.0347">
        <ele>2006.41</ele>
        <time>2012-08-05T08:54:46Z</time>
      </trkpt>
      <trkpt lat="46.25093" lon="8.03684">
        <ele>2004.01</ele>
        <time>2012-08-05T08:54:56Z</time>
      </trkpt>
      <trkpt lat="46.25095" lon="8.03734">
        <ele>2002.08</ele>
        <time>2012-08-05T08:55:02Z</time>
      </trkpt>
      <trkpt lat="46.25097" lon="8.03747">
        <ele>2002.08</ele>
        <time>2012-08-05T08:55:12Z</time>
      </trkpt>
      <trkpt lat="46.25098" lon="8.03746">
        <ele>2001.6</ele>
        <time>2012-08-05T08:55:44Z</time>
      </trkpt>
      <trkpt lat="46.25098" lon="8.03747">
        <ele>2001.6</ele>
        <time>2012-08-05T08:56:13Z</time>
      </trkpt>
      <trkpt lat="46.25098" lon="8.03746">
        <ele>2001.12</ele>
        <time>2012-08-05T08:56:43Z</time>
      </trkpt>
      <trkpt lat="46.25099" lon="8.0375">
        <ele>2001.6</ele>
        <time>2012-08-05T08:57:04Z</time>
      </trkpt>
      <trkpt lat="46.25099" lon="8.03753">
        <ele>2001.12</ele>
        <time>2012-08-05T08:57:05Z</time>
      </trkpt>
      <trkpt lat="46.251" lon="8.03758">
        <ele>2001.6</ele>
        <time>2012-08-05T08:57:06Z</time>
      </trkpt>
      <trkpt lat="46.25118" lon="8.03837">
        <ele>2001.12</ele>
        <time>2012-08-05T08:57:18Z</time>
      </trkpt>
      <trkpt lat="46.25161" lon="8.03946">
        <ele>2000.16</ele>
        <time>2012-08-05T08:57:28Z</time>
      </trkpt>
      <trkpt lat="46.25178" lon="8.04016">
        <ele>1997.76</ele>
        <time>2012-08-05T08:57:33Z</time>
      </trkpt>
      <trkpt lat="46.2518" lon="8.04029">
        <ele>1999.2</ele>
        <time>2012-08-05T08:57:34Z</time>
      </trkpt>
      <trkpt lat="46.2517" lon="8.04049">
        <ele>1998.24</ele>
        <time>2012-08-05T08:57:37Z</time>
      </trkpt>
      <trkpt lat="46.25169" lon="8.04055">
        <ele>1992.95</ele>
        <time>2012-08-05T08:57:51Z</time>
      </trkpt>
      <trkpt lat="46.25167" lon="8.04069">
        <ele>1990.55</ele>
        <time>2012-08-05T08:58:04Z</time>
      </trkpt>
      <trkpt lat="46.25167" lon="8.0407">
        <ele>1988.62</ele>
        <time>2012-08-05T08:58:05Z</time>
      </trkpt>
      <trkpt lat="46.25166" lon="8.04074">
        <ele>1985.26</ele>
        <time>2012-08-05T08:58:13Z</time>
      </trkpt>
      <trkpt lat="46.25164" lon="8.04088">
        <ele>1982.86</ele>
        <time>2012-08-05T08:58:22Z</time>
      </trkpt>
      <trkpt lat="46.25165" lon="8.04086">
        <ele>1983.34</ele>
        <time>2012-08-05T08:58:23Z</time>
      </trkpt>
      <trkpt lat="46.25164" lon="8.04094">
        <ele>1972.76</ele>
        <time>2012-08-05T08:58:24Z</time>
      </trkpt>
      <trkpt lat="46.25164" lon="8.04091">
        <ele>1988.14</ele>
        <time>2012-08-05T08:58:25Z</time>
      </trkpt>
      <trkpt lat="46.25164" lon="8.04092">
        <ele>1981.9</ele>
        <time>2012-08-05T08:58:26Z</time>
      </trkpt>
      <trkpt lat="46.25164" lon="8.04092">
        <ele>1979.01</ele>
        <time>2012-08-05T08:58:31Z</time>
      </trkpt>
      <trkpt lat="46.25163" lon="8.04094">
        <ele>1975.65</ele>
        <time>2012-08-05T08:58:35Z</time>
      </trkpt>
      <trkpt lat="46.25162" lon="8.04102">
        <ele>1971.8</ele>
        <time>2012-08-05T08:58:41Z</time>
      </trkpt>
      <trkpt lat="46.25162" lon="8.04105">
        <ele>1969.88</ele>
        <time>2012-08-05T08:58:45Z</time>
      </trkpt>
      <trkpt lat="46.25161" lon="8.04104">
        <ele>1968.92</ele>
        <time>2012-08-05T08:58:46Z</time>
      </trkpt>
      <trkpt lat="46.25161" lon="8.04106">
        <ele>1963.63</ele>
        <time>2012-08-05T08:58:51Z</time>
      </trkpt>
      <trkpt lat="46.25159" lon="8.04112">
        <ele>1963.63</ele>
        <time>2012-08-05T08:58:52Z</time>
      </trkpt>
      <trkpt lat="46.25156" lon="8.0412">
        <ele>1958.82</ele>
        <time>2012-08-05T08:58:54Z</time>
      </trkpt>
      <trkpt lat="46.25158" lon="8.04113">
        <ele>1963.15</ele>
        <time>2012-08-05T08:58:55Z</time>
      </trkpt>
      <trkpt lat="46.25158" lon="8.04114">
        <ele>1959.78</ele>
        <time>2012-08-05T08:58:57Z</time>
      </trkpt>
      <trkpt lat="46.25155" lon="8.04123">
        <ele>1955.94</ele>
        <time>2012-08-05T08:59:01Z</time>
      </trkpt>
      <trkpt lat="46.25157" lon="8.04118">
        <ele>1951.13</ele>
        <time>2012-08-05T08:59:02Z</time>
      </trkpt>
      <trkpt lat="46.25155" lon="8.04122">
        <ele>1951.13</ele>
        <time>2012-08-05T08:59:03Z</time>
      </trkpt>
      <trkpt lat="46.25153" lon="8.0413">
        <ele>1953.54</ele>
        <time>2012-08-05T08:59:04Z</time>
      </trkpt>
      <trkpt lat="46.25154" lon="8.04127">
        <ele>1950.17</ele>
        <time>2012-08-05T08:59:08Z</time>
      </trkpt>
      <trkpt lat="46.25153" lon="8.0413">
        <ele>1947.29</ele>
        <time>2012-08-05T08:59:12Z</time>
      </trkpt>
      <trkpt lat="46.25151" lon="8.04136">
        <ele>1945.85</ele>
        <time>2012-08-05T08:59:14Z</time>
      </trkpt>
      <trkpt lat="46.2515" lon="8.04138">
        <ele>1943.44</ele>
        <time>2012-08-05T08:59:16Z</time>
      </trkpt>
      <trkpt lat="46.25149" lon="8.04142">
        <ele>1940.08</ele>
        <time>2012-08-05T08:59:20Z</time>
      </trkpt>
      <trkpt lat="46.25727" lon="8.04627">
        <ele>1940.08</ele>
        <time>2012-08-05T08:59:22Z</time>
      </trkpt>
      <trkpt lat="46.25744" lon="8.04612">
        <ele>1940.08</ele>
        <time>2012-08-05T08:59:23Z</time>
      </trkpt>
      <trkpt lat="46.25759" lon="8.04605">
        <ele>1939.12</ele>
        <time>2012-08-05T08:59:24Z</time>
      </trkpt>
      <trkpt lat="46.25776" lon="8.046">
        <ele>1938.16</ele>
        <time>2012-08-05T08:59:25Z</time>
      </trkpt>
      <trkpt lat="46.25792" lon="8.04597">
        <ele>1937.67</ele>
        <time>2012-08-05T08:59:26Z</time>
      </trkpt>
      <trkpt lat="46.25836" lon="8.04589">
        <ele>1934.79</ele>
        <time>2012-08-05T08:59:29Z</time>
      </trkpt>
      <trkpt lat="46.25861" lon="8.04582">
        <ele>1933.35</ele>
        <time>2012-08-05T08:59:30Z</time>
      </trkpt>
      <trkpt lat="46.25906" lon="8.0456">
        <ele>1931.43</ele>
        <time>2012-08-05T08:59:33Z</time>
      </trkpt>
      <trkpt lat="46.2592" lon="8.04549">
        <ele>1930.46</ele>
        <time>2012-08-05T08:59:34Z</time>
      </trkpt>
      <trkpt lat="46.25933" lon="8.04537">
        <ele>1929.5</ele>
        <time>2012-08-05T08:59:35Z</time>
      </trkpt>
      <trkpt lat="46.25944" lon="8.04523">
        <ele>1928.54</ele>
        <time>2012-08-05T08:59:36Z</time>
      </trkpt>
      <trkpt lat="46.25955" lon="8.04506">
        <ele>1924.22</ele>
        <time>2012-08-05T08:59:37Z</time>
      </trkpt>
      <trkpt lat="46.25941" lon="8.04512">
        <ele>1928.54</ele>
        <time>2012-08-05T08:59:38Z</time>
      </trkpt>
      <trkpt lat="46.25944" lon="8.04509">
        <ele>1925.66</ele>
        <time>2012-08-05T08:59:39Z</time>
      </trkpt>
      <trkpt lat="46.25944" lon="8.04509">
        <ele>1923.25</ele>
        <time>2012-08-05T08:59:41Z</time>
      </trkpt>
      <trkpt lat="46.25945" lon="8.04508">
        <ele>1921.81</ele>
        <time>2012-08-05T08:59:42Z</time>
      </trkpt>
      <trkpt lat="46.25945" lon="8.04507">
        <ele>1919.41</ele>
        <time>2012-08-05T08:59:44Z</time>
      </trkpt>
      <trkpt lat="46.25946" lon="8.04506">
        <ele>1917.49</ele>
        <time>2012-08-05T08:59:45Z</time>
      </trkpt>
      <trkpt lat="46.25948" lon="8.04504">
        <ele>1915.08</ele>
        <time>2012-08-05T08:59:47Z</time>
      </trkpt>
      <trkpt lat="46.25952" lon="8.04499">
        <ele>1911.72</ele>
        <time>2012-08-05T08:59:50Z</time>
      </trkpt>
      <trkpt lat="46.25951" lon="8.045">
        <ele>1909.8</ele>
        <time>2012-08-05T08:59:53Z</time>
      </trkpt>
      <trkpt lat="46.25952" lon="8.04499">
        <ele>1907.87</ele>
        <time>2012-08-05T08:59:54Z</time>
      </trkpt>
      <trkpt lat="46.25952" lon="8.04499">
        <ele>1905.95</ele>
        <time>2012-08-05T08:59:55Z</time>
      </trkpt>
      <trkpt lat="46.25952" lon="8.04499">
        <ele>1904.03</ele>
        <time>2012-08-05T08:59:56Z</time>
      </trkpt>
      <trkpt lat="46.25951" lon="8.045">
        <ele>1900.66</ele>
        <time>2012-08-05T08:59:58Z</time>
      </trkpt>
      <trkpt lat="46.2595" lon="8.04499">
        <ele>1900.66</ele>
        <time>2012-08-05T08:59:59Z</time>
      </trkpt>
      <trkpt lat="46.2595" lon="8.04498">
        <ele>1901.14</ele>
        <time>2012-08-05T09:00:00Z</time>
      </trkpt>
      <trkpt lat="46.2595" lon="8.04499">
        <ele>1898.26</ele>
        <time>2012-08-05T09:00:01Z</time>
      </trkpt>
      <trkpt lat="46.2595" lon="8.04498">
        <ele>1896.82</ele>
        <time>2012-08-05T09:00:02Z</time>
      </trkpt>
      <trkpt lat="46.25953" lon="8.04492">
        <ele>1894.42</ele>
        <time>2012-08-05T09:00:03Z</time>
      </trkpt>
      <trkpt lat="46.25954" lon="8.0449">
        <ele>1891.53</ele>
        <time>2012-08-05T09:00:04Z</time>
      </trkpt>
      <trkpt lat="46.25958" lon="8.04481">
        <ele>1887.69</ele>
        <time>2012-08-05T09:00:06Z</time>
      </trkpt>
      <trkpt lat="46.26865" lon="8.03967">
        <ele>1853.08</ele>
        <time>2012-08-05T09:00:30Z</time>
      </trkpt>
      <trkpt lat="46.2688" lon="8.03965">
        <ele>1852.12</ele>
        <time>2012-08-05T09:00:31Z</time>
      </trkpt>
      <trkpt lat="46.26893" lon="8.03964">
        <ele>1851.16</ele>
        <time>2012-08-05T09:00:32Z</time>
      </trkpt>
      <trkpt lat="46.269" lon="8.03982">
        <ele>1849.71</ele>
        <time>2012-08-05T09:00:33Z</time>
      </trkpt>
      <trkpt lat="46.26914" lon="8.03982">
        <ele>1847.31</ele>
        <time>2012-08-05T09:00:34Z</time>
      </trkpt>
      <trkpt lat="46.26959" lon="8.03979">
        <ele>1843.95</ele>
        <time>2012-08-05T09:00:36Z</time>
      </trkpt>
      <trkpt lat="46.26969" lon="8.03982">
        <ele>1843.95</ele>
        <time>2012-08-05T09:00:37Z</time>
      </trkpt>
      <trkpt lat="46.27005" lon="8.03978">
        <ele>1840.1</ele>
        <time>2012-08-05T09:00:39Z</time>
      </trkpt>
      <trkpt lat="46.27023" lon="8.03978">
        <ele>1838.18</ele>
        <time>2012-08-05T09:00:40Z</time>
      </trkpt>
      <trkpt lat="46.27041" lon="8.03983">
        <ele>1837.22</ele>
        <time>2012-08-05T09:00:41Z</time>
      </trkpt>
      <trkpt lat="46.2706" lon="8.03993">
        <ele>1835.77</ele>
        <time>2012-08-05T09:00:42Z</time>
      </trkpt>
      <trkpt lat="46.27077" lon="8.04005">
        <ele>1833.85</ele>
        <time>2012-08-05T09:00:43Z</time>
      </trkpt>
      <trkpt lat="46.27093" lon="8.04017">
        <ele>1831.45</ele>
        <time>2012-08-05T09:00:44Z</time>
      </trkpt>
      <trkpt lat="46.27126" lon="8.04033">
        <ele>1828.08</ele>
        <time>2012-08-05T09:00:46Z</time>
      </trkpt>
      <trkpt lat="46.27142" lon="8.04038">
        <ele>1826.16</ele>
        <time>2012-08-05T09:00:47Z</time>
      </trkpt>
      <trkpt lat="46.27161" lon="8.04039">
        <ele>1826.64</ele>
        <time>2012-08-05T09:00:48Z</time>
      </trkpt>
      <trkpt lat="46.2718" lon="8.04037">
        <ele>1825.2</ele>
        <time>2012-08-05T09:00:49Z</time>
      </trkpt>
      <trkpt lat="46.27201" lon="8.0403">
        <ele>1823.76</ele>
        <time>2012-08-05T09:00:50Z</time>
      </trkpt>
      <trkpt lat="46.27222" lon="8.0402">
        <ele>1822.32</ele>
        <time>2012-08-05T09:00:51Z</time>
      </trkpt>
      <trkpt lat="46.27241" lon="8.04007">
        <ele>1821.35</ele>
        <time>2012-08-05T09:00:52Z</time>
      </trkpt>
      <trkpt lat="46.27259" lon="8.03994">
        <ele>1818.95</ele>
        <time>2012-08-05T09:00:53Z</time>
      </trkpt>
      <trkpt lat="46.27277" lon="8.03983">
        <ele>1817.03</ele>
        <time>2012-08-05T09:00:54Z</time>
      </trkpt>
      <trkpt lat="46.27296" lon="8.03977">
        <ele>1816.07</ele>
        <time>2012-08-05T09:00:55Z</time>
      </trkpt>
      <trkpt lat="46.27315" lon="8.03975">
        <ele>1815.59</ele>
        <time>2012-08-05T09:00:56Z</time>
      </trkpt>
      <trkpt lat="46.27328" lon="8.03976">
        <ele>1812.7</ele>
        <time>2012-08-05T09:00:57Z</time>
      </trkpt>
      <trkpt lat="46.27353" lon="8.03983">
        <ele>1811.74</ele>
        <time>2012-08-05T09:00:58Z</time>
      </trkpt>
      <trkpt lat="46.27379" lon="8.0399">
        <ele>1808.38</ele>
        <time>2012-08-05T09:00:59Z</time>
      </trkpt>
      <trkpt lat="46.27396" lon="8.04001">
        <ele>1805.49</ele>
        <time>2012-08-05T09:01:02Z</time>
      </trkpt>
      <trkpt lat="46.27396" lon="8.03998">
        <ele>1803.57</ele>
        <time>2012-08-05T09:01:03Z</time>
      </trkpt>
      <trkpt lat="46.2747" lon="8.03986">
        <ele>1800.21</ele>
        <time>2012-08-05T09:01:05Z</time>
      </trkpt>
      <trkpt lat="46.27519" lon="8.03959">
        <ele>1796.84</ele>
        <time>2012-08-05T09:01:08Z</time>
      </trkpt>
      <trkpt lat="46.27563" lon="8.03948">
        <ele>1794.44</ele>
        <time>2012-08-05T09:01:10Z</time>
      </trkpt>
      <trkpt lat="46.27584" lon="8.03946">
        <ele>1793</ele>
        <time>2012-08-05T09:01:11Z</time>
      </trkpt>
      <trkpt lat="46.27604" lon="8.03945">
        <ele>1791.07</ele>
        <time>2012-08-05T09:01:12Z</time>
      </trkpt>
      <trkpt lat="46.27622" lon="8.03943">
        <ele>1789.15</ele>
        <time>2012-08-05T09:01:13Z</time>
      </trkpt>
      <trkpt lat="46.27655" lon="8.03937">
        <ele>1785.31</ele>
        <time>2012-08-05T09:01:15Z</time>
      </trkpt>
      <trkpt lat="46.27696" lon="8.03897">
        <ele>1783.38</ele>
        <time>2012-08-05T09:01:17Z</time>
      </trkpt>
      <trkpt lat="46.27715" lon="8.03859">
        <ele>1782.9</ele>
        <time>2012-08-05T09:01:18Z</time>
      </trkpt>
      <trkpt lat="46.27727" lon="8.03851">
        <ele>1780.98</ele>
        <time>2012-08-05T09:01:19Z</time>
      </trkpt>
      <trkpt lat="46.27764" lon="8.03817">
        <ele>1777.61</ele>
        <time>2012-08-05T09:01:22Z</time>
      </trkpt>
      <trkpt lat="46.27821" lon="8.03782">
        <ele>1772.81</ele>
        <time>2012-08-05T09:01:26Z</time>
      </trkpt>
      <trkpt lat="46.27838" lon="8.03778">
        <ele>1772.81</ele>
        <time>2012-08-05T09:01:27Z</time>
      </trkpt>
      <trkpt lat="46.27891" lon="8.0377">
        <ele>1768</ele>
        <time>2012-08-05T09:01:30Z</time>
      </trkpt>
      <trkpt lat="46.27925" lon="8.03761">
        <ele>1764.16</ele>
        <time>2012-08-05T09:01:32Z</time>
      </trkpt>
      <trkpt lat="46.27941" lon="8.03756">
        <ele>1763.2</ele>
        <time>2012-08-05T09:01:33Z</time>
      </trkpt>
      <trkpt lat="46.27955" lon="8.03746">
        <ele>1761.75</ele>
        <time>2012-08-05T09:01:34Z</time>
      </trkpt>
      <trkpt lat="46.27969" lon="8.03732">
        <ele>1761.27</ele>
        <time>2012-08-05T09:01:35Z</time>
      </trkpt>
      <trkpt lat="46.27994" lon="8.03701">
        <ele>1758.39</ele>
        <time>2012-08-05T09:01:37Z</time>
      </trkpt>
      <trkpt lat="46.28021" lon="8.03677">
        <ele>1754.54</ele>
        <time>2012-08-05T09:01:39Z</time>
      </trkpt>
      <trkpt lat="46.28035" lon="8.03667">
        <ele>1753.1</ele>
        <time>2012-08-05T09:01:40Z</time>
      </trkpt>
      <trkpt lat="46.28051" lon="8.03659">
        <ele>1752.62</ele>
        <time>2012-08-05T09:01:41Z</time>
      </trkpt>
      <trkpt lat="46.28068" lon="8.03653">
        <ele>1751.66</ele>
        <time>2012-08-05T09:01:42Z</time>
      </trkpt>
      <trkpt lat="46.28086" lon="8.03649">
        <ele>1750.22</ele>
        <time>2012-08-05T09:01:43Z</time>
      </trkpt>
      <trkpt lat="46.28119" lon="8.03642">
        <ele>1746.85</ele>
        <time>2012-08-05T09:01:45Z</time>
      </trkpt>
      <trkpt lat="46.28152" lon="8.03639">
        <ele>1744.93</ele>
        <time>2012-08-05T09:01:47Z</time>
      </trkpt>
      <trkpt lat="46.28168" lon="8.03641">
        <ele>1744.45</ele>
        <time>2012-08-05T09:01:48Z</time>
      </trkpt>
      <trkpt lat="46.28185" lon="8.03647">
        <ele>1743.01</ele>
        <time>2012-08-05T09:01:49Z</time>
      </trkpt>
      <trkpt lat="46.28202" lon="8.03656">
        <ele>1740.6</ele>
        <time>2012-08-05T09:01:50Z</time>
      </trkpt>
      <trkpt lat="46.28217" lon="8.03668">
        <ele>1738.68</ele>
        <time>2012-08-05T09:01:51Z</time>
      </trkpt>
      <trkpt lat="46.28231" lon="8.0368">
        <ele>1736.76</ele>
        <time>2012-08-05T09:01:52Z</time>
      </trkpt>
      <trkpt lat="46.28244" lon="8.03693">
        <ele>1735.8</ele>
        <time>2012-08-05T09:01:53Z</time>
      </trkpt>
      <trkpt lat="46.28258" lon="8.03706">
        <ele>1735.32</ele>
        <time>2012-08-05T09:01:54Z</time>
      </trkpt>
      <trkpt lat="46.28273" lon="8.0372">
        <ele>1734.84</ele>
        <time>2012-08-05T09:01:55Z</time>
      </trkpt>
      <trkpt lat="46.2829" lon="8.03732">
        <ele>1733.88</ele>
        <time>2012-08-05T09:01:56Z</time>
      </trkpt>
      <trkpt lat="46.28306" lon="8.03739">
        <ele>1732.43</ele>
        <time>2012-08-05T09:01:57Z</time>
      </trkpt>
      <trkpt lat="46.28323" lon="8.03743">
        <ele>1730.03</ele>
        <time>2012-08-05T09:01:58Z</time>
      </trkpt>
      <trkpt lat="46.28339" lon="8.03746">
        <ele>1729.07</ele>
        <time>2012-08-05T09:01:59Z</time>
      </trkpt>
      <trkpt lat="46.28384" lon="8.0376">
        <ele>1724.74</ele>
        <time>2012-08-05T09:02:02Z</time>
      </trkpt>
      <trkpt lat="46.28398" lon="8.03769">
        <ele>1723.78</ele>
        <time>2012-08-05T09:02:03Z</time>
      </trkpt>
      <trkpt lat="46.28411" lon="8.03782">
        <ele>1723.3</ele>
        <time>2012-08-05T09:02:04Z</time>
      </trkpt>
      <trkpt lat="46.28424" lon="8.03797">
        <ele>1721.38</ele>
        <time>2012-08-05T09:02:05Z</time>
      </trkpt>
      <trkpt lat="46.28435" lon="8.03815">
        <ele>1720.9</ele>
        <time>2012-08-05T09:02:06Z</time>
      </trkpt>
      <trkpt lat="46.28445" lon="8.03834">
        <ele>1719.46</ele>
        <time>2012-08-05T09:02:07Z</time>
      </trkpt>
      <trkpt lat="46.28463" lon="8.03872">
        <ele>1716.09</ele>
        <time>2012-08-05T09:02:09Z</time>
      </trkpt>
      <trkpt lat="46.28469" lon="8.03893">
        <ele>1715.61</ele>
        <time>2012-08-05T09:02:10Z</time>
      </trkpt>
      <trkpt lat="46.28473" lon="8.03916">
        <ele>1713.21</ele>
        <time>2012-08-05T09:02:11Z</time>
      </trkpt>
      <trkpt lat="46.28476" lon="8.0394">
        <ele>1715.13</ele>
        <time>2012-08-05T09:02:12Z</time>
      </trkpt>
      <trkpt lat="46.28478" lon="8.03965">
        <ele>1714.17</ele>
        <time>2012-08-05T09:02:13Z</time>
      </trkpt>
      <trkpt lat="46.28483" lon="8.0404">
        <ele>1710.8</ele>
        <time>2012-08-05T09:02:16Z</time>
      </trkpt>
      <trkpt lat="46.28485" lon="8.04065">
        <ele>1707.44</ele>
        <time>2012-08-05T09:02:17Z</time>
      </trkpt>
      <trkpt lat="46.28486" lon="8.04089">
        <ele>1708.4</ele>
        <time>2012-08-05T09:02:18Z</time>
      </trkpt>
      <trkpt lat="46.28489" lon="8.04138">
        <ele>1705.04</ele>
        <time>2012-08-05T09:02:20Z</time>
      </trkpt>
      <trkpt lat="46.2849" lon="8.04207">
        <ele>1700.71</ele>
        <time>2012-08-05T09:02:23Z</time>
      </trkpt>
      <trkpt lat="46.28488" lon="8.0423">
        <ele>1700.71</ele>
        <time>2012-08-05T09:02:24Z</time>
      </trkpt>
      <trkpt lat="46.28485" lon="8.04254">
        <ele>1699.75</ele>
        <time>2012-08-05T09:02:25Z</time>
      </trkpt>
      <trkpt lat="46.28481" lon="8.04278">
        <ele>1697.34</ele>
        <time>2012-08-05T09:02:26Z</time>
      </trkpt>
      <trkpt lat="46.28477" lon="8.04301">
        <ele>1696.38</ele>
        <time>2012-08-05T09:02:27Z</time>
      </trkpt>
      <trkpt lat="46.28471" lon="8.04323">
        <ele>1694.94</ele>
        <time>2012-08-05T09:02:28Z</time>
      </trkpt>
      <trkpt lat="46.28463" lon="8.04344">
        <ele>1694.46</ele>
        <time>2012-08-05T09:02:29Z</time>
      </trkpt>
      <trkpt lat="46.28456" lon="8.04365">
        <ele>1693.02</ele>
        <time>2012-08-05T09:02:30Z</time>
      </trkpt>
      <trkpt lat="46.28434" lon="8.04428">
        <ele>1689.65</ele>
        <time>2012-08-05T09:02:33Z</time>
      </trkpt>
      <trkpt lat="46.28429" lon="8.0445">
        <ele>1688.69</ele>
        <time>2012-08-05T09:02:34Z</time>
      </trkpt>
      <trkpt lat="46.28427" lon="8.04471">
        <ele>1686.77</ele>
        <time>2012-08-05T09:02:35Z</time>
      </trkpt>
      <trkpt lat="46.28429" lon="8.04493">
        <ele>1685.33</ele>
        <time>2012-08-05T09:02:36Z</time>
      </trkpt>
      <trkpt lat="46.28434" lon="8.04514">
        <ele>1683.89</ele>
        <time>2012-08-05T09:02:37Z</time>
      </trkpt>
      <trkpt lat="46.28441" lon="8.04533">
        <ele>1682.93</ele>
        <time>2012-08-05T09:02:38Z</time>
      </trkpt>
      <trkpt lat="46.2845" lon="8.04549">
        <ele>1681.96</ele>
        <time>2012-08-05T09:02:39Z</time>
      </trkpt>
      <trkpt lat="46.2846" lon="8.04563">
        <ele>1681</ele>
        <time>2012-08-05T09:02:40Z</time>
      </trkpt>
      <trkpt lat="46.28471" lon="8.04572">
        <ele>1679.56</ele>
        <time>2012-08-05T09:02:41Z</time>
      </trkpt>
      <trkpt lat="46.28483" lon="8.04577">
        <ele>1678.12</ele>
        <time>2012-08-05T09:02:42Z</time>
      </trkpt>
      <trkpt lat="46.28496" lon="8.04578">
        <ele>1676.68</ele>
        <time>2012-08-05T09:02:43Z</time>
      </trkpt>
      <trkpt lat="46.2851" lon="8.04575">
        <ele>1675.23</ele>
        <time>2012-08-05T09:02:44Z</time>
      </trkpt>
      <trkpt lat="46.28523" lon="8.0457">
        <ele>1675.23</ele>
        <time>2012-08-05T09:02:45Z</time>
      </trkpt>
      <trkpt lat="46.28537" lon="8.04563">
        <ele>1673.79</ele>
        <time>2012-08-05T09:02:46Z</time>
      </trkpt>
      <trkpt lat="46.28578" lon="8.04541">
        <ele>1669.95</ele>
        <time>2012-08-05T09:02:49Z</time>
      </trkpt>
      <trkpt lat="46.28619" lon="8.04517">
        <ele>1666.58</ele>
        <time>2012-08-05T09:02:52Z</time>
      </trkpt>
      <trkpt lat="46.28659" lon="8.04476">
        <ele>1663.7</ele>
        <time>2012-08-05T09:02:55Z</time>
      </trkpt>
      <trkpt lat="46.28706" lon="8.04421">
        <ele>1659.85</ele>
        <time>2012-08-05T09:02:59Z</time>
      </trkpt>
      <trkpt lat="46.28719" lon="8.0441">
        <ele>1657.45</ele>
        <time>2012-08-05T09:03:00Z</time>
      </trkpt>
      <trkpt lat="46.28732" lon="8.04403">
        <ele>1656.97</ele>
        <time>2012-08-05T09:03:01Z</time>
      </trkpt>
      <trkpt lat="46.28746" lon="8.04398">
        <ele>1656.97</ele>
        <time>2012-08-05T09:03:02Z</time>
      </trkpt>
      <trkpt lat="46.2876" lon="8.04398">
        <ele>1654.57</ele>
        <time>2012-08-05T09:03:03Z</time>
      </trkpt>
      <trkpt lat="46.28774" lon="8.04402">
        <ele>1654.09</ele>
        <time>2012-08-05T09:03:04Z</time>
      </trkpt>
      <trkpt lat="46.28787" lon="8.04408">
        <ele>1653.12</ele>
        <time>2012-08-05T09:03:05Z</time>
      </trkpt>
      <trkpt lat="46.288" lon="8.04417">
        <ele>1652.64</ele>
        <time>2012-08-05T09:03:06Z</time>
      </trkpt>
      <trkpt lat="46.28813" lon="8.04429">
        <ele>1651.2</ele>
        <time>2012-08-05T09:03:07Z</time>
      </trkpt>
      <trkpt lat="46.28825" lon="8.04444">
        <ele>1648.8</ele>
        <time>2012-08-05T09:03:08Z</time>
      </trkpt>
      <trkpt lat="46.28835" lon="8.0446">
        <ele>1649.76</ele>
        <time>2012-08-05T09:03:09Z</time>
      </trkpt>
      <trkpt lat="46.28845" lon="8.04477">
        <ele>1648.8</ele>
        <time>2012-08-05T09:03:10Z</time>
      </trkpt>
      <trkpt lat="46.28854" lon="8.04498">
        <ele>1647.36</ele>
        <time>2012-08-05T09:03:11Z</time>
      </trkpt>
      <trkpt lat="46.28861" lon="8.0452">
        <ele>1646.4</ele>
        <time>2012-08-05T09:03:12Z</time>
      </trkpt>
      <trkpt lat="46.2888" lon="8.04588">
        <ele>1643.03</ele>
        <time>2012-08-05T09:03:15Z</time>
      </trkpt>
      <trkpt lat="46.28887" lon="8.04637">
        <ele>1642.07</ele>
        <time>2012-08-05T09:03:17Z</time>
      </trkpt>
      <trkpt lat="46.28893" lon="8.04688">
        <ele>1638.7</ele>
        <time>2012-08-05T09:03:19Z</time>
      </trkpt>
      <trkpt lat="46.289" lon="8.0476">
        <ele>1634.86</ele>
        <time>2012-08-05T09:03:22Z</time>
      </trkpt>
      <trkpt lat="46.28904" lon="8.04806">
        <ele>1631.98</ele>
        <time>2012-08-05T09:03:24Z</time>
      </trkpt>
      <trkpt lat="46.28909" lon="8.04849">
        <ele>1630.53</ele>
        <time>2012-08-05T09:03:26Z</time>
      </trkpt>
      <trkpt lat="46.28914" lon="8.0487">
        <ele>1629.09</ele>
        <time>2012-08-05T09:03:27Z</time>
      </trkpt>
      <trkpt lat="46.28923" lon="8.04888">
        <ele>1628.61</ele>
        <time>2012-08-05T09:03:28Z</time>
      </trkpt>
      <trkpt lat="46.28934" lon="8.04906">
        <ele>1627.17</ele>
        <time>2012-08-05T09:03:29Z</time>
      </trkpt>
      <trkpt lat="46.28946" lon="8.04921">
        <ele>1626.21</ele>
        <time>2012-08-05T09:03:30Z</time>
      </trkpt>
      <trkpt lat="46.2897" lon="8.04948">
        <ele>1623.8</ele>
        <time>2012-08-05T09:03:32Z</time>
      </trkpt>
      <trkpt lat="46.28979" lon="8.04964">
        <ele>1622.36</ele>
        <time>2012-08-05T09:03:33Z</time>
      </trkpt>
      <trkpt lat="46.28986" lon="8.04984">
        <ele>1622.36</ele>
        <time>2012-08-05T09:03:34Z</time>
      </trkpt>
      <trkpt lat="46.28989" lon="8.05007">
        <ele>1621.4</ele>
        <time>2012-08-05T09:03:35Z</time>
      </trkpt>
      <trkpt lat="46.2899" lon="8.05031">
        <ele>1619.96</ele>
        <time>2012-08-05T09:03:36Z</time>
      </trkpt>
      <trkpt lat="46.28988" lon="8.05055">
        <ele>1619</ele>
        <time>2012-08-05T09:03:37Z</time>
      </trkpt>
      <trkpt lat="46.28984" lon="8.0508">
        <ele>1618.04</ele>
        <time>2012-08-05T09:03:38Z</time>
      </trkpt>
      <trkpt lat="46.28979" lon="8.05103">
        <ele>1616.11</ele>
        <time>2012-08-05T09:03:39Z</time>
      </trkpt>
      <trkpt lat="46.28975" lon="8.05127">
        <ele>1615.15</ele>
        <time>2012-08-05T09:03:40Z</time>
      </trkpt>
      <trkpt lat="46.28973" lon="8.0515">
        <ele>1614.19</ele>
        <time>2012-08-05T09:03:41Z</time>
      </trkpt>
      <trkpt lat="46.28973" lon="8.05172">
        <ele>1612.27</ele>
        <time>2012-08-05T09:03:42Z</time>
      </trkpt>
      <trkpt lat="46.28976" lon="8.05194">
        <ele>1611.31</ele>
        <time>2012-08-05T09:03:43Z</time>
      </trkpt>
      <trkpt lat="46.28982" lon="8.05214">
        <ele>1609.86</ele>
        <time>2012-08-05T09:03:44Z</time>
      </trkpt>
      <trkpt lat="46.28992" lon="8.05232">
        <ele>1610.35</ele>
        <time>2012-08-05T09:03:45Z</time>
      </trkpt>
      <trkpt lat="46.29005" lon="8.05247">
        <ele>1608.9</ele>
        <time>2012-08-05T09:03:46Z</time>
      </trkpt>
      <trkpt lat="46.2902" lon="8.05258">
        <ele>1607.46</ele>
        <time>2012-08-05T09:03:47Z</time>
      </trkpt>
      <trkpt lat="46.29037" lon="8.05265">
        <ele>1606.02</ele>
        <time>2012-08-05T09:03:48Z</time>
      </trkpt>
      <trkpt lat="46.29054" lon="8.05268">
        <ele>1603.62</ele>
        <time>2012-08-05T09:03:49Z</time>
      </trkpt>
      <trkpt lat="46.29071" lon="8.05269">
        <ele>1602.17</ele>
        <time>2012-08-05T09:03:50Z</time>
      </trkpt>
      <trkpt lat="46.29104" lon="8.05276">
        <ele>1598.81</ele>
        <time>2012-08-05T09:03:52Z</time>
      </trkpt>
      <trkpt lat="46.29118" lon="8.05282">
        <ele>1596.89</ele>
        <time>2012-08-05T09:03:53Z</time>
      </trkpt>
      <trkpt lat="46.29132" lon="8.05292">
        <ele>1594.96</ele>
        <time>2012-08-05T09:03:54Z</time>
      </trkpt>
      <trkpt lat="46.29144" lon="8.05305">
        <ele>1594</ele>
        <time>2012-08-05T09:03:55Z</time>
      </trkpt>
      <trkpt lat="46.29154" lon="8.05322">
        <ele>1592.56</ele>
        <time>2012-08-05T09:03:56Z</time>
      </trkpt>
      <trkpt lat="46.29163" lon="8.05341">
        <ele>1592.56</ele>
        <time>2012-08-05T09:03:57Z</time>
      </trkpt>
      <trkpt lat="46.29169" lon="8.05361">
        <ele>1591.12</ele>
        <time>2012-08-05T09:03:58Z</time>
      </trkpt>
      <trkpt lat="46.29174" lon="8.05382">
        <ele>1591.12</ele>
        <time>2012-08-05T09:03:59Z</time>
      </trkpt>
      <trkpt lat="46.29181" lon="8.05423">
        <ele>1587.27</ele>
        <time>2012-08-05T09:04:01Z</time>
      </trkpt>
      <trkpt lat="46.29193" lon="8.05484">
        <ele>1584.87</ele>
        <time>2012-08-05T09:04:04Z</time>
      </trkpt>
      <trkpt lat="46.29198" lon="8.05504">
        <ele>1583.43</ele>
        <time>2012-08-05T09:04:05Z</time>
      </trkpt>
      <trkpt lat="46.29207" lon="8.05522">
        <ele>1582.47</ele>
        <time>2012-08-05T09:04:06Z</time>
      </trkpt>
      <trkpt lat="46.2925" lon="8.05587">
        <ele>1578.14</ele>
        <time>2012-08-05T09:04:10Z</time>
      </trkpt>
      <trkpt lat="46.29284" lon="8.05634">
        <ele>1575.26</ele>
        <time>2012-08-05T09:04:13Z</time>
      </trkpt>
      <trkpt lat="46.29319" lon="8.05681">
        <ele>1571.41</ele>
        <time>2012-08-05T09:04:16Z</time>
      </trkpt>
      <trkpt lat="46.29366" lon="8.05733">
        <ele>1567.57</ele>
        <time>2012-08-05T09:04:20Z</time>
      </trkpt>
      <trkpt lat="46.29389" lon="8.05761">
        <ele>1566.12</ele>
        <time>2012-08-05T09:04:22Z</time>
      </trkpt>
      <trkpt lat="46.29408" lon="8.05795">
        <ele>1563.24</ele>
        <time>2012-08-05T09:04:24Z</time>
      </trkpt>
      <trkpt lat="46.29414" lon="8.05815">
        <ele>1562.76</ele>
        <time>2012-08-05T09:04:25Z</time>
      </trkpt>
      <trkpt lat="46.29419" lon="8.05837">
        <ele>1562.28</ele>
        <time>2012-08-05T09:04:26Z</time>
      </trkpt>
      <trkpt lat="46.29423" lon="8.05861">
        <ele>1560.84</ele>
        <time>2012-08-05T09:04:27Z</time>
      </trkpt>
      <trkpt lat="46.29426" lon="8.05886">
        <ele>1560.36</ele>
        <time>2012-08-05T09:04:28Z</time>
      </trkpt>
      <trkpt lat="46.2943" lon="8.05955">
        <ele>1556.03</ele>
        <time>2012-08-05T09:04:31Z</time>
      </trkpt>
      <trkpt lat="46.29429" lon="8.05977">
        <ele>1555.07</ele>
        <time>2012-08-05T09:04:32Z</time>
      </trkpt>
      <trkpt lat="46.29426" lon="8.05998">
        <ele>1555.07</ele>
        <time>2012-08-05T09:04:33Z</time>
      </trkpt>
      <trkpt lat="46.29421" lon="8.06018">
        <ele>1553.63</ele>
        <time>2012-08-05T09:04:34Z</time>
      </trkpt>
      <trkpt lat="46.29414" lon="8.06037">
        <ele>1553.63</ele>
        <time>2012-08-05T09:04:35Z</time>
      </trkpt>
      <trkpt lat="46.29406" lon="8.06056">
        <ele>1553.15</ele>
        <time>2012-08-05T09:04:36Z</time>
      </trkpt>
      <trkpt lat="46.29397" lon="8.06073">
        <ele>1552.19</ele>
        <time>2012-08-05T09:04:37Z</time>
      </trkpt>
      <trkpt lat="46.29387" lon="8.06089">
        <ele>1551.71</ele>
        <time>2012-08-05T09:04:38Z</time>
      </trkpt>
      <trkpt lat="46.29378" lon="8.06104">
        <ele>1550.74</ele>
        <time>2012-08-05T09:04:39Z</time>
      </trkpt>
      <trkpt lat="46.2937" lon="8.06121">
        <ele>1550.26</ele>
        <time>2012-08-05T09:04:40Z</time>
      </trkpt>
      <trkpt lat="46.29365" lon="8.06139">
        <ele>1549.78</ele>
        <time>2012-08-05T09:04:41Z</time>
      </trkpt>
      <trkpt lat="46.29362" lon="8.06157">
        <ele>1548.82</ele>
        <time>2012-08-05T09:04:42Z</time>
      </trkpt>
      <trkpt lat="46.29362" lon="8.06175">
        <ele>1548.82</ele>
        <time>2012-08-05T09:04:43Z</time>
      </trkpt>
      <trkpt lat="46.29363" lon="8.06194">
        <ele>1549.3</ele>
        <time>2012-08-05T09:04:44Z</time>
      </trkpt>
      <trkpt lat="46.29367" lon="8.06212">
        <ele>1548.82</ele>
        <time>2012-08-05T09:04:45Z</time>
      </trkpt>
      <trkpt lat="46.29371" lon="8.0623">
        <ele>1546.9</ele>
        <time>2012-08-05T09:04:46Z</time>
      </trkpt>
      <trkpt lat="46.29376" lon="8.06246">
        <ele>1546.42</ele>
        <time>2012-08-05T09:04:47Z</time>
      </trkpt>
      <trkpt lat="46.29386" lon="8.06276">
        <ele>1545.46</ele>
        <time>2012-08-05T09:04:49Z</time>
      </trkpt>
      <trkpt lat="46.2941" lon="8.06334">
        <ele>1543.05</ele>
        <time>2012-08-05T09:04:53Z</time>
      </trkpt>
      <trkpt lat="46.29417" lon="8.06346">
        <ele>1542.57</ele>
        <time>2012-08-05T09:04:54Z</time>
      </trkpt>
      <trkpt lat="46.29425" lon="8.06355">
        <ele>1541.61</ele>
        <time>2012-08-05T09:04:55Z</time>
      </trkpt>
      <trkpt lat="46.29435" lon="8.0636">
        <ele>1540.65</ele>
        <time>2012-08-05T09:04:56Z</time>
      </trkpt>
      <trkpt lat="46.29447" lon="8.0636">
        <ele>1539.69</ele>
        <time>2012-08-05T09:04:57Z</time>
      </trkpt>
      <trkpt lat="46.29458" lon="8.06356">
        <ele>1539.21</ele>
        <time>2012-08-05T09:04:58Z</time>
      </trkpt>
      <trkpt lat="46.29469" lon="8.06346">
        <ele>1538.73</ele>
        <time>2012-08-05T09:04:59Z</time>
      </trkpt>
      <trkpt lat="46.29476" lon="8.06332">
        <ele>1537.29</ele>
        <time>2012-08-05T09:05:00Z</time>
      </trkpt>
      <trkpt lat="46.29481" lon="8.06316">
        <ele>1536.32</ele>
        <time>2012-08-05T09:05:01Z</time>
      </trkpt>
      <trkpt lat="46.29482" lon="8.06297">
        <ele>1535.36</ele>
        <time>2012-08-05T09:05:02Z</time>
      </trkpt>
      <trkpt lat="46.2948" lon="8.06278">
        <ele>1534.88</ele>
        <time>2012-08-05T09:05:03Z</time>
      </trkpt>
      <trkpt lat="46.29474" lon="8.06259">
        <ele>1534.88</ele>
        <time>2012-08-05T09:05:04Z</time>
      </trkpt>
      <trkpt lat="46.29466" lon="8.06243">
        <ele>1532.96</ele>
        <time>2012-08-05T09:05:05Z</time>
      </trkpt>
      <trkpt lat="46.29458" lon="8.06227">
        <ele>1531.52</ele>
        <time>2012-08-05T09:05:06Z</time>
      </trkpt>
      <trkpt lat="46.29443" lon="8.06199">
        <ele>1528.15</ele>
        <time>2012-08-05T09:05:08Z</time>
      </trkpt>
      <trkpt lat="46.29437" lon="8.06184">
        <ele>1525.27</ele>
        <time>2012-08-05T09:05:09Z</time>
      </trkpt>
      <trkpt lat="46.29433" lon="8.06169">
        <ele>1527.19</ele>
        <time>2012-08-05T09:05:10Z</time>
      </trkpt>
      <trkpt lat="46.29431" lon="8.06152">
        <ele>1525.27</ele>
        <time>2012-08-05T09:05:11Z</time>
      </trkpt>
      <trkpt lat="46.29432" lon="8.06136">
        <ele>1525.27</ele>
        <time>2012-08-05T09:05:12Z</time>
      </trkpt>
      <trkpt lat="46.29435" lon="8.06118">
        <ele>1524.31</ele>
        <time>2012-08-05T09:05:13Z</time>
      </trkpt>
      <trkpt lat="46.2944" lon="8.06101">
        <ele>1523.35</ele>
        <time>2012-08-05T09:05:14Z</time>
      </trkpt>
      <trkpt lat="46.29448" lon="8.06085">
        <ele>1520.94</ele>
        <time>2012-08-05T09:05:15Z</time>
      </trkpt>
      <trkpt lat="46.29457" lon="8.0607">
        <ele>1522.39</ele>
        <time>2012-08-05T09:05:16Z</time>
      </trkpt>
      <trkpt lat="46.29466" lon="8.06056">
        <ele>1520.46</ele>
        <time>2012-08-05T09:05:17Z</time>
      </trkpt>
      <trkpt lat="46.29484" lon="8.06029">
        <ele>1519.5</ele>
        <time>2012-08-05T09:05:19Z</time>
      </trkpt>
      <trkpt lat="46.29502" lon="8.05997">
        <ele>1518.06</ele>
        <time>2012-08-05T09:05:21Z</time>
      </trkpt>
      <trkpt lat="46.29517" lon="8.05961">
        <ele>1516.62</ele>
        <time>2012-08-05T09:05:23Z</time>
      </trkpt>
      <trkpt lat="46.2952" lon="8.05941">
        <ele>1516.62</ele>
        <time>2012-08-05T09:05:24Z</time>
      </trkpt>
      <trkpt lat="46.29521" lon="8.05919">
        <ele>1512.77</ele>
        <time>2012-08-05T09:05:25Z</time>
      </trkpt>
      <trkpt lat="46.29521" lon="8.05897">
        <ele>1511.81</ele>
        <time>2012-08-05T09:05:26Z</time>
      </trkpt>
      <trkpt lat="46.2952" lon="8.05875">
        <ele>1510.37</ele>
        <time>2012-08-05T09:05:27Z</time>
      </trkpt>
      <trkpt lat="46.29519" lon="8.05829">
        <ele>1507.48</ele>
        <time>2012-08-05T09:05:29Z</time>
      </trkpt>
      <trkpt lat="46.29522" lon="8.05805">
        <ele>1505.56</ele>
        <time>2012-08-05T09:05:30Z</time>
      </trkpt>
      <trkpt lat="46.29532" lon="8.05709">
        <ele>1502.2</ele>
        <time>2012-08-05T09:05:34Z</time>
      </trkpt>
      <trkpt lat="46.29531" lon="8.05661">
        <ele>1497.87</ele>
        <time>2012-08-05T09:05:36Z</time>
      </trkpt>
      <trkpt lat="46.29524" lon="8.05598">
        <ele>1493.55</ele>
        <time>2012-08-05T09:05:39Z</time>
      </trkpt>
      <trkpt lat="46.2951" lon="8.05533">
        <ele>1490.18</ele>
        <time>2012-08-05T09:05:42Z</time>
      </trkpt>
      <trkpt lat="46.29497" lon="8.05466">
        <ele>1486.34</ele>
        <time>2012-08-05T09:05:45Z</time>
      </trkpt>
      <trkpt lat="46.29489" lon="8.05401">
        <ele>1482.49</ele>
        <time>2012-08-05T09:05:48Z</time>
      </trkpt>
      <trkpt lat="46.29489" lon="8.05379">
        <ele>1479.61</ele>
        <time>2012-08-05T09:05:49Z</time>
      </trkpt>
      <trkpt lat="46.2949" lon="8.05356">
        <ele>1478.65</ele>
        <time>2012-08-05T09:05:50Z</time>
      </trkpt>
      <trkpt lat="46.29493" lon="8.05334">
        <ele>1477.68</ele>
        <time>2012-08-05T09:05:51Z</time>
      </trkpt>
      <trkpt lat="46.29497" lon="8.05312">
        <ele>1477.2</ele>
        <time>2012-08-05T09:05:52Z</time>
      </trkpt>
      <trkpt lat="46.29503" lon="8.0529">
        <ele>1475.76</ele>
        <time>2012-08-05T09:05:53Z</time>
      </trkpt>
      <trkpt lat="46.2951" lon="8.05269">
        <ele>1474.32</ele>
        <time>2012-08-05T09:05:54Z</time>
      </trkpt>
      <trkpt lat="46.29518" lon="8.05249">
        <ele>1473.36</ele>
        <time>2012-08-05T09:05:55Z</time>
      </trkpt>
      <trkpt lat="46.29527" lon="8.05232">
        <ele>1471.44</ele>
        <time>2012-08-05T09:05:56Z</time>
      </trkpt>
      <trkpt lat="46.29537" lon="8.05216">
        <ele>1470.47</ele>
        <time>2012-08-05T09:05:57Z</time>
      </trkpt>
      <trkpt lat="46.29547" lon="8.052">
        <ele>1469.51</ele>
        <time>2012-08-05T09:05:58Z</time>
      </trkpt>
      <trkpt lat="46.29559" lon="8.05185">
        <ele>1469.51</ele>
        <time>2012-08-05T09:05:59Z</time>
      </trkpt>
      <trkpt lat="46.29625" lon="8.05105">
        <ele>1466.15</ele>
        <time>2012-08-05T09:06:04Z</time>
      </trkpt>
      <trkpt lat="46.29638" lon="8.05088">
        <ele>1466.15</ele>
        <time>2012-08-05T09:06:05Z</time>
      </trkpt>
      <trkpt lat="46.29691" lon="8.05023">
        <ele>1461.34</ele>
        <time>2012-08-05T09:06:09Z</time>
      </trkpt>
      <trkpt lat="46.2973" lon="8.04974">
        <ele>1459.9</ele>
        <time>2012-08-05T09:06:12Z</time>
      </trkpt>
      <trkpt lat="46.29754" lon="8.04938">
        <ele>1457.02</ele>
        <time>2012-08-05T09:06:14Z</time>
      </trkpt>
      <trkpt lat="46.29765" lon="8.04918">
        <ele>1456.05</ele>
        <time>2012-08-05T09:06:15Z</time>
      </trkpt>
      <trkpt lat="46.29774" lon="8.04895">
        <ele>1455.57</ele>
        <time>2012-08-05T09:06:16Z</time>
      </trkpt>
      <trkpt lat="46.29783" lon="8.0487">
        <ele>1454.13</ele>
        <time>2012-08-05T09:06:17Z</time>
      </trkpt>
      <trkpt lat="46.29789" lon="8.04843">
        <ele>1453.65</ele>
        <time>2012-08-05T09:06:18Z</time>
      </trkpt>
      <trkpt lat="46.29793" lon="8.04814">
        <ele>1452.69</ele>
        <time>2012-08-05T09:06:19Z</time>
      </trkpt>
      <trkpt lat="46.29795" lon="8.04784">
        <ele>1452.21</ele>
        <time>2012-08-05T09:06:20Z</time>
      </trkpt>
      <trkpt lat="46.29794" lon="8.04753">
        <ele>1451.25</ele>
        <time>2012-08-05T09:06:21Z</time>
      </trkpt>
      <trkpt lat="46.29792" lon="8.04722">
        <ele>1448.84</ele>
        <time>2012-08-05T09:06:22Z</time>
      </trkpt>
      <trkpt lat="46.29788" lon="8.04692">
        <ele>1448.84</ele>
        <time>2012-08-05T09:06:23Z</time>
      </trkpt>
      <trkpt lat="46.29776" lon="8.04601">
        <ele>1444.04</ele>
        <time>2012-08-05T09:06:26Z</time>
      </trkpt>
      <trkpt lat="46.29769" lon="8.0454">
        <ele>1439.71</ele>
        <time>2012-08-05T09:06:28Z</time>
      </trkpt>
      <trkpt lat="46.29765" lon="8.04509">
        <ele>1440.19</ele>
        <time>2012-08-05T09:06:29Z</time>
      </trkpt>
      <trkpt lat="46.29762" lon="8.04479">
        <ele>1436.35</ele>
        <time>2012-08-05T09:06:30Z</time>
      </trkpt>
      <trkpt lat="46.29757" lon="8.04419">
        <ele>1432.02</ele>
        <time>2012-08-05T09:06:32Z</time>
      </trkpt>
      <trkpt lat="46.29756" lon="8.04389">
        <ele>1431.54</ele>
        <time>2012-08-05T09:06:33Z</time>
      </trkpt>
      <trkpt lat="46.29757" lon="8.04327">
        <ele>1427.21</ele>
        <time>2012-08-05T09:06:35Z</time>
      </trkpt>
      <trkpt lat="46.29766" lon="8.04233">
        <ele>1422.89</ele>
        <time>2012-08-05T09:06:38Z</time>
      </trkpt>
      <trkpt lat="46.29774" lon="8.0417">
        <ele>1418.08</ele>
        <time>2012-08-05T09:06:40Z</time>
      </trkpt>
      <trkpt lat="46.29782" lon="8.04109">
        <ele>1414.24</ele>
        <time>2012-08-05T09:06:42Z</time>
      </trkpt>
      <trkpt lat="46.29791" lon="8.04018">
        <ele>1407.03</ele>
        <time>2012-08-05T09:06:45Z</time>
      </trkpt>
      <trkpt lat="46.29791" lon="8.03988">
        <ele>1406.07</ele>
        <time>2012-08-05T09:06:46Z</time>
      </trkpt>
      <trkpt lat="46.2979" lon="8.03957">
        <ele>1402.7</ele>
        <time>2012-08-05T09:06:47Z</time>
      </trkpt>
      <trkpt lat="46.29786" lon="8.03925">
        <ele>1402.7</ele>
        <time>2012-08-05T09:06:48Z</time>
      </trkpt>
      <trkpt lat="46.29782" lon="8.03894">
        <ele>1400.78</ele>
        <time>2012-08-05T09:06:49Z</time>
      </trkpt>
      <trkpt lat="46.29776" lon="8.038">
        <ele>1397.41</ele>
        <time>2012-08-05T09:06:52Z</time>
      </trkpt>
      <trkpt lat="46.29765" lon="8.03669">
        <ele>1394.05</ele>
        <time>2012-08-05T09:06:56Z</time>
      </trkpt>
      <trkpt lat="46.29755" lon="8.03605">
        <ele>1390.68</ele>
        <time>2012-08-05T09:06:58Z</time>
      </trkpt>
      <trkpt lat="46.29747" lon="8.03511">
        <ele>1387.32</ele>
        <time>2012-08-05T09:07:01Z</time>
      </trkpt>
      <trkpt lat="46.29746" lon="8.03416">
        <ele>1384.44</ele>
        <time>2012-08-05T09:07:04Z</time>
      </trkpt>
      <trkpt lat="46.29739" lon="8.03321">
        <ele>1381.55</ele>
        <time>2012-08-05T09:07:07Z</time>
      </trkpt>
      <trkpt lat="46.29727" lon="8.03199">
        <ele>1377.71</ele>
        <time>2012-08-05T09:07:11Z</time>
      </trkpt>
      <trkpt lat="46.29725" lon="8.03168">
        <ele>1377.71</ele>
        <time>2012-08-05T09:07:12Z</time>
      </trkpt>
      <trkpt lat="46.29721" lon="8.03107">
        <ele>1374.82</ele>
        <time>2012-08-05T09:07:14Z</time>
      </trkpt>
      <trkpt lat="46.29714" lon="8.03017">
        <ele>1371.94</ele>
        <time>2012-08-05T09:07:17Z</time>
      </trkpt>
      <trkpt lat="46.29689" lon="8.02896">
        <ele>1368.57</ele>
        <time>2012-08-05T09:07:21Z</time>
      </trkpt>
      <trkpt lat="46.29642" lon="8.02735">
        <ele>1364.73</ele>
        <time>2012-08-05T09:07:26Z</time>
      </trkpt>
      <trkpt lat="46.29621" lon="8.02674">
        <ele>1360.88</ele>
        <time>2012-08-05T09:07:28Z</time>
      </trkpt>
      <trkpt lat="46.29598" lon="8.0262">
        <ele>1357.52</ele>
        <time>2012-08-05T09:07:30Z</time>
      </trkpt>
      <trkpt lat="46.29586" lon="8.02597">
        <ele>1357.04</ele>
        <time>2012-08-05T09:07:31Z</time>
      </trkpt>
      <trkpt lat="46.29572" lon="8.02576">
        <ele>1355.12</ele>
        <time>2012-08-05T09:07:32Z</time>
      </trkpt>
      <trkpt lat="46.29556" lon="8.02557">
        <ele>1354.15</ele>
        <time>2012-08-05T09:07:33Z</time>
      </trkpt>
      <trkpt lat="46.29539" lon="8.0254">
        <ele>1353.19</ele>
        <time>2012-08-05T09:07:34Z</time>
      </trkpt>
      <trkpt lat="46.29522" lon="8.02525">
        <ele>1351.27</ele>
        <time>2012-08-05T09:07:35Z</time>
      </trkpt>
      <trkpt lat="46.29505" lon="8.02511">
        <ele>1349.83</ele>
        <time>2012-08-05T09:07:36Z</time>
      </trkpt>
      <trkpt lat="46.29474" lon="8.0248">
        <ele>1348.39</ele>
        <time>2012-08-05T09:07:38Z</time>
      </trkpt>
      <trkpt lat="46.29458" lon="8.0246">
        <ele>1348.39</ele>
        <time>2012-08-05T09:07:39Z</time>
      </trkpt>
      <trkpt lat="46.29429" lon="8.02414">
        <ele>1345.02</ele>
        <time>2012-08-05T09:07:41Z</time>
      </trkpt>
      <trkpt lat="46.29405" lon="8.02371">
        <ele>1341.66</ele>
        <time>2012-08-05T09:07:43Z</time>
      </trkpt>
      <trkpt lat="46.29396" lon="8.02351">
        <ele>1340.7</ele>
        <time>2012-08-05T09:07:44Z</time>
      </trkpt>
      <trkpt lat="46.2939" lon="8.02329">
        <ele>1338.77</ele>
        <time>2012-08-05T09:07:45Z</time>
      </trkpt>
      <trkpt lat="46.29387" lon="8.02307">
        <ele>1336.85</ele>
        <time>2012-08-05T09:07:46Z</time>
      </trkpt>
      <trkpt lat="46.29386" lon="8.02285">
        <ele>1336.37</ele>
        <time>2012-08-05T09:07:47Z</time>
      </trkpt>
      <trkpt lat="46.29387" lon="8.02264">
        <ele>1335.41</ele>
        <time>2012-08-05T09:07:48Z</time>
      </trkpt>
      <trkpt lat="46.29392" lon="8.02243">
        <ele>1334.93</ele>
        <time>2012-08-05T09:07:49Z</time>
      </trkpt>
      <trkpt lat="46.29399" lon="8.02224">
        <ele>1333.01</ele>
        <time>2012-08-05T09:07:50Z</time>
      </trkpt>
      <trkpt lat="46.29408" lon="8.02207">
        <ele>1332.52</ele>
        <time>2012-08-05T09:07:51Z</time>
      </trkpt>
      <trkpt lat="46.2942" lon="8.02191">
        <ele>1332.52</ele>
        <time>2012-08-05T09:07:52Z</time>
      </trkpt>
      <trkpt lat="46.29436" lon="8.02178">
        <ele>1333.49</ele>
        <time>2012-08-05T09:07:53Z</time>
      </trkpt>
      <trkpt lat="46.29454" lon="8.02166">
        <ele>1332.52</ele>
        <time>2012-08-05T09:07:54Z</time>
      </trkpt>
      <trkpt lat="46.29472" lon="8.02157">
        <ele>1330.12</ele>
        <time>2012-08-05T09:07:55Z</time>
      </trkpt>
      <trkpt lat="46.29507" lon="8.02137">
        <ele>1326.28</ele>
        <time>2012-08-05T09:07:57Z</time>
      </trkpt>
      <trkpt lat="46.2954" lon="8.0212">
        <ele>1321.95</ele>
        <time>2012-08-05T09:07:59Z</time>
      </trkpt>
      <trkpt lat="46.29568" lon="8.02105">
        <ele>1318.59</ele>
        <time>2012-08-05T09:08:01Z</time>
      </trkpt>
      <trkpt lat="46.29602" lon="8.02084">
        <ele>1315.22</ele>
        <time>2012-08-05T09:08:04Z</time>
      </trkpt>
      <trkpt lat="46.29619" lon="8.02075">
        <ele>1312.34</ele>
        <time>2012-08-05T09:08:07Z</time>
      </trkpt>
      <trkpt lat="46.29624" lon="8.02074">
        <ele>1311.38</ele>
        <time>2012-08-05T09:08:10Z</time>
      </trkpt>
      <trkpt lat="46.29627" lon="8.02072">
        <ele>1310.9</ele>
        <time>2012-08-05T09:08:11Z</time>
      </trkpt>
      <trkpt lat="46.29629" lon="8.02066">
        <ele>1310.9</ele>
        <time>2012-08-05T09:08:12Z</time>
      </trkpt>
      <trkpt lat="46.2963" lon="8.0206">
        <ele>1310.41</ele>
        <time>2012-08-05T09:08:13Z</time>
      </trkpt>
      <trkpt lat="46.29629" lon="8.02054">
        <ele>1309.45</ele>
        <time>2012-08-05T09:08:14Z</time>
      </trkpt>
      <trkpt lat="46.29628" lon="8.02048">
        <ele>1309.45</ele>
        <time>2012-08-05T09:08:15Z</time>
      </trkpt>
      <trkpt lat="46.29628" lon="8.02043">
        <ele>1309.45</ele>
        <time>2012-08-05T09:08:16Z</time>
      </trkpt>
      <trkpt lat="46.29631" lon="8.02038">
        <ele>1309.45</ele>
        <time>2012-08-05T09:08:17Z</time>
      </trkpt>
      <trkpt lat="46.29637" lon="8.02036">
        <ele>1309.45</ele>
        <time>2012-08-05T09:08:18Z</time>
      </trkpt>
      <trkpt lat="46.29646" lon="8.02035">
        <ele>1309.93</ele>
        <time>2012-08-05T09:08:19Z</time>
      </trkpt>
      <trkpt lat="46.29655" lon="8.02032">
        <ele>1308.97</ele>
        <time>2012-08-05T09:08:20Z</time>
      </trkpt>
      <trkpt lat="46.29665" lon="8.02028">
        <ele>1308.49</ele>
        <time>2012-08-05T09:08:21Z</time>
      </trkpt>
      <trkpt lat="46.29674" lon="8.02022">
        <ele>1308.49</ele>
        <time>2012-08-05T09:08:22Z</time>
      </trkpt>
      <trkpt lat="46.29684" lon="8.02014">
        <ele>1308.01</ele>
        <time>2012-08-05T09:08:23Z</time>
      </trkpt>
      <trkpt lat="46.29694" lon="8.02005">
        <ele>1307.53</ele>
        <time>2012-08-05T09:08:24Z</time>
      </trkpt>
      <trkpt lat="46.29724" lon="8.0198">
        <ele>1305.61</ele>
        <time>2012-08-05T09:08:27Z</time>
      </trkpt>
      <trkpt lat="46.29741" lon="8.01966">
        <ele>1303.2</ele>
        <time>2012-08-05T09:08:29Z</time>
      </trkpt>
      <trkpt lat="46.29748" lon="8.01956">
        <ele>1302.72</ele>
        <time>2012-08-05T09:08:30Z</time>
      </trkpt>
      <trkpt lat="46.29754" lon="8.01945">
        <ele>1301.76</ele>
        <time>2012-08-05T09:08:31Z</time>
      </trkpt>
      <trkpt lat="46.29758" lon="8.01931">
        <ele>1300.8</ele>
        <time>2012-08-05T09:08:32Z</time>
      </trkpt>
      <trkpt lat="46.2976" lon="8.01917">
        <ele>1300.32</ele>
        <time>2012-08-05T09:08:33Z</time>
      </trkpt>
      <trkpt lat="46.29759" lon="8.01904">
        <ele>1299.84</ele>
        <time>2012-08-05T09:08:34Z</time>
      </trkpt>
      <trkpt lat="46.29756" lon="8.0189">
        <ele>1299.84</ele>
        <time>2012-08-05T09:08:35Z</time>
      </trkpt>
      <trkpt lat="46.29754" lon="8.01877">
        <ele>1298.88</ele>
        <time>2012-08-05T09:08:36Z</time>
      </trkpt>
      <trkpt lat="46.29754" lon="8.01863">
        <ele>1298.88</ele>
        <time>2012-08-05T09:08:37Z</time>
      </trkpt>
      <trkpt lat="46.29755" lon="8.01847">
        <ele>1297.92</ele>
        <time>2012-08-05T09:08:38Z</time>
      </trkpt>
      <trkpt lat="46.29757" lon="8.0183">
        <ele>1297.44</ele>
        <time>2012-08-05T09:08:39Z</time>
      </trkpt>
      <trkpt lat="46.29758" lon="8.0181">
        <ele>1296.48</ele>
        <time>2012-08-05T09:08:40Z</time>
      </trkpt>
      <trkpt lat="46.29758" lon="8.01791">
        <ele>1295.03</ele>
        <time>2012-08-05T09:08:41Z</time>
      </trkpt>
      <trkpt lat="46.29757" lon="8.01772">
        <ele>1293.59</ele>
        <time>2012-08-05T09:08:42Z</time>
      </trkpt>
      <trkpt lat="46.29755" lon="8.01753">
        <ele>1292.15</ele>
        <time>2012-08-05T09:08:43Z</time>
      </trkpt>
      <trkpt lat="46.29752" lon="8.01736">
        <ele>1291.19</ele>
        <time>2012-08-05T09:08:44Z</time>
      </trkpt>
      <trkpt lat="46.29744" lon="8.01666">
        <ele>1288.3</ele>
        <time>2012-08-05T09:08:48Z</time>
      </trkpt>
      <trkpt lat="46.29745" lon="8.01649">
        <ele>1287.34</ele>
        <time>2012-08-05T09:08:49Z</time>
      </trkpt>
      <trkpt lat="46.29747" lon="8.01633">
        <ele>1286.86</ele>
        <time>2012-08-05T09:08:50Z</time>
      </trkpt>
      <trkpt lat="46.2975" lon="8.01619">
        <ele>1285.9</ele>
        <time>2012-08-05T09:08:51Z</time>
      </trkpt>
      <trkpt lat="46.29754" lon="8.01606">
        <ele>1284.46</ele>
        <time>2012-08-05T09:08:52Z</time>
      </trkpt>
      <trkpt lat="46.29759" lon="8.01595">
        <ele>1283.5</ele>
        <time>2012-08-05T09:08:53Z</time>
      </trkpt>
      <trkpt lat="46.29767" lon="8.01586">
        <ele>1283.98</ele>
        <time>2012-08-05T09:08:54Z</time>
      </trkpt>
      <trkpt lat="46.29777" lon="8.01577">
        <ele>1283.02</ele>
        <time>2012-08-05T09:08:55Z</time>
      </trkpt>
      <trkpt lat="46.29788" lon="8.0157">
        <ele>1282.54</ele>
        <time>2012-08-05T09:08:56Z</time>
      </trkpt>
      <trkpt lat="46.29799" lon="8.01563">
        <ele>1281.57</ele>
        <time>2012-08-05T09:08:57Z</time>
      </trkpt>
      <trkpt lat="46.29822" lon="8.01551">
        <ele>1279.65</ele>
        <time>2012-08-05T09:08:59Z</time>
      </trkpt>
      <trkpt lat="46.29834" lon="8.01547">
        <ele>1278.69</ele>
        <time>2012-08-05T09:09:00Z</time>
      </trkpt>
      <trkpt lat="46.29847" lon="8.01545">
        <ele>1277.73</ele>
        <time>2012-08-05T09:09:01Z</time>
      </trkpt>
      <trkpt lat="46.2986" lon="8.01544">
        <ele>1275.81</ele>
        <time>2012-08-05T09:09:02Z</time>
      </trkpt>
      <trkpt lat="46.29872" lon="8.01544">
        <ele>1274.85</ele>
        <time>2012-08-05T09:09:03Z</time>
      </trkpt>
      <trkpt lat="46.29885" lon="8.0154">
        <ele>1273.4</ele>
        <time>2012-08-05T09:09:04Z</time>
      </trkpt>
      <trkpt lat="46.29897" lon="8.01534">
        <ele>1272.92</ele>
        <time>2012-08-05T09:09:05Z</time>
      </trkpt>
      <trkpt lat="46.29909" lon="8.01525">
        <ele>1271.48</ele>
        <time>2012-08-05T09:09:06Z</time>
      </trkpt>
      <trkpt lat="46.2992" lon="8.01517">
        <ele>1269.08</ele>
        <time>2012-08-05T09:09:07Z</time>
      </trkpt>
      <trkpt lat="46.29931" lon="8.01511">
        <ele>1266.67</ele>
        <time>2012-08-05T09:09:08Z</time>
      </trkpt>
      <trkpt lat="46.29942" lon="8.01509">
        <ele>1265.23</ele>
        <time>2012-08-05T09:09:09Z</time>
      </trkpt>
      <trkpt lat="46.29956" lon="8.0151">
        <ele>1264.27</ele>
        <time>2012-08-05T09:09:10Z</time>
      </trkpt>
      <trkpt lat="46.2997" lon="8.01513">
        <ele>1263.79</ele>
        <time>2012-08-05T09:09:11Z</time>
      </trkpt>
      <trkpt lat="46.29998" lon="8.01515">
        <ele>1262.83</ele>
        <time>2012-08-05T09:09:13Z</time>
      </trkpt>
      <trkpt lat="46.30011" lon="8.01513">
        <ele>1260.43</ele>
        <time>2012-08-05T09:09:14Z</time>
      </trkpt>
      <trkpt lat="46.30023" lon="8.0151">
        <ele>1259.46</ele>
        <time>2012-08-05T09:09:15Z</time>
      </trkpt>
      <trkpt lat="46.30035" lon="8.01503">
        <ele>1258.98</ele>
        <time>2012-08-05T09:09:16Z</time>
      </trkpt>
      <trkpt lat="46.30044" lon="8.01494">
        <ele>1258.02</ele>
        <time>2012-08-05T09:09:17Z</time>
      </trkpt>
      <trkpt lat="46.30052" lon="8.01483">
        <ele>1256.58</ele>
        <time>2012-08-05T09:09:18Z</time>
      </trkpt>
      <trkpt lat="46.30059" lon="8.01475">
        <ele>1256.1</ele>
        <time>2012-08-05T09:09:19Z</time>
      </trkpt>
      <trkpt lat="46.30068" lon="8.0147">
        <ele>1255.14</ele>
        <time>2012-08-05T09:09:20Z</time>
      </trkpt>
      <trkpt lat="46.30077" lon="8.01469">
        <ele>1255.62</ele>
        <time>2012-08-05T09:09:21Z</time>
      </trkpt>
      <trkpt lat="46.30087" lon="8.01471">
        <ele>1253.7</ele>
        <time>2012-08-05T09:09:22Z</time>
      </trkpt>
      <trkpt lat="46.30098" lon="8.01479">
        <ele>1251.77</ele>
        <time>2012-08-05T09:09:23Z</time>
      </trkpt>
      <trkpt lat="46.3011" lon="8.01488">
        <ele>1250.81</ele>
        <time>2012-08-05T09:09:24Z</time>
      </trkpt>
      <trkpt lat="46.30121" lon="8.015">
        <ele>1249.85</ele>
        <time>2012-08-05T09:09:25Z</time>
      </trkpt>
      <trkpt lat="46.30132" lon="8.01513">
        <ele>1249.85</ele>
        <time>2012-08-05T09:09:26Z</time>
      </trkpt>
      <trkpt lat="46.30142" lon="8.01527">
        <ele>1248.89</ele>
        <time>2012-08-05T09:09:27Z</time>
      </trkpt>
      <trkpt lat="46.30152" lon="8.01542">
        <ele>1248.41</ele>
        <time>2012-08-05T09:09:28Z</time>
      </trkpt>
      <trkpt lat="46.3016" lon="8.01559">
        <ele>1246.01</ele>
        <time>2012-08-05T09:09:29Z</time>
      </trkpt>
      <trkpt lat="46.30175" lon="8.01592">
        <ele>1243.12</ele>
        <time>2012-08-05T09:09:31Z</time>
      </trkpt>
      <trkpt lat="46.3018" lon="8.01611">
        <ele>1242.16</ele>
        <time>2012-08-05T09:09:32Z</time>
      </trkpt>
      <trkpt lat="46.30197" lon="8.01691">
        <ele>1238.32</ele>
        <time>2012-08-05T09:09:36Z</time>
      </trkpt>
      <trkpt lat="46.30202" lon="8.01708">
        <ele>1236.39</ele>
        <time>2012-08-05T09:09:37Z</time>
      </trkpt>
      <trkpt lat="46.30208" lon="8.01724">
        <ele>1234.95</ele>
        <time>2012-08-05T09:09:38Z</time>
      </trkpt>
      <trkpt lat="46.30217" lon="8.01737">
        <ele>1232.55</ele>
        <time>2012-08-05T09:09:39Z</time>
      </trkpt>
      <trkpt lat="46.30227" lon="8.01746">
        <ele>1230.14</ele>
        <time>2012-08-05T09:09:40Z</time>
      </trkpt>
      <trkpt lat="46.30234" lon="8.01754">
        <ele>1229.18</ele>
        <time>2012-08-05T09:09:41Z</time>
      </trkpt>
      <trkpt lat="46.30239" lon="8.01766">
        <ele>1227.26</ele>
        <time>2012-08-05T09:09:42Z</time>
      </trkpt>
      <trkpt lat="46.30242" lon="8.01779">
        <ele>1226.3</ele>
        <time>2012-08-05T09:09:43Z</time>
      </trkpt>
      <trkpt lat="46.30241" lon="8.01795">
        <ele>1225.82</ele>
        <time>2012-08-05T09:09:44Z</time>
      </trkpt>
      <trkpt lat="46.30242" lon="8.01814">
        <ele>1225.34</ele>
        <time>2012-08-05T09:09:45Z</time>
      </trkpt>
      <trkpt lat="46.30244" lon="8.01835">
        <ele>1224.38</ele>
        <time>2012-08-05T09:09:46Z</time>
      </trkpt>
      <trkpt lat="46.30248" lon="8.01855">
        <ele>1223.42</ele>
        <time>2012-08-05T09:09:47Z</time>
      </trkpt>
      <trkpt lat="46.30254" lon="8.01875">
        <ele>1221.97</ele>
        <time>2012-08-05T09:09:48Z</time>
      </trkpt>
      <trkpt lat="46.30262" lon="8.01894">
        <ele>1219.57</ele>
        <time>2012-08-05T09:09:49Z</time>
      </trkpt>
      <trkpt lat="46.30272" lon="8.0191">
        <ele>1219.09</ele>
        <time>2012-08-05T09:09:50Z</time>
      </trkpt>
      <trkpt lat="46.30287" lon="8.01924">
        <ele>1215.72</ele>
        <time>2012-08-05T09:09:51Z</time>
      </trkpt>
      <trkpt lat="46.30302" lon="8.01936">
        <ele>1214.76</ele>
        <time>2012-08-05T09:09:52Z</time>
      </trkpt>
      <trkpt lat="46.30315" lon="8.0195">
        <ele>1211.4</ele>
        <time>2012-08-05T09:09:53Z</time>
      </trkpt>
      <trkpt lat="46.30327" lon="8.01966">
        <ele>1208.51</ele>
        <time>2012-08-05T09:09:54Z</time>
      </trkpt>
      <trkpt lat="46.3035" lon="8.01995">
        <ele>1205.63</ele>
        <time>2012-08-05T09:09:56Z</time>
      </trkpt>
      <trkpt lat="46.30363" lon="8.02004">
        <ele>1205.15</ele>
        <time>2012-08-05T09:09:57Z</time>
      </trkpt>
      <trkpt lat="46.3039" lon="8.02017">
        <ele>1201.3</ele>
        <time>2012-08-05T09:09:59Z</time>
      </trkpt>
      <trkpt lat="46.304" lon="8.02025">
        <ele>1199.38</ele>
        <time>2012-08-05T09:10:00Z</time>
      </trkpt>
      <trkpt lat="46.30409" lon="8.02034">
        <ele>1197.94</ele>
        <time>2012-08-05T09:10:01Z</time>
      </trkpt>
      <trkpt lat="46.30416" lon="8.02047">
        <ele>1196.98</ele>
        <time>2012-08-05T09:10:02Z</time>
      </trkpt>
      <trkpt lat="46.30422" lon="8.02062">
        <ele>1196.02</ele>
        <time>2012-08-05T09:10:03Z</time>
      </trkpt>
      <trkpt lat="46.30432" lon="8.02076">
        <ele>1195.54</ele>
        <time>2012-08-05T09:10:04Z</time>
      </trkpt>
      <trkpt lat="46.30445" lon="8.02088">
        <ele>1193.61</ele>
        <time>2012-08-05T09:10:05Z</time>
      </trkpt>
      <trkpt lat="46.30458" lon="8.02098">
        <ele>1190.73</ele>
        <time>2012-08-05T09:10:06Z</time>
      </trkpt>
      <trkpt lat="46.30469" lon="8.02109">
        <ele>1188.33</ele>
        <time>2012-08-05T09:10:07Z</time>
      </trkpt>
      <trkpt lat="46.30479" lon="8.02122">
        <ele>1185.92</ele>
        <time>2012-08-05T09:10:08Z</time>
      </trkpt>
      <trkpt lat="46.30487" lon="8.02138">
        <ele>1184.96</ele>
        <time>2012-08-05T09:10:09Z</time>
      </trkpt>
      <trkpt lat="46.30492" lon="8.02154">
        <ele>1183.52</ele>
        <time>2012-08-05T09:10:10Z</time>
      </trkpt>
      <trkpt lat="46.30496" lon="8.02169">
        <ele>1181.12</ele>
        <time>2012-08-05T09:10:11Z</time>
      </trkpt>
      <trkpt lat="46.305" lon="8.02181">
        <ele>1179.67</ele>
        <time>2012-08-05T09:10:12Z</time>
      </trkpt>
      <trkpt lat="46.30509" lon="8.0219">
        <ele>1179.19</ele>
        <time>2012-08-05T09:10:13Z</time>
      </trkpt>
      <trkpt lat="46.30522" lon="8.02194">
        <ele>1178.23</ele>
        <time>2012-08-05T09:10:14Z</time>
      </trkpt>
      <trkpt lat="46.30538" lon="8.02192">
        <ele>1178.23</ele>
        <time>2012-08-05T09:10:15Z</time>
      </trkpt>
      <trkpt lat="46.30553" lon="8.02188">
        <ele>1177.27</ele>
        <time>2012-08-05T09:10:16Z</time>
      </trkpt>
      <trkpt lat="46.30566" lon="8.02186">
        <ele>1174.87</ele>
        <time>2012-08-05T09:10:17Z</time>
      </trkpt>
      <trkpt lat="46.30577" lon="8.02185">
        <ele>1173.43</ele>
        <time>2012-08-05T09:10:18Z</time>
      </trkpt>
      <trkpt lat="46.30587" lon="8.02187">
        <ele>1170.54</ele>
        <time>2012-08-05T09:10:19Z</time>
      </trkpt>
      <trkpt lat="46.30594" lon="8.02193">
        <ele>1171.02</ele>
        <time>2012-08-05T09:10:20Z</time>
      </trkpt>
      <trkpt lat="46.30598" lon="8.02203">
        <ele>1169.58</ele>
        <time>2012-08-05T09:10:21Z</time>
      </trkpt>
      <trkpt lat="46.30598" lon="8.02218">
        <ele>1168.14</ele>
        <time>2012-08-05T09:10:22Z</time>
      </trkpt>
      <trkpt lat="46.30596" lon="8.02232">
        <ele>1166.22</ele>
        <time>2012-08-05T09:10:23Z</time>
      </trkpt>
      <trkpt lat="46.30594" lon="8.02245">
        <ele>1164.77</ele>
        <time>2012-08-05T09:10:24Z</time>
      </trkpt>
      <trkpt lat="46.30593" lon="8.02257">
        <ele>1163.81</ele>
        <time>2012-08-05T09:10:25Z</time>
      </trkpt>
      <trkpt lat="46.30595" lon="8.02267">
        <ele>1163.33</ele>
        <time>2012-08-05T09:10:26Z</time>
      </trkpt>
      <trkpt lat="46.30601" lon="8.02272">
        <ele>1162.85</ele>
        <time>2012-08-05T09:10:27Z</time>
      </trkpt>
      <trkpt lat="46.30609" lon="8.02274">
        <ele>1162.37</ele>
        <time>2012-08-05T09:10:28Z</time>
      </trkpt>
      <trkpt lat="46.30617" lon="8.02277">
        <ele>1161.41</ele>
        <time>2012-08-05T09:10:29Z</time>
      </trkpt>
      <trkpt lat="46.30621" lon="8.02283">
        <ele>1159.97</ele>
        <time>2012-08-05T09:10:30Z</time>
      </trkpt>
      <trkpt lat="46.30623" lon="8.02294">
        <ele>1159.01</ele>
        <time>2012-08-05T09:10:31Z</time>
      </trkpt>
      <trkpt lat="46.30624" lon="8.02307">
        <ele>1158.05</ele>
        <time>2012-08-05T09:10:32Z</time>
      </trkpt>
      <trkpt lat="46.30628" lon="8.02318">
        <ele>1157.08</ele>
        <time>2012-08-05T09:10:33Z</time>
      </trkpt>
      <trkpt lat="46.30635" lon="8.02325">
        <ele>1156.12</ele>
        <time>2012-08-05T09:10:34Z</time>
      </trkpt>
      <trkpt lat="46.30645" lon="8.02327">
        <ele>1156.12</ele>
        <time>2012-08-05T09:10:35Z</time>
      </trkpt>
      <trkpt lat="46.30657" lon="8.02325">
        <ele>1153.72</ele>
        <time>2012-08-05T09:10:36Z</time>
      </trkpt>
      <trkpt lat="46.30668" lon="8.02322">
        <ele>1152.76</ele>
        <time>2012-08-05T09:10:37Z</time>
      </trkpt>
      <trkpt lat="46.30679" lon="8.02319">
        <ele>1151.32</ele>
        <time>2012-08-05T09:10:38Z</time>
      </trkpt>
      <trkpt lat="46.30688" lon="8.02316">
        <ele>1150.84</ele>
        <time>2012-08-05T09:10:39Z</time>
      </trkpt>
      <trkpt lat="46.30696" lon="8.02314">
        <ele>1148.91</ele>
        <time>2012-08-05T09:10:40Z</time>
      </trkpt>
      <trkpt lat="46.30704" lon="8.02315">
        <ele>1148.43</ele>
        <time>2012-08-05T09:10:41Z</time>
      </trkpt>
      <trkpt lat="46.30712" lon="8.02321">
        <ele>1147.47</ele>
        <time>2012-08-05T09:10:42Z</time>
      </trkpt>
      <trkpt lat="46.30716" lon="8.02332">
        <ele>1146.51</ele>
        <time>2012-08-05T09:10:43Z</time>
      </trkpt>
      <trkpt lat="46.30718" lon="8.02345">
        <ele>1144.59</ele>
        <time>2012-08-05T09:10:44Z</time>
      </trkpt>
      <trkpt lat="46.30719" lon="8.02359">
        <ele>1143.63</ele>
        <time>2012-08-05T09:10:45Z</time>
      </trkpt>
      <trkpt lat="46.30721" lon="8.02373">
        <ele>1142.66</ele>
        <time>2012-08-05T09:10:46Z</time>
      </trkpt>
      <trkpt lat="46.30726" lon="8.02385">
        <ele>1141.22</ele>
        <time>2012-08-05T09:10:47Z</time>
      </trkpt>
      <trkpt lat="46.30734" lon="8.02394">
        <ele>1141.22</ele>
        <time>2012-08-05T09:10:48Z</time>
      </trkpt>
      <trkpt lat="46.30743" lon="8.02398">
        <ele>1139.78</ele>
        <time>2012-08-05T09:10:49Z</time>
      </trkpt>
      <trkpt lat="46.30753" lon="8.02398">
        <ele>1137.86</ele>
        <time>2012-08-05T09:10:50Z</time>
      </trkpt>
      <trkpt lat="46.30763" lon="8.02391">
        <ele>1135.94</ele>
        <time>2012-08-05T09:10:51Z</time>
      </trkpt>
      <trkpt lat="46.30772" lon="8.02378">
        <ele>1135.45</ele>
        <time>2012-08-05T09:10:52Z</time>
      </trkpt>
      <trkpt lat="46.3078" lon="8.02365">
        <ele>1134.01</ele>
        <time>2012-08-05T09:10:53Z</time>
      </trkpt>
      <trkpt lat="46.30787" lon="8.02352">
        <ele>1133.05</ele>
        <time>2012-08-05T09:10:54Z</time>
      </trkpt>
      <trkpt lat="46.30794" lon="8.02341">
        <ele>1132.09</ele>
        <time>2012-08-05T09:10:55Z</time>
      </trkpt>
      <trkpt lat="46.30801" lon="8.02332">
        <ele>1131.13</ele>
        <time>2012-08-05T09:10:56Z</time>
      </trkpt>
      <trkpt lat="46.3081" lon="8.02327">
        <ele>1130.17</ele>
        <time>2012-08-05T09:10:57Z</time>
      </trkpt>
      <trkpt lat="46.30818" lon="8.02328">
        <ele>1129.21</ele>
        <time>2012-08-05T09:10:58Z</time>
      </trkpt>
      <trkpt lat="46.30825" lon="8.02333">
        <ele>1127.76</ele>
        <time>2012-08-05T09:10:59Z</time>
      </trkpt>
      <trkpt lat="46.3083" lon="8.02345">
        <ele>1127.28</ele>
        <time>2012-08-05T09:11:00Z</time>
      </trkpt>
      <trkpt lat="46.30834" lon="8.02359">
        <ele>1125.84</ele>
        <time>2012-08-05T09:11:01Z</time>
      </trkpt>
      <trkpt lat="46.30837" lon="8.02374">
        <ele>1124.88</ele>
        <time>2012-08-05T09:11:02Z</time>
      </trkpt>
      <trkpt lat="46.30846" lon="8.0241">
        <ele>1122</ele>
        <time>2012-08-05T09:11:05Z</time>
      </trkpt>
      <trkpt lat="46.30853" lon="8.02416">
        <ele>1120.55</ele>
        <time>2012-08-05T09:11:06Z</time>
      </trkpt>
      <trkpt lat="46.30861" lon="8.02417">
        <ele>1119.59</ele>
        <time>2012-08-05T09:11:07Z</time>
      </trkpt>
      <trkpt lat="46.30872" lon="8.02411">
        <ele>1119.11</ele>
        <time>2012-08-05T09:11:08Z</time>
      </trkpt>
      <trkpt lat="46.3088" lon="8.02402">
        <ele>1117.67</ele>
        <time>2012-08-05T09:11:09Z</time>
      </trkpt>
      <trkpt lat="46.30888" lon="8.02395">
        <ele>1116.23</ele>
        <time>2012-08-05T09:11:10Z</time>
      </trkpt>
      <trkpt lat="46.30894" lon="8.02394">
        <ele>1114.31</ele>
        <time>2012-08-05T09:11:11Z</time>
      </trkpt>
      <trkpt lat="46.30899" lon="8.02398">
        <ele>1113.34</ele>
        <time>2012-08-05T09:11:12Z</time>
      </trkpt>
      <trkpt lat="46.30902" lon="8.02408">
        <ele>1112.86</ele>
        <time>2012-08-05T09:11:13Z</time>
      </trkpt>
      <trkpt lat="46.30901" lon="8.0242">
        <ele>1111.9</ele>
        <time>2012-08-05T09:11:14Z</time>
      </trkpt>
      <trkpt lat="46.30902" lon="8.02432">
        <ele>1110.94</ele>
        <time>2012-08-05T09:11:15Z</time>
      </trkpt>
      <trkpt lat="46.30906" lon="8.02442">
        <ele>1109.5</ele>
        <time>2012-08-05T09:11:16Z</time>
      </trkpt>
      <trkpt lat="46.30913" lon="8.02446">
        <ele>1109.02</ele>
        <time>2012-08-05T09:11:17Z</time>
      </trkpt>
      <trkpt lat="46.30923" lon="8.02445">
        <ele>1109.02</ele>
        <time>2012-08-05T09:11:18Z</time>
      </trkpt>
      <trkpt lat="46.30936" lon="8.02438">
        <ele>1108.54</ele>
        <time>2012-08-05T09:11:19Z</time>
      </trkpt>
      <trkpt lat="46.30953" lon="8.02427">
        <ele>1106.13</ele>
        <time>2012-08-05T09:11:20Z</time>
      </trkpt>
      <trkpt lat="46.30985" lon="8.02407">
        <ele>1102.77</ele>
        <time>2012-08-05T09:11:22Z</time>
      </trkpt>
      <trkpt lat="46.31008" lon="8.02392">
        <ele>1097.48</ele>
        <time>2012-08-05T09:11:24Z</time>
      </trkpt>
      <trkpt lat="46.31018" lon="8.02387">
        <ele>1096.52</ele>
        <time>2012-08-05T09:11:25Z</time>
      </trkpt>
      <trkpt lat="46.31027" lon="8.02386">
        <ele>1094.6</ele>
        <time>2012-08-05T09:11:26Z</time>
      </trkpt>
      <trkpt lat="46.31034" lon="8.02391">
        <ele>1094.6</ele>
        <time>2012-08-05T09:11:27Z</time>
      </trkpt>
      <trkpt lat="46.31039" lon="8.02403">
        <ele>1093.64</ele>
        <time>2012-08-05T09:11:28Z</time>
      </trkpt>
      <trkpt lat="46.31041" lon="8.02421">
        <ele>1093.16</ele>
        <time>2012-08-05T09:11:29Z</time>
      </trkpt>
      <trkpt lat="46.3104" lon="8.0244">
        <ele>1092.2</ele>
        <time>2012-08-05T09:11:30Z</time>
      </trkpt>
      <trkpt lat="46.31039" lon="8.02456">
        <ele>1089.79</ele>
        <time>2012-08-05T09:11:31Z</time>
      </trkpt>
      <trkpt lat="46.3104" lon="8.0247">
        <ele>1087.39</ele>
        <time>2012-08-05T09:11:32Z</time>
      </trkpt>
      <trkpt lat="46.31042" lon="8.02483">
        <ele>1085.95</ele>
        <time>2012-08-05T09:11:33Z</time>
      </trkpt>
      <trkpt lat="46.31047" lon="8.02492">
        <ele>1085.47</ele>
        <time>2012-08-05T09:11:34Z</time>
      </trkpt>
      <trkpt lat="46.31054" lon="8.02496">
        <ele>1084.99</ele>
        <time>2012-08-05T09:11:35Z</time>
      </trkpt>
      <trkpt lat="46.31065" lon="8.02493">
        <ele>1084.02</ele>
        <time>2012-08-05T09:11:36Z</time>
      </trkpt>
      <trkpt lat="46.31079" lon="8.02483">
        <ele>1084.99</ele>
        <time>2012-08-05T09:11:37Z</time>
      </trkpt>
      <trkpt lat="46.31093" lon="8.02469">
        <ele>1083.06</ele>
        <time>2012-08-05T09:11:38Z</time>
      </trkpt>
      <trkpt lat="46.31119" lon="8.02446">
        <ele>1079.7</ele>
        <time>2012-08-05T09:11:40Z</time>
      </trkpt>
      <trkpt lat="46.31131" lon="8.02438">
        <ele>1076.81</ele>
        <time>2012-08-05T09:11:41Z</time>
      </trkpt>
      <trkpt lat="46.31141" lon="8.02433">
        <ele>1073.93</ele>
        <time>2012-08-05T09:11:42Z</time>
      </trkpt>
      <trkpt lat="46.31151" lon="8.02431">
        <ele>1072.97</ele>
        <time>2012-08-05T09:11:43Z</time>
      </trkpt>
      <trkpt lat="46.31162" lon="8.02434">
        <ele>1072.01</ele>
        <time>2012-08-05T09:11:44Z</time>
      </trkpt>
      <trkpt lat="46.31173" lon="8.02442">
        <ele>1072.01</ele>
        <time>2012-08-05T09:11:45Z</time>
      </trkpt>
      <trkpt lat="46.31185" lon="8.02451">
        <ele>1071.53</ele>
        <time>2012-08-05T09:11:46Z</time>
      </trkpt>
      <trkpt lat="46.31199" lon="8.02453">
        <ele>1070.57</ele>
        <time>2012-08-05T09:11:47Z</time>
      </trkpt>
      <trkpt lat="46.31213" lon="8.02451">
        <ele>1069.12</ele>
        <time>2012-08-05T09:11:48Z</time>
      </trkpt>
      <trkpt lat="46.31226" lon="8.0245">
        <ele>1066.72</ele>
        <time>2012-08-05T09:11:49Z</time>
      </trkpt>
      <trkpt lat="46.31238" lon="8.02453">
        <ele>1064.8</ele>
        <time>2012-08-05T09:11:50Z</time>
      </trkpt>
      <trkpt lat="46.31248" lon="8.02461">
        <ele>1061.91</ele>
        <time>2012-08-05T09:11:51Z</time>
      </trkpt>
      <trkpt lat="46.31256" lon="8.02475">
        <ele>1061.91</ele>
        <time>2012-08-05T09:11:52Z</time>
      </trkpt>
      <trkpt lat="46.31262" lon="8.02491">
        <ele>1060.95</ele>
        <time>2012-08-05T09:11:53Z</time>
      </trkpt>
      <trkpt lat="46.31269" lon="8.02508">
        <ele>1059.03</ele>
        <time>2012-08-05T09:11:54Z</time>
      </trkpt>
      <trkpt lat="46.31279" lon="8.02522">
        <ele>1057.59</ele>
        <time>2012-08-05T09:11:55Z</time>
      </trkpt>
      <trkpt lat="46.31293" lon="8.02533">
        <ele>1057.59</ele>
        <time>2012-08-05T09:11:56Z</time>
      </trkpt>
      <trkpt lat="46.31308" lon="8.02539">
        <ele>1056.15</ele>
        <time>2012-08-05T09:11:57Z</time>
      </trkpt>
      <trkpt lat="46.31324" lon="8.02544">
        <ele>1054.7</ele>
        <time>2012-08-05T09:11:58Z</time>
      </trkpt>
      <trkpt lat="46.3134" lon="8.02546">
        <ele>1052.78</ele>
        <time>2012-08-05T09:11:59Z</time>
      </trkpt>
      <trkpt lat="46.31356" lon="8.02547">
        <ele>1051.34</ele>
        <time>2012-08-05T09:12:00Z</time>
      </trkpt>
      <trkpt lat="46.31373" lon="8.02545">
        <ele>1049.9</ele>
        <time>2012-08-05T09:12:01Z</time>
      </trkpt>
      <trkpt lat="46.31389" lon="8.0254">
        <ele>1047.97</ele>
        <time>2012-08-05T09:12:02Z</time>
      </trkpt>
      <trkpt lat="46.31404" lon="8.02532">
        <ele>1044.13</ele>
        <time>2012-08-05T09:12:03Z</time>
      </trkpt>
      <trkpt lat="46.31419" lon="8.02521">
        <ele>1043.17</ele>
        <time>2012-08-05T09:12:04Z</time>
      </trkpt>
      <trkpt lat="46.31432" lon="8.02506">
        <ele>1041.73</ele>
        <time>2012-08-05T09:12:05Z</time>
      </trkpt>
      <trkpt lat="46.31444" lon="8.02489">
        <ele>1040.76</ele>
        <time>2012-08-05T09:12:06Z</time>
      </trkpt>
      <trkpt lat="46.31455" lon="8.02472">
        <ele>1038.84</ele>
        <time>2012-08-05T09:12:07Z</time>
      </trkpt>
      <trkpt lat="46.31476" lon="8.02441">
        <ele>1033.55</ele>
        <time>2012-08-05T09:12:09Z</time>
      </trkpt>
      <trkpt lat="46.31497" lon="8.02419">
        <ele>1028.75</ele>
        <time>2012-08-05T09:12:11Z</time>
      </trkpt>
      <trkpt lat="46.31509" lon="8.02411">
        <ele>1026.83</ele>
        <time>2012-08-05T09:12:12Z</time>
      </trkpt>
      <trkpt lat="46.31521" lon="8.02405">
        <ele>1026.83</ele>
        <time>2012-08-05T09:12:13Z</time>
      </trkpt>
      <trkpt lat="46.31533" lon="8.02402">
        <ele>1026.34</ele>
        <time>2012-08-05T09:12:14Z</time>
      </trkpt>
      <trkpt lat="46.31545" lon="8.024">
        <ele>1024.9</ele>
        <time>2012-08-05T09:12:15Z</time>
      </trkpt>
      <trkpt lat="46.31578" lon="8.024">
        <ele>1020.1</ele>
        <time>2012-08-05T09:12:18Z</time>
      </trkpt>
      <trkpt lat="46.31587" lon="8.02404">
        <ele>1018.65</ele>
        <time>2012-08-05T09:12:19Z</time>
      </trkpt>
      <trkpt lat="46.31594" lon="8.0241">
        <ele>1018.17</ele>
        <time>2012-08-05T09:12:20Z</time>
      </trkpt>
      <trkpt lat="46.31598" lon="8.0242">
        <ele>1018.17</ele>
        <time>2012-08-05T09:12:21Z</time>
      </trkpt>
      <trkpt lat="46.316" lon="8.02433">
        <ele>1017.69</ele>
        <time>2012-08-05T09:12:22Z</time>
      </trkpt>
      <trkpt lat="46.31601" lon="8.02449">
        <ele>1018.17</ele>
        <time>2012-08-05T09:12:23Z</time>
      </trkpt>
      <trkpt lat="46.31605" lon="8.02463">
        <ele>1016.73</ele>
        <time>2012-08-05T09:12:24Z</time>
      </trkpt>
      <trkpt lat="46.31612" lon="8.02475">
        <ele>1015.29</ele>
        <time>2012-08-05T09:12:25Z</time>
      </trkpt>
      <trkpt lat="46.3162" lon="8.02482">
        <ele>1014.33</ele>
        <time>2012-08-05T09:12:26Z</time>
      </trkpt>
      <trkpt lat="46.31627" lon="8.02484">
        <ele>1013.37</ele>
        <time>2012-08-05T09:12:27Z</time>
      </trkpt>
      <trkpt lat="46.31633" lon="8.02486">
        <ele>1012.89</ele>
        <time>2012-08-05T09:12:28Z</time>
      </trkpt>
      <trkpt lat="46.31639" lon="8.02486">
        <ele>1011.93</ele>
        <time>2012-08-05T09:12:29Z</time>
      </trkpt>
      <trkpt lat="46.31645" lon="8.02484">
        <ele>1011.44</ele>
        <time>2012-08-05T09:12:30Z</time>
      </trkpt>
      <trkpt lat="46.31651" lon="8.02479">
        <ele>1010.96</ele>
        <time>2012-08-05T09:12:31Z</time>
      </trkpt>
      <trkpt lat="46.31658" lon="8.02471">
        <ele>1010.96</ele>
        <time>2012-08-05T09:12:32Z</time>
      </trkpt>
      <trkpt lat="46.31665" lon="8.0246">
        <ele>1010</ele>
        <time>2012-08-05T09:12:33Z</time>
      </trkpt>
      <trkpt lat="46.31689" lon="8.02421">
        <ele>1007.12</ele>
        <time>2012-08-05T09:12:36Z</time>
      </trkpt>
      <trkpt lat="46.31707" lon="8.02398">
        <ele>1003.75</ele>
        <time>2012-08-05T09:12:38Z</time>
      </trkpt>
      <trkpt lat="46.31715" lon="8.02389">
        <ele>1001.83</ele>
        <time>2012-08-05T09:12:39Z</time>
      </trkpt>
      <trkpt lat="46.31722" lon="8.02384">
        <ele>1000.87</ele>
        <time>2012-08-05T09:12:40Z</time>
      </trkpt>
      <trkpt lat="46.31727" lon="8.02381">
        <ele>999.43</ele>
        <time>2012-08-05T09:12:41Z</time>
      </trkpt>
      <trkpt lat="46.31733" lon="8.02377">
        <ele>998.47</ele>
        <time>2012-08-05T09:12:42Z</time>
      </trkpt>
      <trkpt lat="46.31772" lon="8.02355">
        <ele>996.06</ele>
        <time>2012-08-05T09:12:46Z</time>
      </trkpt>
      <trkpt lat="46.31812" lon="8.02332">
        <ele>992.22</ele>
        <time>2012-08-05T09:12:49Z</time>
      </trkpt>
      <trkpt lat="46.31854" lon="8.02314">
        <ele>987.41</ele>
        <time>2012-08-05T09:12:52Z</time>
      </trkpt>
      <trkpt lat="46.31882" lon="8.02305">
        <ele>983.09</ele>
        <time>2012-08-05T09:12:54Z</time>
      </trkpt>
      <trkpt lat="46.31908" lon="8.02296">
        <ele>979.72</ele>
        <time>2012-08-05T09:12:56Z</time>
      </trkpt>
      <trkpt lat="46.31919" lon="8.02291">
        <ele>977.8</ele>
        <time>2012-08-05T09:12:57Z</time>
      </trkpt>
      <trkpt lat="46.31929" lon="8.02282">
        <ele>976.84</ele>
        <time>2012-08-05T09:12:58Z</time>
      </trkpt>
      <trkpt lat="46.31936" lon="8.02269">
        <ele>975.88</ele>
        <time>2012-08-05T09:12:59Z</time>
      </trkpt>
      <trkpt lat="46.3194" lon="8.02252">
        <ele>975.88</ele>
        <time>2012-08-05T09:13:00Z</time>
      </trkpt>
      <trkpt lat="46.31942" lon="8.02232">
        <ele>975.39</ele>
        <time>2012-08-05T09:13:01Z</time>
      </trkpt>
      <trkpt lat="46.31941" lon="8.02211">
        <ele>973.95</ele>
        <time>2012-08-05T09:13:02Z</time>
      </trkpt>
      <trkpt lat="46.31938" lon="8.02188">
        <ele>973.95</ele>
        <time>2012-08-05T09:13:03Z</time>
      </trkpt>
      <trkpt lat="46.31933" lon="8.02167">
        <ele>972.99</ele>
        <time>2012-08-05T09:13:04Z</time>
      </trkpt>
      <trkpt lat="46.31927" lon="8.02146">
        <ele>972.03</ele>
        <time>2012-08-05T09:13:05Z</time>
      </trkpt>
      <trkpt lat="46.31914" lon="8.02106">
        <ele>969.15</ele>
        <time>2012-08-05T09:13:07Z</time>
      </trkpt>
      <trkpt lat="46.31893" lon="8.02047">
        <ele>962.9</ele>
        <time>2012-08-05T09:13:10Z</time>
      </trkpt>
      <trkpt lat="46.31853" lon="8.0195">
        <ele>958.57</ele>
        <time>2012-08-05T09:13:15Z</time>
      </trkpt>
      <trkpt lat="46.31836" lon="8.01914">
        <ele>953.28</ele>
        <time>2012-08-05T09:13:17Z</time>
      </trkpt>
      <trkpt lat="46.31807" lon="8.01861">
        <ele>949.44</ele>
        <time>2012-08-05T09:13:20Z</time>
      </trkpt>
      <trkpt lat="46.31796" lon="8.01845">
        <ele>946.56</ele>
        <time>2012-08-05T09:13:21Z</time>
      </trkpt>
      <trkpt lat="46.31785" lon="8.01832">
        <ele>946.56</ele>
        <time>2012-08-05T09:13:22Z</time>
      </trkpt>
      <trkpt lat="46.3175" lon="8.01796">
        <ele>943.67</ele>
        <time>2012-08-05T09:13:25Z</time>
      </trkpt>
      <trkpt lat="46.31715" lon="8.01767">
        <ele>937.9</ele>
        <time>2012-08-05T09:13:28Z</time>
      </trkpt>
      <trkpt lat="46.31703" lon="8.01759">
        <ele>938.86</ele>
        <time>2012-08-05T09:13:29Z</time>
      </trkpt>
      <trkpt lat="46.31682" lon="8.01742">
        <ele>935.02</ele>
        <time>2012-08-05T09:13:31Z</time>
      </trkpt>
      <trkpt lat="46.31627" lon="8.01694">
        <ele>930.69</ele>
        <time>2012-08-05T09:13:36Z</time>
      </trkpt>
      <trkpt lat="46.31597" lon="8.01662">
        <ele>927.33</ele>
        <time>2012-08-05T09:13:39Z</time>
      </trkpt>
      <trkpt lat="46.31581" lon="8.01639">
        <ele>925.41</ele>
        <time>2012-08-05T09:13:41Z</time>
      </trkpt>
      <trkpt lat="46.31559" lon="8.01606">
        <ele>922.52</ele>
        <time>2012-08-05T09:13:44Z</time>
      </trkpt>
      <trkpt lat="46.31538" lon="8.01572">
        <ele>920.6</ele>
        <time>2012-08-05T09:13:47Z</time>
      </trkpt>
      <trkpt lat="46.31516" lon="8.01526">
        <ele>916.75</ele>
        <time>2012-08-05T09:13:51Z</time>
      </trkpt>
      <trkpt lat="46.31503" lon="8.01494">
        <ele>913.39</ele>
        <time>2012-08-05T09:13:54Z</time>
      </trkpt>
      <trkpt lat="46.31499" lon="8.01483">
        <ele>913.39</ele>
        <time>2012-08-05T09:13:55Z</time>
      </trkpt>
      <trkpt lat="46.31477" lon="8.01416">
        <ele>910.51</ele>
        <time>2012-08-05T09:14:00Z</time>
      </trkpt>
      <trkpt lat="46.31471" lon="8.01376">
        <ele>908.58</ele>
        <time>2012-08-05T09:14:03Z</time>
      </trkpt>
      <trkpt lat="46.31471" lon="8.01345">
        <ele>907.62</ele>
        <time>2012-08-05T09:14:05Z</time>
      </trkpt>
      <trkpt lat="46.31474" lon="8.01316">
        <ele>905.7</ele>
        <time>2012-08-05T09:14:07Z</time>
      </trkpt>
      <trkpt lat="46.31477" lon="8.01302">
        <ele>905.7</ele>
        <time>2012-08-05T09:14:08Z</time>
      </trkpt>
      <trkpt lat="46.3148" lon="8.01288">
        <ele>903.78</ele>
        <time>2012-08-05T09:14:09Z</time>
      </trkpt>
      <trkpt lat="46.31484" lon="8.01275">
        <ele>903.78</ele>
        <time>2012-08-05T09:14:10Z</time>
      </trkpt>
      <trkpt lat="46.31489" lon="8.01263">
        <ele>904.26</ele>
        <time>2012-08-05T09:14:11Z</time>
      </trkpt>
      <trkpt lat="46.31494" lon="8.0125">
        <ele>902.82</ele>
        <time>2012-08-05T09:14:12Z</time>
      </trkpt>
      <trkpt lat="46.31501" lon="8.01237">
        <ele>902.33</ele>
        <time>2012-08-05T09:14:13Z</time>
      </trkpt>
      <trkpt lat="46.31508" lon="8.01224">
        <ele>901.85</ele>
        <time>2012-08-05T09:14:14Z</time>
      </trkpt>
      <trkpt lat="46.31517" lon="8.01213">
        <ele>900.41</ele>
        <time>2012-08-05T09:14:15Z</time>
      </trkpt>
      <trkpt lat="46.31526" lon="8.01203">
        <ele>899.45</ele>
        <time>2012-08-05T09:14:16Z</time>
      </trkpt>
      <trkpt lat="46.31537" lon="8.01195">
        <ele>899.93</ele>
        <time>2012-08-05T09:14:17Z</time>
      </trkpt>
      <trkpt lat="46.31547" lon="8.01188">
        <ele>897.53</ele>
        <time>2012-08-05T09:14:18Z</time>
      </trkpt>
      <trkpt lat="46.31581" lon="8.01166">
        <ele>895.61</ele>
        <time>2012-08-05T09:14:21Z</time>
      </trkpt>
      <trkpt lat="46.31592" lon="8.01155">
        <ele>895.61</ele>
        <time>2012-08-05T09:14:22Z</time>
      </trkpt>
      <trkpt lat="46.31602" lon="8.01142">
        <ele>894.64</ele>
        <time>2012-08-05T09:14:23Z</time>
      </trkpt>
      <trkpt lat="46.31609" lon="8.01126">
        <ele>893.2</ele>
        <time>2012-08-05T09:14:24Z</time>
      </trkpt>
      <trkpt lat="46.31614" lon="8.01111">
        <ele>893.2</ele>
        <time>2012-08-05T09:14:25Z</time>
      </trkpt>
      <trkpt lat="46.31617" lon="8.01093">
        <ele>893.68</ele>
        <time>2012-08-05T09:14:26Z</time>
      </trkpt>
      <trkpt lat="46.31616" lon="8.01073">
        <ele>895.12</ele>
        <time>2012-08-05T09:14:27Z</time>
      </trkpt>
      <trkpt lat="46.31613" lon="8.01053">
        <ele>895.12</ele>
        <time>2012-08-05T09:14:28Z</time>
      </trkpt>
      <trkpt lat="46.31608" lon="8.01032">
        <ele>897.53</ele>
        <time>2012-08-05T09:14:29Z</time>
      </trkpt>
      <trkpt lat="46.31603" lon="8.01011">
        <ele>894.64</ele>
        <time>2012-08-05T09:14:30Z</time>
      </trkpt>
      <trkpt lat="46.31587" lon="8.0095">
        <ele>891.28</ele>
        <time>2012-08-05T09:14:33Z</time>
      </trkpt>
      <trkpt lat="46.31582" lon="8.00931">
        <ele>890.8</ele>
        <time>2012-08-05T09:14:34Z</time>
      </trkpt>
      <trkpt lat="46.31573" lon="8.00894">
        <ele>887.91</ele>
        <time>2012-08-05T09:14:36Z</time>
      </trkpt>
      <trkpt lat="46.31558" lon="8.00827">
        <ele>886.47</ele>
        <time>2012-08-05T09:14:39Z</time>
      </trkpt>
      <trkpt lat="46.3154" lon="8.00752">
        <ele>883.11</ele>
        <time>2012-08-05T09:14:42Z</time>
      </trkpt>
      <trkpt lat="46.31528" lon="8.00701">
        <ele>879.26</ele>
        <time>2012-08-05T09:14:44Z</time>
      </trkpt>
      <trkpt lat="46.31522" lon="8.00676">
        <ele>880.22</ele>
        <time>2012-08-05T09:14:45Z</time>
      </trkpt>
      <trkpt lat="46.31508" lon="8.00605">
        <ele>873.98</ele>
        <time>2012-08-05T09:14:48Z</time>
      </trkpt>
      <trkpt lat="46.31497" lon="8.00556">
        <ele>870.13</ele>
        <time>2012-08-05T09:14:50Z</time>
      </trkpt>
      <trkpt lat="46.31491" lon="8.00533">
        <ele>871.09</ele>
        <time>2012-08-05T09:14:51Z</time>
      </trkpt>
      <trkpt lat="46.31478" lon="8.00487">
        <ele>867.25</ele>
        <time>2012-08-05T09:14:53Z</time>
      </trkpt>
      <trkpt lat="46.31426" lon="8.00359">
        <ele>861.96</ele>
        <time>2012-08-05T09:14:59Z</time>
      </trkpt>
      <trkpt lat="46.31404" lon="8.00319">
        <ele>859.08</ele>
        <time>2012-08-05T09:15:01Z</time>
      </trkpt>
      <trkpt lat="46.31381" lon="8.00283">
        <ele>855.23</ele>
        <time>2012-08-05T09:15:03Z</time>
      </trkpt>
      <trkpt lat="46.31342" lon="8.00236">
        <ele>851.38</ele>
        <time>2012-08-05T09:15:06Z</time>
      </trkpt>
      <trkpt lat="46.31327" lon="8.0022">
        <ele>850.9</ele>
        <time>2012-08-05T09:15:07Z</time>
      </trkpt>
      <trkpt lat="46.3128" lon="8.00174">
        <ele>847.54</ele>
        <time>2012-08-05T09:15:10Z</time>
      </trkpt>
      <trkpt lat="46.31247" lon="8.00148">
        <ele>841.29</ele>
        <time>2012-08-05T09:15:12Z</time>
      </trkpt>
      <trkpt lat="46.31216" lon="8.00124">
        <ele>840.81</ele>
        <time>2012-08-05T09:15:14Z</time>
      </trkpt>
      <trkpt lat="46.312" lon="8.00113">
        <ele>837.45</ele>
        <time>2012-08-05T09:15:15Z</time>
      </trkpt>
      <trkpt lat="46.31171" lon="8.00092">
        <ele>834.08</ele>
        <time>2012-08-05T09:15:17Z</time>
      </trkpt>
      <trkpt lat="46.31128" lon="8.00063">
        <ele>831.2</ele>
        <time>2012-08-05T09:15:20Z</time>
      </trkpt>
      <trkpt lat="46.31065" lon="8.00021">
        <ele>836.96</ele>
        <time>2012-08-05T09:15:24Z</time>
      </trkpt>
      <trkpt lat="46.31047" lon="8.00009">
        <ele>836.48</ele>
        <time>2012-08-05T09:15:25Z</time>
      </trkpt>
      <trkpt lat="46.31007" lon="7.99983">
        <ele>833.12</ele>
        <time>2012-08-05T09:15:27Z</time>
      </trkpt>
      <trkpt lat="46.30969" lon="7.99957">
        <ele>829.76</ele>
        <time>2012-08-05T09:15:29Z</time>
      </trkpt>
      <trkpt lat="46.30951" lon="7.99943">
        <ele>830.72</ele>
        <time>2012-08-05T09:15:30Z</time>
      </trkpt>
      <trkpt lat="46.30917" lon="7.99914">
        <ele>825.91</ele>
        <time>2012-08-05T09:15:32Z</time>
      </trkpt>
      <trkpt lat="46.30873" lon="7.99866">
        <ele>822.55</ele>
        <time>2012-08-05T09:15:35Z</time>
      </trkpt>
      <trkpt lat="46.30859" lon="7.99848">
        <ele>822.55</ele>
        <time>2012-08-05T09:15:36Z</time>
      </trkpt>
      <trkpt lat="46.30821" lon="7.99786">
        <ele>819.18</ele>
        <time>2012-08-05T09:15:39Z</time>
      </trkpt>
      <trkpt lat="46.3079" lon="7.99715">
        <ele>814.85</ele>
        <time>2012-08-05T09:15:42Z</time>
      </trkpt>
      <trkpt lat="46.30755" lon="7.99558">
        <ele>808.13</ele>
        <time>2012-08-05T09:15:48Z</time>
      </trkpt>
      <trkpt lat="46.30751" lon="7.99504">
        <ele>804.28</ele>
        <time>2012-08-05T09:15:50Z</time>
      </trkpt>
      <trkpt lat="46.30752" lon="7.99449">
        <ele>801.88</ele>
        <time>2012-08-05T09:15:52Z</time>
      </trkpt>
      <trkpt lat="46.30766" lon="7.99336">
        <ele>798.99</ele>
        <time>2012-08-05T09:15:56Z</time>
      </trkpt>
      <trkpt lat="46.30784" lon="7.99254">
        <ele>795.63</ele>
        <time>2012-08-05T09:15:59Z</time>
      </trkpt>
      <trkpt lat="46.30791" lon="7.99226">
        <ele>796.11</ele>
        <time>2012-08-05T09:16:00Z</time>
      </trkpt>
      <trkpt lat="46.30822" lon="7.99008">
        <ele>792.26</ele>
        <time>2012-08-05T09:16:08Z</time>
      </trkpt>
      <trkpt lat="46.30822" lon="7.9898">
        <ele>796.11</ele>
        <time>2012-08-05T09:16:09Z</time>
      </trkpt>
      <trkpt lat="46.3082" lon="7.98925">
        <ele>791.78</ele>
        <time>2012-08-05T09:16:11Z</time>
      </trkpt>
      <trkpt lat="46.30819" lon="7.98898">
        <ele>788.42</ele>
        <time>2012-08-05T09:16:12Z</time>
      </trkpt>
      <trkpt lat="46.30818" lon="7.98871">
        <ele>788.9</ele>
        <time>2012-08-05T09:16:13Z</time>
      </trkpt>
      <trkpt lat="46.30817" lon="7.98843">
        <ele>785.05</ele>
        <time>2012-08-05T09:16:14Z</time>
      </trkpt>
      <trkpt lat="46.30818" lon="7.98701">
        <ele>781.69</ele>
        <time>2012-08-05T09:16:19Z</time>
      </trkpt>
      <trkpt lat="46.30642" lon="7.97484">
        <ele>743.24</ele>
        <time>2012-08-05T09:41:31Z</time>
      </trkpt>
      <trkpt lat="46.30647" lon="7.97483">
        <ele>743.24</ele>
        <time>2012-08-05T09:41:33Z</time>
      </trkpt>
      <trkpt lat="46.30682" lon="7.97514">
        <ele>743.72</ele>
        <time>2012-08-05T09:41:57Z</time>
      </trkpt>
      <trkpt lat="46.30686" lon="7.97513">
        <ele>744.2</ele>
        <time>2012-08-05T09:42:20Z</time>
      </trkpt>
      <trkpt lat="46.30685" lon="7.97504">
        <ele>744.2</ele>
        <time>2012-08-05T09:42:23Z</time>
      </trkpt>
      <trkpt lat="46.3068" lon="7.97499">
        <ele>743.72</ele>
        <time>2012-08-05T09:42:24Z</time>
      </trkpt>
      <trkpt lat="46.30676" lon="7.97493">
        <ele>743.72</ele>
        <time>2012-08-05T09:42:25Z</time>
      </trkpt>
      <trkpt lat="46.30672" lon="7.97485">
        <ele>743.72</ele>
        <time>2012-08-05T09:42:26Z</time>
      </trkpt>
      <trkpt lat="46.30636" lon="7.97398">
        <ele>741.31</ele>
        <time>2012-08-05T09:42:32Z</time>
      </trkpt>
      <trkpt lat="46.30617" lon="7.9734">
        <ele>737.95</ele>
        <time>2012-08-05T09:42:35Z</time>
      </trkpt>
      <trkpt lat="46.30602" lon="7.9728">
        <ele>734.1</ele>
        <time>2012-08-05T09:42:38Z</time>
      </trkpt>
      <trkpt lat="46.30586" lon="7.97201">
        <ele>730.74</ele>
        <time>2012-08-05T09:42:42Z</time>
      </trkpt>
      <trkpt lat="46.30588" lon="7.97197">
        <ele>727.37</ele>
        <time>2012-08-05T09:42:45Z</time>
      </trkpt>
      <trkpt lat="46.30587" lon="7.97192">
        <ele>724.01</ele>
        <time>2012-08-05T09:42:48Z</time>
      </trkpt>
      <trkpt lat="46.30586" lon="7.97186">
        <ele>720.16</ele>
        <time>2012-08-05T09:42:50Z</time>
      </trkpt>
      <trkpt lat="46.30567" lon="7.96933">
        <ele>715.84</ele>
        <time>2012-08-05T09:42:54Z</time>
      </trkpt>
      <trkpt lat="46.30578" lon="7.96864">
        <ele>712.47</ele>
        <time>2012-08-05T09:42:57Z</time>
      </trkpt>
      <trkpt lat="46.30583" lon="7.96767">
        <ele>709.11</ele>
        <time>2012-08-05T09:43:02Z</time>
      </trkpt>
      <trkpt lat="46.30584" lon="7.96686">
        <ele>704.78</ele>
        <time>2012-08-05T09:43:06Z</time>
      </trkpt>
      <trkpt lat="46.30587" lon="7.96638">
        <ele>701.42</ele>
        <time>2012-08-05T09:43:09Z</time>
      </trkpt>
      <trkpt lat="46.30591" lon="7.96624">
        <ele>700.46</ele>
        <time>2012-08-05T09:43:10Z</time>
      </trkpt>
      <trkpt lat="46.30596" lon="7.9661">
        <ele>699.98</ele>
        <time>2012-08-05T09:43:11Z</time>
      </trkpt>
      <trkpt lat="46.30603" lon="7.96597">
        <ele>699.5</ele>
        <time>2012-08-05T09:43:12Z</time>
      </trkpt>
      <trkpt lat="46.30611" lon="7.96586">
        <ele>698.53</ele>
        <time>2012-08-05T09:43:13Z</time>
      </trkpt>
      <trkpt lat="46.3062" lon="7.96577">
        <ele>698.05</ele>
        <time>2012-08-05T09:43:14Z</time>
      </trkpt>
      <trkpt lat="46.3063" lon="7.96569">
        <ele>697.57</ele>
        <time>2012-08-05T09:43:15Z</time>
      </trkpt>
      <trkpt lat="46.30656" lon="7.96549">
        <ele>696.61</ele>
        <time>2012-08-05T09:43:18Z</time>
      </trkpt>
      <trkpt lat="46.30664" lon="7.96546">
        <ele>696.61</ele>
        <time>2012-08-05T09:43:19Z</time>
      </trkpt>
      <trkpt lat="46.30672" lon="7.96546">
        <ele>696.13</ele>
        <time>2012-08-05T09:43:20Z</time>
      </trkpt>
      <trkpt lat="46.30681" lon="7.96546">
        <ele>696.61</ele>
        <time>2012-08-05T09:43:21Z</time>
      </trkpt>
      <trkpt lat="46.30689" lon="7.96545">
        <ele>696.61</ele>
        <time>2012-08-05T09:43:22Z</time>
      </trkpt>
      <trkpt lat="46.30697" lon="7.96541">
        <ele>696.61</ele>
        <time>2012-08-05T09:43:23Z</time>
      </trkpt>
      <trkpt lat="46.30703" lon="7.96536">
        <ele>696.13</ele>
        <time>2012-08-05T09:43:24Z</time>
      </trkpt>
      <trkpt lat="46.30709" lon="7.96529">
        <ele>696.13</ele>
        <time>2012-08-05T09:43:25Z</time>
      </trkpt>
      <trkpt lat="46.30714" lon="7.9652">
        <ele>695.65</ele>
        <time>2012-08-05T09:43:26Z</time>
      </trkpt>
      <trkpt lat="46.30717" lon="7.9651">
        <ele>695.65</ele>
        <time>2012-08-05T09:43:27Z</time>
      </trkpt>
      <trkpt lat="46.30718" lon="7.965">
        <ele>695.17</ele>
        <time>2012-08-05T09:43:28Z</time>
      </trkpt>
      <trkpt lat="46.30718" lon="7.96489">
        <ele>695.65</ele>
        <time>2012-08-05T09:43:29Z</time>
      </trkpt>
      <trkpt lat="46.30717" lon="7.96477">
        <ele>696.13</ele>
        <time>2012-08-05T09:43:30Z</time>
      </trkpt>
      <trkpt lat="46.30715" lon="7.96467">
        <ele>695.65</ele>
        <time>2012-08-05T09:43:31Z</time>
      </trkpt>
      <trkpt lat="46.30711" lon="7.96458">
        <ele>696.13</ele>
        <time>2012-08-05T09:43:32Z</time>
      </trkpt>
      <trkpt lat="46.30704" lon="7.96451">
        <ele>695.65</ele>
        <time>2012-08-05T09:43:33Z</time>
      </trkpt>
      <trkpt lat="46.30697" lon="7.96445">
        <ele>696.13</ele>
        <time>2012-08-05T09:43:34Z</time>
      </trkpt>
      <trkpt lat="46.30688" lon="7.9644">
        <ele>695.65</ele>
        <time>2012-08-05T09:43:35Z</time>
      </trkpt>
      <trkpt lat="46.3068" lon="7.96433">
        <ele>695.65</ele>
        <time>2012-08-05T09:43:36Z</time>
      </trkpt>
      <trkpt lat="46.30674" lon="7.96425">
        <ele>695.65</ele>
        <time>2012-08-05T09:43:37Z</time>
      </trkpt>
      <trkpt lat="46.30668" lon="7.96416">
        <ele>695.65</ele>
        <time>2012-08-05T09:43:38Z</time>
      </trkpt>
      <trkpt lat="46.30663" lon="7.96405">
        <ele>696.13</ele>
        <time>2012-08-05T09:43:39Z</time>
      </trkpt>
      <trkpt lat="46.3064" lon="7.96165">
        <ele>696.13</ele>
        <time>2012-08-05T10:42:32Z</time>
      </trkpt>
      <trkpt lat="46.3064" lon="7.96164">
        <ele>696.13</ele>
        <time>2012-08-05T10:42:33Z</time>
      </trkpt>
      <trkpt lat="46.30649" lon="7.96154">
        <ele>696.13</ele>
        <time>2012-08-05T10:42:36Z</time>
      </trkpt>
      <trkpt lat="46.30658" lon="7.96146">
        <ele>696.61</ele>
        <time>2012-08-05T10:42:40Z</time>
      </trkpt>
      <trkpt lat="46.30666" lon="7.9613">
        <ele>696.61</ele>
        <time>2012-08-05T10:42:45Z</time>
      </trkpt>
      <trkpt lat="46.30643" lon="7.96105">
        <ele>695.65</ele>
        <time>2012-08-05T10:42:54Z</time>
      </trkpt>
      <trkpt lat="46.30639" lon="7.96105">
        <ele>696.61</ele>
        <time>2012-08-05T10:42:55Z</time>
      </trkpt>
      <trkpt lat="46.30604" lon="7.96099">
        <ele>696.13</ele>
        <time>2012-08-05T10:43:03Z</time>
      </trkpt>
      <trkpt lat="46.30602" lon="7.96097">
        <ele>695.17</ele>
        <time>2012-08-05T10:43:04Z</time>
      </trkpt>
      <trkpt lat="46.306" lon="7.96092">
        <ele>693.73</ele>
        <time>2012-08-05T10:43:05Z</time>
      </trkpt>
      <trkpt lat="46.30592" lon="7.96069">
        <ele>691.81</ele>
        <time>2012-08-05T10:43:08Z</time>
      </trkpt>
      <trkpt lat="46.3059" lon="7.96059">
        <ele>690.84</ele>
        <time>2012-08-05T10:43:09Z</time>
      </trkpt>
      <trkpt lat="46.30587" lon="7.96023">
        <ele>687.96</ele>
        <time>2012-08-05T10:43:12Z</time>
      </trkpt>
      <trkpt lat="46.30586" lon="7.95971">
        <ele>684.6</ele>
        <time>2012-08-05T10:43:16Z</time>
      </trkpt>
      <trkpt lat="46.30587" lon="7.95958">
        <ele>684.12</ele>
        <time>2012-08-05T10:43:17Z</time>
      </trkpt>
      <trkpt lat="46.3059" lon="7.95885">
        <ele>681.23</ele>
        <time>2012-08-05T10:43:22Z</time>
      </trkpt>
      <trkpt lat="46.30601" lon="7.95766">
        <ele>677.87</ele>
        <time>2012-08-05T10:43:29Z</time>
      </trkpt>
      <trkpt lat="46.30605" lon="7.95728">
        <ele>677.39</ele>
        <time>2012-08-05T10:43:31Z</time>
      </trkpt>
      <trkpt lat="46.30614" lon="7.956">
        <ele>673.54</ele>
        <time>2012-08-05T10:43:38Z</time>
      </trkpt>
      <trkpt lat="46.30615" lon="7.95583">
        <ele>673.54</ele>
        <time>2012-08-05T10:43:39Z</time>
      </trkpt>
      <trkpt lat="46.30619" lon="7.95515">
        <ele>672.1</ele>
        <time>2012-08-05T10:43:43Z</time>
      </trkpt>
      <trkpt lat="46.30602" lon="7.95307">
        <ele>671.14</ele>
        <time>2012-08-05T10:43:54Z</time>
      </trkpt>
      <trkpt lat="46.30552" lon="7.95045">
        <ele>670.18</ele>
        <time>2012-08-05T10:44:06Z</time>
      </trkpt>
      <trkpt lat="46.30516" lon="7.94763">
        <ele>669.22</ele>
        <time>2012-08-05T10:44:19Z</time>
      </trkpt>
      <trkpt lat="46.30463" lon="7.9455">
        <ele>670.66</ele>
        <time>2012-08-05T10:44:31Z</time>
      </trkpt>
      <trkpt lat="46.30362" lon="7.94344">
        <ele>671.14</ele>
        <time>2012-08-05T10:44:43Z</time>
      </trkpt>
      <trkpt lat="46.3033" lon="7.94269">
        <ele>670.66</ele>
        <time>2012-08-05T10:44:47Z</time>
      </trkpt>
      <trkpt lat="46.30324" lon="7.94248">
        <ele>670.66</ele>
        <time>2012-08-05T10:44:48Z</time>
      </trkpt>
      <trkpt lat="46.3032" lon="7.94226">
        <ele>670.66</ele>
        <time>2012-08-05T10:44:49Z</time>
      </trkpt>
      <trkpt lat="46.30318" lon="7.94204">
        <ele>671.14</ele>
        <time>2012-08-05T10:44:50Z</time>
      </trkpt>
      <trkpt lat="46.30318" lon="7.94181">
        <ele>671.14</ele>
        <time>2012-08-05T10:44:51Z</time>
      </trkpt>
      <trkpt lat="46.30318" lon="7.94159">
        <ele>672.1</ele>
        <time>2012-08-05T10:44:52Z</time>
      </trkpt>
      <trkpt lat="46.3032" lon="7.94093">
        <ele>674.02</ele>
        <time>2012-08-05T10:44:55Z</time>
      </trkpt>
      <trkpt lat="46.30317" lon="7.9405">
        <ele>674.5</ele>
        <time>2012-08-05T10:44:57Z</time>
      </trkpt>
      <trkpt lat="46.30313" lon="7.94029">
        <ele>675.46</ele>
        <time>2012-08-05T10:44:58Z</time>
      </trkpt>
      <trkpt lat="46.30308" lon="7.94008">
        <ele>675.94</ele>
        <time>2012-08-05T10:44:59Z</time>
      </trkpt>
      <trkpt lat="46.30301" lon="7.93988">
        <ele>675.94</ele>
        <time>2012-08-05T10:45:00Z</time>
      </trkpt>
      <trkpt lat="46.30292" lon="7.93969">
        <ele>676.42</ele>
        <time>2012-08-05T10:45:01Z</time>
      </trkpt>
      <trkpt lat="46.30282" lon="7.93951">
        <ele>676.91</ele>
        <time>2012-08-05T10:45:02Z</time>
      </trkpt>
      <trkpt lat="46.30272" lon="7.93933">
        <ele>676.91</ele>
        <time>2012-08-05T10:45:03Z</time>
      </trkpt>
      <trkpt lat="46.3026" lon="7.93918">
        <ele>677.39</ele>
        <time>2012-08-05T10:45:04Z</time>
      </trkpt>
      <trkpt lat="46.30247" lon="7.93904">
        <ele>677.87</ele>
        <time>2012-08-05T10:45:05Z</time>
      </trkpt>
      <trkpt lat="46.30233" lon="7.93892">
        <ele>677.39</ele>
        <time>2012-08-05T10:45:06Z</time>
      </trkpt>
      <trkpt lat="46.30219" lon="7.93882">
        <ele>677.87</ele>
        <time>2012-08-05T10:45:07Z</time>
      </trkpt>
      <trkpt lat="46.30151" lon="7.93819">
        <ele>677.39</ele>
        <time>2012-08-05T10:45:12Z</time>
      </trkpt>
      <trkpt lat="46.30139" lon="7.93801">
        <ele>677.87</ele>
        <time>2012-08-05T10:45:13Z</time>
      </trkpt>
      <trkpt lat="46.30129" lon="7.93781">
        <ele>678.35</ele>
        <time>2012-08-05T10:45:14Z</time>
      </trkpt>
      <trkpt lat="46.30028" lon="7.93571">
        <ele>677.87</ele>
        <time>2012-08-05T10:45:24Z</time>
      </trkpt>
      <trkpt lat="46.29874" lon="7.93274">
        <ele>676.42</ele>
        <time>2012-08-05T10:45:38Z</time>
      </trkpt>
      <trkpt lat="46.298" lon="7.93106">
        <ele>672.58</ele>
        <time>2012-08-05T10:45:46Z</time>
      </trkpt>
      <trkpt lat="46.29776" lon="7.9306">
        <ele>669.22</ele>
        <time>2012-08-05T10:45:49Z</time>
      </trkpt>
      <trkpt lat="46.2976" lon="7.93034">
        <ele>668.25</ele>
        <time>2012-08-05T10:45:51Z</time>
      </trkpt>
      <trkpt lat="46.29742" lon="7.93004">
        <ele>665.37</ele>
        <time>2012-08-05T10:45:54Z</time>
      </trkpt>
      <trkpt lat="46.29734" lon="7.92984">
        <ele>663.93</ele>
        <time>2012-08-05T10:46:00Z</time>
      </trkpt>
      <trkpt lat="46.29733" lon="7.92978">
        <ele>664.41</ele>
        <time>2012-08-05T10:46:01Z</time>
      </trkpt>
      <trkpt lat="46.29732" lon="7.9297">
        <ele>664.41</ele>
        <time>2012-08-05T10:46:02Z</time>
      </trkpt>
      <trkpt lat="46.29729" lon="7.92962">
        <ele>663.93</ele>
        <time>2012-08-05T10:46:03Z</time>
      </trkpt>
      <trkpt lat="46.29724" lon="7.92955">
        <ele>664.41</ele>
        <time>2012-08-05T10:46:04Z</time>
      </trkpt>
      <trkpt lat="46.29717" lon="7.92947">
        <ele>664.41</ele>
        <time>2012-08-05T10:46:05Z</time>
      </trkpt>
      <trkpt lat="46.2971" lon="7.92937">
        <ele>664.41</ele>
        <time>2012-08-05T10:46:06Z</time>
      </trkpt>
      <trkpt lat="46.29705" lon="7.92923">
        <ele>664.41</ele>
        <time>2012-08-05T10:46:07Z</time>
      </trkpt>
      <trkpt lat="46.29702" lon="7.92906">
        <ele>664.41</ele>
        <time>2012-08-05T10:46:08Z</time>
      </trkpt>
      <trkpt lat="46.297" lon="7.92886">
        <ele>664.89</ele>
        <time>2012-08-05T10:46:09Z</time>
      </trkpt>
      <trkpt lat="46.297" lon="7.92864">
        <ele>664.41</ele>
        <time>2012-08-05T10:46:10Z</time>
      </trkpt>
      <trkpt lat="46.29702" lon="7.92841">
        <ele>663.45</ele>
        <time>2012-08-05T10:46:11Z</time>
      </trkpt>
      <trkpt lat="46.29705" lon="7.92818">
        <ele>661.52</ele>
        <time>2012-08-05T10:46:12Z</time>
      </trkpt>
      <trkpt lat="46.29711" lon="7.92796">
        <ele>661.04</ele>
        <time>2012-08-05T10:46:13Z</time>
      </trkpt>
      <trkpt lat="46.29717" lon="7.92775">
        <ele>661.04</ele>
        <time>2012-08-05T10:46:14Z</time>
      </trkpt>
      <trkpt lat="46.29724" lon="7.92753">
        <ele>661.04</ele>
        <time>2012-08-05T10:46:15Z</time>
      </trkpt>
      <trkpt lat="46.29762" lon="7.92599">
        <ele>660.08</ele>
        <time>2012-08-05T10:46:22Z</time>
      </trkpt>
      <trkpt lat="46.29746" lon="7.92418">
        <ele>659.6</ele>
        <time>2012-08-05T10:46:30Z</time>
      </trkpt>
      <trkpt lat="46.29694" lon="7.92164">
        <ele>658.16</ele>
        <time>2012-08-05T10:46:41Z</time>
      </trkpt>
      <trkpt lat="46.29633" lon="7.9187">
        <ele>655.76</ele>
        <time>2012-08-05T10:46:55Z</time>
      </trkpt>
      <trkpt lat="46.29621" lon="7.91776">
        <ele>654.8</ele>
        <time>2012-08-05T10:47:01Z</time>
      </trkpt>
      <trkpt lat="46.29621" lon="7.91712">
        <ele>654.31</ele>
        <time>2012-08-05T10:47:06Z</time>
      </trkpt>
      <trkpt lat="46.29624" lon="7.9169">
        <ele>654.31</ele>
        <time>2012-08-05T10:47:08Z</time>
      </trkpt>
      <trkpt lat="46.29623" lon="7.9168">
        <ele>654.31</ele>
        <time>2012-08-05T10:47:09Z</time>
      </trkpt>
      <trkpt lat="46.2962" lon="7.91669">
        <ele>654.8</ele>
        <time>2012-08-05T10:47:10Z</time>
      </trkpt>
      <trkpt lat="46.29617" lon="7.91658">
        <ele>654.31</ele>
        <time>2012-08-05T10:47:11Z</time>
      </trkpt>
      <trkpt lat="46.29614" lon="7.91646">
        <ele>654.31</ele>
        <time>2012-08-05T10:47:12Z</time>
      </trkpt>
      <trkpt lat="46.29596" lon="7.91508">
        <ele>655.28</ele>
        <time>2012-08-05T10:47:21Z</time>
      </trkpt>
      <trkpt lat="46.29575" lon="7.91288">
        <ele>655.28</ele>
        <time>2012-08-05T10:47:33Z</time>
      </trkpt>
      <trkpt lat="46.29533" lon="7.91046">
        <ele>654.8</ele>
        <time>2012-08-05T10:47:45Z</time>
      </trkpt>
      <trkpt lat="46.29471" lon="7.9073">
        <ele>654.31</ele>
        <time>2012-08-05T10:48:01Z</time>
      </trkpt>
      <trkpt lat="46.29417" lon="7.90453">
        <ele>652.87</ele>
        <time>2012-08-05T10:48:16Z</time>
      </trkpt>
      <trkpt lat="46.29402" lon="7.90332">
        <ele>651.91</ele>
        <time>2012-08-05T10:48:24Z</time>
      </trkpt>
      <trkpt lat="46.29399" lon="7.90318">
        <ele>652.39</ele>
        <time>2012-08-05T10:48:25Z</time>
      </trkpt>
      <trkpt lat="46.29392" lon="7.90288">
        <ele>652.87</ele>
        <time>2012-08-05T10:48:27Z</time>
      </trkpt>
      <trkpt lat="46.2939" lon="7.90273">
        <ele>652.39</ele>
        <time>2012-08-05T10:48:28Z</time>
      </trkpt>
      <trkpt lat="46.29376" lon="7.90076">
        <ele>653.35</ele>
        <time>2012-08-05T10:48:39Z</time>
      </trkpt>
      <trkpt lat="46.29364" lon="7.89773">
        <ele>653.83</ele>
        <time>2012-08-05T10:48:54Z</time>
      </trkpt>
      <trkpt lat="46.2933" lon="7.89512">
        <ele>653.35</ele>
        <time>2012-08-05T10:49:07Z</time>
      </trkpt>
      <trkpt lat="46.29285" lon="7.89266">
        <ele>652.87</ele>
        <time>2012-08-05T10:49:20Z</time>
      </trkpt>
      <trkpt lat="46.29235" lon="7.88995">
        <ele>652.87</ele>
        <time>2012-08-05T10:49:34Z</time>
      </trkpt>
      <trkpt lat="46.29204" lon="7.88803">
        <ele>651.43</ele>
        <time>2012-08-05T10:49:46Z</time>
      </trkpt>
      <trkpt lat="46.29208" lon="7.88699">
        <ele>651.43</ele>
        <time>2012-08-05T10:49:55Z</time>
      </trkpt>
      <trkpt lat="46.29208" lon="7.88688">
        <ele>651.43</ele>
        <time>2012-08-05T10:49:56Z</time>
      </trkpt>
      <trkpt lat="46.29207" lon="7.88677">
        <ele>651.43</ele>
        <time>2012-08-05T10:49:57Z</time>
      </trkpt>
      <trkpt lat="46.29205" lon="7.88655">
        <ele>650.95</ele>
        <time>2012-08-05T10:49:59Z</time>
      </trkpt>
      <trkpt lat="46.29216" lon="7.88507">
        <ele>651.43</ele>
        <time>2012-08-05T10:50:12Z</time>
      </trkpt>
      <trkpt lat="46.29223" lon="7.88456">
        <ele>650.95</ele>
        <time>2012-08-05T10:50:17Z</time>
      </trkpt>
      <trkpt lat="46.29228" lon="7.88432">
        <ele>650.95</ele>
        <time>2012-08-05T10:50:20Z</time>
      </trkpt>
      <trkpt lat="46.29228" lon="7.88426">
        <ele>650.95</ele>
        <time>2012-08-05T10:50:21Z</time>
      </trkpt>
      <trkpt lat="46.29228" lon="7.88422">
        <ele>651.43</ele>
        <time>2012-08-05T10:50:22Z</time>
      </trkpt>
      <trkpt lat="46.29226" lon="7.88394">
        <ele>650.95</ele>
        <time>2012-08-05T10:50:30Z</time>
      </trkpt>
      <trkpt lat="46.29225" lon="7.88375">
        <ele>651.43</ele>
        <time>2012-08-05T10:50:40Z</time>
      </trkpt>
      <trkpt lat="46.29228" lon="7.88338">
        <ele>650.95</ele>
        <time>2012-08-05T10:50:52Z</time>
      </trkpt>
      <trkpt lat="46.29225" lon="7.88314">
        <ele>651.43</ele>
        <time>2012-08-05T10:51:12Z</time>
      </trkpt>
      <trkpt lat="46.29231" lon="7.88271">
        <ele>651.91</ele>
        <time>2012-08-05T10:51:22Z</time>
      </trkpt>
      <trkpt lat="46.29232" lon="7.88245">
        <ele>651.43</ele>
        <time>2012-08-05T10:51:33Z</time>
      </trkpt>
      <trkpt lat="46.29234" lon="7.88225">
        <ele>652.39</ele>
        <time>2012-08-05T10:51:44Z</time>
      </trkpt>
      <trkpt lat="46.29229" lon="7.88215">
        <ele>652.39</ele>
        <time>2012-08-05T10:51:58Z</time>
      </trkpt>
      <trkpt lat="46.2923" lon="7.88201">
        <ele>652.39</ele>
        <time>2012-08-05T10:52:18Z</time>
      </trkpt>
      <trkpt lat="46.29231" lon="7.88181">
        <ele>652.87</ele>
        <time>2012-08-05T10:52:31Z</time>
      </trkpt>
      <trkpt lat="46.29232" lon="7.88177">
        <ele>652.39</ele>
        <time>2012-08-05T10:52:34Z</time>
      </trkpt>
      <trkpt lat="46.29232" lon="7.88147">
        <ele>652.87</ele>
        <time>2012-08-05T10:52:46Z</time>
      </trkpt>
      <trkpt lat="46.29234" lon="7.88142">
        <ele>652.87</ele>
        <time>2012-08-05T10:52:50Z</time>
      </trkpt>
      <trkpt lat="46.29235" lon="7.88139">
        <ele>652.87</ele>
        <time>2012-08-05T10:52:51Z</time>
      </trkpt>
      <trkpt lat="46.29235" lon="7.88137">
        <ele>652.87</ele>
        <time>2012-08-05T10:52:52Z</time>
      </trkpt>
      <trkpt lat="46.29236" lon="7.88135">
        <ele>652.39</ele>
        <time>2012-08-05T10:52:53Z</time>
      </trkpt>
      <trkpt lat="46.29237" lon="7.88133">
        <ele>652.87</ele>
        <time>2012-08-05T10:52:54Z</time>
      </trkpt>
      <trkpt lat="46.29239" lon="7.88121">
        <ele>652.39</ele>
        <time>2012-08-05T10:53:01Z</time>
      </trkpt>
      <trkpt lat="46.29239" lon="7.88109">
        <ele>652.87</ele>
        <time>2012-08-05T10:53:05Z</time>
      </trkpt>
      <trkpt lat="46.29239" lon="7.88107">
        <ele>652.87</ele>
        <time>2012-08-05T10:53:06Z</time>
      </trkpt>
      <trkpt lat="46.29239" lon="7.88104">
        <ele>652.87</ele>
        <time>2012-08-05T10:53:07Z</time>
      </trkpt>
      <trkpt lat="46.29239" lon="7.88102">
        <ele>652.87</ele>
        <time>2012-08-05T10:53:08Z</time>
      </trkpt>
      <trkpt lat="46.29239" lon="7.88099">
        <ele>652.39</ele>
        <time>2012-08-05T10:53:09Z</time>
      </trkpt>
      <trkpt lat="46.2924" lon="7.88079">
        <ele>652.87</ele>
        <time>2012-08-05T10:53:21Z</time>
      </trkpt>
      <trkpt lat="46.29242" lon="7.88053">
        <ele>653.35</ele>
        <time>2012-08-05T10:53:34Z</time>
      </trkpt>
      <trkpt lat="46.29243" lon="7.88051">
        <ele>652.87</ele>
        <time>2012-08-05T10:53:35Z</time>
      </trkpt>
      <trkpt lat="46.29243" lon="7.88049">
        <ele>652.87</ele>
        <time>2012-08-05T10:53:36Z</time>
      </trkpt>
      <trkpt lat="46.29244" lon="7.88047">
        <ele>653.35</ele>
        <time>2012-08-05T10:53:37Z</time>
      </trkpt>
      <trkpt lat="46.29244" lon="7.88045">
        <ele>652.87</ele>
        <time>2012-08-05T10:53:38Z</time>
      </trkpt>
      <trkpt lat="46.29245" lon="7.88043">
        <ele>652.87</ele>
        <time>2012-08-05T10:53:39Z</time>
      </trkpt>
      <trkpt lat="46.29244" lon="7.88029">
        <ele>653.35</ele>
        <time>2012-08-05T10:53:50Z</time>
      </trkpt>
      <trkpt lat="46.29238" lon="7.88022">
        <ele>652.87</ele>
        <time>2012-08-05T10:54:04Z</time>
      </trkpt>
      <trkpt lat="46.29239" lon="7.88022">
        <ele>653.35</ele>
        <time>2012-08-05T10:54:07Z</time>
      </trkpt>
      <trkpt lat="46.2924" lon="7.88021">
        <ele>653.35</ele>
        <time>2012-08-05T10:54:08Z</time>
      </trkpt>
      <trkpt lat="46.29241" lon="7.88018">
        <ele>653.35</ele>
        <time>2012-08-05T10:54:09Z</time>
      </trkpt>
      <trkpt lat="46.29242" lon="7.88015">
        <ele>653.35</ele>
        <time>2012-08-05T10:54:10Z</time>
      </trkpt>
      <trkpt lat="46.29242" lon="7.88012">
        <ele>653.35</ele>
        <time>2012-08-05T10:54:11Z</time>
      </trkpt>
      <trkpt lat="46.29242" lon="7.88009">
        <ele>653.83</ele>
        <time>2012-08-05T10:54:12Z</time>
      </trkpt>
      <trkpt lat="46.29242" lon="7.87974">
        <ele>655.28</ele>
        <time>2012-08-05T10:54:24Z</time>
      </trkpt>
      <trkpt lat="46.29248" lon="7.87946">
        <ele>655.28</ele>
        <time>2012-08-05T10:54:32Z</time>
      </trkpt>
      <trkpt lat="46.29248" lon="7.87942">
        <ele>655.76</ele>
        <time>2012-08-05T10:54:33Z</time>
      </trkpt>
      <trkpt lat="46.29246" lon="7.87937">
        <ele>655.76</ele>
        <time>2012-08-05T10:54:34Z</time>
      </trkpt>
      <trkpt lat="46.29244" lon="7.87933">
        <ele>655.76</ele>
        <time>2012-08-05T10:54:35Z</time>
      </trkpt>
      <trkpt lat="46.29243" lon="7.87926">
        <ele>656.24</ele>
        <time>2012-08-05T10:54:41Z</time>
      </trkpt>
      <trkpt lat="46.29243" lon="7.87923">
        <ele>656.24</ele>
        <time>2012-08-05T10:54:42Z</time>
      </trkpt>
      <trkpt lat="46.29241" lon="7.8789">
        <ele>656.24</ele>
        <time>2012-08-05T10:54:53Z</time>
      </trkpt>
      <trkpt lat="46.29242" lon="7.87878">
        <ele>656.72</ele>
        <time>2012-08-05T10:55:07Z</time>
      </trkpt>
      <trkpt lat="46.29248" lon="7.87857">
        <ele>656.72</ele>
        <time>2012-08-05T10:55:18Z</time>
      </trkpt>
      <trkpt lat="46.29254" lon="7.87838">
        <ele>656.72</ele>
        <time>2012-08-05T10:55:29Z</time>
      </trkpt>
      <trkpt lat="46.29254" lon="7.87835">
        <ele>656.72</ele>
        <time>2012-08-05T10:55:41Z</time>
      </trkpt>
      <trkpt lat="46.29265" lon="7.87805">
        <ele>656.72</ele>
        <time>2012-08-05T10:55:49Z</time>
      </trkpt>
      <trkpt lat="46.29266" lon="7.87803">
        <ele>656.24</ele>
        <time>2012-08-05T10:56:03Z</time>
      </trkpt>
      <trkpt lat="46.29274" lon="7.87781">
        <ele>656.72</ele>
        <time>2012-08-05T10:56:12Z</time>
      </trkpt>
      <trkpt lat="46.29274" lon="7.87777">
        <ele>657.2</ele>
        <time>2012-08-05T10:56:24Z</time>
      </trkpt>
      <trkpt lat="46.29277" lon="7.87769">
        <ele>657.68</ele>
        <time>2012-08-05T10:56:45Z</time>
      </trkpt>
      <trkpt lat="46.293" lon="7.87701">
        <ele>659.12</ele>
        <time>2012-08-05T10:56:51Z</time>
      </trkpt>
      <trkpt lat="46.29344" lon="7.87573">
        <ele>658.64</ele>
        <time>2012-08-05T10:56:58Z</time>
      </trkpt>
      <trkpt lat="46.29429" lon="7.87391">
        <ele>660.08</ele>
        <time>2012-08-05T10:57:08Z</time>
      </trkpt>
      <trkpt lat="46.29469" lon="7.87212">
        <ele>660.08</ele>
        <time>2012-08-05T10:57:16Z</time>
      </trkpt>
      <trkpt lat="46.29528" lon="7.86942">
        <ele>659.6</ele>
        <time>2012-08-05T10:57:27Z</time>
      </trkpt>
      <trkpt lat="46.29558" lon="7.86755">
        <ele>656.72</ele>
        <time>2012-08-05T10:57:35Z</time>
      </trkpt>
      <trkpt lat="46.29565" lon="7.86725">
        <ele>655.76</ele>
        <time>2012-08-05T10:57:37Z</time>
      </trkpt>
      <trkpt lat="46.2957" lon="7.86713">
        <ele>655.76</ele>
        <time>2012-08-05T10:57:38Z</time>
      </trkpt>
      <trkpt lat="46.29576" lon="7.86703">
        <ele>655.76</ele>
        <time>2012-08-05T10:57:39Z</time>
      </trkpt>
      <trkpt lat="46.29582" lon="7.86694">
        <ele>655.28</ele>
        <time>2012-08-05T10:57:40Z</time>
      </trkpt>
      <trkpt lat="46.29587" lon="7.86685">
        <ele>655.28</ele>
        <time>2012-08-05T10:57:41Z</time>
      </trkpt>
      <trkpt lat="46.29589" lon="7.86674">
        <ele>655.28</ele>
        <time>2012-08-05T10:57:42Z</time>
      </trkpt>
      <trkpt lat="46.29587" lon="7.86662">
        <ele>655.76</ele>
        <time>2012-08-05T10:57:43Z</time>
      </trkpt>
      <trkpt lat="46.29582" lon="7.86647">
        <ele>656.72</ele>
        <time>2012-08-05T10:57:44Z</time>
      </trkpt>
      <trkpt lat="46.29577" lon="7.86631">
        <ele>656.24</ele>
        <time>2012-08-05T10:57:45Z</time>
      </trkpt>
      <trkpt lat="46.29575" lon="7.86613">
        <ele>656.24</ele>
        <time>2012-08-05T10:57:46Z</time>
      </trkpt>
      <trkpt lat="46.29575" lon="7.86594">
        <ele>656.24</ele>
        <time>2012-08-05T10:57:47Z</time>
      </trkpt>
      <trkpt lat="46.29575" lon="7.86574">
        <ele>656.72</ele>
        <time>2012-08-05T10:57:48Z</time>
      </trkpt>
      <trkpt lat="46.29582" lon="7.86514">
        <ele>656.72</ele>
        <time>2012-08-05T10:57:51Z</time>
      </trkpt>
      <trkpt lat="46.29586" lon="7.86494">
        <ele>656.24</ele>
        <time>2012-08-05T10:57:52Z</time>
      </trkpt>
      <trkpt lat="46.29592" lon="7.86475">
        <ele>656.72</ele>
        <time>2012-08-05T10:57:53Z</time>
      </trkpt>
      <trkpt lat="46.29628" lon="7.86384">
        <ele>657.2</ele>
        <time>2012-08-05T10:57:58Z</time>
      </trkpt>
      <trkpt lat="46.29632" lon="7.86365">
        <ele>656.72</ele>
        <time>2012-08-05T10:57:59Z</time>
      </trkpt>
      <trkpt lat="46.29635" lon="7.86345">
        <ele>657.2</ele>
        <time>2012-08-05T10:58:00Z</time>
      </trkpt>
      <trkpt lat="46.29641" lon="7.86284">
        <ele>657.68</ele>
        <time>2012-08-05T10:58:03Z</time>
      </trkpt>
      <trkpt lat="46.29647" lon="7.86266">
        <ele>657.2</ele>
        <time>2012-08-05T10:58:04Z</time>
      </trkpt>
      <trkpt lat="46.29688" lon="7.86155">
        <ele>654.8</ele>
        <time>2012-08-05T10:58:12Z</time>
      </trkpt>
      <trkpt lat="46.29722" lon="7.86036">
        <ele>652.87</ele>
        <time>2012-08-05T10:58:22Z</time>
      </trkpt>
      <trkpt lat="46.29727" lon="7.86029">
        <ele>652.87</ele>
        <time>2012-08-05T10:58:23Z</time>
      </trkpt>
      <trkpt lat="46.29733" lon="7.86023">
        <ele>652.87</ele>
        <time>2012-08-05T10:58:24Z</time>
      </trkpt>
      <trkpt lat="46.29737" lon="7.86015">
        <ele>652.39</ele>
        <time>2012-08-05T10:58:25Z</time>
      </trkpt>
      <trkpt lat="46.2974" lon="7.86007">
        <ele>652.39</ele>
        <time>2012-08-05T10:58:26Z</time>
      </trkpt>
      <trkpt lat="46.29741" lon="7.85998">
        <ele>652.39</ele>
        <time>2012-08-05T10:58:27Z</time>
      </trkpt>
      <trkpt lat="46.29741" lon="7.85986">
        <ele>653.35</ele>
        <time>2012-08-05T10:58:28Z</time>
      </trkpt>
      <trkpt lat="46.29741" lon="7.85973">
        <ele>653.35</ele>
        <time>2012-08-05T10:58:29Z</time>
      </trkpt>
      <trkpt lat="46.29742" lon="7.85958">
        <ele>652.87</ele>
        <time>2012-08-05T10:58:30Z</time>
      </trkpt>
      <trkpt lat="46.29743" lon="7.85942">
        <ele>652.87</ele>
        <time>2012-08-05T10:58:31Z</time>
      </trkpt>
      <trkpt lat="46.29745" lon="7.85925">
        <ele>653.35</ele>
        <time>2012-08-05T10:58:32Z</time>
      </trkpt>
      <trkpt lat="46.29758" lon="7.85754">
        <ele>652.87</ele>
        <time>2012-08-05T10:58:40Z</time>
      </trkpt>
      <trkpt lat="46.29776" lon="7.85516">
        <ele>650.47</ele>
        <time>2012-08-05T10:58:51Z</time>
      </trkpt>
      <trkpt lat="46.298" lon="7.85199">
        <ele>649.51</ele>
        <time>2012-08-05T10:59:04Z</time>
      </trkpt>
      <trkpt lat="46.29821" lon="7.84926">
        <ele>647.59</ele>
        <time>2012-08-05T10:59:16Z</time>
      </trkpt>
      <trkpt lat="46.29842" lon="7.84647">
        <ele>649.99</ele>
        <time>2012-08-05T10:59:28Z</time>
      </trkpt>
      <trkpt lat="46.29847" lon="7.84577">
        <ele>648.07</ele>
        <time>2012-08-05T10:59:31Z</time>
      </trkpt>
      <trkpt lat="46.2987" lon="7.84276">
        <ele>649.03</ele>
        <time>2012-08-05T10:59:44Z</time>
      </trkpt>
      <trkpt lat="46.29894" lon="7.83953">
        <ele>648.07</ele>
        <time>2012-08-05T10:59:57Z</time>
      </trkpt>
      <trkpt lat="46.2991" lon="7.83729">
        <ele>645.66</ele>
        <time>2012-08-05T11:00:07Z</time>
      </trkpt>
      <trkpt lat="46.29931" lon="7.83461">
        <ele>646.14</ele>
        <time>2012-08-05T11:00:19Z</time>
      </trkpt>
      <trkpt lat="46.29953" lon="7.83199">
        <ele>646.14</ele>
        <time>2012-08-05T11:00:30Z</time>
      </trkpt>
      <trkpt lat="46.29979" lon="7.82846">
        <ele>645.66</ele>
        <time>2012-08-05T11:00:45Z</time>
      </trkpt>
      <trkpt lat="46.29993" lon="7.82658">
        <ele>644.22</ele>
        <time>2012-08-05T11:00:54Z</time>
      </trkpt>
      <trkpt lat="46.30018" lon="7.82344">
        <ele>644.22</ele>
        <time>2012-08-05T11:01:09Z</time>
      </trkpt>
      <trkpt lat="46.30048" lon="7.82098">
        <ele>644.22</ele>
        <time>2012-08-05T11:01:20Z</time>
      </trkpt>
      <trkpt lat="46.30051" lon="7.82077">
        <ele>644.22</ele>
        <time>2012-08-05T11:01:21Z</time>
      </trkpt>
      <trkpt lat="46.30093" lon="7.81803">
        <ele>644.22</ele>
        <time>2012-08-05T11:01:34Z</time>
      </trkpt>
      <trkpt lat="46.30149" lon="7.81446">
        <ele>644.7</ele>
        <time>2012-08-05T11:01:49Z</time>
      </trkpt>
      <trkpt lat="46.30203" lon="7.81103">
        <ele>645.18</ele>
        <time>2012-08-05T11:02:03Z</time>
      </trkpt>
      <trkpt lat="46.30261" lon="7.80735">
        <ele>644.22</ele>
        <time>2012-08-05T11:02:19Z</time>
      </trkpt>
      <trkpt lat="46.30311" lon="7.80414">
        <ele>645.18</ele>
        <time>2012-08-05T11:02:34Z</time>
      </trkpt>
      <trkpt lat="46.30332" lon="7.80281">
        <ele>643.26</ele>
        <time>2012-08-05T11:02:42Z</time>
      </trkpt>
      <trkpt lat="46.30357" lon="7.8012">
        <ele>643.26</ele>
        <time>2012-08-05T11:02:54Z</time>
      </trkpt>
      <trkpt lat="46.30361" lon="7.80103">
        <ele>642.78</ele>
        <time>2012-08-05T11:02:56Z</time>
      </trkpt>
      <trkpt lat="46.30363" lon="7.80095">
        <ele>642.78</ele>
        <time>2012-08-05T11:02:57Z</time>
      </trkpt>
      <trkpt lat="46.30365" lon="7.80086">
        <ele>642.78</ele>
        <time>2012-08-05T11:02:58Z</time>
      </trkpt>
      <trkpt lat="46.30367" lon="7.80063">
        <ele>643.74</ele>
        <time>2012-08-05T11:03:00Z</time>
      </trkpt>
      <trkpt lat="46.30387" lon="7.79924">
        <ele>644.7</ele>
        <time>2012-08-05T11:03:08Z</time>
      </trkpt>
      <trkpt lat="46.30412" lon="7.79655">
        <ele>645.18</ele>
        <time>2012-08-05T11:03:20Z</time>
      </trkpt>
      <trkpt lat="46.30434" lon="7.79294">
        <ele>645.66</ele>
        <time>2012-08-05T11:03:35Z</time>
      </trkpt>
      <trkpt lat="46.30443" lon="7.79115">
        <ele>647.59</ele>
        <time>2012-08-05T11:03:42Z</time>
      </trkpt>
      <trkpt lat="46.30449" lon="7.78983">
        <ele>649.51</ele>
        <time>2012-08-05T11:03:46Z</time>
      </trkpt>
      <trkpt lat="46.30473" lon="7.78604">
        <ele>652.39</ele>
        <time>2012-08-05T11:03:57Z</time>
      </trkpt>
      <trkpt lat="46.30477" lon="7.78525">
        <ele>654.31</ele>
        <time>2012-08-05T11:03:59Z</time>
      </trkpt>
      <trkpt lat="46.30484" lon="7.78407">
        <ele>652.39</ele>
        <time>2012-08-05T11:04:02Z</time>
      </trkpt>
      <trkpt lat="46.305" lon="7.78185">
        <ele>648.55</ele>
        <time>2012-08-05T11:04:08Z</time>
      </trkpt>
      <trkpt lat="46.30503" lon="7.78151">
        <ele>649.03</ele>
        <time>2012-08-05T11:04:09Z</time>
      </trkpt>
      <trkpt lat="46.30545" lon="7.77647">
        <ele>649.03</ele>
        <time>2012-08-05T11:04:24Z</time>
      </trkpt>
      <trkpt lat="46.30627" lon="7.77187">
        <ele>649.99</ele>
        <time>2012-08-05T11:04:38Z</time>
      </trkpt>
      <trkpt lat="46.30677" lon="7.76814">
        <ele>649.99</ele>
        <time>2012-08-05T11:04:49Z</time>
      </trkpt>
      <trkpt lat="46.30722" lon="7.76339">
        <ele>652.39</ele>
        <time>2012-08-05T11:05:03Z</time>
      </trkpt>
      <trkpt lat="46.30718" lon="7.76048">
        <ele>651.43</ele>
        <time>2012-08-05T11:05:12Z</time>
      </trkpt>
      <trkpt lat="46.30642" lon="7.75735">
        <ele>650.95</ele>
        <time>2012-08-05T11:05:22Z</time>
      </trkpt>
      <trkpt lat="46.3061" lon="7.7561">
        <ele>647.59</ele>
        <time>2012-08-05T11:05:26Z</time>
      </trkpt>
      <trkpt lat="46.30603" lon="7.75579">
        <ele>647.59</ele>
        <time>2012-08-05T11:05:27Z</time>
      </trkpt>
      <trkpt lat="46.30585" lon="7.75486">
        <ele>646.14</ele>
        <time>2012-08-05T11:05:30Z</time>
      </trkpt>
      <trkpt lat="46.30583" lon="7.75455">
        <ele>645.66</ele>
        <time>2012-08-05T11:05:31Z</time>
      </trkpt>
      <trkpt lat="46.30584" lon="7.75425">
        <ele>645.18</ele>
        <time>2012-08-05T11:05:32Z</time>
      </trkpt>
      <trkpt lat="46.30586" lon="7.75395">
        <ele>644.22</ele>
        <time>2012-08-05T11:05:33Z</time>
      </trkpt>
      <trkpt lat="46.3059" lon="7.75366">
        <ele>643.74</ele>
        <time>2012-08-05T11:05:34Z</time>
      </trkpt>
      <trkpt lat="46.30595" lon="7.75339">
        <ele>643.26</ele>
        <time>2012-08-05T11:05:35Z</time>
      </trkpt>
      <trkpt lat="46.30601" lon="7.75314">
        <ele>643.26</ele>
        <time>2012-08-05T11:05:36Z</time>
      </trkpt>
      <trkpt lat="46.30606" lon="7.75291">
        <ele>642.78</ele>
        <time>2012-08-05T11:05:37Z</time>
      </trkpt>
      <trkpt lat="46.3061" lon="7.75269">
        <ele>641.82</ele>
        <time>2012-08-05T11:05:38Z</time>
      </trkpt>
      <trkpt lat="46.30619" lon="7.7523">
        <ele>640.38</ele>
        <time>2012-08-05T11:05:40Z</time>
      </trkpt>
      <trkpt lat="46.30624" lon="7.75217">
        <ele>640.38</ele>
        <time>2012-08-05T11:05:41Z</time>
      </trkpt>
      <trkpt lat="46.30635" lon="7.75198">
        <ele>639.89</ele>
        <time>2012-08-05T11:05:43Z</time>
      </trkpt>
      <trkpt lat="46.30642" lon="7.75193">
        <ele>640.38</ele>
        <time>2012-08-05T11:05:44Z</time>
      </trkpt>
      <trkpt lat="46.30652" lon="7.7519">
        <ele>640.86</ele>
        <time>2012-08-05T11:05:45Z</time>
      </trkpt>
      <trkpt lat="46.30659" lon="7.75184">
        <ele>640.38</ele>
        <time>2012-08-05T11:05:46Z</time>
      </trkpt>
      <trkpt lat="46.30665" lon="7.75175">
        <ele>640.86</ele>
        <time>2012-08-05T11:05:47Z</time>
      </trkpt>
      <trkpt lat="46.30666" lon="7.75163">
        <ele>639.89</ele>
        <time>2012-08-05T11:05:48Z</time>
      </trkpt>
      <trkpt lat="46.30665" lon="7.75151">
        <ele>639.89</ele>
        <time>2012-08-05T11:05:49Z</time>
      </trkpt>
      <trkpt lat="46.30656" lon="7.75013">
        <ele>640.38</ele>
        <time>2012-08-05T11:05:58Z</time>
      </trkpt>
      <trkpt lat="46.30636" lon="7.74833">
        <ele>640.38</ele>
        <time>2012-08-05T11:06:09Z</time>
      </trkpt>
      <trkpt lat="46.3063" lon="7.74776">
        <ele>639.41</ele>
        <time>2012-08-05T11:06:14Z</time>
      </trkpt>
      <trkpt lat="46.3063" lon="7.74765">
        <ele>639.89</ele>
        <time>2012-08-05T11:06:15Z</time>
      </trkpt>
      <trkpt lat="46.3063" lon="7.74755">
        <ele>640.38</ele>
        <time>2012-08-05T11:06:16Z</time>
      </trkpt>
      <trkpt lat="46.30629" lon="7.74744">
        <ele>639.89</ele>
        <time>2012-08-05T11:06:17Z</time>
      </trkpt>
      <trkpt lat="46.30627" lon="7.74732">
        <ele>639.89</ele>
        <time>2012-08-05T11:06:18Z</time>
      </trkpt>
      <trkpt lat="46.3061" lon="7.746">
        <ele>641.34</ele>
        <time>2012-08-05T11:06:26Z</time>
      </trkpt>
      <trkpt lat="46.30586" lon="7.74382">
        <ele>643.74</ele>
        <time>2012-08-05T11:06:36Z</time>
      </trkpt>
      <trkpt lat="46.30545" lon="7.74088">
        <ele>646.62</ele>
        <time>2012-08-05T11:06:47Z</time>
      </trkpt>
      <trkpt lat="46.30537" lon="7.74061">
        <ele>646.62</ele>
        <time>2012-08-05T11:06:48Z</time>
      </trkpt>
      <trkpt lat="46.30468" lon="7.73802">
        <ele>646.62</ele>
        <time>2012-08-05T11:06:57Z</time>
      </trkpt>
      <trkpt lat="46.30465" lon="7.73771">
        <ele>646.14</ele>
        <time>2012-08-05T11:06:58Z</time>
      </trkpt>
      <trkpt lat="46.30466" lon="7.7374">
        <ele>646.14</ele>
        <time>2012-08-05T11:06:59Z</time>
      </trkpt>
      <trkpt lat="46.30469" lon="7.73709">
        <ele>646.14</ele>
        <time>2012-08-05T11:07:00Z</time>
      </trkpt>
      <trkpt lat="46.30474" lon="7.73678">
        <ele>646.14</ele>
        <time>2012-08-05T11:07:01Z</time>
      </trkpt>
      <trkpt lat="46.30482" lon="7.73649">
        <ele>647.59</ele>
        <time>2012-08-05T11:07:02Z</time>
      </trkpt>
      <trkpt lat="46.30492" lon="7.73621">
        <ele>648.55</ele>
        <time>2012-08-05T11:07:03Z</time>
      </trkpt>
      <trkpt lat="46.30501" lon="7.73593">
        <ele>648.55</ele>
        <time>2012-08-05T11:07:04Z</time>
      </trkpt>
      <trkpt lat="46.30523" lon="7.73507">
        <ele>649.03</ele>
        <time>2012-08-05T11:07:07Z</time>
      </trkpt>
      <trkpt lat="46.30526" lon="7.73477">
        <ele>649.51</ele>
        <time>2012-08-05T11:07:08Z</time>
      </trkpt>
      <trkpt lat="46.30527" lon="7.73446">
        <ele>649.99</ele>
        <time>2012-08-05T11:07:09Z</time>
      </trkpt>
      <trkpt lat="46.30526" lon="7.73415">
        <ele>649.03</ele>
        <time>2012-08-05T11:07:10Z</time>
      </trkpt>
      <trkpt lat="46.30523" lon="7.73386">
        <ele>648.55</ele>
        <time>2012-08-05T11:07:11Z</time>
      </trkpt>
      <trkpt lat="46.30496" lon="7.73146">
        <ele>644.22</ele>
        <time>2012-08-05T11:07:19Z</time>
      </trkpt>
      <trkpt lat="46.30492" lon="7.73115">
        <ele>644.22</ele>
        <time>2012-08-05T11:07:20Z</time>
      </trkpt>
      <trkpt lat="46.30478" lon="7.7299">
        <ele>642.3</ele>
        <time>2012-08-05T11:07:24Z</time>
      </trkpt>
      <trkpt lat="46.30427" lon="7.72524">
        <ele>640.86</ele>
        <time>2012-08-05T11:07:39Z</time>
      </trkpt>
      <trkpt lat="46.30391" lon="7.72192">
        <ele>638.93</ele>
        <time>2012-08-05T11:07:50Z</time>
      </trkpt>
      <trkpt lat="46.30371" lon="7.72008">
        <ele>639.41</ele>
        <time>2012-08-05T11:07:56Z</time>
      </trkpt>
      <trkpt lat="46.30335" lon="7.71679">
        <ele>638.45</ele>
        <time>2012-08-05T11:08:07Z</time>
      </trkpt>
      <trkpt lat="46.30329" lon="7.7162">
        <ele>637.49</ele>
        <time>2012-08-05T11:08:09Z</time>
      </trkpt>
      <trkpt lat="46.30281" lon="7.71198">
        <ele>639.41</ele>
        <time>2012-08-05T11:08:23Z</time>
      </trkpt>
      <trkpt lat="46.30263" lon="7.71032">
        <ele>637.49</ele>
        <time>2012-08-05T11:08:29Z</time>
      </trkpt>
      <trkpt lat="46.30252" lon="7.70935">
        <ele>635.09</ele>
        <time>2012-08-05T11:08:33Z</time>
      </trkpt>
      <trkpt lat="46.3024" lon="7.70822">
        <ele>633.65</ele>
        <time>2012-08-05T11:08:39Z</time>
      </trkpt>
      <trkpt lat="46.3021" lon="7.70549">
        <ele>636.05</ele>
        <time>2012-08-05T11:08:54Z</time>
      </trkpt>
      <trkpt lat="46.30178" lon="7.7025">
        <ele>638.93</ele>
        <time>2012-08-05T11:09:11Z</time>
      </trkpt>
      <trkpt lat="46.3015" lon="7.70007">
        <ele>639.89</ele>
        <time>2012-08-05T11:09:24Z</time>
      </trkpt>
      <trkpt lat="46.30125" lon="7.6978">
        <ele>643.26</ele>
        <time>2012-08-05T11:09:35Z</time>
      </trkpt>
      <trkpt lat="46.30108" lon="7.69642">
        <ele>639.89</ele>
        <time>2012-08-05T11:09:41Z</time>
      </trkpt>
      <trkpt lat="46.30094" lon="7.69519">
        <ele>637.97</ele>
        <time>2012-08-05T11:09:46Z</time>
      </trkpt>
      <trkpt lat="46.30065" lon="7.69262">
        <ele>636.53</ele>
        <time>2012-08-05T11:09:55Z</time>
      </trkpt>
      <trkpt lat="46.30047" lon="7.69106">
        <ele>636.53</ele>
        <time>2012-08-05T11:10:00Z</time>
      </trkpt>
      <trkpt lat="46.30013" lon="7.68775">
        <ele>637.01</ele>
        <time>2012-08-05T11:10:11Z</time>
      </trkpt>
      <trkpt lat="46.29972" lon="7.68401">
        <ele>636.05</ele>
        <time>2012-08-05T11:10:23Z</time>
      </trkpt>
      <trkpt lat="46.29928" lon="7.68013">
        <ele>636.05</ele>
        <time>2012-08-05T11:10:36Z</time>
      </trkpt>
      <trkpt lat="46.29922" lon="7.67952">
        <ele>637.01</ele>
        <time>2012-08-05T11:10:38Z</time>
      </trkpt>
      <trkpt lat="46.29872" lon="7.6749">
        <ele>636.53</ele>
        <time>2012-08-05T11:10:53Z</time>
      </trkpt>
      <trkpt lat="46.29831" lon="7.67095">
        <ele>637.49</ele>
        <time>2012-08-05T11:11:07Z</time>
      </trkpt>
      <trkpt lat="46.29826" lon="7.67041">
        <ele>636.05</ele>
        <time>2012-08-05T11:11:09Z</time>
      </trkpt>
      <trkpt lat="46.29816" lon="7.66874">
        <ele>632.2</ele>
        <time>2012-08-05T11:11:16Z</time>
      </trkpt>
      <trkpt lat="46.29815" lon="7.66821">
        <ele>631.24</ele>
        <time>2012-08-05T11:11:19Z</time>
      </trkpt>
      <trkpt lat="46.29815" lon="7.66794">
        <ele>629.8</ele>
        <time>2012-08-05T11:11:21Z</time>
      </trkpt>
      <trkpt lat="46.29818" lon="7.66781">
        <ele>629.8</ele>
        <time>2012-08-05T11:11:22Z</time>
      </trkpt>
      <trkpt lat="46.2982" lon="7.66768">
        <ele>629.32</ele>
        <time>2012-08-05T11:11:23Z</time>
      </trkpt>
      <trkpt lat="46.29821" lon="7.66754">
        <ele>629.8</ele>
        <time>2012-08-05T11:11:24Z</time>
      </trkpt>
      <trkpt lat="46.29819" lon="7.66736">
        <ele>629.8</ele>
        <time>2012-08-05T11:11:25Z</time>
      </trkpt>
      <trkpt lat="46.29817" lon="7.66716">
        <ele>630.76</ele>
        <time>2012-08-05T11:11:26Z</time>
      </trkpt>
      <trkpt lat="46.29818" lon="7.66695">
        <ele>630.76</ele>
        <time>2012-08-05T11:11:27Z</time>
      </trkpt>
      <trkpt lat="46.29834" lon="7.66497">
        <ele>630.76</ele>
        <time>2012-08-05T11:11:36Z</time>
      </trkpt>
      <trkpt lat="46.29856" lon="7.66377">
        <ele>632.68</ele>
        <time>2012-08-05T11:11:41Z</time>
      </trkpt>
      <trkpt lat="46.29937" lon="7.6614">
        <ele>636.05</ele>
        <time>2012-08-05T11:11:51Z</time>
      </trkpt>
      <trkpt lat="46.29947" lon="7.6612">
        <ele>636.53</ele>
        <time>2012-08-05T11:11:52Z</time>
      </trkpt>
      <trkpt lat="46.30056" lon="7.6594">
        <ele>637.01</ele>
        <time>2012-08-05T11:12:02Z</time>
      </trkpt>
      <trkpt lat="46.30109" lon="7.65872">
        <ele>636.53</ele>
        <time>2012-08-05T11:12:08Z</time>
      </trkpt>
      <trkpt lat="46.30117" lon="7.65866">
        <ele>636.53</ele>
        <time>2012-08-05T11:12:09Z</time>
      </trkpt>
      <trkpt lat="46.30134" lon="7.65854">
        <ele>636.05</ele>
        <time>2012-08-05T11:12:11Z</time>
      </trkpt>
      <trkpt lat="46.3014" lon="7.65843">
        <ele>637.01</ele>
        <time>2012-08-05T11:12:12Z</time>
      </trkpt>
      <trkpt lat="46.30148" lon="7.65832">
        <ele>637.01</ele>
        <time>2012-08-05T11:12:13Z</time>
      </trkpt>
      <trkpt lat="46.30157" lon="7.6582">
        <ele>637.49</ele>
        <time>2012-08-05T11:12:14Z</time>
      </trkpt>
      <trkpt lat="46.30168" lon="7.65807">
        <ele>639.41</ele>
        <time>2012-08-05T11:12:15Z</time>
      </trkpt>
      <trkpt lat="46.3018" lon="7.65795">
        <ele>640.38</ele>
        <time>2012-08-05T11:12:16Z</time>
      </trkpt>
      <trkpt lat="46.30193" lon="7.65782">
        <ele>640.38</ele>
        <time>2012-08-05T11:12:17Z</time>
      </trkpt>
      <trkpt lat="46.30379" lon="7.65613">
        <ele>642.3</ele>
        <time>2012-08-05T11:12:31Z</time>
      </trkpt>
      <trkpt lat="46.30541" lon="7.65471">
        <ele>639.41</ele>
        <time>2012-08-05T11:12:44Z</time>
      </trkpt>
      <trkpt lat="46.30714" lon="7.65324">
        <ele>637.49</ele>
        <time>2012-08-05T11:12:58Z</time>
      </trkpt>
      <trkpt lat="46.30834" lon="7.65186">
        <ele>635.57</ele>
        <time>2012-08-05T11:13:08Z</time>
      </trkpt>
      <trkpt lat="46.30938" lon="7.65015">
        <ele>634.61</ele>
        <time>2012-08-05T11:13:19Z</time>
      </trkpt>
      <trkpt lat="46.31044" lon="7.64774">
        <ele>634.61</ele>
        <time>2012-08-05T11:13:32Z</time>
      </trkpt>
      <trkpt lat="46.31074" lon="7.64655">
        <ele>636.05</ele>
        <time>2012-08-05T11:13:38Z</time>
      </trkpt>
      <trkpt lat="46.31085" lon="7.64473">
        <ele>638.45</ele>
        <time>2012-08-05T11:13:48Z</time>
      </trkpt>
      <trkpt lat="46.31098" lon="7.64369">
        <ele>636.53</ele>
        <time>2012-08-05T11:13:56Z</time>
      </trkpt>
      <trkpt lat="46.31102" lon="7.6436">
        <ele>636.53</ele>
        <time>2012-08-05T11:13:57Z</time>
      </trkpt>
      <trkpt lat="46.3111" lon="7.64341">
        <ele>635.57</ele>
        <time>2012-08-05T11:13:59Z</time>
      </trkpt>
      <trkpt lat="46.31112" lon="7.64327">
        <ele>636.05</ele>
        <time>2012-08-05T11:14:00Z</time>
      </trkpt>
      <trkpt lat="46.31119" lon="7.64296">
        <ele>636.53</ele>
        <time>2012-08-05T11:14:02Z</time>
      </trkpt>
      <trkpt lat="46.31125" lon="7.64279">
        <ele>636.53</ele>
        <time>2012-08-05T11:14:03Z</time>
      </trkpt>
      <trkpt lat="46.31187" lon="7.64093">
        <ele>634.61</ele>
        <time>2012-08-05T11:14:13Z</time>
      </trkpt>
      <trkpt lat="46.31189" lon="7.64074">
        <ele>634.61</ele>
        <time>2012-08-05T11:14:14Z</time>
      </trkpt>
      <trkpt lat="46.31199" lon="7.6401">
        <ele>632.2</ele>
        <time>2012-08-05T11:14:18Z</time>
      </trkpt>
      <trkpt lat="46.31204" lon="7.63997">
        <ele>631.72</ele>
        <time>2012-08-05T11:14:19Z</time>
      </trkpt>
      <trkpt lat="46.3121" lon="7.63985">
        <ele>631.72</ele>
        <time>2012-08-05T11:14:20Z</time>
      </trkpt>
      <trkpt lat="46.31215" lon="7.6397">
        <ele>631.72</ele>
        <time>2012-08-05T11:14:21Z</time>
      </trkpt>
      <trkpt lat="46.3122" lon="7.63952">
        <ele>632.2</ele>
        <time>2012-08-05T11:14:22Z</time>
      </trkpt>
      <trkpt lat="46.31261" lon="7.63776">
        <ele>632.2</ele>
        <time>2012-08-05T11:14:30Z</time>
      </trkpt>
      <trkpt lat="46.31264" lon="7.63753">
        <ele>631.72</ele>
        <time>2012-08-05T11:14:31Z</time>
      </trkpt>
      <trkpt lat="46.31262" lon="7.63572">
        <ele>632.2</ele>
        <time>2012-08-05T11:14:38Z</time>
      </trkpt>
      <trkpt lat="46.31265" lon="7.63428">
        <ele>630.76</ele>
        <time>2012-08-05T11:14:45Z</time>
      </trkpt>
      <trkpt lat="46.31266" lon="7.63425">
        <ele>629.8</ele>
        <time>2012-08-05T11:14:48Z</time>
      </trkpt>
      <trkpt lat="46.3141" lon="7.63082">
        <ele>629.32</ele>
        <time>2012-08-05T11:14:57Z</time>
      </trkpt>
      <trkpt lat="46.31544" lon="7.62802">
        <ele>627.4</ele>
        <time>2012-08-05T11:15:08Z</time>
      </trkpt>
      <trkpt lat="46.31591" lon="7.62561">
        <ele>625.96</ele>
        <time>2012-08-05T11:15:16Z</time>
      </trkpt>
      <trkpt lat="46.31655" lon="7.62145">
        <ele>624.51</ele>
        <time>2012-08-05T11:15:29Z</time>
      </trkpt>
      <trkpt lat="46.31657" lon="7.6208">
        <ele>623.55</ele>
        <time>2012-08-05T11:15:31Z</time>
      </trkpt>
      <trkpt lat="46.31635" lon="7.61816">
        <ele>621.63</ele>
        <time>2012-08-05T11:15:39Z</time>
      </trkpt>
      <trkpt lat="46.31582" lon="7.61485">
        <ele>619.71</ele>
        <time>2012-08-05T11:15:49Z</time>
      </trkpt>
      <trkpt lat="46.3156" lon="7.61315">
        <ele>618.26</ele>
        <time>2012-08-05T11:15:54Z</time>
      </trkpt>
      <trkpt lat="46.31511" lon="7.60975">
        <ele>614.9</ele>
        <time>2012-08-05T11:16:04Z</time>
      </trkpt>
      <trkpt lat="46.31465" lon="7.60642">
        <ele>612.98</ele>
        <time>2012-08-05T11:16:14Z</time>
      </trkpt>
      <trkpt lat="46.31455" lon="7.60576">
        <ele>611.54</ele>
        <time>2012-08-05T11:16:16Z</time>
      </trkpt>
      <trkpt lat="46.31414" lon="7.60315">
        <ele>609.61</ele>
        <time>2012-08-05T11:16:24Z</time>
      </trkpt>
      <trkpt lat="46.31407" lon="7.60216">
        <ele>609.61</ele>
        <time>2012-08-05T11:16:27Z</time>
      </trkpt>
      <trkpt lat="46.31401" lon="7.60183">
        <ele>609.61</ele>
        <time>2012-08-05T11:16:28Z</time>
      </trkpt>
      <trkpt lat="46.31392" lon="7.60151">
        <ele>609.61</ele>
        <time>2012-08-05T11:16:29Z</time>
      </trkpt>
      <trkpt lat="46.31327" lon="7.59896">
        <ele>608.17</ele>
        <time>2012-08-05T11:16:37Z</time>
      </trkpt>
      <trkpt lat="46.31264" lon="7.5971">
        <ele>606.73</ele>
        <time>2012-08-05T11:16:43Z</time>
      </trkpt>
      <trkpt lat="46.31242" lon="7.59649">
        <ele>605.29</ele>
        <time>2012-08-05T11:16:45Z</time>
      </trkpt>
      <trkpt lat="46.3121" lon="7.59478">
        <ele>602.88</ele>
        <time>2012-08-05T11:16:52Z</time>
      </trkpt>
      <trkpt lat="46.31178" lon="7.59349">
        <ele>603.36</ele>
        <time>2012-08-05T11:16:54Z</time>
      </trkpt>
      <trkpt lat="46.31185" lon="7.59314">
        <ele>602.88</ele>
        <time>2012-08-05T11:16:55Z</time>
      </trkpt>
      <trkpt lat="46.31203" lon="7.59081">
        <ele>601.92</ele>
        <time>2012-08-05T11:17:02Z</time>
      </trkpt>
      <trkpt lat="46.31204" lon="7.58857">
        <ele>599.04</ele>
        <time>2012-08-05T11:17:09Z</time>
      </trkpt>
      <trkpt lat="46.31216" lon="7.58699">
        <ele>597.6</ele>
        <time>2012-08-05T11:17:14Z</time>
      </trkpt>
      <trkpt lat="46.31213" lon="7.58667">
        <ele>597.12</ele>
        <time>2012-08-05T11:17:15Z</time>
      </trkpt>
      <trkpt lat="46.31208" lon="7.58636">
        <ele>596.15</ele>
        <time>2012-08-05T11:17:16Z</time>
      </trkpt>
      <trkpt lat="46.31201" lon="7.58606">
        <ele>594.71</ele>
        <time>2012-08-05T11:17:17Z</time>
      </trkpt>
      <trkpt lat="46.31192" lon="7.58577">
        <ele>594.71</ele>
        <time>2012-08-05T11:17:18Z</time>
      </trkpt>
      <trkpt lat="46.31182" lon="7.58551">
        <ele>593.75</ele>
        <time>2012-08-05T11:17:19Z</time>
      </trkpt>
      <trkpt lat="46.31172" lon="7.58526">
        <ele>592.79</ele>
        <time>2012-08-05T11:17:20Z</time>
      </trkpt>
      <trkpt lat="46.31141" lon="7.58459">
        <ele>589.91</ele>
        <time>2012-08-05T11:17:23Z</time>
      </trkpt>
      <trkpt lat="46.31122" lon="7.58417">
        <ele>588.95</ele>
        <time>2012-08-05T11:17:25Z</time>
      </trkpt>
      <trkpt lat="46.31075" lon="7.58314">
        <ele>585.1</ele>
        <time>2012-08-05T11:17:30Z</time>
      </trkpt>
      <trkpt lat="46.3104" lon="7.58237">
        <ele>582.7</ele>
        <time>2012-08-05T11:17:34Z</time>
      </trkpt>
      <trkpt lat="46.31013" lon="7.5818">
        <ele>580.77</ele>
        <time>2012-08-05T11:17:38Z</time>
      </trkpt>
      <trkpt lat="46.31003" lon="7.58157">
        <ele>580.29</ele>
        <time>2012-08-05T11:17:40Z</time>
      </trkpt>
      <trkpt lat="46.30993" lon="7.58133">
        <ele>579.81</ele>
        <time>2012-08-05T11:17:42Z</time>
      </trkpt>
      <trkpt lat="46.30985" lon="7.58123">
        <ele>580.29</ele>
        <time>2012-08-05T11:17:43Z</time>
      </trkpt>
      <trkpt lat="46.30978" lon="7.58112">
        <ele>580.29</ele>
        <time>2012-08-05T11:17:44Z</time>
      </trkpt>
      <trkpt lat="46.30971" lon="7.58099">
        <ele>579.81</ele>
        <time>2012-08-05T11:17:45Z</time>
      </trkpt>
      <trkpt lat="46.30966" lon="7.58085">
        <ele>579.81</ele>
        <time>2012-08-05T11:17:46Z</time>
      </trkpt>
      <trkpt lat="46.30961" lon="7.58071">
        <ele>579.81</ele>
        <time>2012-08-05T11:17:47Z</time>
      </trkpt>
      <trkpt lat="46.30919" lon="7.57914">
        <ele>579.81</ele>
        <time>2012-08-05T11:17:57Z</time>
      </trkpt>
      <trkpt lat="46.30915" lon="7.57894">
        <ele>576.93</ele>
        <time>2012-08-05T11:18:09Z</time>
      </trkpt>
      <trkpt lat="46.30916" lon="7.57899">
        <ele>573.56</ele>
        <time>2012-08-05T11:18:17Z</time>
      </trkpt>
      <trkpt lat="46.30915" lon="7.57893">
        <ele>570.68</ele>
        <time>2012-08-05T11:18:26Z</time>
      </trkpt>
      <trkpt lat="46.30917" lon="7.57903">
        <ele>569.24</ele>
        <time>2012-08-05T11:18:27Z</time>
      </trkpt>
      <trkpt lat="46.30915" lon="7.57894">
        <ele>569.24</ele>
        <time>2012-08-05T11:18:28Z</time>
      </trkpt>
      <trkpt lat="46.30917" lon="7.57901">
        <ele>568.76</ele>
        <time>2012-08-05T11:18:29Z</time>
      </trkpt>
      <trkpt lat="46.30913" lon="7.57886">
        <ele>565.87</ele>
        <time>2012-08-05T11:18:34Z</time>
      </trkpt>
      <trkpt lat="46.30911" lon="7.57878">
        <ele>562.51</ele>
        <time>2012-08-05T11:18:40Z</time>
      </trkpt>
      <trkpt lat="46.30595" lon="7.56777">
        <ele>560.59</ele>
        <time>2012-08-05T11:18:46Z</time>
      </trkpt>
      <trkpt lat="46.30547" lon="7.56735">
        <ele>557.22</ele>
        <time>2012-08-05T11:18:50Z</time>
      </trkpt>
      <trkpt lat="46.30526" lon="7.56716">
        <ele>554.82</ele>
        <time>2012-08-05T11:18:54Z</time>
      </trkpt>
      <trkpt lat="46.30523" lon="7.56709">
        <ele>554.82</ele>
        <time>2012-08-05T11:18:55Z</time>
      </trkpt>
      <trkpt lat="46.30519" lon="7.56701">
        <ele>554.82</ele>
        <time>2012-08-05T11:18:56Z</time>
      </trkpt>
      <trkpt lat="46.30513" lon="7.56696">
        <ele>554.82</ele>
        <time>2012-08-05T11:18:57Z</time>
      </trkpt>
      <trkpt lat="46.30506" lon="7.56695">
        <ele>555.3</ele>
        <time>2012-08-05T11:18:58Z</time>
      </trkpt>
      <trkpt lat="46.30497" lon="7.56697">
        <ele>555.3</ele>
        <time>2012-08-05T11:18:59Z</time>
      </trkpt>
      <trkpt lat="46.30489" lon="7.56697">
        <ele>554.82</ele>
        <time>2012-08-05T11:19:00Z</time>
      </trkpt>
      <trkpt lat="46.3048" lon="7.56696">
        <ele>555.3</ele>
        <time>2012-08-05T11:19:01Z</time>
      </trkpt>
      <trkpt lat="46.3047" lon="7.56693">
        <ele>554.82</ele>
        <time>2012-08-05T11:19:02Z</time>
      </trkpt>
      <trkpt lat="46.3035" lon="7.56626">
        <ele>554.82</ele>
        <time>2012-08-05T11:19:14Z</time>
      </trkpt>
      <trkpt lat="46.30272" lon="7.56514">
        <ele>554.34</ele>
        <time>2012-08-05T11:19:23Z</time>
      </trkpt>
      <trkpt lat="46.30195" lon="7.56338">
        <ele>554.82</ele>
        <time>2012-08-05T11:19:34Z</time>
      </trkpt>
      <trkpt lat="46.30101" lon="7.56115">
        <ele>554.34</ele>
        <time>2012-08-05T11:19:47Z</time>
      </trkpt>
      <trkpt lat="46.30001" lon="7.55878">
        <ele>554.34</ele>
        <time>2012-08-05T11:20:00Z</time>
      </trkpt>
      <trkpt lat="46.29878" lon="7.55586">
        <ele>550.97</ele>
        <time>2012-08-05T11:20:15Z</time>
      </trkpt>
      <trkpt lat="46.29791" lon="7.55379">
        <ele>550.01</ele>
        <time>2012-08-05T11:20:27Z</time>
      </trkpt>
      <trkpt lat="46.29736" lon="7.55234">
        <ele>550.01</ele>
        <time>2012-08-05T11:20:36Z</time>
      </trkpt>
      <trkpt lat="46.29703" lon="7.55108">
        <ele>551.45</ele>
        <time>2012-08-05T11:20:46Z</time>
      </trkpt>
      <trkpt lat="46.29686" lon="7.55037">
        <ele>551.93</ele>
        <time>2012-08-05T11:20:53Z</time>
      </trkpt>
      <trkpt lat="46.29686" lon="7.55027">
        <ele>551.93</ele>
        <time>2012-08-05T11:20:54Z</time>
      </trkpt>
      <trkpt lat="46.29687" lon="7.55007">
        <ele>552.41</ele>
        <time>2012-08-05T11:20:56Z</time>
      </trkpt>
      <trkpt lat="46.29683" lon="7.54999">
        <ele>552.41</ele>
        <time>2012-08-05T11:20:57Z</time>
      </trkpt>
      <trkpt lat="46.29678" lon="7.54994">
        <ele>552.41</ele>
        <time>2012-08-05T11:20:58Z</time>
      </trkpt>
      <trkpt lat="46.29671" lon="7.54991">
        <ele>552.41</ele>
        <time>2012-08-05T11:20:59Z</time>
      </trkpt>
      <trkpt lat="46.29663" lon="7.54987">
        <ele>551.93</ele>
        <time>2012-08-05T11:21:00Z</time>
      </trkpt>
      <trkpt lat="46.29656" lon="7.54982">
        <ele>551.93</ele>
        <time>2012-08-05T11:21:01Z</time>
      </trkpt>
      <trkpt lat="46.29649" lon="7.54976">
        <ele>551.45</ele>
        <time>2012-08-05T11:21:02Z</time>
      </trkpt>
      <trkpt lat="46.29643" lon="7.54969">
        <ele>551.45</ele>
        <time>2012-08-05T11:21:03Z</time>
      </trkpt>
      <trkpt lat="46.29637" lon="7.5496">
        <ele>550.49</ele>
        <time>2012-08-05T11:21:04Z</time>
      </trkpt>
      <trkpt lat="46.29604" lon="7.54915">
        <ele>550.01</ele>
        <time>2012-08-05T11:21:10Z</time>
      </trkpt>
      <trkpt lat="46.29593" lon="7.549">
        <ele>550.97</ele>
        <time>2012-08-05T11:21:12Z</time>
      </trkpt>
      <trkpt lat="46.29586" lon="7.54894">
        <ele>550.97</ele>
        <time>2012-08-05T11:21:13Z</time>
      </trkpt>
      <trkpt lat="46.29578" lon="7.54888">
        <ele>551.45</ele>
        <time>2012-08-05T11:21:14Z</time>
      </trkpt>
      <trkpt lat="46.29569" lon="7.54882">
        <ele>551.45</ele>
        <time>2012-08-05T11:21:15Z</time>
      </trkpt>
      <trkpt lat="46.2956" lon="7.54876">
        <ele>551.45</ele>
        <time>2012-08-05T11:21:16Z</time>
      </trkpt>
      <trkpt lat="46.29493" lon="7.54826">
        <ele>551.45</ele>
        <time>2012-08-05T11:21:23Z</time>
      </trkpt>
      <trkpt lat="46.29387" lon="7.54752">
        <ele>549.53</ele>
        <time>2012-08-05T11:21:34Z</time>
      </trkpt>
      <trkpt lat="46.29351" lon="7.5472">
        <ele>549.53</ele>
        <time>2012-08-05T11:21:37Z</time>
      </trkpt>
      <trkpt lat="46.29341" lon="7.54706">
        <ele>549.53</ele>
        <time>2012-08-05T11:21:38Z</time>
      </trkpt>
      <trkpt lat="46.29331" lon="7.54691">
        <ele>549.53</ele>
        <time>2012-08-05T11:21:39Z</time>
      </trkpt>
      <trkpt lat="46.29323" lon="7.54675">
        <ele>548.57</ele>
        <time>2012-08-05T11:21:40Z</time>
      </trkpt>
      <trkpt lat="46.29317" lon="7.54659">
        <ele>548.57</ele>
        <time>2012-08-05T11:21:41Z</time>
      </trkpt>
      <trkpt lat="46.29311" lon="7.54642">
        <ele>548.57</ele>
        <time>2012-08-05T11:21:42Z</time>
      </trkpt>
      <trkpt lat="46.2929" lon="7.54597">
        <ele>548.57</ele>
        <time>2012-08-05T11:21:45Z</time>
      </trkpt>
      <trkpt lat="46.29281" lon="7.54584">
        <ele>549.05</ele>
        <time>2012-08-05T11:21:46Z</time>
      </trkpt>
      <trkpt lat="46.29271" lon="7.54573">
        <ele>549.05</ele>
        <time>2012-08-05T11:21:47Z</time>
      </trkpt>
      <trkpt lat="46.29261" lon="7.54563">
        <ele>550.01</ele>
        <time>2012-08-05T11:21:48Z</time>
      </trkpt>
      <trkpt lat="46.29249" lon="7.54554">
        <ele>550.97</ele>
        <time>2012-08-05T11:21:49Z</time>
      </trkpt>
      <trkpt lat="46.29237" lon="7.54545">
        <ele>551.45</ele>
        <time>2012-08-05T11:21:50Z</time>
      </trkpt>
      <trkpt lat="46.29225" lon="7.54535">
        <ele>551.93</ele>
        <time>2012-08-05T11:21:51Z</time>
      </trkpt>
      <trkpt lat="46.29173" lon="7.54504">
        <ele>555.3</ele>
        <time>2012-08-05T11:21:55Z</time>
      </trkpt>
      <trkpt lat="46.2916" lon="7.545">
        <ele>555.3</ele>
        <time>2012-08-05T11:21:56Z</time>
      </trkpt>
      <trkpt lat="46.29085" lon="7.54481">
        <ele>557.22</ele>
        <time>2012-08-05T11:22:01Z</time>
      </trkpt>
      <trkpt lat="46.28939" lon="7.54451">
        <ele>554.82</ele>
        <time>2012-08-05T11:22:11Z</time>
      </trkpt>
      <trkpt lat="46.28926" lon="7.54446">
        <ele>554.34</ele>
        <time>2012-08-05T11:22:12Z</time>
      </trkpt>
      <trkpt lat="46.28914" lon="7.5444">
        <ele>553.86</ele>
        <time>2012-08-05T11:22:13Z</time>
      </trkpt>
      <trkpt lat="46.28889" lon="7.54424">
        <ele>553.86</ele>
        <time>2012-08-05T11:22:15Z</time>
      </trkpt>
      <trkpt lat="46.28876" lon="7.54418">
        <ele>553.86</ele>
        <time>2012-08-05T11:22:16Z</time>
      </trkpt>
      <trkpt lat="46.28789" lon="7.54372">
        <ele>550.97</ele>
        <time>2012-08-05T11:22:22Z</time>
      </trkpt>
      <trkpt lat="46.28737" lon="7.54333">
        <ele>548.09</ele>
        <time>2012-08-05T11:22:26Z</time>
      </trkpt>
      <trkpt lat="46.28714" lon="7.54314">
        <ele>547.13</ele>
        <time>2012-08-05T11:22:28Z</time>
      </trkpt>
      <trkpt lat="46.28705" lon="7.54302">
        <ele>546.17</ele>
        <time>2012-08-05T11:22:29Z</time>
      </trkpt>
      <trkpt lat="46.28696" lon="7.5429">
        <ele>545.69</ele>
        <time>2012-08-05T11:22:30Z</time>
      </trkpt>
      <trkpt lat="46.28681" lon="7.54267">
        <ele>545.2</ele>
        <time>2012-08-05T11:22:32Z</time>
      </trkpt>
      <trkpt lat="46.28672" lon="7.54256">
        <ele>544.24</ele>
        <time>2012-08-05T11:22:33Z</time>
      </trkpt>
      <trkpt lat="46.28661" lon="7.54247">
        <ele>543.76</ele>
        <time>2012-08-05T11:22:34Z</time>
      </trkpt>
      <trkpt lat="46.2865" lon="7.54241">
        <ele>543.28</ele>
        <time>2012-08-05T11:22:35Z</time>
      </trkpt>
      <trkpt lat="46.28637" lon="7.54238">
        <ele>543.28</ele>
        <time>2012-08-05T11:22:36Z</time>
      </trkpt>
      <trkpt lat="46.28581" lon="7.54223">
        <ele>542.32</ele>
        <time>2012-08-05T11:22:40Z</time>
      </trkpt>
      <trkpt lat="46.28568" lon="7.54216">
        <ele>541.84</ele>
        <time>2012-08-05T11:22:41Z</time>
      </trkpt>
      <trkpt lat="46.28556" lon="7.54207">
        <ele>541.36</ele>
        <time>2012-08-05T11:22:42Z</time>
      </trkpt>
      <trkpt lat="46.28546" lon="7.54197">
        <ele>540.88</ele>
        <time>2012-08-05T11:22:43Z</time>
      </trkpt>
      <trkpt lat="46.28536" lon="7.54187">
        <ele>539.92</ele>
        <time>2012-08-05T11:22:44Z</time>
      </trkpt>
      <trkpt lat="46.28528" lon="7.54175">
        <ele>539.44</ele>
        <time>2012-08-05T11:22:45Z</time>
      </trkpt>
      <trkpt lat="46.2852" lon="7.54163">
        <ele>538.96</ele>
        <time>2012-08-05T11:22:46Z</time>
      </trkpt>
      <trkpt lat="46.28514" lon="7.5415">
        <ele>538.96</ele>
        <time>2012-08-05T11:22:47Z</time>
      </trkpt>
      <trkpt lat="46.28508" lon="7.54136">
        <ele>538.48</ele>
        <time>2012-08-05T11:22:48Z</time>
      </trkpt>
      <trkpt lat="46.28502" lon="7.54122">
        <ele>537.99</ele>
        <time>2012-08-05T11:22:49Z</time>
      </trkpt>
      <trkpt lat="46.28498" lon="7.54107">
        <ele>537.99</ele>
        <time>2012-08-05T11:22:50Z</time>
      </trkpt>
      <trkpt lat="46.28494" lon="7.54092">
        <ele>537.99</ele>
        <time>2012-08-05T11:22:51Z</time>
      </trkpt>
      <trkpt lat="46.2849" lon="7.54077">
        <ele>537.51</ele>
        <time>2012-08-05T11:22:52Z</time>
      </trkpt>
      <trkpt lat="46.28471" lon="7.53956">
        <ele>535.59</ele>
        <time>2012-08-05T11:23:02Z</time>
      </trkpt>
      <trkpt lat="46.28469" lon="7.53945">
        <ele>536.07</ele>
        <time>2012-08-05T11:23:03Z</time>
      </trkpt>
      <trkpt lat="46.28469" lon="7.53932">
        <ele>536.07</ele>
        <time>2012-08-05T11:23:04Z</time>
      </trkpt>
      <trkpt lat="46.28468" lon="7.53919">
        <ele>536.55</ele>
        <time>2012-08-05T11:23:05Z</time>
      </trkpt>
      <trkpt lat="46.28476" lon="7.53749">
        <ele>535.59</ele>
        <time>2012-08-05T11:23:16Z</time>
      </trkpt>
      <trkpt lat="46.2847" lon="7.53671">
        <ele>535.59</ele>
        <time>2012-08-05T11:23:22Z</time>
      </trkpt>
      <trkpt lat="46.28471" lon="7.5366">
        <ele>535.59</ele>
        <time>2012-08-05T11:23:23Z</time>
      </trkpt>
      <trkpt lat="46.28472" lon="7.53649">
        <ele>535.59</ele>
        <time>2012-08-05T11:23:24Z</time>
      </trkpt>
      <trkpt lat="46.28475" lon="7.5363">
        <ele>535.59</ele>
        <time>2012-08-05T11:23:26Z</time>
      </trkpt>
      <trkpt lat="46.28473" lon="7.53621">
        <ele>536.07</ele>
        <time>2012-08-05T11:23:27Z</time>
      </trkpt>
      <trkpt lat="46.28467" lon="7.53615">
        <ele>535.59</ele>
        <time>2012-08-05T11:23:28Z</time>
      </trkpt>
      <trkpt lat="46.28461" lon="7.53612">
        <ele>536.07</ele>
        <time>2012-08-05T11:23:29Z</time>
      </trkpt>
      <trkpt lat="46.28453" lon="7.53607">
        <ele>536.07</ele>
        <time>2012-08-05T11:23:30Z</time>
      </trkpt>
      <trkpt lat="46.28446" lon="7.53599">
        <ele>535.59</ele>
        <time>2012-08-05T11:23:31Z</time>
      </trkpt>
      <trkpt lat="46.28439" lon="7.53588">
        <ele>536.07</ele>
        <time>2012-08-05T11:23:32Z</time>
      </trkpt>
      <trkpt lat="46.28434" lon="7.53577">
        <ele>536.07</ele>
        <time>2012-08-05T11:23:33Z</time>
      </trkpt>
      <trkpt lat="46.28428" lon="7.53564">
        <ele>536.07</ele>
        <time>2012-08-05T11:23:34Z</time>
      </trkpt>
      <trkpt lat="46.28423" lon="7.53551">
        <ele>535.59</ele>
        <time>2012-08-05T11:23:35Z</time>
      </trkpt>
      <trkpt lat="46.28411" lon="7.53508">
        <ele>536.07</ele>
        <time>2012-08-05T11:23:38Z</time>
      </trkpt>
      <trkpt lat="46.28409" lon="7.53492">
        <ele>536.07</ele>
        <time>2012-08-05T11:23:39Z</time>
      </trkpt>
      <trkpt lat="46.28407" lon="7.53475">
        <ele>536.55</ele>
        <time>2012-08-05T11:23:40Z</time>
      </trkpt>
      <trkpt lat="46.28407" lon="7.53458">
        <ele>536.55</ele>
        <time>2012-08-05T11:23:41Z</time>
      </trkpt>
      <trkpt lat="46.28407" lon="7.5344">
        <ele>536.55</ele>
        <time>2012-08-05T11:23:42Z</time>
      </trkpt>
      <trkpt lat="46.28433" lon="7.53284">
        <ele>537.03</ele>
        <time>2012-08-05T11:23:50Z</time>
      </trkpt>
      <trkpt lat="46.28446" lon="7.53209">
        <ele>537.03</ele>
        <time>2012-08-05T11:23:54Z</time>
      </trkpt>
      <trkpt lat="46.28447" lon="7.53191">
        <ele>537.03</ele>
        <time>2012-08-05T11:23:55Z</time>
      </trkpt>
      <trkpt lat="46.28446" lon="7.53173">
        <ele>537.03</ele>
        <time>2012-08-05T11:23:56Z</time>
      </trkpt>
      <trkpt lat="46.28444" lon="7.53154">
        <ele>537.51</ele>
        <time>2012-08-05T11:23:57Z</time>
      </trkpt>
      <trkpt lat="46.28441" lon="7.53135">
        <ele>537.99</ele>
        <time>2012-08-05T11:23:58Z</time>
      </trkpt>
      <trkpt lat="46.28392" lon="7.52814">
        <ele>539.92</ele>
        <time>2012-08-05T11:24:13Z</time>
      </trkpt>
      <trkpt lat="46.2834" lon="7.52499">
        <ele>541.36</ele>
        <time>2012-08-05T11:24:26Z</time>
      </trkpt>
      <trkpt lat="46.28311" lon="7.52352">
        <ele>543.76</ele>
        <time>2012-08-05T11:24:33Z</time>
      </trkpt>
      <trkpt lat="46.28254" lon="7.52152">
        <ele>542.8</ele>
        <time>2012-08-05T11:24:44Z</time>
      </trkpt>
      <trkpt lat="46.2823" lon="7.52067">
        <ele>541.36</ele>
        <time>2012-08-05T11:24:49Z</time>
      </trkpt>
      <trkpt lat="46.28227" lon="7.52048">
        <ele>540.88</ele>
        <time>2012-08-05T11:24:50Z</time>
      </trkpt>
      <trkpt lat="46.28227" lon="7.52029">
        <ele>540.4</ele>
        <time>2012-08-05T11:24:51Z</time>
      </trkpt>
      <trkpt lat="46.28229" lon="7.5201">
        <ele>540.4</ele>
        <time>2012-08-05T11:24:52Z</time>
      </trkpt>
      <trkpt lat="46.28233" lon="7.51991">
        <ele>539.92</ele>
        <time>2012-08-05T11:24:53Z</time>
      </trkpt>
      <trkpt lat="46.28239" lon="7.51972">
        <ele>539.44</ele>
        <time>2012-08-05T11:24:54Z</time>
      </trkpt>
      <trkpt lat="46.28245" lon="7.51954">
        <ele>538.96</ele>
        <time>2012-08-05T11:24:55Z</time>
      </trkpt>
      <trkpt lat="46.28251" lon="7.51935">
        <ele>538.96</ele>
        <time>2012-08-05T11:24:56Z</time>
      </trkpt>
      <trkpt lat="46.28255" lon="7.51916">
        <ele>538.48</ele>
        <time>2012-08-05T11:24:57Z</time>
      </trkpt>
      <trkpt lat="46.28256" lon="7.51895">
        <ele>538.48</ele>
        <time>2012-08-05T11:24:58Z</time>
      </trkpt>
      <trkpt lat="46.28255" lon="7.51875">
        <ele>537.99</ele>
        <time>2012-08-05T11:24:59Z</time>
      </trkpt>
      <trkpt lat="46.28252" lon="7.51856">
        <ele>537.51</ele>
        <time>2012-08-05T11:25:00Z</time>
      </trkpt>
      <trkpt lat="46.28247" lon="7.51838">
        <ele>537.99</ele>
        <time>2012-08-05T11:25:01Z</time>
      </trkpt>
      <trkpt lat="46.28241" lon="7.51819">
        <ele>538.48</ele>
        <time>2012-08-05T11:25:02Z</time>
      </trkpt>
      <trkpt lat="46.28187" lon="7.51652">
        <ele>535.11</ele>
        <time>2012-08-05T11:25:11Z</time>
      </trkpt>
      <trkpt lat="46.28176" lon="7.51612">
        <ele>533.67</ele>
        <time>2012-08-05T11:25:13Z</time>
      </trkpt>
      <trkpt lat="46.28104" lon="7.51395">
        <ele>530.79</ele>
        <time>2012-08-05T11:25:25Z</time>
      </trkpt>
      <trkpt lat="46.28098" lon="7.51381">
        <ele>530.79</ele>
        <time>2012-08-05T11:25:26Z</time>
      </trkpt>
      <trkpt lat="46.2809" lon="7.51369">
        <ele>530.3</ele>
        <time>2012-08-05T11:25:27Z</time>
      </trkpt>
      <trkpt lat="46.28081" lon="7.51357">
        <ele>530.79</ele>
        <time>2012-08-05T11:25:28Z</time>
      </trkpt>
      <trkpt lat="46.28072" lon="7.51347">
        <ele>530.79</ele>
        <time>2012-08-05T11:25:29Z</time>
      </trkpt>
      <trkpt lat="46.28062" lon="7.51338">
        <ele>530.79</ele>
        <time>2012-08-05T11:25:30Z</time>
      </trkpt>
      <trkpt lat="46.28054" lon="7.51331">
        <ele>530.79</ele>
        <time>2012-08-05T11:25:31Z</time>
      </trkpt>
      <trkpt lat="46.28046" lon="7.51325">
        <ele>530.79</ele>
        <time>2012-08-05T11:25:32Z</time>
      </trkpt>
      <trkpt lat="46.28034" lon="7.51315">
        <ele>529.34</ele>
        <time>2012-08-05T11:25:34Z</time>
      </trkpt>
      <trkpt lat="46.28031" lon="7.51311">
        <ele>529.34</ele>
        <time>2012-08-05T11:25:35Z</time>
      </trkpt>
      <trkpt lat="46.28027" lon="7.51302">
        <ele>528.86</ele>
        <time>2012-08-05T11:25:37Z</time>
      </trkpt>
      <trkpt lat="46.28026" lon="7.51293">
        <ele>529.34</ele>
        <time>2012-08-05T11:25:38Z</time>
      </trkpt>
      <trkpt lat="46.28025" lon="7.5128">
        <ele>528.86</ele>
        <time>2012-08-05T11:25:39Z</time>
      </trkpt>
      <trkpt lat="46.28028" lon="7.51265">
        <ele>528.38</ele>
        <time>2012-08-05T11:25:40Z</time>
      </trkpt>
      <trkpt lat="46.28033" lon="7.51247">
        <ele>528.38</ele>
        <time>2012-08-05T11:25:41Z</time>
      </trkpt>
      <trkpt lat="46.2804" lon="7.51228">
        <ele>528.38</ele>
        <time>2012-08-05T11:25:42Z</time>
      </trkpt>
      <trkpt lat="46.28054" lon="7.51184">
        <ele>528.38</ele>
        <time>2012-08-05T11:25:44Z</time>
      </trkpt>
      <trkpt lat="46.28065" lon="7.51138">
        <ele>527.9</ele>
        <time>2012-08-05T11:25:46Z</time>
      </trkpt>
      <trkpt lat="46.28076" lon="7.51121">
        <ele>527.9</ele>
        <time>2012-08-05T11:25:47Z</time>
      </trkpt>
      <trkpt lat="46.28087" lon="7.51107">
        <ele>527.9</ele>
        <time>2012-08-05T11:25:48Z</time>
      </trkpt>
      <trkpt lat="46.28103" lon="7.51087">
        <ele>527.42</ele>
        <time>2012-08-05T11:25:50Z</time>
      </trkpt>
      <trkpt lat="46.28112" lon="7.51083">
        <ele>527.9</ele>
        <time>2012-08-05T11:25:51Z</time>
      </trkpt>
      <trkpt lat="46.28121" lon="7.51083">
        <ele>528.38</ele>
        <time>2012-08-05T11:25:52Z</time>
      </trkpt>
      <trkpt lat="46.28131" lon="7.51086">
        <ele>528.86</ele>
        <time>2012-08-05T11:25:53Z</time>
      </trkpt>
      <trkpt lat="46.2814" lon="7.51086">
        <ele>528.86</ele>
        <time>2012-08-05T11:25:54Z</time>
      </trkpt>
      <trkpt lat="46.28148" lon="7.5108">
        <ele>528.86</ele>
        <time>2012-08-05T11:25:55Z</time>
      </trkpt>
      <trkpt lat="46.28155" lon="7.51069">
        <ele>529.82</ele>
        <time>2012-08-05T11:25:56Z</time>
      </trkpt>
      <trkpt lat="46.28157" lon="7.51056">
        <ele>528.86</ele>
        <time>2012-08-05T11:25:57Z</time>
      </trkpt>
      <trkpt lat="46.28156" lon="7.51041">
        <ele>529.34</ele>
        <time>2012-08-05T11:25:58Z</time>
      </trkpt>
      <trkpt lat="46.2815" lon="7.51029">
        <ele>529.82</ele>
        <time>2012-08-05T11:25:59Z</time>
      </trkpt>
      <trkpt lat="46.28139" lon="7.51021">
        <ele>529.82</ele>
        <time>2012-08-05T11:26:00Z</time>
      </trkpt>
      <trkpt lat="46.28126" lon="7.51015">
        <ele>530.3</ele>
        <time>2012-08-05T11:26:01Z</time>
      </trkpt>
      <trkpt lat="46.28114" lon="7.51009">
        <ele>529.82</ele>
        <time>2012-08-05T11:26:02Z</time>
      </trkpt>
      <trkpt lat="46.28103" lon="7.50999">
        <ele>530.3</ele>
        <time>2012-08-05T11:26:03Z</time>
      </trkpt>
      <trkpt lat="46.28094" lon="7.50986">
        <ele>530.3</ele>
        <time>2012-08-05T11:26:04Z</time>
      </trkpt>
      <trkpt lat="46.28084" lon="7.50972">
        <ele>530.79</ele>
        <time>2012-08-05T11:26:05Z</time>
      </trkpt>
      <trkpt lat="46.28023" lon="7.50876">
        <ele>531.75</ele>
        <time>2012-08-05T11:26:11Z</time>
      </trkpt>
      <trkpt lat="46.27913" lon="7.50657">
        <ele>532.71</ele>
        <time>2012-08-05T11:26:22Z</time>
      </trkpt>
      <trkpt lat="46.27858" lon="7.50492">
        <ele>532.71</ele>
        <time>2012-08-05T11:26:29Z</time>
      </trkpt>
      <trkpt lat="46.27773" lon="7.50227">
        <ele>535.11</ele>
        <time>2012-08-05T11:26:39Z</time>
      </trkpt>
      <trkpt lat="46.27662" lon="7.49869">
        <ele>532.23</ele>
        <time>2012-08-05T11:26:51Z</time>
      </trkpt>
      <trkpt lat="46.27563" lon="7.49521">
        <ele>535.59</ele>
        <time>2012-08-05T11:27:04Z</time>
      </trkpt>
      <trkpt lat="46.27484" lon="7.49241">
        <ele>537.03</ele>
        <time>2012-08-05T11:27:14Z</time>
      </trkpt>
      <trkpt lat="46.27432" lon="7.48979">
        <ele>538.48</ele>
        <time>2012-08-05T11:27:23Z</time>
      </trkpt>
      <trkpt lat="46.27427" lon="7.48939">
        <ele>539.44</ele>
        <time>2012-08-05T11:27:38Z</time>
      </trkpt>
      <trkpt lat="46.2742" lon="7.48905">
        <ele>536.07</ele>
        <time>2012-08-05T11:27:51Z</time>
      </trkpt>
      <trkpt lat="46.27419" lon="7.48899">
        <ele>535.11</ele>
        <time>2012-08-05T11:27:52Z</time>
      </trkpt>
      <trkpt lat="46.27422" lon="7.48912">
        <ele>533.67</ele>
        <time>2012-08-05T11:27:53Z</time>
      </trkpt>
      <trkpt lat="46.27184" lon="7.48099">
        <ele>533.67</ele>
        <time>2012-08-05T11:27:55Z</time>
      </trkpt>
      <trkpt lat="46.27054" lon="7.47641">
        <ele>533.19</ele>
        <time>2012-08-05T11:28:10Z</time>
      </trkpt>
      <trkpt lat="46.26943" lon="7.47243">
        <ele>530.3</ele>
        <time>2012-08-05T11:28:23Z</time>
      </trkpt>
      <trkpt lat="46.26796" lon="7.46679">
        <ele>530.79</ele>
        <time>2012-08-05T11:28:41Z</time>
      </trkpt>
      <trkpt lat="46.26702" lon="7.46277">
        <ele>527.42</ele>
        <time>2012-08-05T11:28:54Z</time>
      </trkpt>
      <trkpt lat="46.26644" lon="7.46059">
        <ele>524.54</ele>
        <time>2012-08-05T11:29:02Z</time>
      </trkpt>
      <trkpt lat="46.26612" lon="7.45947">
        <ele>526.46</ele>
        <time>2012-08-05T11:29:06Z</time>
      </trkpt>
      <trkpt lat="46.26529" lon="7.45776">
        <ele>524.06</ele>
        <time>2012-08-05T11:29:13Z</time>
      </trkpt>
      <trkpt lat="46.26515" lon="7.45751">
        <ele>524.06</ele>
        <time>2012-08-05T11:29:14Z</time>
      </trkpt>
      <trkpt lat="46.26406" lon="7.45524">
        <ele>523.09</ele>
        <time>2012-08-05T11:29:22Z</time>
      </trkpt>
      <trkpt lat="46.26287" lon="7.45207">
        <ele>522.61</ele>
        <time>2012-08-05T11:29:32Z</time>
      </trkpt>
      <trkpt lat="46.26086" lon="7.44616">
        <ele>520.69</ele>
        <time>2012-08-05T11:29:51Z</time>
      </trkpt>
      <trkpt lat="46.25926" lon="7.44154">
        <ele>518.29</ele>
        <time>2012-08-05T11:30:06Z</time>
      </trkpt>
      <trkpt lat="46.259" lon="7.44078">
        <ele>516.37</ele>
        <time>2012-08-05T11:30:09Z</time>
      </trkpt>
      <trkpt lat="46.25761" lon="7.43676">
        <ele>513.96</ele>
        <time>2012-08-05T11:30:25Z</time>
      </trkpt>
      <trkpt lat="46.25621" lon="7.4327">
        <ele>512.52</ele>
        <time>2012-08-05T11:30:42Z</time>
      </trkpt>
      <trkpt lat="46.25514" lon="7.42963">
        <ele>512.04</ele>
        <time>2012-08-05T11:30:55Z</time>
      </trkpt>
      <trkpt lat="46.25477" lon="7.42834">
        <ele>511.08</ele>
        <time>2012-08-05T11:31:01Z</time>
      </trkpt>
      <trkpt lat="46.25441" lon="7.42591">
        <ele>511.56</ele>
        <time>2012-08-05T11:31:13Z</time>
      </trkpt>
      <trkpt lat="46.25393" lon="7.4233">
        <ele>513</ele>
        <time>2012-08-05T11:31:26Z</time>
      </trkpt>
      <trkpt lat="46.25365" lon="7.42116">
        <ele>514.44</ele>
        <time>2012-08-05T11:31:36Z</time>
      </trkpt>
      <trkpt lat="46.25357" lon="7.41887">
        <ele>515.88</ele>
        <time>2012-08-05T11:31:48Z</time>
      </trkpt>
      <trkpt lat="46.25347" lon="7.41798">
        <ele>517.81</ele>
        <time>2012-08-05T11:31:53Z</time>
      </trkpt>
      <trkpt lat="46.25338" lon="7.41741">
        <ele>519.25</ele>
        <time>2012-08-05T11:31:56Z</time>
      </trkpt>
      <trkpt lat="46.25304" lon="7.41519">
        <ele>518.77</ele>
        <time>2012-08-05T11:32:06Z</time>
      </trkpt>
      <trkpt lat="46.25294" lon="7.41453">
        <ele>517.33</ele>
        <time>2012-08-05T11:32:09Z</time>
      </trkpt>
      <trkpt lat="46.25268" lon="7.41284">
        <ele>513.96</ele>
        <time>2012-08-05T11:32:17Z</time>
      </trkpt>
      <trkpt lat="46.25223" lon="7.41116">
        <ele>512.52</ele>
        <time>2012-08-05T11:32:25Z</time>
      </trkpt>
      <trkpt lat="46.25191" lon="7.41038">
        <ele>509.16</ele>
        <time>2012-08-05T11:32:30Z</time>
      </trkpt>
      <trkpt lat="46.25177" lon="7.40998">
        <ele>508.19</ele>
        <time>2012-08-05T11:32:34Z</time>
      </trkpt>
      <trkpt lat="46.25173" lon="7.40979">
        <ele>508.19</ele>
        <time>2012-08-05T11:32:36Z</time>
      </trkpt>
      <trkpt lat="46.25167" lon="7.40971">
        <ele>509.16</ele>
        <time>2012-08-05T11:32:37Z</time>
      </trkpt>
      <trkpt lat="46.25154" lon="7.40953">
        <ele>509.16</ele>
        <time>2012-08-05T11:32:39Z</time>
      </trkpt>
      <trkpt lat="46.25148" lon="7.4094">
        <ele>508.67</ele>
        <time>2012-08-05T11:32:40Z</time>
      </trkpt>
      <trkpt lat="46.25104" lon="7.40797">
        <ele>508.67</ele>
        <time>2012-08-05T11:32:49Z</time>
      </trkpt>
      <trkpt lat="46.2507" lon="7.40609">
        <ele>509.64</ele>
        <time>2012-08-05T11:32:57Z</time>
      </trkpt>
      <trkpt lat="46.25006" lon="7.40305">
        <ele>509.16</ele>
        <time>2012-08-05T11:33:08Z</time>
      </trkpt>
      <trkpt lat="46.24915" lon="7.39972">
        <ele>507.71</ele>
        <time>2012-08-05T11:33:21Z</time>
      </trkpt>
      <trkpt lat="46.24825" lon="7.39642">
        <ele>508.67</ele>
        <time>2012-08-05T11:33:34Z</time>
      </trkpt>
      <trkpt lat="46.24744" lon="7.3935">
        <ele>507.71</ele>
        <time>2012-08-05T11:33:46Z</time>
      </trkpt>
      <trkpt lat="46.24685" lon="7.3915">
        <ele>505.79</ele>
        <time>2012-08-05T11:33:55Z</time>
      </trkpt>
      <trkpt lat="46.24679" lon="7.3913">
        <ele>505.79</ele>
        <time>2012-08-05T11:33:56Z</time>
      </trkpt>
      <trkpt lat="46.2462" lon="7.38886">
        <ele>506.75</ele>
        <time>2012-08-05T11:34:08Z</time>
      </trkpt>
      <trkpt lat="46.24604" lon="7.38796">
        <ele>506.27</ele>
        <time>2012-08-05T11:34:12Z</time>
      </trkpt>
      <trkpt lat="46.246" lon="7.38773">
        <ele>505.79</ele>
        <time>2012-08-05T11:34:13Z</time>
      </trkpt>
      <trkpt lat="46.24585" lon="7.38678">
        <ele>507.23</ele>
        <time>2012-08-05T11:34:17Z</time>
      </trkpt>
      <trkpt lat="46.24515" lon="7.38359">
        <ele>510.12</ele>
        <time>2012-08-05T11:34:29Z</time>
      </trkpt>
      <trkpt lat="46.24411" lon="7.38105">
        <ele>511.08</ele>
        <time>2012-08-05T11:34:39Z</time>
      </trkpt>
      <trkpt lat="46.24355" lon="7.37989">
        <ele>509.64</ele>
        <time>2012-08-05T11:34:44Z</time>
      </trkpt>
      <trkpt lat="46.24212" lon="7.37767">
        <ele>506.27</ele>
        <time>2012-08-05T11:34:55Z</time>
      </trkpt>
      <trkpt lat="46.24054" lon="7.37586">
        <ele>505.31</ele>
        <time>2012-08-05T11:35:07Z</time>
      </trkpt>
      <trkpt lat="46.23942" lon="7.37436">
        <ele>505.31</ele>
        <time>2012-08-05T11:35:18Z</time>
      </trkpt>
      <trkpt lat="46.23914" lon="7.37391">
        <ele>504.83</ele>
        <time>2012-08-05T11:35:23Z</time>
      </trkpt>
      <trkpt lat="46.23911" lon="7.37382">
        <ele>504.83</ele>
        <time>2012-08-05T11:35:24Z</time>
      </trkpt>
      <trkpt lat="46.23908" lon="7.37374">
        <ele>504.83</ele>
        <time>2012-08-05T11:35:25Z</time>
      </trkpt>
      <trkpt lat="46.23903" lon="7.37366">
        <ele>505.79</ele>
        <time>2012-08-05T11:35:26Z</time>
      </trkpt>
      <trkpt lat="46.23895" lon="7.3736">
        <ele>505.31</ele>
        <time>2012-08-05T11:35:27Z</time>
      </trkpt>
      <trkpt lat="46.23886" lon="7.37357">
        <ele>505.79</ele>
        <time>2012-08-05T11:35:28Z</time>
      </trkpt>
      <trkpt lat="46.23875" lon="7.37352">
        <ele>506.27</ele>
        <time>2012-08-05T11:35:29Z</time>
      </trkpt>
      <trkpt lat="46.23865" lon="7.37347">
        <ele>505.79</ele>
        <time>2012-08-05T11:35:30Z</time>
      </trkpt>
      <trkpt lat="46.23854" lon="7.37339">
        <ele>506.27</ele>
        <time>2012-08-05T11:35:31Z</time>
      </trkpt>
      <trkpt lat="46.23843" lon="7.37331">
        <ele>506.27</ele>
        <time>2012-08-05T11:35:32Z</time>
      </trkpt>
      <trkpt lat="46.23729" lon="7.37238">
        <ele>506.75</ele>
        <time>2012-08-05T11:35:41Z</time>
      </trkpt>
      <trkpt lat="46.23628" lon="7.37148">
        <ele>505.79</ele>
        <time>2012-08-05T11:35:48Z</time>
      </trkpt>
      <trkpt lat="46.23497" lon="7.37045">
        <ele>504.35</ele>
        <time>2012-08-05T11:35:57Z</time>
      </trkpt>
      <trkpt lat="46.23401" lon="7.36972">
        <ele>500.98</ele>
        <time>2012-08-05T11:36:05Z</time>
      </trkpt>
      <trkpt lat="46.23385" lon="7.36957">
        <ele>500.02</ele>
        <time>2012-08-05T11:36:07Z</time>
      </trkpt>
      <trkpt lat="46.23377" lon="7.36949">
        <ele>500.02</ele>
        <time>2012-08-05T11:36:08Z</time>
      </trkpt>
      <trkpt lat="46.2337" lon="7.36941">
        <ele>500.5</ele>
        <time>2012-08-05T11:36:09Z</time>
      </trkpt>
      <trkpt lat="46.23361" lon="7.36936">
        <ele>500.5</ele>
        <time>2012-08-05T11:36:10Z</time>
      </trkpt>
      <trkpt lat="46.23351" lon="7.36933">
        <ele>500.98</ele>
        <time>2012-08-05T11:36:11Z</time>
      </trkpt>
      <trkpt lat="46.23341" lon="7.3693">
        <ele>500.5</ele>
        <time>2012-08-05T11:36:12Z</time>
      </trkpt>
      <trkpt lat="46.23331" lon="7.36924">
        <ele>500.98</ele>
        <time>2012-08-05T11:36:13Z</time>
      </trkpt>
      <trkpt lat="46.23321" lon="7.36917">
        <ele>501.46</ele>
        <time>2012-08-05T11:36:14Z</time>
      </trkpt>
      <trkpt lat="46.23216" lon="7.36842">
        <ele>501.95</ele>
        <time>2012-08-05T11:36:25Z</time>
      </trkpt>
      <trkpt lat="46.23153" lon="7.36774">
        <ele>502.91</ele>
        <time>2012-08-05T11:36:33Z</time>
      </trkpt>
      <trkpt lat="46.23147" lon="7.36764">
        <ele>502.91</ele>
        <time>2012-08-05T11:36:34Z</time>
      </trkpt>
      <trkpt lat="46.23142" lon="7.36753">
        <ele>503.39</ele>
        <time>2012-08-05T11:36:35Z</time>
      </trkpt>
      <trkpt lat="46.23136" lon="7.36743">
        <ele>504.35</ele>
        <time>2012-08-05T11:36:36Z</time>
      </trkpt>
      <trkpt lat="46.23128" lon="7.36734">
        <ele>504.83</ele>
        <time>2012-08-05T11:36:37Z</time>
      </trkpt>
      <trkpt lat="46.23121" lon="7.36726">
        <ele>504.83</ele>
        <time>2012-08-05T11:36:38Z</time>
      </trkpt>
      <trkpt lat="46.23106" lon="7.36706">
        <ele>506.27</ele>
        <time>2012-08-05T11:36:40Z</time>
      </trkpt>
      <trkpt lat="46.2308" lon="7.36658">
        <ele>508.19</ele>
        <time>2012-08-05T11:36:44Z</time>
      </trkpt>
      <trkpt lat="46.22994" lon="7.36498">
        <ele>507.23</ele>
        <time>2012-08-05T11:36:58Z</time>
      </trkpt>
      <trkpt lat="46.22988" lon="7.36486">
        <ele>507.71</ele>
        <time>2012-08-05T11:37:00Z</time>
      </trkpt>
      <trkpt lat="46.22983" lon="7.3648">
        <ele>507.23</ele>
        <time>2012-08-05T11:37:02Z</time>
      </trkpt>
      <trkpt lat="46.22981" lon="7.36481">
        <ele>506.75</ele>
        <time>2012-08-05T11:37:14Z</time>
      </trkpt>
      <trkpt lat="46.2298" lon="7.36477">
        <ele>507.23</ele>
        <time>2012-08-05T11:37:24Z</time>
      </trkpt>
      <trkpt lat="46.22972" lon="7.36466">
        <ele>508.19</ele>
        <time>2012-08-05T11:37:26Z</time>
      </trkpt>
      <trkpt lat="46.22967" lon="7.36458">
        <ele>508.19</ele>
        <time>2012-08-05T11:37:27Z</time>
      </trkpt>
      <trkpt lat="46.22934" lon="7.36383">
        <ele>507.23</ele>
        <time>2012-08-05T11:37:34Z</time>
      </trkpt>
      <trkpt lat="46.22894" lon="7.36263">
        <ele>504.83</ele>
        <time>2012-08-05T11:37:43Z</time>
      </trkpt>
      <trkpt lat="46.2289" lon="7.36249">
        <ele>505.31</ele>
        <time>2012-08-05T11:37:44Z</time>
      </trkpt>
      <trkpt lat="46.22859" lon="7.36103">
        <ele>505.31</ele>
        <time>2012-08-05T11:37:53Z</time>
      </trkpt>
      <trkpt lat="46.22829" lon="7.3596">
        <ele>502.91</ele>
        <time>2012-08-05T11:38:04Z</time>
      </trkpt>
      <trkpt lat="46.22825" lon="7.35945">
        <ele>502.43</ele>
        <time>2012-08-05T11:38:10Z</time>
      </trkpt>
      <trkpt lat="46.22816" lon="7.35904">
        <ele>502.91</ele>
        <time>2012-08-05T11:38:16Z</time>
      </trkpt>
      <trkpt lat="46.22805" lon="7.35856">
        <ele>502.43</ele>
        <time>2012-08-05T11:38:20Z</time>
      </trkpt>
      <trkpt lat="46.22804" lon="7.35845">
        <ele>502.43</ele>
        <time>2012-08-05T11:38:21Z</time>
      </trkpt>
      <trkpt lat="46.22805" lon="7.35823">
        <ele>502.43</ele>
        <time>2012-08-05T11:38:23Z</time>
      </trkpt>
      <trkpt lat="46.22817" lon="7.35768">
        <ele>501.46</ele>
        <time>2012-08-05T11:38:28Z</time>
      </trkpt>
      <trkpt lat="46.22821" lon="7.35758">
        <ele>502.43</ele>
        <time>2012-08-05T11:38:29Z</time>
      </trkpt>
      <trkpt lat="46.22825" lon="7.35747">
        <ele>502.43</ele>
        <time>2012-08-05T11:38:30Z</time>
      </trkpt>
      <trkpt lat="46.22827" lon="7.35734">
        <ele>502.43</ele>
        <time>2012-08-05T11:38:31Z</time>
      </trkpt>
      <trkpt lat="46.22828" lon="7.35721">
        <ele>501.95</ele>
        <time>2012-08-05T11:38:32Z</time>
      </trkpt>
      <trkpt lat="46.22828" lon="7.35708">
        <ele>501.46</ele>
        <time>2012-08-05T11:38:33Z</time>
      </trkpt>
      <trkpt lat="46.22832" lon="7.3567">
        <ele>499.54</ele>
        <time>2012-08-05T11:38:37Z</time>
      </trkpt>
      <trkpt lat="46.22832" lon="7.35658">
        <ele>499.06</ele>
        <time>2012-08-05T11:38:44Z</time>
      </trkpt>
      <trkpt lat="46.22833" lon="7.35647">
        <ele>499.54</ele>
        <time>2012-08-05T11:39:12Z</time>
      </trkpt>
      <trkpt lat="46.22846" lon="7.35565">
        <ele>498.1</ele>
        <time>2012-08-05T11:39:19Z</time>
      </trkpt>
      <trkpt lat="46.22856" lon="7.35513">
        <ele>498.1</ele>
        <time>2012-08-05T11:39:23Z</time>
      </trkpt>
      <trkpt lat="46.2286" lon="7.35499">
        <ele>497.62</ele>
        <time>2012-08-05T11:39:24Z</time>
      </trkpt>
      <trkpt lat="46.22862" lon="7.35484">
        <ele>497.62</ele>
        <time>2012-08-05T11:39:25Z</time>
      </trkpt>
      <trkpt lat="46.22874" lon="7.3532">
        <ele>497.62</ele>
        <time>2012-08-05T11:39:34Z</time>
      </trkpt>
      <trkpt lat="46.2287" lon="7.35095">
        <ele>495.7</ele>
        <time>2012-08-05T11:39:46Z</time>
      </trkpt>
      <trkpt lat="46.22863" lon="7.34924">
        <ele>496.18</ele>
        <time>2012-08-05T11:39:57Z</time>
      </trkpt>
      <trkpt lat="46.22859" lon="7.34725">
        <ele>494.74</ele>
        <time>2012-08-05T11:40:08Z</time>
      </trkpt>
      <trkpt lat="46.2286" lon="7.34659">
        <ele>494.26</ele>
        <time>2012-08-05T11:40:15Z</time>
      </trkpt>
      <trkpt lat="46.2286" lon="7.34648">
        <ele>494.26</ele>
        <time>2012-08-05T11:40:23Z</time>
      </trkpt>
      <trkpt lat="46.22863" lon="7.34647">
        <ele>493.77</ele>
        <time>2012-08-05T11:40:59Z</time>
      </trkpt>
      <trkpt lat="46.22863" lon="7.34647">
        <ele>493.77</ele>
        <time>2012-08-05T11:41:07Z</time>
      </trkpt>
      <trkpt lat="46.22862" lon="7.34643">
        <ele>494.26</ele>
        <time>2012-08-05T11:41:08Z</time>
      </trkpt>
      <trkpt lat="46.22857" lon="7.34568">
        <ele>495.22</ele>
        <time>2012-08-05T11:41:14Z</time>
      </trkpt>
      <trkpt lat="46.22818" lon="7.34343">
        <ele>495.7</ele>
        <time>2012-08-05T11:41:27Z</time>
      </trkpt>
      <trkpt lat="46.22756" lon="7.3406">
        <ele>496.66</ele>
        <time>2012-08-05T11:41:42Z</time>
      </trkpt>
      <trkpt lat="46.22683" lon="7.33725">
        <ele>496.18</ele>
        <time>2012-08-05T11:41:59Z</time>
      </trkpt>
      <trkpt lat="46.2267" lon="7.33665">
        <ele>498.1</ele>
        <time>2012-08-05T11:42:02Z</time>
      </trkpt>
      <trkpt lat="46.2263" lon="7.3349">
        <ele>499.06</ele>
        <time>2012-08-05T11:42:11Z</time>
      </trkpt>
      <trkpt lat="46.22592" lon="7.33319">
        <ele>502.43</ele>
        <time>2012-08-05T11:42:20Z</time>
      </trkpt>
      <trkpt lat="46.22587" lon="7.33298">
        <ele>502.91</ele>
        <time>2012-08-05T11:42:21Z</time>
      </trkpt>
      <trkpt lat="46.22552" lon="7.33141">
        <ele>505.79</ele>
        <time>2012-08-05T11:42:29Z</time>
      </trkpt>
      <trkpt lat="46.22548" lon="7.33121">
        <ele>506.27</ele>
        <time>2012-08-05T11:42:30Z</time>
      </trkpt>
      <trkpt lat="46.22528" lon="7.32979">
        <ele>509.64</ele>
        <time>2012-08-05T11:42:37Z</time>
      </trkpt>
      <trkpt lat="46.22527" lon="7.32957">
        <ele>509.16</ele>
        <time>2012-08-05T11:42:38Z</time>
      </trkpt>
      <trkpt lat="46.22539" lon="7.32722">
        <ele>512.04</ele>
        <time>2012-08-05T11:42:49Z</time>
      </trkpt>
      <trkpt lat="46.22548" lon="7.32512">
        <ele>511.08</ele>
        <time>2012-08-05T11:42:59Z</time>
      </trkpt>
      <trkpt lat="46.22515" lon="7.32287">
        <ele>511.08</ele>
        <time>2012-08-05T11:43:09Z</time>
      </trkpt>
      <trkpt lat="46.22497" lon="7.32092">
        <ele>508.19</ele>
        <time>2012-08-05T11:43:18Z</time>
      </trkpt>
      <trkpt lat="46.22489" lon="7.31796">
        <ele>507.23</ele>
        <time>2012-08-05T11:43:34Z</time>
      </trkpt>
      <trkpt lat="46.22479" lon="7.31579">
        <ele>510.6</ele>
        <time>2012-08-05T11:43:47Z</time>
      </trkpt>
      <trkpt lat="46.22477" lon="7.31542">
        <ele>511.08</ele>
        <time>2012-08-05T11:43:49Z</time>
      </trkpt>
      <trkpt lat="46.22475" lon="7.31359">
        <ele>511.56</ele>
        <time>2012-08-05T11:44:00Z</time>
      </trkpt>
      <trkpt lat="46.22478" lon="7.31314">
        <ele>511.56</ele>
        <time>2012-08-05T11:44:07Z</time>
      </trkpt>
      <trkpt lat="46.22479" lon="7.31291">
        <ele>512.52</ele>
        <time>2012-08-05T11:44:26Z</time>
      </trkpt>
      <trkpt lat="46.22483" lon="7.31182">
        <ele>511.56</ele>
        <time>2012-08-05T11:44:35Z</time>
      </trkpt>
      <trkpt lat="46.22471" lon="7.31014">
        <ele>510.12</ele>
        <time>2012-08-05T11:44:45Z</time>
      </trkpt>
      <trkpt lat="46.22457" lon="7.30794">
        <ele>509.64</ele>
        <time>2012-08-05T11:44:58Z</time>
      </trkpt>
      <trkpt lat="46.22438" lon="7.30508">
        <ele>507.71</ele>
        <time>2012-08-05T11:45:14Z</time>
      </trkpt>
      <trkpt lat="46.22438" lon="7.30362">
        <ele>505.31</ele>
        <time>2012-08-05T11:45:24Z</time>
      </trkpt>
      <trkpt lat="46.22437" lon="7.3035">
        <ele>505.79</ele>
        <time>2012-08-05T11:45:25Z</time>
      </trkpt>
      <trkpt lat="46.22434" lon="7.30337">
        <ele>505.79</ele>
        <time>2012-08-05T11:45:26Z</time>
      </trkpt>
      <trkpt lat="46.2243" lon="7.30323">
        <ele>505.31</ele>
        <time>2012-08-05T11:45:27Z</time>
      </trkpt>
      <trkpt lat="46.22427" lon="7.30309">
        <ele>505.31</ele>
        <time>2012-08-05T11:45:28Z</time>
      </trkpt>
      <trkpt lat="46.22425" lon="7.30295">
        <ele>505.31</ele>
        <time>2012-08-05T11:45:29Z</time>
      </trkpt>
      <trkpt lat="46.22408" lon="7.30049">
        <ele>502.43</ele>
        <time>2012-08-05T11:45:44Z</time>
      </trkpt>
      <trkpt lat="46.2243" lon="7.2985">
        <ele>502.43</ele>
        <time>2012-08-05T11:45:56Z</time>
      </trkpt>
      <trkpt lat="46.2246" lon="7.29748">
        <ele>502.43</ele>
        <time>2012-08-05T11:46:04Z</time>
      </trkpt>
      <trkpt lat="46.2251" lon="7.29578">
        <ele>502.43</ele>
        <time>2012-08-05T11:46:15Z</time>
      </trkpt>
      <trkpt lat="46.22535" lon="7.29453">
        <ele>501.46</ele>
        <time>2012-08-05T11:46:24Z</time>
      </trkpt>
      <trkpt lat="46.22539" lon="7.29428">
        <ele>501.46</ele>
        <time>2012-08-05T11:46:26Z</time>
      </trkpt>
      <trkpt lat="46.22542" lon="7.29416">
        <ele>500.98</ele>
        <time>2012-08-05T11:46:27Z</time>
      </trkpt>
      <trkpt lat="46.22544" lon="7.29404">
        <ele>500.98</ele>
        <time>2012-08-05T11:46:28Z</time>
      </trkpt>
      <trkpt lat="46.22545" lon="7.29391">
        <ele>501.46</ele>
        <time>2012-08-05T11:46:29Z</time>
      </trkpt>
      <trkpt lat="46.22544" lon="7.29377">
        <ele>501.95</ele>
        <time>2012-08-05T11:46:30Z</time>
      </trkpt>
      <trkpt lat="46.22544" lon="7.29361">
        <ele>501.95</ele>
        <time>2012-08-05T11:46:31Z</time>
      </trkpt>
      <trkpt lat="46.22561" lon="7.29164">
        <ele>500.5</ele>
        <time>2012-08-05T11:46:43Z</time>
      </trkpt>
      <trkpt lat="46.22584" lon="7.28908">
        <ele>500.02</ele>
        <time>2012-08-05T11:46:57Z</time>
      </trkpt>
      <trkpt lat="46.22581" lon="7.2866">
        <ele>500.02</ele>
        <time>2012-08-05T11:47:10Z</time>
      </trkpt>
      <trkpt lat="46.22575" lon="7.28444">
        <ele>501.46</ele>
        <time>2012-08-05T11:47:22Z</time>
      </trkpt>
      <trkpt lat="46.22575" lon="7.28273">
        <ele>501.46</ele>
        <time>2012-08-05T11:47:33Z</time>
      </trkpt>
      <trkpt lat="46.22569" lon="7.28088">
        <ele>500.5</ele>
        <time>2012-08-05T11:47:44Z</time>
      </trkpt>
      <trkpt lat="46.22565" lon="7.27918">
        <ele>497.62</ele>
        <time>2012-08-05T11:47:54Z</time>
      </trkpt>
      <trkpt lat="46.22564" lon="7.27728">
        <ele>495.22</ele>
        <time>2012-08-05T11:48:05Z</time>
      </trkpt>
      <trkpt lat="46.22515" lon="7.27578">
        <ele>494.26</ele>
        <time>2012-08-05T11:48:14Z</time>
      </trkpt>
      <trkpt lat="46.2241" lon="7.27378">
        <ele>493.77</ele>
        <time>2012-08-05T11:48:28Z</time>
      </trkpt>
      <trkpt lat="46.22068" lon="7.26713">
        <ele>504.35</ele>
        <time>2012-08-05T11:54:35Z</time>
      </trkpt>
      <trkpt lat="46.22063" lon="7.26707">
        <ele>504.35</ele>
        <time>2012-08-05T11:54:36Z</time>
      </trkpt>
      <trkpt lat="46.22057" lon="7.26697">
        <ele>505.31</ele>
        <time>2012-08-05T11:54:37Z</time>
      </trkpt>
      <trkpt lat="46.2205" lon="7.26688">
        <ele>505.31</ele>
        <time>2012-08-05T11:54:38Z</time>
      </trkpt>
      <trkpt lat="46.21997" lon="7.2658">
        <ele>504.83</ele>
        <time>2012-08-05T11:54:46Z</time>
      </trkpt>
      <trkpt lat="46.21992" lon="7.26565">
        <ele>504.35</ele>
        <time>2012-08-05T11:54:47Z</time>
      </trkpt>
      <trkpt lat="46.2193" lon="7.26395">
        <ele>502.43</ele>
        <time>2012-08-05T11:54:58Z</time>
      </trkpt>
      <trkpt lat="46.21843" lon="7.26245">
        <ele>502.91</ele>
        <time>2012-08-05T11:55:07Z</time>
      </trkpt>
      <trkpt lat="46.21693" lon="7.26057">
        <ele>503.87</ele>
        <time>2012-08-05T11:55:19Z</time>
      </trkpt>
      <trkpt lat="46.21607" lon="7.25952">
        <ele>505.79</ele>
        <time>2012-08-05T11:55:26Z</time>
      </trkpt>
      <trkpt lat="46.21541" lon="7.25883">
        <ele>505.31</ele>
        <time>2012-08-05T11:55:33Z</time>
      </trkpt>
      <trkpt lat="46.21485" lon="7.25841">
        <ele>503.39</ele>
        <time>2012-08-05T11:55:38Z</time>
      </trkpt>
      <trkpt lat="46.21474" lon="7.25836">
        <ele>502.91</ele>
        <time>2012-08-05T11:55:39Z</time>
      </trkpt>
      <trkpt lat="46.21462" lon="7.25832">
        <ele>502.43</ele>
        <time>2012-08-05T11:55:40Z</time>
      </trkpt>
      <trkpt lat="46.21449" lon="7.2583">
        <ele>501.95</ele>
        <time>2012-08-05T11:55:41Z</time>
      </trkpt>
      <trkpt lat="46.21436" lon="7.25831">
        <ele>500.98</ele>
        <time>2012-08-05T11:55:42Z</time>
      </trkpt>
      <trkpt lat="46.21423" lon="7.25832">
        <ele>500.02</ele>
        <time>2012-08-05T11:55:43Z</time>
      </trkpt>
      <trkpt lat="46.21304" lon="7.25831">
        <ele>497.62</ele>
        <time>2012-08-05T11:55:52Z</time>
      </trkpt>
      <trkpt lat="46.21195" lon="7.25815">
        <ele>495.7</ele>
        <time>2012-08-05T11:56:00Z</time>
      </trkpt>
      <trkpt lat="46.21038" lon="7.2575">
        <ele>492.81</ele>
        <time>2012-08-05T11:56:12Z</time>
      </trkpt>
      <trkpt lat="46.20899" lon="7.25661">
        <ele>490.41</ele>
        <time>2012-08-05T11:56:23Z</time>
      </trkpt>
      <trkpt lat="46.2085" lon="7.25599">
        <ele>488.49</ele>
        <time>2012-08-05T11:56:28Z</time>
      </trkpt>
      <trkpt lat="46.20842" lon="7.25583">
        <ele>488.49</ele>
        <time>2012-08-05T11:56:29Z</time>
      </trkpt>
      <trkpt lat="46.20835" lon="7.25565">
        <ele>488.97</ele>
        <time>2012-08-05T11:56:30Z</time>
      </trkpt>
      <trkpt lat="46.20777" lon="7.25393">
        <ele>489.45</ele>
        <time>2012-08-05T11:56:39Z</time>
      </trkpt>
      <trkpt lat="46.20692" lon="7.25229">
        <ele>489.45</ele>
        <time>2012-08-05T11:56:49Z</time>
      </trkpt>
      <trkpt lat="46.20657" lon="7.25179">
        <ele>490.41</ele>
        <time>2012-08-05T11:56:53Z</time>
      </trkpt>
      <trkpt lat="46.20616" lon="7.25129">
        <ele>492.81</ele>
        <time>2012-08-05T11:56:57Z</time>
      </trkpt>
      <trkpt lat="46.20545" lon="7.25058">
        <ele>496.66</ele>
        <time>2012-08-05T11:57:03Z</time>
      </trkpt>
      <trkpt lat="46.20532" lon="7.25046">
        <ele>496.66</ele>
        <time>2012-08-05T11:57:04Z</time>
      </trkpt>
      <trkpt lat="46.20461" lon="7.24993">
        <ele>499.06</ele>
        <time>2012-08-05T11:57:09Z</time>
      </trkpt>
      <trkpt lat="46.20369" lon="7.24933">
        <ele>502.43</ele>
        <time>2012-08-05T11:57:15Z</time>
      </trkpt>
      <trkpt lat="46.20337" lon="7.24912">
        <ele>504.83</ele>
        <time>2012-08-05T11:57:17Z</time>
      </trkpt>
      <trkpt lat="46.20239" lon="7.24849">
        <ele>507.71</ele>
        <time>2012-08-05T11:57:23Z</time>
      </trkpt>
      <trkpt lat="46.20148" lon="7.24804">
        <ele>511.56</ele>
        <time>2012-08-05T11:57:28Z</time>
      </trkpt>
      <trkpt lat="46.20035" lon="7.24749">
        <ele>514.92</ele>
        <time>2012-08-05T11:57:34Z</time>
      </trkpt>
      <trkpt lat="46.20016" lon="7.24737">
        <ele>514.92</ele>
        <time>2012-08-05T11:57:35Z</time>
      </trkpt>
      <trkpt lat="46.19964" lon="7.24693">
        <ele>516.37</ele>
        <time>2012-08-05T11:57:38Z</time>
      </trkpt>
      <trkpt lat="46.19917" lon="7.24641">
        <ele>517.81</ele>
        <time>2012-08-05T11:57:41Z</time>
      </trkpt>
      <trkpt lat="46.19821" lon="7.24499">
        <ele>521.17</ele>
        <time>2012-08-05T11:57:48Z</time>
      </trkpt>
      <trkpt lat="46.1968" lon="7.24339">
        <ele>523.09</ele>
        <time>2012-08-05T11:57:57Z</time>
      </trkpt>
      <trkpt lat="46.19489" lon="7.24235">
        <ele>519.73</ele>
        <time>2012-08-05T11:58:07Z</time>
      </trkpt>
      <trkpt lat="46.19391" lon="7.24186">
        <ele>516.37</ele>
        <time>2012-08-05T11:58:12Z</time>
      </trkpt>
      <trkpt lat="46.19372" lon="7.24177">
        <ele>516.85</ele>
        <time>2012-08-05T11:58:13Z</time>
      </trkpt>
      <trkpt lat="46.19314" lon="7.24148">
        <ele>514.92</ele>
        <time>2012-08-05T11:58:16Z</time>
      </trkpt>
      <trkpt lat="46.19274" lon="7.24128">
        <ele>513.48</ele>
        <time>2012-08-05T11:58:18Z</time>
      </trkpt>
      <trkpt lat="46.19195" lon="7.24087">
        <ele>510.12</ele>
        <time>2012-08-05T11:58:22Z</time>
      </trkpt>
      <trkpt lat="46.19121" lon="7.24049">
        <ele>506.27</ele>
        <time>2012-08-05T11:58:26Z</time>
      </trkpt>
      <trkpt lat="46.19058" lon="7.24016">
        <ele>503.87</ele>
        <time>2012-08-05T11:58:30Z</time>
      </trkpt>
      <trkpt lat="46.18928" lon="7.23921">
        <ele>502.43</ele>
        <time>2012-08-05T11:58:39Z</time>
      </trkpt>
      <trkpt lat="46.1882" lon="7.23777">
        <ele>502.43</ele>
        <time>2012-08-05T11:58:48Z</time>
      </trkpt>
      <trkpt lat="46.18655" lon="7.23511">
        <ele>499.54</ele>
        <time>2012-08-05T11:59:03Z</time>
      </trkpt>
      <trkpt lat="46.18598" lon="7.23421">
        <ele>498.58</ele>
        <time>2012-08-05T11:59:09Z</time>
      </trkpt>
      <trkpt lat="46.18546" lon="7.2333">
        <ele>496.66</ele>
        <time>2012-08-05T11:59:16Z</time>
      </trkpt>
      <trkpt lat="46.18537" lon="7.23309">
        <ele>496.18</ele>
        <time>2012-08-05T11:59:18Z</time>
      </trkpt>
      <trkpt lat="46.18531" lon="7.23301">
        <ele>496.18</ele>
        <time>2012-08-05T11:59:19Z</time>
      </trkpt>
      <trkpt lat="46.18523" lon="7.23293">
        <ele>496.18</ele>
        <time>2012-08-05T11:59:20Z</time>
      </trkpt>
      <trkpt lat="46.18516" lon="7.23283">
        <ele>496.66</ele>
        <time>2012-08-05T11:59:21Z</time>
      </trkpt>
      <trkpt lat="46.18508" lon="7.23271">
        <ele>496.18</ele>
        <time>2012-08-05T11:59:22Z</time>
      </trkpt>
      <trkpt lat="46.18415" lon="7.2312">
        <ele>496.18</ele>
        <time>2012-08-05T11:59:32Z</time>
      </trkpt>
      <trkpt lat="46.18263" lon="7.22851">
        <ele>495.7</ele>
        <time>2012-08-05T11:59:46Z</time>
      </trkpt>
      <trkpt lat="46.18206" lon="7.22629">
        <ele>496.66</ele>
        <time>2012-08-05T11:59:55Z</time>
      </trkpt>
      <trkpt lat="46.182" lon="7.2239">
        <ele>498.1</ele>
        <time>2012-08-05T12:00:04Z</time>
      </trkpt>
      <trkpt lat="46.18204" lon="7.22137">
        <ele>495.22</ele>
        <time>2012-08-05T12:00:14Z</time>
      </trkpt>
      <trkpt lat="46.18195" lon="7.2189">
        <ele>491.37</ele>
        <time>2012-08-05T12:00:25Z</time>
      </trkpt>
      <trkpt lat="46.18181" lon="7.21821">
        <ele>488.49</ele>
        <time>2012-08-05T12:00:28Z</time>
      </trkpt>
      <trkpt lat="46.17106" lon="7.21426">
        <ele>484.16</ele>
        <time>2012-08-05T12:02:37Z</time>
      </trkpt>
      <trkpt lat="46.17088" lon="7.21426">
        <ele>483.68</ele>
        <time>2012-08-05T12:02:38Z</time>
      </trkpt>
      <trkpt lat="46.16908" lon="7.21392">
        <ele>483.68</ele>
        <time>2012-08-05T12:02:48Z</time>
      </trkpt>
      <trkpt lat="46.16794" lon="7.21302">
        <ele>479.84</ele>
        <time>2012-08-05T12:02:54Z</time>
      </trkpt>
      <trkpt lat="46.16748" lon="7.21242">
        <ele>476.95</ele>
        <time>2012-08-05T12:02:57Z</time>
      </trkpt>
      <trkpt lat="46.16657" lon="7.21059">
        <ele>474.55</ele>
        <time>2012-08-05T12:03:05Z</time>
      </trkpt>
      <trkpt lat="46.16561" lon="7.20864">
        <ele>474.07</ele>
        <time>2012-08-05T12:03:15Z</time>
      </trkpt>
      <trkpt lat="46.16418" lon="7.20567">
        <ele>473.59</ele>
        <time>2012-08-05T12:03:30Z</time>
      </trkpt>
      <trkpt lat="46.16294" lon="7.20306">
        <ele>473.11</ele>
        <time>2012-08-05T12:03:42Z</time>
      </trkpt>
      <trkpt lat="46.16116" lon="7.19933">
        <ele>474.07</ele>
        <time>2012-08-05T12:03:59Z</time>
      </trkpt>
      <trkpt lat="46.15946" lon="7.19577">
        <ele>473.11</ele>
        <time>2012-08-05T12:04:15Z</time>
      </trkpt>
      <trkpt lat="46.15796" lon="7.19267">
        <ele>473.59</ele>
        <time>2012-08-05T12:04:29Z</time>
      </trkpt>
      <trkpt lat="46.15626" lon="7.18913">
        <ele>472.63</ele>
        <time>2012-08-05T12:04:45Z</time>
      </trkpt>
      <trkpt lat="46.15509" lon="7.1867">
        <ele>470.22</ele>
        <time>2012-08-05T12:04:57Z</time>
      </trkpt>
      <trkpt lat="46.1542" lon="7.18481">
        <ele>468.3</ele>
        <time>2012-08-05T12:05:09Z</time>
      </trkpt>
      <trkpt lat="46.15319" lon="7.18272">
        <ele>468.78</ele>
        <time>2012-08-05T12:05:24Z</time>
      </trkpt>
      <trkpt lat="46.15216" lon="7.18058">
        <ele>468.3</ele>
        <time>2012-08-05T12:05:39Z</time>
      </trkpt>
      <trkpt lat="46.15159" lon="7.17943">
        <ele>465.9</ele>
        <time>2012-08-05T12:05:50Z</time>
      </trkpt>
      <trkpt lat="46.15132" lon="7.17891">
        <ele>465.42</ele>
        <time>2012-08-05T12:06:00Z</time>
      </trkpt>
      <trkpt lat="46.15128" lon="7.17889">
        <ele>464.93</ele>
        <time>2012-08-05T12:06:01Z</time>
      </trkpt>
      <trkpt lat="46.15123" lon="7.17888">
        <ele>464.93</ele>
        <time>2012-08-05T12:06:02Z</time>
      </trkpt>
      <trkpt lat="46.15117" lon="7.17887">
        <ele>464.93</ele>
        <time>2012-08-05T12:06:03Z</time>
      </trkpt>
      <trkpt lat="46.15104" lon="7.17885">
        <ele>465.42</ele>
        <time>2012-08-05T12:06:05Z</time>
      </trkpt>
      <trkpt lat="46.15096" lon="7.17881">
        <ele>465.42</ele>
        <time>2012-08-05T12:06:06Z</time>
      </trkpt>
      <trkpt lat="46.15088" lon="7.17876">
        <ele>465.42</ele>
        <time>2012-08-05T12:06:07Z</time>
      </trkpt>
      <trkpt lat="46.15027" lon="7.17806">
        <ele>465.42</ele>
        <time>2012-08-05T12:06:16Z</time>
      </trkpt>
      <trkpt lat="46.15024" lon="7.17797">
        <ele>465.42</ele>
        <time>2012-08-05T12:06:17Z</time>
      </trkpt>
      <trkpt lat="46.15024" lon="7.17789">
        <ele>465.42</ele>
        <time>2012-08-05T12:06:18Z</time>
      </trkpt>
      <trkpt lat="46.15025" lon="7.17782">
        <ele>465.9</ele>
        <time>2012-08-05T12:06:19Z</time>
      </trkpt>
      <trkpt lat="46.15029" lon="7.17775">
        <ele>466.86</ele>
        <time>2012-08-05T12:06:20Z</time>
      </trkpt>
      <trkpt lat="46.15035" lon="7.17769">
        <ele>467.82</ele>
        <time>2012-08-05T12:06:21Z</time>
      </trkpt>
      <trkpt lat="46.15066" lon="7.17745">
        <ele>470.22</ele>
        <time>2012-08-05T12:06:25Z</time>
      </trkpt>
      <trkpt lat="46.15103" lon="7.1771">
        <ele>473.59</ele>
        <time>2012-08-05T12:06:30Z</time>
      </trkpt>
      <trkpt lat="46.15168" lon="7.17648">
        <ele>469.74</ele>
        <time>2012-08-05T12:06:38Z</time>
      </trkpt>
      <trkpt lat="46.1518" lon="7.17635">
        <ele>468.3</ele>
        <time>2012-08-05T12:06:40Z</time>
      </trkpt>
      <trkpt lat="46.15183" lon="7.17627">
        <ele>467.82</ele>
        <time>2012-08-05T12:06:41Z</time>
      </trkpt>
      <trkpt lat="46.15183" lon="7.17618">
        <ele>468.3</ele>
        <time>2012-08-05T12:06:42Z</time>
      </trkpt>
      <trkpt lat="46.1518" lon="7.17608">
        <ele>468.3</ele>
        <time>2012-08-05T12:06:43Z</time>
      </trkpt>
      <trkpt lat="46.15175" lon="7.17597">
        <ele>468.78</ele>
        <time>2012-08-05T12:06:44Z</time>
      </trkpt>
      <trkpt lat="46.1517" lon="7.17585">
        <ele>468.78</ele>
        <time>2012-08-05T12:06:45Z</time>
      </trkpt>
      <trkpt lat="46.15117" lon="7.17464">
        <ele>466.86</ele>
        <time>2012-08-05T12:06:53Z</time>
      </trkpt>
      <trkpt lat="46.1511" lon="7.17449">
        <ele>466.86</ele>
        <time>2012-08-05T12:06:54Z</time>
      </trkpt>
      <trkpt lat="46.15089" lon="7.17404">
        <ele>465.42</ele>
        <time>2012-08-05T12:06:58Z</time>
      </trkpt>
      <trkpt lat="46.15088" lon="7.17395">
        <ele>464.93</ele>
        <time>2012-08-05T12:06:59Z</time>
      </trkpt>
      <trkpt lat="46.15092" lon="7.17386">
        <ele>464.45</ele>
        <time>2012-08-05T12:07:00Z</time>
      </trkpt>
      <trkpt lat="46.15099" lon="7.17379">
        <ele>464.93</ele>
        <time>2012-08-05T12:07:01Z</time>
      </trkpt>
      <trkpt lat="46.15107" lon="7.17371">
        <ele>465.42</ele>
        <time>2012-08-05T12:07:02Z</time>
      </trkpt>
      <trkpt lat="46.1512" lon="7.17355">
        <ele>465.42</ele>
        <time>2012-08-05T12:07:04Z</time>
      </trkpt>
      <trkpt lat="46.15124" lon="7.17345">
        <ele>465.9</ele>
        <time>2012-08-05T12:07:05Z</time>
      </trkpt>
      <trkpt lat="46.15127" lon="7.17334">
        <ele>465.42</ele>
        <time>2012-08-05T12:07:06Z</time>
      </trkpt>
      <trkpt lat="46.15129" lon="7.17322">
        <ele>465.42</ele>
        <time>2012-08-05T12:07:07Z</time>
      </trkpt>
      <trkpt lat="46.1513" lon="7.17311">
        <ele>464.93</ele>
        <time>2012-08-05T12:07:08Z</time>
      </trkpt>
      <trkpt lat="46.15131" lon="7.17298">
        <ele>464.93</ele>
        <time>2012-08-05T12:07:09Z</time>
      </trkpt>
      <trkpt lat="46.15143" lon="7.17142">
        <ele>464.45</ele>
        <time>2012-08-05T12:07:21Z</time>
      </trkpt>
      <trkpt lat="46.1515" lon="7.17038">
        <ele>464.93</ele>
        <time>2012-08-05T12:07:31Z</time>
      </trkpt>
      <trkpt lat="46.15152" lon="7.16994">
        <ele>464.93</ele>
        <time>2012-08-05T12:07:35Z</time>
      </trkpt>
      <trkpt lat="46.1515" lon="7.16984">
        <ele>464.45</ele>
        <time>2012-08-05T12:07:36Z</time>
      </trkpt>
      <trkpt lat="46.15146" lon="7.16976">
        <ele>464.45</ele>
        <time>2012-08-05T12:07:37Z</time>
      </trkpt>
      <trkpt lat="46.15141" lon="7.16967">
        <ele>465.42</ele>
        <time>2012-08-05T12:07:38Z</time>
      </trkpt>
      <trkpt lat="46.15137" lon="7.16957">
        <ele>464.93</ele>
        <time>2012-08-05T12:07:39Z</time>
      </trkpt>
      <trkpt lat="46.15131" lon="7.16948">
        <ele>464.93</ele>
        <time>2012-08-05T12:07:40Z</time>
      </trkpt>
      <trkpt lat="46.15079" lon="7.16863">
        <ele>464.45</ele>
        <time>2012-08-05T12:07:50Z</time>
      </trkpt>
      <trkpt lat="46.15019" lon="7.16772">
        <ele>465.9</ele>
        <time>2012-08-05T12:07:58Z</time>
      </trkpt>
      <trkpt lat="46.14888" lon="7.16565">
        <ele>467.34</ele>
        <time>2012-08-05T12:08:12Z</time>
      </trkpt>
      <trkpt lat="46.1475" lon="7.16343">
        <ele>467.34</ele>
        <time>2012-08-05T12:08:25Z</time>
      </trkpt>
      <trkpt lat="46.14629" lon="7.16104">
        <ele>467.82</ele>
        <time>2012-08-05T12:08:37Z</time>
      </trkpt>
      <trkpt lat="46.1452" lon="7.15882">
        <ele>465.9</ele>
        <time>2012-08-05T12:08:48Z</time>
      </trkpt>
      <trkpt lat="46.14484" lon="7.15806">
        <ele>464.93</ele>
        <time>2012-08-05T12:08:52Z</time>
      </trkpt>
      <trkpt lat="46.14377" lon="7.15584">
        <ele>464.93</ele>
        <time>2012-08-05T12:09:05Z</time>
      </trkpt>
      <trkpt lat="46.1432" lon="7.15464">
        <ele>461.57</ele>
        <time>2012-08-05T12:09:13Z</time>
      </trkpt>
      <trkpt lat="46.14316" lon="7.15456">
        <ele>461.57</ele>
        <time>2012-08-05T12:09:14Z</time>
      </trkpt>
      <trkpt lat="46.14305" lon="7.15438">
        <ele>461.57</ele>
        <time>2012-08-05T12:09:18Z</time>
      </trkpt>
      <trkpt lat="46.143" lon="7.15438">
        <ele>463.01</ele>
        <time>2012-08-05T12:09:19Z</time>
      </trkpt>
      <trkpt lat="46.14293" lon="7.15443">
        <ele>463.01</ele>
        <time>2012-08-05T12:09:20Z</time>
      </trkpt>
      <trkpt lat="46.14285" lon="7.1545">
        <ele>463.97</ele>
        <time>2012-08-05T12:09:21Z</time>
      </trkpt>
      <trkpt lat="46.14276" lon="7.15459">
        <ele>464.93</ele>
        <time>2012-08-05T12:09:22Z</time>
      </trkpt>
      <trkpt lat="46.14267" lon="7.15469">
        <ele>465.42</ele>
        <time>2012-08-05T12:09:23Z</time>
      </trkpt>
      <trkpt lat="46.14232" lon="7.15506">
        <ele>467.34</ele>
        <time>2012-08-05T12:09:27Z</time>
      </trkpt>
      <trkpt lat="46.14193" lon="7.1555">
        <ele>471.18</ele>
        <time>2012-08-05T12:09:31Z</time>
      </trkpt>
      <trkpt lat="46.14172" lon="7.15574">
        <ele>471.66</ele>
        <time>2012-08-05T12:09:33Z</time>
      </trkpt>
      <trkpt lat="46.14068" lon="7.15708">
        <ele>469.74</ele>
        <time>2012-08-05T12:09:44Z</time>
      </trkpt>
      <trkpt lat="46.14058" lon="7.15717">
        <ele>469.26</ele>
        <time>2012-08-05T12:09:45Z</time>
      </trkpt>
      <trkpt lat="46.14047" lon="7.15724">
        <ele>468.78</ele>
        <time>2012-08-05T12:09:46Z</time>
      </trkpt>
      <trkpt lat="46.14035" lon="7.15728">
        <ele>467.82</ele>
        <time>2012-08-05T12:09:47Z</time>
      </trkpt>
      <trkpt lat="46.14024" lon="7.15727">
        <ele>466.38</ele>
        <time>2012-08-05T12:09:48Z</time>
      </trkpt>
      <trkpt lat="46.14013" lon="7.15722">
        <ele>465.9</ele>
        <time>2012-08-05T12:09:49Z</time>
      </trkpt>
      <trkpt lat="46.14004" lon="7.15713">
        <ele>465.42</ele>
        <time>2012-08-05T12:09:50Z</time>
      </trkpt>
      <trkpt lat="46.13996" lon="7.157">
        <ele>464.45</ele>
        <time>2012-08-05T12:09:51Z</time>
      </trkpt>
      <trkpt lat="46.13991" lon="7.15685">
        <ele>463.97</ele>
        <time>2012-08-05T12:09:52Z</time>
      </trkpt>
      <trkpt lat="46.13989" lon="7.1567">
        <ele>463.01</ele>
        <time>2012-08-05T12:09:53Z</time>
      </trkpt>
      <trkpt lat="46.13989" lon="7.15655">
        <ele>462.53</ele>
        <time>2012-08-05T12:09:54Z</time>
      </trkpt>
      <trkpt lat="46.13992" lon="7.15641">
        <ele>462.53</ele>
        <time>2012-08-05T12:09:55Z</time>
      </trkpt>
      <trkpt lat="46.13997" lon="7.15628">
        <ele>462.05</ele>
        <time>2012-08-05T12:09:56Z</time>
      </trkpt>
      <trkpt lat="46.14003" lon="7.15619">
        <ele>461.57</ele>
        <time>2012-08-05T12:09:57Z</time>
      </trkpt>
      <trkpt lat="46.14008" lon="7.15612">
        <ele>461.09</ele>
        <time>2012-08-05T12:09:58Z</time>
      </trkpt>
      <trkpt lat="46.14013" lon="7.15608">
        <ele>460.61</ele>
        <time>2012-08-05T12:09:59Z</time>
      </trkpt>
      <trkpt lat="46.14016" lon="7.15605">
        <ele>460.13</ele>
        <time>2012-08-05T12:10:00Z</time>
      </trkpt>
      <trkpt lat="46.14026" lon="7.15592">
        <ele>460.61</ele>
        <time>2012-08-05T12:10:06Z</time>
      </trkpt>
      <trkpt lat="46.14026" lon="7.15584">
        <ele>461.09</ele>
        <time>2012-08-05T12:10:07Z</time>
      </trkpt>
      <trkpt lat="46.14024" lon="7.15575">
        <ele>461.09</ele>
        <time>2012-08-05T12:10:08Z</time>
      </trkpt>
      <trkpt lat="46.14021" lon="7.15565">
        <ele>461.57</ele>
        <time>2012-08-05T12:10:09Z</time>
      </trkpt>
      <trkpt lat="46.14016" lon="7.15552">
        <ele>462.53</ele>
        <time>2012-08-05T12:10:10Z</time>
      </trkpt>
      <trkpt lat="46.1401" lon="7.15539">
        <ele>463.01</ele>
        <time>2012-08-05T12:10:11Z</time>
      </trkpt>
      <trkpt lat="46.13935" lon="7.15385">
        <ele>463.97</ele>
        <time>2012-08-05T12:10:21Z</time>
      </trkpt>
      <trkpt lat="46.13827" lon="7.1516">
        <ele>465.9</ele>
        <time>2012-08-05T12:10:33Z</time>
      </trkpt>
      <trkpt lat="46.13665" lon="7.14825">
        <ele>465.42</ele>
        <time>2012-08-05T12:10:49Z</time>
      </trkpt>
      <trkpt lat="46.13474" lon="7.14429">
        <ele>465.9</ele>
        <time>2012-08-05T12:11:07Z</time>
      </trkpt>
      <trkpt lat="46.1327" lon="7.14006">
        <ele>466.38</ele>
        <time>2012-08-05T12:11:25Z</time>
      </trkpt>
      <trkpt lat="46.13162" lon="7.13782">
        <ele>464.93</ele>
        <time>2012-08-05T12:11:35Z</time>
      </trkpt>
      <trkpt lat="46.12966" lon="7.13371">
        <ele>462.05</ele>
        <time>2012-08-05T12:11:54Z</time>
      </trkpt>
      <trkpt lat="46.12856" lon="7.13145">
        <ele>461.09</ele>
        <time>2012-08-05T12:12:07Z</time>
      </trkpt>
      <trkpt lat="46.12765" lon="7.12956">
        <ele>459.65</ele>
        <time>2012-08-05T12:12:20Z</time>
      </trkpt>
      <trkpt lat="46.12677" lon="7.12771">
        <ele>461.09</ele>
        <time>2012-08-05T12:12:32Z</time>
      </trkpt>
      <trkpt lat="46.12607" lon="7.1262">
        <ele>460.61</ele>
        <time>2012-08-05T12:12:42Z</time>
      </trkpt>
      <trkpt lat="46.12513" lon="7.12433">
        <ele>462.05</ele>
        <time>2012-08-05T12:12:53Z</time>
      </trkpt>
      <trkpt lat="46.12406" lon="7.12208">
        <ele>461.09</ele>
        <time>2012-08-05T12:13:06Z</time>
      </trkpt>
      <trkpt lat="46.12278" lon="7.11942">
        <ele>463.01</ele>
        <time>2012-08-05T12:13:20Z</time>
      </trkpt>
      <trkpt lat="46.12156" lon="7.11689">
        <ele>463.01</ele>
        <time>2012-08-05T12:13:32Z</time>
      </trkpt>
      <trkpt lat="46.11967" lon="7.11296">
        <ele>462.53</ele>
        <time>2012-08-05T12:13:50Z</time>
      </trkpt>
      <trkpt lat="46.11885" lon="7.11128">
        <ele>458.21</ele>
        <time>2012-08-05T12:13:58Z</time>
      </trkpt>
      <trkpt lat="46.11875" lon="7.11106">
        <ele>463.49</ele>
        <time>2012-08-05T12:13:59Z</time>
      </trkpt>
      <trkpt lat="46.11705" lon="7.10753">
        <ele>463.01</ele>
        <time>2012-08-05T12:14:15Z</time>
      </trkpt>
      <trkpt lat="46.11542" lon="7.10414">
        <ele>463.01</ele>
        <time>2012-08-05T12:14:30Z</time>
      </trkpt>
      <trkpt lat="46.1136" lon="7.10037">
        <ele>461.57</ele>
        <time>2012-08-05T12:14:47Z</time>
      </trkpt>
      <trkpt lat="46.11294" lon="7.09901">
        <ele>459.65</ele>
        <time>2012-08-05T12:14:54Z</time>
      </trkpt>
      <trkpt lat="46.11276" lon="7.09861">
        <ele>458.21</ele>
        <time>2012-08-05T12:14:57Z</time>
      </trkpt>
      <trkpt lat="46.11272" lon="7.0985">
        <ele>458.21</ele>
        <time>2012-08-05T12:14:58Z</time>
      </trkpt>
      <trkpt lat="46.1127" lon="7.09838">
        <ele>458.21</ele>
        <time>2012-08-05T12:14:59Z</time>
      </trkpt>
      <trkpt lat="46.11266" lon="7.09826">
        <ele>457.72</ele>
        <time>2012-08-05T12:15:00Z</time>
      </trkpt>
      <trkpt lat="46.1126" lon="7.09813">
        <ele>459.17</ele>
        <time>2012-08-05T12:15:01Z</time>
      </trkpt>
      <trkpt lat="46.1125" lon="7.098">
        <ele>459.65</ele>
        <time>2012-08-05T12:15:02Z</time>
      </trkpt>
      <trkpt lat="46.11241" lon="7.09787">
        <ele>459.65</ele>
        <time>2012-08-05T12:15:03Z</time>
      </trkpt>
      <trkpt lat="46.11233" lon="7.09773">
        <ele>460.13</ele>
        <time>2012-08-05T12:15:04Z</time>
      </trkpt>
      <trkpt lat="46.1121" lon="7.09729">
        <ele>459.17</ele>
        <time>2012-08-05T12:15:07Z</time>
      </trkpt>
      <trkpt lat="46.11203" lon="7.09715">
        <ele>459.17</ele>
        <time>2012-08-05T12:15:08Z</time>
      </trkpt>
      <trkpt lat="46.11134" lon="7.09571">
        <ele>460.61</ele>
        <time>2012-08-05T12:15:17Z</time>
      </trkpt>
      <trkpt lat="46.11043" lon="7.09377">
        <ele>461.09</ele>
        <time>2012-08-05T12:15:28Z</time>
      </trkpt>
      <trkpt lat="46.10955" lon="7.09198">
        <ele>461.57</ele>
        <time>2012-08-05T12:15:39Z</time>
      </trkpt>
      <trkpt lat="46.10897" lon="7.09075">
        <ele>462.05</ele>
        <time>2012-08-05T12:15:48Z</time>
      </trkpt>
      <trkpt lat="46.10821" lon="7.08914">
        <ele>462.53</ele>
        <time>2012-08-05T12:15:58Z</time>
      </trkpt>
      <trkpt lat="46.10712" lon="7.08692">
        <ele>462.53</ele>
        <time>2012-08-05T12:16:12Z</time>
      </trkpt>
      <trkpt lat="46.10633" lon="7.08534">
        <ele>461.57</ele>
        <time>2012-08-05T12:16:24Z</time>
      </trkpt>
      <trkpt lat="46.10625" lon="7.08513">
        <ele>461.57</ele>
        <time>2012-08-05T12:16:26Z</time>
      </trkpt>
      <trkpt lat="46.10622" lon="7.08503">
        <ele>461.57</ele>
        <time>2012-08-05T12:16:27Z</time>
      </trkpt>
      <trkpt lat="46.10617" lon="7.08494">
        <ele>462.05</ele>
        <time>2012-08-05T12:16:28Z</time>
      </trkpt>
      <trkpt lat="46.10225" lon="7.07994">
        <ele>463.97</ele>
        <time>2012-08-05T12:18:25Z</time>
      </trkpt>
      <trkpt lat="46.10224" lon="7.07994">
        <ele>464.45</ele>
        <time>2012-08-05T12:18:26Z</time>
      </trkpt>
      <trkpt lat="46.10225" lon="7.07995">
        <ele>466.86</ele>
        <time>2012-08-05T12:18:38Z</time>
      </trkpt>
      <trkpt lat="46.10224" lon="7.07996">
        <ele>470.22</ele>
        <time>2012-08-05T12:18:47Z</time>
      </trkpt>
      <trkpt lat="46.10226" lon="7.07998">
        <ele>473.11</ele>
        <time>2012-08-05T12:18:58Z</time>
      </trkpt>
      <trkpt lat="46.10226" lon="7.07998">
        <ele>476.47</ele>
        <time>2012-08-05T12:19:13Z</time>
      </trkpt>
      <trkpt lat="46.10224" lon="7.07996">
        <ele>477.43</ele>
        <time>2012-08-05T12:19:39Z</time>
      </trkpt>
      <trkpt lat="46.10226" lon="7.07998">
        <ele>476.95</ele>
        <time>2012-08-05T12:20:15Z</time>
      </trkpt>
      <trkpt lat="46.10228" lon="7.07997">
        <ele>476.47</ele>
        <time>2012-08-05T12:20:41Z</time>
      </trkpt>
      <trkpt lat="46.10227" lon="7.07996">
        <ele>476.47</ele>
        <time>2012-08-05T12:21:14Z</time>
      </trkpt>
      <trkpt lat="46.10226" lon="7.07995">
        <ele>476.95</ele>
        <time>2012-08-05T12:21:49Z</time>
      </trkpt>
      <trkpt lat="46.10225" lon="7.07995">
        <ele>476.47</ele>
        <time>2012-08-05T12:22:19Z</time>
      </trkpt>
      <trkpt lat="46.10226" lon="7.07996">
        <ele>476.95</ele>
        <time>2012-08-05T12:22:53Z</time>
      </trkpt>
      <trkpt lat="46.10226" lon="7.07997">
        <ele>476.95</ele>
        <time>2012-08-05T12:23:23Z</time>
      </trkpt>
      <trkpt lat="46.10227" lon="7.07997">
        <ele>476.95</ele>
        <time>2012-08-05T12:23:32Z</time>
      </trkpt>
      <trkpt lat="46.10226" lon="7.07999">
        <ele>477.43</ele>
        <time>2012-08-05T12:23:48Z</time>
      </trkpt>
      <trkpt lat="46.10226" lon="7.07999">
        <ele>476.95</ele>
        <time>2012-08-05T12:23:52Z</time>
      </trkpt>
      <trkpt lat="46.10234" lon="7.07999">
        <ele>477.43</ele>
        <time>2012-08-05T12:23:56Z</time>
      </trkpt>
      <trkpt lat="46.10239" lon="7.07992">
        <ele>477.91</ele>
        <time>2012-08-05T12:23:57Z</time>
      </trkpt>
      <trkpt lat="46.10285" lon="7.07919">
        <ele>478.87</ele>
        <time>2012-08-05T12:24:03Z</time>
      </trkpt>
      <trkpt lat="46.10306" lon="7.07887">
        <ele>477.43</ele>
        <time>2012-08-05T12:24:06Z</time>
      </trkpt>
      <trkpt lat="46.10312" lon="7.07881">
        <ele>476.95</ele>
        <time>2012-08-05T12:24:07Z</time>
      </trkpt>
      <trkpt lat="46.10317" lon="7.07879">
        <ele>476.95</ele>
        <time>2012-08-05T12:24:08Z</time>
      </trkpt>
      <trkpt lat="46.10323" lon="7.0788">
        <ele>476.95</ele>
        <time>2012-08-05T12:24:09Z</time>
      </trkpt>
      <trkpt lat="46.10329" lon="7.07886">
        <ele>476.47</ele>
        <time>2012-08-05T12:24:10Z</time>
      </trkpt>
      <trkpt lat="46.10334" lon="7.07895">
        <ele>476.95</ele>
        <time>2012-08-05T12:24:11Z</time>
      </trkpt>
      <trkpt lat="46.10338" lon="7.07908">
        <ele>476.95</ele>
        <time>2012-08-05T12:24:12Z</time>
      </trkpt>
      <trkpt lat="46.10343" lon="7.07923">
        <ele>477.91</ele>
        <time>2012-08-05T12:24:13Z</time>
      </trkpt>
      <trkpt lat="46.10404" lon="7.0806">
        <ele>478.87</ele>
        <time>2012-08-05T12:24:22Z</time>
      </trkpt>
      <trkpt lat="46.10473" lon="7.08206">
        <ele>476.95</ele>
        <time>2012-08-05T12:24:31Z</time>
      </trkpt>
      <trkpt lat="46.10516" lon="7.08296">
        <ele>474.55</ele>
        <time>2012-08-05T12:24:38Z</time>
      </trkpt>
      <trkpt lat="46.10538" lon="7.08346">
        <ele>474.07</ele>
        <time>2012-08-05T12:24:44Z</time>
      </trkpt>
      <trkpt lat="46.10539" lon="7.08352">
        <ele>474.07</ele>
        <time>2012-08-05T12:24:45Z</time>
      </trkpt>
      <trkpt lat="46.10539" lon="7.08359">
        <ele>474.07</ele>
        <time>2012-08-05T12:24:46Z</time>
      </trkpt>
      <trkpt lat="46.10539" lon="7.08365">
        <ele>474.07</ele>
        <time>2012-08-05T12:24:47Z</time>
      </trkpt>
      <trkpt lat="46.10539" lon="7.08369">
        <ele>473.59</ele>
        <time>2012-08-05T12:24:48Z</time>
      </trkpt>
      <trkpt lat="46.10539" lon="7.08372">
        <ele>473.59</ele>
        <time>2012-08-05T12:24:49Z</time>
      </trkpt>
      <trkpt lat="46.1054" lon="7.08374">
        <ele>473.59</ele>
        <time>2012-08-05T12:25:02Z</time>
      </trkpt>
      <trkpt lat="46.10538" lon="7.08374">
        <ele>473.59</ele>
        <time>2012-08-05T12:25:28Z</time>
      </trkpt>
      <trkpt lat="46.10537" lon="7.08373">
        <ele>473.11</ele>
        <time>2012-08-05T12:25:54Z</time>
      </trkpt>
      <trkpt lat="46.10537" lon="7.08372">
        <ele>473.59</ele>
        <time>2012-08-05T12:26:21Z</time>
      </trkpt>
      <trkpt lat="46.10537" lon="7.08372">
        <ele>472.63</ele>
        <time>2012-08-05T12:26:49Z</time>
      </trkpt>
      <trkpt lat="46.10543" lon="7.08385">
        <ele>473.59</ele>
        <time>2012-08-05T12:27:00Z</time>
      </trkpt>
      <trkpt lat="46.10543" lon="7.08388">
        <ele>473.11</ele>
        <time>2012-08-05T12:27:01Z</time>
      </trkpt>
      <trkpt lat="46.10543" lon="7.08391">
        <ele>473.11</ele>
        <time>2012-08-05T12:27:02Z</time>
      </trkpt>
      <trkpt lat="46.10542" lon="7.08394">
        <ele>473.59</ele>
        <time>2012-08-05T12:27:03Z</time>
      </trkpt>
      <trkpt lat="46.1054" lon="7.08396">
        <ele>472.63</ele>
        <time>2012-08-05T12:27:04Z</time>
      </trkpt>
      <trkpt lat="46.1054" lon="7.08396">
        <ele>473.59</ele>
        <time>2012-08-05T12:27:05Z</time>
      </trkpt>
      <trkpt lat="46.10541" lon="7.08397">
        <ele>473.59</ele>
        <time>2012-08-05T12:27:19Z</time>
      </trkpt>
      <trkpt lat="46.10542" lon="7.08398">
        <ele>472.63</ele>
        <time>2012-08-05T12:27:44Z</time>
      </trkpt>
      <trkpt lat="46.10543" lon="7.084">
        <ele>472.63</ele>
        <time>2012-08-05T12:28:18Z</time>
      </trkpt>
      <trkpt lat="46.10543" lon="7.084">
        <ele>472.14</ele>
        <time>2012-08-05T12:28:53Z</time>
      </trkpt>
      <trkpt lat="46.10544" lon="7.08398">
        <ele>472.14</ele>
        <time>2012-08-05T12:29:27Z</time>
      </trkpt>
      <trkpt lat="46.10544" lon="7.08399">
        <ele>471.18</ele>
        <time>2012-08-05T12:30:01Z</time>
      </trkpt>
      <trkpt lat="46.10544" lon="7.084">
        <ele>471.18</ele>
        <time>2012-08-05T12:30:36Z</time>
      </trkpt>
      <trkpt lat="46.10544" lon="7.08399">
        <ele>470.7</ele>
        <time>2012-08-05T12:31:15Z</time>
      </trkpt>
      <trkpt lat="46.10543" lon="7.08399">
        <ele>470.22</ele>
        <time>2012-08-05T12:31:46Z</time>
      </trkpt>
      <trkpt lat="46.10543" lon="7.084">
        <ele>470.7</ele>
        <time>2012-08-05T12:32:18Z</time>
      </trkpt>
      <trkpt lat="46.10542" lon="7.08401">
        <ele>469.74</ele>
        <time>2012-08-05T12:32:53Z</time>
      </trkpt>
      <trkpt lat="46.10542" lon="7.084">
        <ele>469.26</ele>
        <time>2012-08-05T12:33:29Z</time>
      </trkpt>
      <trkpt lat="46.10542" lon="7.084">
        <ele>470.22</ele>
        <time>2012-08-05T12:34:04Z</time>
      </trkpt>
      <trkpt lat="46.10542" lon="7.084">
        <ele>469.26</ele>
        <time>2012-08-05T12:34:39Z</time>
      </trkpt>
      <trkpt lat="46.10542" lon="7.08399">
        <ele>469.26</ele>
        <time>2012-08-05T12:35:13Z</time>
      </trkpt>
      <trkpt lat="46.10542" lon="7.084">
        <ele>468.78</ele>
        <time>2012-08-05T12:35:49Z</time>
      </trkpt>
      <trkpt lat="46.10546" lon="7.084">
        <ele>469.26</ele>
        <time>2012-08-05T12:36:24Z</time>
      </trkpt>
      <trkpt lat="46.10545" lon="7.084">
        <ele>468.78</ele>
        <time>2012-08-05T12:36:54Z</time>
      </trkpt>
      <trkpt lat="46.10545" lon="7.084">
        <ele>469.26</ele>
        <time>2012-08-05T12:37:26Z</time>
      </trkpt>
      <trkpt lat="46.10556" lon="7.08402">
        <ele>470.7</ele>
        <time>2012-08-05T12:39:47Z</time>
      </trkpt>
      <trkpt lat="46.10562" lon="7.084">
        <ele>470.22</ele>
        <time>2012-08-05T12:39:55Z</time>
      </trkpt>
      <trkpt lat="46.10563" lon="7.0839">
        <ele>471.18</ele>
        <time>2012-08-05T12:39:59Z</time>
      </trkpt>
      <trkpt lat="46.10562" lon="7.08382">
        <ele>471.18</ele>
        <time>2012-08-05T12:40:00Z</time>
      </trkpt>
      <trkpt lat="46.1056" lon="7.08375">
        <ele>470.7</ele>
        <time>2012-08-05T12:40:01Z</time>
      </trkpt>
      <trkpt lat="46.10557" lon="7.08366">
        <ele>471.18</ele>
        <time>2012-08-05T12:40:02Z</time>
      </trkpt>
      <trkpt lat="46.10552" lon="7.08357">
        <ele>472.14</ele>
        <time>2012-08-05T12:40:03Z</time>
      </trkpt>
      <trkpt lat="46.10496" lon="7.08241">
        <ele>474.07</ele>
        <time>2012-08-05T12:40:12Z</time>
      </trkpt>
      <trkpt lat="46.10402" lon="7.08045">
        <ele>475.03</ele>
        <time>2012-08-05T12:40:25Z</time>
      </trkpt>
      <trkpt lat="46.10339" lon="7.07906">
        <ele>475.03</ele>
        <time>2012-08-05T12:40:35Z</time>
      </trkpt>
      <trkpt lat="46.10337" lon="7.07894">
        <ele>474.55</ele>
        <time>2012-08-05T12:40:36Z</time>
      </trkpt>
      <trkpt lat="46.10336" lon="7.07882">
        <ele>474.55</ele>
        <time>2012-08-05T12:40:37Z</time>
      </trkpt>
      <trkpt lat="46.10335" lon="7.07863">
        <ele>474.07</ele>
        <time>2012-08-05T12:40:39Z</time>
      </trkpt>
      <trkpt lat="46.10332" lon="7.07856">
        <ele>474.55</ele>
        <time>2012-08-05T12:40:40Z</time>
      </trkpt>
      <trkpt lat="46.10328" lon="7.07853">
        <ele>474.55</ele>
        <time>2012-08-05T12:40:41Z</time>
      </trkpt>
      <trkpt lat="46.10323" lon="7.07854">
        <ele>474.07</ele>
        <time>2012-08-05T12:40:42Z</time>
      </trkpt>
      <trkpt lat="46.10318" lon="7.0786">
        <ele>474.55</ele>
        <time>2012-08-05T12:40:43Z</time>
      </trkpt>
      <trkpt lat="46.10314" lon="7.07867">
        <ele>474.55</ele>
        <time>2012-08-05T12:40:44Z</time>
      </trkpt>
      <trkpt lat="46.10309" lon="7.07876">
        <ele>474.55</ele>
        <time>2012-08-05T12:40:45Z</time>
      </trkpt>
      <trkpt lat="46.10244" lon="7.07976">
        <ele>475.03</ele>
        <time>2012-08-05T12:40:56Z</time>
      </trkpt>
      <trkpt lat="46.10153" lon="7.0811">
        <ele>477.43</ele>
        <time>2012-08-05T12:41:09Z</time>
      </trkpt>
      <trkpt lat="46.10036" lon="7.08222">
        <ele>478.39</ele>
        <time>2012-08-05T12:41:21Z</time>
      </trkpt>
      <trkpt lat="46.09968" lon="7.08284">
        <ele>476.47</ele>
        <time>2012-08-05T12:41:31Z</time>
      </trkpt>
      <trkpt lat="46.09949" lon="7.08296">
        <ele>476.95</ele>
        <time>2012-08-05T12:41:34Z</time>
      </trkpt>
      <trkpt lat="46.09942" lon="7.08303">
        <ele>477.43</ele>
        <time>2012-08-05T12:41:35Z</time>
      </trkpt>
      <trkpt lat="46.09936" lon="7.08312">
        <ele>476.95</ele>
        <time>2012-08-05T12:41:36Z</time>
      </trkpt>
      <trkpt lat="46.09929" lon="7.08321">
        <ele>477.43</ele>
        <time>2012-08-05T12:41:37Z</time>
      </trkpt>
      <trkpt lat="46.0992" lon="7.08329">
        <ele>478.39</ele>
        <time>2012-08-05T12:41:38Z</time>
      </trkpt>
      <trkpt lat="46.09911" lon="7.08337">
        <ele>479.35</ele>
        <time>2012-08-05T12:41:39Z</time>
      </trkpt>
      <trkpt lat="46.09874" lon="7.08369">
        <ele>480.8</ele>
        <time>2012-08-05T12:41:43Z</time>
      </trkpt>
      <trkpt lat="46.09866" lon="7.08373">
        <ele>481.28</ele>
        <time>2012-08-05T12:41:44Z</time>
      </trkpt>
      <trkpt lat="46.09858" lon="7.08373">
        <ele>481.76</ele>
        <time>2012-08-05T12:41:45Z</time>
      </trkpt>
      <trkpt lat="46.09849" lon="7.08367">
        <ele>482.24</ele>
        <time>2012-08-05T12:41:46Z</time>
      </trkpt>
      <trkpt lat="46.09842" lon="7.08357">
        <ele>483.2</ele>
        <time>2012-08-05T12:41:47Z</time>
      </trkpt>
      <trkpt lat="46.09835" lon="7.08343">
        <ele>483.68</ele>
        <time>2012-08-05T12:41:48Z</time>
      </trkpt>
      <trkpt lat="46.09828" lon="7.08328">
        <ele>483.68</ele>
        <time>2012-08-05T12:41:49Z</time>
      </trkpt>
      <trkpt lat="46.09763" lon="7.08202">
        <ele>481.28</ele>
        <time>2012-08-05T12:41:56Z</time>
      </trkpt>
      <trkpt lat="46.09733" lon="7.08144">
        <ele>483.2</ele>
        <time>2012-08-05T12:41:59Z</time>
      </trkpt>
      <trkpt lat="46.0967" lon="7.08048">
        <ele>485.12</ele>
        <time>2012-08-05T12:42:04Z</time>
      </trkpt>
      <trkpt lat="46.09559" lon="7.07913">
        <ele>485.6</ele>
        <time>2012-08-05T12:42:14Z</time>
      </trkpt>
      <trkpt lat="46.09555" lon="7.07909">
        <ele>487.53</ele>
        <time>2012-08-05T12:42:19Z</time>
      </trkpt>
      <trkpt lat="46.09562" lon="7.07917">
        <ele>488.97</ele>
        <time>2012-08-05T12:42:21Z</time>
      </trkpt>
      <trkpt lat="46.09552" lon="7.07908">
        <ele>489.93</ele>
        <time>2012-08-05T12:42:22Z</time>
      </trkpt>
      <trkpt lat="46.09552" lon="7.07908">
        <ele>488.49</ele>
        <time>2012-08-05T12:42:23Z</time>
      </trkpt>
      <trkpt lat="46.09549" lon="7.07905">
        <ele>488.97</ele>
        <time>2012-08-05T12:42:28Z</time>
      </trkpt>
      <trkpt lat="46.09548" lon="7.07904">
        <ele>488.49</ele>
        <time>2012-08-05T12:42:30Z</time>
      </trkpt>
      <trkpt lat="46.09548" lon="7.07903">
        <ele>491.85</ele>
        <time>2012-08-05T12:42:31Z</time>
      </trkpt>
      <trkpt lat="46.09546" lon="7.07902">
        <ele>491.37</ele>
        <time>2012-08-05T12:42:36Z</time>
      </trkpt>
      <trkpt lat="46.09544" lon="7.079">
        <ele>491.37</ele>
        <time>2012-08-05T12:42:40Z</time>
      </trkpt>
      <trkpt lat="46.0955" lon="7.07906">
        <ele>492.33</ele>
        <time>2012-08-05T12:42:41Z</time>
      </trkpt>
      <trkpt lat="46.09543" lon="7.07899">
        <ele>490.89</ele>
        <time>2012-08-05T12:42:44Z</time>
      </trkpt>
      <trkpt lat="46.09545" lon="7.07901">
        <ele>492.81</ele>
        <time>2012-08-05T12:42:46Z</time>
      </trkpt>
      <trkpt lat="46.0954" lon="7.07896">
        <ele>493.29</ele>
        <time>2012-08-05T12:42:53Z</time>
      </trkpt>
      <trkpt lat="46.09547" lon="7.07903">
        <ele>489.45</ele>
        <time>2012-08-05T12:42:55Z</time>
      </trkpt>
      <trkpt lat="46.09539" lon="7.07895">
        <ele>494.26</ele>
        <time>2012-08-05T12:42:56Z</time>
      </trkpt>
      <trkpt lat="46.09542" lon="7.07898">
        <ele>496.18</ele>
        <time>2012-08-05T12:43:01Z</time>
      </trkpt>
      <trkpt lat="46.09536" lon="7.07892">
        <ele>498.58</ele>
        <time>2012-08-05T12:43:06Z</time>
      </trkpt>
      <trkpt lat="46.09536" lon="7.07892">
        <ele>496.66</ele>
        <time>2012-08-05T12:43:07Z</time>
      </trkpt>
      <trkpt lat="46.09537" lon="7.07893">
        <ele>495.7</ele>
        <time>2012-08-05T12:43:08Z</time>
      </trkpt>
      <trkpt lat="46.09535" lon="7.0789">
        <ele>498.1</ele>
        <time>2012-08-05T12:43:12Z</time>
      </trkpt>
      <trkpt lat="46.09533" lon="7.07889">
        <ele>498.1</ele>
        <time>2012-08-05T12:43:16Z</time>
      </trkpt>
      <trkpt lat="46.09532" lon="7.07887">
        <ele>497.14</ele>
        <time>2012-08-05T12:43:19Z</time>
      </trkpt>
      <trkpt lat="46.09532" lon="7.07888">
        <ele>498.1</ele>
        <time>2012-08-05T12:43:21Z</time>
      </trkpt>
      <trkpt lat="46.0953" lon="7.07886">
        <ele>500.5</ele>
        <time>2012-08-05T12:43:23Z</time>
      </trkpt>
      <trkpt lat="46.09529" lon="7.07885">
        <ele>497.62</ele>
        <time>2012-08-05T12:43:25Z</time>
      </trkpt>
      <trkpt lat="46.09533" lon="7.07889">
        <ele>499.06</ele>
        <time>2012-08-05T12:43:26Z</time>
      </trkpt>
      <trkpt lat="46.09526" lon="7.07881">
        <ele>502.43</ele>
        <time>2012-08-05T12:43:29Z</time>
      </trkpt>
      <trkpt lat="46.09526" lon="7.07882">
        <ele>502.91</ele>
        <time>2012-08-05T12:43:31Z</time>
      </trkpt>
      <trkpt lat="46.09525" lon="7.07881">
        <ele>501.46</ele>
        <time>2012-08-05T12:43:33Z</time>
      </trkpt>
      <trkpt lat="46.08905" lon="7.05912">
        <ele>502.91</ele>
        <time>2012-08-05T12:43:38Z</time>
      </trkpt>
      <trkpt lat="46.08916" lon="7.05791">
        <ele>505.31</ele>
        <time>2012-08-05T12:43:43Z</time>
      </trkpt>
      <trkpt lat="46.08914" lon="7.05767">
        <ele>504.83</ele>
        <time>2012-08-05T12:43:44Z</time>
      </trkpt>
      <trkpt lat="46.08911" lon="7.05743">
        <ele>506.27</ele>
        <time>2012-08-05T12:43:45Z</time>
      </trkpt>
      <trkpt lat="46.08907" lon="7.0572">
        <ele>506.27</ele>
        <time>2012-08-05T12:43:46Z</time>
      </trkpt>
      <trkpt lat="46.08902" lon="7.05698">
        <ele>506.75</ele>
        <time>2012-08-05T12:43:47Z</time>
      </trkpt>
      <trkpt lat="46.08896" lon="7.05676">
        <ele>507.23</ele>
        <time>2012-08-05T12:43:48Z</time>
      </trkpt>
      <trkpt lat="46.08888" lon="7.05656">
        <ele>507.23</ele>
        <time>2012-08-05T12:43:49Z</time>
      </trkpt>
      <trkpt lat="46.08879" lon="7.05637">
        <ele>507.71</ele>
        <time>2012-08-05T12:43:50Z</time>
      </trkpt>
      <trkpt lat="46.08871" lon="7.05621">
        <ele>507.23</ele>
        <time>2012-08-05T12:43:51Z</time>
      </trkpt>
      <trkpt lat="46.08862" lon="7.05606">
        <ele>507.71</ele>
        <time>2012-08-05T12:43:52Z</time>
      </trkpt>
      <trkpt lat="46.08831" lon="7.05557">
        <ele>507.23</ele>
        <time>2012-08-05T12:43:57Z</time>
      </trkpt>
      <trkpt lat="46.08827" lon="7.05547">
        <ele>507.71</ele>
        <time>2012-08-05T12:43:58Z</time>
      </trkpt>
      <trkpt lat="46.08824" lon="7.05537">
        <ele>507.23</ele>
        <time>2012-08-05T12:43:59Z</time>
      </trkpt>
      <trkpt lat="46.08825" lon="7.05525">
        <ele>507.71</ele>
        <time>2012-08-05T12:44:00Z</time>
      </trkpt>
      <trkpt lat="46.08828" lon="7.05514">
        <ele>507.71</ele>
        <time>2012-08-05T12:44:01Z</time>
      </trkpt>
      <trkpt lat="46.08834" lon="7.05505">
        <ele>508.19</ele>
        <time>2012-08-05T12:44:02Z</time>
      </trkpt>
      <trkpt lat="46.08843" lon="7.05499">
        <ele>508.19</ele>
        <time>2012-08-05T12:44:03Z</time>
      </trkpt>
      <trkpt lat="46.08855" lon="7.05496">
        <ele>508.67</ele>
        <time>2012-08-05T12:44:04Z</time>
      </trkpt>
      <trkpt lat="46.08868" lon="7.05494">
        <ele>510.12</ele>
        <time>2012-08-05T12:44:05Z</time>
      </trkpt>
      <trkpt lat="46.08882" lon="7.05494">
        <ele>511.08</ele>
        <time>2012-08-05T12:44:06Z</time>
      </trkpt>
      <trkpt lat="46.08911" lon="7.05489">
        <ele>513</ele>
        <time>2012-08-05T12:44:08Z</time>
      </trkpt>
      <trkpt lat="46.08924" lon="7.05482">
        <ele>514.44</ele>
        <time>2012-08-05T12:44:09Z</time>
      </trkpt>
      <trkpt lat="46.08937" lon="7.05471">
        <ele>515.4</ele>
        <time>2012-08-05T12:44:10Z</time>
      </trkpt>
      <trkpt lat="46.08962" lon="7.05449">
        <ele>517.81</ele>
        <time>2012-08-05T12:44:12Z</time>
      </trkpt>
      <trkpt lat="46.08976" lon="7.05441">
        <ele>518.77</ele>
        <time>2012-08-05T12:44:13Z</time>
      </trkpt>
      <trkpt lat="46.08991" lon="7.05436">
        <ele>519.25</ele>
        <time>2012-08-05T12:44:14Z</time>
      </trkpt>
      <trkpt lat="46.09005" lon="7.05437">
        <ele>520.69</ele>
        <time>2012-08-05T12:44:15Z</time>
      </trkpt>
      <trkpt lat="46.0902" lon="7.0544">
        <ele>522.13</ele>
        <time>2012-08-05T12:44:16Z</time>
      </trkpt>
      <trkpt lat="46.09034" lon="7.05445">
        <ele>524.54</ele>
        <time>2012-08-05T12:44:17Z</time>
      </trkpt>
      <trkpt lat="46.09077" lon="7.05464">
        <ele>528.38</ele>
        <time>2012-08-05T12:44:20Z</time>
      </trkpt>
      <trkpt lat="46.09122" lon="7.05483">
        <ele>532.23</ele>
        <time>2012-08-05T12:44:23Z</time>
      </trkpt>
      <trkpt lat="46.09167" lon="7.05511">
        <ele>536.07</ele>
        <time>2012-08-05T12:44:26Z</time>
      </trkpt>
      <trkpt lat="46.09208" lon="7.05553">
        <ele>541.36</ele>
        <time>2012-08-05T12:44:29Z</time>
      </trkpt>
      <trkpt lat="46.09223" lon="7.05565">
        <ele>542.32</ele>
        <time>2012-08-05T12:44:30Z</time>
      </trkpt>
      <trkpt lat="46.09238" lon="7.05575">
        <ele>544.24</ele>
        <time>2012-08-05T12:44:31Z</time>
      </trkpt>
      <trkpt lat="46.09282" lon="7.05607">
        <ele>548.09</ele>
        <time>2012-08-05T12:44:34Z</time>
      </trkpt>
      <trkpt lat="46.09296" lon="7.05621">
        <ele>549.53</ele>
        <time>2012-08-05T12:44:35Z</time>
      </trkpt>
      <trkpt lat="46.09321" lon="7.05652">
        <ele>552.41</ele>
        <time>2012-08-05T12:44:37Z</time>
      </trkpt>
      <trkpt lat="46.0936" lon="7.05698">
        <ele>556.74</ele>
        <time>2012-08-05T12:44:40Z</time>
      </trkpt>
      <trkpt lat="46.09388" lon="7.05725">
        <ele>560.11</ele>
        <time>2012-08-05T12:44:42Z</time>
      </trkpt>
      <trkpt lat="46.09403" lon="7.05735">
        <ele>561.55</ele>
        <time>2012-08-05T12:44:43Z</time>
      </trkpt>
      <trkpt lat="46.09449" lon="7.05763">
        <ele>565.39</ele>
        <time>2012-08-05T12:44:46Z</time>
      </trkpt>
      <trkpt lat="46.09493" lon="7.05792">
        <ele>569.24</ele>
        <time>2012-08-05T12:44:49Z</time>
      </trkpt>
      <trkpt lat="46.09536" lon="7.05827">
        <ele>572.6</ele>
        <time>2012-08-05T12:44:52Z</time>
      </trkpt>
      <trkpt lat="46.0956" lon="7.05853">
        <ele>575.97</ele>
        <time>2012-08-05T12:44:54Z</time>
      </trkpt>
      <trkpt lat="46.09572" lon="7.05867">
        <ele>576.93</ele>
        <time>2012-08-05T12:44:55Z</time>
      </trkpt>
      <trkpt lat="46.09585" lon="7.05879">
        <ele>577.89</ele>
        <time>2012-08-05T12:44:56Z</time>
      </trkpt>
      <trkpt lat="46.09626" lon="7.05908">
        <ele>581.73</ele>
        <time>2012-08-05T12:44:59Z</time>
      </trkpt>
      <trkpt lat="46.09654" lon="7.05926">
        <ele>585.1</ele>
        <time>2012-08-05T12:45:01Z</time>
      </trkpt>
      <trkpt lat="46.09705" lon="7.05954">
        <ele>588.46</ele>
        <time>2012-08-05T12:45:05Z</time>
      </trkpt>
      <trkpt lat="46.09717" lon="7.05955">
        <ele>588.95</ele>
        <time>2012-08-05T12:45:06Z</time>
      </trkpt>
      <trkpt lat="46.09729" lon="7.05953">
        <ele>590.39</ele>
        <time>2012-08-05T12:45:07Z</time>
      </trkpt>
      <trkpt lat="46.0974" lon="7.05948">
        <ele>590.87</ele>
        <time>2012-08-05T12:45:08Z</time>
      </trkpt>
      <trkpt lat="46.09751" lon="7.05944">
        <ele>592.31</ele>
        <time>2012-08-05T12:45:09Z</time>
      </trkpt>
      <trkpt lat="46.09763" lon="7.05942">
        <ele>592.79</ele>
        <time>2012-08-05T12:45:10Z</time>
      </trkpt>
      <trkpt lat="46.09774" lon="7.05944">
        <ele>593.75</ele>
        <time>2012-08-05T12:45:11Z</time>
      </trkpt>
      <trkpt lat="46.09785" lon="7.0595">
        <ele>594.71</ele>
        <time>2012-08-05T12:45:12Z</time>
      </trkpt>
      <trkpt lat="46.09795" lon="7.0596">
        <ele>596.15</ele>
        <time>2012-08-05T12:45:13Z</time>
      </trkpt>
      <trkpt lat="46.09804" lon="7.0597">
        <ele>597.6</ele>
        <time>2012-08-05T12:45:14Z</time>
      </trkpt>
      <trkpt lat="46.09834" lon="7.06002">
        <ele>600.48</ele>
        <time>2012-08-05T12:45:17Z</time>
      </trkpt>
      <trkpt lat="46.09866" lon="7.06033">
        <ele>604.33</ele>
        <time>2012-08-05T12:45:20Z</time>
      </trkpt>
      <trkpt lat="46.09908" lon="7.06074">
        <ele>608.17</ele>
        <time>2012-08-05T12:45:24Z</time>
      </trkpt>
      <trkpt lat="46.09949" lon="7.06112">
        <ele>612.02</ele>
        <time>2012-08-05T12:45:28Z</time>
      </trkpt>
      <trkpt lat="46.09957" lon="7.06122">
        <ele>612.98</ele>
        <time>2012-08-05T12:45:29Z</time>
      </trkpt>
      <trkpt lat="46.09966" lon="7.06134">
        <ele>614.9</ele>
        <time>2012-08-05T12:45:30Z</time>
      </trkpt>
      <trkpt lat="46.09973" lon="7.06147">
        <ele>615.86</ele>
        <time>2012-08-05T12:45:31Z</time>
      </trkpt>
      <trkpt lat="46.09986" lon="7.06173">
        <ele>617.78</ele>
        <time>2012-08-05T12:45:33Z</time>
      </trkpt>
      <trkpt lat="46.09995" lon="7.06184">
        <ele>618.75</ele>
        <time>2012-08-05T12:45:34Z</time>
      </trkpt>
      <trkpt lat="46.10004" lon="7.06193">
        <ele>619.23</ele>
        <time>2012-08-05T12:45:35Z</time>
      </trkpt>
      <trkpt lat="46.10015" lon="7.062">
        <ele>621.15</ele>
        <time>2012-08-05T12:45:36Z</time>
      </trkpt>
      <trkpt lat="46.10027" lon="7.06204">
        <ele>621.63</ele>
        <time>2012-08-05T12:45:37Z</time>
      </trkpt>
      <trkpt lat="46.10039" lon="7.06208">
        <ele>622.59</ele>
        <time>2012-08-05T12:45:38Z</time>
      </trkpt>
      <trkpt lat="46.10075" lon="7.0622">
        <ele>625.96</ele>
        <time>2012-08-05T12:45:41Z</time>
      </trkpt>
      <trkpt lat="46.10111" lon="7.06242">
        <ele>629.8</ele>
        <time>2012-08-05T12:45:44Z</time>
      </trkpt>
      <trkpt lat="46.10122" lon="7.0625">
        <ele>629.8</ele>
        <time>2012-08-05T12:45:45Z</time>
      </trkpt>
      <trkpt lat="46.10145" lon="7.06268">
        <ele>632.68</ele>
        <time>2012-08-05T12:45:47Z</time>
      </trkpt>
      <trkpt lat="46.10179" lon="7.06296">
        <ele>636.05</ele>
        <time>2012-08-05T12:45:50Z</time>
      </trkpt>
      <trkpt lat="46.10214" lon="7.06324">
        <ele>639.89</ele>
        <time>2012-08-05T12:45:53Z</time>
      </trkpt>
      <trkpt lat="46.10249" lon="7.06354">
        <ele>643.26</ele>
        <time>2012-08-05T12:45:56Z</time>
      </trkpt>
      <trkpt lat="46.10284" lon="7.06383">
        <ele>647.1</ele>
        <time>2012-08-05T12:45:59Z</time>
      </trkpt>
      <trkpt lat="46.10333" lon="7.0643">
        <ele>649.99</ele>
        <time>2012-08-05T12:46:05Z</time>
      </trkpt>
      <trkpt lat="46.10342" lon="7.06441">
        <ele>650.95</ele>
        <time>2012-08-05T12:46:07Z</time>
      </trkpt>
      <trkpt lat="46.10348" lon="7.06446">
        <ele>650.95</ele>
        <time>2012-08-05T12:46:08Z</time>
      </trkpt>
      <trkpt lat="46.10353" lon="7.06449">
        <ele>651.91</ele>
        <time>2012-08-05T12:46:09Z</time>
      </trkpt>
      <trkpt lat="46.10359" lon="7.06451">
        <ele>651.91</ele>
        <time>2012-08-05T12:46:10Z</time>
      </trkpt>
      <trkpt lat="46.10364" lon="7.0645">
        <ele>652.39</ele>
        <time>2012-08-05T12:46:11Z</time>
      </trkpt>
      <trkpt lat="46.10368" lon="7.06446">
        <ele>652.87</ele>
        <time>2012-08-05T12:46:12Z</time>
      </trkpt>
      <trkpt lat="46.1037" lon="7.06439">
        <ele>652.87</ele>
        <time>2012-08-05T12:46:13Z</time>
      </trkpt>
      <trkpt lat="46.10368" lon="7.06431">
        <ele>653.35</ele>
        <time>2012-08-05T12:46:14Z</time>
      </trkpt>
      <trkpt lat="46.10364" lon="7.06423">
        <ele>653.83</ele>
        <time>2012-08-05T12:46:15Z</time>
      </trkpt>
      <trkpt lat="46.10357" lon="7.06417">
        <ele>655.76</ele>
        <time>2012-08-05T12:46:16Z</time>
      </trkpt>
      <trkpt lat="46.10348" lon="7.06411">
        <ele>655.76</ele>
        <time>2012-08-05T12:46:17Z</time>
      </trkpt>
      <trkpt lat="46.10338" lon="7.06404">
        <ele>656.72</ele>
        <time>2012-08-05T12:46:18Z</time>
      </trkpt>
      <trkpt lat="46.10328" lon="7.06394">
        <ele>658.16</ele>
        <time>2012-08-05T12:46:19Z</time>
      </trkpt>
      <trkpt lat="46.10319" lon="7.06382">
        <ele>659.12</ele>
        <time>2012-08-05T12:46:20Z</time>
      </trkpt>
      <trkpt lat="46.10281" lon="7.06329">
        <ele>663.93</ele>
        <time>2012-08-05T12:46:24Z</time>
      </trkpt>
      <trkpt lat="46.10245" lon="7.06278">
        <ele>668.73</ele>
        <time>2012-08-05T12:46:28Z</time>
      </trkpt>
      <trkpt lat="46.10216" lon="7.0624">
        <ele>672.1</ele>
        <time>2012-08-05T12:46:31Z</time>
      </trkpt>
      <trkpt lat="46.10193" lon="7.06212">
        <ele>675.46</ele>
        <time>2012-08-05T12:46:33Z</time>
      </trkpt>
      <trkpt lat="46.10168" lon="7.06182">
        <ele>678.35</ele>
        <time>2012-08-05T12:46:35Z</time>
      </trkpt>
      <trkpt lat="46.1013" lon="7.06137">
        <ele>682.67</ele>
        <time>2012-08-05T12:46:38Z</time>
      </trkpt>
      <trkpt lat="46.10092" lon="7.06095">
        <ele>686.04</ele>
        <time>2012-08-05T12:46:41Z</time>
      </trkpt>
      <trkpt lat="46.10058" lon="7.06053">
        <ele>689.4</ele>
        <time>2012-08-05T12:46:44Z</time>
      </trkpt>
      <trkpt lat="46.10048" lon="7.06037">
        <ele>691.33</ele>
        <time>2012-08-05T12:46:45Z</time>
      </trkpt>
      <trkpt lat="46.10039" lon="7.0602">
        <ele>692.29</ele>
        <time>2012-08-05T12:46:46Z</time>
      </trkpt>
      <trkpt lat="46.10019" lon="7.0597">
        <ele>695.17</ele>
        <time>2012-08-05T12:46:49Z</time>
      </trkpt>
      <trkpt lat="46.10001" lon="7.05914">
        <ele>699.02</ele>
        <time>2012-08-05T12:46:52Z</time>
      </trkpt>
      <trkpt lat="46.09992" lon="7.05874">
        <ele>702.38</ele>
        <time>2012-08-05T12:46:54Z</time>
      </trkpt>
      <trkpt lat="46.09976" lon="7.05815">
        <ele>706.71</ele>
        <time>2012-08-05T12:46:57Z</time>
      </trkpt>
      <trkpt lat="46.09968" lon="7.05795">
        <ele>707.67</ele>
        <time>2012-08-05T12:46:58Z</time>
      </trkpt>
      <trkpt lat="46.09959" lon="7.05776">
        <ele>709.59</ele>
        <time>2012-08-05T12:46:59Z</time>
      </trkpt>
      <trkpt lat="46.09948" lon="7.05756">
        <ele>711.03</ele>
        <time>2012-08-05T12:47:00Z</time>
      </trkpt>
      <trkpt lat="46.09924" lon="7.05716">
        <ele>716.32</ele>
        <time>2012-08-05T12:47:02Z</time>
      </trkpt>
      <trkpt lat="46.09895" lon="7.05676">
        <ele>719.68</ele>
        <time>2012-08-05T12:47:04Z</time>
      </trkpt>
      <trkpt lat="46.09866" lon="7.05637">
        <ele>723.53</ele>
        <time>2012-08-05T12:47:06Z</time>
      </trkpt>
      <trkpt lat="46.09837" lon="7.056">
        <ele>726.89</ele>
        <time>2012-08-05T12:47:08Z</time>
      </trkpt>
      <trkpt lat="46.09796" lon="7.05545">
        <ele>731.22</ele>
        <time>2012-08-05T12:47:11Z</time>
      </trkpt>
      <trkpt lat="46.09769" lon="7.05509">
        <ele>735.07</ele>
        <time>2012-08-05T12:47:13Z</time>
      </trkpt>
      <trkpt lat="46.09724" lon="7.05461">
        <ele>737.95</ele>
        <time>2012-08-05T12:47:16Z</time>
      </trkpt>
      <trkpt lat="46.09707" lon="7.0545">
        <ele>740.83</ele>
        <time>2012-08-05T12:47:17Z</time>
      </trkpt>
      <trkpt lat="46.09673" lon="7.05429">
        <ele>744.2</ele>
        <time>2012-08-05T12:47:19Z</time>
      </trkpt>
      <trkpt lat="46.09624" lon="7.05388">
        <ele>749</ele>
        <time>2012-08-05T12:47:22Z</time>
      </trkpt>
      <trkpt lat="46.09574" lon="7.05343">
        <ele>754.29</ele>
        <time>2012-08-05T12:47:25Z</time>
      </trkpt>
      <trkpt lat="46.09541" lon="7.05313">
        <ele>757.66</ele>
        <time>2012-08-05T12:47:27Z</time>
      </trkpt>
      <trkpt lat="46.0951" lon="7.05285">
        <ele>760.54</ele>
        <time>2012-08-05T12:47:29Z</time>
      </trkpt>
      <trkpt lat="46.09461" lon="7.05251">
        <ele>764.87</ele>
        <time>2012-08-05T12:47:32Z</time>
      </trkpt>
      <trkpt lat="46.09413" lon="7.05216">
        <ele>769.67</ele>
        <time>2012-08-05T12:47:35Z</time>
      </trkpt>
      <trkpt lat="46.0937" lon="7.05172">
        <ele>774</ele>
        <time>2012-08-05T12:47:38Z</time>
      </trkpt>
      <trkpt lat="46.09343" lon="7.05138">
        <ele>777.36</ele>
        <time>2012-08-05T12:47:40Z</time>
      </trkpt>
      <trkpt lat="46.09318" lon="7.05103">
        <ele>780.73</ele>
        <time>2012-08-05T12:47:42Z</time>
      </trkpt>
      <trkpt lat="46.09294" lon="7.05065">
        <ele>784.09</ele>
        <time>2012-08-05T12:47:44Z</time>
      </trkpt>
      <trkpt lat="46.0927" lon="7.05027">
        <ele>785.53</ele>
        <time>2012-08-05T12:47:46Z</time>
      </trkpt>
      <trkpt lat="46.09247" lon="7.0499">
        <ele>789.86</ele>
        <time>2012-08-05T12:47:48Z</time>
      </trkpt>
      <trkpt lat="46.09222" lon="7.04957">
        <ele>793.22</ele>
        <time>2012-08-05T12:47:50Z</time>
      </trkpt>
      <trkpt lat="46.09199" lon="7.04928">
        <ele>794.19</ele>
        <time>2012-08-05T12:47:52Z</time>
      </trkpt>
      <trkpt lat="46.09189" lon="7.04913">
        <ele>796.59</ele>
        <time>2012-08-05T12:47:53Z</time>
      </trkpt>
      <trkpt lat="46.09179" lon="7.04896">
        <ele>798.51</ele>
        <time>2012-08-05T12:47:54Z</time>
      </trkpt>
      <trkpt lat="46.09171" lon="7.04877">
        <ele>799.47</ele>
        <time>2012-08-05T12:47:55Z</time>
      </trkpt>
      <trkpt lat="46.09163" lon="7.04857">
        <ele>801.4</ele>
        <time>2012-08-05T12:47:56Z</time>
      </trkpt>
      <trkpt lat="46.09157" lon="7.04835">
        <ele>802.84</ele>
        <time>2012-08-05T12:47:57Z</time>
      </trkpt>
      <trkpt lat="46.09142" lon="7.04791">
        <ele>806.2</ele>
        <time>2012-08-05T12:47:59Z</time>
      </trkpt>
      <trkpt lat="46.09114" lon="7.04731">
        <ele>810.53</ele>
        <time>2012-08-05T12:48:02Z</time>
      </trkpt>
      <trkpt lat="46.09091" lon="7.04694">
        <ele>814.37</ele>
        <time>2012-08-05T12:48:04Z</time>
      </trkpt>
      <trkpt lat="46.09065" lon="7.04659">
        <ele>817.74</ele>
        <time>2012-08-05T12:48:06Z</time>
      </trkpt>
      <trkpt lat="46.09022" lon="7.04611">
        <ele>822.06</ele>
        <time>2012-08-05T12:48:09Z</time>
      </trkpt>
      <trkpt lat="46.08991" lon="7.04585">
        <ele>825.43</ele>
        <time>2012-08-05T12:48:11Z</time>
      </trkpt>
      <trkpt lat="46.08945" lon="7.04554">
        <ele>828.79</ele>
        <time>2012-08-05T12:48:14Z</time>
      </trkpt>
      <trkpt lat="46.0893" lon="7.04549">
        <ele>829.27</ele>
        <time>2012-08-05T12:48:15Z</time>
      </trkpt>
      <trkpt lat="46.08915" lon="7.04544">
        <ele>830.72</ele>
        <time>2012-08-05T12:48:16Z</time>
      </trkpt>
      <trkpt lat="46.08901" lon="7.04537">
        <ele>832.64</ele>
        <time>2012-08-05T12:48:17Z</time>
      </trkpt>
      <trkpt lat="46.08887" lon="7.04526">
        <ele>834.56</ele>
        <time>2012-08-05T12:48:18Z</time>
      </trkpt>
      <trkpt lat="46.08874" lon="7.04514">
        <ele>836.96</ele>
        <time>2012-08-05T12:48:19Z</time>
      </trkpt>
      <trkpt lat="46.0886" lon="7.04501">
        <ele>837.93</ele>
        <time>2012-08-05T12:48:20Z</time>
      </trkpt>
      <trkpt lat="46.08815" lon="7.04459">
        <ele>842.25</ele>
        <time>2012-08-05T12:48:23Z</time>
      </trkpt>
      <trkpt lat="46.08771" lon="7.04417">
        <ele>847.06</ele>
        <time>2012-08-05T12:48:26Z</time>
      </trkpt>
      <trkpt lat="46.08727" lon="7.04373">
        <ele>851.87</ele>
        <time>2012-08-05T12:48:29Z</time>
      </trkpt>
      <trkpt lat="46.08698" lon="7.04342">
        <ele>854.75</ele>
        <time>2012-08-05T12:48:31Z</time>
      </trkpt>
      <trkpt lat="46.08672" lon="7.04308">
        <ele>858.59</ele>
        <time>2012-08-05T12:48:33Z</time>
      </trkpt>
      <trkpt lat="46.08632" lon="7.04258">
        <ele>862.92</ele>
        <time>2012-08-05T12:48:36Z</time>
      </trkpt>
      <trkpt lat="46.08604" lon="7.04225">
        <ele>866.29</ele>
        <time>2012-08-05T12:48:38Z</time>
      </trkpt>
      <trkpt lat="46.08577" lon="7.04188">
        <ele>869.65</ele>
        <time>2012-08-05T12:48:40Z</time>
      </trkpt>
      <trkpt lat="46.08553" lon="7.04146">
        <ele>873.98</ele>
        <time>2012-08-05T12:48:42Z</time>
      </trkpt>
      <trkpt lat="46.08529" lon="7.04105">
        <ele>876.86</ele>
        <time>2012-08-05T12:48:44Z</time>
      </trkpt>
      <trkpt lat="46.08519" lon="7.04086">
        <ele>877.34</ele>
        <time>2012-08-05T12:48:45Z</time>
      </trkpt>
      <trkpt lat="46.08495" lon="7.04037">
        <ele>879.74</ele>
        <time>2012-08-05T12:48:48Z</time>
      </trkpt>
      <trkpt lat="46.08486" lon="7.04025">
        <ele>880.22</ele>
        <time>2012-08-05T12:48:49Z</time>
      </trkpt>
      <trkpt lat="46.08475" lon="7.04016">
        <ele>881.67</ele>
        <time>2012-08-05T12:48:50Z</time>
      </trkpt>
      <trkpt lat="46.08463" lon="7.04012">
        <ele>882.63</ele>
        <time>2012-08-05T12:48:51Z</time>
      </trkpt>
      <trkpt lat="46.08451" lon="7.0401">
        <ele>883.59</ele>
        <time>2012-08-05T12:48:52Z</time>
      </trkpt>
      <trkpt lat="46.08438" lon="7.04011">
        <ele>885.99</ele>
        <time>2012-08-05T12:48:53Z</time>
      </trkpt>
      <trkpt lat="46.08425" lon="7.04012">
        <ele>886.95</ele>
        <time>2012-08-05T12:48:54Z</time>
      </trkpt>
      <trkpt lat="46.08412" lon="7.0401">
        <ele>887.43</ele>
        <time>2012-08-05T12:48:55Z</time>
      </trkpt>
      <trkpt lat="46.084" lon="7.04005">
        <ele>888.4</ele>
        <time>2012-08-05T12:48:56Z</time>
      </trkpt>
      <trkpt lat="46.08388" lon="7.03996">
        <ele>889.84</ele>
        <time>2012-08-05T12:48:57Z</time>
      </trkpt>
      <trkpt lat="46.08354" lon="7.03961">
        <ele>893.68</ele>
        <time>2012-08-05T12:49:00Z</time>
      </trkpt>
      <trkpt lat="46.08331" lon="7.03933">
        <ele>896.57</ele>
        <time>2012-08-05T12:49:02Z</time>
      </trkpt>
      <trkpt lat="46.08309" lon="7.03902">
        <ele>899.93</ele>
        <time>2012-08-05T12:49:04Z</time>
      </trkpt>
      <trkpt lat="46.08287" lon="7.0387">
        <ele>903.3</ele>
        <time>2012-08-05T12:49:06Z</time>
      </trkpt>
      <trkpt lat="46.08252" lon="7.03823">
        <ele>908.1</ele>
        <time>2012-08-05T12:49:09Z</time>
      </trkpt>
      <trkpt lat="46.08217" lon="7.03773">
        <ele>911.47</ele>
        <time>2012-08-05T12:49:12Z</time>
      </trkpt>
      <trkpt lat="46.08187" lon="7.03719">
        <ele>915.79</ele>
        <time>2012-08-05T12:49:15Z</time>
      </trkpt>
      <trkpt lat="46.08176" lon="7.03705">
        <ele>917.24</ele>
        <time>2012-08-05T12:49:16Z</time>
      </trkpt>
      <trkpt lat="46.08164" lon="7.03694">
        <ele>918.68</ele>
        <time>2012-08-05T12:49:17Z</time>
      </trkpt>
      <trkpt lat="46.0815" lon="7.03684">
        <ele>920.12</ele>
        <time>2012-08-05T12:49:18Z</time>
      </trkpt>
      <trkpt lat="46.08137" lon="7.03672">
        <ele>921.56</ele>
        <time>2012-08-05T12:49:19Z</time>
      </trkpt>
      <trkpt lat="46.08126" lon="7.03657">
        <ele>922.52</ele>
        <time>2012-08-05T12:49:20Z</time>
      </trkpt>
      <trkpt lat="46.08115" lon="7.03641">
        <ele>923.96</ele>
        <time>2012-08-05T12:49:21Z</time>
      </trkpt>
      <trkpt lat="46.08106" lon="7.03625">
        <ele>925.41</ele>
        <time>2012-08-05T12:49:22Z</time>
      </trkpt>
      <trkpt lat="46.08097" lon="7.0361">
        <ele>925.41</ele>
        <time>2012-08-05T12:49:23Z</time>
      </trkpt>
      <trkpt lat="46.08091" lon="7.03595">
        <ele>925.89</ele>
        <time>2012-08-05T12:49:24Z</time>
      </trkpt>
      <trkpt lat="46.08088" lon="7.03578">
        <ele>927.33</ele>
        <time>2012-08-05T12:49:25Z</time>
      </trkpt>
      <trkpt lat="46.08087" lon="7.03562">
        <ele>927.81</ele>
        <time>2012-08-05T12:49:26Z</time>
      </trkpt>
      <trkpt lat="46.08091" lon="7.03546">
        <ele>929.25</ele>
        <time>2012-08-05T12:49:27Z</time>
      </trkpt>
      <trkpt lat="46.08097" lon="7.03531">
        <ele>930.69</ele>
        <time>2012-08-05T12:49:28Z</time>
      </trkpt>
      <trkpt lat="46.08105" lon="7.03516">
        <ele>931.65</ele>
        <time>2012-08-05T12:49:29Z</time>
      </trkpt>
      <trkpt lat="46.08111" lon="7.035">
        <ele>933.1</ele>
        <time>2012-08-05T12:49:30Z</time>
      </trkpt>
      <trkpt lat="46.08114" lon="7.03484">
        <ele>934.06</ele>
        <time>2012-08-05T12:49:31Z</time>
      </trkpt>
      <trkpt lat="46.08115" lon="7.03468">
        <ele>935.98</ele>
        <time>2012-08-05T12:49:32Z</time>
      </trkpt>
      <trkpt lat="46.08113" lon="7.0345">
        <ele>937.42</ele>
        <time>2012-08-05T12:49:33Z</time>
      </trkpt>
      <trkpt lat="46.08108" lon="7.03432">
        <ele>939.35</ele>
        <time>2012-08-05T12:49:34Z</time>
      </trkpt>
      <trkpt lat="46.08102" lon="7.03414">
        <ele>940.31</ele>
        <time>2012-08-05T12:49:35Z</time>
      </trkpt>
      <trkpt lat="46.08095" lon="7.03395">
        <ele>941.75</ele>
        <time>2012-08-05T12:49:36Z</time>
      </trkpt>
      <trkpt lat="46.08088" lon="7.03375">
        <ele>943.67</ele>
        <time>2012-08-05T12:49:37Z</time>
      </trkpt>
      <trkpt lat="46.08063" lon="7.03314">
        <ele>947.52</ele>
        <time>2012-08-05T12:49:40Z</time>
      </trkpt>
      <trkpt lat="46.08036" lon="7.03261">
        <ele>951.36</ele>
        <time>2012-08-05T12:49:43Z</time>
      </trkpt>
      <trkpt lat="46.08026" lon="7.03245">
        <ele>952.8</ele>
        <time>2012-08-05T12:49:44Z</time>
      </trkpt>
      <trkpt lat="46.08016" lon="7.03232">
        <ele>952.8</ele>
        <time>2012-08-05T12:49:45Z</time>
      </trkpt>
      <trkpt lat="46.08006" lon="7.03224">
        <ele>953.77</ele>
        <time>2012-08-05T12:49:46Z</time>
      </trkpt>
      <trkpt lat="46.07995" lon="7.03219">
        <ele>953.77</ele>
        <time>2012-08-05T12:49:47Z</time>
      </trkpt>
      <trkpt lat="46.07984" lon="7.03218">
        <ele>955.21</ele>
        <time>2012-08-05T12:49:48Z</time>
      </trkpt>
      <trkpt lat="46.07972" lon="7.03222">
        <ele>956.65</ele>
        <time>2012-08-05T12:49:49Z</time>
      </trkpt>
      <trkpt lat="46.07959" lon="7.03229">
        <ele>958.09</ele>
        <time>2012-08-05T12:49:50Z</time>
      </trkpt>
      <trkpt lat="46.07947" lon="7.03239">
        <ele>959.53</ele>
        <time>2012-08-05T12:49:51Z</time>
      </trkpt>
      <trkpt lat="46.07935" lon="7.03252">
        <ele>960.98</ele>
        <time>2012-08-05T12:49:52Z</time>
      </trkpt>
      <trkpt lat="46.07924" lon="7.03264">
        <ele>961.94</ele>
        <time>2012-08-05T12:49:53Z</time>
      </trkpt>
      <trkpt lat="46.07912" lon="7.03275">
        <ele>963.86</ele>
        <time>2012-08-05T12:49:54Z</time>
      </trkpt>
      <trkpt lat="46.07901" lon="7.03282">
        <ele>964.82</ele>
        <time>2012-08-05T12:49:55Z</time>
      </trkpt>
      <trkpt lat="46.07891" lon="7.03285">
        <ele>964.82</ele>
        <time>2012-08-05T12:49:56Z</time>
      </trkpt>
      <trkpt lat="46.0788" lon="7.03286">
        <ele>965.78</ele>
        <time>2012-08-05T12:49:57Z</time>
      </trkpt>
      <trkpt lat="46.07869" lon="7.03282">
        <ele>967.22</ele>
        <time>2012-08-05T12:49:58Z</time>
      </trkpt>
      <trkpt lat="46.07858" lon="7.03274">
        <ele>969.15</ele>
        <time>2012-08-05T12:49:59Z</time>
      </trkpt>
      <trkpt lat="46.07826" lon="7.0324">
        <ele>972.99</ele>
        <time>2012-08-05T12:50:02Z</time>
      </trkpt>
      <trkpt lat="46.07805" lon="7.03216">
        <ele>975.39</ele>
        <time>2012-08-05T12:50:04Z</time>
      </trkpt>
      <trkpt lat="46.07796" lon="7.03203">
        <ele>975.88</ele>
        <time>2012-08-05T12:50:05Z</time>
      </trkpt>
      <trkpt lat="46.07789" lon="7.03187">
        <ele>977.32</ele>
        <time>2012-08-05T12:50:06Z</time>
      </trkpt>
      <trkpt lat="46.07785" lon="7.03169">
        <ele>978.28</ele>
        <time>2012-08-05T12:50:07Z</time>
      </trkpt>
      <trkpt lat="46.07782" lon="7.0315">
        <ele>980.2</ele>
        <time>2012-08-05T12:50:08Z</time>
      </trkpt>
      <trkpt lat="46.07779" lon="7.03131">
        <ele>982.12</ele>
        <time>2012-08-05T12:50:09Z</time>
      </trkpt>
      <trkpt lat="46.07771" lon="7.03092">
        <ele>984.53</ele>
        <time>2012-08-05T12:50:11Z</time>
      </trkpt>
      <trkpt lat="46.07766" lon="7.03073">
        <ele>985.97</ele>
        <time>2012-08-05T12:50:12Z</time>
      </trkpt>
      <trkpt lat="46.07752" lon="7.03035">
        <ele>988.85</ele>
        <time>2012-08-05T12:50:14Z</time>
      </trkpt>
      <trkpt lat="46.07726" lon="7.02978">
        <ele>993.18</ele>
        <time>2012-08-05T12:50:17Z</time>
      </trkpt>
      <trkpt lat="46.07694" lon="7.02924">
        <ele>997.99</ele>
        <time>2012-08-05T12:50:20Z</time>
      </trkpt>
      <trkpt lat="46.07669" lon="7.02895">
        <ele>1001.35</ele>
        <time>2012-08-05T12:50:22Z</time>
      </trkpt>
      <trkpt lat="46.07655" lon="7.02882">
        <ele>1002.79</ele>
        <time>2012-08-05T12:50:23Z</time>
      </trkpt>
      <trkpt lat="46.0764" lon="7.02872">
        <ele>1003.75</ele>
        <time>2012-08-05T12:50:24Z</time>
      </trkpt>
      <trkpt lat="46.07594" lon="7.02847">
        <ele>1008.08</ele>
        <time>2012-08-05T12:50:27Z</time>
      </trkpt>
      <trkpt lat="46.07578" lon="7.02842">
        <ele>1009.52</ele>
        <time>2012-08-05T12:50:28Z</time>
      </trkpt>
      <trkpt lat="46.07562" lon="7.02841">
        <ele>1010.48</ele>
        <time>2012-08-05T12:50:29Z</time>
      </trkpt>
      <trkpt lat="46.07545" lon="7.02843">
        <ele>1012.41</ele>
        <time>2012-08-05T12:50:30Z</time>
      </trkpt>
      <trkpt lat="46.07529" lon="7.02848">
        <ele>1013.37</ele>
        <time>2012-08-05T12:50:31Z</time>
      </trkpt>
      <trkpt lat="46.07513" lon="7.02853">
        <ele>1015.29</ele>
        <time>2012-08-05T12:50:32Z</time>
      </trkpt>
      <trkpt lat="46.07482" lon="7.02859">
        <ele>1017.69</ele>
        <time>2012-08-05T12:50:34Z</time>
      </trkpt>
      <trkpt lat="46.07466" lon="7.02857">
        <ele>1018.65</ele>
        <time>2012-08-05T12:50:35Z</time>
      </trkpt>
      <trkpt lat="46.07452" lon="7.02852">
        <ele>1020.1</ele>
        <time>2012-08-05T12:50:36Z</time>
      </trkpt>
      <trkpt lat="46.07422" lon="7.02834">
        <ele>1023.94</ele>
        <time>2012-08-05T12:50:38Z</time>
      </trkpt>
      <trkpt lat="46.07378" lon="7.02798">
        <ele>1028.27</ele>
        <time>2012-08-05T12:50:41Z</time>
      </trkpt>
      <trkpt lat="46.07338" lon="7.02754">
        <ele>1033.07</ele>
        <time>2012-08-05T12:50:44Z</time>
      </trkpt>
      <trkpt lat="46.07313" lon="7.02721">
        <ele>1035.96</ele>
        <time>2012-08-05T12:50:46Z</time>
      </trkpt>
      <trkpt lat="46.07279" lon="7.02667">
        <ele>1040.28</ele>
        <time>2012-08-05T12:50:49Z</time>
      </trkpt>
      <trkpt lat="46.07245" lon="7.02619">
        <ele>1043.65</ele>
        <time>2012-08-05T12:50:52Z</time>
      </trkpt>
      <trkpt lat="46.07232" lon="7.02606">
        <ele>1045.09</ele>
        <time>2012-08-05T12:50:53Z</time>
      </trkpt>
      <trkpt lat="46.07218" lon="7.02595">
        <ele>1047.01</ele>
        <time>2012-08-05T12:50:54Z</time>
      </trkpt>
      <trkpt lat="46.07203" lon="7.02588">
        <ele>1047.49</ele>
        <time>2012-08-05T12:50:55Z</time>
      </trkpt>
      <trkpt lat="46.07187" lon="7.02584">
        <ele>1049.42</ele>
        <time>2012-08-05T12:50:56Z</time>
      </trkpt>
      <trkpt lat="46.07171" lon="7.02582">
        <ele>1051.34</ele>
        <time>2012-08-05T12:50:57Z</time>
      </trkpt>
      <trkpt lat="46.07154" lon="7.02582">
        <ele>1052.78</ele>
        <time>2012-08-05T12:50:58Z</time>
      </trkpt>
      <trkpt lat="46.07138" lon="7.02583">
        <ele>1054.22</ele>
        <time>2012-08-05T12:50:59Z</time>
      </trkpt>
      <trkpt lat="46.07094" lon="7.02582">
        <ele>1057.59</ele>
        <time>2012-08-05T12:51:02Z</time>
      </trkpt>
      <trkpt lat="46.07079" lon="7.02579">
        <ele>1058.55</ele>
        <time>2012-08-05T12:51:03Z</time>
      </trkpt>
      <trkpt lat="46.07066" lon="7.02572">
        <ele>1059.99</ele>
        <time>2012-08-05T12:51:04Z</time>
      </trkpt>
      <trkpt lat="46.07029" lon="7.0254">
        <ele>1063.84</ele>
        <time>2012-08-05T12:51:07Z</time>
      </trkpt>
      <trkpt lat="46.07016" lon="7.02529">
        <ele>1065.28</ele>
        <time>2012-08-05T12:51:08Z</time>
      </trkpt>
      <trkpt lat="46.07002" lon="7.02521">
        <ele>1067.2</ele>
        <time>2012-08-05T12:51:09Z</time>
      </trkpt>
      <trkpt lat="46.06986" lon="7.02515">
        <ele>1069.12</ele>
        <time>2012-08-05T12:51:10Z</time>
      </trkpt>
      <trkpt lat="46.06971" lon="7.02513">
        <ele>1070.08</ele>
        <time>2012-08-05T12:51:11Z</time>
      </trkpt>
      <trkpt lat="46.06955" lon="7.02513">
        <ele>1072.01</ele>
        <time>2012-08-05T12:51:12Z</time>
      </trkpt>
      <trkpt lat="46.0694" lon="7.02514">
        <ele>1072.97</ele>
        <time>2012-08-05T12:51:13Z</time>
      </trkpt>
      <trkpt lat="46.06926" lon="7.02517">
        <ele>1073.93</ele>
        <time>2012-08-05T12:51:14Z</time>
      </trkpt>
      <trkpt lat="46.06913" lon="7.02522">
        <ele>1074.41</ele>
        <time>2012-08-05T12:51:15Z</time>
      </trkpt>
      <trkpt lat="46.06903" lon="7.02529">
        <ele>1074.41</ele>
        <time>2012-08-05T12:51:16Z</time>
      </trkpt>
      <trkpt lat="46.06888" lon="7.02539">
        <ele>1074.89</ele>
        <time>2012-08-05T12:51:18Z</time>
      </trkpt>
      <trkpt lat="46.06881" lon="7.0254">
        <ele>1074.89</ele>
        <time>2012-08-05T12:51:19Z</time>
      </trkpt>
      <trkpt lat="46.06875" lon="7.02538">
        <ele>1075.37</ele>
        <time>2012-08-05T12:51:20Z</time>
      </trkpt>
      <trkpt lat="46.06872" lon="7.02531">
        <ele>1075.85</ele>
        <time>2012-08-05T12:51:21Z</time>
      </trkpt>
      <trkpt lat="46.06871" lon="7.02523">
        <ele>1076.81</ele>
        <time>2012-08-05T12:51:22Z</time>
      </trkpt>
      <trkpt lat="46.06874" lon="7.02515">
        <ele>1077.78</ele>
        <time>2012-08-05T12:51:23Z</time>
      </trkpt>
      <trkpt lat="46.0688" lon="7.02509">
        <ele>1078.26</ele>
        <time>2012-08-05T12:51:24Z</time>
      </trkpt>
      <trkpt lat="46.06888" lon="7.02505">
        <ele>1080.18</ele>
        <time>2012-08-05T12:51:25Z</time>
      </trkpt>
      <trkpt lat="46.06898" lon="7.02501">
        <ele>1081.14</ele>
        <time>2012-08-05T12:51:26Z</time>
      </trkpt>
      <trkpt lat="46.06949" lon="7.02485">
        <ele>1084.99</ele>
        <time>2012-08-05T12:51:30Z</time>
      </trkpt>
      <trkpt lat="46.07003" lon="7.02471">
        <ele>1089.31</ele>
        <time>2012-08-05T12:51:34Z</time>
      </trkpt>
      <trkpt lat="46.07017" lon="7.02471">
        <ele>1090.27</ele>
        <time>2012-08-05T12:51:35Z</time>
      </trkpt>
      <trkpt lat="46.07031" lon="7.02474">
        <ele>1091.71</ele>
        <time>2012-08-05T12:51:36Z</time>
      </trkpt>
      <trkpt lat="46.07044" lon="7.0248">
        <ele>1093.16</ele>
        <time>2012-08-05T12:51:37Z</time>
      </trkpt>
      <trkpt lat="46.07057" lon="7.02485">
        <ele>1093.64</ele>
        <time>2012-08-05T12:51:38Z</time>
      </trkpt>
      <trkpt lat="46.0707" lon="7.02489">
        <ele>1095.56</ele>
        <time>2012-08-05T12:51:39Z</time>
      </trkpt>
      <trkpt lat="46.071" lon="7.02497">
        <ele>1098.44</ele>
        <time>2012-08-05T12:51:42Z</time>
      </trkpt>
      <trkpt lat="46.07119" lon="7.02492">
        <ele>1099.4</ele>
        <time>2012-08-05T12:51:43Z</time>
      </trkpt>
      <trkpt lat="46.0715" lon="7.02479">
        <ele>1101.81</ele>
        <time>2012-08-05T12:51:45Z</time>
      </trkpt>
      <trkpt lat="46.07165" lon="7.02478">
        <ele>1103.25</ele>
        <time>2012-08-05T12:51:46Z</time>
      </trkpt>
      <trkpt lat="46.07179" lon="7.0248">
        <ele>1103.73</ele>
        <time>2012-08-05T12:51:47Z</time>
      </trkpt>
      <trkpt lat="46.07439" lon="7.02568">
        <ele>1125.84</ele>
        <time>2012-08-05T12:54:19Z</time>
      </trkpt>
      <trkpt lat="46.07448" lon="7.02565">
        <ele>1126.32</ele>
        <time>2012-08-05T12:54:20Z</time>
      </trkpt>
      <trkpt lat="46.07455" lon="7.02562">
        <ele>1126.8</ele>
        <time>2012-08-05T12:54:21Z</time>
      </trkpt>
      <trkpt lat="46.07467" lon="7.0255">
        <ele>1127.76</ele>
        <time>2012-08-05T12:54:23Z</time>
      </trkpt>
      <trkpt lat="46.07469" lon="7.0254">
        <ele>1127.28</ele>
        <time>2012-08-05T12:54:24Z</time>
      </trkpt>
      <trkpt lat="46.0747" lon="7.0253">
        <ele>1127.76</ele>
        <time>2012-08-05T12:54:25Z</time>
      </trkpt>
      <trkpt lat="46.0747" lon="7.0252">
        <ele>1127.28</ele>
        <time>2012-08-05T12:54:26Z</time>
      </trkpt>
      <trkpt lat="46.07468" lon="7.02503">
        <ele>1128.24</ele>
        <time>2012-08-05T12:54:28Z</time>
      </trkpt>
      <trkpt lat="46.07454" lon="7.02499">
        <ele>1129.21</ele>
        <time>2012-08-05T12:54:29Z</time>
      </trkpt>
      <trkpt lat="46.07449" lon="7.02494">
        <ele>1130.65</ele>
        <time>2012-08-05T12:54:30Z</time>
      </trkpt>
      <trkpt lat="46.07421" lon="7.02484">
        <ele>1132.57</ele>
        <time>2012-08-05T12:54:33Z</time>
      </trkpt>
      <trkpt lat="46.07392" lon="7.02474">
        <ele>1135.45</ele>
        <time>2012-08-05T12:54:35Z</time>
      </trkpt>
      <trkpt lat="46.0738" lon="7.02463">
        <ele>1136.9</ele>
        <time>2012-08-05T12:54:36Z</time>
      </trkpt>
      <trkpt lat="46.0737" lon="7.02449">
        <ele>1137.86</ele>
        <time>2012-08-05T12:54:37Z</time>
      </trkpt>
      <trkpt lat="46.07341" lon="7.02406">
        <ele>1141.22</ele>
        <time>2012-08-05T12:54:40Z</time>
      </trkpt>
      <trkpt lat="46.07331" lon="7.02395">
        <ele>1142.18</ele>
        <time>2012-08-05T12:54:41Z</time>
      </trkpt>
      <trkpt lat="46.0732" lon="7.02386">
        <ele>1143.63</ele>
        <time>2012-08-05T12:54:42Z</time>
      </trkpt>
      <trkpt lat="46.07306" lon="7.0238">
        <ele>1144.59</ele>
        <time>2012-08-05T12:54:43Z</time>
      </trkpt>
      <trkpt lat="46.07293" lon="7.02375">
        <ele>1146.99</ele>
        <time>2012-08-05T12:54:44Z</time>
      </trkpt>
      <trkpt lat="46.07279" lon="7.0237">
        <ele>1148.91</ele>
        <time>2012-08-05T12:54:45Z</time>
      </trkpt>
      <trkpt lat="46.07263" lon="7.02366">
        <ele>1149.87</ele>
        <time>2012-08-05T12:54:46Z</time>
      </trkpt>
      <trkpt lat="46.07246" lon="7.02364">
        <ele>1151.8</ele>
        <time>2012-08-05T12:54:47Z</time>
      </trkpt>
      <trkpt lat="46.07212" lon="7.02359">
        <ele>1155.16</ele>
        <time>2012-08-05T12:54:49Z</time>
      </trkpt>
      <trkpt lat="46.07167" lon="7.02347">
        <ele>1158.05</ele>
        <time>2012-08-05T12:54:52Z</time>
      </trkpt>
      <trkpt lat="46.07153" lon="7.02339">
        <ele>1159.49</ele>
        <time>2012-08-05T12:54:53Z</time>
      </trkpt>
      <trkpt lat="46.07135" lon="7.02322">
        <ele>1162.85</ele>
        <time>2012-08-05T12:54:54Z</time>
      </trkpt>
      <trkpt lat="46.07127" lon="7.02315">
        <ele>1163.81</ele>
        <time>2012-08-05T12:54:55Z</time>
      </trkpt>
      <trkpt lat="46.07099" lon="7.02291">
        <ele>1166.22</ele>
        <time>2012-08-05T12:54:57Z</time>
      </trkpt>
      <trkpt lat="46.07084" lon="7.02278">
        <ele>1167.66</ele>
        <time>2012-08-05T12:54:58Z</time>
      </trkpt>
      <trkpt lat="46.07058" lon="7.02248">
        <ele>1171.02</ele>
        <time>2012-08-05T12:55:00Z</time>
      </trkpt>
      <trkpt lat="46.07023" lon="7.02197">
        <ele>1174.39</ele>
        <time>2012-08-05T12:55:03Z</time>
      </trkpt>
      <trkpt lat="46.06996" lon="7.02161">
        <ele>1178.23</ele>
        <time>2012-08-05T12:55:05Z</time>
      </trkpt>
      <trkpt lat="46.06966" lon="7.02181">
        <ele>1178.23</ele>
        <time>2012-08-05T12:55:06Z</time>
      </trkpt>
      <trkpt lat="46.06926" lon="7.02168">
        <ele>1181.6</ele>
        <time>2012-08-05T12:55:08Z</time>
      </trkpt>
      <trkpt lat="46.0688" lon="7.0213">
        <ele>1185.92</ele>
        <time>2012-08-05T12:55:11Z</time>
      </trkpt>
      <trkpt lat="46.06868" lon="7.02115">
        <ele>1187.37</ele>
        <time>2012-08-05T12:55:12Z</time>
      </trkpt>
      <trkpt lat="46.06832" lon="7.02073">
        <ele>1191.69</ele>
        <time>2012-08-05T12:55:15Z</time>
      </trkpt>
      <trkpt lat="46.06825" lon="7.02066">
        <ele>1193.61</ele>
        <time>2012-08-05T12:55:16Z</time>
      </trkpt>
      <trkpt lat="46.06808" lon="7.02044">
        <ele>1194.58</ele>
        <time>2012-08-05T12:55:17Z</time>
      </trkpt>
      <trkpt lat="46.06791" lon="7.02023">
        <ele>1197.94</ele>
        <time>2012-08-05T12:55:18Z</time>
      </trkpt>
      <trkpt lat="46.06774" lon="7.02003">
        <ele>1200.34</ele>
        <time>2012-08-05T12:55:20Z</time>
      </trkpt>
      <trkpt lat="46.06756" lon="7.01975">
        <ele>1202.75</ele>
        <time>2012-08-05T12:55:22Z</time>
      </trkpt>
      <trkpt lat="46.06747" lon="7.01961">
        <ele>1205.15</ele>
        <time>2012-08-05T12:55:23Z</time>
      </trkpt>
      <trkpt lat="46.06741" lon="7.01945">
        <ele>1205.63</ele>
        <time>2012-08-05T12:55:24Z</time>
      </trkpt>
      <trkpt lat="46.06713" lon="7.01954">
        <ele>1206.59</ele>
        <time>2012-08-05T12:55:25Z</time>
      </trkpt>
      <trkpt lat="46.067" lon="7.01946">
        <ele>1208.03</ele>
        <time>2012-08-05T12:55:26Z</time>
      </trkpt>
      <trkpt lat="46.06628" lon="7.01961">
        <ele>1210.44</ele>
        <time>2012-08-05T12:55:29Z</time>
      </trkpt>
      <trkpt lat="46.06613" lon="7.01957">
        <ele>1212.36</ele>
        <time>2012-08-05T12:55:30Z</time>
      </trkpt>
      <trkpt lat="46.06597" lon="7.01955">
        <ele>1212.84</ele>
        <time>2012-08-05T12:55:31Z</time>
      </trkpt>
      <trkpt lat="46.06556" lon="7.01949">
        <ele>1212.36</ele>
        <time>2012-08-05T12:55:35Z</time>
      </trkpt>
      <trkpt lat="46.06551" lon="7.01944">
        <ele>1212.84</ele>
        <time>2012-08-05T12:55:36Z</time>
      </trkpt>
      <trkpt lat="46.06548" lon="7.01937">
        <ele>1213.32</ele>
        <time>2012-08-05T12:55:37Z</time>
      </trkpt>
      <trkpt lat="46.06547" lon="7.01932">
        <ele>1212.84</ele>
        <time>2012-08-05T12:55:38Z</time>
      </trkpt>
      <trkpt lat="46.0655" lon="7.01928">
        <ele>1213.32</ele>
        <time>2012-08-05T12:55:39Z</time>
      </trkpt>
      <trkpt lat="46.06552" lon="7.01931">
        <ele>1213.32</ele>
        <time>2012-08-05T12:55:40Z</time>
      </trkpt>
      <trkpt lat="46.06559" lon="7.01931">
        <ele>1213.8</ele>
        <time>2012-08-05T12:55:41Z</time>
      </trkpt>
      <trkpt lat="46.06566" lon="7.01935">
        <ele>1214.28</ele>
        <time>2012-08-05T12:55:42Z</time>
      </trkpt>
      <trkpt lat="46.06574" lon="7.0194">
        <ele>1214.76</ele>
        <time>2012-08-05T12:55:43Z</time>
      </trkpt>
      <trkpt lat="46.06611" lon="7.0197">
        <ele>1218.13</ele>
        <time>2012-08-05T12:55:47Z</time>
      </trkpt>
      <trkpt lat="46.06633" lon="7.01984">
        <ele>1221.49</ele>
        <time>2012-08-05T12:55:49Z</time>
      </trkpt>
      <trkpt lat="46.06667" lon="7.01999">
        <ele>1226.3</ele>
        <time>2012-08-05T12:55:52Z</time>
      </trkpt>
      <trkpt lat="46.0668" lon="7.02002">
        <ele>1228.7</ele>
        <time>2012-08-05T12:55:53Z</time>
      </trkpt>
      <trkpt lat="46.06692" lon="7.02004">
        <ele>1233.51</ele>
        <time>2012-08-05T12:55:54Z</time>
      </trkpt>
      <trkpt lat="46.06704" lon="7.02003">
        <ele>1232.07</ele>
        <time>2012-08-05T12:55:55Z</time>
      </trkpt>
      <trkpt lat="46.06739" lon="7.02005">
        <ele>1237.35</ele>
        <time>2012-08-05T12:55:58Z</time>
      </trkpt>
      <trkpt lat="46.06753" lon="7.02002">
        <ele>1237.35</ele>
        <time>2012-08-05T12:55:59Z</time>
      </trkpt>
      <trkpt lat="46.06765" lon="7.02">
        <ele>1234.47</ele>
        <time>2012-08-05T12:56:00Z</time>
      </trkpt>
      <trkpt lat="46.06792" lon="7.01995">
        <ele>1237.83</ele>
        <time>2012-08-05T12:56:02Z</time>
      </trkpt>
      <trkpt lat="46.06852" lon="7.01996">
        <ele>1241.68</ele>
        <time>2012-08-05T12:56:06Z</time>
      </trkpt>
      <trkpt lat="46.06868" lon="7.01999">
        <ele>1242.64</ele>
        <time>2012-08-05T12:56:07Z</time>
      </trkpt>
      <trkpt lat="46.06898" lon="7.02007">
        <ele>1246.01</ele>
        <time>2012-08-05T12:56:09Z</time>
      </trkpt>
      <trkpt lat="46.06913" lon="7.02012">
        <ele>1247.45</ele>
        <time>2012-08-05T12:56:10Z</time>
      </trkpt>
      <trkpt lat="46.06926" lon="7.02019">
        <ele>1247.45</ele>
        <time>2012-08-05T12:56:11Z</time>
      </trkpt>
      <trkpt lat="46.06986" lon="7.02044">
        <ele>1251.29</ele>
        <time>2012-08-05T12:56:15Z</time>
      </trkpt>
      <trkpt lat="46.07034" lon="7.02065">
        <ele>1255.14</ele>
        <time>2012-08-05T12:56:18Z</time>
      </trkpt>
      <trkpt lat="46.0708" lon="7.02086">
        <ele>1258.98</ele>
        <time>2012-08-05T12:56:21Z</time>
      </trkpt>
      <trkpt lat="46.07127" lon="7.02111">
        <ele>1264.75</ele>
        <time>2012-08-05T12:56:24Z</time>
      </trkpt>
      <trkpt lat="46.07173" lon="7.02134">
        <ele>1269.08</ele>
        <time>2012-08-05T12:56:27Z</time>
      </trkpt>
      <trkpt lat="46.0719" lon="7.02137">
        <ele>1271</ele>
        <time>2012-08-05T12:56:28Z</time>
      </trkpt>
      <trkpt lat="46.07208" lon="7.02137">
        <ele>1273.4</ele>
        <time>2012-08-05T12:56:29Z</time>
      </trkpt>
      <trkpt lat="46.07258" lon="7.02135">
        <ele>1279.65</ele>
        <time>2012-08-05T12:56:32Z</time>
      </trkpt>
      <trkpt lat="46.07272" lon="7.02138">
        <ele>1282.06</ele>
        <time>2012-08-05T12:56:33Z</time>
      </trkpt>
      <trkpt lat="46.07285" lon="7.02141">
        <ele>1278.21</ele>
        <time>2012-08-05T12:56:34Z</time>
      </trkpt>
      <trkpt lat="46.07298" lon="7.02142">
        <ele>1279.65</ele>
        <time>2012-08-05T12:56:35Z</time>
      </trkpt>
      <trkpt lat="46.07314" lon="7.02139">
        <ele>1280.61</ele>
        <time>2012-08-05T12:56:36Z</time>
      </trkpt>
      <trkpt lat="46.0733" lon="7.02135">
        <ele>1282.06</ele>
        <time>2012-08-05T12:56:37Z</time>
      </trkpt>
      <trkpt lat="46.07346" lon="7.02131">
        <ele>1281.57</ele>
        <time>2012-08-05T12:56:38Z</time>
      </trkpt>
      <trkpt lat="46.07375" lon="7.02127">
        <ele>1286.86</ele>
        <time>2012-08-05T12:56:40Z</time>
      </trkpt>
      <trkpt lat="46.07402" lon="7.02122">
        <ele>1288.78</ele>
        <time>2012-08-05T12:56:42Z</time>
      </trkpt>
      <trkpt lat="46.07435" lon="7.02123">
        <ele>1292.15</ele>
        <time>2012-08-05T12:56:45Z</time>
      </trkpt>
      <trkpt lat="46.07446" lon="7.02121">
        <ele>1292.63</ele>
        <time>2012-08-05T12:56:46Z</time>
      </trkpt>
      <trkpt lat="46.07456" lon="7.02113">
        <ele>1293.59</ele>
        <time>2012-08-05T12:56:47Z</time>
      </trkpt>
      <trkpt lat="46.07486" lon="7.02082">
        <ele>1296.48</ele>
        <time>2012-08-05T12:56:50Z</time>
      </trkpt>
      <trkpt lat="46.07495" lon="7.02078">
        <ele>1297.44</ele>
        <time>2012-08-05T12:56:51Z</time>
      </trkpt>
      <trkpt lat="46.07519" lon="7.02065">
        <ele>1296.96</ele>
        <time>2012-08-05T12:56:54Z</time>
      </trkpt>
      <trkpt lat="46.07526" lon="7.02059">
        <ele>1296.96</ele>
        <time>2012-08-05T12:56:55Z</time>
      </trkpt>
      <trkpt lat="46.07532" lon="7.0205">
        <ele>1296.48</ele>
        <time>2012-08-05T12:56:56Z</time>
      </trkpt>
      <trkpt lat="46.07535" lon="7.0204">
        <ele>1297.44</ele>
        <time>2012-08-05T12:56:57Z</time>
      </trkpt>
      <trkpt lat="46.07536" lon="7.02028">
        <ele>1297.44</ele>
        <time>2012-08-05T12:56:58Z</time>
      </trkpt>
      <trkpt lat="46.07537" lon="7.02005">
        <ele>1297.44</ele>
        <time>2012-08-05T12:57:00Z</time>
      </trkpt>
      <trkpt lat="46.0754" lon="7.01996">
        <ele>1298.88</ele>
        <time>2012-08-05T12:57:01Z</time>
      </trkpt>
      <trkpt lat="46.07541" lon="7.01989">
        <ele>1299.36</ele>
        <time>2012-08-05T12:57:02Z</time>
      </trkpt>
      <trkpt lat="46.07547" lon="7.01982">
        <ele>1301.28</ele>
        <time>2012-08-05T12:57:05Z</time>
      </trkpt>
      <trkpt lat="46.07547" lon="7.01979">
        <ele>1301.76</ele>
        <time>2012-08-05T12:57:06Z</time>
      </trkpt>
      <trkpt lat="46.07544" lon="7.01969">
        <ele>1304.65</ele>
        <time>2012-08-05T12:57:08Z</time>
      </trkpt>
      <trkpt lat="46.07542" lon="7.01961">
        <ele>1306.57</ele>
        <time>2012-08-05T12:57:10Z</time>
      </trkpt>
      <trkpt lat="46.07524" lon="7.01955">
        <ele>1309.45</ele>
        <time>2012-08-05T12:57:12Z</time>
      </trkpt>
      <trkpt lat="46.07501" lon="7.01953">
        <ele>1311.38</ele>
        <time>2012-08-05T12:57:14Z</time>
      </trkpt>
      <trkpt lat="46.07484" lon="7.01952">
        <ele>1311.86</ele>
        <time>2012-08-05T12:57:15Z</time>
      </trkpt>
      <trkpt lat="46.07476" lon="7.01941">
        <ele>1314.26</ele>
        <time>2012-08-05T12:57:16Z</time>
      </trkpt>
      <trkpt lat="46.07402" lon="7.01983">
        <ele>1317.62</ele>
        <time>2012-08-05T12:57:18Z</time>
      </trkpt>
      <trkpt lat="46.07364" lon="7.0199">
        <ele>1320.03</ele>
        <time>2012-08-05T12:57:20Z</time>
      </trkpt>
      <trkpt lat="46.07328" lon="7.0199">
        <ele>1323.87</ele>
        <time>2012-08-05T12:57:22Z</time>
      </trkpt>
      <trkpt lat="46.07312" lon="7.01986">
        <ele>1326.76</ele>
        <time>2012-08-05T12:57:23Z</time>
      </trkpt>
      <trkpt lat="46.07296" lon="7.01982">
        <ele>1329.16</ele>
        <time>2012-08-05T12:57:24Z</time>
      </trkpt>
      <trkpt lat="46.07283" lon="7.01975">
        <ele>1331.08</ele>
        <time>2012-08-05T12:57:25Z</time>
      </trkpt>
      <trkpt lat="46.0727" lon="7.01965">
        <ele>1332.04</ele>
        <time>2012-08-05T12:57:26Z</time>
      </trkpt>
      <trkpt lat="46.07245" lon="7.01965">
        <ele>1333.01</ele>
        <time>2012-08-05T12:57:27Z</time>
      </trkpt>
      <trkpt lat="46.07179" lon="7.01928">
        <ele>1337.33</ele>
        <time>2012-08-05T12:57:31Z</time>
      </trkpt>
      <trkpt lat="46.07145" lon="7.01908">
        <ele>1340.7</ele>
        <time>2012-08-05T12:57:33Z</time>
      </trkpt>
      <trkpt lat="46.0713" lon="7.01897">
        <ele>1341.66</ele>
        <time>2012-08-05T12:57:34Z</time>
      </trkpt>
      <trkpt lat="46.07117" lon="7.01882">
        <ele>1342.62</ele>
        <time>2012-08-05T12:57:35Z</time>
      </trkpt>
      <trkpt lat="46.07079" lon="7.01835">
        <ele>1345.98</ele>
        <time>2012-08-05T12:57:38Z</time>
      </trkpt>
      <trkpt lat="46.07068" lon="7.01817">
        <ele>1346.46</ele>
        <time>2012-08-05T12:57:39Z</time>
      </trkpt>
      <trkpt lat="46.0706" lon="7.01798">
        <ele>1347.43</ele>
        <time>2012-08-05T12:57:40Z</time>
      </trkpt>
      <trkpt lat="46.07053" lon="7.01776">
        <ele>1349.83</ele>
        <time>2012-08-05T12:57:41Z</time>
      </trkpt>
      <trkpt lat="46.07049" lon="7.01752">
        <ele>1351.27</ele>
        <time>2012-08-05T12:57:42Z</time>
      </trkpt>
      <trkpt lat="46.07046" lon="7.01728">
        <ele>1353.19</ele>
        <time>2012-08-05T12:57:43Z</time>
      </trkpt>
      <trkpt lat="46.07043" lon="7.01713">
        <ele>1355.12</ele>
        <time>2012-08-05T12:57:44Z</time>
      </trkpt>
      <trkpt lat="46.07045" lon="7.01687">
        <ele>1356.56</ele>
        <time>2012-08-05T12:57:45Z</time>
      </trkpt>
      <trkpt lat="46.06985" lon="7.01715">
        <ele>1357.52</ele>
        <time>2012-08-05T12:57:46Z</time>
      </trkpt>
      <trkpt lat="46.06933" lon="7.01717">
        <ele>1361.36</ele>
        <time>2012-08-05T12:57:48Z</time>
      </trkpt>
      <trkpt lat="46.06902" lon="7.0169">
        <ele>1364.25</ele>
        <time>2012-08-05T12:57:50Z</time>
      </trkpt>
      <trkpt lat="46.06875" lon="7.01657">
        <ele>1366.65</ele>
        <time>2012-08-05T12:57:52Z</time>
      </trkpt>
      <trkpt lat="46.06865" lon="7.01638">
        <ele>1368.09</ele>
        <time>2012-08-05T12:57:53Z</time>
      </trkpt>
      <trkpt lat="46.06859" lon="7.01616">
        <ele>1369.05</ele>
        <time>2012-08-05T12:57:54Z</time>
      </trkpt>
      <trkpt lat="46.06855" lon="7.01602">
        <ele>1370.5</ele>
        <time>2012-08-05T12:57:55Z</time>
      </trkpt>
      <trkpt lat="46.06853" lon="7.01568">
        <ele>1372.9</ele>
        <time>2012-08-05T12:57:56Z</time>
      </trkpt>
      <trkpt lat="46.06852" lon="7.01544">
        <ele>1375.78</ele>
        <time>2012-08-05T12:57:57Z</time>
      </trkpt>
      <trkpt lat="46.06809" lon="7.01568">
        <ele>1376.75</ele>
        <time>2012-08-05T12:57:58Z</time>
      </trkpt>
      <trkpt lat="46.06799" lon="7.01554">
        <ele>1377.71</ele>
        <time>2012-08-05T12:57:59Z</time>
      </trkpt>
      <trkpt lat="46.06789" lon="7.0154">
        <ele>1381.07</ele>
        <time>2012-08-05T12:58:00Z</time>
      </trkpt>
      <trkpt lat="46.0674" lon="7.01571">
        <ele>1383.96</ele>
        <time>2012-08-05T12:58:01Z</time>
      </trkpt>
      <trkpt lat="46.06682" lon="7.01533">
        <ele>1386.84</ele>
        <time>2012-08-05T12:58:05Z</time>
      </trkpt>
      <trkpt lat="46.06656" lon="7.01507">
        <ele>1390.2</ele>
        <time>2012-08-05T12:58:07Z</time>
      </trkpt>
      <trkpt lat="46.06637" lon="7.01489">
        <ele>1392.61</ele>
        <time>2012-08-05T12:58:08Z</time>
      </trkpt>
      <trkpt lat="46.06617" lon="7.01466">
        <ele>1396.45</ele>
        <time>2012-08-05T12:58:10Z</time>
      </trkpt>
      <trkpt lat="46.06577" lon="7.01425">
        <ele>1399.82</ele>
        <time>2012-08-05T12:58:12Z</time>
      </trkpt>
      <trkpt lat="46.06515" lon="7.01356">
        <ele>1406.07</ele>
        <time>2012-08-05T12:58:16Z</time>
      </trkpt>
      <trkpt lat="46.06499" lon="7.01339">
        <ele>1406.07</ele>
        <time>2012-08-05T12:58:17Z</time>
      </trkpt>
      <trkpt lat="46.06484" lon="7.01322">
        <ele>1409.43</ele>
        <time>2012-08-05T12:58:18Z</time>
      </trkpt>
      <trkpt lat="46.06457" lon="7.01287">
        <ele>1410.39</ele>
        <time>2012-08-05T12:58:20Z</time>
      </trkpt>
      <trkpt lat="46.06417" lon="7.01235">
        <ele>1414.72</ele>
        <time>2012-08-05T12:58:23Z</time>
      </trkpt>
      <trkpt lat="46.06378" lon="7.01181">
        <ele>1419.52</ele>
        <time>2012-08-05T12:58:26Z</time>
      </trkpt>
      <trkpt lat="46.06364" lon="7.01164">
        <ele>1419.52</ele>
        <time>2012-08-05T12:58:27Z</time>
      </trkpt>
      <trkpt lat="46.06324" lon="7.01112">
        <ele>1423.37</ele>
        <time>2012-08-05T12:58:30Z</time>
      </trkpt>
      <trkpt lat="46.06296" lon="7.01079">
        <ele>1427.7</ele>
        <time>2012-08-05T12:58:32Z</time>
      </trkpt>
      <trkpt lat="46.06268" lon="7.01045">
        <ele>1432.98</ele>
        <time>2012-08-05T12:58:34Z</time>
      </trkpt>
      <trkpt lat="46.06217" lon="7.00972">
        <ele>1436.83</ele>
        <time>2012-08-05T12:58:38Z</time>
      </trkpt>
      <trkpt lat="46.0618" lon="7.00915">
        <ele>1440.67</ele>
        <time>2012-08-05T12:58:41Z</time>
      </trkpt>
      <trkpt lat="46.06158" lon="7.00875">
        <ele>1445.48</ele>
        <time>2012-08-05T12:58:43Z</time>
      </trkpt>
      <trkpt lat="46.06119" lon="7.00801">
        <ele>1450.77</ele>
        <time>2012-08-05T12:58:47Z</time>
      </trkpt>
      <trkpt lat="46.06101" lon="7.00763">
        <ele>1455.57</ele>
        <time>2012-08-05T12:58:49Z</time>
      </trkpt>
      <trkpt lat="46.06076" lon="7.00702">
        <ele>1459.42</ele>
        <time>2012-08-05T12:58:52Z</time>
      </trkpt>
      <trkpt lat="46.06056" lon="7.00639">
        <ele>1464.71</ele>
        <time>2012-08-05T12:58:55Z</time>
      </trkpt>
      <trkpt lat="46.06051" lon="7.00618">
        <ele>1464.23</ele>
        <time>2012-08-05T12:58:56Z</time>
      </trkpt>
      <trkpt lat="46.0602" lon="7.00489">
        <ele>1467.59</ele>
        <time>2012-08-05T12:59:02Z</time>
      </trkpt>
      <trkpt lat="46.05998" lon="7.00421">
        <ele>1472.88</ele>
        <time>2012-08-05T12:59:05Z</time>
      </trkpt>
      <trkpt lat="46.05959" lon="7.00335">
        <ele>1476.72</ele>
        <time>2012-08-05T12:59:09Z</time>
      </trkpt>
      <trkpt lat="46.05936" lon="7.00294">
        <ele>1481.53</ele>
        <time>2012-08-05T12:59:11Z</time>
      </trkpt>
      <trkpt lat="46.05913" lon="7.00253">
        <ele>1485.37</ele>
        <time>2012-08-05T12:59:13Z</time>
      </trkpt>
      <trkpt lat="46.05891" lon="7.00217">
        <ele>1486.34</ele>
        <time>2012-08-05T12:59:15Z</time>
      </trkpt>
      <trkpt lat="46.05867" lon="7.00184">
        <ele>1489.7</ele>
        <time>2012-08-05T12:59:17Z</time>
      </trkpt>
      <trkpt lat="46.05853" lon="7.0017">
        <ele>1489.7</ele>
        <time>2012-08-05T12:59:18Z</time>
      </trkpt>
      <trkpt lat="46.05839" lon="7.00158">
        <ele>1491.14</ele>
        <time>2012-08-05T12:59:19Z</time>
      </trkpt>
      <trkpt lat="46.05826" lon="7.00148">
        <ele>1491.62</ele>
        <time>2012-08-05T12:59:20Z</time>
      </trkpt>
      <trkpt lat="46.05798" lon="7.00133">
        <ele>1493.06</ele>
        <time>2012-08-05T12:59:22Z</time>
      </trkpt>
      <trkpt lat="46.05787" lon="7.00127">
        <ele>1496.43</ele>
        <time>2012-08-05T12:59:23Z</time>
      </trkpt>
      <trkpt lat="46.0578" lon="7.00123">
        <ele>1494.99</ele>
        <time>2012-08-05T12:59:24Z</time>
      </trkpt>
      <trkpt lat="46.05774" lon="7.00118">
        <ele>1494.51</ele>
        <time>2012-08-05T12:59:25Z</time>
      </trkpt>
      <trkpt lat="46.0577" lon="7.00111">
        <ele>1496.91</ele>
        <time>2012-08-05T12:59:26Z</time>
      </trkpt>
      <trkpt lat="46.05767" lon="7.00104">
        <ele>1496.91</ele>
        <time>2012-08-05T12:59:27Z</time>
      </trkpt>
      <trkpt lat="46.05766" lon="7.00097">
        <ele>1496.43</ele>
        <time>2012-08-05T12:59:28Z</time>
      </trkpt>
      <trkpt lat="46.05766" lon="7.0009">
        <ele>1495.95</ele>
        <time>2012-08-05T12:59:29Z</time>
      </trkpt>
      <trkpt lat="46.05768" lon="7.00081">
        <ele>1494.03</ele>
        <time>2012-08-05T12:59:30Z</time>
      </trkpt>
      <trkpt lat="46.05771" lon="7.00071">
        <ele>1492.58</ele>
        <time>2012-08-05T12:59:31Z</time>
      </trkpt>
      <trkpt lat="46.05776" lon="7.0006">
        <ele>1492.1</ele>
        <time>2012-08-05T12:59:32Z</time>
      </trkpt>
      <trkpt lat="46.05782" lon="7.00048">
        <ele>1491.14</ele>
        <time>2012-08-05T12:59:33Z</time>
      </trkpt>
      <trkpt lat="46.05797" lon="7.00013">
        <ele>1487.3</ele>
        <time>2012-08-05T12:59:36Z</time>
      </trkpt>
      <trkpt lat="46.05812" lon="6.99982">
        <ele>1483.93</ele>
        <time>2012-08-05T12:59:39Z</time>
      </trkpt>
      <trkpt lat="46.05823" lon="6.99955">
        <ele>1482.01</ele>
        <time>2012-08-05T12:59:42Z</time>
      </trkpt>
      <trkpt lat="46.05824" lon="6.99948">
        <ele>1481.05</ele>
        <time>2012-08-05T12:59:43Z</time>
      </trkpt>
      <trkpt lat="46.05822" lon="6.99941">
        <ele>1480.57</ele>
        <time>2012-08-05T12:59:44Z</time>
      </trkpt>
      <trkpt lat="46.05819" lon="6.99936">
        <ele>1480.09</ele>
        <time>2012-08-05T12:59:45Z</time>
      </trkpt>
      <trkpt lat="46.05813" lon="6.99934">
        <ele>1479.61</ele>
        <time>2012-08-05T12:59:46Z</time>
      </trkpt>
      <trkpt lat="46.05808" lon="6.99938">
        <ele>1480.57</ele>
        <time>2012-08-05T12:59:47Z</time>
      </trkpt>
      <trkpt lat="46.05802" lon="6.99945">
        <ele>1480.09</ele>
        <time>2012-08-05T12:59:48Z</time>
      </trkpt>
      <trkpt lat="46.05794" lon="6.99954">
        <ele>1479.61</ele>
        <time>2012-08-05T12:59:49Z</time>
      </trkpt>
      <trkpt lat="46.05783" lon="6.99963">
        <ele>1478.65</ele>
        <time>2012-08-05T12:59:50Z</time>
      </trkpt>
      <trkpt lat="46.05771" lon="6.99968">
        <ele>1479.13</ele>
        <time>2012-08-05T12:59:51Z</time>
      </trkpt>
      <trkpt lat="46.05757" lon="6.99971">
        <ele>1479.13</ele>
        <time>2012-08-05T12:59:52Z</time>
      </trkpt>
      <trkpt lat="46.05743" lon="6.99972">
        <ele>1477.2</ele>
        <time>2012-08-05T12:59:53Z</time>
      </trkpt>
      <trkpt lat="46.05684" lon="6.99974">
        <ele>1473.36</ele>
        <time>2012-08-05T12:59:57Z</time>
      </trkpt>
      <trkpt lat="46.05654" lon="6.99976">
        <ele>1469.99</ele>
        <time>2012-08-05T12:59:59Z</time>
      </trkpt>
      <trkpt lat="46.05607" lon="6.99981">
        <ele>1467.59</ele>
        <time>2012-08-05T13:00:02Z</time>
      </trkpt>
      <trkpt lat="46.05579" lon="6.99983">
        <ele>1463.74</ele>
        <time>2012-08-05T13:00:04Z</time>
      </trkpt>
      <trkpt lat="46.05564" lon="6.99983">
        <ele>1464.71</ele>
        <time>2012-08-05T13:00:05Z</time>
      </trkpt>
      <trkpt lat="46.05523" lon="6.99982">
        <ele>1462.78</ele>
        <time>2012-08-05T13:00:08Z</time>
      </trkpt>
      <trkpt lat="46.05508" lon="6.99984">
        <ele>1462.78</ele>
        <time>2012-08-05T13:00:09Z</time>
      </trkpt>
      <trkpt lat="46.05478" lon="6.99991">
        <ele>1457.02</ele>
        <time>2012-08-05T13:00:11Z</time>
      </trkpt>
      <trkpt lat="46.05448" lon="6.99992">
        <ele>1454.13</ele>
        <time>2012-08-05T13:00:13Z</time>
      </trkpt>
      <trkpt lat="46.05418" lon="6.99987">
        <ele>1449.32</ele>
        <time>2012-08-05T13:00:15Z</time>
      </trkpt>
      <trkpt lat="46.05403" lon="6.99983">
        <ele>1449.81</ele>
        <time>2012-08-05T13:00:16Z</time>
      </trkpt>
      <trkpt lat="46.05362" lon="6.99971">
        <ele>1445.96</ele>
        <time>2012-08-05T13:00:19Z</time>
      </trkpt>
      <trkpt lat="46.0535" lon="6.99966">
        <ele>1444.52</ele>
        <time>2012-08-05T13:00:20Z</time>
      </trkpt>
      <trkpt lat="46.05339" lon="6.99962">
        <ele>1442.6</ele>
        <time>2012-08-05T13:00:21Z</time>
      </trkpt>
      <trkpt lat="46.05326" lon="6.99959">
        <ele>1442.11</ele>
        <time>2012-08-05T13:00:22Z</time>
      </trkpt>
      <trkpt lat="46.05313" lon="6.99958">
        <ele>1441.15</ele>
        <time>2012-08-05T13:00:23Z</time>
      </trkpt>
      <trkpt lat="46.053" lon="6.99959">
        <ele>1441.15</ele>
        <time>2012-08-05T13:00:24Z</time>
      </trkpt>
      <trkpt lat="46.05285" lon="6.99961">
        <ele>1439.71</ele>
        <time>2012-08-05T13:00:25Z</time>
      </trkpt>
      <trkpt lat="46.05256" lon="6.99963">
        <ele>1436.35</ele>
        <time>2012-08-05T13:00:27Z</time>
      </trkpt>
      <trkpt lat="46.05225" lon="6.9996">
        <ele>1432.98</ele>
        <time>2012-08-05T13:00:29Z</time>
      </trkpt>
      <trkpt lat="46.05181" lon="6.99945">
        <ele>1428.66</ele>
        <time>2012-08-05T13:00:32Z</time>
      </trkpt>
      <trkpt lat="46.05152" lon="6.99928">
        <ele>1425.29</ele>
        <time>2012-08-05T13:00:34Z</time>
      </trkpt>
      <trkpt lat="46.05126" lon="6.99907">
        <ele>1422.41</ele>
        <time>2012-08-05T13:00:36Z</time>
      </trkpt>
      <trkpt lat="46.05116" lon="6.99897">
        <ele>1420.49</ele>
        <time>2012-08-05T13:00:37Z</time>
      </trkpt>
      <trkpt lat="46.05106" lon="6.99888">
        <ele>1419.04</ele>
        <time>2012-08-05T13:00:38Z</time>
      </trkpt>
      <trkpt lat="46.05095" lon="6.99883">
        <ele>1418.08</ele>
        <time>2012-08-05T13:00:39Z</time>
      </trkpt>
      <trkpt lat="46.05084" lon="6.99879">
        <ele>1417.6</ele>
        <time>2012-08-05T13:00:40Z</time>
      </trkpt>
      <trkpt lat="46.05063" lon="6.99879">
        <ele>1415.68</ele>
        <time>2012-08-05T13:00:42Z</time>
      </trkpt>
      <trkpt lat="46.05039" lon="6.99885">
        <ele>1413.76</ele>
        <time>2012-08-05T13:00:44Z</time>
      </trkpt>
      <trkpt lat="46.05027" lon="6.99884">
        <ele>1412.79</ele>
        <time>2012-08-05T13:00:45Z</time>
      </trkpt>
      <trkpt lat="46.05017" lon="6.99881">
        <ele>1410.87</ele>
        <time>2012-08-05T13:00:46Z</time>
      </trkpt>
      <trkpt lat="46.05006" lon="6.99869">
        <ele>1409.43</ele>
        <time>2012-08-05T13:00:47Z</time>
      </trkpt>
      <trkpt lat="46.04989" lon="6.99849">
        <ele>1407.99</ele>
        <time>2012-08-05T13:00:49Z</time>
      </trkpt>
      <trkpt lat="46.04979" lon="6.99843">
        <ele>1407.51</ele>
        <time>2012-08-05T13:00:50Z</time>
      </trkpt>
      <trkpt lat="46.04969" lon="6.9984">
        <ele>1407.03</ele>
        <time>2012-08-05T13:00:51Z</time>
      </trkpt>
      <trkpt lat="46.04958" lon="6.99842">
        <ele>1406.07</ele>
        <time>2012-08-05T13:00:52Z</time>
      </trkpt>
      <trkpt lat="46.04934" lon="6.9985">
        <ele>1404.62</ele>
        <time>2012-08-05T13:00:54Z</time>
      </trkpt>
      <trkpt lat="46.0492" lon="6.9985">
        <ele>1403.66</ele>
        <time>2012-08-05T13:00:55Z</time>
      </trkpt>
      <trkpt lat="46.04906" lon="6.99846">
        <ele>1402.7</ele>
        <time>2012-08-05T13:00:56Z</time>
      </trkpt>
      <trkpt lat="46.04884" lon="6.99836">
        <ele>1400.78</ele>
        <time>2012-08-05T13:00:57Z</time>
      </trkpt>
      <trkpt lat="46.0483" lon="6.99813">
        <ele>1397.41</ele>
        <time>2012-08-05T13:01:01Z</time>
      </trkpt>
      <trkpt lat="46.04808" lon="6.99805">
        <ele>1395.97</ele>
        <time>2012-08-05T13:01:02Z</time>
      </trkpt>
      <trkpt lat="46.04791" lon="6.99799">
        <ele>1393.57</ele>
        <time>2012-08-05T13:01:03Z</time>
      </trkpt>
      <trkpt lat="46.04775" lon="6.99792">
        <ele>1391.65</ele>
        <time>2012-08-05T13:01:04Z</time>
      </trkpt>
      <trkpt lat="46.0476" lon="6.99785">
        <ele>1390.2</ele>
        <time>2012-08-05T13:01:05Z</time>
      </trkpt>
      <trkpt lat="46.04728" lon="6.99774">
        <ele>1387.8</ele>
        <time>2012-08-05T13:01:07Z</time>
      </trkpt>
      <trkpt lat="46.04706" lon="6.99768">
        <ele>1384.44</ele>
        <time>2012-08-05T13:01:08Z</time>
      </trkpt>
      <trkpt lat="46.04684" lon="6.99763">
        <ele>1382.03</ele>
        <time>2012-08-05T13:01:10Z</time>
      </trkpt>
      <trkpt lat="46.04669" lon="6.99761">
        <ele>1380.59</ele>
        <time>2012-08-05T13:01:11Z</time>
      </trkpt>
      <trkpt lat="46.04636" lon="6.99757">
        <ele>1377.71</ele>
        <time>2012-08-05T13:01:13Z</time>
      </trkpt>
      <trkpt lat="46.04626" lon="6.99756">
        <ele>1376.26</ele>
        <time>2012-08-05T13:01:14Z</time>
      </trkpt>
      <trkpt lat="46.04613" lon="6.99755">
        <ele>1374.82</ele>
        <time>2012-08-05T13:01:15Z</time>
      </trkpt>
      <trkpt lat="46.04588" lon="6.99756">
        <ele>1372.42</ele>
        <time>2012-08-05T13:01:17Z</time>
      </trkpt>
      <trkpt lat="46.04571" lon="6.99759">
        <ele>1370.02</ele>
        <time>2012-08-05T13:01:19Z</time>
      </trkpt>
      <trkpt lat="46.04537" lon="6.99766">
        <ele>1366.17</ele>
        <time>2012-08-05T13:01:22Z</time>
      </trkpt>
      <trkpt lat="46.04529" lon="6.99764">
        <ele>1365.21</ele>
        <time>2012-08-05T13:01:23Z</time>
      </trkpt>
      <trkpt lat="46.04523" lon="6.99758">
        <ele>1364.73</ele>
        <time>2012-08-05T13:01:24Z</time>
      </trkpt>
      <trkpt lat="46.04525" lon="6.99737">
        <ele>1363.77</ele>
        <time>2012-08-05T13:01:27Z</time>
      </trkpt>
      <trkpt lat="46.04531" lon="6.99734">
        <ele>1363.29</ele>
        <time>2012-08-05T13:01:28Z</time>
      </trkpt>
      <trkpt lat="46.04538" lon="6.99734">
        <ele>1363.29</ele>
        <time>2012-08-05T13:01:29Z</time>
      </trkpt>
      <trkpt lat="46.04547" lon="6.99736">
        <ele>1363.29</ele>
        <time>2012-08-05T13:01:30Z</time>
      </trkpt>
      <trkpt lat="46.04568" lon="6.99736">
        <ele>1363.29</ele>
        <time>2012-08-05T13:01:32Z</time>
      </trkpt>
      <trkpt lat="46.0458" lon="6.99733">
        <ele>1361.84</ele>
        <time>2012-08-05T13:01:33Z</time>
      </trkpt>
      <trkpt lat="46.04592" lon="6.99728">
        <ele>1360.4</ele>
        <time>2012-08-05T13:01:34Z</time>
      </trkpt>
      <trkpt lat="46.0463" lon="6.99719">
        <ele>1358</ele>
        <time>2012-08-05T13:01:37Z</time>
      </trkpt>
      <trkpt lat="46.04661" lon="6.99711">
        <ele>1354.15</ele>
        <time>2012-08-05T13:01:40Z</time>
      </trkpt>
      <trkpt lat="46.04703" lon="6.99698">
        <ele>1351.27</ele>
        <time>2012-08-05T13:01:43Z</time>
      </trkpt>
      <trkpt lat="46.04733" lon="6.99696">
        <ele>1348.39</ele>
        <time>2012-08-05T13:01:45Z</time>
      </trkpt>
      <trkpt lat="46.0474" lon="6.99697">
        <ele>1347.43</ele>
        <time>2012-08-05T13:01:46Z</time>
      </trkpt>
      <trkpt lat="46.04781" lon="6.99701">
        <ele>1345.5</ele>
        <time>2012-08-05T13:01:49Z</time>
      </trkpt>
      <trkpt lat="46.04796" lon="6.99702">
        <ele>1345.02</ele>
        <time>2012-08-05T13:01:50Z</time>
      </trkpt>
      <trkpt lat="46.0481" lon="6.997">
        <ele>1343.1</ele>
        <time>2012-08-05T13:01:51Z</time>
      </trkpt>
      <trkpt lat="46.04837" lon="6.99695">
        <ele>1340.7</ele>
        <time>2012-08-05T13:01:53Z</time>
      </trkpt>
      <trkpt lat="46.04872" lon="6.99687">
        <ele>1337.81</ele>
        <time>2012-08-05T13:01:56Z</time>
      </trkpt>
      <trkpt lat="46.04902" lon="6.9968">
        <ele>1334.93</ele>
        <time>2012-08-05T13:01:58Z</time>
      </trkpt>
      <trkpt lat="46.04915" lon="6.9968">
        <ele>1333.97</ele>
        <time>2012-08-05T13:01:59Z</time>
      </trkpt>
      <trkpt lat="46.04928" lon="6.99682">
        <ele>1332.52</ele>
        <time>2012-08-05T13:02:00Z</time>
      </trkpt>
      <trkpt lat="46.04956" lon="6.99685">
        <ele>1331.08</ele>
        <time>2012-08-05T13:02:02Z</time>
      </trkpt>
      <trkpt lat="46.0497" lon="6.99683">
        <ele>1329.64</ele>
        <time>2012-08-05T13:02:03Z</time>
      </trkpt>
      <trkpt lat="46.04984" lon="6.99679">
        <ele>1328.68</ele>
        <time>2012-08-05T13:02:04Z</time>
      </trkpt>
      <trkpt lat="46.04997" lon="6.99674">
        <ele>1327.24</ele>
        <time>2012-08-05T13:02:05Z</time>
      </trkpt>
      <trkpt lat="46.0501" lon="6.99667">
        <ele>1325.8</ele>
        <time>2012-08-05T13:02:06Z</time>
      </trkpt>
      <trkpt lat="46.05034" lon="6.99653">
        <ele>1323.87</ele>
        <time>2012-08-05T13:02:08Z</time>
      </trkpt>
      <trkpt lat="46.05045" lon="6.99649">
        <ele>1322.91</ele>
        <time>2012-08-05T13:02:09Z</time>
      </trkpt>
      <trkpt lat="46.05059" lon="6.99649">
        <ele>1320.99</ele>
        <time>2012-08-05T13:02:10Z</time>
      </trkpt>
      <trkpt lat="46.05073" lon="6.99653">
        <ele>1320.99</ele>
        <time>2012-08-05T13:02:11Z</time>
      </trkpt>
      <trkpt lat="46.05084" lon="6.99656">
        <ele>1319.55</ele>
        <time>2012-08-05T13:02:12Z</time>
      </trkpt>
      <trkpt lat="46.05104" lon="6.99662">
        <ele>1317.62</ele>
        <time>2012-08-05T13:02:13Z</time>
      </trkpt>
      <trkpt lat="46.05157" lon="6.99664">
        <ele>1314.74</ele>
        <time>2012-08-05T13:02:16Z</time>
      </trkpt>
      <trkpt lat="46.05165" lon="6.99663">
        <ele>1313.78</ele>
        <time>2012-08-05T13:02:17Z</time>
      </trkpt>
      <trkpt lat="46.0518" lon="6.99659">
        <ele>1312.82</ele>
        <time>2012-08-05T13:02:18Z</time>
      </trkpt>
      <trkpt lat="46.05193" lon="6.99652">
        <ele>1310.9</ele>
        <time>2012-08-05T13:02:19Z</time>
      </trkpt>
      <trkpt lat="46.05227" lon="6.9963">
        <ele>1308.01</ele>
        <time>2012-08-05T13:02:22Z</time>
      </trkpt>
      <trkpt lat="46.05264" lon="6.99607">
        <ele>1304.65</ele>
        <time>2012-08-05T13:02:25Z</time>
      </trkpt>
      <trkpt lat="46.05283" lon="6.99598">
        <ele>1302.72</ele>
        <time>2012-08-05T13:02:26Z</time>
      </trkpt>
      <trkpt lat="46.05325" lon="6.99584">
        <ele>1299.84</ele>
        <time>2012-08-05T13:02:29Z</time>
      </trkpt>
      <trkpt lat="46.0534" lon="6.99583">
        <ele>1299.36</ele>
        <time>2012-08-05T13:02:30Z</time>
      </trkpt>
      <trkpt lat="46.05355" lon="6.99583">
        <ele>1298.4</ele>
        <time>2012-08-05T13:02:31Z</time>
      </trkpt>
      <trkpt lat="46.0537" lon="6.99584">
        <ele>1297.44</ele>
        <time>2012-08-05T13:02:32Z</time>
      </trkpt>
      <trkpt lat="46.05385" lon="6.99586">
        <ele>1296.48</ele>
        <time>2012-08-05T13:02:33Z</time>
      </trkpt>
      <trkpt lat="46.05427" lon="6.99595">
        <ele>1291.67</ele>
        <time>2012-08-05T13:02:36Z</time>
      </trkpt>
      <trkpt lat="46.0548" lon="6.99605">
        <ele>1288.3</ele>
        <time>2012-08-05T13:02:40Z</time>
      </trkpt>
      <trkpt lat="46.0552" lon="6.99612">
        <ele>1284.94</ele>
        <time>2012-08-05T13:02:43Z</time>
      </trkpt>
      <trkpt lat="46.05581" lon="6.99604">
        <ele>1280.61</ele>
        <time>2012-08-05T13:02:48Z</time>
      </trkpt>
      <trkpt lat="46.05628" lon="6.99587">
        <ele>1276.77</ele>
        <time>2012-08-05T13:02:52Z</time>
      </trkpt>
      <trkpt lat="46.05669" lon="6.99581">
        <ele>1272.92</ele>
        <time>2012-08-05T13:02:55Z</time>
      </trkpt>
      <trkpt lat="46.05675" lon="6.99581">
        <ele>1272.92</ele>
        <time>2012-08-05T13:02:56Z</time>
      </trkpt>
      <trkpt lat="46.05722" lon="6.99583">
        <ele>1270.04</ele>
        <time>2012-08-05T13:03:00Z</time>
      </trkpt>
      <trkpt lat="46.05733" lon="6.99579">
        <ele>1268.6</ele>
        <time>2012-08-05T13:03:01Z</time>
      </trkpt>
      <trkpt lat="46.05745" lon="6.99572">
        <ele>1268.12</ele>
        <time>2012-08-05T13:03:02Z</time>
      </trkpt>
      <trkpt lat="46.05779" lon="6.99538">
        <ele>1264.75</ele>
        <time>2012-08-05T13:03:05Z</time>
      </trkpt>
      <trkpt lat="46.05821" lon="6.99496">
        <ele>1261.39</ele>
        <time>2012-08-05T13:03:08Z</time>
      </trkpt>
      <trkpt lat="46.0583" lon="6.99487">
        <ele>1260.43</ele>
        <time>2012-08-05T13:03:09Z</time>
      </trkpt>
      <trkpt lat="46.05842" lon="6.99474">
        <ele>1258.98</ele>
        <time>2012-08-05T13:03:10Z</time>
      </trkpt>
      <trkpt lat="46.05864" lon="6.99453">
        <ele>1256.1</ele>
        <time>2012-08-05T13:03:12Z</time>
      </trkpt>
      <trkpt lat="46.05899" lon="6.99418">
        <ele>1252.25</ele>
        <time>2012-08-05T13:03:15Z</time>
      </trkpt>
      <trkpt lat="46.05939" lon="6.99376">
        <ele>1249.37</ele>
        <time>2012-08-05T13:03:18Z</time>
      </trkpt>
      <trkpt lat="46.05949" lon="6.99365">
        <ele>1248.41</ele>
        <time>2012-08-05T13:03:19Z</time>
      </trkpt>
      <trkpt lat="46.06001" lon="6.99317">
        <ele>1245.04</ele>
        <time>2012-08-05T13:03:24Z</time>
      </trkpt>
      <trkpt lat="46.06011" lon="6.99312">
        <ele>1244.56</ele>
        <time>2012-08-05T13:03:25Z</time>
      </trkpt>
      <trkpt lat="46.06024" lon="6.99307">
        <ele>1244.08</ele>
        <time>2012-08-05T13:03:26Z</time>
      </trkpt>
      <trkpt lat="46.06076" lon="6.9929">
        <ele>1243.12</ele>
        <time>2012-08-05T13:03:30Z</time>
      </trkpt>
      <trkpt lat="46.06087" lon="6.99284">
        <ele>1242.64</ele>
        <time>2012-08-05T13:03:31Z</time>
      </trkpt>
      <trkpt lat="46.06099" lon="6.99275">
        <ele>1242.16</ele>
        <time>2012-08-05T13:03:32Z</time>
      </trkpt>
      <trkpt lat="46.06111" lon="6.99264">
        <ele>1242.16</ele>
        <time>2012-08-05T13:03:33Z</time>
      </trkpt>
      <trkpt lat="46.06122" lon="6.99251">
        <ele>1241.68</ele>
        <time>2012-08-05T13:03:34Z</time>
      </trkpt>
      <trkpt lat="46.06134" lon="6.99237">
        <ele>1242.16</ele>
        <time>2012-08-05T13:03:35Z</time>
      </trkpt>
      <trkpt lat="46.06167" lon="6.99195">
        <ele>1239.76</ele>
        <time>2012-08-05T13:03:38Z</time>
      </trkpt>
      <trkpt lat="46.06246" lon="6.99097">
        <ele>1236.87</ele>
        <time>2012-08-05T13:03:44Z</time>
      </trkpt>
      <trkpt lat="46.06297" lon="6.99043">
        <ele>1234.95</ele>
        <time>2012-08-05T13:03:48Z</time>
      </trkpt>
      <trkpt lat="46.06414" lon="6.98952">
        <ele>1231.59</ele>
        <time>2012-08-05T13:03:56Z</time>
      </trkpt>
      <trkpt lat="46.06534" lon="6.9887">
        <ele>1228.22</ele>
        <time>2012-08-05T13:04:04Z</time>
      </trkpt>
      <trkpt lat="46.06606" lon="6.98767">
        <ele>1224.86</ele>
        <time>2012-08-05T13:04:11Z</time>
      </trkpt>
      <trkpt lat="46.06631" lon="6.98712">
        <ele>1221.49</ele>
        <time>2012-08-05T13:04:14Z</time>
      </trkpt>
      <trkpt lat="46.06663" lon="6.98638">
        <ele>1215.72</ele>
        <time>2012-08-05T13:04:18Z</time>
      </trkpt>
      <trkpt lat="46.06689" lon="6.98583">
        <ele>1211.4</ele>
        <time>2012-08-05T13:04:21Z</time>
      </trkpt>
      <trkpt lat="46.06731" lon="6.98517">
        <ele>1206.59</ele>
        <time>2012-08-05T13:04:25Z</time>
      </trkpt>
      <trkpt lat="46.06776" lon="6.98451">
        <ele>1203.71</ele>
        <time>2012-08-05T13:04:29Z</time>
      </trkpt>
      <trkpt lat="46.0681" lon="6.9837">
        <ele>1200.34</ele>
        <time>2012-08-05T13:04:33Z</time>
      </trkpt>
      <trkpt lat="46.06826" lon="6.98327">
        <ele>1199.86</ele>
        <time>2012-08-05T13:04:35Z</time>
      </trkpt>
      <trkpt lat="46.06841" lon="6.98285">
        <ele>1197.94</ele>
        <time>2012-08-05T13:04:37Z</time>
      </trkpt>
      <trkpt lat="46.06867" lon="6.98224">
        <ele>1194.58</ele>
        <time>2012-08-05T13:04:40Z</time>
      </trkpt>
      <trkpt lat="46.06885" lon="6.98185">
        <ele>1193.61</ele>
        <time>2012-08-05T13:04:42Z</time>
      </trkpt>
      <trkpt lat="46.06904" lon="6.98147">
        <ele>1192.17</ele>
        <time>2012-08-05T13:04:44Z</time>
      </trkpt>
      <trkpt lat="46.07002" lon="6.97947">
        <ele>1194.09</ele>
        <time>2012-08-05T13:04:55Z</time>
      </trkpt>
      <trkpt lat="46.07049" lon="6.97842">
        <ele>1191.69</ele>
        <time>2012-08-05T13:05:01Z</time>
      </trkpt>
      <trkpt lat="46.07073" lon="6.97809">
        <ele>1192.17</ele>
        <time>2012-08-05T13:05:03Z</time>
      </trkpt>
      <trkpt lat="46.07085" lon="6.97796">
        <ele>1192.17</ele>
        <time>2012-08-05T13:05:04Z</time>
      </trkpt>
      <trkpt lat="46.07152" lon="6.97708">
        <ele>1192.17</ele>
        <time>2012-08-05T13:05:10Z</time>
      </trkpt>
      <trkpt lat="46.0716" lon="6.97691">
        <ele>1191.69</ele>
        <time>2012-08-05T13:05:11Z</time>
      </trkpt>
      <trkpt lat="46.07167" lon="6.97673">
        <ele>1192.17</ele>
        <time>2012-08-05T13:05:12Z</time>
      </trkpt>
      <trkpt lat="46.07173" lon="6.97654">
        <ele>1192.65</ele>
        <time>2012-08-05T13:05:13Z</time>
      </trkpt>
      <trkpt lat="46.07177" lon="6.97633">
        <ele>1190.73</ele>
        <time>2012-08-05T13:05:14Z</time>
      </trkpt>
      <trkpt lat="46.07181" lon="6.97613">
        <ele>1190.25</ele>
        <time>2012-08-05T13:05:15Z</time>
      </trkpt>
      <trkpt lat="46.07183" lon="6.97593">
        <ele>1190.73</ele>
        <time>2012-08-05T13:05:16Z</time>
      </trkpt>
      <trkpt lat="46.07184" lon="6.97574">
        <ele>1189.29</ele>
        <time>2012-08-05T13:05:17Z</time>
      </trkpt>
      <trkpt lat="46.07183" lon="6.97556">
        <ele>1188.33</ele>
        <time>2012-08-05T13:05:18Z</time>
      </trkpt>
      <trkpt lat="46.07177" lon="6.97521">
        <ele>1187.85</ele>
        <time>2012-08-05T13:05:20Z</time>
      </trkpt>
      <trkpt lat="46.07164" lon="6.9749">
        <ele>1186.4</ele>
        <time>2012-08-05T13:05:22Z</time>
      </trkpt>
      <trkpt lat="46.07156" lon="6.97475">
        <ele>1185.92</ele>
        <time>2012-08-05T13:05:23Z</time>
      </trkpt>
      <trkpt lat="46.07146" lon="6.97461">
        <ele>1186.4</ele>
        <time>2012-08-05T13:05:24Z</time>
      </trkpt>
      <trkpt lat="46.07136" lon="6.97448">
        <ele>1185.44</ele>
        <time>2012-08-05T13:05:25Z</time>
      </trkpt>
      <trkpt lat="46.07123" lon="6.97435">
        <ele>1184.96</ele>
        <time>2012-08-05T13:05:26Z</time>
      </trkpt>
      <trkpt lat="46.07109" lon="6.97424">
        <ele>1184</ele>
        <time>2012-08-05T13:05:27Z</time>
      </trkpt>
      <trkpt lat="46.07099" lon="6.97414">
        <ele>1183.04</ele>
        <time>2012-08-05T13:05:28Z</time>
      </trkpt>
      <trkpt lat="46.07047" lon="6.97379">
        <ele>1180.16</ele>
        <time>2012-08-05T13:05:32Z</time>
      </trkpt>
      <trkpt lat="46.07014" lon="6.97345">
        <ele>1177.75</ele>
        <time>2012-08-05T13:05:35Z</time>
      </trkpt>
      <trkpt lat="46.06993" lon="6.97314">
        <ele>1176.31</ele>
        <time>2012-08-05T13:05:37Z</time>
      </trkpt>
      <trkpt lat="46.06984" lon="6.97296">
        <ele>1174.87</ele>
        <time>2012-08-05T13:05:38Z</time>
      </trkpt>
      <trkpt lat="46.06956" lon="6.97232">
        <ele>1171.98</ele>
        <time>2012-08-05T13:05:41Z</time>
      </trkpt>
      <trkpt lat="46.06944" lon="6.97203">
        <ele>1170.54</ele>
        <time>2012-08-05T13:05:43Z</time>
      </trkpt>
      <trkpt lat="46.06907" lon="6.97218">
        <ele>1167.18</ele>
        <time>2012-08-05T13:05:45Z</time>
      </trkpt>
      <trkpt lat="46.06904" lon="6.97211">
        <ele>1167.66</ele>
        <time>2012-08-05T13:05:46Z</time>
      </trkpt>
      <trkpt lat="46.0691" lon="6.97224">
        <ele>1166.22</ele>
        <time>2012-08-05T13:05:47Z</time>
      </trkpt>
      <trkpt lat="46.06909" lon="6.97223">
        <ele>1164.29</ele>
        <time>2012-08-05T13:05:48Z</time>
      </trkpt>
      <trkpt lat="46.06907" lon="6.97218">
        <ele>1160.93</ele>
        <time>2012-08-05T13:05:50Z</time>
      </trkpt>
      <trkpt lat="46.06904" lon="6.9721">
        <ele>1161.41</ele>
        <time>2012-08-05T13:05:51Z</time>
      </trkpt>
      <trkpt lat="46.06903" lon="6.9721">
        <ele>1160.45</ele>
        <time>2012-08-05T13:05:52Z</time>
      </trkpt>
      <trkpt lat="46.06907" lon="6.97219">
        <ele>1158.53</ele>
        <time>2012-08-05T13:05:53Z</time>
      </trkpt>
      <trkpt lat="46.06907" lon="6.97218">
        <ele>1156.6</ele>
        <time>2012-08-05T13:05:54Z</time>
      </trkpt>
      <trkpt lat="46.06907" lon="6.97218">
        <ele>1153.72</ele>
        <time>2012-08-05T13:05:56Z</time>
      </trkpt>
      <trkpt lat="46.06764" lon="6.96871">
        <ele>1149.87</ele>
        <time>2012-08-05T13:06:00Z</time>
      </trkpt>
      <trkpt lat="46.06756" lon="6.96856">
        <ele>1148.91</ele>
        <time>2012-08-05T13:06:01Z</time>
      </trkpt>
      <trkpt lat="46.06731" lon="6.96827">
        <ele>1148.43</ele>
        <time>2012-08-05T13:06:03Z</time>
      </trkpt>
      <trkpt lat="46.06717" lon="6.96817">
        <ele>1146.51</ele>
        <time>2012-08-05T13:06:04Z</time>
      </trkpt>
      <trkpt lat="46.06678" lon="6.96786">
        <ele>1142.18</ele>
        <time>2012-08-05T13:06:07Z</time>
      </trkpt>
      <trkpt lat="46.06631" lon="6.96747">
        <ele>1138.82</ele>
        <time>2012-08-05T13:06:10Z</time>
      </trkpt>
      <trkpt lat="46.06583" lon="6.96709">
        <ele>1134.97</ele>
        <time>2012-08-05T13:06:13Z</time>
      </trkpt>
      <trkpt lat="46.06537" lon="6.96668">
        <ele>1131.61</ele>
        <time>2012-08-05T13:06:16Z</time>
      </trkpt>
      <trkpt lat="46.0649" lon="6.96625">
        <ele>1128.24</ele>
        <time>2012-08-05T13:06:19Z</time>
      </trkpt>
      <trkpt lat="46.06443" lon="6.96585">
        <ele>1124.4</ele>
        <time>2012-08-05T13:06:22Z</time>
      </trkpt>
      <trkpt lat="46.06393" lon="6.96553">
        <ele>1120.07</ele>
        <time>2012-08-05T13:06:25Z</time>
      </trkpt>
      <trkpt lat="46.0634" lon="6.96526">
        <ele>1116.23</ele>
        <time>2012-08-05T13:06:28Z</time>
      </trkpt>
      <trkpt lat="46.06305" lon="6.96512">
        <ele>1111.9</ele>
        <time>2012-08-05T13:06:30Z</time>
      </trkpt>
      <trkpt lat="46.06255" lon="6.9649">
        <ele>1108.54</ele>
        <time>2012-08-05T13:06:33Z</time>
      </trkpt>
      <trkpt lat="46.06219" lon="6.96472">
        <ele>1105.17</ele>
        <time>2012-08-05T13:06:35Z</time>
      </trkpt>
      <trkpt lat="46.0617" lon="6.96439">
        <ele>1101.81</ele>
        <time>2012-08-05T13:06:38Z</time>
      </trkpt>
      <trkpt lat="46.06141" lon="6.96411">
        <ele>1098.44</ele>
        <time>2012-08-05T13:06:40Z</time>
      </trkpt>
      <trkpt lat="46.06101" lon="6.96364">
        <ele>1095.08</ele>
        <time>2012-08-05T13:06:43Z</time>
      </trkpt>
      <trkpt lat="46.06065" lon="6.96309">
        <ele>1091.71</ele>
        <time>2012-08-05T13:06:46Z</time>
      </trkpt>
      <trkpt lat="46.06022" lon="6.96238">
        <ele>1088.35</ele>
        <time>2012-08-05T13:06:50Z</time>
      </trkpt>
      <trkpt lat="46.06002" lon="6.96205">
        <ele>1087.39</ele>
        <time>2012-08-05T13:06:52Z</time>
      </trkpt>
      <trkpt lat="46.05929" lon="6.9611">
        <ele>1085.95</ele>
        <time>2012-08-05T13:07:00Z</time>
      </trkpt>
      <trkpt lat="46.05921" lon="6.9609">
        <ele>1085.95</ele>
        <time>2012-08-05T13:07:01Z</time>
      </trkpt>
      <trkpt lat="46.05915" lon="6.96074">
        <ele>1085.95</ele>
        <time>2012-08-05T13:07:02Z</time>
      </trkpt>
      <trkpt lat="46.05902" lon="6.96034">
        <ele>1087.39</ele>
        <time>2012-08-05T13:07:04Z</time>
      </trkpt>
      <trkpt lat="46.05873" lon="6.9596">
        <ele>1088.83</ele>
        <time>2012-08-05T13:07:09Z</time>
      </trkpt>
      <trkpt lat="46.05806" lon="6.95834">
        <ele>1092.2</ele>
        <time>2012-08-05T13:07:18Z</time>
      </trkpt>
      <trkpt lat="46.05791" lon="6.95805">
        <ele>1093.16</ele>
        <time>2012-08-05T13:07:20Z</time>
      </trkpt>
      <trkpt lat="46.05759" lon="6.95749">
        <ele>1096.04</ele>
        <time>2012-08-05T13:07:24Z</time>
      </trkpt>
      <trkpt lat="46.05709" lon="6.95682">
        <ele>1100.85</ele>
        <time>2012-08-05T13:07:29Z</time>
      </trkpt>
      <trkpt lat="46.05698" lon="6.9567">
        <ele>1101.81</ele>
        <time>2012-08-05T13:07:30Z</time>
      </trkpt>
      <trkpt lat="46.05662" lon="6.95639">
        <ele>1104.21</ele>
        <time>2012-08-05T13:07:33Z</time>
      </trkpt>
      <trkpt lat="46.05639" lon="6.95614">
        <ele>1106.61</ele>
        <time>2012-08-05T13:07:35Z</time>
      </trkpt>
      <trkpt lat="46.05618" lon="6.95585">
        <ele>1108.06</ele>
        <time>2012-08-05T13:07:37Z</time>
      </trkpt>
      <trkpt lat="46.05599" lon="6.95552">
        <ele>1109.5</ele>
        <time>2012-08-05T13:07:39Z</time>
      </trkpt>
      <trkpt lat="46.05592" lon="6.95532">
        <ele>1109.98</ele>
        <time>2012-08-05T13:07:40Z</time>
      </trkpt>
      <trkpt lat="46.05542" lon="6.95415">
        <ele>1109.98</ele>
        <time>2012-08-05T13:07:46Z</time>
      </trkpt>
      <trkpt lat="46.0542" lon="6.95215">
        <ele>1108.06</ele>
        <time>2012-08-05T13:07:58Z</time>
      </trkpt>
      <trkpt lat="46.05369" lon="6.95137">
        <ele>1107.1</ele>
        <time>2012-08-05T13:08:05Z</time>
      </trkpt>
      <trkpt lat="46.05325" lon="6.9507">
        <ele>1109.5</ele>
        <time>2012-08-05T13:08:13Z</time>
      </trkpt>
      <trkpt lat="46.05565" lon="6.94919">
        <ele>1102.29</ele>
        <time>2012-08-05T13:22:54Z</time>
      </trkpt>
      <trkpt lat="46.05345" lon="6.95069">
        <ele>1106.61</ele>
        <time>2012-08-05T13:23:01Z</time>
      </trkpt>
      <trkpt lat="46.05318" lon="6.95035">
        <ele>1109.98</ele>
        <time>2012-08-05T13:23:05Z</time>
      </trkpt>
      <trkpt lat="46.05295" lon="6.95003">
        <ele>1113.34</ele>
        <time>2012-08-05T13:23:08Z</time>
      </trkpt>
      <trkpt lat="46.05263" lon="6.9496">
        <ele>1116.71</ele>
        <time>2012-08-05T13:23:12Z</time>
      </trkpt>
      <trkpt lat="46.05255" lon="6.9495">
        <ele>1117.67</ele>
        <time>2012-08-05T13:23:13Z</time>
      </trkpt>
      <trkpt lat="46.05188" lon="6.94871">
        <ele>1120.55</ele>
        <time>2012-08-05T13:23:23Z</time>
      </trkpt>
      <trkpt lat="46.05182" lon="6.9486">
        <ele>1122</ele>
        <time>2012-08-05T13:23:29Z</time>
      </trkpt>
      <trkpt lat="46.05191" lon="6.94845">
        <ele>1124.4</ele>
        <time>2012-08-05T13:23:33Z</time>
      </trkpt>
      <trkpt lat="46.05192" lon="6.94839">
        <ele>1125.36</ele>
        <time>2012-08-05T13:23:34Z</time>
      </trkpt>
      <trkpt lat="46.05191" lon="6.94832">
        <ele>1125.84</ele>
        <time>2012-08-05T13:23:35Z</time>
      </trkpt>
      <trkpt lat="46.05189" lon="6.94825">
        <ele>1126.8</ele>
        <time>2012-08-05T13:23:36Z</time>
      </trkpt>
      <trkpt lat="46.05185" lon="6.94816">
        <ele>1126.8</ele>
        <time>2012-08-05T13:23:37Z</time>
      </trkpt>
      <trkpt lat="46.05181" lon="6.94804">
        <ele>1127.28</ele>
        <time>2012-08-05T13:23:38Z</time>
      </trkpt>
      <trkpt lat="46.05176" lon="6.94766">
        <ele>1130.17</ele>
        <time>2012-08-05T13:23:41Z</time>
      </trkpt>
      <trkpt lat="46.05175" lon="6.94749">
        <ele>1131.13</ele>
        <time>2012-08-05T13:23:42Z</time>
      </trkpt>
      <trkpt lat="46.05174" lon="6.94714">
        <ele>1134.01</ele>
        <time>2012-08-05T13:23:45Z</time>
      </trkpt>
      <trkpt lat="46.05168" lon="6.9468">
        <ele>1136.9</ele>
        <time>2012-08-05T13:23:48Z</time>
      </trkpt>
      <trkpt lat="46.0516" lon="6.94644">
        <ele>1137.86</ele>
        <time>2012-08-05T13:23:50Z</time>
      </trkpt>
      <trkpt lat="46.05149" lon="6.94615">
        <ele>1139.78</ele>
        <time>2012-08-05T13:23:52Z</time>
      </trkpt>
      <trkpt lat="46.05145" lon="6.94604">
        <ele>1140.26</ele>
        <time>2012-08-05T13:23:53Z</time>
      </trkpt>
      <trkpt lat="46.05141" lon="6.94595">
        <ele>1141.22</ele>
        <time>2012-08-05T13:23:54Z</time>
      </trkpt>
      <trkpt lat="46.05136" lon="6.94587">
        <ele>1142.66</ele>
        <time>2012-08-05T13:23:55Z</time>
      </trkpt>
      <trkpt lat="46.05116" lon="6.94559">
        <ele>1146.03</ele>
        <time>2012-08-05T13:23:59Z</time>
      </trkpt>
      <trkpt lat="46.05009" lon="6.94522">
        <ele>1147.47</ele>
        <time>2012-08-05T13:24:00Z</time>
      </trkpt>
      <trkpt lat="46.04988" lon="6.94498">
        <ele>1149.39</ele>
        <time>2012-08-05T13:24:02Z</time>
      </trkpt>
      <trkpt lat="46.04948" lon="6.94439">
        <ele>1152.76</ele>
        <time>2012-08-05T13:24:06Z</time>
      </trkpt>
      <trkpt lat="46.04914" lon="6.94401">
        <ele>1156.6</ele>
        <time>2012-08-05T13:24:10Z</time>
      </trkpt>
      <trkpt lat="46.04875" lon="6.94358">
        <ele>1160.45</ele>
        <time>2012-08-05T13:24:13Z</time>
      </trkpt>
      <trkpt lat="46.04838" lon="6.94319">
        <ele>1163.33</ele>
        <time>2012-08-05T13:24:16Z</time>
      </trkpt>
      <trkpt lat="46.04798" lon="6.94284">
        <ele>1167.18</ele>
        <time>2012-08-05T13:24:19Z</time>
      </trkpt>
      <trkpt lat="46.04767" lon="6.94267">
        <ele>1169.1</ele>
        <time>2012-08-05T13:24:21Z</time>
      </trkpt>
      <trkpt lat="46.04747" lon="6.94253">
        <ele>1170.06</ele>
        <time>2012-08-05T13:24:22Z</time>
      </trkpt>
      <trkpt lat="46.04733" lon="6.94241">
        <ele>1171.02</ele>
        <time>2012-08-05T13:24:23Z</time>
      </trkpt>
      <trkpt lat="46.04706" lon="6.94216">
        <ele>1173.91</ele>
        <time>2012-08-05T13:24:25Z</time>
      </trkpt>
      <trkpt lat="46.04664" lon="6.94187">
        <ele>1177.27</ele>
        <time>2012-08-05T13:24:28Z</time>
      </trkpt>
      <trkpt lat="46.04633" lon="6.94169">
        <ele>1180.16</ele>
        <time>2012-08-05T13:24:30Z</time>
      </trkpt>
      <trkpt lat="46.04588" lon="6.94147">
        <ele>1183.04</ele>
        <time>2012-08-05T13:24:33Z</time>
      </trkpt>
      <trkpt lat="46.04539" lon="6.9413">
        <ele>1186.88</ele>
        <time>2012-08-05T13:24:36Z</time>
      </trkpt>
      <trkpt lat="46.04469" lon="6.94098">
        <ele>1189.29</ele>
        <time>2012-08-05T13:24:41Z</time>
      </trkpt>
      <trkpt lat="46.04429" lon="6.94065">
        <ele>1192.65</ele>
        <time>2012-08-05T13:24:44Z</time>
      </trkpt>
      <trkpt lat="46.04413" lon="6.94053">
        <ele>1193.61</ele>
        <time>2012-08-05T13:24:46Z</time>
      </trkpt>
      <trkpt lat="46.04364" lon="6.94031">
        <ele>1196.98</ele>
        <time>2012-08-05T13:24:51Z</time>
      </trkpt>
      <trkpt lat="46.04326" lon="6.94017">
        <ele>1199.86</ele>
        <time>2012-08-05T13:24:55Z</time>
      </trkpt>
      <trkpt lat="46.0428" lon="6.93996">
        <ele>1198.9</ele>
        <time>2012-08-05T13:25:04Z</time>
      </trkpt>
      <trkpt lat="46.0424" lon="6.93986">
        <ele>1197.46</ele>
        <time>2012-08-05T13:25:19Z</time>
      </trkpt>
      <trkpt lat="46.04238" lon="6.93984">
        <ele>1197.46</ele>
        <time>2012-08-05T13:25:20Z</time>
      </trkpt>
      <trkpt lat="46.04233" lon="6.93974">
        <ele>1196.5</ele>
        <time>2012-08-05T13:25:23Z</time>
      </trkpt>
      <trkpt lat="46.04232" lon="6.93969">
        <ele>1195.54</ele>
        <time>2012-08-05T13:25:24Z</time>
      </trkpt>
      <trkpt lat="46.04228" lon="6.93954">
        <ele>1195.06</ele>
        <time>2012-08-05T13:25:27Z</time>
      </trkpt>
      <trkpt lat="46.04226" lon="6.9395">
        <ele>1195.06</ele>
        <time>2012-08-05T13:25:28Z</time>
      </trkpt>
      <trkpt lat="46.04222" lon="6.93945">
        <ele>1194.58</ele>
        <time>2012-08-05T13:25:29Z</time>
      </trkpt>
      <trkpt lat="46.04219" lon="6.93942">
        <ele>1195.54</ele>
        <time>2012-08-05T13:25:30Z</time>
      </trkpt>
      <trkpt lat="46.04209" lon="6.93938">
        <ele>1196.02</ele>
        <time>2012-08-05T13:25:31Z</time>
      </trkpt>
      <trkpt lat="46.04143" lon="6.9392">
        <ele>1198.42</ele>
        <time>2012-08-05T13:25:40Z</time>
      </trkpt>
      <trkpt lat="46.04081" lon="6.93881">
        <ele>1201.3</ele>
        <time>2012-08-05T13:25:49Z</time>
      </trkpt>
      <trkpt lat="46.04053" lon="6.93845">
        <ele>1204.19</ele>
        <time>2012-08-05T13:25:54Z</time>
      </trkpt>
      <trkpt lat="46.04046" lon="6.93839">
        <ele>1204.67</ele>
        <time>2012-08-05T13:25:55Z</time>
      </trkpt>
      <trkpt lat="46.04039" lon="6.93834">
        <ele>1205.15</ele>
        <time>2012-08-05T13:25:56Z</time>
      </trkpt>
      <trkpt lat="46.04032" lon="6.93831">
        <ele>1206.11</ele>
        <time>2012-08-05T13:25:57Z</time>
      </trkpt>
      <trkpt lat="46.04024" lon="6.93828">
        <ele>1206.59</ele>
        <time>2012-08-05T13:25:58Z</time>
      </trkpt>
      <trkpt lat="46.03994" lon="6.93817">
        <ele>1208.03</ele>
        <time>2012-08-05T13:26:02Z</time>
      </trkpt>
      <trkpt lat="46.03986" lon="6.93813">
        <ele>1208.03</ele>
        <time>2012-08-05T13:26:03Z</time>
      </trkpt>
      <trkpt lat="46.03979" lon="6.93808">
        <ele>1208.51</ele>
        <time>2012-08-05T13:26:04Z</time>
      </trkpt>
      <trkpt lat="46.03972" lon="6.93804">
        <ele>1209</ele>
        <time>2012-08-05T13:26:05Z</time>
      </trkpt>
      <trkpt lat="46.03964" lon="6.93801">
        <ele>1209</ele>
        <time>2012-08-05T13:26:06Z</time>
      </trkpt>
      <trkpt lat="46.03957" lon="6.93799">
        <ele>1209.48</ele>
        <time>2012-08-05T13:26:07Z</time>
      </trkpt>
      <trkpt lat="46.03942" lon="6.93793">
        <ele>1209.48</ele>
        <time>2012-08-05T13:26:09Z</time>
      </trkpt>
      <trkpt lat="46.03936" lon="6.93788">
        <ele>1210.44</ele>
        <time>2012-08-05T13:26:10Z</time>
      </trkpt>
      <trkpt lat="46.0393" lon="6.93781">
        <ele>1210.44</ele>
        <time>2012-08-05T13:26:11Z</time>
      </trkpt>
      <trkpt lat="46.03925" lon="6.93773">
        <ele>1210.44</ele>
        <time>2012-08-05T13:26:12Z</time>
      </trkpt>
      <trkpt lat="46.0392" lon="6.93765">
        <ele>1210.92</ele>
        <time>2012-08-05T13:26:13Z</time>
      </trkpt>
      <trkpt lat="46.03912" lon="6.93748">
        <ele>1211.88</ele>
        <time>2012-08-05T13:26:15Z</time>
      </trkpt>
      <trkpt lat="46.03907" lon="6.93741">
        <ele>1211.4</ele>
        <time>2012-08-05T13:26:16Z</time>
      </trkpt>
      <trkpt lat="46.03902" lon="6.93735">
        <ele>1211.88</ele>
        <time>2012-08-05T13:26:17Z</time>
      </trkpt>
      <trkpt lat="46.03895" lon="6.93732">
        <ele>1211.88</ele>
        <time>2012-08-05T13:26:18Z</time>
      </trkpt>
      <trkpt lat="46.03888" lon="6.9373">
        <ele>1212.84</ele>
        <time>2012-08-05T13:26:19Z</time>
      </trkpt>
      <trkpt lat="46.03865" lon="6.93721">
        <ele>1213.32</ele>
        <time>2012-08-05T13:26:22Z</time>
      </trkpt>
      <trkpt lat="46.03809" lon="6.93692">
        <ele>1216.21</ele>
        <time>2012-08-05T13:26:29Z</time>
      </trkpt>
      <trkpt lat="46.03711" lon="6.93667">
        <ele>1218.13</ele>
        <time>2012-08-05T13:26:39Z</time>
      </trkpt>
      <trkpt lat="46.03674" lon="6.93652">
        <ele>1221.49</ele>
        <time>2012-08-05T13:26:44Z</time>
      </trkpt>
      <trkpt lat="46.03659" lon="6.93643">
        <ele>1222.45</ele>
        <time>2012-08-05T13:26:46Z</time>
      </trkpt>
      <trkpt lat="46.03604" lon="6.93613">
        <ele>1225.34</ele>
        <time>2012-08-05T13:26:51Z</time>
      </trkpt>
      <trkpt lat="46.03595" lon="6.93606">
        <ele>1225.34</ele>
        <time>2012-08-05T13:26:52Z</time>
      </trkpt>
      <trkpt lat="46.03577" lon="6.93586">
        <ele>1226.78</ele>
        <time>2012-08-05T13:26:54Z</time>
      </trkpt>
      <trkpt lat="46.03571" lon="6.93571">
        <ele>1227.74</ele>
        <time>2012-08-05T13:26:55Z</time>
      </trkpt>
      <trkpt lat="46.03565" lon="6.93556">
        <ele>1227.74</ele>
        <time>2012-08-05T13:26:56Z</time>
      </trkpt>
      <trkpt lat="46.03536" lon="6.93486">
        <ele>1229.66</ele>
        <time>2012-08-05T13:27:01Z</time>
      </trkpt>
      <trkpt lat="46.03497" lon="6.93377">
        <ele>1233.03</ele>
        <time>2012-08-05T13:27:09Z</time>
      </trkpt>
      <trkpt lat="46.03471" lon="6.93308">
        <ele>1233.51</ele>
        <time>2012-08-05T13:27:15Z</time>
      </trkpt>
      <trkpt lat="46.03464" lon="6.93293">
        <ele>1234.47</ele>
        <time>2012-08-05T13:27:17Z</time>
      </trkpt>
      <trkpt lat="46.03459" lon="6.93287">
        <ele>1234.47</ele>
        <time>2012-08-05T13:27:18Z</time>
      </trkpt>
      <trkpt lat="46.03454" lon="6.93282">
        <ele>1234.95</ele>
        <time>2012-08-05T13:27:19Z</time>
      </trkpt>
      <trkpt lat="46.03414" lon="6.93243">
        <ele>1238.32</ele>
        <time>2012-08-05T13:27:26Z</time>
      </trkpt>
      <trkpt lat="46.03351" lon="6.93174">
        <ele>1241.68</ele>
        <time>2012-08-05T13:27:35Z</time>
      </trkpt>
      <trkpt lat="46.03344" lon="6.93166">
        <ele>1241.68</ele>
        <time>2012-08-05T13:27:36Z</time>
      </trkpt>
      <trkpt lat="46.03338" lon="6.93157">
        <ele>1242.64</ele>
        <time>2012-08-05T13:27:37Z</time>
      </trkpt>
      <trkpt lat="46.03333" lon="6.93147">
        <ele>1243.12</ele>
        <time>2012-08-05T13:27:38Z</time>
      </trkpt>
      <trkpt lat="46.03329" lon="6.93136">
        <ele>1243.6</ele>
        <time>2012-08-05T13:27:39Z</time>
      </trkpt>
      <trkpt lat="46.03325" lon="6.93124">
        <ele>1244.08</ele>
        <time>2012-08-05T13:27:40Z</time>
      </trkpt>
      <trkpt lat="46.03303" lon="6.93046">
        <ele>1246.01</ele>
        <time>2012-08-05T13:27:47Z</time>
      </trkpt>
      <trkpt lat="46.03298" lon="6.93037">
        <ele>1246.97</ele>
        <time>2012-08-05T13:27:48Z</time>
      </trkpt>
      <trkpt lat="46.03287" lon="6.93023">
        <ele>1247.45</ele>
        <time>2012-08-05T13:27:50Z</time>
      </trkpt>
      <trkpt lat="46.03282" lon="6.93018">
        <ele>1247.45</ele>
        <time>2012-08-05T13:27:51Z</time>
      </trkpt>
      <trkpt lat="46.03271" lon="6.9301">
        <ele>1246.97</ele>
        <time>2012-08-05T13:27:53Z</time>
      </trkpt>
      <trkpt lat="46.03256" lon="6.93003">
        <ele>1247.93</ele>
        <time>2012-08-05T13:27:56Z</time>
      </trkpt>
      <trkpt lat="46.03215" lon="6.92981">
        <ele>1250.33</ele>
        <time>2012-08-05T13:28:06Z</time>
      </trkpt>
      <trkpt lat="46.03179" lon="6.92972">
        <ele>1253.22</ele>
        <time>2012-08-05T13:28:14Z</time>
      </trkpt>
      <trkpt lat="46.03175" lon="6.92969">
        <ele>1253.7</ele>
        <time>2012-08-05T13:28:15Z</time>
      </trkpt>
      <trkpt lat="46.0317" lon="6.92965">
        <ele>1254.18</ele>
        <time>2012-08-05T13:28:16Z</time>
      </trkpt>
      <trkpt lat="46.03157" lon="6.92953">
        <ele>1256.58</ele>
        <time>2012-08-05T13:28:18Z</time>
      </trkpt>
      <trkpt lat="46.03142" lon="6.92941">
        <ele>1254.66</ele>
        <time>2012-08-05T13:28:20Z</time>
      </trkpt>
      <trkpt lat="46.03105" lon="6.92879">
        <ele>1258.02</ele>
        <time>2012-08-05T13:28:28Z</time>
      </trkpt>
      <trkpt lat="46.03083" lon="6.92845">
        <ele>1259.46</ele>
        <time>2012-08-05T13:28:32Z</time>
      </trkpt>
      <trkpt lat="46.03076" lon="6.92838">
        <ele>1259.94</ele>
        <time>2012-08-05T13:28:33Z</time>
      </trkpt>
      <trkpt lat="46.03069" lon="6.92832">
        <ele>1259.94</ele>
        <time>2012-08-05T13:28:34Z</time>
      </trkpt>
      <trkpt lat="46.03061" lon="6.92828">
        <ele>1259.94</ele>
        <time>2012-08-05T13:28:35Z</time>
      </trkpt>
      <trkpt lat="46.03053" lon="6.92826">
        <ele>1260.91</ele>
        <time>2012-08-05T13:28:36Z</time>
      </trkpt>
      <trkpt lat="46.03043" lon="6.92826">
        <ele>1261.39</ele>
        <time>2012-08-05T13:28:37Z</time>
      </trkpt>
      <trkpt lat="46.03034" lon="6.92828">
        <ele>1261.39</ele>
        <time>2012-08-05T13:28:38Z</time>
      </trkpt>
      <trkpt lat="46.02991" lon="6.92827">
        <ele>1262.35</ele>
        <time>2012-08-05T13:28:43Z</time>
      </trkpt>
      <trkpt lat="46.02984" lon="6.92824">
        <ele>1263.31</ele>
        <time>2012-08-05T13:28:44Z</time>
      </trkpt>
      <trkpt lat="46.02979" lon="6.9282">
        <ele>1263.31</ele>
        <time>2012-08-05T13:28:45Z</time>
      </trkpt>
      <trkpt lat="46.02973" lon="6.92815">
        <ele>1263.31</ele>
        <time>2012-08-05T13:28:46Z</time>
      </trkpt>
      <trkpt lat="46.02967" lon="6.92808">
        <ele>1263.79</ele>
        <time>2012-08-05T13:28:47Z</time>
      </trkpt>
      <trkpt lat="46.02939" lon="6.92769">
        <ele>1267.16</ele>
        <time>2012-08-05T13:28:51Z</time>
      </trkpt>
      <trkpt lat="46.02876" lon="6.92684">
        <ele>1270.52</ele>
        <time>2012-08-05T13:29:00Z</time>
      </trkpt>
      <trkpt lat="46.02867" lon="6.92677">
        <ele>1271.48</ele>
        <time>2012-08-05T13:29:01Z</time>
      </trkpt>
      <trkpt lat="46.02858" lon="6.92673">
        <ele>1271.96</ele>
        <time>2012-08-05T13:29:02Z</time>
      </trkpt>
      <trkpt lat="46.02848" lon="6.92672">
        <ele>1272.44</ele>
        <time>2012-08-05T13:29:03Z</time>
      </trkpt>
      <trkpt lat="46.02798" lon="6.9267">
        <ele>1273.4</ele>
        <time>2012-08-05T13:29:09Z</time>
      </trkpt>
      <trkpt lat="46.0279" lon="6.92669">
        <ele>1273.4</ele>
        <time>2012-08-05T13:29:10Z</time>
      </trkpt>
      <trkpt lat="46.02781" lon="6.92664">
        <ele>1273.4</ele>
        <time>2012-08-05T13:29:11Z</time>
      </trkpt>
      <trkpt lat="46.02773" lon="6.92657">
        <ele>1274.36</ele>
        <time>2012-08-05T13:29:12Z</time>
      </trkpt>
      <trkpt lat="46.02766" lon="6.92648">
        <ele>1274.85</ele>
        <time>2012-08-05T13:29:13Z</time>
      </trkpt>
      <trkpt lat="46.02759" lon="6.92638">
        <ele>1275.33</ele>
        <time>2012-08-05T13:29:14Z</time>
      </trkpt>
      <trkpt lat="46.02752" lon="6.92628">
        <ele>1275.33</ele>
        <time>2012-08-05T13:29:15Z</time>
      </trkpt>
      <trkpt lat="46.02722" lon="6.92573">
        <ele>1276.77</ele>
        <time>2012-08-05T13:29:20Z</time>
      </trkpt>
      <trkpt lat="46.02718" lon="6.9256">
        <ele>1277.25</ele>
        <time>2012-08-05T13:29:21Z</time>
      </trkpt>
      <trkpt lat="46.02715" lon="6.92547">
        <ele>1277.73</ele>
        <time>2012-08-05T13:29:22Z</time>
      </trkpt>
      <trkpt lat="46.0271" lon="6.92523">
        <ele>1277.73</ele>
        <time>2012-08-05T13:29:24Z</time>
      </trkpt>
      <trkpt lat="46.02705" lon="6.92512">
        <ele>1277.73</ele>
        <time>2012-08-05T13:29:25Z</time>
      </trkpt>
      <trkpt lat="46.027" lon="6.92502">
        <ele>1278.21</ele>
        <time>2012-08-05T13:29:26Z</time>
      </trkpt>
      <trkpt lat="46.02641" lon="6.9242">
        <ele>1279.65</ele>
        <time>2012-08-05T13:29:35Z</time>
      </trkpt>
      <trkpt lat="46.0262" lon="6.92376">
        <ele>1283.5</ele>
        <time>2012-08-05T13:29:38Z</time>
      </trkpt>
      <trkpt lat="46.02565" lon="6.92231">
        <ele>1286.86</ele>
        <time>2012-08-05T13:29:45Z</time>
      </trkpt>
      <trkpt lat="46.02541" lon="6.92181">
        <ele>1287.82</ele>
        <time>2012-08-05T13:29:48Z</time>
      </trkpt>
      <trkpt lat="46.02531" lon="6.92167">
        <ele>1289.75</ele>
        <time>2012-08-05T13:29:49Z</time>
      </trkpt>
      <trkpt lat="46.02466" lon="6.92096">
        <ele>1293.11</ele>
        <time>2012-08-05T13:29:54Z</time>
      </trkpt>
      <trkpt lat="46.02426" lon="6.92051">
        <ele>1295.99</ele>
        <time>2012-08-05T13:29:57Z</time>
      </trkpt>
      <trkpt lat="46.024" lon="6.92023">
        <ele>1297.92</ele>
        <time>2012-08-05T13:29:59Z</time>
      </trkpt>
      <trkpt lat="46.02298" lon="6.91936">
        <ele>1302.24</ele>
        <time>2012-08-05T13:30:06Z</time>
      </trkpt>
      <trkpt lat="46.02283" lon="6.91927">
        <ele>1302.72</ele>
        <time>2012-08-05T13:30:07Z</time>
      </trkpt>
      <trkpt lat="46.02187" lon="6.9188">
        <ele>1305.13</ele>
        <time>2012-08-05T13:30:13Z</time>
      </trkpt>
      <trkpt lat="46.02158" lon="6.91864">
        <ele>1307.05</ele>
        <time>2012-08-05T13:30:15Z</time>
      </trkpt>
      <trkpt lat="46.02121" lon="6.91838">
        <ele>1306.57</ele>
        <time>2012-08-05T13:30:18Z</time>
      </trkpt>
      <trkpt lat="46.02102" lon="6.91823">
        <ele>1306.57</ele>
        <time>2012-08-05T13:30:20Z</time>
      </trkpt>
      <trkpt lat="46.02093" lon="6.9182">
        <ele>1306.57</ele>
        <time>2012-08-05T13:30:21Z</time>
      </trkpt>
      <trkpt lat="46.02084" lon="6.91818">
        <ele>1306.57</ele>
        <time>2012-08-05T13:30:22Z</time>
      </trkpt>
      <trkpt lat="46.02074" lon="6.91818">
        <ele>1307.05</ele>
        <time>2012-08-05T13:30:23Z</time>
      </trkpt>
      <trkpt lat="46.02064" lon="6.9182">
        <ele>1307.05</ele>
        <time>2012-08-05T13:30:24Z</time>
      </trkpt>
      <trkpt lat="46.02055" lon="6.91824">
        <ele>1308.01</ele>
        <time>2012-08-05T13:30:25Z</time>
      </trkpt>
      <trkpt lat="46.02048" lon="6.9183">
        <ele>1308.01</ele>
        <time>2012-08-05T13:30:26Z</time>
      </trkpt>
      <trkpt lat="46.02041" lon="6.91839">
        <ele>1308.01</ele>
        <time>2012-08-05T13:30:27Z</time>
      </trkpt>
      <trkpt lat="46.02038" lon="6.9185">
        <ele>1308.49</ele>
        <time>2012-08-05T13:30:28Z</time>
      </trkpt>
      <trkpt lat="46.02034" lon="6.91862">
        <ele>1308.97</ele>
        <time>2012-08-05T13:30:29Z</time>
      </trkpt>
      <trkpt lat="46.02015" lon="6.919">
        <ele>1310.41</ele>
        <time>2012-08-05T13:30:32Z</time>
      </trkpt>
      <trkpt lat="46.02007" lon="6.91909">
        <ele>1310.41</ele>
        <time>2012-08-05T13:30:33Z</time>
      </trkpt>
      <trkpt lat="46.02" lon="6.91916">
        <ele>1310.41</ele>
        <time>2012-08-05T13:30:34Z</time>
      </trkpt>
      <trkpt lat="46.01994" lon="6.91922">
        <ele>1311.38</ele>
        <time>2012-08-05T13:30:35Z</time>
      </trkpt>
      <trkpt lat="46.01987" lon="6.91927">
        <ele>1311.86</ele>
        <time>2012-08-05T13:30:36Z</time>
      </trkpt>
      <trkpt lat="46.01965" lon="6.91942">
        <ele>1315.22</ele>
        <time>2012-08-05T13:30:39Z</time>
      </trkpt>
      <trkpt lat="46.01907" lon="6.91964">
        <ele>1318.59</ele>
        <time>2012-08-05T13:30:45Z</time>
      </trkpt>
      <trkpt lat="46.01903" lon="6.91965">
        <ele>1319.07</ele>
        <time>2012-08-05T13:30:46Z</time>
      </trkpt>
      <trkpt lat="46.01872" lon="6.91969">
        <ele>1322.43</ele>
        <time>2012-08-05T13:30:49Z</time>
      </trkpt>
      <trkpt lat="46.01823" lon="6.91971">
        <ele>1324.35</ele>
        <time>2012-08-05T13:30:53Z</time>
      </trkpt>
      <trkpt lat="46.01772" lon="6.91973">
        <ele>1327.24</ele>
        <time>2012-08-05T13:30:58Z</time>
      </trkpt>
      <trkpt lat="46.01735" lon="6.91968">
        <ele>1329.64</ele>
        <time>2012-08-05T13:31:03Z</time>
      </trkpt>
      <trkpt lat="46.01718" lon="6.91954">
        <ele>1331.08</ele>
        <time>2012-08-05T13:31:06Z</time>
      </trkpt>
      <trkpt lat="46.01714" lon="6.91944">
        <ele>1332.04</ele>
        <time>2012-08-05T13:31:07Z</time>
      </trkpt>
      <trkpt lat="46.0171" lon="6.91933">
        <ele>1333.01</ele>
        <time>2012-08-05T13:31:08Z</time>
      </trkpt>
      <trkpt lat="46.01704" lon="6.91924">
        <ele>1333.49</ele>
        <time>2012-08-05T13:31:09Z</time>
      </trkpt>
      <trkpt lat="46.01697" lon="6.91918">
        <ele>1334.45</ele>
        <time>2012-08-05T13:31:10Z</time>
      </trkpt>
      <trkpt lat="46.01687" lon="6.91915">
        <ele>1335.89</ele>
        <time>2012-08-05T13:31:11Z</time>
      </trkpt>
      <trkpt lat="46.01675" lon="6.91913">
        <ele>1338.29</ele>
        <time>2012-08-05T13:31:12Z</time>
      </trkpt>
      <trkpt lat="46.01662" lon="6.91912">
        <ele>1339.73</ele>
        <time>2012-08-05T13:31:13Z</time>
      </trkpt>
      <trkpt lat="46.01627" lon="6.91908">
        <ele>1342.62</ele>
        <time>2012-08-05T13:31:15Z</time>
      </trkpt>
      <trkpt lat="46.01581" lon="6.91913">
        <ele>1344.54</ele>
        <time>2012-08-05T13:31:18Z</time>
      </trkpt>
      <trkpt lat="46.01526" lon="6.91931">
        <ele>1347.91</ele>
        <time>2012-08-05T13:31:22Z</time>
      </trkpt>
      <trkpt lat="46.01514" lon="6.91938">
        <ele>1348.39</ele>
        <time>2012-08-05T13:31:23Z</time>
      </trkpt>
      <trkpt lat="46.01503" lon="6.91948">
        <ele>1349.35</ele>
        <time>2012-08-05T13:31:24Z</time>
      </trkpt>
      <trkpt lat="46.01466" lon="6.91986">
        <ele>1352.71</ele>
        <time>2012-08-05T13:31:27Z</time>
      </trkpt>
      <trkpt lat="46.01427" lon="6.92026">
        <ele>1357.52</ele>
        <time>2012-08-05T13:31:30Z</time>
      </trkpt>
      <trkpt lat="46.01368" lon="6.92077">
        <ele>1361.36</ele>
        <time>2012-08-05T13:31:34Z</time>
      </trkpt>
      <trkpt lat="46.0132" lon="6.92122">
        <ele>1364.73</ele>
        <time>2012-08-05T13:31:38Z</time>
      </trkpt>
      <trkpt lat="46.01265" lon="6.92171">
        <ele>1367.61</ele>
        <time>2012-08-05T13:31:43Z</time>
      </trkpt>
      <trkpt lat="46.01248" lon="6.92185">
        <ele>1369.54</ele>
        <time>2012-08-05T13:31:45Z</time>
      </trkpt>
      <trkpt lat="46.01239" lon="6.92191">
        <ele>1370.5</ele>
        <time>2012-08-05T13:31:46Z</time>
      </trkpt>
      <trkpt lat="46.01209" lon="6.9221">
        <ele>1372.9</ele>
        <time>2012-08-05T13:31:49Z</time>
      </trkpt>
      <trkpt lat="46.01201" lon="6.92219">
        <ele>1374.34</ele>
        <time>2012-08-05T13:31:50Z</time>
      </trkpt>
      <trkpt lat="46.01193" lon="6.92231">
        <ele>1375.3</ele>
        <time>2012-08-05T13:31:51Z</time>
      </trkpt>
      <trkpt lat="46.01187" lon="6.92246">
        <ele>1376.26</ele>
        <time>2012-08-05T13:31:52Z</time>
      </trkpt>
      <trkpt lat="46.01182" lon="6.92264">
        <ele>1377.71</ele>
        <time>2012-08-05T13:31:53Z</time>
      </trkpt>
      <trkpt lat="46.01168" lon="6.92313">
        <ele>1378.19</ele>
        <time>2012-08-05T13:31:56Z</time>
      </trkpt>
      <trkpt lat="46.01164" lon="6.92324">
        <ele>1378.67</ele>
        <time>2012-08-05T13:31:57Z</time>
      </trkpt>
      <trkpt lat="46.01159" lon="6.92333">
        <ele>1379.15</ele>
        <time>2012-08-05T13:31:58Z</time>
      </trkpt>
      <trkpt lat="46.01154" lon="6.9234">
        <ele>1380.11</ele>
        <time>2012-08-05T13:31:59Z</time>
      </trkpt>
      <trkpt lat="46.01148" lon="6.92344">
        <ele>1381.07</ele>
        <time>2012-08-05T13:32:00Z</time>
      </trkpt>
      <trkpt lat="46.01141" lon="6.92345">
        <ele>1382.51</ele>
        <time>2012-08-05T13:32:01Z</time>
      </trkpt>
      <trkpt lat="46.01124" lon="6.92345">
        <ele>1384.44</ele>
        <time>2012-08-05T13:32:03Z</time>
      </trkpt>
      <trkpt lat="46.01109" lon="6.92347">
        <ele>1385.4</ele>
        <time>2012-08-05T13:32:04Z</time>
      </trkpt>
      <trkpt lat="46.01096" lon="6.92352">
        <ele>1385.4</ele>
        <time>2012-08-05T13:32:05Z</time>
      </trkpt>
      <trkpt lat="46.01082" lon="6.92362">
        <ele>1387.32</ele>
        <time>2012-08-05T13:32:06Z</time>
      </trkpt>
      <trkpt lat="46.01073" lon="6.92374">
        <ele>1388.28</ele>
        <time>2012-08-05T13:32:07Z</time>
      </trkpt>
      <trkpt lat="46.01061" lon="6.92385">
        <ele>1388.28</ele>
        <time>2012-08-05T13:32:08Z</time>
      </trkpt>
      <trkpt lat="46.01051" lon="6.92393">
        <ele>1388.28</ele>
        <time>2012-08-05T13:32:09Z</time>
      </trkpt>
      <trkpt lat="46.01042" lon="6.92398">
        <ele>1388.76</ele>
        <time>2012-08-05T13:32:10Z</time>
      </trkpt>
      <trkpt lat="46.01033" lon="6.92401">
        <ele>1389.72</ele>
        <time>2012-08-05T13:32:11Z</time>
      </trkpt>
      <trkpt lat="46.01023" lon="6.924">
        <ele>1390.68</ele>
        <time>2012-08-05T13:32:12Z</time>
      </trkpt>
      <trkpt lat="46.01012" lon="6.92396">
        <ele>1392.13</ele>
        <time>2012-08-05T13:32:13Z</time>
      </trkpt>
      <trkpt lat="46.00974" lon="6.92377">
        <ele>1395.97</ele>
        <time>2012-08-05T13:32:16Z</time>
      </trkpt>
      <trkpt lat="46.00952" lon="6.92364">
        <ele>1397.89</ele>
        <time>2012-08-05T13:32:18Z</time>
      </trkpt>
      <trkpt lat="46.00939" lon="6.92359">
        <ele>1398.37</ele>
        <time>2012-08-05T13:32:19Z</time>
      </trkpt>
      <trkpt lat="46.00925" lon="6.92356">
        <ele>1399.82</ele>
        <time>2012-08-05T13:32:20Z</time>
      </trkpt>
      <trkpt lat="46.00898" lon="6.92352">
        <ele>1401.26</ele>
        <time>2012-08-05T13:32:22Z</time>
      </trkpt>
      <trkpt lat="46.00884" lon="6.92348">
        <ele>1403.18</ele>
        <time>2012-08-05T13:32:23Z</time>
      </trkpt>
      <trkpt lat="46.00871" lon="6.92341">
        <ele>1403.18</ele>
        <time>2012-08-05T13:32:24Z</time>
      </trkpt>
      <trkpt lat="46.00859" lon="6.92332">
        <ele>1404.14</ele>
        <time>2012-08-05T13:32:25Z</time>
      </trkpt>
      <trkpt lat="46.00838" lon="6.92312">
        <ele>1405.58</ele>
        <time>2012-08-05T13:32:27Z</time>
      </trkpt>
      <trkpt lat="46.00826" lon="6.92307">
        <ele>1406.55</ele>
        <time>2012-08-05T13:32:28Z</time>
      </trkpt>
      <trkpt lat="46.00814" lon="6.92306">
        <ele>1407.51</ele>
        <time>2012-08-05T13:32:29Z</time>
      </trkpt>
      <trkpt lat="46.00801" lon="6.92308">
        <ele>1408.47</ele>
        <time>2012-08-05T13:32:30Z</time>
      </trkpt>
      <trkpt lat="46.00787" lon="6.92311">
        <ele>1409.91</ele>
        <time>2012-08-05T13:32:31Z</time>
      </trkpt>
      <trkpt lat="46.00759" lon="6.92318">
        <ele>1413.28</ele>
        <time>2012-08-05T13:32:33Z</time>
      </trkpt>
      <trkpt lat="46.00743" lon="6.92322">
        <ele>1413.76</ele>
        <time>2012-08-05T13:32:34Z</time>
      </trkpt>
      <trkpt lat="46.00728" lon="6.92326">
        <ele>1415.68</ele>
        <time>2012-08-05T13:32:35Z</time>
      </trkpt>
      <trkpt lat="46.00712" lon="6.9233">
        <ele>1417.6</ele>
        <time>2012-08-05T13:32:36Z</time>
      </trkpt>
      <trkpt lat="46.00667" lon="6.92341">
        <ele>1420.97</ele>
        <time>2012-08-05T13:32:39Z</time>
      </trkpt>
      <trkpt lat="46.00104" lon="6.92296">
        <ele>1419.04</ele>
        <time>2012-08-05T13:36:42Z</time>
      </trkpt>
      <trkpt lat="46.00104" lon="6.92307">
        <ele>1417.12</ele>
        <time>2012-08-05T13:36:52Z</time>
      </trkpt>
      <trkpt lat="46.00104" lon="6.92307">
        <ele>1419.52</ele>
        <time>2012-08-05T13:36:53Z</time>
      </trkpt>
      <trkpt lat="46.00103" lon="6.92309">
        <ele>1415.68</ele>
        <time>2012-08-05T13:36:54Z</time>
      </trkpt>
      <trkpt lat="46.00103" lon="6.92309">
        <ele>1419.52</ele>
        <time>2012-08-05T13:36:55Z</time>
      </trkpt>
      <trkpt lat="46.00103" lon="6.9231">
        <ele>1420.49</ele>
        <time>2012-08-05T13:36:56Z</time>
      </trkpt>
      <trkpt lat="46.00103" lon="6.9231">
        <ele>1419.04</ele>
        <time>2012-08-05T13:36:57Z</time>
      </trkpt>
      <trkpt lat="46.00102" lon="6.92311">
        <ele>1416.64</ele>
        <time>2012-08-05T13:36:58Z</time>
      </trkpt>
      <trkpt lat="46.001" lon="6.92313">
        <ele>1420.49</ele>
        <time>2012-08-05T13:37:06Z</time>
      </trkpt>
      <trkpt lat="46.001" lon="6.92314">
        <ele>1418.56</ele>
        <time>2012-08-05T13:37:07Z</time>
      </trkpt>
      <trkpt lat="46.001" lon="6.92314">
        <ele>1419.52</ele>
        <time>2012-08-05T13:37:09Z</time>
      </trkpt>
      <trkpt lat="46.00091" lon="6.92308">
        <ele>1418.56</ele>
        <time>2012-08-05T13:37:36Z</time>
      </trkpt>
      <trkpt lat="46.00089" lon="6.92307">
        <ele>1418.56</ele>
        <time>2012-08-05T13:38:02Z</time>
      </trkpt>
      <trkpt lat="46.00086" lon="6.92302">
        <ele>1419.04</ele>
        <time>2012-08-05T13:38:32Z</time>
      </trkpt>
      <trkpt lat="46.00081" lon="6.92305">
        <ele>1419.52</ele>
        <time>2012-08-05T13:39:02Z</time>
      </trkpt>
      <trkpt lat="46.00079" lon="6.92302">
        <ele>1419.52</ele>
        <time>2012-08-05T13:39:29Z</time>
      </trkpt>
      <trkpt lat="46.00078" lon="6.92301">
        <ele>1419.04</ele>
        <time>2012-08-05T13:39:59Z</time>
      </trkpt>
      <trkpt lat="46.00078" lon="6.92301">
        <ele>1419.52</ele>
        <time>2012-08-05T13:40:31Z</time>
      </trkpt>
      <trkpt lat="46.00079" lon="6.92302">
        <ele>1420</ele>
        <time>2012-08-05T13:41:02Z</time>
      </trkpt>
      <trkpt lat="46.00079" lon="6.92302">
        <ele>1419.52</ele>
        <time>2012-08-05T13:41:33Z</time>
      </trkpt>
      <trkpt lat="46.00078" lon="6.92303">
        <ele>1419.52</ele>
        <time>2012-08-05T13:42:04Z</time>
      </trkpt>
      <trkpt lat="46.00078" lon="6.92302">
        <ele>1419.52</ele>
        <time>2012-08-05T13:42:41Z</time>
      </trkpt>
      <trkpt lat="46.00078" lon="6.92302">
        <ele>1420</ele>
        <time>2012-08-05T13:43:11Z</time>
      </trkpt>
      <trkpt lat="46.00078" lon="6.92302">
        <ele>1419.52</ele>
        <time>2012-08-05T13:43:46Z</time>
      </trkpt>
      <trkpt lat="46.00078" lon="6.92304">
        <ele>1420</ele>
        <time>2012-08-05T13:44:18Z</time>
      </trkpt>
      <trkpt lat="46.00078" lon="6.92303">
        <ele>1420</ele>
        <time>2012-08-05T13:44:45Z</time>
      </trkpt>
      <trkpt lat="46.00077" lon="6.92303">
        <ele>1419.52</ele>
        <time>2012-08-05T13:45:07Z</time>
      </trkpt>
      <trkpt lat="46.00077" lon="6.92303">
        <ele>1420.49</ele>
        <time>2012-08-05T13:45:10Z</time>
      </trkpt>
      <trkpt lat="46.00044" lon="6.92317">
        <ele>1420.49</ele>
        <time>2012-08-05T13:45:16Z</time>
      </trkpt>
      <trkpt lat="45.99991" lon="6.92335">
        <ele>1416.64</ele>
        <time>2012-08-05T13:45:21Z</time>
      </trkpt>
      <trkpt lat="45.99926" lon="6.92379">
        <ele>1413.28</ele>
        <time>2012-08-05T13:45:28Z</time>
      </trkpt>
      <trkpt lat="45.99866" lon="6.92415">
        <ele>1411.35</ele>
        <time>2012-08-05T13:45:32Z</time>
      </trkpt>
      <trkpt lat="45.99841" lon="6.92444">
        <ele>1408.95</ele>
        <time>2012-08-05T13:45:35Z</time>
      </trkpt>
      <trkpt lat="45.99834" lon="6.92457">
        <ele>1408.95</ele>
        <time>2012-08-05T13:45:36Z</time>
      </trkpt>
      <trkpt lat="45.99809" lon="6.92511">
        <ele>1405.1</ele>
        <time>2012-08-05T13:45:40Z</time>
      </trkpt>
      <trkpt lat="45.99802" lon="6.92524">
        <ele>1405.58</ele>
        <time>2012-08-05T13:45:41Z</time>
      </trkpt>
      <trkpt lat="45.99755" lon="6.92598">
        <ele>1405.58</ele>
        <time>2012-08-05T13:45:47Z</time>
      </trkpt>
      <trkpt lat="45.99745" lon="6.92609">
        <ele>1405.1</ele>
        <time>2012-08-05T13:45:48Z</time>
      </trkpt>
      <trkpt lat="45.99734" lon="6.92619">
        <ele>1405.1</ele>
        <time>2012-08-05T13:45:49Z</time>
      </trkpt>
      <trkpt lat="45.99723" lon="6.92627">
        <ele>1405.1</ele>
        <time>2012-08-05T13:45:50Z</time>
      </trkpt>
      <trkpt lat="45.99711" lon="6.92634">
        <ele>1404.62</ele>
        <time>2012-08-05T13:45:51Z</time>
      </trkpt>
      <trkpt lat="45.99698" lon="6.92639">
        <ele>1404.14</ele>
        <time>2012-08-05T13:45:52Z</time>
      </trkpt>
      <trkpt lat="45.99686" lon="6.92643">
        <ele>1404.14</ele>
        <time>2012-08-05T13:45:53Z</time>
      </trkpt>
      <trkpt lat="45.9964" lon="6.92659">
        <ele>1399.82</ele>
        <time>2012-08-05T13:45:57Z</time>
      </trkpt>
      <trkpt lat="45.99635" lon="6.92661">
        <ele>1399.82</ele>
        <time>2012-08-05T13:45:58Z</time>
      </trkpt>
      <trkpt lat="45.99621" lon="6.92672">
        <ele>1398.86</ele>
        <time>2012-08-05T13:45:59Z</time>
      </trkpt>
      <trkpt lat="45.99613" lon="6.92679">
        <ele>1398.37</ele>
        <time>2012-08-05T13:46:00Z</time>
      </trkpt>
      <trkpt lat="45.99605" lon="6.92685">
        <ele>1397.41</ele>
        <time>2012-08-05T13:46:01Z</time>
      </trkpt>
      <trkpt lat="45.99596" lon="6.92688">
        <ele>1396.45</ele>
        <time>2012-08-05T13:46:02Z</time>
      </trkpt>
      <trkpt lat="45.99586" lon="6.92688">
        <ele>1396.45</ele>
        <time>2012-08-05T13:46:03Z</time>
      </trkpt>
      <trkpt lat="45.99574" lon="6.92687">
        <ele>1395.97</ele>
        <time>2012-08-05T13:46:04Z</time>
      </trkpt>
      <trkpt lat="45.99535" lon="6.92682">
        <ele>1393.57</ele>
        <time>2012-08-05T13:46:07Z</time>
      </trkpt>
      <trkpt lat="45.99523" lon="6.92682">
        <ele>1393.09</ele>
        <time>2012-08-05T13:46:08Z</time>
      </trkpt>
      <trkpt lat="45.995" lon="6.92685">
        <ele>1390.68</ele>
        <time>2012-08-05T13:46:10Z</time>
      </trkpt>
      <trkpt lat="45.99489" lon="6.92688">
        <ele>1390.2</ele>
        <time>2012-08-05T13:46:11Z</time>
      </trkpt>
      <trkpt lat="45.99479" lon="6.92692">
        <ele>1389.24</ele>
        <time>2012-08-05T13:46:12Z</time>
      </trkpt>
      <trkpt lat="45.99456" lon="6.92705">
        <ele>1386.36</ele>
        <time>2012-08-05T13:46:15Z</time>
      </trkpt>
      <trkpt lat="45.99448" lon="6.92707">
        <ele>1386.84</ele>
        <time>2012-08-05T13:46:16Z</time>
      </trkpt>
      <trkpt lat="45.99438" lon="6.92706">
        <ele>1387.32</ele>
        <time>2012-08-05T13:46:17Z</time>
      </trkpt>
      <trkpt lat="45.99428" lon="6.92702">
        <ele>1387.32</ele>
        <time>2012-08-05T13:46:18Z</time>
      </trkpt>
      <trkpt lat="45.99418" lon="6.92698">
        <ele>1387.32</ele>
        <time>2012-08-05T13:46:19Z</time>
      </trkpt>
      <trkpt lat="45.99408" lon="6.92692">
        <ele>1386.84</ele>
        <time>2012-08-05T13:46:20Z</time>
      </trkpt>
      <trkpt lat="45.99398" lon="6.92689">
        <ele>1386.84</ele>
        <time>2012-08-05T13:46:21Z</time>
      </trkpt>
      <trkpt lat="45.99389" lon="6.92687">
        <ele>1385.88</ele>
        <time>2012-08-05T13:46:22Z</time>
      </trkpt>
      <trkpt lat="45.99299" lon="6.92687">
        <ele>1382.99</ele>
        <time>2012-08-05T13:46:30Z</time>
      </trkpt>
      <trkpt lat="45.99264" lon="6.92684">
        <ele>1380.59</ele>
        <time>2012-08-05T13:46:33Z</time>
      </trkpt>
      <trkpt lat="45.99253" lon="6.92686">
        <ele>1379.63</ele>
        <time>2012-08-05T13:46:34Z</time>
      </trkpt>
      <trkpt lat="45.99215" lon="6.92696">
        <ele>1376.75</ele>
        <time>2012-08-05T13:46:38Z</time>
      </trkpt>
      <trkpt lat="45.99206" lon="6.92695">
        <ele>1376.75</ele>
        <time>2012-08-05T13:46:39Z</time>
      </trkpt>
      <trkpt lat="45.99197" lon="6.92692">
        <ele>1376.75</ele>
        <time>2012-08-05T13:46:40Z</time>
      </trkpt>
      <trkpt lat="45.99189" lon="6.92686">
        <ele>1377.71</ele>
        <time>2012-08-05T13:46:41Z</time>
      </trkpt>
      <trkpt lat="45.99182" lon="6.92681">
        <ele>1377.71</ele>
        <time>2012-08-05T13:46:42Z</time>
      </trkpt>
      <trkpt lat="45.99174" lon="6.9268">
        <ele>1376.26</ele>
        <time>2012-08-05T13:46:43Z</time>
      </trkpt>
      <trkpt lat="45.99167" lon="6.92681">
        <ele>1376.26</ele>
        <time>2012-08-05T13:46:44Z</time>
      </trkpt>
      <trkpt lat="45.99161" lon="6.92685">
        <ele>1377.23</ele>
        <time>2012-08-05T13:46:45Z</time>
      </trkpt>
      <trkpt lat="45.99155" lon="6.92689">
        <ele>1377.23</ele>
        <time>2012-08-05T13:46:46Z</time>
      </trkpt>
      <trkpt lat="45.99149" lon="6.92693">
        <ele>1377.23</ele>
        <time>2012-08-05T13:46:47Z</time>
      </trkpt>
      <trkpt lat="45.99142" lon="6.92695">
        <ele>1377.23</ele>
        <time>2012-08-05T13:46:48Z</time>
      </trkpt>
      <trkpt lat="45.99135" lon="6.92695">
        <ele>1377.71</ele>
        <time>2012-08-05T13:46:49Z</time>
      </trkpt>
      <trkpt lat="45.99127" lon="6.92692">
        <ele>1378.19</ele>
        <time>2012-08-05T13:46:50Z</time>
      </trkpt>
      <trkpt lat="45.99119" lon="6.92689">
        <ele>1378.19</ele>
        <time>2012-08-05T13:46:51Z</time>
      </trkpt>
      <trkpt lat="45.99112" lon="6.92685">
        <ele>1378.19</ele>
        <time>2012-08-05T13:46:52Z</time>
      </trkpt>
      <trkpt lat="45.99105" lon="6.9268">
        <ele>1378.67</ele>
        <time>2012-08-05T13:46:53Z</time>
      </trkpt>
      <trkpt lat="45.99099" lon="6.92675">
        <ele>1378.19</ele>
        <time>2012-08-05T13:46:54Z</time>
      </trkpt>
      <trkpt lat="45.99093" lon="6.92672">
        <ele>1378.67</ele>
        <time>2012-08-05T13:46:55Z</time>
      </trkpt>
      <trkpt lat="45.99086" lon="6.9267">
        <ele>1379.15</ele>
        <time>2012-08-05T13:46:56Z</time>
      </trkpt>
      <trkpt lat="45.9908" lon="6.92668">
        <ele>1378.67</ele>
        <time>2012-08-05T13:46:57Z</time>
      </trkpt>
      <trkpt lat="45.99029" lon="6.9266">
        <ele>1375.3</ele>
        <time>2012-08-05T13:47:04Z</time>
      </trkpt>
      <trkpt lat="45.98989" lon="6.92657">
        <ele>1372.42</ele>
        <time>2012-08-05T13:47:09Z</time>
      </trkpt>
      <trkpt lat="45.98975" lon="6.92657">
        <ele>1370.98</ele>
        <time>2012-08-05T13:47:10Z</time>
      </trkpt>
      <trkpt lat="45.98926" lon="6.92664">
        <ele>1367.61</ele>
        <time>2012-08-05T13:47:15Z</time>
      </trkpt>
      <trkpt lat="45.98886" lon="6.92672">
        <ele>1366.17</ele>
        <time>2012-08-05T13:47:19Z</time>
      </trkpt>
      <trkpt lat="45.98878" lon="6.92676">
        <ele>1365.69</ele>
        <time>2012-08-05T13:47:20Z</time>
      </trkpt>
      <trkpt lat="45.9887" lon="6.92683">
        <ele>1364.25</ele>
        <time>2012-08-05T13:47:21Z</time>
      </trkpt>
      <trkpt lat="45.98864" lon="6.92691">
        <ele>1364.73</ele>
        <time>2012-08-05T13:47:22Z</time>
      </trkpt>
      <trkpt lat="45.98858" lon="6.92701">
        <ele>1364.25</ele>
        <time>2012-08-05T13:47:23Z</time>
      </trkpt>
      <trkpt lat="45.98855" lon="6.92712">
        <ele>1363.29</ele>
        <time>2012-08-05T13:47:24Z</time>
      </trkpt>
      <trkpt lat="45.98853" lon="6.92723">
        <ele>1362.81</ele>
        <time>2012-08-05T13:47:25Z</time>
      </trkpt>
      <trkpt lat="45.98854" lon="6.92735">
        <ele>1361.84</ele>
        <time>2012-08-05T13:47:26Z</time>
      </trkpt>
      <trkpt lat="45.98859" lon="6.92745">
        <ele>1361.36</ele>
        <time>2012-08-05T13:47:27Z</time>
      </trkpt>
      <trkpt lat="45.98866" lon="6.92753">
        <ele>1360.4</ele>
        <time>2012-08-05T13:47:28Z</time>
      </trkpt>
      <trkpt lat="45.98874" lon="6.92759">
        <ele>1360.88</ele>
        <time>2012-08-05T13:47:29Z</time>
      </trkpt>
      <trkpt lat="45.98884" lon="6.92763">
        <ele>1360.4</ele>
        <time>2012-08-05T13:47:30Z</time>
      </trkpt>
      <trkpt lat="45.98895" lon="6.92763">
        <ele>1359.44</ele>
        <time>2012-08-05T13:47:31Z</time>
      </trkpt>
      <trkpt lat="45.98905" lon="6.92762">
        <ele>1359.44</ele>
        <time>2012-08-05T13:47:32Z</time>
      </trkpt>
      <trkpt lat="45.98917" lon="6.9276">
        <ele>1359.92</ele>
        <time>2012-08-05T13:47:33Z</time>
      </trkpt>
      <trkpt lat="45.98927" lon="6.92755">
        <ele>1359.92</ele>
        <time>2012-08-05T13:47:34Z</time>
      </trkpt>
      <trkpt lat="45.98936" lon="6.92749">
        <ele>1359.92</ele>
        <time>2012-08-05T13:47:35Z</time>
      </trkpt>
      <trkpt lat="45.98956" lon="6.92732">
        <ele>1358</ele>
        <time>2012-08-05T13:47:37Z</time>
      </trkpt>
      <trkpt lat="45.98965" lon="6.92727">
        <ele>1356.56</ele>
        <time>2012-08-05T13:47:38Z</time>
      </trkpt>
      <trkpt lat="45.98976" lon="6.92724">
        <ele>1355.6</ele>
        <time>2012-08-05T13:47:39Z</time>
      </trkpt>
      <trkpt lat="45.98987" lon="6.92724">
        <ele>1355.6</ele>
        <time>2012-08-05T13:47:40Z</time>
      </trkpt>
      <trkpt lat="45.9901" lon="6.92728">
        <ele>1353.67</ele>
        <time>2012-08-05T13:47:42Z</time>
      </trkpt>
      <trkpt lat="45.99021" lon="6.92733">
        <ele>1352.71</ele>
        <time>2012-08-05T13:47:43Z</time>
      </trkpt>
      <trkpt lat="45.99031" lon="6.9274">
        <ele>1351.27</ele>
        <time>2012-08-05T13:47:44Z</time>
      </trkpt>
      <trkpt lat="45.9904" lon="6.92748">
        <ele>1350.79</ele>
        <time>2012-08-05T13:47:45Z</time>
      </trkpt>
      <trkpt lat="45.99055" lon="6.92766">
        <ele>1349.35</ele>
        <time>2012-08-05T13:47:47Z</time>
      </trkpt>
      <trkpt lat="45.99062" lon="6.92773">
        <ele>1349.35</ele>
        <time>2012-08-05T13:47:48Z</time>
      </trkpt>
      <trkpt lat="45.99071" lon="6.92778">
        <ele>1349.35</ele>
        <time>2012-08-05T13:47:49Z</time>
      </trkpt>
      <trkpt lat="45.9908" lon="6.9278">
        <ele>1349.83</ele>
        <time>2012-08-05T13:47:50Z</time>
      </trkpt>
      <trkpt lat="45.99088" lon="6.92778">
        <ele>1349.83</ele>
        <time>2012-08-05T13:47:51Z</time>
      </trkpt>
      <trkpt lat="45.99095" lon="6.92779">
        <ele>1350.31</ele>
        <time>2012-08-05T13:47:52Z</time>
      </trkpt>
      <trkpt lat="45.99101" lon="6.92783">
        <ele>1350.31</ele>
        <time>2012-08-05T13:47:53Z</time>
      </trkpt>
      <trkpt lat="45.99104" lon="6.9279">
        <ele>1350.31</ele>
        <time>2012-08-05T13:47:54Z</time>
      </trkpt>
      <trkpt lat="45.99108" lon="6.92814">
        <ele>1348.87</ele>
        <time>2012-08-05T13:47:57Z</time>
      </trkpt>
      <trkpt lat="45.99108" lon="6.92822">
        <ele>1348.39</ele>
        <time>2012-08-05T13:47:58Z</time>
      </trkpt>
      <trkpt lat="45.99104" lon="6.92827">
        <ele>1347.43</ele>
        <time>2012-08-05T13:47:59Z</time>
      </trkpt>
      <trkpt lat="45.99099" lon="6.9283">
        <ele>1346.94</ele>
        <time>2012-08-05T13:48:00Z</time>
      </trkpt>
      <trkpt lat="45.99093" lon="6.92831">
        <ele>1346.46</ele>
        <time>2012-08-05T13:48:01Z</time>
      </trkpt>
      <trkpt lat="45.99084" lon="6.92829">
        <ele>1345.5</ele>
        <time>2012-08-05T13:48:02Z</time>
      </trkpt>
      <trkpt lat="45.99075" lon="6.92828">
        <ele>1345.02</ele>
        <time>2012-08-05T13:48:03Z</time>
      </trkpt>
      <trkpt lat="45.99065" lon="6.92824">
        <ele>1344.06</ele>
        <time>2012-08-05T13:48:04Z</time>
      </trkpt>
      <trkpt lat="45.99052" lon="6.92818">
        <ele>1343.58</ele>
        <time>2012-08-05T13:48:05Z</time>
      </trkpt>
      <trkpt lat="45.9904" lon="6.9281">
        <ele>1343.1</ele>
        <time>2012-08-05T13:48:06Z</time>
      </trkpt>
      <trkpt lat="45.98997" lon="6.92786">
        <ele>1339.73</ele>
        <time>2012-08-05T13:48:09Z</time>
      </trkpt>
      <trkpt lat="45.98989" lon="6.92782">
        <ele>1339.25</ele>
        <time>2012-08-05T13:48:10Z</time>
      </trkpt>
      <trkpt lat="45.98981" lon="6.92781">
        <ele>1338.77</ele>
        <time>2012-08-05T13:48:11Z</time>
      </trkpt>
      <trkpt lat="45.98973" lon="6.92782">
        <ele>1338.29</ele>
        <time>2012-08-05T13:48:12Z</time>
      </trkpt>
      <trkpt lat="45.98966" lon="6.92786">
        <ele>1337.33</ele>
        <time>2012-08-05T13:48:13Z</time>
      </trkpt>
      <trkpt lat="45.9896" lon="6.92792">
        <ele>1336.85</ele>
        <time>2012-08-05T13:48:14Z</time>
      </trkpt>
      <trkpt lat="45.98955" lon="6.92801">
        <ele>1336.85</ele>
        <time>2012-08-05T13:48:15Z</time>
      </trkpt>
      <trkpt lat="45.98952" lon="6.9281">
        <ele>1336.37</ele>
        <time>2012-08-05T13:48:16Z</time>
      </trkpt>
      <trkpt lat="45.98952" lon="6.92821">
        <ele>1335.89</ele>
        <time>2012-08-05T13:48:17Z</time>
      </trkpt>
      <trkpt lat="45.98955" lon="6.9283">
        <ele>1335.41</ele>
        <time>2012-08-05T13:48:18Z</time>
      </trkpt>
      <trkpt lat="45.9896" lon="6.92836">
        <ele>1335.41</ele>
        <time>2012-08-05T13:48:19Z</time>
      </trkpt>
      <trkpt lat="45.98967" lon="6.92841">
        <ele>1335.41</ele>
        <time>2012-08-05T13:48:20Z</time>
      </trkpt>
      <trkpt lat="45.98976" lon="6.92844">
        <ele>1334.93</ele>
        <time>2012-08-05T13:48:21Z</time>
      </trkpt>
      <trkpt lat="45.99" lon="6.92849">
        <ele>1333.01</ele>
        <time>2012-08-05T13:48:23Z</time>
      </trkpt>
      <trkpt lat="45.99018" lon="6.92855">
        <ele>1333.01</ele>
        <time>2012-08-05T13:48:25Z</time>
      </trkpt>
      <trkpt lat="45.99024" lon="6.92862">
        <ele>1333.49</ele>
        <time>2012-08-05T13:48:26Z</time>
      </trkpt>
      <trkpt lat="45.99028" lon="6.92871">
        <ele>1333.49</ele>
        <time>2012-08-05T13:48:27Z</time>
      </trkpt>
      <trkpt lat="45.9903" lon="6.92882">
        <ele>1334.45</ele>
        <time>2012-08-05T13:48:28Z</time>
      </trkpt>
      <trkpt lat="45.99032" lon="6.92891">
        <ele>1335.41</ele>
        <time>2012-08-05T13:48:29Z</time>
      </trkpt>
      <trkpt lat="45.99032" lon="6.92899">
        <ele>1334.93</ele>
        <time>2012-08-05T13:48:30Z</time>
      </trkpt>
      <trkpt lat="45.99031" lon="6.92908">
        <ele>1334.45</ele>
        <time>2012-08-05T13:48:31Z</time>
      </trkpt>
      <trkpt lat="45.99027" lon="6.9294">
        <ele>1332.04</ele>
        <time>2012-08-05T13:48:36Z</time>
      </trkpt>
      <trkpt lat="45.99022" lon="6.92942">
        <ele>1331.08</ele>
        <time>2012-08-05T13:48:37Z</time>
      </trkpt>
      <trkpt lat="45.99008" lon="6.9294">
        <ele>1331.08</ele>
        <time>2012-08-05T13:48:38Z</time>
      </trkpt>
      <trkpt lat="45.98998" lon="6.92939">
        <ele>1330.6</ele>
        <time>2012-08-05T13:48:39Z</time>
      </trkpt>
      <trkpt lat="45.98984" lon="6.92935">
        <ele>1332.04</ele>
        <time>2012-08-05T13:48:40Z</time>
      </trkpt>
      <trkpt lat="45.98958" lon="6.92929">
        <ele>1333.01</ele>
        <time>2012-08-05T13:48:42Z</time>
      </trkpt>
      <trkpt lat="45.98917" lon="6.92921">
        <ele>1329.64</ele>
        <time>2012-08-05T13:48:45Z</time>
      </trkpt>
      <trkpt lat="45.9886" lon="6.92901">
        <ele>1326.28</ele>
        <time>2012-08-05T13:48:51Z</time>
      </trkpt>
      <trkpt lat="45.98828" lon="6.92888">
        <ele>1325.31</ele>
        <time>2012-08-05T13:48:53Z</time>
      </trkpt>
      <trkpt lat="45.98776" lon="6.92874">
        <ele>1321.95</ele>
        <time>2012-08-05T13:48:57Z</time>
      </trkpt>
      <trkpt lat="45.98756" lon="6.92865">
        <ele>1320.51</ele>
        <time>2012-08-05T13:48:58Z</time>
      </trkpt>
      <trkpt lat="45.98704" lon="6.92841">
        <ele>1317.62</ele>
        <time>2012-08-05T13:49:02Z</time>
      </trkpt>
      <trkpt lat="45.98665" lon="6.92823">
        <ele>1314.26</ele>
        <time>2012-08-05T13:49:05Z</time>
      </trkpt>
      <trkpt lat="45.98653" lon="6.92819">
        <ele>1313.78</ele>
        <time>2012-08-05T13:49:06Z</time>
      </trkpt>
      <trkpt lat="45.98629" lon="6.9281">
        <ele>1311.38</ele>
        <time>2012-08-05T13:49:08Z</time>
      </trkpt>
      <trkpt lat="45.98593" lon="6.92792">
        <ele>1308.01</ele>
        <time>2012-08-05T13:49:11Z</time>
      </trkpt>
      <trkpt lat="45.98564" lon="6.92776">
        <ele>1305.61</ele>
        <time>2012-08-05T13:49:14Z</time>
      </trkpt>
      <trkpt lat="45.98525" lon="6.92754">
        <ele>1302.24</ele>
        <time>2012-08-05T13:49:18Z</time>
      </trkpt>
      <trkpt lat="45.98488" lon="6.92734">
        <ele>1298.88</ele>
        <time>2012-08-05T13:49:22Z</time>
      </trkpt>
      <trkpt lat="45.98449" lon="6.9272">
        <ele>1295.99</ele>
        <time>2012-08-05T13:49:26Z</time>
      </trkpt>
      <trkpt lat="45.984" lon="6.92697">
        <ele>1292.63</ele>
        <time>2012-08-05T13:49:31Z</time>
      </trkpt>
      <trkpt lat="45.98364" lon="6.92683">
        <ele>1290.71</ele>
        <time>2012-08-05T13:49:35Z</time>
      </trkpt>
      <trkpt lat="45.9832" lon="6.9266">
        <ele>1288.3</ele>
        <time>2012-08-05T13:49:40Z</time>
      </trkpt>
      <trkpt lat="45.98293" lon="6.92648">
        <ele>1286.38</ele>
        <time>2012-08-05T13:49:46Z</time>
      </trkpt>
      <trkpt lat="45.98266" lon="6.92636">
        <ele>1284.94</ele>
        <time>2012-08-05T13:49:51Z</time>
      </trkpt>
      <trkpt lat="45.98182" lon="6.926">
        <ele>1281.57</ele>
        <time>2012-08-05T13:50:01Z</time>
      </trkpt>
      <trkpt lat="45.98141" lon="6.92569">
        <ele>1278.21</ele>
        <time>2012-08-05T13:50:06Z</time>
      </trkpt>
      <trkpt lat="45.98059" lon="6.92482">
        <ele>1275.33</ele>
        <time>2012-08-05T13:50:17Z</time>
      </trkpt>
      <trkpt lat="45.98023" lon="6.92407">
        <ele>1272.44</ele>
        <time>2012-08-05T13:50:24Z</time>
      </trkpt>
      <trkpt lat="45.97978" lon="6.92349">
        <ele>1269.08</ele>
        <time>2012-08-05T13:50:30Z</time>
      </trkpt>
      <trkpt lat="45.9794" lon="6.92318">
        <ele>1268.12</ele>
        <time>2012-08-05T13:50:34Z</time>
      </trkpt>
      <trkpt lat="45.97918" lon="6.92305">
        <ele>1264.75</ele>
        <time>2012-08-05T13:50:36Z</time>
      </trkpt>
      <trkpt lat="45.97855" lon="6.92267">
        <ele>1261.39</ele>
        <time>2012-08-05T13:50:41Z</time>
      </trkpt>
      <trkpt lat="45.9785" lon="6.92263">
        <ele>1259.94</ele>
        <time>2012-08-05T13:50:42Z</time>
      </trkpt>
      <trkpt lat="45.97791" lon="6.92218">
        <ele>1255.62</ele>
        <time>2012-08-05T13:50:47Z</time>
      </trkpt>
      <trkpt lat="45.97746" lon="6.92179">
        <ele>1251.77</ele>
        <time>2012-08-05T13:50:51Z</time>
      </trkpt>
      <trkpt lat="45.97703" lon="6.92138">
        <ele>1248.41</ele>
        <time>2012-08-05T13:50:55Z</time>
      </trkpt>
      <trkpt lat="45.97642" lon="6.92078">
        <ele>1245.04</ele>
        <time>2012-08-05T13:51:01Z</time>
      </trkpt>
      <trkpt lat="45.97632" lon="6.92074">
        <ele>1244.56</ele>
        <time>2012-08-05T13:51:02Z</time>
      </trkpt>
      <trkpt lat="45.97622" lon="6.92074">
        <ele>1244.08</ele>
        <time>2012-08-05T13:51:03Z</time>
      </trkpt>
      <trkpt lat="45.97612" lon="6.92076">
        <ele>1242.16</ele>
        <time>2012-08-05T13:51:04Z</time>
      </trkpt>
      <trkpt lat="45.97602" lon="6.92082">
        <ele>1242.16</ele>
        <time>2012-08-05T13:51:05Z</time>
      </trkpt>
      <trkpt lat="45.97593" lon="6.9209">
        <ele>1241.68</ele>
        <time>2012-08-05T13:51:06Z</time>
      </trkpt>
      <trkpt lat="45.97585" lon="6.92097">
        <ele>1240.24</ele>
        <time>2012-08-05T13:51:07Z</time>
      </trkpt>
      <trkpt lat="45.97577" lon="6.92104">
        <ele>1239.28</ele>
        <time>2012-08-05T13:51:08Z</time>
      </trkpt>
      <trkpt lat="45.97568" lon="6.92109">
        <ele>1238.32</ele>
        <time>2012-08-05T13:51:09Z</time>
      </trkpt>
      <trkpt lat="45.9756" lon="6.92113">
        <ele>1237.35</ele>
        <time>2012-08-05T13:51:10Z</time>
      </trkpt>
      <trkpt lat="45.97552" lon="6.92114">
        <ele>1235.91</ele>
        <time>2012-08-05T13:51:11Z</time>
      </trkpt>
      <trkpt lat="45.97543" lon="6.92112">
        <ele>1234.95</ele>
        <time>2012-08-05T13:51:12Z</time>
      </trkpt>
      <trkpt lat="45.97535" lon="6.92108">
        <ele>1234.47</ele>
        <time>2012-08-05T13:51:13Z</time>
      </trkpt>
      <trkpt lat="45.97526" lon="6.92101">
        <ele>1233.51</ele>
        <time>2012-08-05T13:51:14Z</time>
      </trkpt>
      <trkpt lat="45.97507" lon="6.92088">
        <ele>1232.07</ele>
        <time>2012-08-05T13:51:16Z</time>
      </trkpt>
      <trkpt lat="45.9745" lon="6.92047">
        <ele>1229.18</ele>
        <time>2012-08-05T13:51:21Z</time>
      </trkpt>
      <trkpt lat="45.97353" lon="6.91972">
        <ele>1225.82</ele>
        <time>2012-08-05T13:51:30Z</time>
      </trkpt>
      <trkpt lat="45.9727" lon="6.91858">
        <ele>1223.42</ele>
        <time>2012-08-05T13:51:38Z</time>
      </trkpt>
      <trkpt lat="45.97186" lon="6.91772">
        <ele>1220.05</ele>
        <time>2012-08-05T13:51:45Z</time>
      </trkpt>
      <trkpt lat="45.97067" lon="6.9168">
        <ele>1216.69</ele>
        <time>2012-08-05T13:51:54Z</time>
      </trkpt>
      <trkpt lat="45.96938" lon="6.91561">
        <ele>1213.8</ele>
        <time>2012-08-05T13:52:05Z</time>
      </trkpt>
      <trkpt lat="45.96823" lon="6.91417">
        <ele>1210.44</ele>
        <time>2012-08-05T13:52:15Z</time>
      </trkpt>
      <trkpt lat="45.96772" lon="6.91364">
        <ele>1208.51</ele>
        <time>2012-08-05T13:52:19Z</time>
      </trkpt>
      <trkpt lat="45.96757" lon="6.91355">
        <ele>1208.51</ele>
        <time>2012-08-05T13:52:20Z</time>
      </trkpt>
      <trkpt lat="45.96742" lon="6.91347">
        <ele>1208.03</ele>
        <time>2012-08-05T13:52:21Z</time>
      </trkpt>
      <trkpt lat="45.96679" lon="6.91325">
        <ele>1206.11</ele>
        <time>2012-08-05T13:52:25Z</time>
      </trkpt>
      <trkpt lat="45.96599" lon="6.91297">
        <ele>1202.27</ele>
        <time>2012-08-05T13:52:30Z</time>
      </trkpt>
      <trkpt lat="45.96583" lon="6.91292">
        <ele>1202.27</ele>
        <time>2012-08-05T13:52:31Z</time>
      </trkpt>
      <trkpt lat="45.96478" lon="6.91254">
        <ele>1198.9</ele>
        <time>2012-08-05T13:52:38Z</time>
      </trkpt>
      <trkpt lat="45.9638" lon="6.91178">
        <ele>1195.54</ele>
        <time>2012-08-05T13:52:45Z</time>
      </trkpt>
      <trkpt lat="45.96367" lon="6.91165">
        <ele>1195.06</ele>
        <time>2012-08-05T13:52:46Z</time>
      </trkpt>
      <trkpt lat="45.96321" lon="6.91112">
        <ele>1192.65</ele>
        <time>2012-08-05T13:52:50Z</time>
      </trkpt>
      <trkpt lat="45.96313" lon="6.91096">
        <ele>1192.65</ele>
        <time>2012-08-05T13:52:51Z</time>
      </trkpt>
      <trkpt lat="45.96305" lon="6.9108">
        <ele>1192.17</ele>
        <time>2012-08-05T13:52:52Z</time>
      </trkpt>
      <trkpt lat="45.96264" lon="6.91">
        <ele>1190.73</ele>
        <time>2012-08-05T13:52:57Z</time>
      </trkpt>
      <trkpt lat="45.96253" lon="6.90986">
        <ele>1190.73</ele>
        <time>2012-08-05T13:52:58Z</time>
      </trkpt>
      <trkpt lat="45.96241" lon="6.90974">
        <ele>1190.25</ele>
        <time>2012-08-05T13:52:59Z</time>
      </trkpt>
      <trkpt lat="45.96228" lon="6.90962">
        <ele>1189.77</ele>
        <time>2012-08-05T13:53:00Z</time>
      </trkpt>
      <trkpt lat="45.96215" lon="6.90952">
        <ele>1188.81</ele>
        <time>2012-08-05T13:53:01Z</time>
      </trkpt>
      <trkpt lat="45.96201" lon="6.90943">
        <ele>1188.81</ele>
        <time>2012-08-05T13:53:02Z</time>
      </trkpt>
      <trkpt lat="45.96119" lon="6.90868">
        <ele>1184.96</ele>
        <time>2012-08-05T13:53:08Z</time>
      </trkpt>
      <trkpt lat="45.96066" lon="6.90811">
        <ele>1181.12</ele>
        <time>2012-08-05T13:53:12Z</time>
      </trkpt>
      <trkpt lat="45.96018" lon="6.90752">
        <ele>1178.71</ele>
        <time>2012-08-05T13:53:16Z</time>
      </trkpt>
      <trkpt lat="45.95962" lon="6.90647">
        <ele>1175.35</ele>
        <time>2012-08-05T13:53:22Z</time>
      </trkpt>
      <trkpt lat="45.95951" lon="6.90624">
        <ele>1174.39</ele>
        <time>2012-08-05T13:53:23Z</time>
      </trkpt>
      <trkpt lat="45.95916" lon="6.90502">
        <ele>1171.02</ele>
        <time>2012-08-05T13:53:29Z</time>
      </trkpt>
      <trkpt lat="45.95911" lon="6.90473">
        <ele>1170.06</ele>
        <time>2012-08-05T13:53:30Z</time>
      </trkpt>
      <trkpt lat="45.95903" lon="6.90439">
        <ele>1168.62</ele>
        <time>2012-08-05T13:53:32Z</time>
      </trkpt>
      <trkpt lat="45.95886" lon="6.90388">
        <ele>1165.26</ele>
        <time>2012-08-05T13:53:35Z</time>
      </trkpt>
      <trkpt lat="45.95876" lon="6.90369">
        <ele>1164.29</ele>
        <time>2012-08-05T13:53:36Z</time>
      </trkpt>
      <trkpt lat="45.95858" lon="6.90344">
        <ele>1161.89</ele>
        <time>2012-08-05T13:53:38Z</time>
      </trkpt>
      <trkpt lat="45.95848" lon="6.90334">
        <ele>1161.41</ele>
        <time>2012-08-05T13:53:39Z</time>
      </trkpt>
      <trkpt lat="45.95837" lon="6.90328">
        <ele>1159.97</ele>
        <time>2012-08-05T13:53:40Z</time>
      </trkpt>
      <trkpt lat="45.95825" lon="6.90325">
        <ele>1159.01</ele>
        <time>2012-08-05T13:53:41Z</time>
      </trkpt>
      <trkpt lat="45.95802" lon="6.90322">
        <ele>1156.6</ele>
        <time>2012-08-05T13:53:43Z</time>
      </trkpt>
      <trkpt lat="45.95791" lon="6.90317">
        <ele>1155.64</ele>
        <time>2012-08-05T13:53:44Z</time>
      </trkpt>
      <trkpt lat="45.9578" lon="6.90311">
        <ele>1154.68</ele>
        <time>2012-08-05T13:53:45Z</time>
      </trkpt>
      <trkpt lat="45.9576" lon="6.90296">
        <ele>1153.72</ele>
        <time>2012-08-05T13:53:47Z</time>
      </trkpt>
      <trkpt lat="45.9575" lon="6.90291">
        <ele>1153.24</ele>
        <time>2012-08-05T13:53:48Z</time>
      </trkpt>
      <trkpt lat="45.95739" lon="6.9029">
        <ele>1152.28</ele>
        <time>2012-08-05T13:53:49Z</time>
      </trkpt>
      <trkpt lat="45.95728" lon="6.90291">
        <ele>1151.8</ele>
        <time>2012-08-05T13:53:50Z</time>
      </trkpt>
      <trkpt lat="45.95705" lon="6.90295">
        <ele>1149.87</ele>
        <time>2012-08-05T13:53:52Z</time>
      </trkpt>
      <trkpt lat="45.95683" lon="6.90297">
        <ele>1147.95</ele>
        <time>2012-08-05T13:53:54Z</time>
      </trkpt>
      <trkpt lat="45.95671" lon="6.90293">
        <ele>1147.47</ele>
        <time>2012-08-05T13:53:55Z</time>
      </trkpt>
      <trkpt lat="45.9566" lon="6.90288">
        <ele>1146.51</ele>
        <time>2012-08-05T13:53:56Z</time>
      </trkpt>
      <trkpt lat="45.9565" lon="6.90283">
        <ele>1144.59</ele>
        <time>2012-08-05T13:53:57Z</time>
      </trkpt>
      <trkpt lat="45.95639" lon="6.9028">
        <ele>1144.59</ele>
        <time>2012-08-05T13:53:58Z</time>
      </trkpt>
      <trkpt lat="45.95628" lon="6.90279">
        <ele>1143.63</ele>
        <time>2012-08-05T13:53:59Z</time>
      </trkpt>
      <trkpt lat="45.95617" lon="6.90281">
        <ele>1143.63</ele>
        <time>2012-08-05T13:54:00Z</time>
      </trkpt>
      <trkpt lat="45.95605" lon="6.90285">
        <ele>1143.14</ele>
        <time>2012-08-05T13:54:01Z</time>
      </trkpt>
      <trkpt lat="45.95568" lon="6.90298">
        <ele>1139.78</ele>
        <time>2012-08-05T13:54:04Z</time>
      </trkpt>
      <trkpt lat="45.95556" lon="6.903">
        <ele>1138.82</ele>
        <time>2012-08-05T13:54:05Z</time>
      </trkpt>
      <trkpt lat="45.95514" lon="6.90299">
        <ele>1135.45</ele>
        <time>2012-08-05T13:54:08Z</time>
      </trkpt>
      <trkpt lat="45.95457" lon="6.9028">
        <ele>1132.57</ele>
        <time>2012-08-05T13:54:13Z</time>
      </trkpt>
      <trkpt lat="45.95417" lon="6.9026">
        <ele>1129.21</ele>
        <time>2012-08-05T13:54:16Z</time>
      </trkpt>
      <trkpt lat="45.95391" lon="6.90254">
        <ele>1128.24</ele>
        <time>2012-08-05T13:54:18Z</time>
      </trkpt>
      <trkpt lat="45.9538" lon="6.90253">
        <ele>1125.84</ele>
        <time>2012-08-05T13:54:19Z</time>
      </trkpt>
      <trkpt lat="45.95341" lon="6.9025">
        <ele>1122.48</ele>
        <time>2012-08-05T13:54:22Z</time>
      </trkpt>
      <trkpt lat="45.95273" lon="6.90232">
        <ele>1119.11</ele>
        <time>2012-08-05T13:54:27Z</time>
      </trkpt>
      <trkpt lat="45.95261" lon="6.90224">
        <ele>1117.67</ele>
        <time>2012-08-05T13:54:28Z</time>
      </trkpt>
      <trkpt lat="45.95248" lon="6.90216">
        <ele>1117.19</ele>
        <time>2012-08-05T13:54:29Z</time>
      </trkpt>
      <trkpt lat="45.95238" lon="6.90206">
        <ele>1115.75</ele>
        <time>2012-08-05T13:54:30Z</time>
      </trkpt>
      <trkpt lat="45.95153" lon="6.90101">
        <ele>1112.86</ele>
        <time>2012-08-05T13:54:38Z</time>
      </trkpt>
      <trkpt lat="45.95086" lon="6.90015">
        <ele>1109.5</ele>
        <time>2012-08-05T13:54:45Z</time>
      </trkpt>
      <trkpt lat="45.9507" lon="6.89995">
        <ele>1108.54</ele>
        <time>2012-08-05T13:54:47Z</time>
      </trkpt>
      <trkpt lat="45.95027" lon="6.89935">
        <ele>1106.61</ele>
        <time>2012-08-05T13:54:53Z</time>
      </trkpt>
      <trkpt lat="45.95022" lon="6.89925">
        <ele>1105.65</ele>
        <time>2012-08-05T13:54:54Z</time>
      </trkpt>
      <trkpt lat="45.95019" lon="6.89915">
        <ele>1106.13</ele>
        <time>2012-08-05T13:54:55Z</time>
      </trkpt>
      <trkpt lat="45.95017" lon="6.89903">
        <ele>1106.13</ele>
        <time>2012-08-05T13:54:56Z</time>
      </trkpt>
      <trkpt lat="45.95013" lon="6.8988">
        <ele>1105.65</ele>
        <time>2012-08-05T13:54:58Z</time>
      </trkpt>
      <trkpt lat="45.9501" lon="6.8987">
        <ele>1106.13</ele>
        <time>2012-08-05T13:54:59Z</time>
      </trkpt>
      <trkpt lat="45.95006" lon="6.89861">
        <ele>1105.65</ele>
        <time>2012-08-05T13:55:00Z</time>
      </trkpt>
      <trkpt lat="45.95001" lon="6.89853">
        <ele>1105.65</ele>
        <time>2012-08-05T13:55:01Z</time>
      </trkpt>
      <trkpt lat="45.94995" lon="6.89846">
        <ele>1105.17</ele>
        <time>2012-08-05T13:55:02Z</time>
      </trkpt>
      <trkpt lat="45.94989" lon="6.8984">
        <ele>1105.17</ele>
        <time>2012-08-05T13:55:03Z</time>
      </trkpt>
      <trkpt lat="45.94981" lon="6.89837">
        <ele>1105.17</ele>
        <time>2012-08-05T13:55:04Z</time>
      </trkpt>
      <trkpt lat="45.94973" lon="6.89834">
        <ele>1105.17</ele>
        <time>2012-08-05T13:55:05Z</time>
      </trkpt>
      <trkpt lat="45.94955" lon="6.89826">
        <ele>1104.21</ele>
        <time>2012-08-05T13:55:07Z</time>
      </trkpt>
      <trkpt lat="45.9489" lon="6.8976">
        <ele>1103.25</ele>
        <time>2012-08-05T13:55:14Z</time>
      </trkpt>
      <trkpt lat="45.9487" lon="6.89735">
        <ele>1102.77</ele>
        <time>2012-08-05T13:55:17Z</time>
      </trkpt>
      <trkpt lat="45.94757" lon="6.89586">
        <ele>1101.33</ele>
        <time>2012-08-05T13:55:29Z</time>
      </trkpt>
      <trkpt lat="45.94596" lon="6.89369">
        <ele>1098.44</ele>
        <time>2012-08-05T13:55:44Z</time>
      </trkpt>
      <trkpt lat="45.94443" lon="6.89166">
        <ele>1095.08</ele>
        <time>2012-08-05T13:55:58Z</time>
      </trkpt>
      <trkpt lat="45.94301" lon="6.8898">
        <ele>1092.2</ele>
        <time>2012-08-05T13:56:11Z</time>
      </trkpt>
      <trkpt lat="45.94279" lon="6.88951">
        <ele>1091.23</ele>
        <time>2012-08-05T13:56:13Z</time>
      </trkpt>
      <trkpt lat="45.94163" lon="6.88799">
        <ele>1088.35</ele>
        <time>2012-08-05T13:56:25Z</time>
      </trkpt>
      <trkpt lat="45.94114" lon="6.88748">
        <ele>1087.39</ele>
        <time>2012-08-05T13:56:31Z</time>
      </trkpt>
      <trkpt lat="45.94106" lon="6.88744">
        <ele>1085.95</ele>
        <time>2012-08-05T13:56:32Z</time>
      </trkpt>
      <trkpt lat="45.94097" lon="6.88742">
        <ele>1087.87</ele>
        <time>2012-08-05T13:56:33Z</time>
      </trkpt>
      <trkpt lat="45.94088" lon="6.88741">
        <ele>1087.39</ele>
        <time>2012-08-05T13:56:34Z</time>
      </trkpt>
      <trkpt lat="45.9408" lon="6.88742">
        <ele>1088.35</ele>
        <time>2012-08-05T13:56:35Z</time>
      </trkpt>
      <trkpt lat="45.94071" lon="6.88744">
        <ele>1088.83</ele>
        <time>2012-08-05T13:56:36Z</time>
      </trkpt>
      <trkpt lat="45.94064" lon="6.88747">
        <ele>1088.35</ele>
        <time>2012-08-05T13:56:37Z</time>
      </trkpt>
      <trkpt lat="45.94056" lon="6.88751">
        <ele>1088.35</ele>
        <time>2012-08-05T13:56:38Z</time>
      </trkpt>
      <trkpt lat="45.9404" lon="6.88759">
        <ele>1088.35</ele>
        <time>2012-08-05T13:56:41Z</time>
      </trkpt>
      <trkpt lat="45.94035" lon="6.8876">
        <ele>1088.35</ele>
        <time>2012-08-05T13:56:42Z</time>
      </trkpt>
      <trkpt lat="45.94029" lon="6.88761">
        <ele>1088.35</ele>
        <time>2012-08-05T13:56:43Z</time>
      </trkpt>
      <trkpt lat="45.94025" lon="6.88765">
        <ele>1088.35</ele>
        <time>2012-08-05T13:56:44Z</time>
      </trkpt>
      <trkpt lat="45.94022" lon="6.88771">
        <ele>1088.83</ele>
        <time>2012-08-05T13:56:45Z</time>
      </trkpt>
      <trkpt lat="45.94019" lon="6.88777">
        <ele>1089.31</ele>
        <time>2012-08-05T13:56:46Z</time>
      </trkpt>
      <trkpt lat="45.94016" lon="6.88783">
        <ele>1089.31</ele>
        <time>2012-08-05T13:56:47Z</time>
      </trkpt>
      <trkpt lat="45.9401" lon="6.88787">
        <ele>1088.83</ele>
        <time>2012-08-05T13:56:48Z</time>
      </trkpt>
      <trkpt lat="45.94003" lon="6.88789">
        <ele>1089.31</ele>
        <time>2012-08-05T13:56:49Z</time>
      </trkpt>
      <trkpt lat="45.93996" lon="6.88789">
        <ele>1089.31</ele>
        <time>2012-08-05T13:56:50Z</time>
      </trkpt>
      <trkpt lat="45.93988" lon="6.8879">
        <ele>1089.31</ele>
        <time>2012-08-05T13:56:51Z</time>
      </trkpt>
      <trkpt lat="45.9386" lon="6.88789">
        <ele>1090.27</ele>
        <time>2012-08-05T13:57:05Z</time>
      </trkpt>
      <trkpt lat="45.93827" lon="6.88795">
        <ele>1091.71</ele>
        <time>2012-08-05T13:57:08Z</time>
      </trkpt>
      <trkpt lat="45.93816" lon="6.888">
        <ele>1090.75</ele>
        <time>2012-08-05T13:57:09Z</time>
      </trkpt>
      <trkpt lat="45.93806" lon="6.88807">
        <ele>1090.75</ele>
        <time>2012-08-05T13:57:10Z</time>
      </trkpt>
      <trkpt lat="45.93797" lon="6.88815">
        <ele>1090.27</ele>
        <time>2012-08-05T13:57:11Z</time>
      </trkpt>
      <trkpt lat="45.93789" lon="6.88824">
        <ele>1089.79</ele>
        <time>2012-08-05T13:57:12Z</time>
      </trkpt>
      <trkpt lat="45.93755" lon="6.8886">
        <ele>1092.68</ele>
        <time>2012-08-05T13:57:16Z</time>
      </trkpt>
      <trkpt lat="45.93705" lon="6.88892">
        <ele>1090.27</ele>
        <time>2012-08-05T13:57:21Z</time>
      </trkpt>
      <trkpt lat="45.93694" lon="6.88896">
        <ele>1090.27</ele>
        <time>2012-08-05T13:57:22Z</time>
      </trkpt>
      <trkpt lat="45.93682" lon="6.88898">
        <ele>1091.23</ele>
        <time>2012-08-05T13:57:23Z</time>
      </trkpt>
      <trkpt lat="45.93616" lon="6.88906">
        <ele>1091.71</ele>
        <time>2012-08-05T13:57:29Z</time>
      </trkpt>
      <trkpt lat="45.93481" lon="6.88917">
        <ele>1091.71</ele>
        <time>2012-08-05T13:57:40Z</time>
      </trkpt>
      <trkpt lat="45.93468" lon="6.88913">
        <ele>1091.71</ele>
        <time>2012-08-05T13:57:41Z</time>
      </trkpt>
      <trkpt lat="45.93457" lon="6.88909">
        <ele>1084.99</ele>
        <time>2012-08-05T13:57:42Z</time>
      </trkpt>
      <trkpt lat="45.93443" lon="6.889">
        <ele>1091.71</ele>
        <time>2012-08-05T13:57:43Z</time>
      </trkpt>
      <trkpt lat="45.93432" lon="6.88891">
        <ele>1090.27</ele>
        <time>2012-08-05T13:57:44Z</time>
      </trkpt>
      <trkpt lat="45.934" lon="6.88855">
        <ele>1087.87</ele>
        <time>2012-08-05T13:57:47Z</time>
      </trkpt>
      <trkpt lat="45.93391" lon="6.8884">
        <ele>1088.35</ele>
        <time>2012-08-05T13:57:48Z</time>
      </trkpt>
      <trkpt lat="45.93382" lon="6.88824">
        <ele>1087.39</ele>
        <time>2012-08-05T13:57:49Z</time>
      </trkpt>
      <trkpt lat="45.93312" lon="6.88654">
        <ele>1084.5</ele>
        <time>2012-08-05T13:57:58Z</time>
      </trkpt>
      <trkpt lat="45.93263" lon="6.88542">
        <ele>1085.47</ele>
        <time>2012-08-05T13:58:04Z</time>
      </trkpt>
      <trkpt lat="45.93229" lon="6.88498">
        <ele>1081.14</ele>
        <time>2012-08-05T13:58:07Z</time>
      </trkpt>
      <trkpt lat="45.93191" lon="6.88454">
        <ele>1083.54</ele>
        <time>2012-08-05T13:58:10Z</time>
      </trkpt>
      <trkpt lat="45.9318" lon="6.88435">
        <ele>1083.06</ele>
        <time>2012-08-05T13:58:11Z</time>
      </trkpt>
      <trkpt lat="45.93087" lon="6.8822">
        <ele>1080.66</ele>
        <time>2012-08-05T13:58:21Z</time>
      </trkpt>
      <trkpt lat="45.93056" lon="6.88131">
        <ele>1079.22</ele>
        <time>2012-08-05T13:58:25Z</time>
      </trkpt>
      <trkpt lat="45.93001" lon="6.87982">
        <ele>1077.29</ele>
        <time>2012-08-05T13:58:32Z</time>
      </trkpt>
      <trkpt lat="45.92991" lon="6.87965">
        <ele>1075.85</ele>
        <time>2012-08-05T13:58:33Z</time>
      </trkpt>
      <trkpt lat="45.92982" lon="6.87951">
        <ele>1075.37</ele>
        <time>2012-08-05T13:58:34Z</time>
      </trkpt>
      <trkpt lat="45.92973" lon="6.87939">
        <ele>1074.41</ele>
        <time>2012-08-05T13:58:35Z</time>
      </trkpt>
      <trkpt lat="45.92964" lon="6.87928">
        <ele>1073.93</ele>
        <time>2012-08-05T13:58:36Z</time>
      </trkpt>
      <trkpt lat="45.92955" lon="6.87918">
        <ele>1073.93</ele>
        <time>2012-08-05T13:58:37Z</time>
      </trkpt>
      <trkpt lat="45.92609" lon="6.87452">
        <ele>1061.43</ele>
        <time>2012-08-05T14:01:13Z</time>
      </trkpt>
      <trkpt lat="45.92569" lon="6.87408">
        <ele>1061.43</ele>
        <time>2012-08-05T14:01:22Z</time>
      </trkpt>
      <trkpt lat="45.92545" lon="6.8738">
        <ele>1057.59</ele>
        <time>2012-08-05T14:01:27Z</time>
      </trkpt>
      <trkpt lat="45.9254" lon="6.87374">
        <ele>1062.39</ele>
        <time>2012-08-05T14:01:28Z</time>
      </trkpt>
      <trkpt lat="45.92507" lon="6.87338">
        <ele>1059.51</ele>
        <time>2012-08-05T14:01:35Z</time>
      </trkpt>
      <trkpt lat="45.92486" lon="6.87311">
        <ele>1060.47</ele>
        <time>2012-08-05T14:01:40Z</time>
      </trkpt>
      <trkpt lat="45.92477" lon="6.87289">
        <ele>1060.47</ele>
        <time>2012-08-05T14:01:48Z</time>
      </trkpt>
      <trkpt lat="45.92477" lon="6.87274">
        <ele>1060.47</ele>
        <time>2012-08-05T14:01:50Z</time>
      </trkpt>
      <trkpt lat="45.92475" lon="6.87267">
        <ele>1060.95</ele>
        <time>2012-08-05T14:01:51Z</time>
      </trkpt>
      <trkpt lat="45.9247" lon="6.87263">
        <ele>1060.95</ele>
        <time>2012-08-05T14:01:52Z</time>
      </trkpt>
      <trkpt lat="45.92465" lon="6.87262">
        <ele>1060.47</ele>
        <time>2012-08-05T14:01:53Z</time>
      </trkpt>
      <trkpt lat="45.9246" lon="6.87265">
        <ele>1060.47</ele>
        <time>2012-08-05T14:01:54Z</time>
      </trkpt>
      <trkpt lat="45.92455" lon="6.87271">
        <ele>1059.99</ele>
        <time>2012-08-05T14:01:55Z</time>
      </trkpt>
      <trkpt lat="45.92454" lon="6.87278">
        <ele>1060.47</ele>
        <time>2012-08-05T14:01:56Z</time>
      </trkpt>
      <trkpt lat="45.9245" lon="6.87287">
        <ele>1060.47</ele>
        <time>2012-08-05T14:01:57Z</time>
      </trkpt>
      <trkpt lat="45.92435" lon="6.87312">
        <ele>1060.47</ele>
        <time>2012-08-05T14:02:00Z</time>
      </trkpt>
      <trkpt lat="45.92431" lon="6.87323">
        <ele>1059.99</ele>
        <time>2012-08-05T14:02:01Z</time>
      </trkpt>
      <trkpt lat="45.92428" lon="6.87335">
        <ele>1060.47</ele>
        <time>2012-08-05T14:02:02Z</time>
      </trkpt>
      <trkpt lat="45.92424" lon="6.87348">
        <ele>1059.99</ele>
        <time>2012-08-05T14:02:03Z</time>
      </trkpt>
      <trkpt lat="45.92422" lon="6.87361">
        <ele>1059.99</ele>
        <time>2012-08-05T14:02:04Z</time>
      </trkpt>
      <trkpt lat="45.9242" lon="6.87375">
        <ele>1058.07</ele>
        <time>2012-08-05T14:02:05Z</time>
      </trkpt>
      <trkpt lat="45.9242" lon="6.87389">
        <ele>1059.51</ele>
        <time>2012-08-05T14:02:06Z</time>
      </trkpt>
      <trkpt lat="45.92413" lon="6.87483">
        <ele>1060.47</ele>
        <time>2012-08-05T14:02:12Z</time>
      </trkpt>
      <trkpt lat="45.92409" lon="6.87499">
        <ele>1060.47</ele>
        <time>2012-08-05T14:02:13Z</time>
      </trkpt>
      <trkpt lat="45.92404" lon="6.87515">
        <ele>1059.99</ele>
        <time>2012-08-05T14:02:14Z</time>
      </trkpt>
      <trkpt lat="45.92398" lon="6.8753">
        <ele>1059.51</ele>
        <time>2012-08-05T14:02:15Z</time>
      </trkpt>
      <trkpt lat="45.92391" lon="6.87545">
        <ele>1058.55</ele>
        <time>2012-08-05T14:02:16Z</time>
      </trkpt>
      <trkpt lat="45.92384" lon="6.87557">
        <ele>1057.59</ele>
        <time>2012-08-05T14:02:17Z</time>
      </trkpt>
      <trkpt lat="45.92377" lon="6.87567">
        <ele>1056.15</ele>
        <time>2012-08-05T14:02:18Z</time>
      </trkpt>
      <trkpt lat="45.92371" lon="6.87576">
        <ele>1055.18</ele>
        <time>2012-08-05T14:02:19Z</time>
      </trkpt>
      <trkpt lat="45.92365" lon="6.87583">
        <ele>1053.74</ele>
        <time>2012-08-05T14:02:20Z</time>
      </trkpt>
      <trkpt lat="45.9236" lon="6.87588">
        <ele>1053.26</ele>
        <time>2012-08-05T14:02:21Z</time>
      </trkpt>
      <trkpt lat="45.92353" lon="6.87594">
        <ele>1051.82</ele>
        <time>2012-08-05T14:02:28Z</time>
      </trkpt>
      <trkpt lat="45.92326" lon="6.87615">
        <ele>1052.3</ele>
        <time>2012-08-05T14:02:34Z</time>
      </trkpt>
      <trkpt lat="45.92309" lon="6.87625">
        <ele>1050.38</ele>
        <time>2012-08-05T14:02:41Z</time>
      </trkpt>
      <trkpt lat="45.92307" lon="6.87627">
        <ele>1050.86</ele>
        <time>2012-08-05T14:02:42Z</time>
      </trkpt>
      <trkpt lat="45.92302" lon="6.87629">
        <ele>1051.34</ele>
        <time>2012-08-05T14:02:43Z</time>
      </trkpt>
      <trkpt lat="45.92294" lon="6.87631">
        <ele>1051.82</ele>
        <time>2012-08-05T14:02:44Z</time>
      </trkpt>
      <trkpt lat="45.92284" lon="6.87633">
        <ele>1052.3</ele>
        <time>2012-08-05T14:02:45Z</time>
      </trkpt>
      <trkpt lat="45.92274" lon="6.87633">
        <ele>1052.3</ele>
        <time>2012-08-05T14:02:46Z</time>
      </trkpt>
      <trkpt lat="45.92263" lon="6.87632">
        <ele>1052.78</ele>
        <time>2012-08-05T14:02:47Z</time>
      </trkpt>
      <trkpt lat="45.92252" lon="6.87629">
        <ele>1052.78</ele>
        <time>2012-08-05T14:02:48Z</time>
      </trkpt>
      <trkpt lat="45.92241" lon="6.87626">
        <ele>1053.26</ele>
        <time>2012-08-05T14:02:49Z</time>
      </trkpt>
      <trkpt lat="45.92115" lon="6.87554">
        <ele>1053.26</ele>
        <time>2012-08-05T14:03:01Z</time>
      </trkpt>
      <trkpt lat="45.92084" lon="6.8752">
        <ele>1051.34</ele>
        <time>2012-08-05T14:03:08Z</time>
      </trkpt>
      <trkpt lat="45.92081" lon="6.87513">
        <ele>1051.82</ele>
        <time>2012-08-05T14:03:09Z</time>
      </trkpt>
      <trkpt lat="45.92078" lon="6.87505">
        <ele>1051.34</ele>
        <time>2012-08-05T14:03:10Z</time>
      </trkpt>
      <trkpt lat="45.92074" lon="6.87499">
        <ele>1051.34</ele>
        <time>2012-08-05T14:03:11Z</time>
      </trkpt>
      <trkpt lat="45.92069" lon="6.87495">
        <ele>1051.34</ele>
        <time>2012-08-05T14:03:12Z</time>
      </trkpt>
      <trkpt lat="45.92061" lon="6.87495">
        <ele>1051.34</ele>
        <time>2012-08-05T14:03:13Z</time>
      </trkpt>
      <trkpt lat="45.92053" lon="6.87497">
        <ele>1051.82</ele>
        <time>2012-08-05T14:03:14Z</time>
      </trkpt>
      <trkpt lat="45.92044" lon="6.87499">
        <ele>1051.82</ele>
        <time>2012-08-05T14:03:15Z</time>
      </trkpt>
      <trkpt lat="45.92034" lon="6.87499">
        <ele>1051.82</ele>
        <time>2012-08-05T14:03:16Z</time>
      </trkpt>
      <trkpt lat="45.92023" lon="6.87497">
        <ele>1051.82</ele>
        <time>2012-08-05T14:03:17Z</time>
      </trkpt>
      <trkpt lat="45.92013" lon="6.87494">
        <ele>1052.78</ele>
        <time>2012-08-05T14:03:18Z</time>
      </trkpt>
      <trkpt lat="45.91981" lon="6.8748">
        <ele>1052.78</ele>
        <time>2012-08-05T14:03:21Z</time>
      </trkpt>
      <trkpt lat="45.91891" lon="6.874">
        <ele>1051.34</ele>
        <time>2012-08-05T14:03:29Z</time>
      </trkpt>
      <trkpt lat="45.91853" lon="6.87338">
        <ele>1047.97</ele>
        <time>2012-08-05T14:03:33Z</time>
      </trkpt>
      <trkpt lat="45.91811" lon="6.87249">
        <ele>1044.61</ele>
        <time>2012-08-05T14:03:38Z</time>
      </trkpt>
      <trkpt lat="45.91784" lon="6.87179">
        <ele>1041.73</ele>
        <time>2012-08-05T14:03:42Z</time>
      </trkpt>
      <trkpt lat="45.91738" lon="6.87079">
        <ele>1037.88</ele>
        <time>2012-08-05T14:03:48Z</time>
      </trkpt>
      <trkpt lat="45.91697" lon="6.87012">
        <ele>1035.96</ele>
        <time>2012-08-05T14:03:53Z</time>
      </trkpt>
      <trkpt lat="45.91658" lon="6.86949">
        <ele>1033.55</ele>
        <time>2012-08-05T14:04:01Z</time>
      </trkpt>
      <trkpt lat="45.91654" lon="6.86942">
        <ele>1033.55</ele>
        <time>2012-08-05T14:04:02Z</time>
      </trkpt>
      <trkpt lat="45.91651" lon="6.86935">
        <ele>1033.55</ele>
        <time>2012-08-05T14:04:03Z</time>
      </trkpt>
      <trkpt lat="45.91648" lon="6.86926">
        <ele>1034.04</ele>
        <time>2012-08-05T14:04:04Z</time>
      </trkpt>
      <trkpt lat="45.91645" lon="6.86919">
        <ele>1034.04</ele>
        <time>2012-08-05T14:04:05Z</time>
      </trkpt>
      <trkpt lat="45.91637" lon="6.869">
        <ele>1034.04</ele>
        <time>2012-08-05T14:04:09Z</time>
      </trkpt>
      <trkpt lat="45.91633" lon="6.86885">
        <ele>1034.04</ele>
        <time>2012-08-05T14:04:11Z</time>
      </trkpt>
      <trkpt lat="45.91628" lon="6.86878">
        <ele>1034.52</ele>
        <time>2012-08-05T14:04:12Z</time>
      </trkpt>
      <trkpt lat="45.9162" lon="6.86871">
        <ele>1035</ele>
        <time>2012-08-05T14:04:13Z</time>
      </trkpt>
      <trkpt lat="45.91602" lon="6.86854">
        <ele>1036.92</ele>
        <time>2012-08-05T14:04:15Z</time>
      </trkpt>
      <trkpt lat="45.91593" lon="6.86842">
        <ele>1037.88</ele>
        <time>2012-08-05T14:04:16Z</time>
      </trkpt>
      <trkpt lat="45.91558" lon="6.86789">
        <ele>1041.25</ele>
        <time>2012-08-05T14:04:20Z</time>
      </trkpt>
      <trkpt lat="45.91488" lon="6.86695">
        <ele>1044.61</ele>
        <time>2012-08-05T14:04:27Z</time>
      </trkpt>
      <trkpt lat="45.91466" lon="6.86669">
        <ele>1045.57</ele>
        <time>2012-08-05T14:04:29Z</time>
      </trkpt>
      <trkpt lat="45.91407" lon="6.86602">
        <ele>1047.97</ele>
        <time>2012-08-05T14:04:34Z</time>
      </trkpt>
      <trkpt lat="45.9137" lon="6.86562">
        <ele>1049.9</ele>
        <time>2012-08-05T14:04:37Z</time>
      </trkpt>
      <trkpt lat="45.91304" lon="6.86466">
        <ele>1053.26</ele>
        <time>2012-08-05T14:04:43Z</time>
      </trkpt>
      <trkpt lat="45.91251" lon="6.86347">
        <ele>1056.15</ele>
        <time>2012-08-05T14:04:49Z</time>
      </trkpt>
      <trkpt lat="45.91228" lon="6.86282">
        <ele>1058.07</ele>
        <time>2012-08-05T14:04:52Z</time>
      </trkpt>
      <trkpt lat="45.91194" lon="6.86167">
        <ele>1061.43</ele>
        <time>2012-08-05T14:04:57Z</time>
      </trkpt>
      <trkpt lat="45.91187" lon="6.86143">
        <ele>1061.43</ele>
        <time>2012-08-05T14:04:58Z</time>
      </trkpt>
      <trkpt lat="45.91168" lon="6.86072">
        <ele>1065.28</ele>
        <time>2012-08-05T14:05:01Z</time>
      </trkpt>
      <trkpt lat="45.91155" lon="6.86023">
        <ele>1066.24</ele>
        <time>2012-08-05T14:05:03Z</time>
      </trkpt>
      <trkpt lat="45.91121" lon="6.85898">
        <ele>1070.08</ele>
        <time>2012-08-05T14:05:08Z</time>
      </trkpt>
      <trkpt lat="45.9108" lon="6.85767">
        <ele>1072.01</ele>
        <time>2012-08-05T14:05:15Z</time>
      </trkpt>
      <trkpt lat="45.91031" lon="6.85674">
        <ele>1072.97</ele>
        <time>2012-08-05T14:05:23Z</time>
      </trkpt>
      <trkpt lat="45.91029" lon="6.85666">
        <ele>1072.97</ele>
        <time>2012-08-05T14:05:24Z</time>
      </trkpt>
      <trkpt lat="45.91027" lon="6.85657">
        <ele>1073.45</ele>
        <time>2012-08-05T14:05:25Z</time>
      </trkpt>
      <trkpt lat="45.91027" lon="6.85646">
        <ele>1073.93</ele>
        <time>2012-08-05T14:05:26Z</time>
      </trkpt>
      <trkpt lat="45.91029" lon="6.85633">
        <ele>1073.45</ele>
        <time>2012-08-05T14:05:27Z</time>
      </trkpt>
      <trkpt lat="45.91035" lon="6.85595">
        <ele>1073.45</ele>
        <time>2012-08-05T14:05:30Z</time>
      </trkpt>
      <trkpt lat="45.91033" lon="6.85578">
        <ele>1073.45</ele>
        <time>2012-08-05T14:05:31Z</time>
      </trkpt>
      <trkpt lat="45.91012" lon="6.85458">
        <ele>1070.08</ele>
        <time>2012-08-05T14:05:37Z</time>
      </trkpt>
      <trkpt lat="45.91009" lon="6.85384">
        <ele>1066.24</ele>
        <time>2012-08-05T14:05:41Z</time>
      </trkpt>
      <trkpt lat="45.91008" lon="6.85348">
        <ele>1062.87</ele>
        <time>2012-08-05T14:05:44Z</time>
      </trkpt>
      <trkpt lat="45.91007" lon="6.85328">
        <ele>1061.91</ele>
        <time>2012-08-05T14:05:46Z</time>
      </trkpt>
      <trkpt lat="45.91007" lon="6.85309">
        <ele>1060.95</ele>
        <time>2012-08-05T14:05:48Z</time>
      </trkpt>
      <trkpt lat="45.91008" lon="6.85301">
        <ele>1059.99</ele>
        <time>2012-08-05T14:05:49Z</time>
      </trkpt>
      <trkpt lat="45.91009" lon="6.85294">
        <ele>1059.99</ele>
        <time>2012-08-05T14:05:50Z</time>
      </trkpt>
      <trkpt lat="45.91011" lon="6.85287">
        <ele>1059.03</ele>
        <time>2012-08-05T14:05:51Z</time>
      </trkpt>
      <trkpt lat="45.91014" lon="6.85281">
        <ele>1059.51</ele>
        <time>2012-08-05T14:05:52Z</time>
      </trkpt>
      <trkpt lat="45.91016" lon="6.85277">
        <ele>1058.55</ele>
        <time>2012-08-05T14:05:53Z</time>
      </trkpt>
      <trkpt lat="45.9102" lon="6.85275">
        <ele>1058.07</ele>
        <time>2012-08-05T14:05:54Z</time>
      </trkpt>
      <trkpt lat="45.91024" lon="6.85275">
        <ele>1057.59</ele>
        <time>2012-08-05T14:05:55Z</time>
      </trkpt>
      <trkpt lat="45.91025" lon="6.85273">
        <ele>1057.11</ele>
        <time>2012-08-05T14:05:56Z</time>
      </trkpt>
      <trkpt lat="45.91026" lon="6.85271">
        <ele>1056.63</ele>
        <time>2012-08-05T14:05:57Z</time>
      </trkpt>
      <trkpt lat="45.91025" lon="6.85271">
        <ele>1056.63</ele>
        <time>2012-08-05T14:06:12Z</time>
      </trkpt>
      <trkpt lat="45.91027" lon="6.85268">
        <ele>1057.11</ele>
        <time>2012-08-05T14:06:35Z</time>
      </trkpt>
      <trkpt lat="45.9103" lon="6.85263">
        <ele>1056.63</ele>
        <time>2012-08-05T14:06:36Z</time>
      </trkpt>
      <trkpt lat="45.91035" lon="6.85259">
        <ele>1056.15</ele>
        <time>2012-08-05T14:06:37Z</time>
      </trkpt>
      <trkpt lat="45.91054" lon="6.85243">
        <ele>1052.78</ele>
        <time>2012-08-05T14:06:41Z</time>
      </trkpt>
      <trkpt lat="45.9106" lon="6.85237">
        <ele>1051.82</ele>
        <time>2012-08-05T14:06:43Z</time>
      </trkpt>
      <trkpt lat="45.91062" lon="6.85232">
        <ele>1051.82</ele>
        <time>2012-08-05T14:06:44Z</time>
      </trkpt>
      <trkpt lat="45.91063" lon="6.85225">
        <ele>1051.82</ele>
        <time>2012-08-05T14:06:45Z</time>
      </trkpt>
      <trkpt lat="45.91062" lon="6.85218">
        <ele>1051.82</ele>
        <time>2012-08-05T14:06:46Z</time>
      </trkpt>
      <trkpt lat="45.91059" lon="6.8521">
        <ele>1052.3</ele>
        <time>2012-08-05T14:06:47Z</time>
      </trkpt>
      <trkpt lat="45.91057" lon="6.85202">
        <ele>1052.3</ele>
        <time>2012-08-05T14:06:48Z</time>
      </trkpt>
      <trkpt lat="45.91044" lon="6.85166">
        <ele>1051.82</ele>
        <time>2012-08-05T14:06:52Z</time>
      </trkpt>
      <trkpt lat="45.91042" lon="6.85158">
        <ele>1051.82</ele>
        <time>2012-08-05T14:06:53Z</time>
      </trkpt>
      <trkpt lat="45.9104" lon="6.85148">
        <ele>1050.86</ele>
        <time>2012-08-05T14:06:54Z</time>
      </trkpt>
      <trkpt lat="45.91031" lon="6.85085">
        <ele>1049.9</ele>
        <time>2012-08-05T14:07:00Z</time>
      </trkpt>
      <trkpt lat="45.91027" lon="6.85056">
        <ele>1047.97</ele>
        <time>2012-08-05T14:07:03Z</time>
      </trkpt>
      <trkpt lat="45.91024" lon="6.85041">
        <ele>1047.01</ele>
        <time>2012-08-05T14:07:05Z</time>
      </trkpt>
      <trkpt lat="45.91021" lon="6.85002">
        <ele>1044.61</ele>
        <time>2012-08-05T14:07:11Z</time>
      </trkpt>
      <trkpt lat="45.91023" lon="6.84994">
        <ele>1044.61</ele>
        <time>2012-08-05T14:07:13Z</time>
      </trkpt>
      <trkpt lat="45.91023" lon="6.84992">
        <ele>1044.61</ele>
        <time>2012-08-05T14:07:14Z</time>
      </trkpt>
      <trkpt lat="45.91022" lon="6.84991">
        <ele>1044.13</ele>
        <time>2012-08-05T14:07:15Z</time>
      </trkpt>
      <trkpt lat="45.91018" lon="6.84989">
        <ele>1044.13</ele>
        <time>2012-08-05T14:07:22Z</time>
      </trkpt>
      <trkpt lat="45.91016" lon="6.84986">
        <ele>1044.61</ele>
        <time>2012-08-05T14:07:23Z</time>
      </trkpt>
      <trkpt lat="45.91015" lon="6.8498">
        <ele>1044.13</ele>
        <time>2012-08-05T14:07:24Z</time>
      </trkpt>
      <trkpt lat="45.91015" lon="6.84972">
        <ele>1043.65</ele>
        <time>2012-08-05T14:07:25Z</time>
      </trkpt>
      <trkpt lat="45.91016" lon="6.84962">
        <ele>1043.65</ele>
        <time>2012-08-05T14:07:26Z</time>
      </trkpt>
      <trkpt lat="45.91018" lon="6.84952">
        <ele>1042.69</ele>
        <time>2012-08-05T14:07:27Z</time>
      </trkpt>
      <trkpt lat="45.91021" lon="6.84942">
        <ele>1042.69</ele>
        <time>2012-08-05T14:07:28Z</time>
      </trkpt>
      <trkpt lat="45.91024" lon="6.84932">
        <ele>1041.73</ele>
        <time>2012-08-05T14:07:29Z</time>
      </trkpt>
      <trkpt lat="45.91027" lon="6.84923">
        <ele>1040.76</ele>
        <time>2012-08-05T14:07:30Z</time>
      </trkpt>
      <trkpt lat="45.91032" lon="6.84914">
        <ele>1040.28</ele>
        <time>2012-08-05T14:07:31Z</time>
      </trkpt>
      <trkpt lat="45.91037" lon="6.84907">
        <ele>1039.32</ele>
        <time>2012-08-05T14:07:32Z</time>
      </trkpt>
      <trkpt lat="45.91042" lon="6.84901">
        <ele>1039.32</ele>
        <time>2012-08-05T14:07:33Z</time>
      </trkpt>
      <trkpt lat="45.91048" lon="6.84896">
        <ele>1037.88</ele>
        <time>2012-08-05T14:07:34Z</time>
      </trkpt>
      <trkpt lat="45.91055" lon="6.84892">
        <ele>1037.4</ele>
        <time>2012-08-05T14:07:35Z</time>
      </trkpt>
      <trkpt lat="45.91061" lon="6.84889">
        <ele>1036.92</ele>
        <time>2012-08-05T14:07:36Z</time>
      </trkpt>
      <trkpt lat="45.91068" lon="6.84887">
        <ele>1036.44</ele>
        <time>2012-08-05T14:07:37Z</time>
      </trkpt>
      <trkpt lat="45.91075" lon="6.84885">
        <ele>1035.48</ele>
        <time>2012-08-05T14:07:38Z</time>
      </trkpt>
      <trkpt lat="45.91082" lon="6.84885">
        <ele>1035.48</ele>
        <time>2012-08-05T14:07:39Z</time>
      </trkpt>
      <trkpt lat="45.91092" lon="6.84886">
        <ele>1035</ele>
        <time>2012-08-05T14:07:40Z</time>
      </trkpt>
      <trkpt lat="45.91101" lon="6.84888">
        <ele>1033.55</ele>
        <time>2012-08-05T14:07:41Z</time>
      </trkpt>
      <trkpt lat="45.91111" lon="6.84891">
        <ele>1033.55</ele>
        <time>2012-08-05T14:07:42Z</time>
      </trkpt>
      <trkpt lat="45.91136" lon="6.84898">
        <ele>1031.15</ele>
        <time>2012-08-05T14:07:45Z</time>
      </trkpt>
      <trkpt lat="45.91144" lon="6.84899">
        <ele>1031.15</ele>
        <time>2012-08-05T14:07:46Z</time>
      </trkpt>
      <trkpt lat="45.91151" lon="6.84898">
        <ele>1029.23</ele>
        <time>2012-08-05T14:07:47Z</time>
      </trkpt>
      <trkpt lat="45.91157" lon="6.84895">
        <ele>1029.23</ele>
        <time>2012-08-05T14:07:48Z</time>
      </trkpt>
      <trkpt lat="45.91163" lon="6.84889">
        <ele>1027.79</ele>
        <time>2012-08-05T14:07:49Z</time>
      </trkpt>
      <trkpt lat="45.91168" lon="6.84881">
        <ele>1028.75</ele>
        <time>2012-08-05T14:07:50Z</time>
      </trkpt>
      <trkpt lat="45.91171" lon="6.84872">
        <ele>1027.31</ele>
        <time>2012-08-05T14:07:51Z</time>
      </trkpt>
      <trkpt lat="45.91173" lon="6.84862">
        <ele>1026.83</ele>
        <time>2012-08-05T14:07:52Z</time>
      </trkpt>
      <trkpt lat="45.91173" lon="6.84852">
        <ele>1026.34</ele>
        <time>2012-08-05T14:07:53Z</time>
      </trkpt>
      <trkpt lat="45.91174" lon="6.84834">
        <ele>1024.9</ele>
        <time>2012-08-05T14:07:55Z</time>
      </trkpt>
      <trkpt lat="45.91178" lon="6.84811">
        <ele>1023.94</ele>
        <time>2012-08-05T14:07:58Z</time>
      </trkpt>
      <trkpt lat="45.91182" lon="6.84802">
        <ele>1023.46</ele>
        <time>2012-08-05T14:07:59Z</time>
      </trkpt>
      <trkpt lat="45.91187" lon="6.84793">
        <ele>1022.98</ele>
        <time>2012-08-05T14:08:00Z</time>
      </trkpt>
      <trkpt lat="45.91198" lon="6.84779">
        <ele>1021.54</ele>
        <time>2012-08-05T14:08:02Z</time>
      </trkpt>
      <trkpt lat="45.91203" lon="6.84775">
        <ele>1020.1</ele>
        <time>2012-08-05T14:08:03Z</time>
      </trkpt>
      <trkpt lat="45.91212" lon="6.84764">
        <ele>1019.13</ele>
        <time>2012-08-05T14:08:06Z</time>
      </trkpt>
      <trkpt lat="45.91213" lon="6.8476">
        <ele>1019.13</ele>
        <time>2012-08-05T14:08:07Z</time>
      </trkpt>
      <trkpt lat="45.91212" lon="6.84754">
        <ele>1019.62</ele>
        <time>2012-08-05T14:08:08Z</time>
      </trkpt>
      <trkpt lat="45.9121" lon="6.84748">
        <ele>1019.13</ele>
        <time>2012-08-05T14:08:09Z</time>
      </trkpt>
      <trkpt lat="45.91207" lon="6.84743">
        <ele>1019.13</ele>
        <time>2012-08-05T14:08:10Z</time>
      </trkpt>
      <trkpt lat="45.91202" lon="6.84734">
        <ele>1018.65</ele>
        <time>2012-08-05T14:08:13Z</time>
      </trkpt>
      <trkpt lat="45.91199" lon="6.84735">
        <ele>1019.13</ele>
        <time>2012-08-05T14:08:14Z</time>
      </trkpt>
      <trkpt lat="45.91197" lon="6.84736">
        <ele>1018.65</ele>
        <time>2012-08-05T14:08:15Z</time>
      </trkpt>
      <trkpt lat="45.91196" lon="6.84736">
        <ele>1018.65</ele>
        <time>2012-08-05T14:08:16Z</time>
      </trkpt>
      <trkpt lat="45.91195" lon="6.84735">
        <ele>1018.65</ele>
        <time>2012-08-05T14:08:17Z</time>
      </trkpt>
      <trkpt lat="45.91194" lon="6.84734">
        <ele>1018.65</ele>
        <time>2012-08-05T14:08:18Z</time>
      </trkpt>
      <trkpt lat="45.91194" lon="6.84736">
        <ele>1018.65</ele>
        <time>2012-08-05T14:08:28Z</time>
      </trkpt>
      <trkpt lat="45.91194" lon="6.84736">
        <ele>1018.65</ele>
        <time>2012-08-05T14:08:48Z</time>
      </trkpt>
      <trkpt lat="45.91195" lon="6.84736">
        <ele>1018.65</ele>
        <time>2012-08-05T14:09:21Z</time>
      </trkpt>
      <trkpt lat="45.91195" lon="6.84736">
        <ele>1018.65</ele>
        <time>2012-08-05T14:10:00Z</time>
      </trkpt>
      <trkpt lat="45.91196" lon="6.84735">
        <ele>1019.62</ele>
        <time>2012-08-05T14:10:36Z</time>
      </trkpt>
      <trkpt lat="45.91197" lon="6.84735">
        <ele>1019.13</ele>
        <time>2012-08-05T14:11:03Z</time>
      </trkpt>
      <trkpt lat="45.91195" lon="6.84734">
        <ele>1019.62</ele>
        <time>2012-08-05T14:11:39Z</time>
      </trkpt>
      <trkpt lat="45.91195" lon="6.84733">
        <ele>1020.1</ele>
        <time>2012-08-05T14:12:13Z</time>
      </trkpt>
      <trkpt lat="45.91196" lon="6.84735">
        <ele>1020.58</ele>
        <time>2012-08-05T14:12:50Z</time>
      </trkpt>
      <trkpt lat="45.91195" lon="6.84735">
        <ele>1021.06</ele>
        <time>2012-08-05T14:13:25Z</time>
      </trkpt>
      <trkpt lat="45.91194" lon="6.84736">
        <ele>1021.06</ele>
        <time>2012-08-05T14:14:05Z</time>
      </trkpt>
      <trkpt lat="45.91194" lon="6.84735">
        <ele>1021.54</ele>
        <time>2012-08-05T14:14:40Z</time>
      </trkpt>
      <trkpt lat="45.91193" lon="6.84735">
        <ele>1021.54</ele>
        <time>2012-08-05T14:15:09Z</time>
      </trkpt>
      <trkpt lat="45.91193" lon="6.84735">
        <ele>1022.02</ele>
        <time>2012-08-05T14:15:36Z</time>
      </trkpt>
      <trkpt lat="45.91193" lon="6.84734">
        <ele>1022.02</ele>
        <time>2012-08-05T14:16:06Z</time>
      </trkpt>
      <trkpt lat="45.91194" lon="6.84733">
        <ele>1022.5</ele>
        <time>2012-08-05T14:16:38Z</time>
      </trkpt>
      <trkpt lat="45.91194" lon="6.84734">
        <ele>1022.5</ele>
        <time>2012-08-05T14:17:14Z</time>
      </trkpt>
      <trkpt lat="45.91195" lon="6.84736">
        <ele>1022.5</ele>
        <time>2012-08-05T14:17:45Z</time>
      </trkpt>
      <trkpt lat="45.91195" lon="6.84737">
        <ele>1022.5</ele>
        <time>2012-08-05T14:18:16Z</time>
      </trkpt>
      <trkpt lat="45.91195" lon="6.84736">
        <ele>1022.98</ele>
        <time>2012-08-05T14:18:51Z</time>
      </trkpt>
      <trkpt lat="45.91195" lon="6.84735">
        <ele>1022.98</ele>
        <time>2012-08-05T14:19:27Z</time>
      </trkpt>
      <trkpt lat="45.91194" lon="6.84734">
        <ele>1022.98</ele>
        <time>2012-08-05T14:19:53Z</time>
      </trkpt>
      <trkpt lat="45.91194" lon="6.84736">
        <ele>1023.46</ele>
        <time>2012-08-05T14:20:05Z</time>
      </trkpt>
      <trkpt lat="45.91195" lon="6.84737">
        <ele>1022.98</ele>
        <time>2012-08-05T14:20:37Z</time>
      </trkpt>
      <trkpt lat="45.91194" lon="6.84739">
        <ele>1023.46</ele>
        <time>2012-08-05T14:21:17Z</time>
      </trkpt>
      <trkpt lat="45.91194" lon="6.84739">
        <ele>1023.46</ele>
        <time>2012-08-05T14:21:55Z</time>
      </trkpt>
      <trkpt lat="45.91194" lon="6.84737">
        <ele>1023.46</ele>
        <time>2012-08-05T14:22:33Z</time>
      </trkpt>
      <trkpt lat="45.91193" lon="6.84735">
        <ele>1023.94</ele>
        <time>2012-08-05T14:23:10Z</time>
      </trkpt>
      <trkpt lat="45.91193" lon="6.84736">
        <ele>1023.94</ele>
        <time>2012-08-05T14:23:48Z</time>
      </trkpt>
      <trkpt lat="45.91193" lon="6.84736">
        <ele>1023.46</ele>
        <time>2012-08-05T14:24:20Z</time>
      </trkpt>
      <trkpt lat="45.91194" lon="6.84737">
        <ele>1023.46</ele>
        <time>2012-08-05T14:24:59Z</time>
      </trkpt>
      <trkpt lat="45.91195" lon="6.84736">
        <ele>1023.46</ele>
        <time>2012-08-05T14:25:38Z</time>
      </trkpt>
      <trkpt lat="45.91194" lon="6.84735">
        <ele>1022.98</ele>
        <time>2012-08-05T14:26:17Z</time>
      </trkpt>
      <trkpt lat="45.91195" lon="6.84736">
        <ele>1022.5</ele>
        <time>2012-08-05T14:26:57Z</time>
      </trkpt>
      <trkpt lat="45.91194" lon="6.84738">
        <ele>1022.98</ele>
        <time>2012-08-05T14:27:37Z</time>
      </trkpt>
      <trkpt lat="45.91192" lon="6.84738">
        <ele>1022.98</ele>
        <time>2012-08-05T14:28:13Z</time>
      </trkpt>
      <trkpt lat="45.91194" lon="6.84738">
        <ele>1023.46</ele>
        <time>2012-08-05T14:28:48Z</time>
      </trkpt>
      <trkpt lat="45.91193" lon="6.84737">
        <ele>1022.98</ele>
        <time>2012-08-05T14:29:25Z</time>
      </trkpt>
      <trkpt lat="45.91193" lon="6.84737">
        <ele>1022.98</ele>
        <time>2012-08-05T14:29:59Z</time>
      </trkpt>
      <trkpt lat="45.91193" lon="6.84737">
        <ele>1022.98</ele>
        <time>2012-08-05T14:30:34Z</time>
      </trkpt>
      <trkpt lat="45.91194" lon="6.84737">
        <ele>1022.5</ele>
        <time>2012-08-05T14:31:10Z</time>
      </trkpt>
      <trkpt lat="45.91193" lon="6.84737">
        <ele>1022.02</ele>
        <time>2012-08-05T14:31:42Z</time>
      </trkpt>
      <trkpt lat="45.91193" lon="6.84737">
        <ele>1022.5</ele>
        <time>2012-08-05T14:32:15Z</time>
      </trkpt>
      <trkpt lat="45.91193" lon="6.84736">
        <ele>1022.5</ele>
        <time>2012-08-05T14:32:46Z</time>
      </trkpt>
      <trkpt lat="45.91194" lon="6.84736">
        <ele>1022.02</ele>
        <time>2012-08-05T14:33:23Z</time>
      </trkpt>
      <trkpt lat="45.91195" lon="6.84736">
        <ele>1022.02</ele>
        <time>2012-08-05T14:33:59Z</time>
      </trkpt>
      <trkpt lat="45.91194" lon="6.84736">
        <ele>1022.5</ele>
        <time>2012-08-05T14:34:34Z</time>
      </trkpt>
      <trkpt lat="45.91193" lon="6.84735">
        <ele>1022.5</ele>
        <time>2012-08-05T14:35:12Z</time>
      </trkpt>
      <trkpt lat="45.91191" lon="6.84735">
        <ele>1021.54</ele>
        <time>2012-08-05T14:35:53Z</time>
      </trkpt>
      <trkpt lat="45.91193" lon="6.84734">
        <ele>1022.02</ele>
        <time>2012-08-05T14:36:35Z</time>
      </trkpt>
      <trkpt lat="45.91192" lon="6.84734">
        <ele>1021.06</ele>
        <time>2012-08-05T14:37:18Z</time>
      </trkpt>
      <trkpt lat="45.91194" lon="6.84733">
        <ele>1021.06</ele>
        <time>2012-08-05T14:37:59Z</time>
      </trkpt>
      <trkpt lat="45.91192" lon="6.84735">
        <ele>1021.06</ele>
        <time>2012-08-05T14:38:38Z</time>
      </trkpt>
      <trkpt lat="45.91193" lon="6.84735">
        <ele>1020.1</ele>
        <time>2012-08-05T14:39:14Z</time>
      </trkpt>
      <trkpt lat="45.91194" lon="6.84734">
        <ele>1020.1</ele>
        <time>2012-08-05T14:39:49Z</time>
      </trkpt>
      <trkpt lat="45.91194" lon="6.84736">
        <ele>1020.1</ele>
        <time>2012-08-05T14:40:29Z</time>
      </trkpt>
      <trkpt lat="45.91194" lon="6.84737">
        <ele>1020.58</ele>
        <time>2012-08-05T14:41:07Z</time>
      </trkpt>
      <trkpt lat="45.91194" lon="6.84736">
        <ele>1020.1</ele>
        <time>2012-08-05T14:41:48Z</time>
      </trkpt>
      <trkpt lat="45.91194" lon="6.84736">
        <ele>1020.58</ele>
        <time>2012-08-05T14:42:28Z</time>
      </trkpt>
      <trkpt lat="45.91193" lon="6.84737">
        <ele>1021.06</ele>
        <time>2012-08-05T14:43:10Z</time>
      </trkpt>
      <trkpt lat="45.91193" lon="6.84737">
        <ele>1021.54</ele>
        <time>2012-08-05T14:43:50Z</time>
      </trkpt>
      <trkpt lat="45.91191" lon="6.84736">
        <ele>1021.54</ele>
        <time>2012-08-05T14:44:29Z</time>
      </trkpt>
      <trkpt lat="45.91191" lon="6.84737">
        <ele>1021.54</ele>
        <time>2012-08-05T14:45:12Z</time>
      </trkpt>
      <trkpt lat="45.91192" lon="6.84736">
        <ele>1022.02</ele>
        <time>2012-08-05T14:45:55Z</time>
      </trkpt>
      <trkpt lat="45.91192" lon="6.84735">
        <ele>1022.02</ele>
        <time>2012-08-05T14:46:33Z</time>
      </trkpt>
      <trkpt lat="45.91192" lon="6.84737">
        <ele>1022.02</ele>
        <time>2012-08-05T14:47:10Z</time>
      </trkpt>
      <trkpt lat="45.91193" lon="6.84735">
        <ele>1022.5</ele>
        <time>2012-08-05T14:47:45Z</time>
      </trkpt>
      <trkpt lat="45.91193" lon="6.84735">
        <ele>1022.5</ele>
        <time>2012-08-05T14:48:22Z</time>
      </trkpt>
      <trkpt lat="45.91194" lon="6.84733">
        <ele>1022.98</ele>
        <time>2012-08-05T14:49:02Z</time>
      </trkpt>
      <trkpt lat="45.91193" lon="6.84732">
        <ele>1022.5</ele>
        <time>2012-08-05T14:49:41Z</time>
      </trkpt>
      <trkpt lat="45.91194" lon="6.84734">
        <ele>1022.98</ele>
        <time>2012-08-05T14:50:22Z</time>
      </trkpt>
      <trkpt lat="45.91195" lon="6.84733">
        <ele>1022.5</ele>
        <time>2012-08-05T14:50:56Z</time>
      </trkpt>
      <trkpt lat="45.91218" lon="6.84603">
        <ele>1029.23</ele>
        <time>2012-08-05T14:53:06Z</time>
      </trkpt>
      <trkpt lat="45.91206" lon="6.8459">
        <ele>1029.71</ele>
        <time>2012-08-05T14:53:07Z</time>
      </trkpt>
      <trkpt lat="45.91195" lon="6.8458">
        <ele>1029.71</ele>
        <time>2012-08-05T14:53:08Z</time>
      </trkpt>
      <trkpt lat="45.91183" lon="6.84571">
        <ele>1029.23</ele>
        <time>2012-08-05T14:53:09Z</time>
      </trkpt>
      <trkpt lat="45.91096" lon="6.84455">
        <ele>1028.75</ele>
        <time>2012-08-05T14:53:18Z</time>
      </trkpt>
      <trkpt lat="45.91087" lon="6.84445">
        <ele>1027.79</ele>
        <time>2012-08-05T14:53:19Z</time>
      </trkpt>
      <trkpt lat="45.91077" lon="6.84438">
        <ele>1027.79</ele>
        <time>2012-08-05T14:53:20Z</time>
      </trkpt>
      <trkpt lat="45.91066" lon="6.84433">
        <ele>1024.42</ele>
        <time>2012-08-05T14:53:21Z</time>
      </trkpt>
      <trkpt lat="45.91056" lon="6.84426">
        <ele>1026.83</ele>
        <time>2012-08-05T14:53:22Z</time>
      </trkpt>
      <trkpt lat="45.91045" lon="6.84418">
        <ele>1025.86</ele>
        <time>2012-08-05T14:53:23Z</time>
      </trkpt>
      <trkpt lat="45.91035" lon="6.84408">
        <ele>1026.34</ele>
        <time>2012-08-05T14:53:24Z</time>
      </trkpt>
      <trkpt lat="45.91026" lon="6.84396">
        <ele>1026.34</ele>
        <time>2012-08-05T14:53:25Z</time>
      </trkpt>
      <trkpt lat="45.91017" lon="6.84383">
        <ele>1026.83</ele>
        <time>2012-08-05T14:53:26Z</time>
      </trkpt>
      <trkpt lat="45.91008" lon="6.84369">
        <ele>1025.38</ele>
        <time>2012-08-05T14:53:27Z</time>
      </trkpt>
      <trkpt lat="45.90999" lon="6.84358">
        <ele>1025.38</ele>
        <time>2012-08-05T14:53:28Z</time>
      </trkpt>
      <trkpt lat="45.9099" lon="6.8435">
        <ele>1024.42</ele>
        <time>2012-08-05T14:53:29Z</time>
      </trkpt>
      <trkpt lat="45.9098" lon="6.84346">
        <ele>1023.94</ele>
        <time>2012-08-05T14:53:30Z</time>
      </trkpt>
      <trkpt lat="45.90969" lon="6.84347">
        <ele>1022.5</ele>
        <time>2012-08-05T14:53:31Z</time>
      </trkpt>
      <trkpt lat="45.90957" lon="6.8435">
        <ele>1024.42</ele>
        <time>2012-08-05T14:53:32Z</time>
      </trkpt>
      <trkpt lat="45.90944" lon="6.84355">
        <ele>1023.46</ele>
        <time>2012-08-05T14:53:33Z</time>
      </trkpt>
      <trkpt lat="45.90932" lon="6.84357">
        <ele>1022.98</ele>
        <time>2012-08-05T14:53:34Z</time>
      </trkpt>
      <trkpt lat="45.90919" lon="6.84355">
        <ele>1022.5</ele>
        <time>2012-08-05T14:53:35Z</time>
      </trkpt>
      <trkpt lat="45.90907" lon="6.8435">
        <ele>1022.98</ele>
        <time>2012-08-05T14:53:36Z</time>
      </trkpt>
      <trkpt lat="45.90895" lon="6.84341">
        <ele>1022.98</ele>
        <time>2012-08-05T14:53:37Z</time>
      </trkpt>
      <trkpt lat="45.90884" lon="6.84329">
        <ele>1022.98</ele>
        <time>2012-08-05T14:53:38Z</time>
      </trkpt>
      <trkpt lat="45.90874" lon="6.84314">
        <ele>1022.98</ele>
        <time>2012-08-05T14:53:39Z</time>
      </trkpt>
      <trkpt lat="45.90864" lon="6.84299">
        <ele>1023.46</ele>
        <time>2012-08-05T14:53:40Z</time>
      </trkpt>
      <trkpt lat="45.90741" lon="6.84096">
        <ele>1021.54</ele>
        <time>2012-08-05T14:53:52Z</time>
      </trkpt>
      <trkpt lat="45.9072" lon="6.84064">
        <ele>1020.58</ele>
        <time>2012-08-05T14:53:54Z</time>
      </trkpt>
      <trkpt lat="45.90677" lon="6.83994">
        <ele>1017.21</ele>
        <time>2012-08-05T14:53:59Z</time>
      </trkpt>
      <trkpt lat="45.90641" lon="6.83933">
        <ele>1015.29</ele>
        <time>2012-08-05T14:54:04Z</time>
      </trkpt>
      <trkpt lat="45.90571" lon="6.83801">
        <ele>1013.85</ele>
        <time>2012-08-05T14:54:14Z</time>
      </trkpt>
      <trkpt lat="45.905" lon="6.83642">
        <ele>1011.44</ele>
        <time>2012-08-05T14:54:25Z</time>
      </trkpt>
      <trkpt lat="45.90446" lon="6.83528">
        <ele>1007.6</ele>
        <time>2012-08-05T14:54:34Z</time>
      </trkpt>
      <trkpt lat="45.9044" lon="6.83518">
        <ele>1007.12</ele>
        <time>2012-08-05T14:54:35Z</time>
      </trkpt>
      <trkpt lat="45.90422" lon="6.83482">
        <ele>1006.16</ele>
        <time>2012-08-05T14:54:40Z</time>
      </trkpt>
      <trkpt lat="45.90413" lon="6.8346">
        <ele>1005.68</ele>
        <time>2012-08-05T14:54:47Z</time>
      </trkpt>
      <trkpt lat="45.904" lon="6.83435">
        <ele>1006.16</ele>
        <time>2012-08-05T14:54:54Z</time>
      </trkpt>
      <trkpt lat="45.9036" lon="6.83338">
        <ele>1007.6</ele>
        <time>2012-08-05T14:55:03Z</time>
      </trkpt>
      <trkpt lat="45.903" lon="6.83186">
        <ele>1007.6</ele>
        <time>2012-08-05T14:55:12Z</time>
      </trkpt>
      <trkpt lat="45.90215" lon="6.82984">
        <ele>1006.16</ele>
        <time>2012-08-05T14:55:23Z</time>
      </trkpt>
      <trkpt lat="45.90205" lon="6.82968">
        <ele>1006.16</ele>
        <time>2012-08-05T14:55:24Z</time>
      </trkpt>
      <trkpt lat="45.90193" lon="6.82953">
        <ele>1006.16</ele>
        <time>2012-08-05T14:55:25Z</time>
      </trkpt>
      <trkpt lat="45.9018" lon="6.8294">
        <ele>1006.64</ele>
        <time>2012-08-05T14:55:26Z</time>
      </trkpt>
      <trkpt lat="45.90165" lon="6.82929">
        <ele>1006.16</ele>
        <time>2012-08-05T14:55:27Z</time>
      </trkpt>
      <trkpt lat="45.9015" lon="6.82919">
        <ele>1006.64</ele>
        <time>2012-08-05T14:55:28Z</time>
      </trkpt>
      <trkpt lat="45.90134" lon="6.8291">
        <ele>1006.16</ele>
        <time>2012-08-05T14:55:29Z</time>
      </trkpt>
      <trkpt lat="45.90071" lon="6.82871">
        <ele>1005.68</ele>
        <time>2012-08-05T14:55:33Z</time>
      </trkpt>
      <trkpt lat="45.90056" lon="6.82858">
        <ele>1005.68</ele>
        <time>2012-08-05T14:55:34Z</time>
      </trkpt>
      <trkpt lat="45.90043" lon="6.82844">
        <ele>1006.16</ele>
        <time>2012-08-05T14:55:35Z</time>
      </trkpt>
      <trkpt lat="45.90031" lon="6.82829">
        <ele>1006.64</ele>
        <time>2012-08-05T14:55:36Z</time>
      </trkpt>
      <trkpt lat="45.90019" lon="6.82813">
        <ele>1004.72</ele>
        <time>2012-08-05T14:55:37Z</time>
      </trkpt>
      <trkpt lat="45.90008" lon="6.82797">
        <ele>1007.12</ele>
        <time>2012-08-05T14:55:38Z</time>
      </trkpt>
      <trkpt lat="45.89972" lon="6.82722">
        <ele>1008.56</ele>
        <time>2012-08-05T14:55:42Z</time>
      </trkpt>
      <trkpt lat="45.89861" lon="6.82504">
        <ele>1010</ele>
        <time>2012-08-05T14:55:53Z</time>
      </trkpt>
      <trkpt lat="45.8984" lon="6.82459">
        <ele>1009.04</ele>
        <time>2012-08-05T14:55:55Z</time>
      </trkpt>
      <trkpt lat="45.89784" lon="6.82306">
        <ele>1004.72</ele>
        <time>2012-08-05T14:56:02Z</time>
      </trkpt>
      <trkpt lat="45.89777" lon="6.82287">
        <ele>1005.2</ele>
        <time>2012-08-05T14:56:03Z</time>
      </trkpt>
      <trkpt lat="45.89736" lon="6.82171">
        <ele>1004.23</ele>
        <time>2012-08-05T14:56:10Z</time>
      </trkpt>
      <trkpt lat="45.89733" lon="6.82156">
        <ele>1004.23</ele>
        <time>2012-08-05T14:56:11Z</time>
      </trkpt>
      <trkpt lat="45.89729" lon="6.82143">
        <ele>1004.23</ele>
        <time>2012-08-05T14:56:12Z</time>
      </trkpt>
      <trkpt lat="45.89723" lon="6.82126">
        <ele>1003.27</ele>
        <time>2012-08-05T14:56:14Z</time>
      </trkpt>
      <trkpt lat="45.89721" lon="6.82117">
        <ele>1003.27</ele>
        <time>2012-08-05T14:56:15Z</time>
      </trkpt>
      <trkpt lat="45.8972" lon="6.82109">
        <ele>1003.75</ele>
        <time>2012-08-05T14:56:16Z</time>
      </trkpt>
      <trkpt lat="45.89709" lon="6.8203">
        <ele>1003.75</ele>
        <time>2012-08-05T14:56:24Z</time>
      </trkpt>
      <trkpt lat="45.89717" lon="6.81922">
        <ele>1005.2</ele>
        <time>2012-08-05T14:56:33Z</time>
      </trkpt>
      <trkpt lat="45.8975" lon="6.81765">
        <ele>1005.68</ele>
        <time>2012-08-05T14:56:41Z</time>
      </trkpt>
      <trkpt lat="45.89752" lon="6.81745">
        <ele>1005.68</ele>
        <time>2012-08-05T14:56:42Z</time>
      </trkpt>
      <trkpt lat="45.89753" lon="6.81726">
        <ele>1005.68</ele>
        <time>2012-08-05T14:56:43Z</time>
      </trkpt>
      <trkpt lat="45.89752" lon="6.81706">
        <ele>1005.2</ele>
        <time>2012-08-05T14:56:44Z</time>
      </trkpt>
      <trkpt lat="45.89748" lon="6.81686">
        <ele>1004.72</ele>
        <time>2012-08-05T14:56:45Z</time>
      </trkpt>
      <trkpt lat="45.89743" lon="6.81667">
        <ele>1004.72</ele>
        <time>2012-08-05T14:56:46Z</time>
      </trkpt>
      <trkpt lat="45.89737" lon="6.81648">
        <ele>1004.72</ele>
        <time>2012-08-05T14:56:47Z</time>
      </trkpt>
      <trkpt lat="45.89726" lon="6.81611">
        <ele>1004.23</ele>
        <time>2012-08-05T14:56:49Z</time>
      </trkpt>
      <trkpt lat="45.89723" lon="6.81593">
        <ele>1003.75</ele>
        <time>2012-08-05T14:56:50Z</time>
      </trkpt>
      <trkpt lat="45.89702" lon="6.8142">
        <ele>1002.79</ele>
        <time>2012-08-05T14:57:00Z</time>
      </trkpt>
      <trkpt lat="45.89707" lon="6.81264">
        <ele>1004.72</ele>
        <time>2012-08-05T14:57:08Z</time>
      </trkpt>
      <trkpt lat="45.89706" lon="6.81224">
        <ele>1004.72</ele>
        <time>2012-08-05T14:57:10Z</time>
      </trkpt>
      <trkpt lat="45.89705" lon="6.81205">
        <ele>1004.72</ele>
        <time>2012-08-05T14:57:11Z</time>
      </trkpt>
      <trkpt lat="45.8969" lon="6.81137">
        <ele>1005.2</ele>
        <time>2012-08-05T14:57:15Z</time>
      </trkpt>
      <trkpt lat="45.89684" lon="6.81121">
        <ele>1004.23</ele>
        <time>2012-08-05T14:57:16Z</time>
      </trkpt>
      <trkpt lat="45.89677" lon="6.81107">
        <ele>1004.72</ele>
        <time>2012-08-05T14:57:17Z</time>
      </trkpt>
      <trkpt lat="45.89652" lon="6.81062">
        <ele>1002.79</ele>
        <time>2012-08-05T14:57:21Z</time>
      </trkpt>
      <trkpt lat="45.89627" lon="6.81013">
        <ele>1001.35</ele>
        <time>2012-08-05T14:57:27Z</time>
      </trkpt>
      <trkpt lat="45.89597" lon="6.80895">
        <ele>999.91</ele>
        <time>2012-08-05T14:57:37Z</time>
      </trkpt>
      <trkpt lat="45.89589" lon="6.80756">
        <ele>997.99</ele>
        <time>2012-08-05T14:57:47Z</time>
      </trkpt>
      <trkpt lat="45.89582" lon="6.80624">
        <ele>995.58</ele>
        <time>2012-08-05T14:57:58Z</time>
      </trkpt>
      <trkpt lat="45.89578" lon="6.80572">
        <ele>994.62</ele>
        <time>2012-08-05T14:58:02Z</time>
      </trkpt>
      <trkpt lat="45.89569" lon="6.80473">
        <ele>993.18</ele>
        <time>2012-08-05T14:58:10Z</time>
      </trkpt>
      <trkpt lat="45.89567" lon="6.80466">
        <ele>993.66</ele>
        <time>2012-08-05T14:58:11Z</time>
      </trkpt>
      <trkpt lat="45.89562" lon="6.80461">
        <ele>994.14</ele>
        <time>2012-08-05T14:58:12Z</time>
      </trkpt>
      <trkpt lat="45.89551" lon="6.80451">
        <ele>994.62</ele>
        <time>2012-08-05T14:58:14Z</time>
      </trkpt>
      <trkpt lat="45.89546" lon="6.80442">
        <ele>995.58</ele>
        <time>2012-08-05T14:58:15Z</time>
      </trkpt>
      <trkpt lat="45.89542" lon="6.8043">
        <ele>995.58</ele>
        <time>2012-08-05T14:58:16Z</time>
      </trkpt>
      <trkpt lat="45.89523" lon="6.80378">
        <ele>997.51</ele>
        <time>2012-08-05T14:58:20Z</time>
      </trkpt>
      <trkpt lat="45.89446" lon="6.80203">
        <ele>999.91</ele>
        <time>2012-08-05T14:58:33Z</time>
      </trkpt>
      <trkpt lat="45.89392" lon="6.80131">
        <ele>999.91</ele>
        <time>2012-08-05T14:58:41Z</time>
      </trkpt>
      <trkpt lat="45.89307" lon="6.80049">
        <ele>1002.79</ele>
        <time>2012-08-05T14:58:51Z</time>
      </trkpt>
      <trkpt lat="45.89258" lon="6.80003">
        <ele>1004.23</ele>
        <time>2012-08-05T14:58:57Z</time>
      </trkpt>
      <trkpt lat="45.89253" lon="6.79992">
        <ele>1004.72</ele>
        <time>2012-08-05T14:58:58Z</time>
      </trkpt>
      <trkpt lat="45.89251" lon="6.7998">
        <ele>1004.72</ele>
        <time>2012-08-05T14:58:59Z</time>
      </trkpt>
      <trkpt lat="45.8925" lon="6.79966">
        <ele>1005.2</ele>
        <time>2012-08-05T14:59:00Z</time>
      </trkpt>
      <trkpt lat="45.89246" lon="6.79952">
        <ele>1004.72</ele>
        <time>2012-08-05T14:59:01Z</time>
      </trkpt>
      <trkpt lat="45.89242" lon="6.7994">
        <ele>1003.27</ele>
        <time>2012-08-05T14:59:02Z</time>
      </trkpt>
      <trkpt lat="45.8924" lon="6.79929">
        <ele>1002.31</ele>
        <time>2012-08-05T14:59:03Z</time>
      </trkpt>
      <trkpt lat="45.89241" lon="6.79918">
        <ele>1001.35</ele>
        <time>2012-08-05T14:59:04Z</time>
      </trkpt>
      <trkpt lat="45.89245" lon="6.79909">
        <ele>1000.39</ele>
        <time>2012-08-05T14:59:05Z</time>
      </trkpt>
      <trkpt lat="45.89249" lon="6.79901">
        <ele>999.91</ele>
        <time>2012-08-05T14:59:06Z</time>
      </trkpt>
      <trkpt lat="45.89253" lon="6.79897">
        <ele>998.95</ele>
        <time>2012-08-05T14:59:07Z</time>
      </trkpt>
      <trkpt lat="45.89256" lon="6.79896">
        <ele>997.99</ele>
        <time>2012-08-05T14:59:08Z</time>
      </trkpt>
      <trkpt lat="45.89257" lon="6.79898">
        <ele>997.99</ele>
        <time>2012-08-05T14:59:09Z</time>
      </trkpt>
      <trkpt lat="45.8926" lon="6.79901">
        <ele>996.54</ele>
        <time>2012-08-05T14:59:10Z</time>
      </trkpt>
      <trkpt lat="45.89262" lon="6.79905">
        <ele>995.58</ele>
        <time>2012-08-05T14:59:11Z</time>
      </trkpt>
      <trkpt lat="45.89265" lon="6.7991">
        <ele>994.62</ele>
        <time>2012-08-05T14:59:12Z</time>
      </trkpt>
      <trkpt lat="45.89271" lon="6.79917">
        <ele>993.18</ele>
        <time>2012-08-05T14:59:13Z</time>
      </trkpt>
      <trkpt lat="45.8928" lon="6.79925">
        <ele>992.22</ele>
        <time>2012-08-05T14:59:14Z</time>
      </trkpt>
      <trkpt lat="45.8929" lon="6.7993">
        <ele>991.26</ele>
        <time>2012-08-05T14:59:15Z</time>
      </trkpt>
      <trkpt lat="45.893" lon="6.7993">
        <ele>991.26</ele>
        <time>2012-08-05T14:59:16Z</time>
      </trkpt>
      <trkpt lat="45.8931" lon="6.79926">
        <ele>990.3</ele>
        <time>2012-08-05T14:59:17Z</time>
      </trkpt>
      <trkpt lat="45.8932" lon="6.79921">
        <ele>989.81</ele>
        <time>2012-08-05T14:59:18Z</time>
      </trkpt>
      <trkpt lat="45.89334" lon="6.79916">
        <ele>988.37</ele>
        <time>2012-08-05T14:59:19Z</time>
      </trkpt>
      <trkpt lat="45.89342" lon="6.79905">
        <ele>987.41</ele>
        <time>2012-08-05T14:59:20Z</time>
      </trkpt>
      <trkpt lat="45.89358" lon="6.79884">
        <ele>984.05</ele>
        <time>2012-08-05T14:59:22Z</time>
      </trkpt>
      <trkpt lat="45.89362" lon="6.79875">
        <ele>982.6</ele>
        <time>2012-08-05T14:59:23Z</time>
      </trkpt>
      <trkpt lat="45.89365" lon="6.79868">
        <ele>982.6</ele>
        <time>2012-08-05T14:59:24Z</time>
      </trkpt>
      <trkpt lat="45.89364" lon="6.79859">
        <ele>981.64</ele>
        <time>2012-08-05T14:59:25Z</time>
      </trkpt>
      <trkpt lat="45.89361" lon="6.7985">
        <ele>982.12</ele>
        <time>2012-08-05T14:59:26Z</time>
      </trkpt>
      <trkpt lat="45.89355" lon="6.7984">
        <ele>982.12</ele>
        <time>2012-08-05T14:59:27Z</time>
      </trkpt>
      <trkpt lat="45.89348" lon="6.79831">
        <ele>981.64</ele>
        <time>2012-08-05T14:59:28Z</time>
      </trkpt>
      <trkpt lat="45.89339" lon="6.79824">
        <ele>980.68</ele>
        <time>2012-08-05T14:59:29Z</time>
      </trkpt>
      <trkpt lat="45.89329" lon="6.79821">
        <ele>980.68</ele>
        <time>2012-08-05T14:59:30Z</time>
      </trkpt>
      <trkpt lat="45.89318" lon="6.79822">
        <ele>980.2</ele>
        <time>2012-08-05T14:59:31Z</time>
      </trkpt>
      <trkpt lat="45.89308" lon="6.79826">
        <ele>979.72</ele>
        <time>2012-08-05T14:59:32Z</time>
      </trkpt>
      <trkpt lat="45.89297" lon="6.79827">
        <ele>978.76</ele>
        <time>2012-08-05T14:59:33Z</time>
      </trkpt>
      <trkpt lat="45.89287" lon="6.79823">
        <ele>978.28</ele>
        <time>2012-08-05T14:59:34Z</time>
      </trkpt>
      <trkpt lat="45.89277" lon="6.79812">
        <ele>978.28</ele>
        <time>2012-08-05T14:59:35Z</time>
      </trkpt>
      <trkpt lat="45.89268" lon="6.79797">
        <ele>979.24</ele>
        <time>2012-08-05T14:59:36Z</time>
      </trkpt>
      <trkpt lat="45.89259" lon="6.79778">
        <ele>979.24</ele>
        <time>2012-08-05T14:59:37Z</time>
      </trkpt>
      <trkpt lat="45.89213" lon="6.7968">
        <ele>975.88</ele>
        <time>2012-08-05T14:59:42Z</time>
      </trkpt>
      <trkpt lat="45.89205" lon="6.79663">
        <ele>975.88</ele>
        <time>2012-08-05T14:59:43Z</time>
      </trkpt>
      <trkpt lat="45.89161" lon="6.79544">
        <ele>974.43</ele>
        <time>2012-08-05T14:59:50Z</time>
      </trkpt>
      <trkpt lat="45.89136" lon="6.79377">
        <ele>972.03</ele>
        <time>2012-08-05T14:59:56Z</time>
      </trkpt>
      <trkpt lat="45.89156" lon="6.792">
        <ele>969.15</ele>
        <time>2012-08-05T15:00:02Z</time>
      </trkpt>
      <trkpt lat="45.89197" lon="6.79086">
        <ele>967.7</ele>
        <time>2012-08-05T15:00:06Z</time>
      </trkpt>
      <trkpt lat="45.89257" lon="6.7898">
        <ele>964.34</ele>
        <time>2012-08-05T15:00:10Z</time>
      </trkpt>
      <trkpt lat="45.89288" lon="6.78926">
        <ele>961.46</ele>
        <time>2012-08-05T15:00:12Z</time>
      </trkpt>
      <trkpt lat="45.89319" lon="6.78874">
        <ele>958.09</ele>
        <time>2012-08-05T15:00:14Z</time>
      </trkpt>
      <trkpt lat="45.89352" lon="6.7883">
        <ele>955.69</ele>
        <time>2012-08-05T15:00:16Z</time>
      </trkpt>
      <trkpt lat="45.8937" lon="6.78811">
        <ele>953.77</ele>
        <time>2012-08-05T15:00:17Z</time>
      </trkpt>
      <trkpt lat="45.89389" lon="6.78795">
        <ele>952.8</ele>
        <time>2012-08-05T15:00:18Z</time>
      </trkpt>
      <trkpt lat="45.89411" lon="6.78782">
        <ele>951.84</ele>
        <time>2012-08-05T15:00:19Z</time>
      </trkpt>
      <trkpt lat="45.89433" lon="6.78771">
        <ele>950.4</ele>
        <time>2012-08-05T15:00:20Z</time>
      </trkpt>
      <trkpt lat="45.89455" lon="6.78764">
        <ele>948.48</ele>
        <time>2012-08-05T15:00:21Z</time>
      </trkpt>
      <trkpt lat="45.89477" lon="6.78759">
        <ele>947.04</ele>
        <time>2012-08-05T15:00:22Z</time>
      </trkpt>
      <trkpt lat="45.89538" lon="6.7874">
        <ele>944.15</ele>
        <time>2012-08-05T15:00:25Z</time>
      </trkpt>
      <trkpt lat="45.89557" lon="6.7873">
        <ele>943.67</ele>
        <time>2012-08-05T15:00:26Z</time>
      </trkpt>
      <trkpt lat="45.89576" lon="6.78718">
        <ele>944.15</ele>
        <time>2012-08-05T15:00:27Z</time>
      </trkpt>
      <trkpt lat="45.89627" lon="6.78674">
        <ele>943.67</ele>
        <time>2012-08-05T15:00:30Z</time>
      </trkpt>
      <trkpt lat="45.89657" lon="6.7864">
        <ele>943.19</ele>
        <time>2012-08-05T15:00:32Z</time>
      </trkpt>
      <trkpt lat="45.89686" lon="6.78612">
        <ele>941.27</ele>
        <time>2012-08-05T15:00:34Z</time>
      </trkpt>
      <trkpt lat="45.897" lon="6.78599">
        <ele>941.75</ele>
        <time>2012-08-05T15:00:35Z</time>
      </trkpt>
      <trkpt lat="45.89745" lon="6.78554">
        <ele>941.75</ele>
        <time>2012-08-05T15:00:38Z</time>
      </trkpt>
      <trkpt lat="45.89757" lon="6.78535">
        <ele>942.23</ele>
        <time>2012-08-05T15:00:39Z</time>
      </trkpt>
      <trkpt lat="45.89768" lon="6.78515">
        <ele>941.27</ele>
        <time>2012-08-05T15:00:40Z</time>
      </trkpt>
      <trkpt lat="45.8981" lon="6.78417">
        <ele>939.83</ele>
        <time>2012-08-05T15:00:45Z</time>
      </trkpt>
      <trkpt lat="45.89821" lon="6.78403">
        <ele>939.83</ele>
        <time>2012-08-05T15:00:46Z</time>
      </trkpt>
      <trkpt lat="45.89833" lon="6.78391">
        <ele>939.35</ele>
        <time>2012-08-05T15:00:47Z</time>
      </trkpt>
      <trkpt lat="45.89847" lon="6.78382">
        <ele>938.86</ele>
        <time>2012-08-05T15:00:48Z</time>
      </trkpt>
      <trkpt lat="45.89862" lon="6.78373">
        <ele>938.38</ele>
        <time>2012-08-05T15:00:49Z</time>
      </trkpt>
      <trkpt lat="45.89875" lon="6.78365">
        <ele>937.9</ele>
        <time>2012-08-05T15:00:50Z</time>
      </trkpt>
      <trkpt lat="45.89889" lon="6.78355">
        <ele>938.86</ele>
        <time>2012-08-05T15:00:51Z</time>
      </trkpt>
      <trkpt lat="45.89901" lon="6.78343">
        <ele>937.9</ele>
        <time>2012-08-05T15:00:52Z</time>
      </trkpt>
      <trkpt lat="45.89913" lon="6.7833">
        <ele>937.42</ele>
        <time>2012-08-05T15:00:53Z</time>
      </trkpt>
      <trkpt lat="45.89926" lon="6.78317">
        <ele>936.94</ele>
        <time>2012-08-05T15:00:54Z</time>
      </trkpt>
      <trkpt lat="45.89938" lon="6.78307">
        <ele>936.94</ele>
        <time>2012-08-05T15:00:55Z</time>
      </trkpt>
      <trkpt lat="45.89951" lon="6.783">
        <ele>937.9</ele>
        <time>2012-08-05T15:00:56Z</time>
      </trkpt>
      <trkpt lat="45.89965" lon="6.78293">
        <ele>937.42</ele>
        <time>2012-08-05T15:00:57Z</time>
      </trkpt>
      <trkpt lat="45.89977" lon="6.78284">
        <ele>937.42</ele>
        <time>2012-08-05T15:00:58Z</time>
      </trkpt>
      <trkpt lat="45.90009" lon="6.78253">
        <ele>937.9</ele>
        <time>2012-08-05T15:01:01Z</time>
      </trkpt>
      <trkpt lat="45.90103" lon="6.78134">
        <ele>939.83</ele>
        <time>2012-08-05T15:01:10Z</time>
      </trkpt>
      <trkpt lat="45.90169" lon="6.77981">
        <ele>940.79</ele>
        <time>2012-08-05T15:01:18Z</time>
      </trkpt>
      <trkpt lat="45.90285" lon="6.77832">
        <ele>939.35</ele>
        <time>2012-08-05T15:01:27Z</time>
      </trkpt>
      <trkpt lat="45.90388" lon="6.77741">
        <ele>935.98</ele>
        <time>2012-08-05T15:01:33Z</time>
      </trkpt>
      <trkpt lat="45.90423" lon="6.77714">
        <ele>934.54</ele>
        <time>2012-08-05T15:01:35Z</time>
      </trkpt>
      <trkpt lat="45.90492" lon="6.77659">
        <ele>931.17</ele>
        <time>2012-08-05T15:01:39Z</time>
      </trkpt>
      <trkpt lat="45.90525" lon="6.77634">
        <ele>929.73</ele>
        <time>2012-08-05T15:01:41Z</time>
      </trkpt>
      <trkpt lat="45.90612" lon="6.77572">
        <ele>927.33</ele>
        <time>2012-08-05T15:01:46Z</time>
      </trkpt>
      <trkpt lat="45.90629" lon="6.77556">
        <ele>926.85</ele>
        <time>2012-08-05T15:01:47Z</time>
      </trkpt>
      <trkpt lat="45.90674" lon="6.775">
        <ele>923.96</ele>
        <time>2012-08-05T15:01:50Z</time>
      </trkpt>
      <trkpt lat="45.9073" lon="6.77425">
        <ele>921.56</ele>
        <time>2012-08-05T15:01:54Z</time>
      </trkpt>
      <trkpt lat="45.90747" lon="6.7741">
        <ele>921.08</ele>
        <time>2012-08-05T15:01:55Z</time>
      </trkpt>
      <trkpt lat="45.90765" lon="6.77398">
        <ele>919.64</ele>
        <time>2012-08-05T15:01:56Z</time>
      </trkpt>
      <trkpt lat="45.90784" lon="6.77387">
        <ele>918.68</ele>
        <time>2012-08-05T15:01:57Z</time>
      </trkpt>
      <trkpt lat="45.90804" lon="6.77379">
        <ele>916.27</ele>
        <time>2012-08-05T15:01:58Z</time>
      </trkpt>
      <trkpt lat="45.90825" lon="6.77373">
        <ele>915.79</ele>
        <time>2012-08-05T15:01:59Z</time>
      </trkpt>
      <trkpt lat="45.90847" lon="6.77371">
        <ele>915.31</ele>
        <time>2012-08-05T15:02:00Z</time>
      </trkpt>
      <trkpt lat="45.90869" lon="6.77372">
        <ele>913.87</ele>
        <time>2012-08-05T15:02:01Z</time>
      </trkpt>
      <trkpt lat="45.9089" lon="6.77375">
        <ele>911.95</ele>
        <time>2012-08-05T15:02:02Z</time>
      </trkpt>
      <trkpt lat="45.90912" lon="6.77381">
        <ele>910.51</ele>
        <time>2012-08-05T15:02:03Z</time>
      </trkpt>
      <trkpt lat="45.90933" lon="6.7739">
        <ele>908.58</ele>
        <time>2012-08-05T15:02:04Z</time>
      </trkpt>
      <trkpt lat="45.90954" lon="6.77399">
        <ele>907.14</ele>
        <time>2012-08-05T15:02:05Z</time>
      </trkpt>
      <trkpt lat="45.91016" lon="6.77421">
        <ele>903.78</ele>
        <time>2012-08-05T15:02:08Z</time>
      </trkpt>
      <trkpt lat="45.91079" lon="6.77425">
        <ele>900.89</ele>
        <time>2012-08-05T15:02:11Z</time>
      </trkpt>
      <trkpt lat="45.911" lon="6.77421">
        <ele>899.45</ele>
        <time>2012-08-05T15:02:12Z</time>
      </trkpt>
      <trkpt lat="45.91121" lon="6.77414">
        <ele>898.01</ele>
        <time>2012-08-05T15:02:13Z</time>
      </trkpt>
      <trkpt lat="45.91142" lon="6.77405">
        <ele>896.09</ele>
        <time>2012-08-05T15:02:14Z</time>
      </trkpt>
      <trkpt lat="45.91163" lon="6.77393">
        <ele>895.12</ele>
        <time>2012-08-05T15:02:15Z</time>
      </trkpt>
      <trkpt lat="45.91183" lon="6.77377">
        <ele>893.68</ele>
        <time>2012-08-05T15:02:16Z</time>
      </trkpt>
      <trkpt lat="45.91202" lon="6.77361">
        <ele>892.72</ele>
        <time>2012-08-05T15:02:17Z</time>
      </trkpt>
      <trkpt lat="45.91258" lon="6.77307">
        <ele>888.4</ele>
        <time>2012-08-05T15:02:20Z</time>
      </trkpt>
      <trkpt lat="45.91362" lon="6.772">
        <ele>885.51</ele>
        <time>2012-08-05T15:02:26Z</time>
      </trkpt>
      <trkpt lat="45.91392" lon="6.77157">
        <ele>882.15</ele>
        <time>2012-08-05T15:02:28Z</time>
      </trkpt>
      <trkpt lat="45.91444" lon="6.77052">
        <ele>878.3</ele>
        <time>2012-08-05T15:02:32Z</time>
      </trkpt>
      <trkpt lat="45.91474" lon="6.76938">
        <ele>873.98</ele>
        <time>2012-08-05T15:02:36Z</time>
      </trkpt>
      <trkpt lat="45.91486" lon="6.76848">
        <ele>869.65</ele>
        <time>2012-08-05T15:02:39Z</time>
      </trkpt>
      <trkpt lat="45.91495" lon="6.76756">
        <ele>867.73</ele>
        <time>2012-08-05T15:02:42Z</time>
      </trkpt>
      <trkpt lat="45.91505" lon="6.76667">
        <ele>864.36</ele>
        <time>2012-08-05T15:02:45Z</time>
      </trkpt>
      <trkpt lat="45.91527" lon="6.76582">
        <ele>861.96</ele>
        <time>2012-08-05T15:02:48Z</time>
      </trkpt>
      <trkpt lat="45.91537" lon="6.76556">
        <ele>860.52</ele>
        <time>2012-08-05T15:02:49Z</time>
      </trkpt>
      <trkpt lat="45.9155" lon="6.76531">
        <ele>859.08</ele>
        <time>2012-08-05T15:02:50Z</time>
      </trkpt>
      <trkpt lat="45.91565" lon="6.76509">
        <ele>858.59</ele>
        <time>2012-08-05T15:02:51Z</time>
      </trkpt>
      <trkpt lat="45.9158" lon="6.76488">
        <ele>857.15</ele>
        <time>2012-08-05T15:02:52Z</time>
      </trkpt>
      <trkpt lat="45.91598" lon="6.7647">
        <ele>856.19</ele>
        <time>2012-08-05T15:02:53Z</time>
      </trkpt>
      <trkpt lat="45.91617" lon="6.76454">
        <ele>855.23</ele>
        <time>2012-08-05T15:02:54Z</time>
      </trkpt>
      <trkpt lat="45.91637" lon="6.76441">
        <ele>854.75</ele>
        <time>2012-08-05T15:02:55Z</time>
      </trkpt>
      <trkpt lat="45.91657" lon="6.7643">
        <ele>854.27</ele>
        <time>2012-08-05T15:02:56Z</time>
      </trkpt>
      <trkpt lat="45.91678" lon="6.76422">
        <ele>853.31</ele>
        <time>2012-08-05T15:02:57Z</time>
      </trkpt>
      <trkpt lat="45.917" lon="6.76415">
        <ele>852.83</ele>
        <time>2012-08-05T15:02:58Z</time>
      </trkpt>
      <trkpt lat="45.91802" lon="6.76378">
        <ele>849.94</ele>
        <time>2012-08-05T15:03:03Z</time>
      </trkpt>
      <trkpt lat="45.9186" lon="6.76351">
        <ele>847.54</ele>
        <time>2012-08-05T15:03:06Z</time>
      </trkpt>
      <trkpt lat="45.91975" lon="6.76328">
        <ele>844.66</ele>
        <time>2012-08-05T15:03:12Z</time>
      </trkpt>
      <trkpt lat="45.92054" lon="6.7632">
        <ele>843.21</ele>
        <time>2012-08-05T15:03:16Z</time>
      </trkpt>
      <trkpt lat="45.92112" lon="6.76313">
        <ele>841.29</ele>
        <time>2012-08-05T15:03:19Z</time>
      </trkpt>
      <trkpt lat="45.92187" lon="6.76305">
        <ele>837.93</ele>
        <time>2012-08-05T15:03:23Z</time>
      </trkpt>
      <trkpt lat="45.92306" lon="6.76288">
        <ele>833.12</ele>
        <time>2012-08-05T15:03:29Z</time>
      </trkpt>
      <trkpt lat="45.92364" lon="6.76275">
        <ele>829.76</ele>
        <time>2012-08-05T15:03:32Z</time>
      </trkpt>
      <trkpt lat="45.92421" lon="6.76259">
        <ele>826.87</ele>
        <time>2012-08-05T15:03:35Z</time>
      </trkpt>
      <trkpt lat="45.92477" lon="6.7624">
        <ele>823.51</ele>
        <time>2012-08-05T15:03:38Z</time>
      </trkpt>
      <trkpt lat="45.92496" lon="6.76233">
        <ele>823.03</ele>
        <time>2012-08-05T15:03:39Z</time>
      </trkpt>
      <trkpt lat="45.92513" lon="6.76224">
        <ele>822.55</ele>
        <time>2012-08-05T15:03:40Z</time>
      </trkpt>
      <trkpt lat="45.92626" lon="6.76127">
        <ele>823.03</ele>
        <time>2012-08-05T15:03:47Z</time>
      </trkpt>
      <trkpt lat="45.92707" lon="6.75972">
        <ele>822.06</ele>
        <time>2012-08-05T15:03:54Z</time>
      </trkpt>
      <trkpt lat="45.92749" lon="6.75847">
        <ele>821.1</ele>
        <time>2012-08-05T15:03:59Z</time>
      </trkpt>
      <trkpt lat="45.92784" lon="6.75733">
        <ele>820.14</ele>
        <time>2012-08-05T15:04:04Z</time>
      </trkpt>
      <trkpt lat="45.92788" lon="6.75709">
        <ele>820.62</ele>
        <time>2012-08-05T15:04:05Z</time>
      </trkpt>
      <trkpt lat="45.9279" lon="6.75685">
        <ele>819.66</ele>
        <time>2012-08-05T15:04:06Z</time>
      </trkpt>
      <trkpt lat="45.9279" lon="6.75661">
        <ele>819.66</ele>
        <time>2012-08-05T15:04:07Z</time>
      </trkpt>
      <trkpt lat="45.92788" lon="6.75638">
        <ele>820.14</ele>
        <time>2012-08-05T15:04:08Z</time>
      </trkpt>
      <trkpt lat="45.92783" lon="6.75615">
        <ele>819.66</ele>
        <time>2012-08-05T15:04:09Z</time>
      </trkpt>
      <trkpt lat="45.92777" lon="6.75592">
        <ele>819.66</ele>
        <time>2012-08-05T15:04:10Z</time>
      </trkpt>
      <trkpt lat="45.92769" lon="6.75571">
        <ele>819.66</ele>
        <time>2012-08-05T15:04:11Z</time>
      </trkpt>
      <trkpt lat="45.9276" lon="6.75548">
        <ele>819.66</ele>
        <time>2012-08-05T15:04:12Z</time>
      </trkpt>
      <trkpt lat="45.92683" lon="6.75351">
        <ele>817.74</ele>
        <time>2012-08-05T15:04:21Z</time>
      </trkpt>
      <trkpt lat="45.92678" lon="6.75326">
        <ele>817.26</ele>
        <time>2012-08-05T15:04:22Z</time>
      </trkpt>
      <trkpt lat="45.92675" lon="6.75299">
        <ele>817.26</ele>
        <time>2012-08-05T15:04:23Z</time>
      </trkpt>
      <trkpt lat="45.92673" lon="6.75272">
        <ele>816.78</ele>
        <time>2012-08-05T15:04:24Z</time>
      </trkpt>
      <trkpt lat="45.92673" lon="6.75153">
        <ele>812.93</ele>
        <time>2012-08-05T15:04:28Z</time>
      </trkpt>
      <trkpt lat="45.92675" lon="6.75066">
        <ele>809.09</ele>
        <time>2012-08-05T15:04:31Z</time>
      </trkpt>
      <trkpt lat="45.92681" lon="6.7501">
        <ele>806.68</ele>
        <time>2012-08-05T15:04:33Z</time>
      </trkpt>
      <trkpt lat="45.92687" lon="6.74983">
        <ele>806.2</ele>
        <time>2012-08-05T15:04:34Z</time>
      </trkpt>
      <trkpt lat="45.92695" lon="6.74955">
        <ele>805.72</ele>
        <time>2012-08-05T15:04:35Z</time>
      </trkpt>
      <trkpt lat="45.92716" lon="6.74901">
        <ele>804.28</ele>
        <time>2012-08-05T15:04:37Z</time>
      </trkpt>
      <trkpt lat="45.92745" lon="6.74821">
        <ele>800.92</ele>
        <time>2012-08-05T15:04:40Z</time>
      </trkpt>
      <trkpt lat="45.9277" lon="6.74741">
        <ele>798.51</ele>
        <time>2012-08-05T15:04:43Z</time>
      </trkpt>
      <trkpt lat="45.92803" lon="6.74625">
        <ele>794.67</ele>
        <time>2012-08-05T15:04:47Z</time>
      </trkpt>
      <trkpt lat="45.92827" lon="6.74544">
        <ele>789.38</ele>
        <time>2012-08-05T15:04:50Z</time>
      </trkpt>
      <trkpt lat="45.92837" lon="6.74492">
        <ele>786.02</ele>
        <time>2012-08-05T15:04:52Z</time>
      </trkpt>
      <trkpt lat="45.92839" lon="6.74467">
        <ele>784.57</ele>
        <time>2012-08-05T15:04:53Z</time>
      </trkpt>
      <trkpt lat="45.92839" lon="6.74442">
        <ele>783.13</ele>
        <time>2012-08-05T15:04:54Z</time>
      </trkpt>
      <trkpt lat="45.92841" lon="6.74393">
        <ele>780.25</ele>
        <time>2012-08-05T15:04:56Z</time>
      </trkpt>
      <trkpt lat="45.92845" lon="6.74369">
        <ele>779.77</ele>
        <time>2012-08-05T15:04:57Z</time>
      </trkpt>
      <trkpt lat="45.92853" lon="6.74346">
        <ele>778.81</ele>
        <time>2012-08-05T15:04:58Z</time>
      </trkpt>
      <trkpt lat="45.92863" lon="6.74324">
        <ele>778.81</ele>
        <time>2012-08-05T15:04:59Z</time>
      </trkpt>
      <trkpt lat="45.92875" lon="6.74303">
        <ele>777.36</ele>
        <time>2012-08-05T15:05:00Z</time>
      </trkpt>
      <trkpt lat="45.92888" lon="6.74283">
        <ele>776.4</ele>
        <time>2012-08-05T15:05:01Z</time>
      </trkpt>
      <trkpt lat="45.92913" lon="6.74239">
        <ele>773.52</ele>
        <time>2012-08-05T15:05:03Z</time>
      </trkpt>
      <trkpt lat="45.92933" lon="6.74187">
        <ele>772.08</ele>
        <time>2012-08-05T15:05:05Z</time>
      </trkpt>
      <trkpt lat="45.92942" lon="6.74158">
        <ele>772.08</ele>
        <time>2012-08-05T15:05:06Z</time>
      </trkpt>
      <trkpt lat="45.92955" lon="6.74129">
        <ele>771.11</ele>
        <time>2012-08-05T15:05:07Z</time>
      </trkpt>
      <trkpt lat="45.92986" lon="6.74067">
        <ele>767.27</ele>
        <time>2012-08-05T15:05:09Z</time>
      </trkpt>
      <trkpt lat="45.92997" lon="6.74042">
        <ele>766.31</ele>
        <time>2012-08-05T15:05:10Z</time>
      </trkpt>
      <trkpt lat="45.9302" lon="6.73983">
        <ele>761.98</ele>
        <time>2012-08-05T15:05:12Z</time>
      </trkpt>
      <trkpt lat="45.93038" lon="6.73924">
        <ele>759.1</ele>
        <time>2012-08-05T15:05:14Z</time>
      </trkpt>
      <trkpt lat="45.93048" lon="6.73898">
        <ele>756.69</ele>
        <time>2012-08-05T15:05:15Z</time>
      </trkpt>
      <trkpt lat="45.93071" lon="6.73848">
        <ele>754.29</ele>
        <time>2012-08-05T15:05:17Z</time>
      </trkpt>
      <trkpt lat="45.93091" lon="6.73796">
        <ele>751.89</ele>
        <time>2012-08-05T15:05:19Z</time>
      </trkpt>
      <trkpt lat="45.93097" lon="6.73768">
        <ele>750.93</ele>
        <time>2012-08-05T15:05:20Z</time>
      </trkpt>
      <trkpt lat="45.93107" lon="6.73714">
        <ele>747.56</ele>
        <time>2012-08-05T15:05:22Z</time>
      </trkpt>
      <trkpt lat="45.93113" lon="6.73688">
        <ele>745.64</ele>
        <time>2012-08-05T15:05:23Z</time>
      </trkpt>
      <trkpt lat="45.93121" lon="6.73663">
        <ele>744.68</ele>
        <time>2012-08-05T15:05:24Z</time>
      </trkpt>
      <trkpt lat="45.93132" lon="6.73639">
        <ele>744.2</ele>
        <time>2012-08-05T15:05:25Z</time>
      </trkpt>
      <trkpt lat="45.93144" lon="6.73616">
        <ele>742.76</ele>
        <time>2012-08-05T15:05:26Z</time>
      </trkpt>
      <trkpt lat="45.93157" lon="6.73594">
        <ele>741.79</ele>
        <time>2012-08-05T15:05:27Z</time>
      </trkpt>
      <trkpt lat="45.93181" lon="6.73555">
        <ele>736.99</ele>
        <time>2012-08-05T15:05:29Z</time>
      </trkpt>
      <trkpt lat="45.93201" lon="6.73522">
        <ele>732.66</ele>
        <time>2012-08-05T15:05:31Z</time>
      </trkpt>
      <trkpt lat="45.93214" lon="6.73494">
        <ele>730.26</ele>
        <time>2012-08-05T15:05:33Z</time>
      </trkpt>
      <trkpt lat="45.93216" lon="6.7348">
        <ele>729.3</ele>
        <time>2012-08-05T15:05:34Z</time>
      </trkpt>
      <trkpt lat="45.93214" lon="6.73467">
        <ele>728.34</ele>
        <time>2012-08-05T15:05:35Z</time>
      </trkpt>
      <trkpt lat="45.9321" lon="6.73454">
        <ele>727.37</ele>
        <time>2012-08-05T15:05:36Z</time>
      </trkpt>
      <trkpt lat="45.93202" lon="6.73446">
        <ele>727.37</ele>
        <time>2012-08-05T15:05:37Z</time>
      </trkpt>
      <trkpt lat="45.93194" lon="6.73441">
        <ele>726.41</ele>
        <time>2012-08-05T15:05:38Z</time>
      </trkpt>
      <trkpt lat="45.93185" lon="6.73439">
        <ele>725.93</ele>
        <time>2012-08-05T15:05:39Z</time>
      </trkpt>
      <trkpt lat="45.93176" lon="6.73441">
        <ele>725.45</ele>
        <time>2012-08-05T15:05:40Z</time>
      </trkpt>
      <trkpt lat="45.93167" lon="6.73446">
        <ele>724.97</ele>
        <time>2012-08-05T15:05:41Z</time>
      </trkpt>
      <trkpt lat="45.93156" lon="6.73455">
        <ele>724.97</ele>
        <time>2012-08-05T15:05:42Z</time>
      </trkpt>
      <trkpt lat="45.93108" lon="6.73498">
        <ele>721.13</ele>
        <time>2012-08-05T15:05:46Z</time>
      </trkpt>
      <trkpt lat="45.93076" lon="6.73535">
        <ele>718.72</ele>
        <time>2012-08-05T15:05:49Z</time>
      </trkpt>
      <trkpt lat="45.93064" lon="6.7354">
        <ele>717.28</ele>
        <time>2012-08-05T15:05:50Z</time>
      </trkpt>
      <trkpt lat="45.9305" lon="6.73537">
        <ele>716.32</ele>
        <time>2012-08-05T15:05:51Z</time>
      </trkpt>
      <trkpt lat="45.93037" lon="6.73529">
        <ele>714.4</ele>
        <time>2012-08-05T15:05:52Z</time>
      </trkpt>
      <trkpt lat="45.93013" lon="6.7351">
        <ele>712.95</ele>
        <time>2012-08-05T15:05:54Z</time>
      </trkpt>
      <trkpt lat="45.92999" lon="6.73506">
        <ele>711.99</ele>
        <time>2012-08-05T15:05:55Z</time>
      </trkpt>
      <trkpt lat="45.92983" lon="6.73508">
        <ele>712.47</ele>
        <time>2012-08-05T15:05:56Z</time>
      </trkpt>
      <trkpt lat="45.9295" lon="6.73516">
        <ele>710.55</ele>
        <time>2012-08-05T15:05:58Z</time>
      </trkpt>
      <trkpt lat="45.92935" lon="6.73515">
        <ele>708.63</ele>
        <time>2012-08-05T15:05:59Z</time>
      </trkpt>
      <trkpt lat="45.9292" lon="6.73509">
        <ele>707.67</ele>
        <time>2012-08-05T15:06:00Z</time>
      </trkpt>
      <trkpt lat="45.92905" lon="6.73504">
        <ele>707.67</ele>
        <time>2012-08-05T15:06:01Z</time>
      </trkpt>
      <trkpt lat="45.92888" lon="6.73505">
        <ele>707.67</ele>
        <time>2012-08-05T15:06:02Z</time>
      </trkpt>
      <trkpt lat="45.92871" lon="6.73509">
        <ele>706.23</ele>
        <time>2012-08-05T15:06:03Z</time>
      </trkpt>
      <trkpt lat="45.9284" lon="6.73512">
        <ele>702.38</ele>
        <time>2012-08-05T15:06:05Z</time>
      </trkpt>
      <trkpt lat="45.92824" lon="6.73504">
        <ele>701.9</ele>
        <time>2012-08-05T15:06:06Z</time>
      </trkpt>
      <trkpt lat="45.92808" lon="6.73493">
        <ele>700.46</ele>
        <time>2012-08-05T15:06:07Z</time>
      </trkpt>
      <trkpt lat="45.92791" lon="6.73485">
        <ele>698.53</ele>
        <time>2012-08-05T15:06:08Z</time>
      </trkpt>
      <trkpt lat="45.92776" lon="6.73476">
        <ele>697.57</ele>
        <time>2012-08-05T15:06:09Z</time>
      </trkpt>
      <trkpt lat="45.92762" lon="6.73464">
        <ele>696.61</ele>
        <time>2012-08-05T15:06:10Z</time>
      </trkpt>
      <trkpt lat="45.9275" lon="6.73446">
        <ele>696.13</ele>
        <time>2012-08-05T15:06:11Z</time>
      </trkpt>
      <trkpt lat="45.92709" lon="6.73375">
        <ele>691.33</ele>
        <time>2012-08-05T15:06:15Z</time>
      </trkpt>
      <trkpt lat="45.92698" lon="6.73361">
        <ele>689.4</ele>
        <time>2012-08-05T15:06:16Z</time>
      </trkpt>
      <trkpt lat="45.92687" lon="6.73349">
        <ele>687.48</ele>
        <time>2012-08-05T15:06:17Z</time>
      </trkpt>
      <trkpt lat="45.92674" lon="6.73343">
        <ele>686.52</ele>
        <time>2012-08-05T15:06:18Z</time>
      </trkpt>
      <trkpt lat="45.9266" lon="6.73342">
        <ele>687</ele>
        <time>2012-08-05T15:06:19Z</time>
      </trkpt>
      <trkpt lat="45.92629" lon="6.73339">
        <ele>683.63</ele>
        <time>2012-08-05T15:06:21Z</time>
      </trkpt>
      <trkpt lat="45.92613" lon="6.73333">
        <ele>683.15</ele>
        <time>2012-08-05T15:06:22Z</time>
      </trkpt>
      <trkpt lat="45.92596" lon="6.73323">
        <ele>682.19</ele>
        <time>2012-08-05T15:06:23Z</time>
      </trkpt>
      <trkpt lat="45.92581" lon="6.73313">
        <ele>681.23</ele>
        <time>2012-08-05T15:06:24Z</time>
      </trkpt>
      <trkpt lat="45.92566" lon="6.73299">
        <ele>680.75</ele>
        <time>2012-08-05T15:06:25Z</time>
      </trkpt>
      <trkpt lat="45.92551" lon="6.73282">
        <ele>681.23</ele>
        <time>2012-08-05T15:06:26Z</time>
      </trkpt>
      <trkpt lat="45.92519" lon="6.73244">
        <ele>678.83</ele>
        <time>2012-08-05T15:06:28Z</time>
      </trkpt>
      <trkpt lat="45.92502" lon="6.73229">
        <ele>676.91</ele>
        <time>2012-08-05T15:06:29Z</time>
      </trkpt>
      <trkpt lat="45.92469" lon="6.73202">
        <ele>673.54</ele>
        <time>2012-08-05T15:06:31Z</time>
      </trkpt>
      <trkpt lat="45.9244" lon="6.73175">
        <ele>670.66</ele>
        <time>2012-08-05T15:06:33Z</time>
      </trkpt>
      <trkpt lat="45.92425" lon="6.73167">
        <ele>669.7</ele>
        <time>2012-08-05T15:06:34Z</time>
      </trkpt>
      <trkpt lat="45.92409" lon="6.73162">
        <ele>668.25</ele>
        <time>2012-08-05T15:06:35Z</time>
      </trkpt>
      <trkpt lat="45.92394" lon="6.73156">
        <ele>667.29</ele>
        <time>2012-08-05T15:06:36Z</time>
      </trkpt>
      <trkpt lat="45.9238" lon="6.73146">
        <ele>665.85</ele>
        <time>2012-08-05T15:06:37Z</time>
      </trkpt>
      <trkpt lat="45.92368" lon="6.73132">
        <ele>665.37</ele>
        <time>2012-08-05T15:06:38Z</time>
      </trkpt>
      <trkpt lat="45.92346" lon="6.73103">
        <ele>662.49</ele>
        <time>2012-08-05T15:06:40Z</time>
      </trkpt>
      <trkpt lat="45.92331" lon="6.73095">
        <ele>662.49</ele>
        <time>2012-08-05T15:06:41Z</time>
      </trkpt>
      <trkpt lat="45.92313" lon="6.73095">
        <ele>661.52</ele>
        <time>2012-08-05T15:06:42Z</time>
      </trkpt>
      <trkpt lat="45.92277" lon="6.73102">
        <ele>660.08</ele>
        <time>2012-08-05T15:06:44Z</time>
      </trkpt>
      <trkpt lat="45.92259" lon="6.731">
        <ele>660.08</ele>
        <time>2012-08-05T15:06:45Z</time>
      </trkpt>
      <trkpt lat="45.92239" lon="6.73093">
        <ele>658.64</ele>
        <time>2012-08-05T15:06:46Z</time>
      </trkpt>
      <trkpt lat="45.92198" lon="6.7307">
        <ele>657.68</ele>
        <time>2012-08-05T15:06:48Z</time>
      </trkpt>
      <trkpt lat="45.92176" lon="6.73063">
        <ele>655.76</ele>
        <time>2012-08-05T15:06:49Z</time>
      </trkpt>
      <trkpt lat="45.92111" lon="6.73045">
        <ele>651.91</ele>
        <time>2012-08-05T15:06:52Z</time>
      </trkpt>
      <trkpt lat="45.92093" lon="6.73038">
        <ele>650.95</ele>
        <time>2012-08-05T15:06:53Z</time>
      </trkpt>
      <trkpt lat="45.92071" lon="6.73021">
        <ele>649.99</ele>
        <time>2012-08-05T15:06:54Z</time>
      </trkpt>
      <trkpt lat="45.92051" lon="6.73004">
        <ele>648.07</ele>
        <time>2012-08-05T15:06:55Z</time>
      </trkpt>
      <trkpt lat="45.91972" lon="6.72937">
        <ele>645.18</ele>
        <time>2012-08-05T15:06:59Z</time>
      </trkpt>
      <trkpt lat="45.91843" lon="6.72845">
        <ele>641.34</ele>
        <time>2012-08-05T15:07:05Z</time>
      </trkpt>
      <trkpt lat="45.91822" lon="6.72831">
        <ele>640.86</ele>
        <time>2012-08-05T15:07:06Z</time>
      </trkpt>
      <trkpt lat="45.91761" lon="6.72789">
        <ele>637.97</ele>
        <time>2012-08-05T15:07:09Z</time>
      </trkpt>
      <trkpt lat="45.91722" lon="6.72755">
        <ele>637.49</ele>
        <time>2012-08-05T15:07:11Z</time>
      </trkpt>
      <trkpt lat="45.91647" lon="6.72679">
        <ele>635.09</ele>
        <time>2012-08-05T15:07:15Z</time>
      </trkpt>
      <trkpt lat="45.91542" lon="6.72534">
        <ele>632.2</ele>
        <time>2012-08-05T15:07:22Z</time>
      </trkpt>
      <trkpt lat="45.91439" lon="6.72357">
        <ele>630.76</ele>
        <time>2012-08-05T15:07:30Z</time>
      </trkpt>
      <trkpt lat="45.91394" lon="6.72289">
        <ele>628.84</ele>
        <time>2012-08-05T15:07:33Z</time>
      </trkpt>
      <trkpt lat="45.91361" lon="6.72205">
        <ele>628.84</ele>
        <time>2012-08-05T15:07:36Z</time>
      </trkpt>
      <trkpt lat="45.91285" lon="6.71976">
        <ele>626.92</ele>
        <time>2012-08-05T15:07:44Z</time>
      </trkpt>
      <trkpt lat="45.91231" lon="6.71859">
        <ele>623.55</ele>
        <time>2012-08-05T15:07:49Z</time>
      </trkpt>
      <trkpt lat="45.91221" lon="6.71838">
        <ele>623.55</ele>
        <time>2012-08-05T15:07:50Z</time>
      </trkpt>
      <trkpt lat="45.91153" lon="6.71668">
        <ele>621.15</ele>
        <time>2012-08-05T15:07:58Z</time>
      </trkpt>
      <trkpt lat="45.91148" lon="6.71644">
        <ele>621.15</ele>
        <time>2012-08-05T15:07:59Z</time>
      </trkpt>
      <trkpt lat="45.91145" lon="6.71619">
        <ele>621.63</ele>
        <time>2012-08-05T15:08:00Z</time>
      </trkpt>
      <trkpt lat="45.91144" lon="6.71593">
        <ele>621.15</ele>
        <time>2012-08-05T15:08:01Z</time>
      </trkpt>
      <trkpt lat="45.91142" lon="6.71567">
        <ele>620.67</ele>
        <time>2012-08-05T15:08:02Z</time>
      </trkpt>
      <trkpt lat="45.91115" lon="6.71352">
        <ele>620.19</ele>
        <time>2012-08-05T15:08:11Z</time>
      </trkpt>
      <trkpt lat="45.91109" lon="6.71333">
        <ele>620.19</ele>
        <time>2012-08-05T15:08:12Z</time>
      </trkpt>
      <trkpt lat="45.91101" lon="6.71316">
        <ele>620.67</ele>
        <time>2012-08-05T15:08:13Z</time>
      </trkpt>
      <trkpt lat="45.91093" lon="6.71299">
        <ele>620.19</ele>
        <time>2012-08-05T15:08:14Z</time>
      </trkpt>
      <trkpt lat="45.91083" lon="6.71282">
        <ele>620.19</ele>
        <time>2012-08-05T15:08:15Z</time>
      </trkpt>
      <trkpt lat="45.91073" lon="6.71267">
        <ele>619.71</ele>
        <time>2012-08-05T15:08:16Z</time>
      </trkpt>
      <trkpt lat="45.91062" lon="6.71252">
        <ele>618.75</ele>
        <time>2012-08-05T15:08:17Z</time>
      </trkpt>
      <trkpt lat="45.91019" lon="6.71182">
        <ele>616.34</ele>
        <time>2012-08-05T15:08:21Z</time>
      </trkpt>
      <trkpt lat="45.9101" lon="6.71162">
        <ele>616.34</ele>
        <time>2012-08-05T15:08:22Z</time>
      </trkpt>
      <trkpt lat="45.91004" lon="6.71141">
        <ele>614.9</ele>
        <time>2012-08-05T15:08:23Z</time>
      </trkpt>
      <trkpt lat="45.90998" lon="6.7112">
        <ele>614.9</ele>
        <time>2012-08-05T15:08:24Z</time>
      </trkpt>
      <trkpt lat="45.90995" lon="6.71101">
        <ele>613.94</ele>
        <time>2012-08-05T15:08:25Z</time>
      </trkpt>
      <trkpt lat="45.90992" lon="6.71081">
        <ele>613.94</ele>
        <time>2012-08-05T15:08:26Z</time>
      </trkpt>
      <trkpt lat="45.9099" lon="6.71062">
        <ele>613.46</ele>
        <time>2012-08-05T15:08:27Z</time>
      </trkpt>
      <trkpt lat="45.90989" lon="6.71043">
        <ele>613.46</ele>
        <time>2012-08-05T15:08:28Z</time>
      </trkpt>
      <trkpt lat="45.91001" lon="6.70879">
        <ele>612.98</ele>
        <time>2012-08-05T15:08:37Z</time>
      </trkpt>
      <trkpt lat="45.91028" lon="6.70774">
        <ele>609.13</ele>
        <time>2012-08-05T15:08:43Z</time>
      </trkpt>
      <trkpt lat="45.9104" lon="6.70726">
        <ele>606.25</ele>
        <time>2012-08-05T15:08:47Z</time>
      </trkpt>
      <trkpt lat="45.91042" lon="6.70717">
        <ele>605.77</ele>
        <time>2012-08-05T15:08:48Z</time>
      </trkpt>
      <trkpt lat="45.91046" lon="6.70678">
        <ele>604.33</ele>
        <time>2012-08-05T15:08:55Z</time>
      </trkpt>
      <trkpt lat="45.91047" lon="6.70675">
        <ele>604.33</ele>
        <time>2012-08-05T15:09:04Z</time>
      </trkpt>
      <trkpt lat="45.91044" lon="6.70663">
        <ele>604.81</ele>
        <time>2012-08-05T15:09:24Z</time>
      </trkpt>
      <trkpt lat="45.9104" lon="6.70657">
        <ele>604.81</ele>
        <time>2012-08-05T15:09:25Z</time>
      </trkpt>
      <trkpt lat="45.91035" lon="6.7065">
        <ele>604.81</ele>
        <time>2012-08-05T15:09:26Z</time>
      </trkpt>
      <trkpt lat="45.91028" lon="6.70644">
        <ele>605.77</ele>
        <time>2012-08-05T15:09:27Z</time>
      </trkpt>
      <trkpt lat="45.9102" lon="6.70637">
        <ele>605.77</ele>
        <time>2012-08-05T15:09:28Z</time>
      </trkpt>
      <trkpt lat="45.90889" lon="6.70549">
        <ele>609.13</ele>
        <time>2012-08-05T15:09:40Z</time>
      </trkpt>
      <trkpt lat="45.90764" lon="6.70471">
        <ele>612.5</ele>
        <time>2012-08-05T15:09:50Z</time>
      </trkpt>
      <trkpt lat="45.90752" lon="6.70464">
        <ele>612.5</ele>
        <time>2012-08-05T15:09:51Z</time>
      </trkpt>
      <trkpt lat="45.90665" lon="6.70405">
        <ele>615.86</ele>
        <time>2012-08-05T15:09:58Z</time>
      </trkpt>
      <trkpt lat="45.90639" lon="6.70388">
        <ele>616.82</ele>
        <time>2012-08-05T15:10:00Z</time>
      </trkpt>
      <trkpt lat="45.90567" lon="6.70345">
        <ele>617.78</ele>
        <time>2012-08-05T15:10:06Z</time>
      </trkpt>
      <trkpt lat="45.90554" lon="6.70342">
        <ele>617.78</ele>
        <time>2012-08-05T15:10:07Z</time>
      </trkpt>
      <trkpt lat="45.90542" lon="6.7034">
        <ele>618.26</ele>
        <time>2012-08-05T15:10:08Z</time>
      </trkpt>
      <trkpt lat="45.90531" lon="6.7034">
        <ele>617.78</ele>
        <time>2012-08-05T15:10:09Z</time>
      </trkpt>
      <trkpt lat="45.90522" lon="6.70342">
        <ele>616.82</ele>
        <time>2012-08-05T15:10:10Z</time>
      </trkpt>
      <trkpt lat="45.90514" lon="6.70344">
        <ele>616.82</ele>
        <time>2012-08-05T15:10:11Z</time>
      </trkpt>
      <trkpt lat="45.90459" lon="6.70351">
        <ele>616.82</ele>
        <time>2012-08-05T15:10:17Z</time>
      </trkpt>
      <trkpt lat="45.90452" lon="6.7035">
        <ele>616.34</ele>
        <time>2012-08-05T15:10:18Z</time>
      </trkpt>
      <trkpt lat="45.90445" lon="6.70344">
        <ele>615.86</ele>
        <time>2012-08-05T15:10:19Z</time>
      </trkpt>
      <trkpt lat="45.90441" lon="6.70335">
        <ele>615.38</ele>
        <time>2012-08-05T15:10:20Z</time>
      </trkpt>
      <trkpt lat="45.90438" lon="6.70323">
        <ele>615.38</ele>
        <time>2012-08-05T15:10:21Z</time>
      </trkpt>
      <trkpt lat="45.90437" lon="6.70309">
        <ele>615.38</ele>
        <time>2012-08-05T15:10:22Z</time>
      </trkpt>
      <trkpt lat="45.90437" lon="6.70294">
        <ele>615.38</ele>
        <time>2012-08-05T15:10:23Z</time>
      </trkpt>
      <trkpt lat="45.90439" lon="6.70279">
        <ele>614.42</ele>
        <time>2012-08-05T15:10:24Z</time>
      </trkpt>
      <trkpt lat="45.90443" lon="6.70264">
        <ele>613.46</ele>
        <time>2012-08-05T15:10:25Z</time>
      </trkpt>
      <trkpt lat="45.90448" lon="6.70251">
        <ele>612.98</ele>
        <time>2012-08-05T15:10:26Z</time>
      </trkpt>
      <trkpt lat="45.90453" lon="6.70238">
        <ele>612.02</ele>
        <time>2012-08-05T15:10:27Z</time>
      </trkpt>
      <trkpt lat="45.90463" lon="6.70214">
        <ele>610.57</ele>
        <time>2012-08-05T15:10:29Z</time>
      </trkpt>
      <trkpt lat="45.90471" lon="6.70187">
        <ele>609.61</ele>
        <time>2012-08-05T15:10:31Z</time>
      </trkpt>
      <trkpt lat="45.90479" lon="6.70146">
        <ele>608.17</ele>
        <time>2012-08-05T15:10:34Z</time>
      </trkpt>
      <trkpt lat="45.90502" lon="6.70049">
        <ele>605.29</ele>
        <time>2012-08-05T15:10:41Z</time>
      </trkpt>
      <trkpt lat="45.90505" lon="6.7004">
        <ele>605.29</ele>
        <time>2012-08-05T15:10:42Z</time>
      </trkpt>
      <trkpt lat="45.90509" lon="6.70033">
        <ele>603.85</ele>
        <time>2012-08-05T15:10:43Z</time>
      </trkpt>
      <trkpt lat="45.90513" lon="6.70025">
        <ele>603.85</ele>
        <time>2012-08-05T15:10:44Z</time>
      </trkpt>
      <trkpt lat="45.90522" lon="6.69997">
        <ele>605.29</ele>
        <time>2012-08-05T15:10:47Z</time>
      </trkpt>
      <trkpt lat="45.90526" lon="6.69976">
        <ele>604.33</ele>
        <time>2012-08-05T15:10:49Z</time>
      </trkpt>
      <trkpt lat="45.90528" lon="6.69965">
        <ele>604.33</ele>
        <time>2012-08-05T15:10:50Z</time>
      </trkpt>
      <trkpt lat="45.90527" lon="6.69955">
        <ele>604.33</ele>
        <time>2012-08-05T15:10:51Z</time>
      </trkpt>
      <trkpt lat="45.90512" lon="6.6993">
        <ele>603.36</ele>
        <time>2012-08-05T15:10:52Z</time>
      </trkpt>
      <trkpt lat="45.90503" lon="6.69911">
        <ele>603.36</ele>
        <time>2012-08-05T15:10:53Z</time>
      </trkpt>
      <trkpt lat="45.90448" lon="6.6977">
        <ele>601.92</ele>
        <time>2012-08-05T15:11:03Z</time>
      </trkpt>
      <trkpt lat="45.90407" lon="6.69623">
        <ele>599.04</ele>
        <time>2012-08-05T15:11:14Z</time>
      </trkpt>
      <trkpt lat="45.90407" lon="6.69611">
        <ele>599.52</ele>
        <time>2012-08-05T15:11:15Z</time>
      </trkpt>
      <trkpt lat="45.90409" lon="6.696">
        <ele>599.04</ele>
        <time>2012-08-05T15:11:16Z</time>
      </trkpt>
      <trkpt lat="45.9041" lon="6.69589">
        <ele>599.04</ele>
        <time>2012-08-05T15:11:17Z</time>
      </trkpt>
      <trkpt lat="45.9041" lon="6.69577">
        <ele>598.56</ele>
        <time>2012-08-05T15:11:18Z</time>
      </trkpt>
      <trkpt lat="45.90408" lon="6.69564">
        <ele>598.56</ele>
        <time>2012-08-05T15:11:19Z</time>
      </trkpt>
      <trkpt lat="45.90405" lon="6.69548">
        <ele>599.04</ele>
        <time>2012-08-05T15:11:20Z</time>
      </trkpt>
      <trkpt lat="45.90403" lon="6.69531">
        <ele>599.04</ele>
        <time>2012-08-05T15:11:21Z</time>
      </trkpt>
      <trkpt lat="45.90402" lon="6.69512">
        <ele>599.52</ele>
        <time>2012-08-05T15:11:22Z</time>
      </trkpt>
      <trkpt lat="45.90402" lon="6.69492">
        <ele>599.04</ele>
        <time>2012-08-05T15:11:23Z</time>
      </trkpt>
      <trkpt lat="45.90398" lon="6.69275">
        <ele>597.6</ele>
        <time>2012-08-05T15:11:33Z</time>
      </trkpt>
      <trkpt lat="45.90393" lon="6.69121">
        <ele>595.19</ele>
        <time>2012-08-05T15:11:41Z</time>
      </trkpt>
      <trkpt lat="45.90386" lon="6.68861">
        <ele>594.71</ele>
        <time>2012-08-05T15:11:54Z</time>
      </trkpt>
      <trkpt lat="45.90383" lon="6.68663">
        <ele>591.83</ele>
        <time>2012-08-05T15:12:04Z</time>
      </trkpt>
      <trkpt lat="45.90382" lon="6.68527">
        <ele>591.83</ele>
        <time>2012-08-05T15:12:12Z</time>
      </trkpt>
      <trkpt lat="45.90383" lon="6.68465">
        <ele>589.91</ele>
        <time>2012-08-05T15:12:16Z</time>
      </trkpt>
      <trkpt lat="45.90385" lon="6.68445">
        <ele>588.46</ele>
        <time>2012-08-05T15:12:21Z</time>
      </trkpt>
      <trkpt lat="45.90388" lon="6.68438">
        <ele>588.95</ele>
        <time>2012-08-05T15:12:36Z</time>
      </trkpt>
      <trkpt lat="45.90392" lon="6.68432">
        <ele>588.95</ele>
        <time>2012-08-05T15:12:37Z</time>
      </trkpt>
      <trkpt lat="45.90395" lon="6.68423">
        <ele>588.95</ele>
        <time>2012-08-05T15:12:38Z</time>
      </trkpt>
      <trkpt lat="45.90396" lon="6.68413">
        <ele>588.95</ele>
        <time>2012-08-05T15:12:39Z</time>
      </trkpt>
      <trkpt lat="45.90394" lon="6.68402">
        <ele>589.43</ele>
        <time>2012-08-05T15:12:40Z</time>
      </trkpt>
      <trkpt lat="45.90389" lon="6.6839">
        <ele>589.43</ele>
        <time>2012-08-05T15:12:41Z</time>
      </trkpt>
      <trkpt lat="45.90383" lon="6.68374">
        <ele>589.91</ele>
        <time>2012-08-05T15:12:42Z</time>
      </trkpt>
      <trkpt lat="45.90379" lon="6.68354">
        <ele>590.87</ele>
        <time>2012-08-05T15:12:43Z</time>
      </trkpt>
      <trkpt lat="45.90376" lon="6.68328">
        <ele>592.79</ele>
        <time>2012-08-05T15:12:44Z</time>
      </trkpt>
      <trkpt lat="45.90375" lon="6.68298">
        <ele>594.23</ele>
        <time>2012-08-05T15:12:45Z</time>
      </trkpt>
      <trkpt lat="45.90372" lon="6.68196">
        <ele>597.6</ele>
        <time>2012-08-05T15:12:48Z</time>
      </trkpt>
      <trkpt lat="45.90366" lon="6.68002">
        <ele>597.12</ele>
        <time>2012-08-05T15:12:54Z</time>
      </trkpt>
      <trkpt lat="45.90367" lon="6.6776">
        <ele>599.04</ele>
        <time>2012-08-05T15:13:04Z</time>
      </trkpt>
      <trkpt lat="45.90408" lon="6.67569">
        <ele>600.96</ele>
        <time>2012-08-05T15:13:12Z</time>
      </trkpt>
      <trkpt lat="45.90432" lon="6.67495">
        <ele>597.6</ele>
        <time>2012-08-05T15:13:15Z</time>
      </trkpt>
      <trkpt lat="45.90449" lon="6.67443">
        <ele>596.64</ele>
        <time>2012-08-05T15:13:17Z</time>
      </trkpt>
      <trkpt lat="45.90486" lon="6.67334">
        <ele>593.75</ele>
        <time>2012-08-05T15:13:21Z</time>
      </trkpt>
      <trkpt lat="45.90524" lon="6.67225">
        <ele>590.39</ele>
        <time>2012-08-05T15:13:25Z</time>
      </trkpt>
      <trkpt lat="45.90542" lon="6.67172">
        <ele>588.95</ele>
        <time>2012-08-05T15:13:27Z</time>
      </trkpt>
      <trkpt lat="45.9056" lon="6.67119">
        <ele>587.98</ele>
        <time>2012-08-05T15:13:29Z</time>
      </trkpt>
      <trkpt lat="45.90682" lon="6.66758">
        <ele>586.06</ele>
        <time>2012-08-05T15:13:43Z</time>
      </trkpt>
      <trkpt lat="45.90827" lon="6.66331">
        <ele>583.66</ele>
        <time>2012-08-05T15:14:00Z</time>
      </trkpt>
      <trkpt lat="45.90948" lon="6.65977">
        <ele>580.77</ele>
        <time>2012-08-05T15:14:15Z</time>
      </trkpt>
      <trkpt lat="45.90975" lon="6.659">
        <ele>579.33</ele>
        <time>2012-08-05T15:14:19Z</time>
      </trkpt>
      <trkpt lat="45.91" lon="6.65836">
        <ele>577.41</ele>
        <time>2012-08-05T15:14:24Z</time>
      </trkpt>
      <trkpt lat="45.91005" lon="6.65828">
        <ele>576.93</ele>
        <time>2012-08-05T15:14:25Z</time>
      </trkpt>
      <trkpt lat="45.91012" lon="6.65822">
        <ele>577.41</ele>
        <time>2012-08-05T15:14:26Z</time>
      </trkpt>
      <trkpt lat="45.91018" lon="6.65816">
        <ele>577.41</ele>
        <time>2012-08-05T15:14:27Z</time>
      </trkpt>
      <trkpt lat="45.91023" lon="6.65809">
        <ele>576.93</ele>
        <time>2012-08-05T15:14:28Z</time>
      </trkpt>
      <trkpt lat="45.91026" lon="6.65799">
        <ele>576.93</ele>
        <time>2012-08-05T15:14:29Z</time>
      </trkpt>
      <trkpt lat="45.91025" lon="6.65789">
        <ele>577.41</ele>
        <time>2012-08-05T15:14:30Z</time>
      </trkpt>
      <trkpt lat="45.9102" lon="6.65782">
        <ele>577.89</ele>
        <time>2012-08-05T15:14:31Z</time>
      </trkpt>
      <trkpt lat="45.91012" lon="6.65778">
        <ele>577.89</ele>
        <time>2012-08-05T15:14:32Z</time>
      </trkpt>
      <trkpt lat="45.91003" lon="6.65777">
        <ele>578.37</ele>
        <time>2012-08-05T15:14:33Z</time>
      </trkpt>
      <trkpt lat="45.90994" lon="6.65773">
        <ele>578.37</ele>
        <time>2012-08-05T15:14:34Z</time>
      </trkpt>
      <trkpt lat="45.90987" lon="6.65764">
        <ele>577.89</ele>
        <time>2012-08-05T15:14:35Z</time>
      </trkpt>
      <trkpt lat="45.90983" lon="6.65752">
        <ele>578.37</ele>
        <time>2012-08-05T15:14:36Z</time>
      </trkpt>
      <trkpt lat="45.90983" lon="6.65735">
        <ele>578.85</ele>
        <time>2012-08-05T15:14:37Z</time>
      </trkpt>
      <trkpt lat="45.90988" lon="6.65716">
        <ele>580.29</ele>
        <time>2012-08-05T15:14:38Z</time>
      </trkpt>
      <trkpt lat="45.90994" lon="6.65698">
        <ele>580.29</ele>
        <time>2012-08-05T15:14:39Z</time>
      </trkpt>
      <trkpt lat="45.91036" lon="6.65521">
        <ele>582.7</ele>
        <time>2012-08-05T15:14:48Z</time>
      </trkpt>
      <trkpt lat="45.91056" lon="6.65421">
        <ele>584.14</ele>
        <time>2012-08-05T15:14:55Z</time>
      </trkpt>
      <trkpt lat="45.91061" lon="6.65403">
        <ele>584.14</ele>
        <time>2012-08-05T15:14:57Z</time>
      </trkpt>
      <trkpt lat="45.91064" lon="6.65394">
        <ele>584.14</ele>
        <time>2012-08-05T15:14:58Z</time>
      </trkpt>
      <trkpt lat="45.91064" lon="6.65386">
        <ele>583.66</ele>
        <time>2012-08-05T15:14:59Z</time>
      </trkpt>
      <trkpt lat="45.91061" lon="6.65379">
        <ele>583.66</ele>
        <time>2012-08-05T15:15:00Z</time>
      </trkpt>
      <trkpt lat="45.91055" lon="6.65372">
        <ele>584.62</ele>
        <time>2012-08-05T15:15:01Z</time>
      </trkpt>
      <trkpt lat="45.91048" lon="6.65362">
        <ele>584.62</ele>
        <time>2012-08-05T15:15:02Z</time>
      </trkpt>
      <trkpt lat="45.91043" lon="6.6535">
        <ele>585.1</ele>
        <time>2012-08-05T15:15:03Z</time>
      </trkpt>
      <trkpt lat="45.9104" lon="6.65336">
        <ele>585.58</ele>
        <time>2012-08-05T15:15:04Z</time>
      </trkpt>
      <trkpt lat="45.91039" lon="6.65322">
        <ele>585.58</ele>
        <time>2012-08-05T15:15:05Z</time>
      </trkpt>
      <trkpt lat="45.91041" lon="6.65309">
        <ele>585.58</ele>
        <time>2012-08-05T15:15:06Z</time>
      </trkpt>
      <trkpt lat="45.91046" lon="6.65297">
        <ele>586.06</ele>
        <time>2012-08-05T15:15:07Z</time>
      </trkpt>
      <trkpt lat="45.91055" lon="6.65286">
        <ele>586.54</ele>
        <time>2012-08-05T15:15:08Z</time>
      </trkpt>
      <trkpt lat="45.91065" lon="6.65277">
        <ele>587.5</ele>
        <time>2012-08-05T15:15:09Z</time>
      </trkpt>
      <trkpt lat="45.91104" lon="6.65235">
        <ele>591.35</ele>
        <time>2012-08-05T15:15:13Z</time>
      </trkpt>
      <trkpt lat="45.91138" lon="6.65182">
        <ele>595.19</ele>
        <time>2012-08-05T15:15:17Z</time>
      </trkpt>
      <trkpt lat="45.91145" lon="6.65165">
        <ele>596.15</ele>
        <time>2012-08-05T15:15:18Z</time>
      </trkpt>
      <trkpt lat="45.91151" lon="6.65147">
        <ele>597.6</ele>
        <time>2012-08-05T15:15:19Z</time>
      </trkpt>
      <trkpt lat="45.91164" lon="6.65093">
        <ele>600.48</ele>
        <time>2012-08-05T15:15:22Z</time>
      </trkpt>
      <trkpt lat="45.9119" lon="6.65028">
        <ele>603.85</ele>
        <time>2012-08-05T15:15:26Z</time>
      </trkpt>
      <trkpt lat="45.91196" lon="6.65015">
        <ele>604.33</ele>
        <time>2012-08-05T15:15:27Z</time>
      </trkpt>
      <trkpt lat="45.9121" lon="6.64991">
        <ele>604.33</ele>
        <time>2012-08-05T15:15:29Z</time>
      </trkpt>
      <trkpt lat="45.91217" lon="6.64981">
        <ele>605.29</ele>
        <time>2012-08-05T15:15:30Z</time>
      </trkpt>
      <trkpt lat="45.9124" lon="6.64953">
        <ele>608.65</ele>
        <time>2012-08-05T15:15:33Z</time>
      </trkpt>
      <trkpt lat="45.91264" lon="6.6493">
        <ele>611.54</ele>
        <time>2012-08-05T15:15:36Z</time>
      </trkpt>
      <trkpt lat="45.91273" lon="6.64923">
        <ele>612.02</ele>
        <time>2012-08-05T15:15:37Z</time>
      </trkpt>
      <trkpt lat="45.91302" lon="6.64902">
        <ele>612.98</ele>
        <time>2012-08-05T15:15:40Z</time>
      </trkpt>
      <trkpt lat="45.91327" lon="6.6487">
        <ele>615.38</ele>
        <time>2012-08-05T15:15:43Z</time>
      </trkpt>
      <trkpt lat="45.91351" lon="6.64837">
        <ele>617.78</ele>
        <time>2012-08-05T15:15:46Z</time>
      </trkpt>
      <trkpt lat="45.91357" lon="6.64824">
        <ele>618.75</ele>
        <time>2012-08-05T15:15:47Z</time>
      </trkpt>
      <trkpt lat="45.91362" lon="6.6481">
        <ele>619.71</ele>
        <time>2012-08-05T15:15:48Z</time>
      </trkpt>
      <trkpt lat="45.91375" lon="6.64763">
        <ele>621.63</ele>
        <time>2012-08-05T15:15:52Z</time>
      </trkpt>
      <trkpt lat="45.91374" lon="6.64753">
        <ele>622.11</ele>
        <time>2012-08-05T15:15:53Z</time>
      </trkpt>
      <trkpt lat="45.91371" lon="6.64746">
        <ele>622.59</ele>
        <time>2012-08-05T15:15:54Z</time>
      </trkpt>
      <trkpt lat="45.91366" lon="6.64742">
        <ele>623.07</ele>
        <time>2012-08-05T15:15:55Z</time>
      </trkpt>
      <trkpt lat="45.9136" lon="6.64743">
        <ele>624.03</ele>
        <time>2012-08-05T15:15:56Z</time>
      </trkpt>
      <trkpt lat="45.91353" lon="6.64748">
        <ele>624.03</ele>
        <time>2012-08-05T15:15:57Z</time>
      </trkpt>
      <trkpt lat="45.91347" lon="6.64754">
        <ele>624.99</ele>
        <time>2012-08-05T15:15:58Z</time>
      </trkpt>
      <trkpt lat="45.91341" lon="6.64762">
        <ele>624.99</ele>
        <time>2012-08-05T15:15:59Z</time>
      </trkpt>
      <trkpt lat="45.91337" lon="6.64769">
        <ele>624.99</ele>
        <time>2012-08-05T15:16:00Z</time>
      </trkpt>
      <trkpt lat="45.91328" lon="6.64784">
        <ele>625.47</ele>
        <time>2012-08-05T15:16:03Z</time>
      </trkpt>
      <trkpt lat="45.91324" lon="6.64787">
        <ele>625.96</ele>
        <time>2012-08-05T15:16:04Z</time>
      </trkpt>
      <trkpt lat="45.91319" lon="6.64788">
        <ele>627.4</ele>
        <time>2012-08-05T15:16:05Z</time>
      </trkpt>
      <trkpt lat="45.91315" lon="6.64789">
        <ele>627.4</ele>
        <time>2012-08-05T15:16:06Z</time>
      </trkpt>
      <trkpt lat="45.9131" lon="6.64788">
        <ele>627.88</ele>
        <time>2012-08-05T15:16:07Z</time>
      </trkpt>
      <trkpt lat="45.91307" lon="6.64787">
        <ele>627.88</ele>
        <time>2012-08-05T15:16:08Z</time>
      </trkpt>
      <trkpt lat="45.91305" lon="6.64787">
        <ele>628.36</ele>
        <time>2012-08-05T15:16:16Z</time>
      </trkpt>
      <trkpt lat="45.91306" lon="6.64788">
        <ele>627.88</ele>
        <time>2012-08-05T15:16:42Z</time>
      </trkpt>
      <trkpt lat="45.9131" lon="6.64789">
        <ele>627.88</ele>
        <time>2012-08-05T15:17:18Z</time>
      </trkpt>
      <trkpt lat="45.91309" lon="6.64791">
        <ele>627.4</ele>
        <time>2012-08-05T15:17:53Z</time>
      </trkpt>
      <trkpt lat="45.91309" lon="6.64791">
        <ele>627.4</ele>
        <time>2012-08-05T15:18:23Z</time>
      </trkpt>
      <trkpt lat="45.91307" lon="6.64791">
        <ele>627.4</ele>
        <time>2012-08-05T15:18:25Z</time>
      </trkpt>
      <trkpt lat="45.91303" lon="6.64791">
        <ele>628.36</ele>
        <time>2012-08-05T15:18:26Z</time>
      </trkpt>
      <trkpt lat="45.91298" lon="6.64791">
        <ele>627.88</ele>
        <time>2012-08-05T15:18:27Z</time>
      </trkpt>
      <trkpt lat="45.91274" lon="6.64789">
        <ele>631.72</ele>
        <time>2012-08-05T15:18:30Z</time>
      </trkpt>
      <trkpt lat="45.9123" lon="6.6479">
        <ele>636.05</ele>
        <time>2012-08-05T15:18:34Z</time>
      </trkpt>
      <trkpt lat="45.9119" lon="6.64788">
        <ele>638.45</ele>
        <time>2012-08-05T15:18:38Z</time>
      </trkpt>
      <trkpt lat="45.91182" lon="6.64788">
        <ele>638.45</ele>
        <time>2012-08-05T15:18:39Z</time>
      </trkpt>
      <trkpt lat="45.91176" lon="6.64785">
        <ele>637.97</ele>
        <time>2012-08-05T15:18:40Z</time>
      </trkpt>
      <trkpt lat="45.91172" lon="6.6478">
        <ele>638.45</ele>
        <time>2012-08-05T15:18:41Z</time>
      </trkpt>
      <trkpt lat="45.91171" lon="6.64772">
        <ele>639.41</ele>
        <time>2012-08-05T15:18:42Z</time>
      </trkpt>
      <trkpt lat="45.91172" lon="6.64765">
        <ele>639.89</ele>
        <time>2012-08-05T15:18:43Z</time>
      </trkpt>
      <trkpt lat="45.91175" lon="6.64756">
        <ele>640.86</ele>
        <time>2012-08-05T15:18:44Z</time>
      </trkpt>
      <trkpt lat="45.91179" lon="6.64747">
        <ele>642.78</ele>
        <time>2012-08-05T15:18:45Z</time>
      </trkpt>
      <trkpt lat="45.91184" lon="6.64738">
        <ele>643.74</ele>
        <time>2012-08-05T15:18:46Z</time>
      </trkpt>
      <trkpt lat="45.91191" lon="6.6473">
        <ele>645.18</ele>
        <time>2012-08-05T15:18:47Z</time>
      </trkpt>
      <trkpt lat="45.91201" lon="6.64723">
        <ele>646.14</ele>
        <time>2012-08-05T15:18:48Z</time>
      </trkpt>
      <trkpt lat="45.91214" lon="6.64719">
        <ele>646.62</ele>
        <time>2012-08-05T15:18:49Z</time>
      </trkpt>
      <trkpt lat="45.91224" lon="6.64713">
        <ele>647.1</ele>
        <time>2012-08-05T15:18:50Z</time>
      </trkpt>
      <trkpt lat="45.91242" lon="6.64703">
        <ele>648.55</ele>
        <time>2012-08-05T15:18:52Z</time>
      </trkpt>
      <trkpt lat="45.91246" lon="6.64697">
        <ele>649.51</ele>
        <time>2012-08-05T15:18:53Z</time>
      </trkpt>
      <trkpt lat="45.91247" lon="6.64692">
        <ele>651.43</ele>
        <time>2012-08-05T15:18:54Z</time>
      </trkpt>
      <trkpt lat="45.91241" lon="6.64685">
        <ele>652.87</ele>
        <time>2012-08-05T15:18:55Z</time>
      </trkpt>
      <trkpt lat="45.91231" lon="6.64678">
        <ele>654.31</ele>
        <time>2012-08-05T15:18:56Z</time>
      </trkpt>
      <trkpt lat="45.912" lon="6.64662">
        <ele>657.2</ele>
        <time>2012-08-05T15:18:59Z</time>
      </trkpt>
      <trkpt lat="45.91172" lon="6.64643">
        <ele>661.04</ele>
        <time>2012-08-05T15:19:02Z</time>
      </trkpt>
      <trkpt lat="45.91153" lon="6.64626">
        <ele>664.41</ele>
        <time>2012-08-05T15:19:04Z</time>
      </trkpt>
      <trkpt lat="45.91132" lon="6.64602">
        <ele>668.25</ele>
        <time>2012-08-05T15:19:06Z</time>
      </trkpt>
      <trkpt lat="45.91123" lon="6.64588">
        <ele>669.7</ele>
        <time>2012-08-05T15:19:07Z</time>
      </trkpt>
      <trkpt lat="45.91115" lon="6.6457">
        <ele>671.62</ele>
        <time>2012-08-05T15:19:08Z</time>
      </trkpt>
      <trkpt lat="45.91108" lon="6.6455">
        <ele>673.54</ele>
        <time>2012-08-05T15:19:09Z</time>
      </trkpt>
      <trkpt lat="45.911" lon="6.64528">
        <ele>675.94</ele>
        <time>2012-08-05T15:19:10Z</time>
      </trkpt>
      <trkpt lat="45.91081" lon="6.64476">
        <ele>678.83</ele>
        <time>2012-08-05T15:19:13Z</time>
      </trkpt>
      <trkpt lat="45.91074" lon="6.64464">
        <ele>680.27</ele>
        <time>2012-08-05T15:19:14Z</time>
      </trkpt>
      <trkpt lat="45.91067" lon="6.64456">
        <ele>680.75</ele>
        <time>2012-08-05T15:19:15Z</time>
      </trkpt>
      <trkpt lat="45.91061" lon="6.64451">
        <ele>681.71</ele>
        <time>2012-08-05T15:19:16Z</time>
      </trkpt>
      <trkpt lat="45.91057" lon="6.64449">
        <ele>681.71</ele>
        <time>2012-08-05T15:19:17Z</time>
      </trkpt>
      <trkpt lat="45.91052" lon="6.64452">
        <ele>683.15</ele>
        <time>2012-08-05T15:19:18Z</time>
      </trkpt>
      <trkpt lat="45.91047" lon="6.64459">
        <ele>684.12</ele>
        <time>2012-08-05T15:19:19Z</time>
      </trkpt>
      <trkpt lat="45.91041" lon="6.64467">
        <ele>685.08</ele>
        <time>2012-08-05T15:19:20Z</time>
      </trkpt>
      <trkpt lat="45.9103" lon="6.64485">
        <ele>687.96</ele>
        <time>2012-08-05T15:19:22Z</time>
      </trkpt>
      <trkpt lat="45.91024" lon="6.64498">
        <ele>689.88</ele>
        <time>2012-08-05T15:19:23Z</time>
      </trkpt>
      <trkpt lat="45.9102" lon="6.64516">
        <ele>691.81</ele>
        <time>2012-08-05T15:19:24Z</time>
      </trkpt>
      <trkpt lat="45.91015" lon="6.64535">
        <ele>693.25</ele>
        <time>2012-08-05T15:19:25Z</time>
      </trkpt>
      <trkpt lat="45.91003" lon="6.6457">
        <ele>696.61</ele>
        <time>2012-08-05T15:19:27Z</time>
      </trkpt>
      <trkpt lat="45.90997" lon="6.64585">
        <ele>697.57</ele>
        <time>2012-08-05T15:19:28Z</time>
      </trkpt>
      <trkpt lat="45.90978" lon="6.64623">
        <ele>701.42</ele>
        <time>2012-08-05T15:19:31Z</time>
      </trkpt>
      <trkpt lat="45.90974" lon="6.64638">
        <ele>702.38</ele>
        <time>2012-08-05T15:19:32Z</time>
      </trkpt>
      <trkpt lat="45.90967" lon="6.64647">
        <ele>702.86</ele>
        <time>2012-08-05T15:19:33Z</time>
      </trkpt>
      <trkpt lat="45.90958" lon="6.64653">
        <ele>703.82</ele>
        <time>2012-08-05T15:19:34Z</time>
      </trkpt>
      <trkpt lat="45.90948" lon="6.64656">
        <ele>704.78</ele>
        <time>2012-08-05T15:19:35Z</time>
      </trkpt>
      <trkpt lat="45.90938" lon="6.64657">
        <ele>706.71</ele>
        <time>2012-08-05T15:19:36Z</time>
      </trkpt>
      <trkpt lat="45.90927" lon="6.64656">
        <ele>707.67</ele>
        <time>2012-08-05T15:19:37Z</time>
      </trkpt>
      <trkpt lat="45.90915" lon="6.64655">
        <ele>709.59</ele>
        <time>2012-08-05T15:19:38Z</time>
      </trkpt>
      <trkpt lat="45.90878" lon="6.64649">
        <ele>712.95</ele>
        <time>2012-08-05T15:19:41Z</time>
      </trkpt>
      <trkpt lat="45.90866" lon="6.64645">
        <ele>715.36</ele>
        <time>2012-08-05T15:19:42Z</time>
      </trkpt>
      <trkpt lat="45.90854" lon="6.64639">
        <ele>716.32</ele>
        <time>2012-08-05T15:19:43Z</time>
      </trkpt>
      <trkpt lat="45.90819" lon="6.6462">
        <ele>721.13</ele>
        <time>2012-08-05T15:19:46Z</time>
      </trkpt>
      <trkpt lat="45.90809" lon="6.64617">
        <ele>721.61</ele>
        <time>2012-08-05T15:19:47Z</time>
      </trkpt>
      <trkpt lat="45.908" lon="6.64617">
        <ele>723.05</ele>
        <time>2012-08-05T15:19:48Z</time>
      </trkpt>
      <trkpt lat="45.90791" lon="6.64621">
        <ele>724.01</ele>
        <time>2012-08-05T15:19:49Z</time>
      </trkpt>
      <trkpt lat="45.90783" lon="6.64628">
        <ele>725.45</ele>
        <time>2012-08-05T15:19:50Z</time>
      </trkpt>
      <trkpt lat="45.90776" lon="6.64639">
        <ele>726.89</ele>
        <time>2012-08-05T15:19:51Z</time>
      </trkpt>
      <trkpt lat="45.90769" lon="6.64652">
        <ele>728.82</ele>
        <time>2012-08-05T15:19:52Z</time>
      </trkpt>
      <trkpt lat="45.90762" lon="6.64667">
        <ele>729.78</ele>
        <time>2012-08-05T15:19:53Z</time>
      </trkpt>
      <trkpt lat="45.90756" lon="6.6468">
        <ele>730.26</ele>
        <time>2012-08-05T15:19:54Z</time>
      </trkpt>
      <trkpt lat="45.9075" lon="6.6469">
        <ele>730.26</ele>
        <time>2012-08-05T15:19:55Z</time>
      </trkpt>
      <trkpt lat="45.90743" lon="6.64695">
        <ele>730.74</ele>
        <time>2012-08-05T15:19:56Z</time>
      </trkpt>
      <trkpt lat="45.90736" lon="6.64695">
        <ele>731.7</ele>
        <time>2012-08-05T15:19:57Z</time>
      </trkpt>
      <trkpt lat="45.90725" lon="6.64687">
        <ele>735.07</ele>
        <time>2012-08-05T15:19:59Z</time>
      </trkpt>
      <trkpt lat="45.90721" lon="6.64675">
        <ele>736.51</ele>
        <time>2012-08-05T15:20:00Z</time>
      </trkpt>
      <trkpt lat="45.90716" lon="6.64659">
        <ele>739.39</ele>
        <time>2012-08-05T15:20:01Z</time>
      </trkpt>
      <trkpt lat="45.90706" lon="6.64612">
        <ele>743.72</ele>
        <time>2012-08-05T15:20:03Z</time>
      </trkpt>
      <trkpt lat="45.90702" lon="6.64592">
        <ele>744.2</ele>
        <time>2012-08-05T15:20:04Z</time>
      </trkpt>
      <trkpt lat="45.907" lon="6.64571">
        <ele>746.12</ele>
        <time>2012-08-05T15:20:05Z</time>
      </trkpt>
      <trkpt lat="45.907" lon="6.6455">
        <ele>747.56</ele>
        <time>2012-08-05T15:20:06Z</time>
      </trkpt>
      <trkpt lat="45.90704" lon="6.6453">
        <ele>749.97</ele>
        <time>2012-08-05T15:20:07Z</time>
      </trkpt>
      <trkpt lat="45.90712" lon="6.64511">
        <ele>751.89</ele>
        <time>2012-08-05T15:20:08Z</time>
      </trkpt>
      <trkpt lat="45.9072" lon="6.64493">
        <ele>753.33</ele>
        <time>2012-08-05T15:20:09Z</time>
      </trkpt>
      <trkpt lat="45.90734" lon="6.64466">
        <ele>754.77</ele>
        <time>2012-08-05T15:20:11Z</time>
      </trkpt>
      <trkpt lat="45.90738" lon="6.64454">
        <ele>755.73</ele>
        <time>2012-08-05T15:20:12Z</time>
      </trkpt>
      <trkpt lat="45.90741" lon="6.64442">
        <ele>757.18</ele>
        <time>2012-08-05T15:20:13Z</time>
      </trkpt>
      <trkpt lat="45.90742" lon="6.64432">
        <ele>758.62</ele>
        <time>2012-08-05T15:20:14Z</time>
      </trkpt>
      <trkpt lat="45.90743" lon="6.64424">
        <ele>760.06</ele>
        <time>2012-08-05T15:20:15Z</time>
      </trkpt>
      <trkpt lat="45.90739" lon="6.64415">
        <ele>761.02</ele>
        <time>2012-08-05T15:20:16Z</time>
      </trkpt>
      <trkpt lat="45.90731" lon="6.64408">
        <ele>762.94</ele>
        <time>2012-08-05T15:20:17Z</time>
      </trkpt>
      <trkpt lat="45.90724" lon="6.64407">
        <ele>764.39</ele>
        <time>2012-08-05T15:20:18Z</time>
      </trkpt>
      <trkpt lat="45.90713" lon="6.64402">
        <ele>764.87</ele>
        <time>2012-08-05T15:20:19Z</time>
      </trkpt>
      <trkpt lat="45.90698" lon="6.64401">
        <ele>766.79</ele>
        <time>2012-08-05T15:20:20Z</time>
      </trkpt>
      <trkpt lat="45.90687" lon="6.64407">
        <ele>767.75</ele>
        <time>2012-08-05T15:20:21Z</time>
      </trkpt>
      <trkpt lat="45.90669" lon="6.64405">
        <ele>768.71</ele>
        <time>2012-08-05T15:20:22Z</time>
      </trkpt>
      <trkpt lat="45.90659" lon="6.64408">
        <ele>769.67</ele>
        <time>2012-08-05T15:20:23Z</time>
      </trkpt>
      <trkpt lat="45.90644" lon="6.64401">
        <ele>771.11</ele>
        <time>2012-08-05T15:20:24Z</time>
      </trkpt>
      <trkpt lat="45.90631" lon="6.64393">
        <ele>773.04</ele>
        <time>2012-08-05T15:20:25Z</time>
      </trkpt>
      <trkpt lat="45.90585" lon="6.6436">
        <ele>774.96</ele>
        <time>2012-08-05T15:20:29Z</time>
      </trkpt>
      <trkpt lat="45.9058" lon="6.64349">
        <ele>775.44</ele>
        <time>2012-08-05T15:20:30Z</time>
      </trkpt>
      <trkpt lat="45.90579" lon="6.64336">
        <ele>776.4</ele>
        <time>2012-08-05T15:20:31Z</time>
      </trkpt>
      <trkpt lat="45.90581" lon="6.64323">
        <ele>777.84</ele>
        <time>2012-08-05T15:20:32Z</time>
      </trkpt>
      <trkpt lat="45.90587" lon="6.6431">
        <ele>779.29</ele>
        <time>2012-08-05T15:20:33Z</time>
      </trkpt>
      <trkpt lat="45.90595" lon="6.64301">
        <ele>780.25</ele>
        <time>2012-08-05T15:20:34Z</time>
      </trkpt>
      <trkpt lat="45.90603" lon="6.64292">
        <ele>780.73</ele>
        <time>2012-08-05T15:20:35Z</time>
      </trkpt>
      <trkpt lat="45.9061" lon="6.64283">
        <ele>781.69</ele>
        <time>2012-08-05T15:20:36Z</time>
      </trkpt>
      <trkpt lat="45.90616" lon="6.64276">
        <ele>782.17</ele>
        <time>2012-08-05T15:20:37Z</time>
      </trkpt>
      <trkpt lat="45.90628" lon="6.64264">
        <ele>785.05</ele>
        <time>2012-08-05T15:20:40Z</time>
      </trkpt>
      <trkpt lat="45.9066" lon="6.64238">
        <ele>788.9</ele>
        <time>2012-08-05T15:20:47Z</time>
      </trkpt>
      <trkpt lat="45.90666" lon="6.64227">
        <ele>789.86</ele>
        <time>2012-08-05T15:20:48Z</time>
      </trkpt>
      <trkpt lat="45.90708" lon="6.64166">
        <ele>793.22</ele>
        <time>2012-08-05T15:20:53Z</time>
      </trkpt>
      <trkpt lat="45.90721" lon="6.64147">
        <ele>794.67</ele>
        <time>2012-08-05T15:20:55Z</time>
      </trkpt>
      <trkpt lat="45.90726" lon="6.6414">
        <ele>794.67</ele>
        <time>2012-08-05T15:20:56Z</time>
      </trkpt>
      <trkpt lat="45.90728" lon="6.6413">
        <ele>795.15</ele>
        <time>2012-08-05T15:20:57Z</time>
      </trkpt>
      <trkpt lat="45.90733" lon="6.64124">
        <ele>795.63</ele>
        <time>2012-08-05T15:20:58Z</time>
      </trkpt>
      <trkpt lat="45.90742" lon="6.64097">
        <ele>796.59</ele>
        <time>2012-08-05T15:21:04Z</time>
      </trkpt>
      <trkpt lat="45.90739" lon="6.64097">
        <ele>797.55</ele>
        <time>2012-08-05T15:21:05Z</time>
      </trkpt>
      <trkpt lat="45.9073" lon="6.64098">
        <ele>799.47</ele>
        <time>2012-08-05T15:21:07Z</time>
      </trkpt>
      <trkpt lat="45.90725" lon="6.64101">
        <ele>799.95</ele>
        <time>2012-08-05T15:21:08Z</time>
      </trkpt>
      <trkpt lat="45.90718" lon="6.64106">
        <ele>800.92</ele>
        <time>2012-08-05T15:21:09Z</time>
      </trkpt>
      <trkpt lat="45.90711" lon="6.64115">
        <ele>801.88</ele>
        <time>2012-08-05T15:21:10Z</time>
      </trkpt>
      <trkpt lat="45.90702" lon="6.64128">
        <ele>802.84</ele>
        <time>2012-08-05T15:21:11Z</time>
      </trkpt>
      <trkpt lat="45.90694" lon="6.64142">
        <ele>804.28</ele>
        <time>2012-08-05T15:21:12Z</time>
      </trkpt>
      <trkpt lat="45.90618" lon="6.64083">
        <ele>805.72</ele>
        <time>2012-08-05T15:21:13Z</time>
      </trkpt>
      <trkpt lat="45.90603" lon="6.64092">
        <ele>806.68</ele>
        <time>2012-08-05T15:21:14Z</time>
      </trkpt>
      <trkpt lat="45.90571" lon="6.64105">
        <ele>808.61</ele>
        <time>2012-08-05T15:21:16Z</time>
      </trkpt>
      <trkpt lat="45.90546" lon="6.64112">
        <ele>809.57</ele>
        <time>2012-08-05T15:21:18Z</time>
      </trkpt>
      <trkpt lat="45.90499" lon="6.64116">
        <ele>811.49</ele>
        <time>2012-08-05T15:21:21Z</time>
      </trkpt>
      <trkpt lat="45.90453" lon="6.64132">
        <ele>812.93</ele>
        <time>2012-08-05T15:21:24Z</time>
      </trkpt>
      <trkpt lat="45.90441" lon="6.64145">
        <ele>813.89</ele>
        <time>2012-08-05T15:21:25Z</time>
      </trkpt>
      <trkpt lat="45.90449" lon="6.6418">
        <ele>814.85</ele>
        <time>2012-08-05T15:21:26Z</time>
      </trkpt>
      <trkpt lat="45.90447" lon="6.64207">
        <ele>815.82</ele>
        <time>2012-08-05T15:21:27Z</time>
      </trkpt>
      <trkpt lat="45.90442" lon="6.64232">
        <ele>817.26</ele>
        <time>2012-08-05T15:21:28Z</time>
      </trkpt>
      <trkpt lat="45.90436" lon="6.64256">
        <ele>818.22</ele>
        <time>2012-08-05T15:21:29Z</time>
      </trkpt>
      <trkpt lat="45.90415" lon="6.64323">
        <ele>820.62</ele>
        <time>2012-08-05T15:21:32Z</time>
      </trkpt>
      <trkpt lat="45.90402" lon="6.64386">
        <ele>823.99</ele>
        <time>2012-08-05T15:21:35Z</time>
      </trkpt>
      <trkpt lat="45.90396" lon="6.64406">
        <ele>825.43</ele>
        <time>2012-08-05T15:21:36Z</time>
      </trkpt>
      <trkpt lat="45.90388" lon="6.64425">
        <ele>826.39</ele>
        <time>2012-08-05T15:21:37Z</time>
      </trkpt>
      <trkpt lat="45.90378" lon="6.64443">
        <ele>826.87</ele>
        <time>2012-08-05T15:21:38Z</time>
      </trkpt>
      <trkpt lat="45.90368" lon="6.64459">
        <ele>828.31</ele>
        <time>2012-08-05T15:21:39Z</time>
      </trkpt>
      <trkpt lat="45.90358" lon="6.64475">
        <ele>828.79</ele>
        <time>2012-08-05T15:21:40Z</time>
      </trkpt>
      <trkpt lat="45.90351" lon="6.64493">
        <ele>829.76</ele>
        <time>2012-08-05T15:21:41Z</time>
      </trkpt>
      <trkpt lat="45.90348" lon="6.64513">
        <ele>830.72</ele>
        <time>2012-08-05T15:21:42Z</time>
      </trkpt>
      <trkpt lat="45.90346" lon="6.64531">
        <ele>830.24</ele>
        <time>2012-08-05T15:21:43Z</time>
      </trkpt>
      <trkpt lat="45.90345" lon="6.64549">
        <ele>830.72</ele>
        <time>2012-08-05T15:21:44Z</time>
      </trkpt>
      <trkpt lat="45.90348" lon="6.64566">
        <ele>831.68</ele>
        <time>2012-08-05T15:21:45Z</time>
      </trkpt>
      <trkpt lat="45.90353" lon="6.64582">
        <ele>832.16</ele>
        <time>2012-08-05T15:21:46Z</time>
      </trkpt>
      <trkpt lat="45.90356" lon="6.64597">
        <ele>832.16</ele>
        <time>2012-08-05T15:21:47Z</time>
      </trkpt>
      <trkpt lat="45.90355" lon="6.64611">
        <ele>833.12</ele>
        <time>2012-08-05T15:21:48Z</time>
      </trkpt>
      <trkpt lat="45.9035" lon="6.64624">
        <ele>834.56</ele>
        <time>2012-08-05T15:21:49Z</time>
      </trkpt>
      <trkpt lat="45.90339" lon="6.64635">
        <ele>836.48</ele>
        <time>2012-08-05T15:21:50Z</time>
      </trkpt>
      <trkpt lat="45.90325" lon="6.64641">
        <ele>836.96</ele>
        <time>2012-08-05T15:21:51Z</time>
      </trkpt>
      <trkpt lat="45.90312" lon="6.64646">
        <ele>838.41</ele>
        <time>2012-08-05T15:21:52Z</time>
      </trkpt>
      <trkpt lat="45.90302" lon="6.64654">
        <ele>838.89</ele>
        <time>2012-08-05T15:21:53Z</time>
      </trkpt>
      <trkpt lat="45.90292" lon="6.64666">
        <ele>840.33</ele>
        <time>2012-08-05T15:21:54Z</time>
      </trkpt>
      <trkpt lat="45.90281" lon="6.64682">
        <ele>841.29</ele>
        <time>2012-08-05T15:21:55Z</time>
      </trkpt>
      <trkpt lat="45.90271" lon="6.64696">
        <ele>842.25</ele>
        <time>2012-08-05T15:21:56Z</time>
      </trkpt>
      <trkpt lat="45.90257" lon="6.64705">
        <ele>842.73</ele>
        <time>2012-08-05T15:21:57Z</time>
      </trkpt>
      <trkpt lat="45.90244" lon="6.64712">
        <ele>843.69</ele>
        <time>2012-08-05T15:21:58Z</time>
      </trkpt>
      <trkpt lat="45.90231" lon="6.64721">
        <ele>845.14</ele>
        <time>2012-08-05T15:21:59Z</time>
      </trkpt>
      <trkpt lat="45.90218" lon="6.64734">
        <ele>847.06</ele>
        <time>2012-08-05T15:22:00Z</time>
      </trkpt>
      <trkpt lat="45.90206" lon="6.6475">
        <ele>848.5</ele>
        <time>2012-08-05T15:22:01Z</time>
      </trkpt>
      <trkpt lat="45.90157" lon="6.64821">
        <ele>852.83</ele>
        <time>2012-08-05T15:22:05Z</time>
      </trkpt>
      <trkpt lat="45.90109" lon="6.64886">
        <ele>856.19</ele>
        <time>2012-08-05T15:22:09Z</time>
      </trkpt>
      <trkpt lat="45.90076" lon="6.64942">
        <ele>859.56</ele>
        <time>2012-08-05T15:22:12Z</time>
      </trkpt>
      <trkpt lat="45.90064" lon="6.64957">
        <ele>861</ele>
        <time>2012-08-05T15:22:13Z</time>
      </trkpt>
      <trkpt lat="45.90037" lon="6.64985">
        <ele>862.92</ele>
        <time>2012-08-05T15:22:15Z</time>
      </trkpt>
      <trkpt lat="45.90026" lon="6.65003">
        <ele>863.88</ele>
        <time>2012-08-05T15:22:16Z</time>
      </trkpt>
      <trkpt lat="45.90005" lon="6.6504">
        <ele>866.29</ele>
        <time>2012-08-05T15:22:18Z</time>
      </trkpt>
      <trkpt lat="45.89992" lon="6.65055">
        <ele>867.25</ele>
        <time>2012-08-05T15:22:19Z</time>
      </trkpt>
      <trkpt lat="45.89978" lon="6.65066">
        <ele>867.73</ele>
        <time>2012-08-05T15:22:20Z</time>
      </trkpt>
      <trkpt lat="45.89964" lon="6.65075">
        <ele>868.21</ele>
        <time>2012-08-05T15:22:21Z</time>
      </trkpt>
      <trkpt lat="45.89951" lon="6.65081">
        <ele>868.21</ele>
        <time>2012-08-05T15:22:22Z</time>
      </trkpt>
      <trkpt lat="45.89928" lon="6.65091">
        <ele>869.65</ele>
        <time>2012-08-05T15:22:24Z</time>
      </trkpt>
      <trkpt lat="45.89919" lon="6.65099">
        <ele>870.13</ele>
        <time>2012-08-05T15:22:25Z</time>
      </trkpt>
      <trkpt lat="45.89911" lon="6.65111">
        <ele>870.61</ele>
        <time>2012-08-05T15:22:26Z</time>
      </trkpt>
      <trkpt lat="45.89899" lon="6.65138">
        <ele>871.57</ele>
        <time>2012-08-05T15:22:28Z</time>
      </trkpt>
      <trkpt lat="45.89893" lon="6.65148">
        <ele>872.05</ele>
        <time>2012-08-05T15:22:29Z</time>
      </trkpt>
      <trkpt lat="45.89887" lon="6.65156">
        <ele>872.53</ele>
        <time>2012-08-05T15:22:30Z</time>
      </trkpt>
      <trkpt lat="45.89882" lon="6.65162">
        <ele>873.01</ele>
        <time>2012-08-05T15:22:31Z</time>
      </trkpt>
      <trkpt lat="45.89877" lon="6.65166">
        <ele>874.94</ele>
        <time>2012-08-05T15:22:32Z</time>
      </trkpt>
      <trkpt lat="45.89872" lon="6.65169">
        <ele>876.38</ele>
        <time>2012-08-05T15:22:33Z</time>
      </trkpt>
      <trkpt lat="45.89867" lon="6.65169">
        <ele>876.38</ele>
        <time>2012-08-05T15:22:34Z</time>
      </trkpt>
      <trkpt lat="45.89862" lon="6.65169">
        <ele>877.34</ele>
        <time>2012-08-05T15:22:35Z</time>
      </trkpt>
      <trkpt lat="45.89858" lon="6.65167">
        <ele>878.78</ele>
        <time>2012-08-05T15:22:36Z</time>
      </trkpt>
      <trkpt lat="45.89851" lon="6.65161">
        <ele>879.26</ele>
        <time>2012-08-05T15:22:37Z</time>
      </trkpt>
      <trkpt lat="45.89842" lon="6.65156">
        <ele>880.22</ele>
        <time>2012-08-05T15:22:38Z</time>
      </trkpt>
      <trkpt lat="45.89829" lon="6.65155">
        <ele>881.67</ele>
        <time>2012-08-05T15:22:39Z</time>
      </trkpt>
      <trkpt lat="45.89812" lon="6.65155">
        <ele>882.63</ele>
        <time>2012-08-05T15:22:40Z</time>
      </trkpt>
      <trkpt lat="45.89795" lon="6.65156">
        <ele>884.07</ele>
        <time>2012-08-05T15:22:41Z</time>
      </trkpt>
      <trkpt lat="45.89778" lon="6.65158">
        <ele>885.03</ele>
        <time>2012-08-05T15:22:42Z</time>
      </trkpt>
      <trkpt lat="45.89764" lon="6.65164">
        <ele>885.99</ele>
        <time>2012-08-05T15:22:43Z</time>
      </trkpt>
      <trkpt lat="45.89748" lon="6.65168">
        <ele>886.47</ele>
        <time>2012-08-05T15:22:44Z</time>
      </trkpt>
      <trkpt lat="45.89731" lon="6.6517">
        <ele>885.99</ele>
        <time>2012-08-05T15:22:45Z</time>
      </trkpt>
      <trkpt lat="45.89712" lon="6.65163">
        <ele>885.99</ele>
        <time>2012-08-05T15:22:46Z</time>
      </trkpt>
      <trkpt lat="45.89695" lon="6.65151">
        <ele>886.95</ele>
        <time>2012-08-05T15:22:47Z</time>
      </trkpt>
      <trkpt lat="45.89683" lon="6.65136">
        <ele>887.43</ele>
        <time>2012-08-05T15:22:48Z</time>
      </trkpt>
      <trkpt lat="45.89675" lon="6.6512">
        <ele>887.91</ele>
        <time>2012-08-05T15:22:49Z</time>
      </trkpt>
      <trkpt lat="45.8967" lon="6.65102">
        <ele>889.36</ele>
        <time>2012-08-05T15:22:50Z</time>
      </trkpt>
      <trkpt lat="45.8967" lon="6.65083">
        <ele>890.32</ele>
        <time>2012-08-05T15:22:51Z</time>
      </trkpt>
      <trkpt lat="45.89674" lon="6.65067">
        <ele>891.28</ele>
        <time>2012-08-05T15:22:52Z</time>
      </trkpt>
      <trkpt lat="45.89682" lon="6.65053">
        <ele>892.24</ele>
        <time>2012-08-05T15:22:53Z</time>
      </trkpt>
      <trkpt lat="45.89693" lon="6.6504">
        <ele>893.68</ele>
        <time>2012-08-05T15:22:54Z</time>
      </trkpt>
      <trkpt lat="45.89705" lon="6.65026">
        <ele>894.64</ele>
        <time>2012-08-05T15:22:55Z</time>
      </trkpt>
      <trkpt lat="45.89715" lon="6.65009">
        <ele>895.61</ele>
        <time>2012-08-05T15:22:56Z</time>
      </trkpt>
      <trkpt lat="45.89725" lon="6.64991">
        <ele>896.57</ele>
        <time>2012-08-05T15:22:57Z</time>
      </trkpt>
      <trkpt lat="45.89734" lon="6.64972">
        <ele>896.57</ele>
        <time>2012-08-05T15:22:58Z</time>
      </trkpt>
      <trkpt lat="45.89741" lon="6.64951">
        <ele>897.53</ele>
        <time>2012-08-05T15:22:59Z</time>
      </trkpt>
      <trkpt lat="45.89747" lon="6.64929">
        <ele>898.49</ele>
        <time>2012-08-05T15:23:00Z</time>
      </trkpt>
      <trkpt lat="45.8976" lon="6.64886">
        <ele>900.89</ele>
        <time>2012-08-05T15:23:02Z</time>
      </trkpt>
      <trkpt lat="45.89769" lon="6.64866">
        <ele>901.85</ele>
        <time>2012-08-05T15:23:03Z</time>
      </trkpt>
      <trkpt lat="45.89779" lon="6.64848">
        <ele>902.33</ele>
        <time>2012-08-05T15:23:04Z</time>
      </trkpt>
      <trkpt lat="45.8982" lon="6.64789">
        <ele>904.26</ele>
        <time>2012-08-05T15:23:08Z</time>
      </trkpt>
      <trkpt lat="45.89851" lon="6.64745">
        <ele>905.22</ele>
        <time>2012-08-05T15:23:12Z</time>
      </trkpt>
      <trkpt lat="45.89858" lon="6.64739">
        <ele>906.18</ele>
        <time>2012-08-05T15:23:13Z</time>
      </trkpt>
      <trkpt lat="45.89865" lon="6.64734">
        <ele>906.18</ele>
        <time>2012-08-05T15:23:14Z</time>
      </trkpt>
      <trkpt lat="45.89872" lon="6.64732">
        <ele>906.18</ele>
        <time>2012-08-05T15:23:15Z</time>
      </trkpt>
      <trkpt lat="45.89878" lon="6.6473">
        <ele>905.7</ele>
        <time>2012-08-05T15:23:16Z</time>
      </trkpt>
      <trkpt lat="45.89883" lon="6.64727">
        <ele>906.18</ele>
        <time>2012-08-05T15:23:17Z</time>
      </trkpt>
      <trkpt lat="45.89887" lon="6.64721">
        <ele>906.66</ele>
        <time>2012-08-05T15:23:18Z</time>
      </trkpt>
      <trkpt lat="45.8989" lon="6.64714">
        <ele>906.18</ele>
        <time>2012-08-05T15:23:19Z</time>
      </trkpt>
      <trkpt lat="45.8989" lon="6.64706">
        <ele>906.66</ele>
        <time>2012-08-05T15:23:20Z</time>
      </trkpt>
      <trkpt lat="45.89886" lon="6.647">
        <ele>907.14</ele>
        <time>2012-08-05T15:23:21Z</time>
      </trkpt>
      <trkpt lat="45.89879" lon="6.64696">
        <ele>907.62</ele>
        <time>2012-08-05T15:23:22Z</time>
      </trkpt>
      <trkpt lat="45.89871" lon="6.64696">
        <ele>907.62</ele>
        <time>2012-08-05T15:23:23Z</time>
      </trkpt>
      <trkpt lat="45.89862" lon="6.64697">
        <ele>907.62</ele>
        <time>2012-08-05T15:23:24Z</time>
      </trkpt>
      <trkpt lat="45.89853" lon="6.64698">
        <ele>908.1</ele>
        <time>2012-08-05T15:23:25Z</time>
      </trkpt>
      <trkpt lat="45.89843" lon="6.64703">
        <ele>908.58</ele>
        <time>2012-08-05T15:23:26Z</time>
      </trkpt>
      <trkpt lat="45.89833" lon="6.64709">
        <ele>910.03</ele>
        <time>2012-08-05T15:23:27Z</time>
      </trkpt>
      <trkpt lat="45.89807" lon="6.64732">
        <ele>912.43</ele>
        <time>2012-08-05T15:23:30Z</time>
      </trkpt>
      <trkpt lat="45.89746" lon="6.64783">
        <ele>911.95</ele>
        <time>2012-08-05T15:23:37Z</time>
      </trkpt>
      <trkpt lat="45.89737" lon="6.64787">
        <ele>912.91</ele>
        <time>2012-08-05T15:23:38Z</time>
      </trkpt>
      <trkpt lat="45.89729" lon="6.6479">
        <ele>913.87</ele>
        <time>2012-08-05T15:23:39Z</time>
      </trkpt>
      <trkpt lat="45.89722" lon="6.64791">
        <ele>913.87</ele>
        <time>2012-08-05T15:23:40Z</time>
      </trkpt>
      <trkpt lat="45.89717" lon="6.64791">
        <ele>913.87</ele>
        <time>2012-08-05T15:23:41Z</time>
      </trkpt>
      <trkpt lat="45.89713" lon="6.64791">
        <ele>913.87</ele>
        <time>2012-08-05T15:23:42Z</time>
      </trkpt>
      <trkpt lat="45.89709" lon="6.64793">
        <ele>913.87</ele>
        <time>2012-08-05T15:23:49Z</time>
      </trkpt>
      <trkpt lat="45.89708" lon="6.64796">
        <ele>913.87</ele>
        <time>2012-08-05T15:23:50Z</time>
      </trkpt>
      <trkpt lat="45.89708" lon="6.64798">
        <ele>913.87</ele>
        <time>2012-08-05T15:23:51Z</time>
      </trkpt>
      <trkpt lat="45.89709" lon="6.64799">
        <ele>913.87</ele>
        <time>2012-08-05T15:23:52Z</time>
      </trkpt>
      <trkpt lat="45.89711" lon="6.64799">
        <ele>913.87</ele>
        <time>2012-08-05T15:23:53Z</time>
      </trkpt>
      <trkpt lat="45.89712" lon="6.64798">
        <ele>913.87</ele>
        <time>2012-08-05T15:23:54Z</time>
      </trkpt>
      <trkpt lat="45.89713" lon="6.64798">
        <ele>913.39</ele>
        <time>2012-08-05T15:24:06Z</time>
      </trkpt>
      <trkpt lat="45.89713" lon="6.64798">
        <ele>914.35</ele>
        <time>2012-08-05T15:24:35Z</time>
      </trkpt>
      <trkpt lat="45.89713" lon="6.64797">
        <ele>913.87</ele>
        <time>2012-08-05T15:24:49Z</time>
      </trkpt>
      <trkpt lat="45.89715" lon="6.64797">
        <ele>914.35</ele>
        <time>2012-08-05T15:24:50Z</time>
      </trkpt>
      <trkpt lat="45.8975" lon="6.64782">
        <ele>913.87</ele>
        <time>2012-08-05T15:24:55Z</time>
      </trkpt>
      <trkpt lat="45.89761" lon="6.64774">
        <ele>913.39</ele>
        <time>2012-08-05T15:24:56Z</time>
      </trkpt>
      <trkpt lat="45.89772" lon="6.64765">
        <ele>913.87</ele>
        <time>2012-08-05T15:24:57Z</time>
      </trkpt>
      <trkpt lat="45.89847" lon="6.64705">
        <ele>909.06</ele>
        <time>2012-08-05T15:25:05Z</time>
      </trkpt>
      <trkpt lat="45.89853" lon="6.64703">
        <ele>908.58</ele>
        <time>2012-08-05T15:25:06Z</time>
      </trkpt>
      <trkpt lat="45.89859" lon="6.64704">
        <ele>907.62</ele>
        <time>2012-08-05T15:25:07Z</time>
      </trkpt>
      <trkpt lat="45.89863" lon="6.64709">
        <ele>907.14</ele>
        <time>2012-08-05T15:25:08Z</time>
      </trkpt>
      <trkpt lat="45.89866" lon="6.64716">
        <ele>906.66</ele>
        <time>2012-08-05T15:25:09Z</time>
      </trkpt>
      <trkpt lat="45.8987" lon="6.64722">
        <ele>906.66</ele>
        <time>2012-08-05T15:25:10Z</time>
      </trkpt>
      <trkpt lat="45.89874" lon="6.64726">
        <ele>906.18</ele>
        <time>2012-08-05T15:25:11Z</time>
      </trkpt>
      <trkpt lat="45.8988" lon="6.64727">
        <ele>906.18</ele>
        <time>2012-08-05T15:25:12Z</time>
      </trkpt>
      <trkpt lat="45.89885" lon="6.64723">
        <ele>906.18</ele>
        <time>2012-08-05T15:25:13Z</time>
      </trkpt>
      <trkpt lat="45.89889" lon="6.64716">
        <ele>907.14</ele>
        <time>2012-08-05T15:25:14Z</time>
      </trkpt>
      <trkpt lat="45.89891" lon="6.64707">
        <ele>907.14</ele>
        <time>2012-08-05T15:25:15Z</time>
      </trkpt>
      <trkpt lat="45.89894" lon="6.64697">
        <ele>907.62</ele>
        <time>2012-08-05T15:25:16Z</time>
      </trkpt>
      <trkpt lat="45.89898" lon="6.64684">
        <ele>908.58</ele>
        <time>2012-08-05T15:25:17Z</time>
      </trkpt>
      <trkpt lat="45.89904" lon="6.64672">
        <ele>910.03</ele>
        <time>2012-08-05T15:25:18Z</time>
      </trkpt>
      <trkpt lat="45.89911" lon="6.64659">
        <ele>910.51</ele>
        <time>2012-08-05T15:25:19Z</time>
      </trkpt>
      <trkpt lat="45.89919" lon="6.64646">
        <ele>911.95</ele>
        <time>2012-08-05T15:25:20Z</time>
      </trkpt>
      <trkpt lat="45.89956" lon="6.64598">
        <ele>913.87</ele>
        <time>2012-08-05T15:25:24Z</time>
      </trkpt>
      <trkpt lat="45.89963" lon="6.64585">
        <ele>914.83</ele>
        <time>2012-08-05T15:25:25Z</time>
      </trkpt>
      <trkpt lat="45.89968" lon="6.64571">
        <ele>914.83</ele>
        <time>2012-08-05T15:25:26Z</time>
      </trkpt>
      <trkpt lat="45.89971" lon="6.64555">
        <ele>914.83</ele>
        <time>2012-08-05T15:25:27Z</time>
      </trkpt>
      <trkpt lat="45.89972" lon="6.6454">
        <ele>915.79</ele>
        <time>2012-08-05T15:25:28Z</time>
      </trkpt>
      <trkpt lat="45.89972" lon="6.64523">
        <ele>916.27</ele>
        <time>2012-08-05T15:25:29Z</time>
      </trkpt>
      <trkpt lat="45.89971" lon="6.64507">
        <ele>917.24</ele>
        <time>2012-08-05T15:25:30Z</time>
      </trkpt>
      <trkpt lat="45.8997" lon="6.64491">
        <ele>917.72</ele>
        <time>2012-08-05T15:25:31Z</time>
      </trkpt>
      <trkpt lat="45.8997" lon="6.64475">
        <ele>917.72</ele>
        <time>2012-08-05T15:25:32Z</time>
      </trkpt>
      <trkpt lat="45.89971" lon="6.64459">
        <ele>919.16</ele>
        <time>2012-08-05T15:25:33Z</time>
      </trkpt>
      <trkpt lat="45.89975" lon="6.64445">
        <ele>919.16</ele>
        <time>2012-08-05T15:25:34Z</time>
      </trkpt>
      <trkpt lat="45.89981" lon="6.64432">
        <ele>919.64</ele>
        <time>2012-08-05T15:25:35Z</time>
      </trkpt>
      <trkpt lat="45.89988" lon="6.64419">
        <ele>921.08</ele>
        <time>2012-08-05T15:25:36Z</time>
      </trkpt>
      <trkpt lat="45.89997" lon="6.64409">
        <ele>921.56</ele>
        <time>2012-08-05T15:25:37Z</time>
      </trkpt>
      <trkpt lat="45.90007" lon="6.644">
        <ele>922.04</ele>
        <time>2012-08-05T15:25:38Z</time>
      </trkpt>
      <trkpt lat="45.90017" lon="6.64393">
        <ele>922.52</ele>
        <time>2012-08-05T15:25:39Z</time>
      </trkpt>
      <trkpt lat="45.90027" lon="6.64387">
        <ele>923.48</ele>
        <time>2012-08-05T15:25:40Z</time>
      </trkpt>
      <trkpt lat="45.90038" lon="6.64383">
        <ele>923</ele>
        <time>2012-08-05T15:25:41Z</time>
      </trkpt>
      <trkpt lat="45.90048" lon="6.64381">
        <ele>923.48</ele>
        <time>2012-08-05T15:25:42Z</time>
      </trkpt>
      <trkpt lat="45.90059" lon="6.64381">
        <ele>924.45</ele>
        <time>2012-08-05T15:25:43Z</time>
      </trkpt>
      <trkpt lat="45.9007" lon="6.64382">
        <ele>924.93</ele>
        <time>2012-08-05T15:25:44Z</time>
      </trkpt>
      <trkpt lat="45.90081" lon="6.64382">
        <ele>925.89</ele>
        <time>2012-08-05T15:25:45Z</time>
      </trkpt>
      <trkpt lat="45.90091" lon="6.64381">
        <ele>926.37</ele>
        <time>2012-08-05T15:25:46Z</time>
      </trkpt>
      <trkpt lat="45.90101" lon="6.64377">
        <ele>926.85</ele>
        <time>2012-08-05T15:25:47Z</time>
      </trkpt>
      <trkpt lat="45.90111" lon="6.6437">
        <ele>927.81</ele>
        <time>2012-08-05T15:25:48Z</time>
      </trkpt>
      <trkpt lat="45.90119" lon="6.6436">
        <ele>928.29</ele>
        <time>2012-08-05T15:25:49Z</time>
      </trkpt>
      <trkpt lat="45.90126" lon="6.64348">
        <ele>928.77</ele>
        <time>2012-08-05T15:25:50Z</time>
      </trkpt>
      <trkpt lat="45.90131" lon="6.64334">
        <ele>929.25</ele>
        <time>2012-08-05T15:25:51Z</time>
      </trkpt>
      <trkpt lat="45.90133" lon="6.64319">
        <ele>929.73</ele>
        <time>2012-08-05T15:25:52Z</time>
      </trkpt>
      <trkpt lat="45.90134" lon="6.64303">
        <ele>930.21</ele>
        <time>2012-08-05T15:25:53Z</time>
      </trkpt>
      <trkpt lat="45.90132" lon="6.64288">
        <ele>930.21</ele>
        <time>2012-08-05T15:25:54Z</time>
      </trkpt>
      <trkpt lat="45.90127" lon="6.64275">
        <ele>931.65</ele>
        <time>2012-08-05T15:25:55Z</time>
      </trkpt>
      <trkpt lat="45.90121" lon="6.64262">
        <ele>931.17</ele>
        <time>2012-08-05T15:25:56Z</time>
      </trkpt>
      <trkpt lat="45.90114" lon="6.64251">
        <ele>932.62</ele>
        <time>2012-08-05T15:25:57Z</time>
      </trkpt>
      <trkpt lat="45.90104" lon="6.64242">
        <ele>933.1</ele>
        <time>2012-08-05T15:25:58Z</time>
      </trkpt>
      <trkpt lat="45.90095" lon="6.64234">
        <ele>934.06</ele>
        <time>2012-08-05T15:25:59Z</time>
      </trkpt>
      <trkpt lat="45.90086" lon="6.64227">
        <ele>933.58</ele>
        <time>2012-08-05T15:26:00Z</time>
      </trkpt>
      <trkpt lat="45.90022" lon="6.64183">
        <ele>936.46</ele>
        <time>2012-08-05T15:26:08Z</time>
      </trkpt>
      <trkpt lat="45.90014" lon="6.64173">
        <ele>936.94</ele>
        <time>2012-08-05T15:26:10Z</time>
      </trkpt>
      <trkpt lat="45.9001" lon="6.64166">
        <ele>937.9</ele>
        <time>2012-08-05T15:26:11Z</time>
      </trkpt>
      <trkpt lat="45.90007" lon="6.64159">
        <ele>937.9</ele>
        <time>2012-08-05T15:26:12Z</time>
      </trkpt>
      <trkpt lat="45.90002" lon="6.64152">
        <ele>937.42</ele>
        <time>2012-08-05T15:26:13Z</time>
      </trkpt>
      <trkpt lat="45.89997" lon="6.64149">
        <ele>937.9</ele>
        <time>2012-08-05T15:26:14Z</time>
      </trkpt>
      <trkpt lat="45.89991" lon="6.64148">
        <ele>938.38</ele>
        <time>2012-08-05T15:26:15Z</time>
      </trkpt>
      <trkpt lat="45.89984" lon="6.64148">
        <ele>938.86</ele>
        <time>2012-08-05T15:26:16Z</time>
      </trkpt>
      <trkpt lat="45.89976" lon="6.64147">
        <ele>939.35</ele>
        <time>2012-08-05T15:26:17Z</time>
      </trkpt>
      <trkpt lat="45.89969" lon="6.64145">
        <ele>940.31</ele>
        <time>2012-08-05T15:26:18Z</time>
      </trkpt>
      <trkpt lat="45.89961" lon="6.64141">
        <ele>940.31</ele>
        <time>2012-08-05T15:26:19Z</time>
      </trkpt>
      <trkpt lat="45.89953" lon="6.64137">
        <ele>941.27</ele>
        <time>2012-08-05T15:26:20Z</time>
      </trkpt>
      <trkpt lat="45.89945" lon="6.64134">
        <ele>941.75</ele>
        <time>2012-08-05T15:26:21Z</time>
      </trkpt>
      <trkpt lat="45.89937" lon="6.64132">
        <ele>942.23</ele>
        <time>2012-08-05T15:26:22Z</time>
      </trkpt>
      <trkpt lat="45.89928" lon="6.64131">
        <ele>942.71</ele>
        <time>2012-08-05T15:26:23Z</time>
      </trkpt>
      <trkpt lat="45.89919" lon="6.64132">
        <ele>943.19</ele>
        <time>2012-08-05T15:26:24Z</time>
      </trkpt>
      <trkpt lat="45.8991" lon="6.64134">
        <ele>943.67</ele>
        <time>2012-08-05T15:26:25Z</time>
      </trkpt>
      <trkpt lat="45.89902" lon="6.64137">
        <ele>944.15</ele>
        <time>2012-08-05T15:26:26Z</time>
      </trkpt>
      <trkpt lat="45.89893" lon="6.64141">
        <ele>945.11</ele>
        <time>2012-08-05T15:26:27Z</time>
      </trkpt>
      <trkpt lat="45.89885" lon="6.64146">
        <ele>945.11</ele>
        <time>2012-08-05T15:26:28Z</time>
      </trkpt>
      <trkpt lat="45.89878" lon="6.64151">
        <ele>946.07</ele>
        <time>2012-08-05T15:26:29Z</time>
      </trkpt>
      <trkpt lat="45.89871" lon="6.64158">
        <ele>946.56</ele>
        <time>2012-08-05T15:26:30Z</time>
      </trkpt>
      <trkpt lat="45.89834" lon="6.64189">
        <ele>948.96</ele>
        <time>2012-08-05T15:26:35Z</time>
      </trkpt>
      <trkpt lat="45.89784" lon="6.64234">
        <ele>951.84</ele>
        <time>2012-08-05T15:26:42Z</time>
      </trkpt>
      <trkpt lat="45.89759" lon="6.64258">
        <ele>954.25</ele>
        <time>2012-08-05T15:26:46Z</time>
      </trkpt>
      <trkpt lat="45.89725" lon="6.64289">
        <ele>956.17</ele>
        <time>2012-08-05T15:26:53Z</time>
      </trkpt>
      <trkpt lat="45.89685" lon="6.64321">
        <ele>958.57</ele>
        <time>2012-08-05T15:27:03Z</time>
      </trkpt>
      <trkpt lat="45.89543" lon="6.64409">
        <ele>978.76</ele>
        <time>2012-08-05T15:28:28Z</time>
      </trkpt>
      <trkpt lat="45.89547" lon="6.6443">
        <ele>978.76</ele>
        <time>2012-08-05T15:28:31Z</time>
      </trkpt>
      <trkpt lat="45.89556" lon="6.64453">
        <ele>979.24</ele>
        <time>2012-08-05T15:29:26Z</time>
      </trkpt>
      <trkpt lat="45.8955" lon="6.64429">
        <ele>975.39</ele>
        <time>2012-08-05T15:29:39Z</time>
      </trkpt>
      <trkpt lat="45.8955" lon="6.64429">
        <ele>980.2</ele>
        <time>2012-08-05T15:29:40Z</time>
      </trkpt>
      <trkpt lat="45.89552" lon="6.6443">
        <ele>979.24</ele>
        <time>2012-08-05T15:30:02Z</time>
      </trkpt>
      <trkpt lat="45.89562" lon="6.64435">
        <ele>984.53</ele>
        <time>2012-08-05T16:01:45Z</time>
      </trkpt>
      <trkpt lat="45.89563" lon="6.64433">
        <ele>985.01</ele>
        <time>2012-08-05T16:01:47Z</time>
      </trkpt>
      <trkpt lat="45.89562" lon="6.64434">
        <ele>983.57</ele>
        <time>2012-08-05T16:01:55Z</time>
      </trkpt>
      <trkpt lat="45.89562" lon="6.64433">
        <ele>983.57</ele>
        <time>2012-08-05T16:01:56Z</time>
      </trkpt>
      <trkpt lat="45.89563" lon="6.64433">
        <ele>983.09</ele>
        <time>2012-08-05T16:02:03Z</time>
      </trkpt>
      <trkpt lat="45.89562" lon="6.64437">
        <ele>979.24</ele>
        <time>2012-08-05T16:02:15Z</time>
      </trkpt>
      <trkpt lat="45.89561" lon="6.6444">
        <ele>979.24</ele>
        <time>2012-08-05T16:02:44Z</time>
      </trkpt>
      <trkpt lat="45.89563" lon="6.6444">
        <ele>979.24</ele>
        <time>2012-08-05T16:03:15Z</time>
      </trkpt>
      <trkpt lat="45.89563" lon="6.6444">
        <ele>979.24</ele>
        <time>2012-08-05T16:03:17Z</time>
      </trkpt>
      <trkpt lat="45.89571" lon="6.64439">
        <ele>979.72</ele>
        <time>2012-08-05T16:03:20Z</time>
      </trkpt>
      <trkpt lat="45.89573" lon="6.64434">
        <ele>979.24</ele>
        <time>2012-08-05T16:03:21Z</time>
      </trkpt>
      <trkpt lat="45.89576" lon="6.64429">
        <ele>978.76</ele>
        <time>2012-08-05T16:03:22Z</time>
      </trkpt>
      <trkpt lat="45.89579" lon="6.64424">
        <ele>978.76</ele>
        <time>2012-08-05T16:03:23Z</time>
      </trkpt>
      <trkpt lat="45.89583" lon="6.64419">
        <ele>978.76</ele>
        <time>2012-08-05T16:03:24Z</time>
      </trkpt>
      <trkpt lat="45.89606" lon="6.64392">
        <ele>977.32</ele>
        <time>2012-08-05T16:03:29Z</time>
      </trkpt>
      <trkpt lat="45.89624" lon="6.64375">
        <ele>974.91</ele>
        <time>2012-08-05T16:03:37Z</time>
      </trkpt>
      <trkpt lat="45.89631" lon="6.64371">
        <ele>975.39</ele>
        <time>2012-08-05T16:03:49Z</time>
      </trkpt>
      <trkpt lat="45.89635" lon="6.6437">
        <ele>974.91</ele>
        <time>2012-08-05T16:03:50Z</time>
      </trkpt>
      <trkpt lat="45.89639" lon="6.64369">
        <ele>974.43</ele>
        <time>2012-08-05T16:03:51Z</time>
      </trkpt>
      <trkpt lat="45.89643" lon="6.64369">
        <ele>973.95</ele>
        <time>2012-08-05T16:03:52Z</time>
      </trkpt>
      <trkpt lat="45.89649" lon="6.64369">
        <ele>973.95</ele>
        <time>2012-08-05T16:03:53Z</time>
      </trkpt>
      <trkpt lat="45.89654" lon="6.64367">
        <ele>973.47</ele>
        <time>2012-08-05T16:03:54Z</time>
      </trkpt>
      <trkpt lat="45.8966" lon="6.64363">
        <ele>972.99</ele>
        <time>2012-08-05T16:03:55Z</time>
      </trkpt>
      <trkpt lat="45.89664" lon="6.64357">
        <ele>972.99</ele>
        <time>2012-08-05T16:03:56Z</time>
      </trkpt>
      <trkpt lat="45.89667" lon="6.6435">
        <ele>972.99</ele>
        <time>2012-08-05T16:03:57Z</time>
      </trkpt>
      <trkpt lat="45.89677" lon="6.64335">
        <ele>972.51</ele>
        <time>2012-08-05T16:04:00Z</time>
      </trkpt>
      <trkpt lat="45.89681" lon="6.64331">
        <ele>972.03</ele>
        <time>2012-08-05T16:04:01Z</time>
      </trkpt>
      <trkpt lat="45.89735" lon="6.64285">
        <ele>968.67</ele>
        <time>2012-08-05T16:04:11Z</time>
      </trkpt>
      <trkpt lat="45.89746" lon="6.64276">
        <ele>967.7</ele>
        <time>2012-08-05T16:04:13Z</time>
      </trkpt>
      <trkpt lat="45.89751" lon="6.64271">
        <ele>967.22</ele>
        <time>2012-08-05T16:04:14Z</time>
      </trkpt>
      <trkpt lat="45.89778" lon="6.64249">
        <ele>965.78</ele>
        <time>2012-08-05T16:04:19Z</time>
      </trkpt>
      <trkpt lat="45.89784" lon="6.64243">
        <ele>965.3</ele>
        <time>2012-08-05T16:04:20Z</time>
      </trkpt>
      <trkpt lat="45.89791" lon="6.64238">
        <ele>965.3</ele>
        <time>2012-08-05T16:04:21Z</time>
      </trkpt>
      <trkpt lat="45.89803" lon="6.64227">
        <ele>964.34</ele>
        <time>2012-08-05T16:04:23Z</time>
      </trkpt>
      <trkpt lat="45.89809" lon="6.64222">
        <ele>963.86</ele>
        <time>2012-08-05T16:04:24Z</time>
      </trkpt>
      <trkpt lat="45.89823" lon="6.64211">
        <ele>962.9</ele>
        <time>2012-08-05T16:04:26Z</time>
      </trkpt>
      <trkpt lat="45.89829" lon="6.64205">
        <ele>962.42</ele>
        <time>2012-08-05T16:04:27Z</time>
      </trkpt>
      <trkpt lat="45.89887" lon="6.64152">
        <ele>959.53</ele>
        <time>2012-08-05T16:04:33Z</time>
      </trkpt>
      <trkpt lat="45.89898" lon="6.64145">
        <ele>959.05</ele>
        <time>2012-08-05T16:04:34Z</time>
      </trkpt>
      <trkpt lat="45.8991" lon="6.6414">
        <ele>959.05</ele>
        <time>2012-08-05T16:04:35Z</time>
      </trkpt>
      <trkpt lat="45.89921" lon="6.64137">
        <ele>958.09</ele>
        <time>2012-08-05T16:04:36Z</time>
      </trkpt>
      <trkpt lat="45.89933" lon="6.64136">
        <ele>957.61</ele>
        <time>2012-08-05T16:04:37Z</time>
      </trkpt>
      <trkpt lat="45.89944" lon="6.64137">
        <ele>956.17</ele>
        <time>2012-08-05T16:04:38Z</time>
      </trkpt>
      <trkpt lat="45.89956" lon="6.64141">
        <ele>955.69</ele>
        <time>2012-08-05T16:04:39Z</time>
      </trkpt>
      <trkpt lat="45.89966" lon="6.64146">
        <ele>954.73</ele>
        <time>2012-08-05T16:04:40Z</time>
      </trkpt>
      <trkpt lat="45.89975" lon="6.64152">
        <ele>953.77</ele>
        <time>2012-08-05T16:04:41Z</time>
      </trkpt>
      <trkpt lat="45.89984" lon="6.64159">
        <ele>953.28</ele>
        <time>2012-08-05T16:04:42Z</time>
      </trkpt>
      <trkpt lat="45.89994" lon="6.64167">
        <ele>952.8</ele>
        <time>2012-08-05T16:04:43Z</time>
      </trkpt>
      <trkpt lat="45.90006" lon="6.64175">
        <ele>952.8</ele>
        <time>2012-08-05T16:04:44Z</time>
      </trkpt>
      <trkpt lat="45.90019" lon="6.64182">
        <ele>952.32</ele>
        <time>2012-08-05T16:04:45Z</time>
      </trkpt>
      <trkpt lat="45.90065" lon="6.64213">
        <ele>948.96</ele>
        <time>2012-08-05T16:04:49Z</time>
      </trkpt>
      <trkpt lat="45.9011" lon="6.64247">
        <ele>947.52</ele>
        <time>2012-08-05T16:04:53Z</time>
      </trkpt>
      <trkpt lat="45.9012" lon="6.64258">
        <ele>946.07</ele>
        <time>2012-08-05T16:04:54Z</time>
      </trkpt>
      <trkpt lat="45.90127" lon="6.64271">
        <ele>945.11</ele>
        <time>2012-08-05T16:04:55Z</time>
      </trkpt>
      <trkpt lat="45.90132" lon="6.64285">
        <ele>944.63</ele>
        <time>2012-08-05T16:04:56Z</time>
      </trkpt>
      <trkpt lat="45.90134" lon="6.64301">
        <ele>943.19</ele>
        <time>2012-08-05T16:04:57Z</time>
      </trkpt>
      <trkpt lat="45.90134" lon="6.64317">
        <ele>942.71</ele>
        <time>2012-08-05T16:04:58Z</time>
      </trkpt>
      <trkpt lat="45.90131" lon="6.64333">
        <ele>941.75</ele>
        <time>2012-08-05T16:04:59Z</time>
      </trkpt>
      <trkpt lat="45.90126" lon="6.64348">
        <ele>941.75</ele>
        <time>2012-08-05T16:05:00Z</time>
      </trkpt>
      <trkpt lat="45.90118" lon="6.6436">
        <ele>941.27</ele>
        <time>2012-08-05T16:05:01Z</time>
      </trkpt>
      <trkpt lat="45.90108" lon="6.64369">
        <ele>940.31</ele>
        <time>2012-08-05T16:05:02Z</time>
      </trkpt>
      <trkpt lat="45.90097" lon="6.64374">
        <ele>939.83</ele>
        <time>2012-08-05T16:05:03Z</time>
      </trkpt>
      <trkpt lat="45.90084" lon="6.64376">
        <ele>939.83</ele>
        <time>2012-08-05T16:05:04Z</time>
      </trkpt>
      <trkpt lat="45.90071" lon="6.64375">
        <ele>939.35</ele>
        <time>2012-08-05T16:05:05Z</time>
      </trkpt>
      <trkpt lat="45.90058" lon="6.64375">
        <ele>938.86</ele>
        <time>2012-08-05T16:05:06Z</time>
      </trkpt>
      <trkpt lat="45.90045" lon="6.64376">
        <ele>938.86</ele>
        <time>2012-08-05T16:05:07Z</time>
      </trkpt>
      <trkpt lat="45.90032" lon="6.64381">
        <ele>937.9</ele>
        <time>2012-08-05T16:05:08Z</time>
      </trkpt>
      <trkpt lat="45.90019" lon="6.64388">
        <ele>937.42</ele>
        <time>2012-08-05T16:05:09Z</time>
      </trkpt>
      <trkpt lat="45.90007" lon="6.64398">
        <ele>935.98</ele>
        <time>2012-08-05T16:05:10Z</time>
      </trkpt>
      <trkpt lat="45.89996" lon="6.64408">
        <ele>935.5</ele>
        <time>2012-08-05T16:05:11Z</time>
      </trkpt>
      <trkpt lat="45.89986" lon="6.6442">
        <ele>935.02</ele>
        <time>2012-08-05T16:05:12Z</time>
      </trkpt>
      <trkpt lat="45.89979" lon="6.64433">
        <ele>934.06</ele>
        <time>2012-08-05T16:05:13Z</time>
      </trkpt>
      <trkpt lat="45.89974" lon="6.6445">
        <ele>933.1</ele>
        <time>2012-08-05T16:05:14Z</time>
      </trkpt>
      <trkpt lat="45.89971" lon="6.64469">
        <ele>932.62</ele>
        <time>2012-08-05T16:05:15Z</time>
      </trkpt>
      <trkpt lat="45.8997" lon="6.6449">
        <ele>932.62</ele>
        <time>2012-08-05T16:05:16Z</time>
      </trkpt>
      <trkpt lat="45.89971" lon="6.64511">
        <ele>931.17</ele>
        <time>2012-08-05T16:05:17Z</time>
      </trkpt>
      <trkpt lat="45.89972" lon="6.6453">
        <ele>930.69</ele>
        <time>2012-08-05T16:05:18Z</time>
      </trkpt>
      <trkpt lat="45.89972" lon="6.6455">
        <ele>929.73</ele>
        <time>2012-08-05T16:05:19Z</time>
      </trkpt>
      <trkpt lat="45.89968" lon="6.64569">
        <ele>928.77</ele>
        <time>2012-08-05T16:05:20Z</time>
      </trkpt>
      <trkpt lat="45.8996" lon="6.64586">
        <ele>928.29</ele>
        <time>2012-08-05T16:05:21Z</time>
      </trkpt>
      <trkpt lat="45.8995" lon="6.64602">
        <ele>927.81</ele>
        <time>2012-08-05T16:05:22Z</time>
      </trkpt>
      <trkpt lat="45.8994" lon="6.64617">
        <ele>926.85</ele>
        <time>2012-08-05T16:05:23Z</time>
      </trkpt>
      <trkpt lat="45.89905" lon="6.64667">
        <ele>923.48</ele>
        <time>2012-08-05T16:05:27Z</time>
      </trkpt>
      <trkpt lat="45.8989" lon="6.64686">
        <ele>921.56</ele>
        <time>2012-08-05T16:05:29Z</time>
      </trkpt>
      <trkpt lat="45.89881" lon="6.64695">
        <ele>921.56</ele>
        <time>2012-08-05T16:05:30Z</time>
      </trkpt>
      <trkpt lat="45.89871" lon="6.64708">
        <ele>921.56</ele>
        <time>2012-08-05T16:05:31Z</time>
      </trkpt>
      <trkpt lat="45.89852" lon="6.64739">
        <ele>921.08</ele>
        <time>2012-08-05T16:05:33Z</time>
      </trkpt>
      <trkpt lat="45.89804" lon="6.64808">
        <ele>917.72</ele>
        <time>2012-08-05T16:05:37Z</time>
      </trkpt>
      <trkpt lat="45.89761" lon="6.64879">
        <ele>914.83</ele>
        <time>2012-08-05T16:05:41Z</time>
      </trkpt>
      <trkpt lat="45.89753" lon="6.64899">
        <ele>913.39</ele>
        <time>2012-08-05T16:05:42Z</time>
      </trkpt>
      <trkpt lat="45.89746" lon="6.64922">
        <ele>912.43</ele>
        <time>2012-08-05T16:05:43Z</time>
      </trkpt>
      <trkpt lat="45.89722" lon="6.64986">
        <ele>910.03</ele>
        <time>2012-08-05T16:05:46Z</time>
      </trkpt>
      <trkpt lat="45.89712" lon="6.65004">
        <ele>909.54</ele>
        <time>2012-08-05T16:05:47Z</time>
      </trkpt>
      <trkpt lat="45.897" lon="6.6502">
        <ele>908.58</ele>
        <time>2012-08-05T16:05:48Z</time>
      </trkpt>
      <trkpt lat="45.89678" lon="6.65045">
        <ele>905.7</ele>
        <time>2012-08-05T16:05:50Z</time>
      </trkpt>
      <trkpt lat="45.8967" lon="6.65058">
        <ele>904.74</ele>
        <time>2012-08-05T16:05:51Z</time>
      </trkpt>
      <trkpt lat="45.89666" lon="6.65074">
        <ele>903.3</ele>
        <time>2012-08-05T16:05:52Z</time>
      </trkpt>
      <trkpt lat="45.89665" lon="6.65091">
        <ele>902.82</ele>
        <time>2012-08-05T16:05:53Z</time>
      </trkpt>
      <trkpt lat="45.89667" lon="6.65108">
        <ele>902.82</ele>
        <time>2012-08-05T16:05:54Z</time>
      </trkpt>
      <trkpt lat="45.89673" lon="6.65123">
        <ele>900.89</ele>
        <time>2012-08-05T16:05:55Z</time>
      </trkpt>
      <trkpt lat="45.89682" lon="6.65135">
        <ele>901.37</ele>
        <time>2012-08-05T16:05:56Z</time>
      </trkpt>
      <trkpt lat="45.89694" lon="6.65142">
        <ele>900.89</ele>
        <time>2012-08-05T16:05:57Z</time>
      </trkpt>
      <trkpt lat="45.89706" lon="6.65144">
        <ele>900.41</ele>
        <time>2012-08-05T16:05:58Z</time>
      </trkpt>
      <trkpt lat="45.89719" lon="6.6514">
        <ele>900.89</ele>
        <time>2012-08-05T16:05:59Z</time>
      </trkpt>
      <trkpt lat="45.89733" lon="6.65132">
        <ele>900.89</ele>
        <time>2012-08-05T16:06:00Z</time>
      </trkpt>
      <trkpt lat="45.89747" lon="6.65123">
        <ele>899.45</ele>
        <time>2012-08-05T16:06:01Z</time>
      </trkpt>
      <trkpt lat="45.8976" lon="6.65116">
        <ele>898.49</ele>
        <time>2012-08-05T16:06:02Z</time>
      </trkpt>
      <trkpt lat="45.898" lon="6.65108">
        <ele>894.16</ele>
        <time>2012-08-05T16:06:05Z</time>
      </trkpt>
      <trkpt lat="45.89812" lon="6.65113">
        <ele>893.68</ele>
        <time>2012-08-05T16:06:06Z</time>
      </trkpt>
      <trkpt lat="45.89824" lon="6.65125">
        <ele>892.72</ele>
        <time>2012-08-05T16:06:07Z</time>
      </trkpt>
      <trkpt lat="45.89836" lon="6.65138">
        <ele>893.2</ele>
        <time>2012-08-05T16:06:08Z</time>
      </trkpt>
      <trkpt lat="45.89849" lon="6.65148">
        <ele>892.72</ele>
        <time>2012-08-05T16:06:09Z</time>
      </trkpt>
      <trkpt lat="45.89862" lon="6.65156">
        <ele>890.8</ele>
        <time>2012-08-05T16:06:10Z</time>
      </trkpt>
      <trkpt lat="45.89876" lon="6.6516">
        <ele>889.36</ele>
        <time>2012-08-05T16:06:11Z</time>
      </trkpt>
      <trkpt lat="45.8989" lon="6.65162">
        <ele>887.91</ele>
        <time>2012-08-05T16:06:12Z</time>
      </trkpt>
      <trkpt lat="45.89903" lon="6.65161">
        <ele>887.43</ele>
        <time>2012-08-05T16:06:13Z</time>
      </trkpt>
      <trkpt lat="45.89916" lon="6.65158">
        <ele>886.47</ele>
        <time>2012-08-05T16:06:14Z</time>
      </trkpt>
      <trkpt lat="45.89928" lon="6.65153">
        <ele>885.99</ele>
        <time>2012-08-05T16:06:15Z</time>
      </trkpt>
      <trkpt lat="45.89939" lon="6.65145">
        <ele>884.55</ele>
        <time>2012-08-05T16:06:16Z</time>
      </trkpt>
      <trkpt lat="45.89947" lon="6.65128">
        <ele>883.59</ele>
        <time>2012-08-05T16:06:17Z</time>
      </trkpt>
      <trkpt lat="45.8996" lon="6.65121">
        <ele>883.11</ele>
        <time>2012-08-05T16:06:18Z</time>
      </trkpt>
      <trkpt lat="45.89979" lon="6.65097">
        <ele>881.19</ele>
        <time>2012-08-05T16:06:20Z</time>
      </trkpt>
      <trkpt lat="45.89989" lon="6.65086">
        <ele>880.22</ele>
        <time>2012-08-05T16:06:21Z</time>
      </trkpt>
      <trkpt lat="45.89999" lon="6.65076">
        <ele>879.74</ele>
        <time>2012-08-05T16:06:22Z</time>
      </trkpt>
      <trkpt lat="45.90008" lon="6.65063">
        <ele>878.78</ele>
        <time>2012-08-05T16:06:23Z</time>
      </trkpt>
      <trkpt lat="45.90017" lon="6.6505">
        <ele>877.82</ele>
        <time>2012-08-05T16:06:24Z</time>
      </trkpt>
      <trkpt lat="45.90026" lon="6.65035">
        <ele>877.34</ele>
        <time>2012-08-05T16:06:25Z</time>
      </trkpt>
      <trkpt lat="45.9006" lon="6.64982">
        <ele>874.46</ele>
        <time>2012-08-05T16:06:29Z</time>
      </trkpt>
      <trkpt lat="45.9008" lon="6.6496">
        <ele>872.53</ele>
        <time>2012-08-05T16:06:31Z</time>
      </trkpt>
      <trkpt lat="45.9009" lon="6.64947">
        <ele>872.05</ele>
        <time>2012-08-05T16:06:32Z</time>
      </trkpt>
      <trkpt lat="45.901" lon="6.64931">
        <ele>871.57</ele>
        <time>2012-08-05T16:06:33Z</time>
      </trkpt>
      <trkpt lat="45.90144" lon="6.64859">
        <ele>869.17</ele>
        <time>2012-08-05T16:06:37Z</time>
      </trkpt>
      <trkpt lat="45.90193" lon="6.64789">
        <ele>865.32</ele>
        <time>2012-08-05T16:06:41Z</time>
      </trkpt>
      <trkpt lat="45.90215" lon="6.64752">
        <ele>861</ele>
        <time>2012-08-05T16:06:43Z</time>
      </trkpt>
      <trkpt lat="45.90225" lon="6.64737">
        <ele>859.56</ele>
        <time>2012-08-05T16:06:44Z</time>
      </trkpt>
      <trkpt lat="45.90237" lon="6.64724">
        <ele>858.59</ele>
        <time>2012-08-05T16:06:45Z</time>
      </trkpt>
      <trkpt lat="45.90249" lon="6.64715">
        <ele>857.15</ele>
        <time>2012-08-05T16:06:46Z</time>
      </trkpt>
      <trkpt lat="45.9026" lon="6.64709">
        <ele>855.23</ele>
        <time>2012-08-05T16:06:47Z</time>
      </trkpt>
      <trkpt lat="45.9027" lon="6.64704">
        <ele>854.75</ele>
        <time>2012-08-05T16:06:48Z</time>
      </trkpt>
      <trkpt lat="45.90279" lon="6.64696">
        <ele>854.75</ele>
        <time>2012-08-05T16:06:49Z</time>
      </trkpt>
      <trkpt lat="45.90287" lon="6.64684">
        <ele>853.79</ele>
        <time>2012-08-05T16:06:50Z</time>
      </trkpt>
      <trkpt lat="45.90295" lon="6.64671">
        <ele>852.83</ele>
        <time>2012-08-05T16:06:51Z</time>
      </trkpt>
      <trkpt lat="45.90304" lon="6.6466">
        <ele>851.38</ele>
        <time>2012-08-05T16:06:52Z</time>
      </trkpt>
      <trkpt lat="45.90314" lon="6.64651">
        <ele>850.9</ele>
        <time>2012-08-05T16:06:53Z</time>
      </trkpt>
      <trkpt lat="45.90326" lon="6.64646">
        <ele>848.98</ele>
        <time>2012-08-05T16:06:54Z</time>
      </trkpt>
      <trkpt lat="45.90348" lon="6.64637">
        <ele>848.02</ele>
        <time>2012-08-05T16:06:56Z</time>
      </trkpt>
      <trkpt lat="45.90358" lon="6.6463">
        <ele>847.54</ele>
        <time>2012-08-05T16:06:57Z</time>
      </trkpt>
      <trkpt lat="45.90366" lon="6.6462">
        <ele>846.58</ele>
        <time>2012-08-05T16:06:58Z</time>
      </trkpt>
      <trkpt lat="45.90371" lon="6.64607">
        <ele>845.14</ele>
        <time>2012-08-05T16:06:59Z</time>
      </trkpt>
      <trkpt lat="45.90374" lon="6.64593">
        <ele>844.66</ele>
        <time>2012-08-05T16:07:00Z</time>
      </trkpt>
      <trkpt lat="45.90373" lon="6.6458">
        <ele>844.66</ele>
        <time>2012-08-05T16:07:01Z</time>
      </trkpt>
      <trkpt lat="45.9037" lon="6.64568">
        <ele>844.18</ele>
        <time>2012-08-05T16:07:02Z</time>
      </trkpt>
      <trkpt lat="45.90367" lon="6.64556">
        <ele>842.25</ele>
        <time>2012-08-05T16:07:03Z</time>
      </trkpt>
      <trkpt lat="45.90364" lon="6.64544">
        <ele>841.29</ele>
        <time>2012-08-05T16:07:04Z</time>
      </trkpt>
      <trkpt lat="45.90364" lon="6.6453">
        <ele>841.77</ele>
        <time>2012-08-05T16:07:05Z</time>
      </trkpt>
      <trkpt lat="45.90366" lon="6.64516">
        <ele>841.29</ele>
        <time>2012-08-05T16:07:06Z</time>
      </trkpt>
      <trkpt lat="45.90369" lon="6.64502">
        <ele>840.81</ele>
        <time>2012-08-05T16:07:07Z</time>
      </trkpt>
      <trkpt lat="45.90376" lon="6.64475">
        <ele>839.37</ele>
        <time>2012-08-05T16:07:09Z</time>
      </trkpt>
      <trkpt lat="45.90384" lon="6.64462">
        <ele>838.89</ele>
        <time>2012-08-05T16:07:10Z</time>
      </trkpt>
      <trkpt lat="45.9041" lon="6.64423">
        <ele>837.45</ele>
        <time>2012-08-05T16:07:13Z</time>
      </trkpt>
      <trkpt lat="45.90416" lon="6.64406">
        <ele>836.96</ele>
        <time>2012-08-05T16:07:14Z</time>
      </trkpt>
      <trkpt lat="45.9042" lon="6.64387">
        <ele>836</ele>
        <time>2012-08-05T16:07:15Z</time>
      </trkpt>
      <trkpt lat="45.90423" lon="6.64369">
        <ele>835.52</ele>
        <time>2012-08-05T16:07:16Z</time>
      </trkpt>
      <trkpt lat="45.90426" lon="6.6435">
        <ele>834.08</ele>
        <time>2012-08-05T16:07:17Z</time>
      </trkpt>
      <trkpt lat="45.90433" lon="6.64312">
        <ele>832.16</ele>
        <time>2012-08-05T16:07:19Z</time>
      </trkpt>
      <trkpt lat="45.90438" lon="6.64292">
        <ele>831.2</ele>
        <time>2012-08-05T16:07:20Z</time>
      </trkpt>
      <trkpt lat="45.90458" lon="6.64235">
        <ele>828.79</ele>
        <time>2012-08-05T16:07:23Z</time>
      </trkpt>
      <trkpt lat="45.90462" lon="6.64216">
        <ele>827.83</ele>
        <time>2012-08-05T16:07:24Z</time>
      </trkpt>
      <trkpt lat="45.90473" lon="6.64162">
        <ele>824.95</ele>
        <time>2012-08-05T16:07:27Z</time>
      </trkpt>
      <trkpt lat="45.9048" lon="6.64145">
        <ele>824.47</ele>
        <time>2012-08-05T16:07:28Z</time>
      </trkpt>
      <trkpt lat="45.90489" lon="6.6413">
        <ele>823.99</ele>
        <time>2012-08-05T16:07:29Z</time>
      </trkpt>
      <trkpt lat="45.90501" lon="6.64117">
        <ele>823.99</ele>
        <time>2012-08-05T16:07:30Z</time>
      </trkpt>
      <trkpt lat="45.90515" lon="6.64109">
        <ele>823.03</ele>
        <time>2012-08-05T16:07:31Z</time>
      </trkpt>
      <trkpt lat="45.90529" lon="6.64105">
        <ele>822.06</ele>
        <time>2012-08-05T16:07:32Z</time>
      </trkpt>
      <trkpt lat="45.90542" lon="6.64104">
        <ele>821.1</ele>
        <time>2012-08-05T16:07:33Z</time>
      </trkpt>
      <trkpt lat="45.90555" lon="6.64104">
        <ele>821.1</ele>
        <time>2012-08-05T16:07:34Z</time>
      </trkpt>
      <trkpt lat="45.90569" lon="6.64104">
        <ele>821.1</ele>
        <time>2012-08-05T16:07:35Z</time>
      </trkpt>
      <trkpt lat="45.90582" lon="6.64101">
        <ele>820.14</ele>
        <time>2012-08-05T16:07:36Z</time>
      </trkpt>
      <trkpt lat="45.90631" lon="6.64081">
        <ele>816.78</ele>
        <time>2012-08-05T16:07:40Z</time>
      </trkpt>
      <trkpt lat="45.90641" lon="6.64071">
        <ele>815.82</ele>
        <time>2012-08-05T16:07:41Z</time>
      </trkpt>
      <trkpt lat="45.9065" lon="6.64061">
        <ele>814.85</ele>
        <time>2012-08-05T16:07:42Z</time>
      </trkpt>
      <trkpt lat="45.90661" lon="6.64053">
        <ele>813.41</ele>
        <time>2012-08-05T16:07:43Z</time>
      </trkpt>
      <trkpt lat="45.90672" lon="6.6405">
        <ele>812.45</ele>
        <time>2012-08-05T16:07:44Z</time>
      </trkpt>
      <trkpt lat="45.90684" lon="6.64052">
        <ele>811.97</ele>
        <time>2012-08-05T16:07:45Z</time>
      </trkpt>
      <trkpt lat="45.90697" lon="6.64058">
        <ele>811.01</ele>
        <time>2012-08-05T16:07:46Z</time>
      </trkpt>
      <trkpt lat="45.9071" lon="6.64063">
        <ele>810.53</ele>
        <time>2012-08-05T16:07:47Z</time>
      </trkpt>
      <trkpt lat="45.90723" lon="6.64064">
        <ele>810.53</ele>
        <time>2012-08-05T16:07:48Z</time>
      </trkpt>
      <trkpt lat="45.90735" lon="6.64061">
        <ele>810.05</ele>
        <time>2012-08-05T16:07:49Z</time>
      </trkpt>
      <trkpt lat="45.90748" lon="6.64055">
        <ele>809.57</ele>
        <time>2012-08-05T16:07:50Z</time>
      </trkpt>
      <trkpt lat="45.9076" lon="6.64044">
        <ele>808.61</ele>
        <time>2012-08-05T16:07:51Z</time>
      </trkpt>
      <trkpt lat="45.90779" lon="6.64022">
        <ele>805.72</ele>
        <time>2012-08-05T16:07:53Z</time>
      </trkpt>
      <trkpt lat="45.90789" lon="6.64013">
        <ele>804.76</ele>
        <time>2012-08-05T16:07:54Z</time>
      </trkpt>
      <trkpt lat="45.908" lon="6.64009">
        <ele>804.76</ele>
        <time>2012-08-05T16:07:55Z</time>
      </trkpt>
      <trkpt lat="45.90812" lon="6.64009">
        <ele>803.32</ele>
        <time>2012-08-05T16:07:56Z</time>
      </trkpt>
      <trkpt lat="45.90823" lon="6.64014">
        <ele>802.36</ele>
        <time>2012-08-05T16:07:57Z</time>
      </trkpt>
      <trkpt lat="45.90834" lon="6.64021">
        <ele>799.95</ele>
        <time>2012-08-05T16:07:58Z</time>
      </trkpt>
      <trkpt lat="45.90846" lon="6.64028">
        <ele>803.32</ele>
        <time>2012-08-05T16:07:59Z</time>
      </trkpt>
      <trkpt lat="45.90859" lon="6.64033">
        <ele>800.44</ele>
        <time>2012-08-05T16:08:00Z</time>
      </trkpt>
      <trkpt lat="45.90871" lon="6.64038">
        <ele>796.59</ele>
        <time>2012-08-05T16:08:01Z</time>
      </trkpt>
      <trkpt lat="45.90883" lon="6.64041">
        <ele>799.47</ele>
        <time>2012-08-05T16:08:02Z</time>
      </trkpt>
      <trkpt lat="45.90907" lon="6.64046">
        <ele>797.07</ele>
        <time>2012-08-05T16:08:04Z</time>
      </trkpt>
      <trkpt lat="45.90917" lon="6.64045">
        <ele>795.63</ele>
        <time>2012-08-05T16:08:05Z</time>
      </trkpt>
      <trkpt lat="45.90925" lon="6.64042">
        <ele>794.67</ele>
        <time>2012-08-05T16:08:06Z</time>
      </trkpt>
      <trkpt lat="45.90932" lon="6.64036">
        <ele>794.19</ele>
        <time>2012-08-05T16:08:07Z</time>
      </trkpt>
      <trkpt lat="45.90937" lon="6.64027">
        <ele>794.19</ele>
        <time>2012-08-05T16:08:08Z</time>
      </trkpt>
      <trkpt lat="45.90939" lon="6.64018">
        <ele>793.71</ele>
        <time>2012-08-05T16:08:09Z</time>
      </trkpt>
      <trkpt lat="45.90939" lon="6.64009">
        <ele>793.22</ele>
        <time>2012-08-05T16:08:10Z</time>
      </trkpt>
      <trkpt lat="45.90935" lon="6.64001">
        <ele>793.22</ele>
        <time>2012-08-05T16:08:11Z</time>
      </trkpt>
      <trkpt lat="45.90929" lon="6.63992">
        <ele>792.26</ele>
        <time>2012-08-05T16:08:12Z</time>
      </trkpt>
      <trkpt lat="45.90922" lon="6.63982">
        <ele>787.94</ele>
        <time>2012-08-05T16:08:13Z</time>
      </trkpt>
      <trkpt lat="45.90913" lon="6.63973">
        <ele>790.82</ele>
        <time>2012-08-05T16:08:14Z</time>
      </trkpt>
      <trkpt lat="45.90904" lon="6.63963">
        <ele>789.38</ele>
        <time>2012-08-05T16:08:15Z</time>
      </trkpt>
      <trkpt lat="45.90896" lon="6.63951">
        <ele>788.42</ele>
        <time>2012-08-05T16:08:16Z</time>
      </trkpt>
      <trkpt lat="45.90891" lon="6.63936">
        <ele>787.46</ele>
        <time>2012-08-05T16:08:17Z</time>
      </trkpt>
      <trkpt lat="45.90891" lon="6.6392">
        <ele>786.98</ele>
        <time>2012-08-05T16:08:18Z</time>
      </trkpt>
      <trkpt lat="45.90893" lon="6.63902">
        <ele>786.5</ele>
        <time>2012-08-05T16:08:19Z</time>
      </trkpt>
      <trkpt lat="45.90893" lon="6.63885">
        <ele>786.02</ele>
        <time>2012-08-05T16:08:20Z</time>
      </trkpt>
      <trkpt lat="45.90893" lon="6.63868">
        <ele>785.53</ele>
        <time>2012-08-05T16:08:21Z</time>
      </trkpt>
      <trkpt lat="45.90893" lon="6.63851">
        <ele>784.57</ele>
        <time>2012-08-05T16:08:22Z</time>
      </trkpt>
      <trkpt lat="45.90895" lon="6.63835">
        <ele>783.61</ele>
        <time>2012-08-05T16:08:23Z</time>
      </trkpt>
      <trkpt lat="45.90898" lon="6.63822">
        <ele>782.17</ele>
        <time>2012-08-05T16:08:24Z</time>
      </trkpt>
      <trkpt lat="45.90905" lon="6.63812">
        <ele>781.21</ele>
        <time>2012-08-05T16:08:25Z</time>
      </trkpt>
      <trkpt lat="45.90915" lon="6.63807">
        <ele>780.25</ele>
        <time>2012-08-05T16:08:26Z</time>
      </trkpt>
      <trkpt lat="45.90926" lon="6.63809">
        <ele>779.77</ele>
        <time>2012-08-05T16:08:27Z</time>
      </trkpt>
      <trkpt lat="45.90937" lon="6.63814">
        <ele>779.29</ele>
        <time>2012-08-05T16:08:28Z</time>
      </trkpt>
      <trkpt lat="45.90948" lon="6.63817">
        <ele>778.32</ele>
        <time>2012-08-05T16:08:29Z</time>
      </trkpt>
      <trkpt lat="45.9096" lon="6.63815">
        <ele>778.32</ele>
        <time>2012-08-05T16:08:30Z</time>
      </trkpt>
      <trkpt lat="45.90971" lon="6.63808">
        <ele>777.84</ele>
        <time>2012-08-05T16:08:31Z</time>
      </trkpt>
      <trkpt lat="45.90982" lon="6.63799">
        <ele>776.88</ele>
        <time>2012-08-05T16:08:32Z</time>
      </trkpt>
      <trkpt lat="45.90994" lon="6.63794">
        <ele>775.92</ele>
        <time>2012-08-05T16:08:33Z</time>
      </trkpt>
      <trkpt lat="45.91005" lon="6.63791">
        <ele>774.96</ele>
        <time>2012-08-05T16:08:34Z</time>
      </trkpt>
      <trkpt lat="45.91016" lon="6.63792">
        <ele>774</ele>
        <time>2012-08-05T16:08:35Z</time>
      </trkpt>
      <trkpt lat="45.91029" lon="6.63797">
        <ele>774.48</ele>
        <time>2012-08-05T16:08:36Z</time>
      </trkpt>
      <trkpt lat="45.91074" lon="6.63813">
        <ele>771.11</ele>
        <time>2012-08-05T16:08:39Z</time>
      </trkpt>
      <trkpt lat="45.91086" lon="6.63821">
        <ele>770.15</ele>
        <time>2012-08-05T16:08:40Z</time>
      </trkpt>
      <trkpt lat="45.91103" lon="6.63837">
        <ele>767.27</ele>
        <time>2012-08-05T16:08:42Z</time>
      </trkpt>
      <trkpt lat="45.91111" lon="6.63842">
        <ele>766.31</ele>
        <time>2012-08-05T16:08:43Z</time>
      </trkpt>
      <trkpt lat="45.91119" lon="6.63843">
        <ele>765.83</ele>
        <time>2012-08-05T16:08:44Z</time>
      </trkpt>
      <trkpt lat="45.91128" lon="6.63841">
        <ele>765.83</ele>
        <time>2012-08-05T16:08:45Z</time>
      </trkpt>
      <trkpt lat="45.91137" lon="6.63837">
        <ele>765.35</ele>
        <time>2012-08-05T16:08:46Z</time>
      </trkpt>
      <trkpt lat="45.91144" lon="6.63829">
        <ele>765.35</ele>
        <time>2012-08-05T16:08:47Z</time>
      </trkpt>
      <trkpt lat="45.91148" lon="6.63819">
        <ele>764.87</ele>
        <time>2012-08-05T16:08:48Z</time>
      </trkpt>
      <trkpt lat="45.91149" lon="6.63805">
        <ele>763.42</ele>
        <time>2012-08-05T16:08:49Z</time>
      </trkpt>
      <trkpt lat="45.91149" lon="6.63788">
        <ele>762.94</ele>
        <time>2012-08-05T16:08:50Z</time>
      </trkpt>
      <trkpt lat="45.9115" lon="6.6377">
        <ele>762.46</ele>
        <time>2012-08-05T16:08:51Z</time>
      </trkpt>
      <trkpt lat="45.91152" lon="6.63751">
        <ele>761.02</ele>
        <time>2012-08-05T16:08:52Z</time>
      </trkpt>
      <trkpt lat="45.91157" lon="6.63733">
        <ele>761.02</ele>
        <time>2012-08-05T16:08:53Z</time>
      </trkpt>
      <trkpt lat="45.91181" lon="6.6367">
        <ele>756.69</ele>
        <time>2012-08-05T16:08:57Z</time>
      </trkpt>
      <trkpt lat="45.91189" lon="6.63658">
        <ele>756.21</ele>
        <time>2012-08-05T16:08:58Z</time>
      </trkpt>
      <trkpt lat="45.91199" lon="6.63648">
        <ele>754.77</ele>
        <time>2012-08-05T16:08:59Z</time>
      </trkpt>
      <trkpt lat="45.91212" lon="6.63641">
        <ele>754.29</ele>
        <time>2012-08-05T16:09:00Z</time>
      </trkpt>
      <trkpt lat="45.91226" lon="6.63636">
        <ele>754.29</ele>
        <time>2012-08-05T16:09:01Z</time>
      </trkpt>
      <trkpt lat="45.9124" lon="6.63633">
        <ele>753.33</ele>
        <time>2012-08-05T16:09:02Z</time>
      </trkpt>
      <trkpt lat="45.91254" lon="6.63632">
        <ele>752.37</ele>
        <time>2012-08-05T16:09:03Z</time>
      </trkpt>
      <trkpt lat="45.91268" lon="6.6363">
        <ele>751.41</ele>
        <time>2012-08-05T16:09:04Z</time>
      </trkpt>
      <trkpt lat="45.91282" lon="6.63623">
        <ele>750.93</ele>
        <time>2012-08-05T16:09:05Z</time>
      </trkpt>
      <trkpt lat="45.91321" lon="6.63598">
        <ele>747.56</ele>
        <time>2012-08-05T16:09:08Z</time>
      </trkpt>
      <trkpt lat="45.91335" lon="6.63594">
        <ele>746.6</ele>
        <time>2012-08-05T16:09:09Z</time>
      </trkpt>
      <trkpt lat="45.9135" lon="6.63591">
        <ele>746.12</ele>
        <time>2012-08-05T16:09:10Z</time>
      </trkpt>
      <trkpt lat="45.91364" lon="6.63591">
        <ele>744.68</ele>
        <time>2012-08-05T16:09:11Z</time>
      </trkpt>
      <trkpt lat="45.91379" lon="6.63592">
        <ele>745.16</ele>
        <time>2012-08-05T16:09:12Z</time>
      </trkpt>
      <trkpt lat="45.91421" lon="6.63598">
        <ele>741.79</ele>
        <time>2012-08-05T16:09:15Z</time>
      </trkpt>
      <trkpt lat="45.91435" lon="6.63603">
        <ele>741.31</ele>
        <time>2012-08-05T16:09:16Z</time>
      </trkpt>
      <trkpt lat="45.91449" lon="6.63611">
        <ele>739.39</ele>
        <time>2012-08-05T16:09:17Z</time>
      </trkpt>
      <trkpt lat="45.91462" lon="6.63617">
        <ele>738.91</ele>
        <time>2012-08-05T16:09:18Z</time>
      </trkpt>
      <trkpt lat="45.91475" lon="6.63621">
        <ele>737.47</ele>
        <time>2012-08-05T16:09:19Z</time>
      </trkpt>
      <trkpt lat="45.91489" lon="6.63622">
        <ele>736.99</ele>
        <time>2012-08-05T16:09:20Z</time>
      </trkpt>
      <trkpt lat="45.91502" lon="6.63618">
        <ele>736.03</ele>
        <time>2012-08-05T16:09:21Z</time>
      </trkpt>
      <trkpt lat="45.91515" lon="6.6361">
        <ele>735.55</ele>
        <time>2012-08-05T16:09:22Z</time>
      </trkpt>
      <trkpt lat="45.91528" lon="6.63599">
        <ele>734.1</ele>
        <time>2012-08-05T16:09:23Z</time>
      </trkpt>
      <trkpt lat="45.91542" lon="6.63592">
        <ele>732.66</ele>
        <time>2012-08-05T16:09:24Z</time>
      </trkpt>
      <trkpt lat="45.91556" lon="6.6359">
        <ele>731.7</ele>
        <time>2012-08-05T16:09:25Z</time>
      </trkpt>
      <trkpt lat="45.9157" lon="6.63592">
        <ele>730.74</ele>
        <time>2012-08-05T16:09:26Z</time>
      </trkpt>
      <trkpt lat="45.91584" lon="6.63599">
        <ele>729.78</ele>
        <time>2012-08-05T16:09:27Z</time>
      </trkpt>
      <trkpt lat="45.91597" lon="6.63608">
        <ele>728.34</ele>
        <time>2012-08-05T16:09:28Z</time>
      </trkpt>
      <trkpt lat="45.9161" lon="6.63619">
        <ele>727.37</ele>
        <time>2012-08-05T16:09:29Z</time>
      </trkpt>
      <trkpt lat="45.91633" lon="6.63638">
        <ele>724.97</ele>
        <time>2012-08-05T16:09:31Z</time>
      </trkpt>
      <trkpt lat="45.91647" lon="6.63644">
        <ele>724.97</ele>
        <time>2012-08-05T16:09:32Z</time>
      </trkpt>
      <trkpt lat="45.91661" lon="6.63644">
        <ele>724.97</ele>
        <time>2012-08-05T16:09:33Z</time>
      </trkpt>
      <trkpt lat="45.91676" lon="6.63639">
        <ele>724.01</ele>
        <time>2012-08-05T16:09:34Z</time>
      </trkpt>
      <trkpt lat="45.9169" lon="6.63633">
        <ele>723.05</ele>
        <time>2012-08-05T16:09:35Z</time>
      </trkpt>
      <trkpt lat="45.91705" lon="6.63628">
        <ele>722.57</ele>
        <time>2012-08-05T16:09:36Z</time>
      </trkpt>
      <trkpt lat="45.91721" lon="6.63627">
        <ele>721.13</ele>
        <time>2012-08-05T16:09:37Z</time>
      </trkpt>
      <trkpt lat="45.91765" lon="6.63626">
        <ele>717.76</ele>
        <time>2012-08-05T16:09:40Z</time>
      </trkpt>
      <trkpt lat="45.9178" lon="6.63621">
        <ele>716.8</ele>
        <time>2012-08-05T16:09:41Z</time>
      </trkpt>
      <trkpt lat="45.91795" lon="6.63611">
        <ele>716.8</ele>
        <time>2012-08-05T16:09:42Z</time>
      </trkpt>
      <trkpt lat="45.91808" lon="6.63598">
        <ele>715.84</ele>
        <time>2012-08-05T16:09:43Z</time>
      </trkpt>
      <trkpt lat="45.91821" lon="6.63584">
        <ele>714.88</ele>
        <time>2012-08-05T16:09:44Z</time>
      </trkpt>
      <trkpt lat="45.91833" lon="6.63571">
        <ele>712.95</ele>
        <time>2012-08-05T16:09:45Z</time>
      </trkpt>
      <trkpt lat="45.91846" lon="6.63561">
        <ele>711.99</ele>
        <time>2012-08-05T16:09:46Z</time>
      </trkpt>
      <trkpt lat="45.91859" lon="6.63554">
        <ele>710.55</ele>
        <time>2012-08-05T16:09:47Z</time>
      </trkpt>
      <trkpt lat="45.91872" lon="6.63552">
        <ele>710.55</ele>
        <time>2012-08-05T16:09:48Z</time>
      </trkpt>
      <trkpt lat="45.91887" lon="6.63554">
        <ele>710.07</ele>
        <time>2012-08-05T16:09:49Z</time>
      </trkpt>
      <trkpt lat="45.91902" lon="6.63558">
        <ele>708.15</ele>
        <time>2012-08-05T16:09:50Z</time>
      </trkpt>
      <trkpt lat="45.91917" lon="6.63559">
        <ele>706.71</ele>
        <time>2012-08-05T16:09:51Z</time>
      </trkpt>
      <trkpt lat="45.91931" lon="6.63558">
        <ele>705.26</ele>
        <time>2012-08-05T16:09:52Z</time>
      </trkpt>
      <trkpt lat="45.91972" lon="6.63551">
        <ele>701.9</ele>
        <time>2012-08-05T16:09:55Z</time>
      </trkpt>
      <trkpt lat="45.91985" lon="6.63555">
        <ele>701.42</ele>
        <time>2012-08-05T16:09:56Z</time>
      </trkpt>
      <trkpt lat="45.91997" lon="6.63563">
        <ele>700.94</ele>
        <time>2012-08-05T16:09:57Z</time>
      </trkpt>
      <trkpt lat="45.92008" lon="6.63573">
        <ele>699.5</ele>
        <time>2012-08-05T16:09:58Z</time>
      </trkpt>
      <trkpt lat="45.92019" lon="6.6358">
        <ele>698.53</ele>
        <time>2012-08-05T16:09:59Z</time>
      </trkpt>
      <trkpt lat="45.92032" lon="6.63584">
        <ele>697.57</ele>
        <time>2012-08-05T16:10:00Z</time>
      </trkpt>
      <trkpt lat="45.92044" lon="6.63585">
        <ele>697.57</ele>
        <time>2012-08-05T16:10:01Z</time>
      </trkpt>
      <trkpt lat="45.92058" lon="6.63581">
        <ele>697.09</ele>
        <time>2012-08-05T16:10:02Z</time>
      </trkpt>
      <trkpt lat="45.92071" lon="6.63573">
        <ele>697.09</ele>
        <time>2012-08-05T16:10:03Z</time>
      </trkpt>
      <trkpt lat="45.92083" lon="6.63564">
        <ele>694.69</ele>
        <time>2012-08-05T16:10:04Z</time>
      </trkpt>
      <trkpt lat="45.92095" lon="6.63557">
        <ele>693.73</ele>
        <time>2012-08-05T16:10:05Z</time>
      </trkpt>
      <trkpt lat="45.92107" lon="6.63552">
        <ele>692.29</ele>
        <time>2012-08-05T16:10:06Z</time>
      </trkpt>
      <trkpt lat="45.9212" lon="6.6355">
        <ele>691.81</ele>
        <time>2012-08-05T16:10:07Z</time>
      </trkpt>
      <trkpt lat="45.92132" lon="6.63549">
        <ele>690.84</ele>
        <time>2012-08-05T16:10:08Z</time>
      </trkpt>
      <trkpt lat="45.92144" lon="6.6355">
        <ele>690.36</ele>
        <time>2012-08-05T16:10:09Z</time>
      </trkpt>
      <trkpt lat="45.92156" lon="6.63549">
        <ele>689.88</ele>
        <time>2012-08-05T16:10:10Z</time>
      </trkpt>
      <trkpt lat="45.92167" lon="6.63546">
        <ele>689.4</ele>
        <time>2012-08-05T16:10:11Z</time>
      </trkpt>
      <trkpt lat="45.9219" lon="6.63538">
        <ele>687</ele>
        <time>2012-08-05T16:10:13Z</time>
      </trkpt>
      <trkpt lat="45.92203" lon="6.63539">
        <ele>687</ele>
        <time>2012-08-05T16:10:14Z</time>
      </trkpt>
      <trkpt lat="45.92214" lon="6.63545">
        <ele>686.04</ele>
        <time>2012-08-05T16:10:15Z</time>
      </trkpt>
      <trkpt lat="45.92234" lon="6.63561">
        <ele>683.63</ele>
        <time>2012-08-05T16:10:17Z</time>
      </trkpt>
      <trkpt lat="45.92244" lon="6.63564">
        <ele>682.67</ele>
        <time>2012-08-05T16:10:18Z</time>
      </trkpt>
      <trkpt lat="45.92255" lon="6.63563">
        <ele>682.19</ele>
        <time>2012-08-05T16:10:19Z</time>
      </trkpt>
      <trkpt lat="45.92265" lon="6.63558">
        <ele>681.23</ele>
        <time>2012-08-05T16:10:20Z</time>
      </trkpt>
      <trkpt lat="45.92274" lon="6.63548">
        <ele>680.75</ele>
        <time>2012-08-05T16:10:21Z</time>
      </trkpt>
      <trkpt lat="45.92281" lon="6.63536">
        <ele>680.27</ele>
        <time>2012-08-05T16:10:22Z</time>
      </trkpt>
      <trkpt lat="45.92287" lon="6.6352">
        <ele>679.31</ele>
        <time>2012-08-05T16:10:23Z</time>
      </trkpt>
      <trkpt lat="45.92293" lon="6.63503">
        <ele>679.31</ele>
        <time>2012-08-05T16:10:24Z</time>
      </trkpt>
      <trkpt lat="45.92298" lon="6.63484">
        <ele>678.35</ele>
        <time>2012-08-05T16:10:25Z</time>
      </trkpt>
      <trkpt lat="45.92307" lon="6.63452">
        <ele>675.46</ele>
        <time>2012-08-05T16:10:27Z</time>
      </trkpt>
      <trkpt lat="45.92316" lon="6.6344">
        <ele>674.98</ele>
        <time>2012-08-05T16:10:28Z</time>
      </trkpt>
      <trkpt lat="45.92327" lon="6.63432">
        <ele>674.5</ele>
        <time>2012-08-05T16:10:29Z</time>
      </trkpt>
      <trkpt lat="45.92338" lon="6.63424">
        <ele>672.58</ele>
        <time>2012-08-05T16:10:30Z</time>
      </trkpt>
      <trkpt lat="45.92348" lon="6.63415">
        <ele>673.06</ele>
        <time>2012-08-05T16:10:31Z</time>
      </trkpt>
      <trkpt lat="45.92357" lon="6.63402">
        <ele>672.1</ele>
        <time>2012-08-05T16:10:32Z</time>
      </trkpt>
      <trkpt lat="45.92363" lon="6.63388">
        <ele>670.66</ele>
        <time>2012-08-05T16:10:33Z</time>
      </trkpt>
      <trkpt lat="45.92369" lon="6.63373">
        <ele>669.7</ele>
        <time>2012-08-05T16:10:34Z</time>
      </trkpt>
      <trkpt lat="45.92378" lon="6.63362">
        <ele>669.22</ele>
        <time>2012-08-05T16:10:35Z</time>
      </trkpt>
      <trkpt lat="45.92391" lon="6.63355">
        <ele>668.73</ele>
        <time>2012-08-05T16:10:36Z</time>
      </trkpt>
      <trkpt lat="45.92405" lon="6.63353">
        <ele>668.73</ele>
        <time>2012-08-05T16:10:37Z</time>
      </trkpt>
      <trkpt lat="45.92419" lon="6.63353">
        <ele>667.29</ele>
        <time>2012-08-05T16:10:38Z</time>
      </trkpt>
      <trkpt lat="45.92447" lon="6.63351">
        <ele>665.85</ele>
        <time>2012-08-05T16:10:40Z</time>
      </trkpt>
      <trkpt lat="45.92461" lon="6.63347">
        <ele>664.41</ele>
        <time>2012-08-05T16:10:41Z</time>
      </trkpt>
      <trkpt lat="45.92474" lon="6.63341">
        <ele>662.49</ele>
        <time>2012-08-05T16:10:42Z</time>
      </trkpt>
      <trkpt lat="45.92488" lon="6.63333">
        <ele>661.52</ele>
        <time>2012-08-05T16:10:43Z</time>
      </trkpt>
      <trkpt lat="45.92502" lon="6.63322">
        <ele>661.04</ele>
        <time>2012-08-05T16:10:44Z</time>
      </trkpt>
      <trkpt lat="45.92515" lon="6.63309">
        <ele>660.08</ele>
        <time>2012-08-05T16:10:45Z</time>
      </trkpt>
      <trkpt lat="45.92527" lon="6.63295">
        <ele>658.64</ele>
        <time>2012-08-05T16:10:46Z</time>
      </trkpt>
      <trkpt lat="45.92537" lon="6.63282">
        <ele>656.72</ele>
        <time>2012-08-05T16:10:47Z</time>
      </trkpt>
      <trkpt lat="45.92548" lon="6.63272">
        <ele>654.8</ele>
        <time>2012-08-05T16:10:48Z</time>
      </trkpt>
      <trkpt lat="45.9256" lon="6.63266">
        <ele>653.83</ele>
        <time>2012-08-05T16:10:49Z</time>
      </trkpt>
      <trkpt lat="45.92572" lon="6.63265">
        <ele>653.35</ele>
        <time>2012-08-05T16:10:50Z</time>
      </trkpt>
      <trkpt lat="45.92585" lon="6.63268">
        <ele>652.87</ele>
        <time>2012-08-05T16:10:51Z</time>
      </trkpt>
      <trkpt lat="45.92598" lon="6.63273">
        <ele>652.39</ele>
        <time>2012-08-05T16:10:52Z</time>
      </trkpt>
      <trkpt lat="45.92636" lon="6.63288">
        <ele>649.03</ele>
        <time>2012-08-05T16:10:55Z</time>
      </trkpt>
      <trkpt lat="45.92701" lon="6.63312">
        <ele>645.66</ele>
        <time>2012-08-05T16:11:00Z</time>
      </trkpt>
      <trkpt lat="45.92739" lon="6.63322">
        <ele>641.82</ele>
        <time>2012-08-05T16:11:03Z</time>
      </trkpt>
      <trkpt lat="45.92751" lon="6.63323">
        <ele>641.34</ele>
        <time>2012-08-05T16:11:04Z</time>
      </trkpt>
      <trkpt lat="45.92764" lon="6.6332">
        <ele>641.34</ele>
        <time>2012-08-05T16:11:05Z</time>
      </trkpt>
      <trkpt lat="45.92776" lon="6.63313">
        <ele>641.34</ele>
        <time>2012-08-05T16:11:06Z</time>
      </trkpt>
      <trkpt lat="45.92787" lon="6.63303">
        <ele>639.41</ele>
        <time>2012-08-05T16:11:07Z</time>
      </trkpt>
      <trkpt lat="45.92796" lon="6.63291">
        <ele>638.45</ele>
        <time>2012-08-05T16:11:08Z</time>
      </trkpt>
      <trkpt lat="45.92804" lon="6.63278">
        <ele>637.49</ele>
        <time>2012-08-05T16:11:09Z</time>
      </trkpt>
      <trkpt lat="45.92811" lon="6.63263">
        <ele>636.05</ele>
        <time>2012-08-05T16:11:10Z</time>
      </trkpt>
      <trkpt lat="45.92816" lon="6.63248">
        <ele>635.57</ele>
        <time>2012-08-05T16:11:11Z</time>
      </trkpt>
      <trkpt lat="45.92819" lon="6.63232">
        <ele>635.09</ele>
        <time>2012-08-05T16:11:12Z</time>
      </trkpt>
      <trkpt lat="45.92821" lon="6.63216">
        <ele>633.65</ele>
        <time>2012-08-05T16:11:13Z</time>
      </trkpt>
      <trkpt lat="45.92823" lon="6.63202">
        <ele>633.17</ele>
        <time>2012-08-05T16:11:14Z</time>
      </trkpt>
      <trkpt lat="45.92825" lon="6.63189">
        <ele>631.72</ele>
        <time>2012-08-05T16:11:15Z</time>
      </trkpt>
      <trkpt lat="45.92828" lon="6.63178">
        <ele>631.24</ele>
        <time>2012-08-05T16:11:16Z</time>
      </trkpt>
      <trkpt lat="45.92833" lon="6.63169">
        <ele>630.76</ele>
        <time>2012-08-05T16:11:17Z</time>
      </trkpt>
      <trkpt lat="45.92841" lon="6.63165">
        <ele>629.8</ele>
        <time>2012-08-05T16:11:18Z</time>
      </trkpt>
      <trkpt lat="45.9285" lon="6.63166">
        <ele>629.8</ele>
        <time>2012-08-05T16:11:19Z</time>
      </trkpt>
      <trkpt lat="45.92858" lon="6.63173">
        <ele>628.84</ele>
        <time>2012-08-05T16:11:20Z</time>
      </trkpt>
      <trkpt lat="45.92865" lon="6.63183">
        <ele>627.88</ele>
        <time>2012-08-05T16:11:21Z</time>
      </trkpt>
      <trkpt lat="45.92872" lon="6.63193">
        <ele>626.92</ele>
        <time>2012-08-05T16:11:22Z</time>
      </trkpt>
      <trkpt lat="45.92881" lon="6.63199">
        <ele>626.44</ele>
        <time>2012-08-05T16:11:23Z</time>
      </trkpt>
      <trkpt lat="45.92889" lon="6.63203">
        <ele>625.47</ele>
        <time>2012-08-05T16:11:24Z</time>
      </trkpt>
      <trkpt lat="45.92899" lon="6.63202">
        <ele>624.99</ele>
        <time>2012-08-05T16:11:25Z</time>
      </trkpt>
      <trkpt lat="45.92909" lon="6.63198">
        <ele>624.51</ele>
        <time>2012-08-05T16:11:26Z</time>
      </trkpt>
      <trkpt lat="45.92917" lon="6.6319">
        <ele>624.03</ele>
        <time>2012-08-05T16:11:27Z</time>
      </trkpt>
      <trkpt lat="45.92925" lon="6.63182">
        <ele>623.07</ele>
        <time>2012-08-05T16:11:28Z</time>
      </trkpt>
      <trkpt lat="45.92943" lon="6.63167">
        <ele>621.63</ele>
        <time>2012-08-05T16:11:30Z</time>
      </trkpt>
      <trkpt lat="45.92953" lon="6.63162">
        <ele>621.63</ele>
        <time>2012-08-05T16:11:31Z</time>
      </trkpt>
      <trkpt lat="45.92965" lon="6.63158">
        <ele>620.67</ele>
        <time>2012-08-05T16:11:32Z</time>
      </trkpt>
      <trkpt lat="45.93011" lon="6.63148">
        <ele>617.3</ele>
        <time>2012-08-05T16:11:36Z</time>
      </trkpt>
      <trkpt lat="45.93053" lon="6.63141">
        <ele>613.94</ele>
        <time>2012-08-05T16:11:40Z</time>
      </trkpt>
      <trkpt lat="45.93073" lon="6.63138">
        <ele>612.98</ele>
        <time>2012-08-05T16:11:42Z</time>
      </trkpt>
      <trkpt lat="45.93111" lon="6.63129">
        <ele>610.57</ele>
        <time>2012-08-05T16:11:46Z</time>
      </trkpt>
      <trkpt lat="45.93121" lon="6.63124">
        <ele>610.09</ele>
        <time>2012-08-05T16:11:47Z</time>
      </trkpt>
      <trkpt lat="45.93131" lon="6.63116">
        <ele>609.13</ele>
        <time>2012-08-05T16:11:48Z</time>
      </trkpt>
      <trkpt lat="45.93168" lon="6.63084">
        <ele>605.77</ele>
        <time>2012-08-05T16:11:52Z</time>
      </trkpt>
      <trkpt lat="45.93178" lon="6.63079">
        <ele>605.77</ele>
        <time>2012-08-05T16:11:53Z</time>
      </trkpt>
      <trkpt lat="45.9319" lon="6.63077">
        <ele>604.81</ele>
        <time>2012-08-05T16:11:54Z</time>
      </trkpt>
      <trkpt lat="45.93202" lon="6.63076">
        <ele>604.33</ele>
        <time>2012-08-05T16:11:55Z</time>
      </trkpt>
      <trkpt lat="45.9326" lon="6.63077">
        <ele>600.48</ele>
        <time>2012-08-05T16:12:00Z</time>
      </trkpt>
      <trkpt lat="45.93272" lon="6.63078">
        <ele>600.48</ele>
        <time>2012-08-05T16:12:01Z</time>
      </trkpt>
      <trkpt lat="45.93304" lon="6.63082">
        <ele>597.12</ele>
        <time>2012-08-05T16:12:04Z</time>
      </trkpt>
      <trkpt lat="45.93324" lon="6.63082">
        <ele>596.15</ele>
        <time>2012-08-05T16:12:06Z</time>
      </trkpt>
      <trkpt lat="45.93335" lon="6.63081">
        <ele>595.67</ele>
        <time>2012-08-05T16:12:07Z</time>
      </trkpt>
      <trkpt lat="45.93346" lon="6.63078">
        <ele>595.67</ele>
        <time>2012-08-05T16:12:08Z</time>
      </trkpt>
      <trkpt lat="45.93357" lon="6.63073">
        <ele>594.71</ele>
        <time>2012-08-05T16:12:09Z</time>
      </trkpt>
      <trkpt lat="45.93366" lon="6.63068">
        <ele>593.75</ele>
        <time>2012-08-05T16:12:10Z</time>
      </trkpt>
      <trkpt lat="45.93376" lon="6.63062">
        <ele>592.79</ele>
        <time>2012-08-05T16:12:11Z</time>
      </trkpt>
      <trkpt lat="45.93411" lon="6.63037">
        <ele>588.95</ele>
        <time>2012-08-05T16:12:15Z</time>
      </trkpt>
      <trkpt lat="45.93426" lon="6.63022">
        <ele>588.46</ele>
        <time>2012-08-05T16:12:17Z</time>
      </trkpt>
      <trkpt lat="45.93442" lon="6.63008">
        <ele>587.02</ele>
        <time>2012-08-05T16:12:19Z</time>
      </trkpt>
      <trkpt lat="45.9345" lon="6.63005">
        <ele>586.06</ele>
        <time>2012-08-05T16:12:20Z</time>
      </trkpt>
      <trkpt lat="45.93463" lon="6.63">
        <ele>585.1</ele>
        <time>2012-08-05T16:12:22Z</time>
      </trkpt>
      <trkpt lat="45.93541" lon="6.62973">
        <ele>584.14</ele>
        <time>2012-08-05T16:12:33Z</time>
      </trkpt>
      <trkpt lat="45.93564" lon="6.62968">
        <ele>583.66</ele>
        <time>2012-08-05T16:12:40Z</time>
      </trkpt>
      <trkpt lat="45.93568" lon="6.62967">
        <ele>583.66</ele>
        <time>2012-08-05T16:12:41Z</time>
      </trkpt>
      <trkpt lat="45.93572" lon="6.62967">
        <ele>583.66</ele>
        <time>2012-08-05T16:12:42Z</time>
      </trkpt>
      <trkpt lat="45.93575" lon="6.62972">
        <ele>583.18</ele>
        <time>2012-08-05T16:12:43Z</time>
      </trkpt>
      <trkpt lat="45.93577" lon="6.6298">
        <ele>583.18</ele>
        <time>2012-08-05T16:12:44Z</time>
      </trkpt>
      <trkpt lat="45.93578" lon="6.62991">
        <ele>584.14</ele>
        <time>2012-08-05T16:12:45Z</time>
      </trkpt>
      <trkpt lat="45.93584" lon="6.63023">
        <ele>582.7</ele>
        <time>2012-08-05T16:12:48Z</time>
      </trkpt>
      <trkpt lat="45.93597" lon="6.63096">
        <ele>581.25</ele>
        <time>2012-08-05T16:12:56Z</time>
      </trkpt>
      <trkpt lat="45.93598" lon="6.63103">
        <ele>580.77</ele>
        <time>2012-08-05T16:13:03Z</time>
      </trkpt>
      <trkpt lat="45.93597" lon="6.63102">
        <ele>580.29</ele>
        <time>2012-08-05T16:13:31Z</time>
      </trkpt>
      <trkpt lat="45.93601" lon="6.63124">
        <ele>579.81</ele>
        <time>2012-08-05T16:13:36Z</time>
      </trkpt>
      <trkpt lat="45.936" lon="6.63131">
        <ele>579.81</ele>
        <time>2012-08-05T16:13:37Z</time>
      </trkpt>
      <trkpt lat="45.93598" lon="6.63148">
        <ele>580.29</ele>
        <time>2012-08-05T16:13:39Z</time>
      </trkpt>
      <trkpt lat="45.93598" lon="6.63157">
        <ele>580.29</ele>
        <time>2012-08-05T16:13:40Z</time>
      </trkpt>
      <trkpt lat="45.93599" lon="6.63167">
        <ele>580.29</ele>
        <time>2012-08-05T16:13:41Z</time>
      </trkpt>
      <trkpt lat="45.936" lon="6.63177">
        <ele>579.81</ele>
        <time>2012-08-05T16:13:42Z</time>
      </trkpt>
      <trkpt lat="45.93602" lon="6.63188">
        <ele>579.81</ele>
        <time>2012-08-05T16:13:43Z</time>
      </trkpt>
      <trkpt lat="45.93631" lon="6.63318">
        <ele>576.45</ele>
        <time>2012-08-05T16:13:55Z</time>
      </trkpt>
      <trkpt lat="45.93633" lon="6.63323">
        <ele>576.45</ele>
        <time>2012-08-05T16:13:56Z</time>
      </trkpt>
      <trkpt lat="45.93639" lon="6.63332">
        <ele>575.49</ele>
        <time>2012-08-05T16:14:04Z</time>
      </trkpt>
      <trkpt lat="45.93644" lon="6.63342">
        <ele>575.49</ele>
        <time>2012-08-05T16:14:29Z</time>
      </trkpt>
      <trkpt lat="45.93648" lon="6.63351">
        <ele>575.49</ele>
        <time>2012-08-05T16:14:31Z</time>
      </trkpt>
      <trkpt lat="45.93651" lon="6.63359">
        <ele>575.49</ele>
        <time>2012-08-05T16:14:32Z</time>
      </trkpt>
      <trkpt lat="45.93655" lon="6.63367">
        <ele>575.97</ele>
        <time>2012-08-05T16:14:33Z</time>
      </trkpt>
      <trkpt lat="45.93662" lon="6.63378">
        <ele>576.45</ele>
        <time>2012-08-05T16:14:34Z</time>
      </trkpt>
      <trkpt lat="45.93668" lon="6.63391">
        <ele>576.45</ele>
        <time>2012-08-05T16:14:35Z</time>
      </trkpt>
      <trkpt lat="45.93675" lon="6.63406">
        <ele>576.45</ele>
        <time>2012-08-05T16:14:36Z</time>
      </trkpt>
      <trkpt lat="45.93724" lon="6.63511">
        <ele>574.53</ele>
        <time>2012-08-05T16:14:43Z</time>
      </trkpt>
      <trkpt lat="45.93766" lon="6.63607">
        <ele>572.12</ele>
        <time>2012-08-05T16:14:51Z</time>
      </trkpt>
      <trkpt lat="45.93811" lon="6.63707">
        <ele>569.72</ele>
        <time>2012-08-05T16:15:02Z</time>
      </trkpt>
      <trkpt lat="45.93843" lon="6.63776">
        <ele>568.76</ele>
        <time>2012-08-05T16:15:10Z</time>
      </trkpt>
      <trkpt lat="45.93897" lon="6.63898">
        <ele>567.32</ele>
        <time>2012-08-05T16:15:21Z</time>
      </trkpt>
      <trkpt lat="45.93955" lon="6.64032">
        <ele>564.91</ele>
        <time>2012-08-05T16:15:34Z</time>
      </trkpt>
      <trkpt lat="45.93957" lon="6.64041">
        <ele>564.91</ele>
        <time>2012-08-05T16:15:36Z</time>
      </trkpt>
      <trkpt lat="45.93957" lon="6.64048">
        <ele>564.91</ele>
        <time>2012-08-05T16:15:37Z</time>
      </trkpt>
      <trkpt lat="45.93955" lon="6.64056">
        <ele>565.39</ele>
        <time>2012-08-05T16:15:38Z</time>
      </trkpt>
      <trkpt lat="45.93951" lon="6.64066">
        <ele>565.87</ele>
        <time>2012-08-05T16:15:39Z</time>
      </trkpt>
      <trkpt lat="45.93945" lon="6.64074">
        <ele>566.35</ele>
        <time>2012-08-05T16:15:40Z</time>
      </trkpt>
      <trkpt lat="45.9394" lon="6.64082">
        <ele>566.35</ele>
        <time>2012-08-05T16:15:41Z</time>
      </trkpt>
      <trkpt lat="45.93934" lon="6.64088">
        <ele>566.35</ele>
        <time>2012-08-05T16:15:42Z</time>
      </trkpt>
      <trkpt lat="45.93903" lon="6.64117">
        <ele>569.72</ele>
        <time>2012-08-05T16:15:47Z</time>
      </trkpt>
      <trkpt lat="45.93896" lon="6.64125">
        <ele>570.2</ele>
        <time>2012-08-05T16:15:48Z</time>
      </trkpt>
      <trkpt lat="45.93889" lon="6.64134">
        <ele>570.68</ele>
        <time>2012-08-05T16:15:49Z</time>
      </trkpt>
      <trkpt lat="45.93883" lon="6.64146">
        <ele>571.64</ele>
        <time>2012-08-05T16:15:50Z</time>
      </trkpt>
      <trkpt lat="45.93878" lon="6.64158">
        <ele>571.64</ele>
        <time>2012-08-05T16:15:51Z</time>
      </trkpt>
      <trkpt lat="45.93874" lon="6.64173">
        <ele>573.08</ele>
        <time>2012-08-05T16:15:52Z</time>
      </trkpt>
      <trkpt lat="45.93871" lon="6.64188">
        <ele>573.56</ele>
        <time>2012-08-05T16:15:53Z</time>
      </trkpt>
      <trkpt lat="45.9387" lon="6.64204">
        <ele>574.04</ele>
        <time>2012-08-05T16:15:54Z</time>
      </trkpt>
      <trkpt lat="45.9387" lon="6.6422">
        <ele>574.04</ele>
        <time>2012-08-05T16:15:55Z</time>
      </trkpt>
      <trkpt lat="45.93866" lon="6.64398">
        <ele>572.12</ele>
        <time>2012-08-05T16:16:06Z</time>
      </trkpt>
      <trkpt lat="45.93864" lon="6.64413">
        <ele>571.64</ele>
        <time>2012-08-05T16:16:07Z</time>
      </trkpt>
      <trkpt lat="45.9386" lon="6.64429">
        <ele>571.16</ele>
        <time>2012-08-05T16:16:08Z</time>
      </trkpt>
      <trkpt lat="45.93856" lon="6.64445">
        <ele>571.16</ele>
        <time>2012-08-05T16:16:09Z</time>
      </trkpt>
      <trkpt lat="45.9385" lon="6.64461">
        <ele>570.2</ele>
        <time>2012-08-05T16:16:10Z</time>
      </trkpt>
      <trkpt lat="45.93842" lon="6.64475">
        <ele>569.24</ele>
        <time>2012-08-05T16:16:11Z</time>
      </trkpt>
      <trkpt lat="45.93834" lon="6.64488">
        <ele>568.76</ele>
        <time>2012-08-05T16:16:12Z</time>
      </trkpt>
      <trkpt lat="45.93824" lon="6.64499">
        <ele>567.8</ele>
        <time>2012-08-05T16:16:13Z</time>
      </trkpt>
      <trkpt lat="45.93813" lon="6.64508">
        <ele>567.32</ele>
        <time>2012-08-05T16:16:14Z</time>
      </trkpt>
      <trkpt lat="45.93802" lon="6.64518">
        <ele>566.83</ele>
        <time>2012-08-05T16:16:15Z</time>
      </trkpt>
      <trkpt lat="45.93667" lon="6.64667">
        <ele>567.32</ele>
        <time>2012-08-05T16:16:27Z</time>
      </trkpt>
      <trkpt lat="45.93518" lon="6.64846">
        <ele>565.39</ele>
        <time>2012-08-05T16:16:41Z</time>
      </trkpt>
      <trkpt lat="45.93488" lon="6.64886">
        <ele>564.43</ele>
        <time>2012-08-05T16:16:45Z</time>
      </trkpt>
      <trkpt lat="45.93485" lon="6.64894">
        <ele>563.95</ele>
        <time>2012-08-05T16:16:46Z</time>
      </trkpt>
      <trkpt lat="45.93479" lon="6.64911">
        <ele>563.47</ele>
        <time>2012-08-05T16:16:49Z</time>
      </trkpt>
      <trkpt lat="45.93481" lon="6.64914">
        <ele>563.47</ele>
        <time>2012-08-05T16:16:50Z</time>
      </trkpt>
      <trkpt lat="45.93483" lon="6.64915">
        <ele>562.99</ele>
        <time>2012-08-05T16:16:51Z</time>
      </trkpt>
      <trkpt lat="45.93485" lon="6.64914">
        <ele>562.99</ele>
        <time>2012-08-05T16:16:52Z</time>
      </trkpt>
      <trkpt lat="45.93487" lon="6.64913">
        <ele>563.47</ele>
        <time>2012-08-05T16:16:53Z</time>
      </trkpt>
      <trkpt lat="45.93487" lon="6.64909">
        <ele>562.99</ele>
        <time>2012-08-05T16:17:03Z</time>
      </trkpt>
      <trkpt lat="45.93488" lon="6.64909">
        <ele>559.62</ele>
        <time>2012-08-05T16:17:32Z</time>
      </trkpt>
      <trkpt lat="45.93488" lon="6.64909">
        <ele>562.51</ele>
        <time>2012-08-05T16:17:42Z</time>
      </trkpt>
      <trkpt lat="45.93488" lon="6.64907">
        <ele>561.07</ele>
        <time>2012-08-05T16:17:45Z</time>
      </trkpt>
      <trkpt lat="45.93489" lon="6.64895">
        <ele>561.55</ele>
        <time>2012-08-05T16:17:48Z</time>
      </trkpt>
      <trkpt lat="45.93492" lon="6.64889">
        <ele>561.55</ele>
        <time>2012-08-05T16:17:49Z</time>
      </trkpt>
      <trkpt lat="45.93526" lon="6.64846">
        <ele>565.39</ele>
        <time>2012-08-05T16:17:53Z</time>
      </trkpt>
      <trkpt lat="45.93571" lon="6.6479">
        <ele>569.24</ele>
        <time>2012-08-05T16:17:56Z</time>
      </trkpt>
      <trkpt lat="45.93588" lon="6.6477">
        <ele>569.24</ele>
        <time>2012-08-05T16:17:57Z</time>
      </trkpt>
      <trkpt lat="45.93725" lon="6.64605">
        <ele>568.28</ele>
        <time>2012-08-05T16:18:05Z</time>
      </trkpt>
      <trkpt lat="45.93828" lon="6.64504">
        <ele>564.91</ele>
        <time>2012-08-05T16:18:11Z</time>
      </trkpt>
      <trkpt lat="45.9384" lon="6.6449">
        <ele>566.35</ele>
        <time>2012-08-05T16:18:12Z</time>
      </trkpt>
      <trkpt lat="45.93852" lon="6.64474">
        <ele>566.83</ele>
        <time>2012-08-05T16:18:13Z</time>
      </trkpt>
      <trkpt lat="45.93862" lon="6.64455">
        <ele>568.28</ele>
        <time>2012-08-05T16:18:14Z</time>
      </trkpt>
      <trkpt lat="45.93869" lon="6.64434">
        <ele>570.2</ele>
        <time>2012-08-05T16:18:15Z</time>
      </trkpt>
      <trkpt lat="45.93874" lon="6.64409">
        <ele>572.12</ele>
        <time>2012-08-05T16:18:16Z</time>
      </trkpt>
      <trkpt lat="45.93876" lon="6.64382">
        <ele>574.04</ele>
        <time>2012-08-05T16:18:17Z</time>
      </trkpt>
      <trkpt lat="45.93877" lon="6.64354">
        <ele>573.56</ele>
        <time>2012-08-05T16:18:18Z</time>
      </trkpt>
      <trkpt lat="45.93877" lon="6.64328">
        <ele>573.56</ele>
        <time>2012-08-05T16:18:19Z</time>
      </trkpt>
      <trkpt lat="45.93875" lon="6.64187">
        <ele>570.68</ele>
        <time>2012-08-05T16:18:25Z</time>
      </trkpt>
      <trkpt lat="45.93878" lon="6.64169">
        <ele>569.72</ele>
        <time>2012-08-05T16:18:26Z</time>
      </trkpt>
      <trkpt lat="45.93884" lon="6.64151">
        <ele>569.24</ele>
        <time>2012-08-05T16:18:27Z</time>
      </trkpt>
      <trkpt lat="45.93893" lon="6.64133">
        <ele>569.24</ele>
        <time>2012-08-05T16:18:28Z</time>
      </trkpt>
      <trkpt lat="45.93905" lon="6.64118">
        <ele>568.28</ele>
        <time>2012-08-05T16:18:29Z</time>
      </trkpt>
      <trkpt lat="45.93917" lon="6.64105">
        <ele>566.83</ele>
        <time>2012-08-05T16:18:30Z</time>
      </trkpt>
      <trkpt lat="45.93939" lon="6.64085">
        <ele>562.99</ele>
        <time>2012-08-05T16:18:32Z</time>
      </trkpt>
      <trkpt lat="45.93956" lon="6.6407">
        <ele>560.59</ele>
        <time>2012-08-05T16:18:34Z</time>
      </trkpt>
      <trkpt lat="45.93964" lon="6.64066">
        <ele>560.59</ele>
        <time>2012-08-05T16:18:35Z</time>
      </trkpt>
      <trkpt lat="45.93971" lon="6.64064">
        <ele>559.62</ele>
        <time>2012-08-05T16:18:36Z</time>
      </trkpt>
      <trkpt lat="45.93977" lon="6.6406">
        <ele>560.11</ele>
        <time>2012-08-05T16:18:37Z</time>
      </trkpt>
      <trkpt lat="45.9398" lon="6.64053">
        <ele>559.62</ele>
        <time>2012-08-05T16:18:38Z</time>
      </trkpt>
      <trkpt lat="45.93981" lon="6.64045">
        <ele>559.14</ele>
        <time>2012-08-05T16:18:39Z</time>
      </trkpt>
      <trkpt lat="45.93976" lon="6.64037">
        <ele>560.11</ele>
        <time>2012-08-05T16:18:40Z</time>
      </trkpt>
      <trkpt lat="45.93968" lon="6.64028">
        <ele>562.03</ele>
        <time>2012-08-05T16:18:41Z</time>
      </trkpt>
      <trkpt lat="45.93958" lon="6.64013">
        <ele>562.51</ele>
        <time>2012-08-05T16:18:42Z</time>
      </trkpt>
      <trkpt lat="45.93948" lon="6.63992">
        <ele>564.43</ele>
        <time>2012-08-05T16:18:43Z</time>
      </trkpt>
      <trkpt lat="45.93928" lon="6.63949">
        <ele>565.39</ele>
        <time>2012-08-05T16:18:45Z</time>
      </trkpt>
      <trkpt lat="45.93891" lon="6.63866">
        <ele>562.03</ele>
        <time>2012-08-05T16:18:50Z</time>
      </trkpt>
      <trkpt lat="45.9388" lon="6.63844">
        <ele>560.59</ele>
        <time>2012-08-05T16:18:53Z</time>
      </trkpt>
      <trkpt lat="45.93863" lon="6.63805">
        <ele>560.59</ele>
        <time>2012-08-05T16:18:59Z</time>
      </trkpt>
      <trkpt lat="45.93842" lon="6.63755">
        <ele>561.07</ele>
        <time>2012-08-05T16:19:05Z</time>
      </trkpt>
      <trkpt lat="45.93821" lon="6.63709">
        <ele>561.55</ele>
        <time>2012-08-05T16:19:13Z</time>
      </trkpt>
      <trkpt lat="45.93793" lon="6.63646">
        <ele>562.51</ele>
        <time>2012-08-05T16:19:21Z</time>
      </trkpt>
      <trkpt lat="45.93752" lon="6.63561">
        <ele>562.51</ele>
        <time>2012-08-05T16:19:30Z</time>
      </trkpt>
      <trkpt lat="45.93727" lon="6.63508">
        <ele>564.91</ele>
        <time>2012-08-05T16:19:34Z</time>
      </trkpt>
      <trkpt lat="45.93685" lon="6.63417">
        <ele>565.39</ele>
        <time>2012-08-05T16:19:41Z</time>
      </trkpt>
      <trkpt lat="45.93667" lon="6.63383">
        <ele>563.47</ele>
        <time>2012-08-05T16:19:47Z</time>
      </trkpt>
      <trkpt lat="45.93665" lon="6.63375">
        <ele>562.99</ele>
        <time>2012-08-05T16:20:11Z</time>
      </trkpt>
      <trkpt lat="45.93629" lon="6.63287">
        <ele>565.87</ele>
        <time>2012-08-05T16:20:18Z</time>
      </trkpt>
      <trkpt lat="45.93625" lon="6.63271">
        <ele>566.83</ele>
        <time>2012-08-05T16:20:19Z</time>
      </trkpt>
      <trkpt lat="45.93621" lon="6.63253">
        <ele>566.83</ele>
        <time>2012-08-05T16:20:20Z</time>
      </trkpt>
      <trkpt lat="45.93607" lon="6.63173">
        <ele>564.43</ele>
        <time>2012-08-05T16:20:27Z</time>
      </trkpt>
      <trkpt lat="45.93607" lon="6.63168">
        <ele>564.43</ele>
        <time>2012-08-05T16:20:28Z</time>
      </trkpt>
      <trkpt lat="45.93607" lon="6.63165">
        <ele>563.47</ele>
        <time>2012-08-05T16:20:35Z</time>
      </trkpt>
      <trkpt lat="45.93607" lon="6.63156">
        <ele>563.95</ele>
        <time>2012-08-05T16:20:37Z</time>
      </trkpt>
      <trkpt lat="45.93606" lon="6.63149">
        <ele>564.43</ele>
        <time>2012-08-05T16:20:38Z</time>
      </trkpt>
      <trkpt lat="45.93604" lon="6.63143">
        <ele>564.91</ele>
        <time>2012-08-05T16:20:39Z</time>
      </trkpt>
      <trkpt lat="45.936" lon="6.6314">
        <ele>564.91</ele>
        <time>2012-08-05T16:20:40Z</time>
      </trkpt>
      <trkpt lat="45.93596" lon="6.63139">
        <ele>564.91</ele>
        <time>2012-08-05T16:20:41Z</time>
      </trkpt>
      <trkpt lat="45.93591" lon="6.63139">
        <ele>564.91</ele>
        <time>2012-08-05T16:20:42Z</time>
      </trkpt>
      <trkpt lat="45.93584" lon="6.63141">
        <ele>565.39</ele>
        <time>2012-08-05T16:20:43Z</time>
      </trkpt>
      <trkpt lat="45.93575" lon="6.63144">
        <ele>566.35</ele>
        <time>2012-08-05T16:20:44Z</time>
      </trkpt>
      <trkpt lat="45.93566" lon="6.63146">
        <ele>565.87</ele>
        <time>2012-08-05T16:20:45Z</time>
      </trkpt>
      <trkpt lat="45.93553" lon="6.63148">
        <ele>563.95</ele>
        <time>2012-08-05T16:20:48Z</time>
      </trkpt>
      <trkpt lat="45.93552" lon="6.63146">
        <ele>563.95</ele>
        <time>2012-08-05T16:20:49Z</time>
      </trkpt>
      <trkpt lat="45.93551" lon="6.63141">
        <ele>564.43</ele>
        <time>2012-08-05T16:20:50Z</time>
      </trkpt>
      <trkpt lat="45.93546" lon="6.63111">
        <ele>565.87</ele>
        <time>2012-08-05T16:20:53Z</time>
      </trkpt>
      <trkpt lat="45.93542" lon="6.63077">
        <ele>564.43</ele>
        <time>2012-08-05T16:20:57Z</time>
      </trkpt>
      <trkpt lat="45.93537" lon="6.6306">
        <ele>564.43</ele>
        <time>2012-08-05T16:21:01Z</time>
      </trkpt>
      <trkpt lat="45.93526" lon="6.62992">
        <ele>565.87</ele>
        <time>2012-08-05T16:21:08Z</time>
      </trkpt>
      <trkpt lat="45.93523" lon="6.62977">
        <ele>565.39</ele>
        <time>2012-08-05T16:21:12Z</time>
      </trkpt>
      <trkpt lat="45.93519" lon="6.62976">
        <ele>565.39</ele>
        <time>2012-08-05T16:21:13Z</time>
      </trkpt>
      <trkpt lat="45.93515" lon="6.62976">
        <ele>565.87</ele>
        <time>2012-08-05T16:21:14Z</time>
      </trkpt>
      <trkpt lat="45.93488" lon="6.62988">
        <ele>564.91</ele>
        <time>2012-08-05T16:21:24Z</time>
      </trkpt>
      <trkpt lat="45.93445" lon="6.63005">
        <ele>566.83</ele>
        <time>2012-08-05T16:21:31Z</time>
      </trkpt>
      <trkpt lat="45.93437" lon="6.6301">
        <ele>566.83</ele>
        <time>2012-08-05T16:21:32Z</time>
      </trkpt>
      <trkpt lat="45.93397" lon="6.63045">
        <ele>570.2</ele>
        <time>2012-08-05T16:21:37Z</time>
      </trkpt>
      <trkpt lat="45.93336" lon="6.63078">
        <ele>575.49</ele>
        <time>2012-08-05T16:21:43Z</time>
      </trkpt>
      <trkpt lat="45.93324" lon="6.6308">
        <ele>575.97</ele>
        <time>2012-08-05T16:21:44Z</time>
      </trkpt>
      <trkpt lat="45.9331" lon="6.63081">
        <ele>577.41</ele>
        <time>2012-08-05T16:21:45Z</time>
      </trkpt>
      <trkpt lat="45.93294" lon="6.63081">
        <ele>580.77</ele>
        <time>2012-08-05T16:21:46Z</time>
      </trkpt>
      <trkpt lat="45.93275" lon="6.6308">
        <ele>584.14</ele>
        <time>2012-08-05T16:21:47Z</time>
      </trkpt>
      <trkpt lat="45.93209" lon="6.63075">
        <ele>582.7</ele>
        <time>2012-08-05T16:21:51Z</time>
      </trkpt>
      <trkpt lat="45.93168" lon="6.63083">
        <ele>583.66</ele>
        <time>2012-08-05T16:21:55Z</time>
      </trkpt>
      <trkpt lat="45.93159" lon="6.6309">
        <ele>584.62</ele>
        <time>2012-08-05T16:21:56Z</time>
      </trkpt>
      <trkpt lat="45.9315" lon="6.63097">
        <ele>585.1</ele>
        <time>2012-08-05T16:21:57Z</time>
      </trkpt>
      <trkpt lat="45.93142" lon="6.63105">
        <ele>585.58</ele>
        <time>2012-08-05T16:21:58Z</time>
      </trkpt>
      <trkpt lat="45.9311" lon="6.63131">
        <ele>587.5</ele>
        <time>2012-08-05T16:22:02Z</time>
      </trkpt>
      <trkpt lat="45.931" lon="6.63134">
        <ele>588.46</ele>
        <time>2012-08-05T16:22:03Z</time>
      </trkpt>
      <trkpt lat="45.93064" lon="6.63142">
        <ele>594.71</ele>
        <time>2012-08-05T16:22:06Z</time>
      </trkpt>
      <trkpt lat="45.93028" lon="6.63145">
        <ele>598.56</ele>
        <time>2012-08-05T16:22:08Z</time>
      </trkpt>
      <trkpt lat="45.92988" lon="6.63152">
        <ele>602.4</ele>
        <time>2012-08-05T16:22:10Z</time>
      </trkpt>
      <trkpt lat="45.92955" lon="6.63162">
        <ele>600.96</ele>
        <time>2012-08-05T16:22:12Z</time>
      </trkpt>
      <trkpt lat="45.9294" lon="6.63171">
        <ele>601.92</ele>
        <time>2012-08-05T16:22:13Z</time>
      </trkpt>
      <trkpt lat="45.92927" lon="6.63183">
        <ele>602.88</ele>
        <time>2012-08-05T16:22:14Z</time>
      </trkpt>
      <trkpt lat="45.92916" lon="6.63194">
        <ele>601.92</ele>
        <time>2012-08-05T16:22:15Z</time>
      </trkpt>
      <trkpt lat="45.92905" lon="6.632">
        <ele>602.4</ele>
        <time>2012-08-05T16:22:16Z</time>
      </trkpt>
      <trkpt lat="45.92891" lon="6.63199">
        <ele>603.85</ele>
        <time>2012-08-05T16:22:17Z</time>
      </trkpt>
      <trkpt lat="45.92879" lon="6.63191">
        <ele>605.29</ele>
        <time>2012-08-05T16:22:18Z</time>
      </trkpt>
      <trkpt lat="45.92868" lon="6.63179">
        <ele>605.77</ele>
        <time>2012-08-05T16:22:19Z</time>
      </trkpt>
      <trkpt lat="45.92859" lon="6.63168">
        <ele>606.73</ele>
        <time>2012-08-05T16:22:20Z</time>
      </trkpt>
      <trkpt lat="45.92849" lon="6.63163">
        <ele>606.73</ele>
        <time>2012-08-05T16:22:21Z</time>
      </trkpt>
      <trkpt lat="45.92839" lon="6.63165">
        <ele>607.69</ele>
        <time>2012-08-05T16:22:22Z</time>
      </trkpt>
      <trkpt lat="45.9283" lon="6.63174">
        <ele>608.65</ele>
        <time>2012-08-05T16:22:23Z</time>
      </trkpt>
      <trkpt lat="45.92823" lon="6.6319">
        <ele>611.06</ele>
        <time>2012-08-05T16:22:24Z</time>
      </trkpt>
      <trkpt lat="45.92819" lon="6.63212">
        <ele>612.5</ele>
        <time>2012-08-05T16:22:25Z</time>
      </trkpt>
      <trkpt lat="45.92814" lon="6.63237">
        <ele>614.9</ele>
        <time>2012-08-05T16:22:26Z</time>
      </trkpt>
      <trkpt lat="45.92808" lon="6.6326">
        <ele>615.86</ele>
        <time>2012-08-05T16:22:27Z</time>
      </trkpt>
      <trkpt lat="45.92799" lon="6.6328">
        <ele>616.34</ele>
        <time>2012-08-05T16:22:28Z</time>
      </trkpt>
      <trkpt lat="45.92787" lon="6.63297">
        <ele>617.78</ele>
        <time>2012-08-05T16:22:29Z</time>
      </trkpt>
      <trkpt lat="45.92773" lon="6.63309">
        <ele>618.26</ele>
        <time>2012-08-05T16:22:30Z</time>
      </trkpt>
      <trkpt lat="45.92758" lon="6.63317">
        <ele>620.67</ele>
        <time>2012-08-05T16:22:31Z</time>
      </trkpt>
      <trkpt lat="45.92742" lon="6.63319">
        <ele>621.15</ele>
        <time>2012-08-05T16:22:32Z</time>
      </trkpt>
      <trkpt lat="45.92725" lon="6.63316">
        <ele>623.07</ele>
        <time>2012-08-05T16:22:33Z</time>
      </trkpt>
      <trkpt lat="45.92706" lon="6.63311">
        <ele>624.99</ele>
        <time>2012-08-05T16:22:34Z</time>
      </trkpt>
      <trkpt lat="45.9267" lon="6.63299">
        <ele>625.47</ele>
        <time>2012-08-05T16:22:36Z</time>
      </trkpt>
      <trkpt lat="45.92622" lon="6.63279">
        <ele>627.88</ele>
        <time>2012-08-05T16:22:39Z</time>
      </trkpt>
      <trkpt lat="45.92582" lon="6.63263">
        <ele>628.36</ele>
        <time>2012-08-05T16:22:42Z</time>
      </trkpt>
      <trkpt lat="45.9257" lon="6.63261">
        <ele>628.84</ele>
        <time>2012-08-05T16:22:43Z</time>
      </trkpt>
      <trkpt lat="45.92559" lon="6.63263">
        <ele>629.32</ele>
        <time>2012-08-05T16:22:44Z</time>
      </trkpt>
      <trkpt lat="45.92548" lon="6.63269">
        <ele>631.24</ele>
        <time>2012-08-05T16:22:45Z</time>
      </trkpt>
      <trkpt lat="45.92538" lon="6.63278">
        <ele>632.2</ele>
        <time>2012-08-05T16:22:46Z</time>
      </trkpt>
      <trkpt lat="45.92529" lon="6.63288">
        <ele>631.72</ele>
        <time>2012-08-05T16:22:47Z</time>
      </trkpt>
      <trkpt lat="45.92519" lon="6.63299">
        <ele>633.65</ele>
        <time>2012-08-05T16:22:48Z</time>
      </trkpt>
      <trkpt lat="45.9251" lon="6.63309">
        <ele>633.65</ele>
        <time>2012-08-05T16:22:49Z</time>
      </trkpt>
      <trkpt lat="45.92501" lon="6.63317">
        <ele>635.57</ele>
        <time>2012-08-05T16:22:50Z</time>
      </trkpt>
      <trkpt lat="45.9249" lon="6.63325">
        <ele>636.53</ele>
        <time>2012-08-05T16:22:51Z</time>
      </trkpt>
      <trkpt lat="45.92478" lon="6.63333">
        <ele>638.45</ele>
        <time>2012-08-05T16:22:52Z</time>
      </trkpt>
      <trkpt lat="45.92465" lon="6.63339">
        <ele>639.41</ele>
        <time>2012-08-05T16:22:53Z</time>
      </trkpt>
      <trkpt lat="45.92452" lon="6.63344">
        <ele>639.89</ele>
        <time>2012-08-05T16:22:54Z</time>
      </trkpt>
      <trkpt lat="45.92438" lon="6.63347">
        <ele>640.86</ele>
        <time>2012-08-05T16:22:55Z</time>
      </trkpt>
      <trkpt lat="45.92424" lon="6.63348">
        <ele>641.34</ele>
        <time>2012-08-05T16:22:56Z</time>
      </trkpt>
      <trkpt lat="45.92411" lon="6.63348">
        <ele>641.82</ele>
        <time>2012-08-05T16:22:57Z</time>
      </trkpt>
      <trkpt lat="45.92399" lon="6.63349">
        <ele>642.3</ele>
        <time>2012-08-05T16:22:58Z</time>
      </trkpt>
      <trkpt lat="45.92388" lon="6.63353">
        <ele>642.78</ele>
        <time>2012-08-05T16:22:59Z</time>
      </trkpt>
      <trkpt lat="45.92379" lon="6.63359">
        <ele>642.78</ele>
        <time>2012-08-05T16:23:00Z</time>
      </trkpt>
      <trkpt lat="45.92371" lon="6.63368">
        <ele>644.22</ele>
        <time>2012-08-05T16:23:01Z</time>
      </trkpt>
      <trkpt lat="45.92364" lon="6.6338">
        <ele>644.22</ele>
        <time>2012-08-05T16:23:02Z</time>
      </trkpt>
      <trkpt lat="45.92357" lon="6.63393">
        <ele>645.66</ele>
        <time>2012-08-05T16:23:03Z</time>
      </trkpt>
      <trkpt lat="45.92349" lon="6.63404">
        <ele>646.14</ele>
        <time>2012-08-05T16:23:04Z</time>
      </trkpt>
      <trkpt lat="45.92341" lon="6.63414">
        <ele>647.1</ele>
        <time>2012-08-05T16:23:05Z</time>
      </trkpt>
      <trkpt lat="45.92331" lon="6.63423">
        <ele>648.07</ele>
        <time>2012-08-05T16:23:06Z</time>
      </trkpt>
      <trkpt lat="45.92322" lon="6.63431">
        <ele>649.03</ele>
        <time>2012-08-05T16:23:07Z</time>
      </trkpt>
      <trkpt lat="45.92313" lon="6.63439">
        <ele>649.51</ele>
        <time>2012-08-05T16:23:08Z</time>
      </trkpt>
      <trkpt lat="45.92306" lon="6.6345">
        <ele>650.47</ele>
        <time>2012-08-05T16:23:09Z</time>
      </trkpt>
      <trkpt lat="45.92301" lon="6.63464">
        <ele>651.43</ele>
        <time>2012-08-05T16:23:10Z</time>
      </trkpt>
      <trkpt lat="45.92296" lon="6.63481">
        <ele>653.35</ele>
        <time>2012-08-05T16:23:11Z</time>
      </trkpt>
      <trkpt lat="45.92291" lon="6.63498">
        <ele>654.31</ele>
        <time>2012-08-05T16:23:12Z</time>
      </trkpt>
      <trkpt lat="45.92285" lon="6.63514">
        <ele>656.24</ele>
        <time>2012-08-05T16:23:13Z</time>
      </trkpt>
      <trkpt lat="45.92279" lon="6.63528">
        <ele>656.24</ele>
        <time>2012-08-05T16:23:14Z</time>
      </trkpt>
      <trkpt lat="45.92266" lon="6.6355">
        <ele>657.2</ele>
        <time>2012-08-05T16:23:16Z</time>
      </trkpt>
      <trkpt lat="45.92259" lon="6.63557">
        <ele>657.68</ele>
        <time>2012-08-05T16:23:17Z</time>
      </trkpt>
      <trkpt lat="45.9225" lon="6.6356">
        <ele>658.64</ele>
        <time>2012-08-05T16:23:18Z</time>
      </trkpt>
      <trkpt lat="45.92242" lon="6.6356">
        <ele>658.64</ele>
        <time>2012-08-05T16:23:19Z</time>
      </trkpt>
      <trkpt lat="45.92233" lon="6.63556">
        <ele>660.08</ele>
        <time>2012-08-05T16:23:20Z</time>
      </trkpt>
      <trkpt lat="45.92225" lon="6.6355">
        <ele>661.04</ele>
        <time>2012-08-05T16:23:21Z</time>
      </trkpt>
      <trkpt lat="45.92216" lon="6.63544">
        <ele>661.04</ele>
        <time>2012-08-05T16:23:22Z</time>
      </trkpt>
      <trkpt lat="45.92207" lon="6.63538">
        <ele>659.6</ele>
        <time>2012-08-05T16:23:23Z</time>
      </trkpt>
      <trkpt lat="45.92197" lon="6.63535">
        <ele>659.12</ele>
        <time>2012-08-05T16:23:24Z</time>
      </trkpt>
      <trkpt lat="45.92187" lon="6.63535">
        <ele>659.6</ele>
        <time>2012-08-05T16:23:25Z</time>
      </trkpt>
      <trkpt lat="45.92176" lon="6.63538">
        <ele>661.04</ele>
        <time>2012-08-05T16:23:26Z</time>
      </trkpt>
      <trkpt lat="45.92163" lon="6.63542">
        <ele>663.93</ele>
        <time>2012-08-05T16:23:27Z</time>
      </trkpt>
      <trkpt lat="45.92151" lon="6.63544">
        <ele>663.45</ele>
        <time>2012-08-05T16:23:28Z</time>
      </trkpt>
      <trkpt lat="45.92138" lon="6.63545">
        <ele>664.89</ele>
        <time>2012-08-05T16:23:29Z</time>
      </trkpt>
      <trkpt lat="45.92124" lon="6.63545">
        <ele>665.85</ele>
        <time>2012-08-05T16:23:30Z</time>
      </trkpt>
      <trkpt lat="45.92111" lon="6.63546">
        <ele>666.81</ele>
        <time>2012-08-05T16:23:31Z</time>
      </trkpt>
      <trkpt lat="45.92098" lon="6.6355">
        <ele>668.25</ele>
        <time>2012-08-05T16:23:32Z</time>
      </trkpt>
      <trkpt lat="45.92084" lon="6.63557">
        <ele>668.25</ele>
        <time>2012-08-05T16:23:33Z</time>
      </trkpt>
      <trkpt lat="45.92072" lon="6.63566">
        <ele>670.18</ele>
        <time>2012-08-05T16:23:34Z</time>
      </trkpt>
      <trkpt lat="45.92062" lon="6.63573">
        <ele>670.66</ele>
        <time>2012-08-05T16:23:35Z</time>
      </trkpt>
      <trkpt lat="45.92051" lon="6.63578">
        <ele>670.66</ele>
        <time>2012-08-05T16:23:36Z</time>
      </trkpt>
      <trkpt lat="45.92039" lon="6.6358">
        <ele>671.62</ele>
        <time>2012-08-05T16:23:37Z</time>
      </trkpt>
      <trkpt lat="45.92028" lon="6.63579">
        <ele>671.14</ele>
        <time>2012-08-05T16:23:38Z</time>
      </trkpt>
      <trkpt lat="45.92017" lon="6.63575">
        <ele>671.62</ele>
        <time>2012-08-05T16:23:39Z</time>
      </trkpt>
      <trkpt lat="45.92005" lon="6.63567">
        <ele>673.54</ele>
        <time>2012-08-05T16:23:40Z</time>
      </trkpt>
      <trkpt lat="45.91993" lon="6.63559">
        <ele>673.54</ele>
        <time>2012-08-05T16:23:41Z</time>
      </trkpt>
      <trkpt lat="45.91982" lon="6.63552">
        <ele>674.5</ele>
        <time>2012-08-05T16:23:42Z</time>
      </trkpt>
      <trkpt lat="45.9197" lon="6.63549">
        <ele>676.91</ele>
        <time>2012-08-05T16:23:43Z</time>
      </trkpt>
      <trkpt lat="45.91956" lon="6.63549">
        <ele>677.39</ele>
        <time>2012-08-05T16:23:44Z</time>
      </trkpt>
      <trkpt lat="45.91942" lon="6.63552">
        <ele>678.35</ele>
        <time>2012-08-05T16:23:45Z</time>
      </trkpt>
      <trkpt lat="45.91927" lon="6.63555">
        <ele>678.83</ele>
        <time>2012-08-05T16:23:46Z</time>
      </trkpt>
      <trkpt lat="45.91913" lon="6.63555">
        <ele>680.27</ele>
        <time>2012-08-05T16:23:47Z</time>
      </trkpt>
      <trkpt lat="45.91899" lon="6.63553">
        <ele>681.23</ele>
        <time>2012-08-05T16:23:48Z</time>
      </trkpt>
      <trkpt lat="45.91886" lon="6.63551">
        <ele>681.23</ele>
        <time>2012-08-05T16:23:49Z</time>
      </trkpt>
      <trkpt lat="45.91873" lon="6.63549">
        <ele>681.71</ele>
        <time>2012-08-05T16:23:50Z</time>
      </trkpt>
      <trkpt lat="45.91861" lon="6.6355">
        <ele>682.19</ele>
        <time>2012-08-05T16:23:51Z</time>
      </trkpt>
      <trkpt lat="45.91849" lon="6.63553">
        <ele>682.67</ele>
        <time>2012-08-05T16:23:52Z</time>
      </trkpt>
      <trkpt lat="45.91838" lon="6.6356">
        <ele>684.12</ele>
        <time>2012-08-05T16:23:53Z</time>
      </trkpt>
      <trkpt lat="45.91826" lon="6.6357">
        <ele>685.08</ele>
        <time>2012-08-05T16:23:54Z</time>
      </trkpt>
      <trkpt lat="45.91815" lon="6.63582">
        <ele>685.56</ele>
        <time>2012-08-05T16:23:55Z</time>
      </trkpt>
      <trkpt lat="45.91783" lon="6.63611">
        <ele>687.96</ele>
        <time>2012-08-05T16:23:58Z</time>
      </trkpt>
      <trkpt lat="45.91771" lon="6.63617">
        <ele>688.44</ele>
        <time>2012-08-05T16:23:59Z</time>
      </trkpt>
      <trkpt lat="45.91759" lon="6.6362">
        <ele>688.92</ele>
        <time>2012-08-05T16:24:00Z</time>
      </trkpt>
      <trkpt lat="45.91746" lon="6.63622">
        <ele>690.36</ele>
        <time>2012-08-05T16:24:01Z</time>
      </trkpt>
      <trkpt lat="45.91732" lon="6.63621">
        <ele>692.77</ele>
        <time>2012-08-05T16:24:02Z</time>
      </trkpt>
      <trkpt lat="45.91719" lon="6.6362">
        <ele>693.73</ele>
        <time>2012-08-05T16:24:03Z</time>
      </trkpt>
      <trkpt lat="45.91705" lon="6.6362">
        <ele>694.21</ele>
        <time>2012-08-05T16:24:04Z</time>
      </trkpt>
      <trkpt lat="45.91692" lon="6.63623">
        <ele>694.69</ele>
        <time>2012-08-05T16:24:05Z</time>
      </trkpt>
      <trkpt lat="45.91655" lon="6.63637">
        <ele>695.17</ele>
        <time>2012-08-05T16:24:08Z</time>
      </trkpt>
      <trkpt lat="45.91645" lon="6.63637">
        <ele>696.13</ele>
        <time>2012-08-05T16:24:09Z</time>
      </trkpt>
      <trkpt lat="45.91635" lon="6.63636">
        <ele>696.61</ele>
        <time>2012-08-05T16:24:10Z</time>
      </trkpt>
      <trkpt lat="45.91625" lon="6.63631">
        <ele>698.05</ele>
        <time>2012-08-05T16:24:11Z</time>
      </trkpt>
      <trkpt lat="45.91616" lon="6.63623">
        <ele>699.02</ele>
        <time>2012-08-05T16:24:12Z</time>
      </trkpt>
      <trkpt lat="45.91606" lon="6.63615">
        <ele>699.98</ele>
        <time>2012-08-05T16:24:13Z</time>
      </trkpt>
      <trkpt lat="45.91582" lon="6.63598">
        <ele>703.34</ele>
        <time>2012-08-05T16:24:15Z</time>
      </trkpt>
      <trkpt lat="45.91569" lon="6.63591">
        <ele>703.82</ele>
        <time>2012-08-05T16:24:16Z</time>
      </trkpt>
      <trkpt lat="45.91557" lon="6.63586">
        <ele>703.34</ele>
        <time>2012-08-05T16:24:17Z</time>
      </trkpt>
      <trkpt lat="45.91546" lon="6.63584">
        <ele>703.82</ele>
        <time>2012-08-05T16:24:18Z</time>
      </trkpt>
      <trkpt lat="45.91536" lon="6.63584">
        <ele>704.78</ele>
        <time>2012-08-05T16:24:19Z</time>
      </trkpt>
      <trkpt lat="45.91526" lon="6.63588">
        <ele>704.78</ele>
        <time>2012-08-05T16:24:20Z</time>
      </trkpt>
      <trkpt lat="45.91516" lon="6.63594">
        <ele>705.75</ele>
        <time>2012-08-05T16:24:21Z</time>
      </trkpt>
      <trkpt lat="45.91506" lon="6.63601">
        <ele>706.71</ele>
        <time>2012-08-05T16:24:22Z</time>
      </trkpt>
      <trkpt lat="45.91495" lon="6.63607">
        <ele>707.67</ele>
        <time>2012-08-05T16:24:23Z</time>
      </trkpt>
      <trkpt lat="45.91484" lon="6.6361">
        <ele>708.63</ele>
        <time>2012-08-05T16:24:24Z</time>
      </trkpt>
      <trkpt lat="45.91473" lon="6.63611">
        <ele>709.59</ele>
        <time>2012-08-05T16:24:25Z</time>
      </trkpt>
      <trkpt lat="45.91461" lon="6.63608">
        <ele>710.55</ele>
        <time>2012-08-05T16:24:26Z</time>
      </trkpt>
      <trkpt lat="45.91447" lon="6.63602">
        <ele>712.47</ele>
        <time>2012-08-05T16:24:27Z</time>
      </trkpt>
      <trkpt lat="45.91433" lon="6.63596">
        <ele>713.92</ele>
        <time>2012-08-05T16:24:28Z</time>
      </trkpt>
      <trkpt lat="45.91417" lon="6.6359">
        <ele>714.4</ele>
        <time>2012-08-05T16:24:29Z</time>
      </trkpt>
      <trkpt lat="45.91402" lon="6.63586">
        <ele>715.84</ele>
        <time>2012-08-05T16:24:30Z</time>
      </trkpt>
      <trkpt lat="45.91386" lon="6.63584">
        <ele>714.88</ele>
        <time>2012-08-05T16:24:31Z</time>
      </trkpt>
      <trkpt lat="45.91355" lon="6.63582">
        <ele>717.28</ele>
        <time>2012-08-05T16:24:33Z</time>
      </trkpt>
      <trkpt lat="45.91326" lon="6.63585">
        <ele>720.16</ele>
        <time>2012-08-05T16:24:35Z</time>
      </trkpt>
      <trkpt lat="45.91313" lon="6.6359">
        <ele>720.65</ele>
        <time>2012-08-05T16:24:36Z</time>
      </trkpt>
      <trkpt lat="45.913" lon="6.63596">
        <ele>720.16</ele>
        <time>2012-08-05T16:24:37Z</time>
      </trkpt>
      <trkpt lat="45.91287" lon="6.63604">
        <ele>721.13</ele>
        <time>2012-08-05T16:24:38Z</time>
      </trkpt>
      <trkpt lat="45.91274" lon="6.63612">
        <ele>721.61</ele>
        <time>2012-08-05T16:24:39Z</time>
      </trkpt>
      <trkpt lat="45.91262" lon="6.63618">
        <ele>722.09</ele>
        <time>2012-08-05T16:24:40Z</time>
      </trkpt>
      <trkpt lat="45.9125" lon="6.63621">
        <ele>721.61</ele>
        <time>2012-08-05T16:24:41Z</time>
      </trkpt>
      <trkpt lat="45.91239" lon="6.63623">
        <ele>722.57</ele>
        <time>2012-08-05T16:24:42Z</time>
      </trkpt>
      <trkpt lat="45.91216" lon="6.63624">
        <ele>724.01</ele>
        <time>2012-08-05T16:24:44Z</time>
      </trkpt>
      <trkpt lat="45.91205" lon="6.63627">
        <ele>724.49</ele>
        <time>2012-08-05T16:24:45Z</time>
      </trkpt>
      <trkpt lat="45.91193" lon="6.63632">
        <ele>725.93</ele>
        <time>2012-08-05T16:24:46Z</time>
      </trkpt>
      <trkpt lat="45.91183" lon="6.63638">
        <ele>727.37</ele>
        <time>2012-08-05T16:24:47Z</time>
      </trkpt>
      <trkpt lat="45.91173" lon="6.63647">
        <ele>727.86</ele>
        <time>2012-08-05T16:24:48Z</time>
      </trkpt>
      <trkpt lat="45.91165" lon="6.63656">
        <ele>728.34</ele>
        <time>2012-08-05T16:24:49Z</time>
      </trkpt>
      <trkpt lat="45.91157" lon="6.63668">
        <ele>729.3</ele>
        <time>2012-08-05T16:24:50Z</time>
      </trkpt>
      <trkpt lat="45.9115" lon="6.63681">
        <ele>730.26</ele>
        <time>2012-08-05T16:24:51Z</time>
      </trkpt>
      <trkpt lat="45.91144" lon="6.63696">
        <ele>731.7</ele>
        <time>2012-08-05T16:24:52Z</time>
      </trkpt>
      <trkpt lat="45.91138" lon="6.6371">
        <ele>731.22</ele>
        <time>2012-08-05T16:24:53Z</time>
      </trkpt>
      <trkpt lat="45.91129" lon="6.63738">
        <ele>732.66</ele>
        <time>2012-08-05T16:24:55Z</time>
      </trkpt>
      <trkpt lat="45.91126" lon="6.63753">
        <ele>733.62</ele>
        <time>2012-08-05T16:24:56Z</time>
      </trkpt>
      <trkpt lat="45.91124" lon="6.63767">
        <ele>734.1</ele>
        <time>2012-08-05T16:24:57Z</time>
      </trkpt>
      <trkpt lat="45.91124" lon="6.6378">
        <ele>734.1</ele>
        <time>2012-08-05T16:24:58Z</time>
      </trkpt>
      <trkpt lat="45.91124" lon="6.63793">
        <ele>734.58</ele>
        <time>2012-08-05T16:24:59Z</time>
      </trkpt>
      <trkpt lat="45.91125" lon="6.63804">
        <ele>734.58</ele>
        <time>2012-08-05T16:25:00Z</time>
      </trkpt>
      <trkpt lat="45.91124" lon="6.63815">
        <ele>734.58</ele>
        <time>2012-08-05T16:25:01Z</time>
      </trkpt>
      <trkpt lat="45.91121" lon="6.63825">
        <ele>735.07</ele>
        <time>2012-08-05T16:25:02Z</time>
      </trkpt>
      <trkpt lat="45.91117" lon="6.63833">
        <ele>735.55</ele>
        <time>2012-08-05T16:25:03Z</time>
      </trkpt>
      <trkpt lat="45.91112" lon="6.63837">
        <ele>736.03</ele>
        <time>2012-08-05T16:25:04Z</time>
      </trkpt>
      <trkpt lat="45.91104" lon="6.63838">
        <ele>736.99</ele>
        <time>2012-08-05T16:25:05Z</time>
      </trkpt>
      <trkpt lat="45.91097" lon="6.63836">
        <ele>736.99</ele>
        <time>2012-08-05T16:25:06Z</time>
      </trkpt>
      <trkpt lat="45.91088" lon="6.63829">
        <ele>737.47</ele>
        <time>2012-08-05T16:25:07Z</time>
      </trkpt>
      <trkpt lat="45.91079" lon="6.63821">
        <ele>739.39</ele>
        <time>2012-08-05T16:25:08Z</time>
      </trkpt>
      <trkpt lat="45.9107" lon="6.63814">
        <ele>740.35</ele>
        <time>2012-08-05T16:25:09Z</time>
      </trkpt>
      <trkpt lat="45.91059" lon="6.63808">
        <ele>740.83</ele>
        <time>2012-08-05T16:25:10Z</time>
      </trkpt>
      <trkpt lat="45.91004" lon="6.6379">
        <ele>744.2</ele>
        <time>2012-08-05T16:25:15Z</time>
      </trkpt>
      <trkpt lat="45.90994" lon="6.63788">
        <ele>744.68</ele>
        <time>2012-08-05T16:25:16Z</time>
      </trkpt>
      <trkpt lat="45.90983" lon="6.6379">
        <ele>745.64</ele>
        <time>2012-08-05T16:25:17Z</time>
      </trkpt>
      <trkpt lat="45.90973" lon="6.63794">
        <ele>747.08</ele>
        <time>2012-08-05T16:25:18Z</time>
      </trkpt>
      <trkpt lat="45.90963" lon="6.638">
        <ele>748.04</ele>
        <time>2012-08-05T16:25:19Z</time>
      </trkpt>
      <trkpt lat="45.90953" lon="6.63806">
        <ele>748.52</ele>
        <time>2012-08-05T16:25:20Z</time>
      </trkpt>
      <trkpt lat="45.90945" lon="6.6381">
        <ele>749.49</ele>
        <time>2012-08-05T16:25:21Z</time>
      </trkpt>
      <trkpt lat="45.90936" lon="6.63813">
        <ele>749.49</ele>
        <time>2012-08-05T16:25:22Z</time>
      </trkpt>
      <trkpt lat="45.90927" lon="6.63812">
        <ele>750.45</ele>
        <time>2012-08-05T16:25:23Z</time>
      </trkpt>
      <trkpt lat="45.90917" lon="6.63808">
        <ele>752.37</ele>
        <time>2012-08-05T16:25:24Z</time>
      </trkpt>
      <trkpt lat="45.90907" lon="6.63804">
        <ele>752.37</ele>
        <time>2012-08-05T16:25:25Z</time>
      </trkpt>
      <trkpt lat="45.90899" lon="6.63802">
        <ele>752.85</ele>
        <time>2012-08-05T16:25:26Z</time>
      </trkpt>
      <trkpt lat="45.90891" lon="6.63804">
        <ele>753.33</ele>
        <time>2012-08-05T16:25:27Z</time>
      </trkpt>
      <trkpt lat="45.90883" lon="6.6381">
        <ele>753.81</ele>
        <time>2012-08-05T16:25:28Z</time>
      </trkpt>
      <trkpt lat="45.90878" lon="6.63819">
        <ele>755.25</ele>
        <time>2012-08-05T16:25:29Z</time>
      </trkpt>
      <trkpt lat="45.90874" lon="6.6383">
        <ele>755.25</ele>
        <time>2012-08-05T16:25:30Z</time>
      </trkpt>
      <trkpt lat="45.90872" lon="6.63843">
        <ele>756.21</ele>
        <time>2012-08-05T16:25:31Z</time>
      </trkpt>
      <trkpt lat="45.90871" lon="6.6386">
        <ele>757.18</ele>
        <time>2012-08-05T16:25:32Z</time>
      </trkpt>
      <trkpt lat="45.9087" lon="6.63878">
        <ele>759.1</ele>
        <time>2012-08-05T16:25:33Z</time>
      </trkpt>
      <trkpt lat="45.9087" lon="6.63895">
        <ele>759.1</ele>
        <time>2012-08-05T16:25:34Z</time>
      </trkpt>
      <trkpt lat="45.90869" lon="6.63909">
        <ele>759.1</ele>
        <time>2012-08-05T16:25:35Z</time>
      </trkpt>
      <trkpt lat="45.90867" lon="6.63923">
        <ele>760.06</ele>
        <time>2012-08-05T16:25:36Z</time>
      </trkpt>
      <trkpt lat="45.90867" lon="6.63935">
        <ele>760.06</ele>
        <time>2012-08-05T16:25:37Z</time>
      </trkpt>
      <trkpt lat="45.90869" lon="6.63945">
        <ele>760.54</ele>
        <time>2012-08-05T16:25:38Z</time>
      </trkpt>
      <trkpt lat="45.90873" lon="6.63955">
        <ele>761.98</ele>
        <time>2012-08-05T16:25:39Z</time>
      </trkpt>
      <trkpt lat="45.9088" lon="6.63964">
        <ele>762.94</ele>
        <time>2012-08-05T16:25:40Z</time>
      </trkpt>
      <trkpt lat="45.90889" lon="6.63971">
        <ele>763.9</ele>
        <time>2012-08-05T16:25:41Z</time>
      </trkpt>
      <trkpt lat="45.90897" lon="6.63978">
        <ele>763.9</ele>
        <time>2012-08-05T16:25:42Z</time>
      </trkpt>
      <trkpt lat="45.90906" lon="6.63985">
        <ele>764.87</ele>
        <time>2012-08-05T16:25:43Z</time>
      </trkpt>
      <trkpt lat="45.90913" lon="6.63992">
        <ele>765.35</ele>
        <time>2012-08-05T16:25:44Z</time>
      </trkpt>
      <trkpt lat="45.90919" lon="6.64">
        <ele>764.87</ele>
        <time>2012-08-05T16:25:45Z</time>
      </trkpt>
      <trkpt lat="45.90924" lon="6.64009">
        <ele>765.83</ele>
        <time>2012-08-05T16:25:46Z</time>
      </trkpt>
      <trkpt lat="45.90926" lon="6.64017">
        <ele>765.83</ele>
        <time>2012-08-05T16:25:47Z</time>
      </trkpt>
      <trkpt lat="45.90926" lon="6.64026">
        <ele>767.27</ele>
        <time>2012-08-05T16:25:48Z</time>
      </trkpt>
      <trkpt lat="45.90924" lon="6.64033">
        <ele>766.79</ele>
        <time>2012-08-05T16:25:49Z</time>
      </trkpt>
      <trkpt lat="45.9092" lon="6.64039">
        <ele>767.75</ele>
        <time>2012-08-05T16:25:50Z</time>
      </trkpt>
      <trkpt lat="45.90912" lon="6.64041">
        <ele>768.23</ele>
        <time>2012-08-05T16:25:51Z</time>
      </trkpt>
      <trkpt lat="45.90902" lon="6.64042">
        <ele>769.67</ele>
        <time>2012-08-05T16:25:52Z</time>
      </trkpt>
      <trkpt lat="45.90891" lon="6.64041">
        <ele>771.11</ele>
        <time>2012-08-05T16:25:53Z</time>
      </trkpt>
      <trkpt lat="45.9088" lon="6.64036">
        <ele>771.6</ele>
        <time>2012-08-05T16:25:54Z</time>
      </trkpt>
      <trkpt lat="45.9087" lon="6.64032">
        <ele>772.08</ele>
        <time>2012-08-05T16:25:55Z</time>
      </trkpt>
      <trkpt lat="45.9085" lon="6.64024">
        <ele>773.04</ele>
        <time>2012-08-05T16:25:57Z</time>
      </trkpt>
      <trkpt lat="45.90841" lon="6.64018">
        <ele>773.52</ele>
        <time>2012-08-05T16:25:58Z</time>
      </trkpt>
      <trkpt lat="45.90822" lon="6.64006">
        <ele>774.96</ele>
        <time>2012-08-05T16:26:00Z</time>
      </trkpt>
      <trkpt lat="45.90813" lon="6.64003">
        <ele>775.92</ele>
        <time>2012-08-05T16:26:01Z</time>
      </trkpt>
      <trkpt lat="45.90804" lon="6.64001">
        <ele>776.4</ele>
        <time>2012-08-05T16:26:02Z</time>
      </trkpt>
      <trkpt lat="45.90795" lon="6.64003">
        <ele>776.88</ele>
        <time>2012-08-05T16:26:03Z</time>
      </trkpt>
      <trkpt lat="45.90786" lon="6.64006">
        <ele>778.81</ele>
        <time>2012-08-05T16:26:04Z</time>
      </trkpt>
      <trkpt lat="45.90777" lon="6.64011">
        <ele>779.77</ele>
        <time>2012-08-05T16:26:05Z</time>
      </trkpt>
      <trkpt lat="45.90768" lon="6.64018">
        <ele>778.81</ele>
        <time>2012-08-05T16:26:06Z</time>
      </trkpt>
      <trkpt lat="45.90758" lon="6.64024">
        <ele>779.77</ele>
        <time>2012-08-05T16:26:07Z</time>
      </trkpt>
      <trkpt lat="45.90732" lon="6.64036">
        <ele>781.21</ele>
        <time>2012-08-05T16:26:09Z</time>
      </trkpt>
      <trkpt lat="45.90724" lon="6.64041">
        <ele>781.69</ele>
        <time>2012-08-05T16:26:10Z</time>
      </trkpt>
      <trkpt lat="45.90714" lon="6.64044">
        <ele>782.65</ele>
        <time>2012-08-05T16:26:11Z</time>
      </trkpt>
      <trkpt lat="45.90704" lon="6.64044">
        <ele>783.61</ele>
        <time>2012-08-05T16:26:12Z</time>
      </trkpt>
      <trkpt lat="45.90694" lon="6.64041">
        <ele>784.09</ele>
        <time>2012-08-05T16:26:13Z</time>
      </trkpt>
      <trkpt lat="45.90685" lon="6.64038">
        <ele>784.57</ele>
        <time>2012-08-05T16:26:14Z</time>
      </trkpt>
      <trkpt lat="45.90676" lon="6.64036">
        <ele>785.53</ele>
        <time>2012-08-05T16:26:15Z</time>
      </trkpt>
      <trkpt lat="45.90668" lon="6.64035">
        <ele>786.02</ele>
        <time>2012-08-05T16:26:16Z</time>
      </trkpt>
      <trkpt lat="45.90661" lon="6.64038">
        <ele>786.98</ele>
        <time>2012-08-05T16:26:17Z</time>
      </trkpt>
      <trkpt lat="45.90653" lon="6.64042">
        <ele>788.9</ele>
        <time>2012-08-05T16:26:18Z</time>
      </trkpt>
      <trkpt lat="45.90645" lon="6.64048">
        <ele>789.38</ele>
        <time>2012-08-05T16:26:19Z</time>
      </trkpt>
      <trkpt lat="45.90635" lon="6.64055">
        <ele>789.86</ele>
        <time>2012-08-05T16:26:20Z</time>
      </trkpt>
      <trkpt lat="45.90615" lon="6.64069">
        <ele>791.3</ele>
        <time>2012-08-05T16:26:22Z</time>
      </trkpt>
      <trkpt lat="45.90578" lon="6.64087">
        <ele>793.22</ele>
        <time>2012-08-05T16:26:25Z</time>
      </trkpt>
      <trkpt lat="45.90567" lon="6.64089">
        <ele>793.71</ele>
        <time>2012-08-05T16:26:26Z</time>
      </trkpt>
      <trkpt lat="45.90556" lon="6.6409">
        <ele>794.19</ele>
        <time>2012-08-05T16:26:27Z</time>
      </trkpt>
      <trkpt lat="45.90547" lon="6.6409">
        <ele>794.19</ele>
        <time>2012-08-05T16:26:28Z</time>
      </trkpt>
      <trkpt lat="45.9052" lon="6.6409">
        <ele>796.11</ele>
        <time>2012-08-05T16:26:31Z</time>
      </trkpt>
      <trkpt lat="45.90511" lon="6.64095">
        <ele>796.11</ele>
        <time>2012-08-05T16:26:32Z</time>
      </trkpt>
      <trkpt lat="45.90502" lon="6.64101">
        <ele>796.11</ele>
        <time>2012-08-05T16:26:33Z</time>
      </trkpt>
      <trkpt lat="45.90493" lon="6.64109">
        <ele>796.11</ele>
        <time>2012-08-05T16:26:34Z</time>
      </trkpt>
      <trkpt lat="45.90485" lon="6.64121">
        <ele>797.07</ele>
        <time>2012-08-05T16:26:35Z</time>
      </trkpt>
      <trkpt lat="45.90479" lon="6.64135">
        <ele>798.03</ele>
        <time>2012-08-05T16:26:36Z</time>
      </trkpt>
      <trkpt lat="45.90473" lon="6.64151">
        <ele>798.03</ele>
        <time>2012-08-05T16:26:37Z</time>
      </trkpt>
      <trkpt lat="45.90468" lon="6.64169">
        <ele>799.47</ele>
        <time>2012-08-05T16:26:38Z</time>
      </trkpt>
      <trkpt lat="45.90464" lon="6.64192">
        <ele>801.4</ele>
        <time>2012-08-05T16:26:39Z</time>
      </trkpt>
      <trkpt lat="45.90454" lon="6.64235">
        <ele>802.36</ele>
        <time>2012-08-05T16:26:41Z</time>
      </trkpt>
      <trkpt lat="45.90449" lon="6.64254">
        <ele>801.88</ele>
        <time>2012-08-05T16:26:42Z</time>
      </trkpt>
      <trkpt lat="45.9043" lon="6.64305">
        <ele>804.28</ele>
        <time>2012-08-05T16:26:45Z</time>
      </trkpt>
      <trkpt lat="45.90427" lon="6.64323">
        <ele>805.24</ele>
        <time>2012-08-05T16:26:46Z</time>
      </trkpt>
      <trkpt lat="45.90424" lon="6.64341">
        <ele>806.2</ele>
        <time>2012-08-05T16:26:47Z</time>
      </trkpt>
      <trkpt lat="45.9042" lon="6.64378">
        <ele>809.09</ele>
        <time>2012-08-05T16:26:49Z</time>
      </trkpt>
      <trkpt lat="45.90416" lon="6.64395">
        <ele>809.09</ele>
        <time>2012-08-05T16:26:50Z</time>
      </trkpt>
      <trkpt lat="45.90408" lon="6.64424">
        <ele>810.05</ele>
        <time>2012-08-05T16:26:52Z</time>
      </trkpt>
      <trkpt lat="45.90401" lon="6.64437">
        <ele>810.53</ele>
        <time>2012-08-05T16:26:53Z</time>
      </trkpt>
      <trkpt lat="45.90394" lon="6.64448">
        <ele>811.49</ele>
        <time>2012-08-05T16:26:54Z</time>
      </trkpt>
      <trkpt lat="45.90386" lon="6.64458">
        <ele>811.97</ele>
        <time>2012-08-05T16:26:55Z</time>
      </trkpt>
      <trkpt lat="45.90379" lon="6.6447">
        <ele>812.45</ele>
        <time>2012-08-05T16:26:56Z</time>
      </trkpt>
      <trkpt lat="45.90374" lon="6.64483">
        <ele>813.41</ele>
        <time>2012-08-05T16:26:57Z</time>
      </trkpt>
      <trkpt lat="45.90371" lon="6.64497">
        <ele>814.37</ele>
        <time>2012-08-05T16:26:58Z</time>
      </trkpt>
      <trkpt lat="45.90367" lon="6.64509">
        <ele>814.37</ele>
        <time>2012-08-05T16:26:59Z</time>
      </trkpt>
      <trkpt lat="45.9036" lon="6.64544">
        <ele>816.3</ele>
        <time>2012-08-05T16:27:02Z</time>
      </trkpt>
      <trkpt lat="45.9036" lon="6.64554">
        <ele>816.3</ele>
        <time>2012-08-05T16:27:03Z</time>
      </trkpt>
      <trkpt lat="45.90362" lon="6.64562">
        <ele>816.78</ele>
        <time>2012-08-05T16:27:04Z</time>
      </trkpt>
      <trkpt lat="45.90368" lon="6.64583">
        <ele>817.74</ele>
        <time>2012-08-05T16:27:07Z</time>
      </trkpt>
      <trkpt lat="45.9037" lon="6.64592">
        <ele>818.22</ele>
        <time>2012-08-05T16:27:08Z</time>
      </trkpt>
      <trkpt lat="45.90369" lon="6.64603">
        <ele>818.7</ele>
        <time>2012-08-05T16:27:09Z</time>
      </trkpt>
      <trkpt lat="45.90366" lon="6.64614">
        <ele>819.66</ele>
        <time>2012-08-05T16:27:10Z</time>
      </trkpt>
      <trkpt lat="45.90362" lon="6.64624">
        <ele>820.14</ele>
        <time>2012-08-05T16:27:11Z</time>
      </trkpt>
      <trkpt lat="45.90355" lon="6.64633">
        <ele>821.1</ele>
        <time>2012-08-05T16:27:12Z</time>
      </trkpt>
      <trkpt lat="45.90346" lon="6.64639">
        <ele>822.55</ele>
        <time>2012-08-05T16:27:13Z</time>
      </trkpt>
      <trkpt lat="45.90336" lon="6.64644">
        <ele>823.51</ele>
        <time>2012-08-05T16:27:14Z</time>
      </trkpt>
      <trkpt lat="45.90325" lon="6.64648">
        <ele>823.99</ele>
        <time>2012-08-05T16:27:15Z</time>
      </trkpt>
      <trkpt lat="45.90315" lon="6.64653">
        <ele>824.95</ele>
        <time>2012-08-05T16:27:16Z</time>
      </trkpt>
      <trkpt lat="45.90306" lon="6.64662">
        <ele>826.39</ele>
        <time>2012-08-05T16:27:17Z</time>
      </trkpt>
      <trkpt lat="45.90298" lon="6.64674">
        <ele>826.87</ele>
        <time>2012-08-05T16:27:18Z</time>
      </trkpt>
      <trkpt lat="45.90283" lon="6.64696">
        <ele>828.31</ele>
        <time>2012-08-05T16:27:20Z</time>
      </trkpt>
      <trkpt lat="45.90275" lon="6.64705">
        <ele>828.31</ele>
        <time>2012-08-05T16:27:21Z</time>
      </trkpt>
      <trkpt lat="45.90267" lon="6.64711">
        <ele>829.27</ele>
        <time>2012-08-05T16:27:22Z</time>
      </trkpt>
      <trkpt lat="45.90257" lon="6.64714">
        <ele>830.72</ele>
        <time>2012-08-05T16:27:23Z</time>
      </trkpt>
      <trkpt lat="45.90248" lon="6.64718">
        <ele>831.68</ele>
        <time>2012-08-05T16:27:24Z</time>
      </trkpt>
      <trkpt lat="45.90238" lon="6.64725">
        <ele>832.16</ele>
        <time>2012-08-05T16:27:25Z</time>
      </trkpt>
      <trkpt lat="45.9023" lon="6.64734">
        <ele>833.12</ele>
        <time>2012-08-05T16:27:26Z</time>
      </trkpt>
      <trkpt lat="45.90222" lon="6.64744">
        <ele>834.08</ele>
        <time>2012-08-05T16:27:27Z</time>
      </trkpt>
      <trkpt lat="45.90213" lon="6.64757">
        <ele>836</ele>
        <time>2012-08-05T16:27:28Z</time>
      </trkpt>
      <trkpt lat="45.90191" lon="6.6479">
        <ele>839.85</ele>
        <time>2012-08-05T16:27:30Z</time>
      </trkpt>
      <trkpt lat="45.90179" lon="6.64807">
        <ele>839.85</ele>
        <time>2012-08-05T16:27:31Z</time>
      </trkpt>
      <trkpt lat="45.90132" lon="6.64866">
        <ele>843.69</ele>
        <time>2012-08-05T16:27:35Z</time>
      </trkpt>
      <trkpt lat="45.90101" lon="6.64914">
        <ele>847.06</ele>
        <time>2012-08-05T16:27:38Z</time>
      </trkpt>
      <trkpt lat="45.90081" lon="6.64946">
        <ele>848.5</ele>
        <time>2012-08-05T16:27:40Z</time>
      </trkpt>
      <trkpt lat="45.90071" lon="6.64959">
        <ele>848.98</ele>
        <time>2012-08-05T16:27:41Z</time>
      </trkpt>
      <trkpt lat="45.90038" lon="6.65">
        <ele>853.79</ele>
        <time>2012-08-05T16:27:44Z</time>
      </trkpt>
      <trkpt lat="45.89999" lon="6.65051">
        <ele>856.19</ele>
        <time>2012-08-05T16:27:48Z</time>
      </trkpt>
      <trkpt lat="45.89987" lon="6.65062">
        <ele>857.63</ele>
        <time>2012-08-05T16:27:49Z</time>
      </trkpt>
      <trkpt lat="45.89976" lon="6.65071">
        <ele>857.15</ele>
        <time>2012-08-05T16:27:50Z</time>
      </trkpt>
      <trkpt lat="45.89966" lon="6.65077">
        <ele>857.63</ele>
        <time>2012-08-05T16:27:51Z</time>
      </trkpt>
      <trkpt lat="45.89955" lon="6.65083">
        <ele>858.59</ele>
        <time>2012-08-05T16:27:52Z</time>
      </trkpt>
      <trkpt lat="45.89944" lon="6.65087">
        <ele>858.59</ele>
        <time>2012-08-05T16:27:53Z</time>
      </trkpt>
      <trkpt lat="45.89927" lon="6.65097">
        <ele>860.04</ele>
        <time>2012-08-05T16:27:55Z</time>
      </trkpt>
      <trkpt lat="45.89919" lon="6.65105">
        <ele>860.04</ele>
        <time>2012-08-05T16:27:56Z</time>
      </trkpt>
      <trkpt lat="45.89912" lon="6.65115">
        <ele>861.48</ele>
        <time>2012-08-05T16:27:57Z</time>
      </trkpt>
      <trkpt lat="45.89906" lon="6.65126">
        <ele>861.48</ele>
        <time>2012-08-05T16:27:58Z</time>
      </trkpt>
      <trkpt lat="45.89901" lon="6.65136">
        <ele>861</ele>
        <time>2012-08-05T16:27:59Z</time>
      </trkpt>
      <trkpt lat="45.89896" lon="6.65144">
        <ele>861.96</ele>
        <time>2012-08-05T16:28:00Z</time>
      </trkpt>
      <trkpt lat="45.8989" lon="6.6515">
        <ele>862.44</ele>
        <time>2012-08-05T16:28:01Z</time>
      </trkpt>
      <trkpt lat="45.89883" lon="6.65154">
        <ele>862.44</ele>
        <time>2012-08-05T16:28:02Z</time>
      </trkpt>
      <trkpt lat="45.89875" lon="6.65155">
        <ele>863.88</ele>
        <time>2012-08-05T16:28:03Z</time>
      </trkpt>
      <trkpt lat="45.89867" lon="6.65154">
        <ele>864.84</ele>
        <time>2012-08-05T16:28:04Z</time>
      </trkpt>
      <trkpt lat="45.89858" lon="6.6515">
        <ele>865.8</ele>
        <time>2012-08-05T16:28:05Z</time>
      </trkpt>
      <trkpt lat="45.8985" lon="6.65147">
        <ele>865.8</ele>
        <time>2012-08-05T16:28:06Z</time>
      </trkpt>
      <trkpt lat="45.89834" lon="6.65137">
        <ele>866.77</ele>
        <time>2012-08-05T16:28:08Z</time>
      </trkpt>
      <trkpt lat="45.89828" lon="6.6513">
        <ele>866.77</ele>
        <time>2012-08-05T16:28:09Z</time>
      </trkpt>
      <trkpt lat="45.89815" lon="6.65115">
        <ele>868.21</ele>
        <time>2012-08-05T16:28:11Z</time>
      </trkpt>
      <trkpt lat="45.89807" lon="6.6511">
        <ele>868.69</ele>
        <time>2012-08-05T16:28:12Z</time>
      </trkpt>
      <trkpt lat="45.89799" lon="6.65108">
        <ele>868.21</ele>
        <time>2012-08-05T16:28:13Z</time>
      </trkpt>
      <trkpt lat="45.89791" lon="6.65107">
        <ele>868.69</ele>
        <time>2012-08-05T16:28:14Z</time>
      </trkpt>
      <trkpt lat="45.89781" lon="6.65109">
        <ele>870.13</ele>
        <time>2012-08-05T16:28:15Z</time>
      </trkpt>
      <trkpt lat="45.8977" lon="6.65113">
        <ele>871.09</ele>
        <time>2012-08-05T16:28:16Z</time>
      </trkpt>
      <trkpt lat="45.8974" lon="6.65125">
        <ele>873.01</ele>
        <time>2012-08-05T16:28:19Z</time>
      </trkpt>
      <trkpt lat="45.89704" lon="6.65143">
        <ele>874.46</ele>
        <time>2012-08-05T16:28:23Z</time>
      </trkpt>
      <trkpt lat="45.89696" lon="6.65142">
        <ele>874.46</ele>
        <time>2012-08-05T16:28:24Z</time>
      </trkpt>
      <trkpt lat="45.89688" lon="6.65137">
        <ele>874.46</ele>
        <time>2012-08-05T16:28:25Z</time>
      </trkpt>
      <trkpt lat="45.89681" lon="6.6513">
        <ele>875.42</ele>
        <time>2012-08-05T16:28:26Z</time>
      </trkpt>
      <trkpt lat="45.89676" lon="6.6512">
        <ele>876.38</ele>
        <time>2012-08-05T16:28:27Z</time>
      </trkpt>
      <trkpt lat="45.89671" lon="6.65109">
        <ele>876.38</ele>
        <time>2012-08-05T16:28:28Z</time>
      </trkpt>
      <trkpt lat="45.89669" lon="6.65096">
        <ele>876.38</ele>
        <time>2012-08-05T16:28:29Z</time>
      </trkpt>
      <trkpt lat="45.89669" lon="6.65083">
        <ele>877.82</ele>
        <time>2012-08-05T16:28:30Z</time>
      </trkpt>
      <trkpt lat="45.89671" lon="6.6507">
        <ele>878.3</ele>
        <time>2012-08-05T16:28:31Z</time>
      </trkpt>
      <trkpt lat="45.89675" lon="6.65059">
        <ele>878.78</ele>
        <time>2012-08-05T16:28:32Z</time>
      </trkpt>
      <trkpt lat="45.89681" lon="6.65048">
        <ele>879.74</ele>
        <time>2012-08-05T16:28:33Z</time>
      </trkpt>
      <trkpt lat="45.89688" lon="6.65038">
        <ele>880.22</ele>
        <time>2012-08-05T16:28:34Z</time>
      </trkpt>
      <trkpt lat="45.89695" lon="6.65028">
        <ele>880.71</ele>
        <time>2012-08-05T16:28:35Z</time>
      </trkpt>
      <trkpt lat="45.89704" lon="6.65018">
        <ele>881.67</ele>
        <time>2012-08-05T16:28:36Z</time>
      </trkpt>
      <trkpt lat="45.89712" lon="6.65006">
        <ele>882.63</ele>
        <time>2012-08-05T16:28:37Z</time>
      </trkpt>
      <trkpt lat="45.89721" lon="6.64992">
        <ele>883.59</ele>
        <time>2012-08-05T16:28:38Z</time>
      </trkpt>
      <trkpt lat="45.89729" lon="6.64976">
        <ele>884.55</ele>
        <time>2012-08-05T16:28:39Z</time>
      </trkpt>
      <trkpt lat="45.89736" lon="6.64958">
        <ele>885.99</ele>
        <time>2012-08-05T16:28:40Z</time>
      </trkpt>
      <trkpt lat="45.89742" lon="6.6494">
        <ele>887.43</ele>
        <time>2012-08-05T16:28:41Z</time>
      </trkpt>
      <trkpt lat="45.89748" lon="6.64921">
        <ele>887.91</ele>
        <time>2012-08-05T16:28:42Z</time>
      </trkpt>
      <trkpt lat="45.89769" lon="6.64864">
        <ele>889.36</ele>
        <time>2012-08-05T16:28:45Z</time>
      </trkpt>
      <trkpt lat="45.8978" lon="6.64846">
        <ele>890.8</ele>
        <time>2012-08-05T16:28:46Z</time>
      </trkpt>
      <trkpt lat="45.89791" lon="6.64829">
        <ele>892.24</ele>
        <time>2012-08-05T16:28:47Z</time>
      </trkpt>
      <trkpt lat="45.89857" lon="6.64741">
        <ele>894.16</ele>
        <time>2012-08-05T16:28:54Z</time>
      </trkpt>
      <trkpt lat="45.89864" lon="6.64735">
        <ele>894.64</ele>
        <time>2012-08-05T16:28:55Z</time>
      </trkpt>
      <trkpt lat="45.89871" lon="6.64731">
        <ele>894.64</ele>
        <time>2012-08-05T16:28:56Z</time>
      </trkpt>
      <trkpt lat="45.89878" lon="6.64729">
        <ele>895.12</ele>
        <time>2012-08-05T16:28:57Z</time>
      </trkpt>
      <trkpt lat="45.89884" lon="6.64727">
        <ele>895.61</ele>
        <time>2012-08-05T16:28:58Z</time>
      </trkpt>
      <trkpt lat="45.8989" lon="6.64723">
        <ele>895.61</ele>
        <time>2012-08-05T16:28:59Z</time>
      </trkpt>
      <trkpt lat="45.89894" lon="6.64716">
        <ele>896.09</ele>
        <time>2012-08-05T16:29:00Z</time>
      </trkpt>
      <trkpt lat="45.89897" lon="6.64707">
        <ele>896.09</ele>
        <time>2012-08-05T16:29:01Z</time>
      </trkpt>
      <trkpt lat="45.89901" lon="6.64695">
        <ele>898.01</ele>
        <time>2012-08-05T16:29:02Z</time>
      </trkpt>
      <trkpt lat="45.89905" lon="6.64682">
        <ele>898.01</ele>
        <time>2012-08-05T16:29:03Z</time>
      </trkpt>
      <trkpt lat="45.89911" lon="6.64669">
        <ele>898.49</ele>
        <time>2012-08-05T16:29:04Z</time>
      </trkpt>
      <trkpt lat="45.89919" lon="6.64656">
        <ele>899.45</ele>
        <time>2012-08-05T16:29:05Z</time>
      </trkpt>
      <trkpt lat="45.89948" lon="6.64614">
        <ele>902.33</ele>
        <time>2012-08-05T16:29:08Z</time>
      </trkpt>
      <trkpt lat="45.89965" lon="6.64587">
        <ele>903.78</ele>
        <time>2012-08-05T16:29:10Z</time>
      </trkpt>
      <trkpt lat="45.89971" lon="6.64573">
        <ele>905.22</ele>
        <time>2012-08-05T16:29:11Z</time>
      </trkpt>
      <trkpt lat="45.89975" lon="6.64557">
        <ele>905.22</ele>
        <time>2012-08-05T16:29:12Z</time>
      </trkpt>
      <trkpt lat="45.89977" lon="6.64541">
        <ele>907.14</ele>
        <time>2012-08-05T16:29:13Z</time>
      </trkpt>
      <trkpt lat="45.89977" lon="6.64524">
        <ele>908.1</ele>
        <time>2012-08-05T16:29:14Z</time>
      </trkpt>
      <trkpt lat="45.89976" lon="6.64507">
        <ele>909.06</ele>
        <time>2012-08-05T16:29:15Z</time>
      </trkpt>
      <trkpt lat="45.89975" lon="6.64489">
        <ele>908.58</ele>
        <time>2012-08-05T16:29:16Z</time>
      </trkpt>
      <trkpt lat="45.89975" lon="6.64472">
        <ele>908.58</ele>
        <time>2012-08-05T16:29:17Z</time>
      </trkpt>
      <trkpt lat="45.89976" lon="6.64456">
        <ele>908.1</ele>
        <time>2012-08-05T16:29:18Z</time>
      </trkpt>
      <trkpt lat="45.8998" lon="6.64442">
        <ele>908.1</ele>
        <time>2012-08-05T16:29:19Z</time>
      </trkpt>
      <trkpt lat="45.89986" lon="6.64428">
        <ele>909.54</ele>
        <time>2012-08-05T16:29:20Z</time>
      </trkpt>
      <trkpt lat="45.89994" lon="6.64416">
        <ele>910.03</ele>
        <time>2012-08-05T16:29:21Z</time>
      </trkpt>
      <trkpt lat="45.90005" lon="6.64404">
        <ele>910.99</ele>
        <time>2012-08-05T16:29:22Z</time>
      </trkpt>
      <trkpt lat="45.90016" lon="6.64394">
        <ele>911.95</ele>
        <time>2012-08-05T16:29:23Z</time>
      </trkpt>
      <trkpt lat="45.9003" lon="6.64386">
        <ele>913.87</ele>
        <time>2012-08-05T16:29:24Z</time>
      </trkpt>
      <trkpt lat="45.90043" lon="6.64381">
        <ele>914.35</ele>
        <time>2012-08-05T16:29:25Z</time>
      </trkpt>
      <trkpt lat="45.90057" lon="6.64379">
        <ele>914.35</ele>
        <time>2012-08-05T16:29:26Z</time>
      </trkpt>
      <trkpt lat="45.9007" lon="6.64379">
        <ele>915.31</ele>
        <time>2012-08-05T16:29:27Z</time>
      </trkpt>
      <trkpt lat="45.90082" lon="6.6438">
        <ele>915.79</ele>
        <time>2012-08-05T16:29:28Z</time>
      </trkpt>
      <trkpt lat="45.90094" lon="6.6438">
        <ele>916.27</ele>
        <time>2012-08-05T16:29:29Z</time>
      </trkpt>
      <trkpt lat="45.90106" lon="6.64378">
        <ele>916.27</ele>
        <time>2012-08-05T16:29:30Z</time>
      </trkpt>
      <trkpt lat="45.90116" lon="6.64373">
        <ele>917.24</ele>
        <time>2012-08-05T16:29:31Z</time>
      </trkpt>
      <trkpt lat="45.90124" lon="6.64363">
        <ele>918.68</ele>
        <time>2012-08-05T16:29:32Z</time>
      </trkpt>
      <trkpt lat="45.9013" lon="6.64352">
        <ele>919.64</ele>
        <time>2012-08-05T16:29:33Z</time>
      </trkpt>
      <trkpt lat="45.90135" lon="6.64338">
        <ele>920.12</ele>
        <time>2012-08-05T16:29:34Z</time>
      </trkpt>
      <trkpt lat="45.90138" lon="6.64323">
        <ele>920.12</ele>
        <time>2012-08-05T16:29:35Z</time>
      </trkpt>
      <trkpt lat="45.90139" lon="6.64308">
        <ele>921.08</ele>
        <time>2012-08-05T16:29:36Z</time>
      </trkpt>
      <trkpt lat="45.90138" lon="6.64294">
        <ele>921.56</ele>
        <time>2012-08-05T16:29:37Z</time>
      </trkpt>
      <trkpt lat="45.90134" lon="6.64279">
        <ele>923.48</ele>
        <time>2012-08-05T16:29:38Z</time>
      </trkpt>
      <trkpt lat="45.90129" lon="6.64266">
        <ele>923</ele>
        <time>2012-08-05T16:29:39Z</time>
      </trkpt>
      <trkpt lat="45.90122" lon="6.64255">
        <ele>923.48</ele>
        <time>2012-08-05T16:29:40Z</time>
      </trkpt>
      <trkpt lat="45.90113" lon="6.64245">
        <ele>924.45</ele>
        <time>2012-08-05T16:29:41Z</time>
      </trkpt>
    </trkseg>
  </trk>
</gpx>